<?xml version="1.0" encoding="UTF-8" standalone="no" ?>
<gpx xmlns="http://www.topografix.com/GPX/1/1" xmlns:xsi="http://www.w3.org/2001/XMLSchema-instance" xsi:schemaLocation="http://www.topografix.com/GPX/1/1 http://www.topografix.com/GPX/1/1/gpx.xsd" version="1.1" creator="VisuGPX - https://www.visugpx.com">
  <metadata>
    <name>Roc marathon 2012</name>
    <desc><![CDATA[Roc marathon 2012]]></desc>
  </metadata>
  <trk>
    <name><![CDATA[12-OCT-12 15:12:08]]></name>
    <trkseg>
      <trkpt lat="43.41795" lon="6.73705">
        <ele>8.31</ele>
        <time>2012-10-12T06:30:06Z</time>
      </trkpt>
      <trkpt lat="43.41737" lon="6.73691">
        <ele>8.31</ele>
        <time>2012-10-12T06:30:16Z</time>
      </trkpt>
      <trkpt lat="43.4169" lon="6.73674">
        <ele>8.31</ele>
        <time>2012-10-12T06:30:24Z</time>
      </trkpt>
      <trkpt lat="43.41679" lon="6.73667">
        <ele>7.83</ele>
        <time>2012-10-12T06:30:26Z</time>
      </trkpt>
      <trkpt lat="43.41663" lon="6.73653">
        <ele>7.83</ele>
        <time>2012-10-12T06:30:29Z</time>
      </trkpt>
      <trkpt lat="43.4165" lon="6.73635">
        <ele>7.83</ele>
        <time>2012-10-12T06:30:32Z</time>
      </trkpt>
      <trkpt lat="43.4162" lon="6.73576">
        <ele>8.31</ele>
        <time>2012-10-12T06:30:41Z</time>
      </trkpt>
      <trkpt lat="43.41615" lon="6.7353">
        <ele>7.83</ele>
        <time>2012-10-12T06:30:47Z</time>
      </trkpt>
      <trkpt lat="43.41636" lon="6.7349">
        <ele>7.35</ele>
        <time>2012-10-12T06:30:54Z</time>
      </trkpt>
      <trkpt lat="43.41701" lon="6.73471">
        <ele>8.31</ele>
        <time>2012-10-12T06:31:05Z</time>
      </trkpt>
      <trkpt lat="43.41767" lon="6.73458">
        <ele>7.83</ele>
        <time>2012-10-12T06:31:16Z</time>
      </trkpt>
      <trkpt lat="43.41784" lon="6.73451">
        <ele>7.35</ele>
        <time>2012-10-12T06:31:19Z</time>
      </trkpt>
      <trkpt lat="43.41805" lon="6.73434">
        <ele>7.83</ele>
        <time>2012-10-12T06:31:23Z</time>
      </trkpt>
      <trkpt lat="43.41826" lon="6.73394">
        <ele>7.83</ele>
        <time>2012-10-12T06:31:29Z</time>
      </trkpt>
      <trkpt lat="43.41833" lon="6.73362">
        <ele>7.83</ele>
        <time>2012-10-12T06:31:33Z</time>
      </trkpt>
      <trkpt lat="43.41833" lon="6.73321">
        <ele>8.31</ele>
        <time>2012-10-12T06:31:38Z</time>
      </trkpt>
      <trkpt lat="43.4183" lon="6.73297">
        <ele>8.31</ele>
        <time>2012-10-12T06:31:41Z</time>
      </trkpt>
      <trkpt lat="43.41799" lon="6.73215">
        <ele>7.83</ele>
        <time>2012-10-12T06:31:52Z</time>
      </trkpt>
      <trkpt lat="43.41761" lon="6.73116">
        <ele>7.83</ele>
        <time>2012-10-12T06:32:06Z</time>
      </trkpt>
      <trkpt lat="43.41733" lon="6.73042">
        <ele>8.79</ele>
        <time>2012-10-12T06:32:17Z</time>
      </trkpt>
      <trkpt lat="43.41701" lon="6.72964">
        <ele>8.31</ele>
        <time>2012-10-12T06:32:29Z</time>
      </trkpt>
      <trkpt lat="43.41675" lon="6.72898">
        <ele>8.79</ele>
        <time>2012-10-12T06:32:39Z</time>
      </trkpt>
      <trkpt lat="43.41658" lon="6.72846">
        <ele>8.31</ele>
        <time>2012-10-12T06:32:47Z</time>
      </trkpt>
      <trkpt lat="43.41651" lon="6.72834">
        <ele>8.31</ele>
        <time>2012-10-12T06:32:49Z</time>
      </trkpt>
      <trkpt lat="43.41644" lon="6.72824">
        <ele>8.79</ele>
        <time>2012-10-12T06:32:51Z</time>
      </trkpt>
      <trkpt lat="43.4164" lon="6.7282">
        <ele>8.31</ele>
        <time>2012-10-12T06:32:52Z</time>
      </trkpt>
      <trkpt lat="43.41635" lon="6.72817">
        <ele>8.79</ele>
        <time>2012-10-12T06:32:53Z</time>
      </trkpt>
      <trkpt lat="43.4163" lon="6.72814">
        <ele>8.31</ele>
        <time>2012-10-12T06:32:54Z</time>
      </trkpt>
      <trkpt lat="43.41625" lon="6.72812">
        <ele>7.83</ele>
        <time>2012-10-12T06:32:55Z</time>
      </trkpt>
      <trkpt lat="43.41619" lon="6.72811">
        <ele>8.31</ele>
        <time>2012-10-12T06:32:56Z</time>
      </trkpt>
      <trkpt lat="43.41613" lon="6.72811">
        <ele>7.83</ele>
        <time>2012-10-12T06:32:57Z</time>
      </trkpt>
      <trkpt lat="43.41608" lon="6.72811">
        <ele>7.83</ele>
        <time>2012-10-12T06:32:58Z</time>
      </trkpt>
      <trkpt lat="43.41602" lon="6.72812">
        <ele>8.31</ele>
        <time>2012-10-12T06:32:59Z</time>
      </trkpt>
      <trkpt lat="43.41589" lon="6.72816">
        <ele>7.83</ele>
        <time>2012-10-12T06:33:01Z</time>
      </trkpt>
      <trkpt lat="43.41577" lon="6.72823">
        <ele>8.79</ele>
        <time>2012-10-12T06:33:03Z</time>
      </trkpt>
      <trkpt lat="43.41566" lon="6.72832">
        <ele>8.31</ele>
        <time>2012-10-12T06:33:05Z</time>
      </trkpt>
      <trkpt lat="43.41519" lon="6.72858">
        <ele>8.79</ele>
        <time>2012-10-12T06:33:13Z</time>
      </trkpt>
      <trkpt lat="43.41513" lon="6.72863">
        <ele>8.31</ele>
        <time>2012-10-12T06:33:14Z</time>
      </trkpt>
      <trkpt lat="43.41494" lon="6.72888">
        <ele>8.31</ele>
        <time>2012-10-12T06:33:18Z</time>
      </trkpt>
      <trkpt lat="43.41474" lon="6.72911">
        <ele>7.83</ele>
        <time>2012-10-12T06:33:22Z</time>
      </trkpt>
      <trkpt lat="43.41456" lon="6.72935">
        <ele>8.79</ele>
        <time>2012-10-12T06:33:27Z</time>
      </trkpt>
      <trkpt lat="43.41432" lon="6.72967">
        <ele>8.31</ele>
        <time>2012-10-12T06:33:33Z</time>
      </trkpt>
      <trkpt lat="43.41386" lon="6.73047">
        <ele>7.35</ele>
        <time>2012-10-12T06:33:43Z</time>
      </trkpt>
      <trkpt lat="43.41334" lon="6.73125">
        <ele>7.83</ele>
        <time>2012-10-12T06:33:54Z</time>
      </trkpt>
      <trkpt lat="43.41328" lon="6.73158">
        <ele>7.83</ele>
        <time>2012-10-12T06:33:58Z</time>
      </trkpt>
      <trkpt lat="43.41303" lon="6.73176">
        <ele>7.83</ele>
        <time>2012-10-12T06:34:04Z</time>
      </trkpt>
      <trkpt lat="43.41293" lon="6.73183">
        <ele>7.35</ele>
        <time>2012-10-12T06:34:06Z</time>
      </trkpt>
      <trkpt lat="43.41285" lon="6.73192">
        <ele>7.35</ele>
        <time>2012-10-12T06:34:08Z</time>
      </trkpt>
      <trkpt lat="43.41256" lon="6.73199">
        <ele>7.35</ele>
        <time>2012-10-12T06:34:14Z</time>
      </trkpt>
      <trkpt lat="43.41243" lon="6.7319">
        <ele>7.83</ele>
        <time>2012-10-12T06:34:20Z</time>
      </trkpt>
      <trkpt lat="43.41237" lon="6.73191">
        <ele>8.31</ele>
        <time>2012-10-12T06:34:25Z</time>
      </trkpt>
      <trkpt lat="43.41229" lon="6.73198">
        <ele>8.31</ele>
        <time>2012-10-12T06:34:34Z</time>
      </trkpt>
      <trkpt lat="43.41218" lon="6.73186">
        <ele>9.27</ele>
        <time>2012-10-12T06:34:39Z</time>
      </trkpt>
      <trkpt lat="43.41204" lon="6.73167">
        <ele>6.87</ele>
        <time>2012-10-12T06:34:43Z</time>
      </trkpt>
      <trkpt lat="43.41183" lon="6.73136">
        <ele>7.35</ele>
        <time>2012-10-12T06:34:49Z</time>
      </trkpt>
      <trkpt lat="43.41181" lon="6.731">
        <ele>8.31</ele>
        <time>2012-10-12T06:34:55Z</time>
      </trkpt>
      <trkpt lat="43.4119" lon="6.73083">
        <ele>8.31</ele>
        <time>2012-10-12T06:34:58Z</time>
      </trkpt>
      <trkpt lat="43.41247" lon="6.73011">
        <ele>7.35</ele>
        <time>2012-10-12T06:35:11Z</time>
      </trkpt>
      <trkpt lat="43.41251" lon="6.73006">
        <ele>7.35</ele>
        <time>2012-10-12T06:35:12Z</time>
      </trkpt>
      <trkpt lat="43.41254" lon="6.72974">
        <ele>7.35</ele>
        <time>2012-10-12T06:35:17Z</time>
      </trkpt>
      <trkpt lat="43.41247" lon="6.72954">
        <ele>7.35</ele>
        <time>2012-10-12T06:35:20Z</time>
      </trkpt>
      <trkpt lat="43.41243" lon="6.72902">
        <ele>8.79</ele>
        <time>2012-10-12T06:35:27Z</time>
      </trkpt>
      <trkpt lat="43.41226" lon="6.72867">
        <ele>6.39</ele>
        <time>2012-10-12T06:35:32Z</time>
      </trkpt>
      <trkpt lat="43.41191" lon="6.72838">
        <ele>6.87</ele>
        <time>2012-10-12T06:35:38Z</time>
      </trkpt>
      <trkpt lat="43.41174" lon="6.72817">
        <ele>7.35</ele>
        <time>2012-10-12T06:35:44Z</time>
      </trkpt>
      <trkpt lat="43.41176" lon="6.72805">
        <ele>7.35</ele>
        <time>2012-10-12T06:35:46Z</time>
      </trkpt>
      <trkpt lat="43.41188" lon="6.72765">
        <ele>6.39</ele>
        <time>2012-10-12T06:35:52Z</time>
      </trkpt>
      <trkpt lat="43.41198" lon="6.72738">
        <ele>6.87</ele>
        <time>2012-10-12T06:35:56Z</time>
      </trkpt>
      <trkpt lat="43.41195" lon="6.72697">
        <ele>7.35</ele>
        <time>2012-10-12T06:36:01Z</time>
      </trkpt>
      <trkpt lat="43.41187" lon="6.72686">
        <ele>6.87</ele>
        <time>2012-10-12T06:36:03Z</time>
      </trkpt>
      <trkpt lat="43.41144" lon="6.72629">
        <ele>7.35</ele>
        <time>2012-10-12T06:36:14Z</time>
      </trkpt>
      <trkpt lat="43.4114" lon="6.72624">
        <ele>7.35</ele>
        <time>2012-10-12T06:36:15Z</time>
      </trkpt>
      <trkpt lat="43.41129" lon="6.72591">
        <ele>7.35</ele>
        <time>2012-10-12T06:36:20Z</time>
      </trkpt>
      <trkpt lat="43.41145" lon="6.72562">
        <ele>8.31</ele>
        <time>2012-10-12T06:36:26Z</time>
      </trkpt>
      <trkpt lat="43.41147" lon="6.72558">
        <ele>8.31</ele>
        <time>2012-10-12T06:36:27Z</time>
      </trkpt>
      <trkpt lat="43.41148" lon="6.72553">
        <ele>7.83</ele>
        <time>2012-10-12T06:36:28Z</time>
      </trkpt>
      <trkpt lat="43.41148" lon="6.72548">
        <ele>7.83</ele>
        <time>2012-10-12T06:36:29Z</time>
      </trkpt>
      <trkpt lat="43.41148" lon="6.72542">
        <ele>8.31</ele>
        <time>2012-10-12T06:36:30Z</time>
      </trkpt>
      <trkpt lat="43.41148" lon="6.72537">
        <ele>8.31</ele>
        <time>2012-10-12T06:36:31Z</time>
      </trkpt>
      <trkpt lat="43.41147" lon="6.72533">
        <ele>8.31</ele>
        <time>2012-10-12T06:36:32Z</time>
      </trkpt>
      <trkpt lat="43.41147" lon="6.7251">
        <ele>7.35</ele>
        <time>2012-10-12T06:36:40Z</time>
      </trkpt>
      <trkpt lat="43.41148" lon="6.72503">
        <ele>6.87</ele>
        <time>2012-10-12T06:36:42Z</time>
      </trkpt>
      <trkpt lat="43.41161" lon="6.72467">
        <ele>8.31</ele>
        <time>2012-10-12T06:36:51Z</time>
      </trkpt>
      <trkpt lat="43.41164" lon="6.72463">
        <ele>7.83</ele>
        <time>2012-10-12T06:36:52Z</time>
      </trkpt>
      <trkpt lat="43.41167" lon="6.72461">
        <ele>7.35</ele>
        <time>2012-10-12T06:36:53Z</time>
      </trkpt>
      <trkpt lat="43.4117" lon="6.72459">
        <ele>7.83</ele>
        <time>2012-10-12T06:36:54Z</time>
      </trkpt>
      <trkpt lat="43.41173" lon="6.72458">
        <ele>8.31</ele>
        <time>2012-10-12T06:36:55Z</time>
      </trkpt>
      <trkpt lat="43.41176" lon="6.72459">
        <ele>7.83</ele>
        <time>2012-10-12T06:36:56Z</time>
      </trkpt>
      <trkpt lat="43.41179" lon="6.72461">
        <ele>7.83</ele>
        <time>2012-10-12T06:36:57Z</time>
      </trkpt>
      <trkpt lat="43.41182" lon="6.72464">
        <ele>7.83</ele>
        <time>2012-10-12T06:36:58Z</time>
      </trkpt>
      <trkpt lat="43.41185" lon="6.72467">
        <ele>7.83</ele>
        <time>2012-10-12T06:36:59Z</time>
      </trkpt>
      <trkpt lat="43.41191" lon="6.72475">
        <ele>7.83</ele>
        <time>2012-10-12T06:37:02Z</time>
      </trkpt>
      <trkpt lat="43.41187" lon="6.72487">
        <ele>10.23</ele>
        <time>2012-10-12T06:37:09Z</time>
      </trkpt>
      <trkpt lat="43.41184" lon="6.72493">
        <ele>9.75</ele>
        <time>2012-10-12T06:37:17Z</time>
      </trkpt>
      <trkpt lat="43.41178" lon="6.72504">
        <ele>9.75</ele>
        <time>2012-10-12T06:37:26Z</time>
      </trkpt>
      <trkpt lat="43.41174" lon="6.72508">
        <ele>10.23</ele>
        <time>2012-10-12T06:37:34Z</time>
      </trkpt>
      <trkpt lat="43.41164" lon="6.7251">
        <ele>10.71</ele>
        <time>2012-10-12T06:37:44Z</time>
      </trkpt>
      <trkpt lat="43.41148" lon="6.72499">
        <ele>10.71</ele>
        <time>2012-10-12T06:37:53Z</time>
      </trkpt>
      <trkpt lat="43.41092" lon="6.72463">
        <ele>10.23</ele>
        <time>2012-10-12T06:38:06Z</time>
      </trkpt>
      <trkpt lat="43.41054" lon="6.72429">
        <ele>8.31</ele>
        <time>2012-10-12T06:38:13Z</time>
      </trkpt>
      <trkpt lat="43.41047" lon="6.72425">
        <ele>7.83</ele>
        <time>2012-10-12T06:38:14Z</time>
      </trkpt>
      <trkpt lat="43.4104" lon="6.72421">
        <ele>8.31</ele>
        <time>2012-10-12T06:38:15Z</time>
      </trkpt>
      <trkpt lat="43.41033" lon="6.72418">
        <ele>8.31</ele>
        <time>2012-10-12T06:38:16Z</time>
      </trkpt>
      <trkpt lat="43.41026" lon="6.72416">
        <ele>8.79</ele>
        <time>2012-10-12T06:38:17Z</time>
      </trkpt>
      <trkpt lat="43.41019" lon="6.72414">
        <ele>7.83</ele>
        <time>2012-10-12T06:38:18Z</time>
      </trkpt>
      <trkpt lat="43.40941" lon="6.72417">
        <ele>7.83</ele>
        <time>2012-10-12T06:38:28Z</time>
      </trkpt>
      <trkpt lat="43.40926" lon="6.72423">
        <ele>8.31</ele>
        <time>2012-10-12T06:38:30Z</time>
      </trkpt>
      <trkpt lat="43.40919" lon="6.72422">
        <ele>7.83</ele>
        <time>2012-10-12T06:38:31Z</time>
      </trkpt>
      <trkpt lat="43.40912" lon="6.72417">
        <ele>6.87</ele>
        <time>2012-10-12T06:38:32Z</time>
      </trkpt>
      <trkpt lat="43.40908" lon="6.72408">
        <ele>6.39</ele>
        <time>2012-10-12T06:38:33Z</time>
      </trkpt>
      <trkpt lat="43.40906" lon="6.72397">
        <ele>5.42</ele>
        <time>2012-10-12T06:38:34Z</time>
      </trkpt>
      <trkpt lat="43.40906" lon="6.72385">
        <ele>5.42</ele>
        <time>2012-10-12T06:38:35Z</time>
      </trkpt>
      <trkpt lat="43.40904" lon="6.72374">
        <ele>5.91</ele>
        <time>2012-10-12T06:38:36Z</time>
      </trkpt>
      <trkpt lat="43.40901" lon="6.72364">
        <ele>5.91</ele>
        <time>2012-10-12T06:38:37Z</time>
      </trkpt>
      <trkpt lat="43.40895" lon="6.72356">
        <ele>6.39</ele>
        <time>2012-10-12T06:38:38Z</time>
      </trkpt>
      <trkpt lat="43.40889" lon="6.7235">
        <ele>5.91</ele>
        <time>2012-10-12T06:38:39Z</time>
      </trkpt>
      <trkpt lat="43.40881" lon="6.72345">
        <ele>5.91</ele>
        <time>2012-10-12T06:38:40Z</time>
      </trkpt>
      <trkpt lat="43.40874" lon="6.7234">
        <ele>6.39</ele>
        <time>2012-10-12T06:38:41Z</time>
      </trkpt>
      <trkpt lat="43.40859" lon="6.72333">
        <ele>6.39</ele>
        <time>2012-10-12T06:38:43Z</time>
      </trkpt>
      <trkpt lat="43.40851" lon="6.72332">
        <ele>6.87</ele>
        <time>2012-10-12T06:38:44Z</time>
      </trkpt>
      <trkpt lat="43.40843" lon="6.72332">
        <ele>6.87</ele>
        <time>2012-10-12T06:38:45Z</time>
      </trkpt>
      <trkpt lat="43.40828" lon="6.72332">
        <ele>6.87</ele>
        <time>2012-10-12T06:38:47Z</time>
      </trkpt>
      <trkpt lat="43.4082" lon="6.72331">
        <ele>6.87</ele>
        <time>2012-10-12T06:38:48Z</time>
      </trkpt>
      <trkpt lat="43.40813" lon="6.72329">
        <ele>6.87</ele>
        <time>2012-10-12T06:38:49Z</time>
      </trkpt>
      <trkpt lat="43.40743" lon="6.723">
        <ele>6.87</ele>
        <time>2012-10-12T06:38:59Z</time>
      </trkpt>
      <trkpt lat="43.40737" lon="6.72294">
        <ele>6.39</ele>
        <time>2012-10-12T06:39:00Z</time>
      </trkpt>
      <trkpt lat="43.40732" lon="6.72286">
        <ele>5.91</ele>
        <time>2012-10-12T06:39:01Z</time>
      </trkpt>
      <trkpt lat="43.4073" lon="6.72277">
        <ele>5.42</ele>
        <time>2012-10-12T06:39:02Z</time>
      </trkpt>
      <trkpt lat="43.4073" lon="6.72267">
        <ele>6.87</ele>
        <time>2012-10-12T06:39:03Z</time>
      </trkpt>
      <trkpt lat="43.40732" lon="6.72257">
        <ele>6.39</ele>
        <time>2012-10-12T06:39:04Z</time>
      </trkpt>
      <trkpt lat="43.40735" lon="6.72248">
        <ele>6.87</ele>
        <time>2012-10-12T06:39:05Z</time>
      </trkpt>
      <trkpt lat="43.40738" lon="6.72239">
        <ele>6.39</ele>
        <time>2012-10-12T06:39:06Z</time>
      </trkpt>
      <trkpt lat="43.4075" lon="6.72215">
        <ele>5.91</ele>
        <time>2012-10-12T06:39:09Z</time>
      </trkpt>
      <trkpt lat="43.40753" lon="6.72206">
        <ele>6.39</ele>
        <time>2012-10-12T06:39:10Z</time>
      </trkpt>
      <trkpt lat="43.40764" lon="6.7218">
        <ele>7.35</ele>
        <time>2012-10-12T06:39:13Z</time>
      </trkpt>
      <trkpt lat="43.40768" lon="6.72172">
        <ele>6.87</ele>
        <time>2012-10-12T06:39:14Z</time>
      </trkpt>
      <trkpt lat="43.40773" lon="6.72164">
        <ele>6.39</ele>
        <time>2012-10-12T06:39:15Z</time>
      </trkpt>
      <trkpt lat="43.40777" lon="6.72155">
        <ele>6.39</ele>
        <time>2012-10-12T06:39:16Z</time>
      </trkpt>
      <trkpt lat="43.4078" lon="6.72145">
        <ele>6.87</ele>
        <time>2012-10-12T06:39:17Z</time>
      </trkpt>
      <trkpt lat="43.40783" lon="6.72136">
        <ele>6.39</ele>
        <time>2012-10-12T06:39:18Z</time>
      </trkpt>
      <trkpt lat="43.40785" lon="6.72126">
        <ele>6.39</ele>
        <time>2012-10-12T06:39:19Z</time>
      </trkpt>
      <trkpt lat="43.40787" lon="6.72117">
        <ele>6.87</ele>
        <time>2012-10-12T06:39:20Z</time>
      </trkpt>
      <trkpt lat="43.40788" lon="6.72107">
        <ele>6.39</ele>
        <time>2012-10-12T06:39:21Z</time>
      </trkpt>
      <trkpt lat="43.40788" lon="6.72097">
        <ele>6.39</ele>
        <time>2012-10-12T06:39:22Z</time>
      </trkpt>
      <trkpt lat="43.40789" lon="6.72087">
        <ele>5.91</ele>
        <time>2012-10-12T06:39:23Z</time>
      </trkpt>
      <trkpt lat="43.40804" lon="6.71989">
        <ele>6.39</ele>
        <time>2012-10-12T06:39:33Z</time>
      </trkpt>
      <trkpt lat="43.40808" lon="6.71979">
        <ele>5.91</ele>
        <time>2012-10-12T06:39:34Z</time>
      </trkpt>
      <trkpt lat="43.40848" lon="6.71869">
        <ele>6.39</ele>
        <time>2012-10-12T06:39:46Z</time>
      </trkpt>
      <trkpt lat="43.40875" lon="6.71819">
        <ele>6.39</ele>
        <time>2012-10-12T06:39:52Z</time>
      </trkpt>
      <trkpt lat="43.40895" lon="6.71779">
        <ele>6.87</ele>
        <time>2012-10-12T06:39:57Z</time>
      </trkpt>
      <trkpt lat="43.40898" lon="6.71769">
        <ele>6.87</ele>
        <time>2012-10-12T06:39:58Z</time>
      </trkpt>
      <trkpt lat="43.409" lon="6.7176">
        <ele>5.91</ele>
        <time>2012-10-12T06:39:59Z</time>
      </trkpt>
      <trkpt lat="43.40902" lon="6.7175">
        <ele>5.91</ele>
        <time>2012-10-12T06:40:00Z</time>
      </trkpt>
      <trkpt lat="43.40903" lon="6.7174">
        <ele>6.39</ele>
        <time>2012-10-12T06:40:01Z</time>
      </trkpt>
      <trkpt lat="43.40905" lon="6.7173">
        <ele>5.91</ele>
        <time>2012-10-12T06:40:02Z</time>
      </trkpt>
      <trkpt lat="43.40907" lon="6.71721">
        <ele>6.39</ele>
        <time>2012-10-12T06:40:03Z</time>
      </trkpt>
      <trkpt lat="43.40918" lon="6.71672">
        <ele>6.39</ele>
        <time>2012-10-12T06:40:08Z</time>
      </trkpt>
      <trkpt lat="43.40936" lon="6.71575">
        <ele>6.87</ele>
        <time>2012-10-12T06:40:18Z</time>
      </trkpt>
      <trkpt lat="43.40946" lon="6.71519">
        <ele>7.35</ele>
        <time>2012-10-12T06:40:24Z</time>
      </trkpt>
      <trkpt lat="43.40948" lon="6.71491">
        <ele>6.87</ele>
        <time>2012-10-12T06:40:27Z</time>
      </trkpt>
      <trkpt lat="43.40951" lon="6.71483">
        <ele>6.87</ele>
        <time>2012-10-12T06:40:28Z</time>
      </trkpt>
      <trkpt lat="43.40956" lon="6.71477">
        <ele>6.39</ele>
        <time>2012-10-12T06:40:29Z</time>
      </trkpt>
      <trkpt lat="43.40961" lon="6.71473">
        <ele>6.87</ele>
        <time>2012-10-12T06:40:30Z</time>
      </trkpt>
      <trkpt lat="43.40968" lon="6.71471">
        <ele>6.39</ele>
        <time>2012-10-12T06:40:31Z</time>
      </trkpt>
      <trkpt lat="43.40975" lon="6.7147">
        <ele>6.39</ele>
        <time>2012-10-12T06:40:32Z</time>
      </trkpt>
      <trkpt lat="43.40987" lon="6.71465">
        <ele>6.39</ele>
        <time>2012-10-12T06:40:34Z</time>
      </trkpt>
      <trkpt lat="43.41006" lon="6.71452">
        <ele>6.87</ele>
        <time>2012-10-12T06:40:37Z</time>
      </trkpt>
      <trkpt lat="43.41011" lon="6.71447">
        <ele>6.87</ele>
        <time>2012-10-12T06:40:38Z</time>
      </trkpt>
      <trkpt lat="43.41053" lon="6.71395">
        <ele>6.87</ele>
        <time>2012-10-12T06:40:46Z</time>
      </trkpt>
      <trkpt lat="43.41098" lon="6.71313">
        <ele>6.87</ele>
        <time>2012-10-12T06:40:57Z</time>
      </trkpt>
      <trkpt lat="43.41112" lon="6.71293">
        <ele>6.87</ele>
        <time>2012-10-12T06:41:00Z</time>
      </trkpt>
      <trkpt lat="43.41118" lon="6.71288">
        <ele>6.87</ele>
        <time>2012-10-12T06:41:01Z</time>
      </trkpt>
      <trkpt lat="43.41124" lon="6.71284">
        <ele>6.87</ele>
        <time>2012-10-12T06:41:02Z</time>
      </trkpt>
      <trkpt lat="43.4113" lon="6.7128">
        <ele>6.87</ele>
        <time>2012-10-12T06:41:03Z</time>
      </trkpt>
      <trkpt lat="43.41136" lon="6.71277">
        <ele>6.87</ele>
        <time>2012-10-12T06:41:04Z</time>
      </trkpt>
      <trkpt lat="43.41155" lon="6.71267">
        <ele>6.39</ele>
        <time>2012-10-12T06:41:07Z</time>
      </trkpt>
      <trkpt lat="43.41161" lon="6.71262">
        <ele>7.35</ele>
        <time>2012-10-12T06:41:08Z</time>
      </trkpt>
      <trkpt lat="43.41166" lon="6.71256">
        <ele>6.39</ele>
        <time>2012-10-12T06:41:09Z</time>
      </trkpt>
      <trkpt lat="43.41187" lon="6.71231">
        <ele>6.87</ele>
        <time>2012-10-12T06:41:13Z</time>
      </trkpt>
      <trkpt lat="43.41225" lon="6.71187">
        <ele>5.91</ele>
        <time>2012-10-12T06:41:20Z</time>
      </trkpt>
      <trkpt lat="43.41238" lon="6.71164">
        <ele>5.91</ele>
        <time>2012-10-12T06:41:23Z</time>
      </trkpt>
      <trkpt lat="43.41264" lon="6.71097">
        <ele>5.91</ele>
        <time>2012-10-12T06:41:31Z</time>
      </trkpt>
      <trkpt lat="43.41267" lon="6.71089">
        <ele>6.39</ele>
        <time>2012-10-12T06:41:32Z</time>
      </trkpt>
      <trkpt lat="43.41279" lon="6.71067">
        <ele>6.87</ele>
        <time>2012-10-12T06:41:35Z</time>
      </trkpt>
      <trkpt lat="43.41283" lon="6.71061">
        <ele>6.39</ele>
        <time>2012-10-12T06:41:36Z</time>
      </trkpt>
      <trkpt lat="43.41333" lon="6.70986">
        <ele>7.83</ele>
        <time>2012-10-12T06:41:47Z</time>
      </trkpt>
      <trkpt lat="43.41347" lon="6.70967">
        <ele>7.83</ele>
        <time>2012-10-12T06:41:50Z</time>
      </trkpt>
      <trkpt lat="43.41352" lon="6.7096">
        <ele>7.35</ele>
        <time>2012-10-12T06:41:51Z</time>
      </trkpt>
      <trkpt lat="43.41356" lon="6.70953">
        <ele>7.35</ele>
        <time>2012-10-12T06:41:52Z</time>
      </trkpt>
      <trkpt lat="43.41361" lon="6.70946">
        <ele>7.35</ele>
        <time>2012-10-12T06:41:53Z</time>
      </trkpt>
      <trkpt lat="43.41365" lon="6.70939">
        <ele>7.35</ele>
        <time>2012-10-12T06:41:54Z</time>
      </trkpt>
      <trkpt lat="43.41375" lon="6.70926">
        <ele>7.83</ele>
        <time>2012-10-12T06:41:56Z</time>
      </trkpt>
      <trkpt lat="43.41385" lon="6.70914">
        <ele>7.35</ele>
        <time>2012-10-12T06:41:58Z</time>
      </trkpt>
      <trkpt lat="43.4139" lon="6.70907">
        <ele>7.35</ele>
        <time>2012-10-12T06:41:59Z</time>
      </trkpt>
      <trkpt lat="43.41407" lon="6.70879">
        <ele>6.87</ele>
        <time>2012-10-12T06:42:03Z</time>
      </trkpt>
      <trkpt lat="43.41411" lon="6.70871">
        <ele>6.39</ele>
        <time>2012-10-12T06:42:04Z</time>
      </trkpt>
      <trkpt lat="43.41414" lon="6.70863">
        <ele>6.39</ele>
        <time>2012-10-12T06:42:05Z</time>
      </trkpt>
      <trkpt lat="43.41428" lon="6.7082">
        <ele>6.87</ele>
        <time>2012-10-12T06:42:10Z</time>
      </trkpt>
      <trkpt lat="43.41429" lon="6.7081">
        <ele>6.87</ele>
        <time>2012-10-12T06:42:11Z</time>
      </trkpt>
      <trkpt lat="43.41429" lon="6.70801">
        <ele>7.35</ele>
        <time>2012-10-12T06:42:12Z</time>
      </trkpt>
      <trkpt lat="43.41434" lon="6.70757">
        <ele>7.83</ele>
        <time>2012-10-12T06:42:17Z</time>
      </trkpt>
      <trkpt lat="43.41436" lon="6.7075">
        <ele>7.35</ele>
        <time>2012-10-12T06:42:18Z</time>
      </trkpt>
      <trkpt lat="43.41438" lon="6.70743">
        <ele>8.31</ele>
        <time>2012-10-12T06:42:19Z</time>
      </trkpt>
      <trkpt lat="43.41441" lon="6.70736">
        <ele>8.31</ele>
        <time>2012-10-12T06:42:20Z</time>
      </trkpt>
      <trkpt lat="43.41443" lon="6.70729">
        <ele>8.31</ele>
        <time>2012-10-12T06:42:21Z</time>
      </trkpt>
      <trkpt lat="43.4145" lon="6.70686">
        <ele>6.87</ele>
        <time>2012-10-12T06:42:26Z</time>
      </trkpt>
      <trkpt lat="43.41449" lon="6.70678">
        <ele>6.87</ele>
        <time>2012-10-12T06:42:27Z</time>
      </trkpt>
      <trkpt lat="43.41448" lon="6.7067">
        <ele>6.39</ele>
        <time>2012-10-12T06:42:28Z</time>
      </trkpt>
      <trkpt lat="43.41447" lon="6.70663">
        <ele>6.39</ele>
        <time>2012-10-12T06:42:29Z</time>
      </trkpt>
      <trkpt lat="43.41428" lon="6.70645">
        <ele>6.39</ele>
        <time>2012-10-12T06:42:33Z</time>
      </trkpt>
      <trkpt lat="43.41391" lon="6.70634">
        <ele>5.91</ele>
        <time>2012-10-12T06:42:38Z</time>
      </trkpt>
      <trkpt lat="43.41385" lon="6.70638">
        <ele>5.42</ele>
        <time>2012-10-12T06:42:39Z</time>
      </trkpt>
      <trkpt lat="43.4138" lon="6.70644">
        <ele>5.91</ele>
        <time>2012-10-12T06:42:40Z</time>
      </trkpt>
      <trkpt lat="43.4137" lon="6.70655">
        <ele>5.91</ele>
        <time>2012-10-12T06:42:42Z</time>
      </trkpt>
      <trkpt lat="43.41364" lon="6.70658">
        <ele>5.91</ele>
        <time>2012-10-12T06:42:43Z</time>
      </trkpt>
      <trkpt lat="43.41346" lon="6.70651">
        <ele>5.91</ele>
        <time>2012-10-12T06:42:47Z</time>
      </trkpt>
      <trkpt lat="43.41343" lon="6.70647">
        <ele>6.39</ele>
        <time>2012-10-12T06:42:48Z</time>
      </trkpt>
      <trkpt lat="43.41332" lon="6.7063">
        <ele>6.39</ele>
        <time>2012-10-12T06:42:52Z</time>
      </trkpt>
      <trkpt lat="43.41299" lon="6.70593">
        <ele>6.87</ele>
        <time>2012-10-12T06:43:01Z</time>
      </trkpt>
      <trkpt lat="43.41286" lon="6.70582">
        <ele>8.31</ele>
        <time>2012-10-12T06:43:04Z</time>
      </trkpt>
      <trkpt lat="43.41281" lon="6.70579">
        <ele>8.31</ele>
        <time>2012-10-12T06:43:05Z</time>
      </trkpt>
      <trkpt lat="43.41264" lon="6.70567">
        <ele>9.27</ele>
        <time>2012-10-12T06:43:09Z</time>
      </trkpt>
      <trkpt lat="43.41262" lon="6.70562">
        <ele>10.23</ele>
        <time>2012-10-12T06:43:10Z</time>
      </trkpt>
      <trkpt lat="43.41262" lon="6.70556">
        <ele>10.23</ele>
        <time>2012-10-12T06:43:11Z</time>
      </trkpt>
      <trkpt lat="43.4126" lon="6.70544">
        <ele>9.75</ele>
        <time>2012-10-12T06:43:13Z</time>
      </trkpt>
      <trkpt lat="43.4126" lon="6.70538">
        <ele>9.75</ele>
        <time>2012-10-12T06:43:14Z</time>
      </trkpt>
      <trkpt lat="43.41261" lon="6.70531">
        <ele>9.75</ele>
        <time>2012-10-12T06:43:15Z</time>
      </trkpt>
      <trkpt lat="43.41264" lon="6.70525">
        <ele>9.75</ele>
        <time>2012-10-12T06:43:16Z</time>
      </trkpt>
      <trkpt lat="43.41266" lon="6.70519">
        <ele>9.27</ele>
        <time>2012-10-12T06:43:17Z</time>
      </trkpt>
      <trkpt lat="43.41298" lon="6.70442">
        <ele>9.27</ele>
        <time>2012-10-12T06:43:28Z</time>
      </trkpt>
      <trkpt lat="43.41332" lon="6.70345">
        <ele>8.31</ele>
        <time>2012-10-12T06:43:40Z</time>
      </trkpt>
      <trkpt lat="43.41334" lon="6.70336">
        <ele>8.31</ele>
        <time>2012-10-12T06:43:41Z</time>
      </trkpt>
      <trkpt lat="43.41331" lon="6.70246">
        <ele>7.83</ele>
        <time>2012-10-12T06:43:51Z</time>
      </trkpt>
      <trkpt lat="43.41311" lon="6.70159">
        <ele>9.75</ele>
        <time>2012-10-12T06:44:02Z</time>
      </trkpt>
      <trkpt lat="43.41307" lon="6.70153">
        <ele>9.75</ele>
        <time>2012-10-12T06:44:03Z</time>
      </trkpt>
      <trkpt lat="43.41303" lon="6.70148">
        <ele>9.27</ele>
        <time>2012-10-12T06:44:04Z</time>
      </trkpt>
      <trkpt lat="43.41299" lon="6.70142">
        <ele>9.75</ele>
        <time>2012-10-12T06:44:05Z</time>
      </trkpt>
      <trkpt lat="43.41296" lon="6.70135">
        <ele>9.75</ele>
        <time>2012-10-12T06:44:06Z</time>
      </trkpt>
      <trkpt lat="43.41295" lon="6.70127">
        <ele>9.75</ele>
        <time>2012-10-12T06:44:07Z</time>
      </trkpt>
      <trkpt lat="43.41294" lon="6.70119">
        <ele>9.75</ele>
        <time>2012-10-12T06:44:08Z</time>
      </trkpt>
      <trkpt lat="43.41291" lon="6.70112">
        <ele>9.27</ele>
        <time>2012-10-12T06:44:09Z</time>
      </trkpt>
      <trkpt lat="43.41288" lon="6.70105">
        <ele>9.27</ele>
        <time>2012-10-12T06:44:10Z</time>
      </trkpt>
      <trkpt lat="43.41284" lon="6.70099">
        <ele>9.75</ele>
        <time>2012-10-12T06:44:11Z</time>
      </trkpt>
      <trkpt lat="43.41281" lon="6.70092">
        <ele>10.23</ele>
        <time>2012-10-12T06:44:12Z</time>
      </trkpt>
      <trkpt lat="43.4128" lon="6.70086">
        <ele>11.19</ele>
        <time>2012-10-12T06:44:13Z</time>
      </trkpt>
      <trkpt lat="43.41279" lon="6.7008">
        <ele>11.67</ele>
        <time>2012-10-12T06:44:14Z</time>
      </trkpt>
      <trkpt lat="43.4128" lon="6.70075">
        <ele>11.67</ele>
        <time>2012-10-12T06:44:15Z</time>
      </trkpt>
      <trkpt lat="43.4128" lon="6.7007">
        <ele>12.63</ele>
        <time>2012-10-12T06:44:16Z</time>
      </trkpt>
      <trkpt lat="43.41281" lon="6.70065">
        <ele>13.12</ele>
        <time>2012-10-12T06:44:17Z</time>
      </trkpt>
      <trkpt lat="43.41281" lon="6.70059">
        <ele>11.19</ele>
        <time>2012-10-12T06:44:18Z</time>
      </trkpt>
      <trkpt lat="43.41281" lon="6.7005">
        <ele>9.75</ele>
        <time>2012-10-12T06:44:19Z</time>
      </trkpt>
      <trkpt lat="43.4128" lon="6.70041">
        <ele>9.27</ele>
        <time>2012-10-12T06:44:20Z</time>
      </trkpt>
      <trkpt lat="43.41279" lon="6.70031">
        <ele>8.79</ele>
        <time>2012-10-12T06:44:21Z</time>
      </trkpt>
      <trkpt lat="43.4126" lon="6.69928">
        <ele>9.27</ele>
        <time>2012-10-12T06:44:33Z</time>
      </trkpt>
      <trkpt lat="43.41245" lon="6.69865">
        <ele>9.75</ele>
        <time>2012-10-12T06:44:41Z</time>
      </trkpt>
      <trkpt lat="43.41242" lon="6.69858">
        <ele>9.27</ele>
        <time>2012-10-12T06:44:42Z</time>
      </trkpt>
      <trkpt lat="43.4124" lon="6.69851">
        <ele>9.75</ele>
        <time>2012-10-12T06:44:43Z</time>
      </trkpt>
      <trkpt lat="43.41236" lon="6.69844">
        <ele>9.27</ele>
        <time>2012-10-12T06:44:44Z</time>
      </trkpt>
      <trkpt lat="43.41233" lon="6.69837">
        <ele>9.75</ele>
        <time>2012-10-12T06:44:45Z</time>
      </trkpt>
      <trkpt lat="43.41229" lon="6.6983">
        <ele>9.75</ele>
        <time>2012-10-12T06:44:46Z</time>
      </trkpt>
      <trkpt lat="43.41225" lon="6.69824">
        <ele>9.27</ele>
        <time>2012-10-12T06:44:47Z</time>
      </trkpt>
      <trkpt lat="43.41215" lon="6.69804">
        <ele>9.75</ele>
        <time>2012-10-12T06:44:50Z</time>
      </trkpt>
      <trkpt lat="43.41192" lon="6.69733">
        <ele>9.75</ele>
        <time>2012-10-12T06:45:00Z</time>
      </trkpt>
      <trkpt lat="43.41188" lon="6.69726">
        <ele>8.79</ele>
        <time>2012-10-12T06:45:01Z</time>
      </trkpt>
      <trkpt lat="43.41185" lon="6.69719">
        <ele>8.79</ele>
        <time>2012-10-12T06:45:02Z</time>
      </trkpt>
      <trkpt lat="43.41175" lon="6.697">
        <ele>9.27</ele>
        <time>2012-10-12T06:45:05Z</time>
      </trkpt>
      <trkpt lat="43.41171" lon="6.69695">
        <ele>9.75</ele>
        <time>2012-10-12T06:45:06Z</time>
      </trkpt>
      <trkpt lat="43.41167" lon="6.69691">
        <ele>9.75</ele>
        <time>2012-10-12T06:45:07Z</time>
      </trkpt>
      <trkpt lat="43.41163" lon="6.69689">
        <ele>9.75</ele>
        <time>2012-10-12T06:45:08Z</time>
      </trkpt>
      <trkpt lat="43.41158" lon="6.69686">
        <ele>9.27</ele>
        <time>2012-10-12T06:45:09Z</time>
      </trkpt>
      <trkpt lat="43.41153" lon="6.69686">
        <ele>9.27</ele>
        <time>2012-10-12T06:45:10Z</time>
      </trkpt>
      <trkpt lat="43.41148" lon="6.69687">
        <ele>9.27</ele>
        <time>2012-10-12T06:45:11Z</time>
      </trkpt>
      <trkpt lat="43.41143" lon="6.6969">
        <ele>9.27</ele>
        <time>2012-10-12T06:45:12Z</time>
      </trkpt>
      <trkpt lat="43.41139" lon="6.69695">
        <ele>9.75</ele>
        <time>2012-10-12T06:45:13Z</time>
      </trkpt>
      <trkpt lat="43.41136" lon="6.697">
        <ele>9.75</ele>
        <time>2012-10-12T06:45:14Z</time>
      </trkpt>
      <trkpt lat="43.41133" lon="6.69705">
        <ele>10.23</ele>
        <time>2012-10-12T06:45:15Z</time>
      </trkpt>
      <trkpt lat="43.41131" lon="6.6971">
        <ele>10.71</ele>
        <time>2012-10-12T06:45:16Z</time>
      </trkpt>
      <trkpt lat="43.4113" lon="6.69714">
        <ele>11.19</ele>
        <time>2012-10-12T06:45:17Z</time>
      </trkpt>
      <trkpt lat="43.41118" lon="6.69746">
        <ele>14.56</ele>
        <time>2012-10-12T06:45:25Z</time>
      </trkpt>
      <trkpt lat="43.411" lon="6.69773">
        <ele>17.44</ele>
        <time>2012-10-12T06:45:35Z</time>
      </trkpt>
      <trkpt lat="43.41083" lon="6.69809">
        <ele>20.32</ele>
        <time>2012-10-12T06:45:46Z</time>
      </trkpt>
      <trkpt lat="43.41067" lon="6.69846">
        <ele>23.21</ele>
        <time>2012-10-12T06:45:57Z</time>
      </trkpt>
      <trkpt lat="43.41056" lon="6.69876">
        <ele>25.61</ele>
        <time>2012-10-12T06:46:06Z</time>
      </trkpt>
      <trkpt lat="43.41054" lon="6.69878">
        <ele>26.09</ele>
        <time>2012-10-12T06:46:07Z</time>
      </trkpt>
      <trkpt lat="43.41044" lon="6.69903">
        <ele>29.46</ele>
        <time>2012-10-12T06:46:16Z</time>
      </trkpt>
      <trkpt lat="43.41047" lon="6.69927">
        <ele>30.9</ele>
        <time>2012-10-12T06:46:24Z</time>
      </trkpt>
      <trkpt lat="43.41033" lon="6.69958">
        <ele>34.26</ele>
        <time>2012-10-12T06:46:36Z</time>
      </trkpt>
      <trkpt lat="43.41031" lon="6.6999">
        <ele>36.67</ele>
        <time>2012-10-12T06:46:47Z</time>
      </trkpt>
      <trkpt lat="43.41034" lon="6.70011">
        <ele>38.59</ele>
        <time>2012-10-12T06:46:55Z</time>
      </trkpt>
      <trkpt lat="43.41033" lon="6.70037">
        <ele>41.95</ele>
        <time>2012-10-12T06:47:05Z</time>
      </trkpt>
      <trkpt lat="43.41035" lon="6.70045">
        <ele>42.44</ele>
        <time>2012-10-12T06:47:08Z</time>
      </trkpt>
      <trkpt lat="43.41042" lon="6.70078">
        <ele>44.36</ele>
        <time>2012-10-12T06:47:20Z</time>
      </trkpt>
      <trkpt lat="43.41047" lon="6.701">
        <ele>45.8</ele>
        <time>2012-10-12T06:47:28Z</time>
      </trkpt>
      <trkpt lat="43.4104" lon="6.7012">
        <ele>47.24</ele>
        <time>2012-10-12T06:47:36Z</time>
      </trkpt>
      <trkpt lat="43.41041" lon="6.70125">
        <ele>48.2</ele>
        <time>2012-10-12T06:47:38Z</time>
      </trkpt>
      <trkpt lat="43.41035" lon="6.70124">
        <ele>49.65</ele>
        <time>2012-10-12T06:47:42Z</time>
      </trkpt>
      <trkpt lat="43.41028" lon="6.70123">
        <ele>50.61</ele>
        <time>2012-10-12T06:47:46Z</time>
      </trkpt>
      <trkpt lat="43.41013" lon="6.70135">
        <ele>53.97</ele>
        <time>2012-10-12T06:47:55Z</time>
      </trkpt>
      <trkpt lat="43.4101" lon="6.70143">
        <ele>54.45</ele>
        <time>2012-10-12T06:47:58Z</time>
      </trkpt>
      <trkpt lat="43.41007" lon="6.7015">
        <ele>55.41</ele>
        <time>2012-10-12T06:48:01Z</time>
      </trkpt>
      <trkpt lat="43.40999" lon="6.7015">
        <ele>54.93</ele>
        <time>2012-10-12T06:48:05Z</time>
      </trkpt>
      <trkpt lat="43.40992" lon="6.70147">
        <ele>53.49</ele>
        <time>2012-10-12T06:48:07Z</time>
      </trkpt>
      <trkpt lat="43.40971" lon="6.70136">
        <ele>53.49</ele>
        <time>2012-10-12T06:48:12Z</time>
      </trkpt>
      <trkpt lat="43.40968" lon="6.70136">
        <ele>54.93</ele>
        <time>2012-10-12T06:48:14Z</time>
      </trkpt>
      <trkpt lat="43.40958" lon="6.70145">
        <ele>57.82</ele>
        <time>2012-10-12T06:48:22Z</time>
      </trkpt>
      <trkpt lat="43.40951" lon="6.70153">
        <ele>59.26</ele>
        <time>2012-10-12T06:48:27Z</time>
      </trkpt>
      <trkpt lat="43.40943" lon="6.70163">
        <ele>61.18</ele>
        <time>2012-10-12T06:48:33Z</time>
      </trkpt>
      <trkpt lat="43.40926" lon="6.70167">
        <ele>62.14</ele>
        <time>2012-10-12T06:48:41Z</time>
      </trkpt>
      <trkpt lat="43.40894" lon="6.70174">
        <ele>62.14</ele>
        <time>2012-10-12T06:48:50Z</time>
      </trkpt>
      <trkpt lat="43.40885" lon="6.70189">
        <ele>62.62</ele>
        <time>2012-10-12T06:48:54Z</time>
      </trkpt>
      <trkpt lat="43.40881" lon="6.70205">
        <ele>62.14</ele>
        <time>2012-10-12T06:48:57Z</time>
      </trkpt>
      <trkpt lat="43.4086" lon="6.70232">
        <ele>60.7</ele>
        <time>2012-10-12T06:49:03Z</time>
      </trkpt>
      <trkpt lat="43.40841" lon="6.70239">
        <ele>58.3</ele>
        <time>2012-10-12T06:49:06Z</time>
      </trkpt>
      <trkpt lat="43.40816" lon="6.70243">
        <ele>58.78</ele>
        <time>2012-10-12T06:49:10Z</time>
      </trkpt>
      <trkpt lat="43.4081" lon="6.70243">
        <ele>58.3</ele>
        <time>2012-10-12T06:49:11Z</time>
      </trkpt>
      <trkpt lat="43.40804" lon="6.70241">
        <ele>58.78</ele>
        <time>2012-10-12T06:49:12Z</time>
      </trkpt>
      <trkpt lat="43.40799" lon="6.70238">
        <ele>58.78</ele>
        <time>2012-10-12T06:49:13Z</time>
      </trkpt>
      <trkpt lat="43.40793" lon="6.70236">
        <ele>59.26</ele>
        <time>2012-10-12T06:49:14Z</time>
      </trkpt>
      <trkpt lat="43.40774" lon="6.70226">
        <ele>60.22</ele>
        <time>2012-10-12T06:49:18Z</time>
      </trkpt>
      <trkpt lat="43.4077" lon="6.70223">
        <ele>60.7</ele>
        <time>2012-10-12T06:49:19Z</time>
      </trkpt>
      <trkpt lat="43.40766" lon="6.70219">
        <ele>60.7</ele>
        <time>2012-10-12T06:49:20Z</time>
      </trkpt>
      <trkpt lat="43.40756" lon="6.70207">
        <ele>61.66</ele>
        <time>2012-10-12T06:49:23Z</time>
      </trkpt>
      <trkpt lat="43.40753" lon="6.70204">
        <ele>61.66</ele>
        <time>2012-10-12T06:49:24Z</time>
      </trkpt>
      <trkpt lat="43.4074" lon="6.70192">
        <ele>63.58</ele>
        <time>2012-10-12T06:49:29Z</time>
      </trkpt>
      <trkpt lat="43.40737" lon="6.70191">
        <ele>64.07</ele>
        <time>2012-10-12T06:49:30Z</time>
      </trkpt>
      <trkpt lat="43.40734" lon="6.70191">
        <ele>64.07</ele>
        <time>2012-10-12T06:49:31Z</time>
      </trkpt>
      <trkpt lat="43.40732" lon="6.70189">
        <ele>64.07</ele>
        <time>2012-10-12T06:49:32Z</time>
      </trkpt>
      <trkpt lat="43.40731" lon="6.70186">
        <ele>65.03</ele>
        <time>2012-10-12T06:49:33Z</time>
      </trkpt>
      <trkpt lat="43.40729" lon="6.70184">
        <ele>65.03</ele>
        <time>2012-10-12T06:49:34Z</time>
      </trkpt>
      <trkpt lat="43.40726" lon="6.70184">
        <ele>65.51</ele>
        <time>2012-10-12T06:49:35Z</time>
      </trkpt>
      <trkpt lat="43.40724" lon="6.70184">
        <ele>65.99</ele>
        <time>2012-10-12T06:49:36Z</time>
      </trkpt>
      <trkpt lat="43.40721" lon="6.70184">
        <ele>66.47</ele>
        <time>2012-10-12T06:49:37Z</time>
      </trkpt>
      <trkpt lat="43.40716" lon="6.70182">
        <ele>66.95</ele>
        <time>2012-10-12T06:49:39Z</time>
      </trkpt>
      <trkpt lat="43.40691" lon="6.70165">
        <ele>69.83</ele>
        <time>2012-10-12T06:49:50Z</time>
      </trkpt>
      <trkpt lat="43.40656" lon="6.70154">
        <ele>70.79</ele>
        <time>2012-10-12T06:50:01Z</time>
      </trkpt>
      <trkpt lat="43.40616" lon="6.70134">
        <ele>70.31</ele>
        <time>2012-10-12T06:50:11Z</time>
      </trkpt>
      <trkpt lat="43.40601" lon="6.70125">
        <ele>69.35</ele>
        <time>2012-10-12T06:50:14Z</time>
      </trkpt>
      <trkpt lat="43.40592" lon="6.70119">
        <ele>69.35</ele>
        <time>2012-10-12T06:50:16Z</time>
      </trkpt>
      <trkpt lat="43.40586" lon="6.70117">
        <ele>68.39</ele>
        <time>2012-10-12T06:50:17Z</time>
      </trkpt>
      <trkpt lat="43.40581" lon="6.70116">
        <ele>68.39</ele>
        <time>2012-10-12T06:50:18Z</time>
      </trkpt>
      <trkpt lat="43.40575" lon="6.70115">
        <ele>67.91</ele>
        <time>2012-10-12T06:50:19Z</time>
      </trkpt>
      <trkpt lat="43.40569" lon="6.70115">
        <ele>67.91</ele>
        <time>2012-10-12T06:50:20Z</time>
      </trkpt>
      <trkpt lat="43.40562" lon="6.70114">
        <ele>67.91</ele>
        <time>2012-10-12T06:50:21Z</time>
      </trkpt>
      <trkpt lat="43.40538" lon="6.70109">
        <ele>67.91</ele>
        <time>2012-10-12T06:50:25Z</time>
      </trkpt>
      <trkpt lat="43.40532" lon="6.70108">
        <ele>68.39</ele>
        <time>2012-10-12T06:50:26Z</time>
      </trkpt>
      <trkpt lat="43.40526" lon="6.70106">
        <ele>68.39</ele>
        <time>2012-10-12T06:50:27Z</time>
      </trkpt>
      <trkpt lat="43.40521" lon="6.70105">
        <ele>68.39</ele>
        <time>2012-10-12T06:50:28Z</time>
      </trkpt>
      <trkpt lat="43.40516" lon="6.70104">
        <ele>68.87</ele>
        <time>2012-10-12T06:50:29Z</time>
      </trkpt>
      <trkpt lat="43.40511" lon="6.70104">
        <ele>68.39</ele>
        <time>2012-10-12T06:50:30Z</time>
      </trkpt>
      <trkpt lat="43.40506" lon="6.70104">
        <ele>69.35</ele>
        <time>2012-10-12T06:50:31Z</time>
      </trkpt>
      <trkpt lat="43.40483" lon="6.70103">
        <ele>70.79</ele>
        <time>2012-10-12T06:50:38Z</time>
      </trkpt>
      <trkpt lat="43.40474" lon="6.70103">
        <ele>72.24</ele>
        <time>2012-10-12T06:50:42Z</time>
      </trkpt>
      <trkpt lat="43.40472" lon="6.70104">
        <ele>72.24</ele>
        <time>2012-10-12T06:50:43Z</time>
      </trkpt>
      <trkpt lat="43.4047" lon="6.70104">
        <ele>72.72</ele>
        <time>2012-10-12T06:50:44Z</time>
      </trkpt>
      <trkpt lat="43.40468" lon="6.70105">
        <ele>73.2</ele>
        <time>2012-10-12T06:50:45Z</time>
      </trkpt>
      <trkpt lat="43.40466" lon="6.70105">
        <ele>73.2</ele>
        <time>2012-10-12T06:50:46Z</time>
      </trkpt>
      <trkpt lat="43.40454" lon="6.70102">
        <ele>76.08</ele>
        <time>2012-10-12T06:50:53Z</time>
      </trkpt>
      <trkpt lat="43.40445" lon="6.70099">
        <ele>78</ele>
        <time>2012-10-12T06:50:58Z</time>
      </trkpt>
      <trkpt lat="43.40444" lon="6.70098">
        <ele>78.48</ele>
        <time>2012-10-12T06:50:59Z</time>
      </trkpt>
      <trkpt lat="43.40442" lon="6.70096">
        <ele>78.48</ele>
        <time>2012-10-12T06:51:00Z</time>
      </trkpt>
      <trkpt lat="43.40441" lon="6.70096">
        <ele>78.97</ele>
        <time>2012-10-12T06:51:01Z</time>
      </trkpt>
      <trkpt lat="43.40439" lon="6.70095">
        <ele>78.97</ele>
        <time>2012-10-12T06:51:02Z</time>
      </trkpt>
      <trkpt lat="43.40438" lon="6.70094">
        <ele>79.45</ele>
        <time>2012-10-12T06:51:03Z</time>
      </trkpt>
      <trkpt lat="43.40436" lon="6.70093">
        <ele>79.45</ele>
        <time>2012-10-12T06:51:04Z</time>
      </trkpt>
      <trkpt lat="43.40434" lon="6.70093">
        <ele>79.93</ele>
        <time>2012-10-12T06:51:05Z</time>
      </trkpt>
      <trkpt lat="43.40432" lon="6.70092">
        <ele>79.93</ele>
        <time>2012-10-12T06:51:06Z</time>
      </trkpt>
      <trkpt lat="43.40431" lon="6.70091">
        <ele>79.93</ele>
        <time>2012-10-12T06:51:07Z</time>
      </trkpt>
      <trkpt lat="43.40429" lon="6.7009">
        <ele>79.93</ele>
        <time>2012-10-12T06:51:08Z</time>
      </trkpt>
      <trkpt lat="43.40427" lon="6.70088">
        <ele>80.41</ele>
        <time>2012-10-12T06:51:09Z</time>
      </trkpt>
      <trkpt lat="43.40425" lon="6.70087">
        <ele>80.41</ele>
        <time>2012-10-12T06:51:10Z</time>
      </trkpt>
      <trkpt lat="43.40423" lon="6.70085">
        <ele>80.41</ele>
        <time>2012-10-12T06:51:11Z</time>
      </trkpt>
      <trkpt lat="43.40421" lon="6.70084">
        <ele>80.89</ele>
        <time>2012-10-12T06:51:12Z</time>
      </trkpt>
      <trkpt lat="43.40418" lon="6.70083">
        <ele>80.89</ele>
        <time>2012-10-12T06:51:13Z</time>
      </trkpt>
      <trkpt lat="43.40398" lon="6.70073">
        <ele>81.85</ele>
        <time>2012-10-12T06:51:22Z</time>
      </trkpt>
      <trkpt lat="43.40369" lon="6.70061">
        <ele>82.81</ele>
        <time>2012-10-12T06:51:32Z</time>
      </trkpt>
      <trkpt lat="43.40338" lon="6.7004">
        <ele>84.25</ele>
        <time>2012-10-12T06:51:42Z</time>
      </trkpt>
      <trkpt lat="43.40314" lon="6.70022">
        <ele>84.25</ele>
        <time>2012-10-12T06:51:49Z</time>
      </trkpt>
      <trkpt lat="43.4031" lon="6.70019">
        <ele>83.77</ele>
        <time>2012-10-12T06:51:50Z</time>
      </trkpt>
      <trkpt lat="43.40268" lon="6.69971">
        <ele>81.85</ele>
        <time>2012-10-12T06:52:00Z</time>
      </trkpt>
      <trkpt lat="43.40263" lon="6.69966">
        <ele>81.37</ele>
        <time>2012-10-12T06:52:01Z</time>
      </trkpt>
      <trkpt lat="43.40247" lon="6.69953">
        <ele>78.97</ele>
        <time>2012-10-12T06:52:04Z</time>
      </trkpt>
      <trkpt lat="43.40242" lon="6.69949">
        <ele>78.97</ele>
        <time>2012-10-12T06:52:05Z</time>
      </trkpt>
      <trkpt lat="43.40237" lon="6.69946">
        <ele>78.48</ele>
        <time>2012-10-12T06:52:06Z</time>
      </trkpt>
      <trkpt lat="43.40231" lon="6.69944">
        <ele>78</ele>
        <time>2012-10-12T06:52:07Z</time>
      </trkpt>
      <trkpt lat="43.40224" lon="6.69944">
        <ele>76.56</ele>
        <time>2012-10-12T06:52:08Z</time>
      </trkpt>
      <trkpt lat="43.40218" lon="6.69946">
        <ele>74.64</ele>
        <time>2012-10-12T06:52:09Z</time>
      </trkpt>
      <trkpt lat="43.40211" lon="6.69951">
        <ele>73.2</ele>
        <time>2012-10-12T06:52:10Z</time>
      </trkpt>
      <trkpt lat="43.40204" lon="6.69957">
        <ele>71.27</ele>
        <time>2012-10-12T06:52:11Z</time>
      </trkpt>
      <trkpt lat="43.4018" lon="6.69981">
        <ele>67.91</ele>
        <time>2012-10-12T06:52:14Z</time>
      </trkpt>
      <trkpt lat="43.40163" lon="6.70001">
        <ele>63.58</ele>
        <time>2012-10-12T06:52:16Z</time>
      </trkpt>
      <trkpt lat="43.40154" lon="6.7001">
        <ele>64.55</ele>
        <time>2012-10-12T06:52:17Z</time>
      </trkpt>
      <trkpt lat="43.4011" lon="6.70066">
        <ele>67.43</ele>
        <time>2012-10-12T06:52:24Z</time>
      </trkpt>
      <trkpt lat="43.40103" lon="6.70077">
        <ele>68.87</ele>
        <time>2012-10-12T06:52:26Z</time>
      </trkpt>
      <trkpt lat="43.40096" lon="6.7009">
        <ele>70.31</ele>
        <time>2012-10-12T06:52:29Z</time>
      </trkpt>
      <trkpt lat="43.40092" lon="6.70099">
        <ele>71.76</ele>
        <time>2012-10-12T06:52:32Z</time>
      </trkpt>
      <trkpt lat="43.4008" lon="6.7012">
        <ele>75.12</ele>
        <time>2012-10-12T06:52:42Z</time>
      </trkpt>
      <trkpt lat="43.40079" lon="6.70122">
        <ele>75.12</ele>
        <time>2012-10-12T06:52:43Z</time>
      </trkpt>
      <trkpt lat="43.40068" lon="6.70129">
        <ele>78.48</ele>
        <time>2012-10-12T06:52:50Z</time>
      </trkpt>
      <trkpt lat="43.40052" lon="6.70125">
        <ele>79.93</ele>
        <time>2012-10-12T06:52:58Z</time>
      </trkpt>
      <trkpt lat="43.40035" lon="6.70115">
        <ele>82.81</ele>
        <time>2012-10-12T06:53:09Z</time>
      </trkpt>
      <trkpt lat="43.40013" lon="6.70106">
        <ele>86.18</ele>
        <time>2012-10-12T06:53:22Z</time>
      </trkpt>
      <trkpt lat="43.39997" lon="6.70105">
        <ele>89.06</ele>
        <time>2012-10-12T06:53:32Z</time>
      </trkpt>
      <trkpt lat="43.39978" lon="6.70112">
        <ele>90.98</ele>
        <time>2012-10-12T06:53:42Z</time>
      </trkpt>
      <trkpt lat="43.39964" lon="6.70117">
        <ele>93.39</ele>
        <time>2012-10-12T06:53:50Z</time>
      </trkpt>
      <trkpt lat="43.39949" lon="6.70124">
        <ele>96.27</ele>
        <time>2012-10-12T06:54:01Z</time>
      </trkpt>
      <trkpt lat="43.39943" lon="6.70125">
        <ele>97.71</ele>
        <time>2012-10-12T06:54:05Z</time>
      </trkpt>
      <trkpt lat="43.39942" lon="6.70126">
        <ele>97.71</ele>
        <time>2012-10-12T06:54:06Z</time>
      </trkpt>
      <trkpt lat="43.39941" lon="6.70126">
        <ele>97.71</ele>
        <time>2012-10-12T06:54:07Z</time>
      </trkpt>
      <trkpt lat="43.3994" lon="6.70126">
        <ele>98.19</ele>
        <time>2012-10-12T06:54:08Z</time>
      </trkpt>
      <trkpt lat="43.39939" lon="6.70127">
        <ele>98.67</ele>
        <time>2012-10-12T06:54:09Z</time>
      </trkpt>
      <trkpt lat="43.39937" lon="6.70127">
        <ele>99.15</ele>
        <time>2012-10-12T06:54:10Z</time>
      </trkpt>
      <trkpt lat="43.39923" lon="6.70131">
        <ele>101.56</ele>
        <time>2012-10-12T06:54:20Z</time>
      </trkpt>
      <trkpt lat="43.39908" lon="6.70135">
        <ele>103.96</ele>
        <time>2012-10-12T06:54:30Z</time>
      </trkpt>
      <trkpt lat="43.39907" lon="6.70136">
        <ele>104.44</ele>
        <time>2012-10-12T06:54:31Z</time>
      </trkpt>
      <trkpt lat="43.39905" lon="6.70136">
        <ele>104.44</ele>
        <time>2012-10-12T06:54:32Z</time>
      </trkpt>
      <trkpt lat="43.39904" lon="6.70137">
        <ele>104.44</ele>
        <time>2012-10-12T06:54:33Z</time>
      </trkpt>
      <trkpt lat="43.39903" lon="6.70138">
        <ele>104.92</ele>
        <time>2012-10-12T06:54:34Z</time>
      </trkpt>
      <trkpt lat="43.39887" lon="6.70149">
        <ele>106.36</ele>
        <time>2012-10-12T06:54:44Z</time>
      </trkpt>
      <trkpt lat="43.39883" lon="6.70152">
        <ele>106.84</ele>
        <time>2012-10-12T06:54:46Z</time>
      </trkpt>
      <trkpt lat="43.39881" lon="6.70154">
        <ele>107.32</ele>
        <time>2012-10-12T06:54:47Z</time>
      </trkpt>
      <trkpt lat="43.39879" lon="6.70157">
        <ele>107.32</ele>
        <time>2012-10-12T06:54:48Z</time>
      </trkpt>
      <trkpt lat="43.39877" lon="6.70159">
        <ele>107.32</ele>
        <time>2012-10-12T06:54:49Z</time>
      </trkpt>
      <trkpt lat="43.39875" lon="6.70162">
        <ele>107.32</ele>
        <time>2012-10-12T06:54:50Z</time>
      </trkpt>
      <trkpt lat="43.39847" lon="6.70186">
        <ele>106.84</ele>
        <time>2012-10-12T06:55:00Z</time>
      </trkpt>
      <trkpt lat="43.39843" lon="6.70186">
        <ele>106.36</ele>
        <time>2012-10-12T06:55:01Z</time>
      </trkpt>
      <trkpt lat="43.39824" lon="6.70185">
        <ele>106.36</ele>
        <time>2012-10-12T06:55:05Z</time>
      </trkpt>
      <trkpt lat="43.39779" lon="6.7018">
        <ele>105.88</ele>
        <time>2012-10-12T06:55:14Z</time>
      </trkpt>
      <trkpt lat="43.39753" lon="6.70177">
        <ele>106.36</ele>
        <time>2012-10-12T06:55:19Z</time>
      </trkpt>
      <trkpt lat="43.39748" lon="6.70176">
        <ele>105.88</ele>
        <time>2012-10-12T06:55:20Z</time>
      </trkpt>
      <trkpt lat="43.3969" lon="6.70153">
        <ele>103.48</ele>
        <time>2012-10-12T06:55:30Z</time>
      </trkpt>
      <trkpt lat="43.39685" lon="6.70149">
        <ele>103.48</ele>
        <time>2012-10-12T06:55:31Z</time>
      </trkpt>
      <trkpt lat="43.39664" lon="6.70129">
        <ele>105.88</ele>
        <time>2012-10-12T06:55:36Z</time>
      </trkpt>
      <trkpt lat="43.39661" lon="6.70125">
        <ele>105.88</ele>
        <time>2012-10-12T06:55:37Z</time>
      </trkpt>
      <trkpt lat="43.39659" lon="6.70122">
        <ele>106.36</ele>
        <time>2012-10-12T06:55:38Z</time>
      </trkpt>
      <trkpt lat="43.39656" lon="6.70119">
        <ele>107.32</ele>
        <time>2012-10-12T06:55:39Z</time>
      </trkpt>
      <trkpt lat="43.39654" lon="6.70116">
        <ele>107.32</ele>
        <time>2012-10-12T06:55:40Z</time>
      </trkpt>
      <trkpt lat="43.39649" lon="6.70109">
        <ele>108.77</ele>
        <time>2012-10-12T06:55:43Z</time>
      </trkpt>
      <trkpt lat="43.39638" lon="6.70091">
        <ele>112.13</ele>
        <time>2012-10-12T06:55:51Z</time>
      </trkpt>
      <trkpt lat="43.39624" lon="6.70069">
        <ele>113.09</ele>
        <time>2012-10-12T06:56:00Z</time>
      </trkpt>
      <trkpt lat="43.39594" lon="6.70064">
        <ele>114.53</ele>
        <time>2012-10-12T06:56:11Z</time>
      </trkpt>
      <trkpt lat="43.39555" lon="6.70084">
        <ele>112.61</ele>
        <time>2012-10-12T06:56:21Z</time>
      </trkpt>
      <trkpt lat="43.39532" lon="6.70096">
        <ele>110.21</ele>
        <time>2012-10-12T06:56:25Z</time>
      </trkpt>
      <trkpt lat="43.39512" lon="6.70106">
        <ele>108.77</ele>
        <time>2012-10-12T06:56:28Z</time>
      </trkpt>
      <trkpt lat="43.39505" lon="6.70107">
        <ele>109.73</ele>
        <time>2012-10-12T06:56:29Z</time>
      </trkpt>
      <trkpt lat="43.39468" lon="6.70107">
        <ele>109.25</ele>
        <time>2012-10-12T06:56:35Z</time>
      </trkpt>
      <trkpt lat="43.39432" lon="6.70099">
        <ele>105.4</ele>
        <time>2012-10-12T06:56:40Z</time>
      </trkpt>
      <trkpt lat="43.39369" lon="6.70075">
        <ele>105.88</ele>
        <time>2012-10-12T06:56:49Z</time>
      </trkpt>
      <trkpt lat="43.39334" lon="6.70036">
        <ele>103</ele>
        <time>2012-10-12T06:56:55Z</time>
      </trkpt>
      <trkpt lat="43.39294" lon="6.69983">
        <ele>106.84</ele>
        <time>2012-10-12T06:57:03Z</time>
      </trkpt>
      <trkpt lat="43.39266" lon="6.69947">
        <ele>108.77</ele>
        <time>2012-10-12T06:57:12Z</time>
      </trkpt>
      <trkpt lat="43.39263" lon="6.69944">
        <ele>109.25</ele>
        <time>2012-10-12T06:57:13Z</time>
      </trkpt>
      <trkpt lat="43.39259" lon="6.69941">
        <ele>109.25</ele>
        <time>2012-10-12T06:57:14Z</time>
      </trkpt>
      <trkpt lat="43.39255" lon="6.69938">
        <ele>109.25</ele>
        <time>2012-10-12T06:57:15Z</time>
      </trkpt>
      <trkpt lat="43.39251" lon="6.69937">
        <ele>108.77</ele>
        <time>2012-10-12T06:57:16Z</time>
      </trkpt>
      <trkpt lat="43.39246" lon="6.69935">
        <ele>108.29</ele>
        <time>2012-10-12T06:57:17Z</time>
      </trkpt>
      <trkpt lat="43.39225" lon="6.69927">
        <ele>105.88</ele>
        <time>2012-10-12T06:57:21Z</time>
      </trkpt>
      <trkpt lat="43.39219" lon="6.69922">
        <ele>105.88</ele>
        <time>2012-10-12T06:57:22Z</time>
      </trkpt>
      <trkpt lat="43.39213" lon="6.69916">
        <ele>104.92</ele>
        <time>2012-10-12T06:57:23Z</time>
      </trkpt>
      <trkpt lat="43.39208" lon="6.69909">
        <ele>103.48</ele>
        <time>2012-10-12T06:57:24Z</time>
      </trkpt>
      <trkpt lat="43.39204" lon="6.69901">
        <ele>103</ele>
        <time>2012-10-12T06:57:25Z</time>
      </trkpt>
      <trkpt lat="43.39182" lon="6.69872">
        <ele>105.88</ele>
        <time>2012-10-12T06:57:30Z</time>
      </trkpt>
      <trkpt lat="43.39179" lon="6.69869">
        <ele>106.36</ele>
        <time>2012-10-12T06:57:31Z</time>
      </trkpt>
      <trkpt lat="43.39169" lon="6.69862">
        <ele>108.77</ele>
        <time>2012-10-12T06:57:35Z</time>
      </trkpt>
      <trkpt lat="43.39151" lon="6.69851">
        <ele>112.13</ele>
        <time>2012-10-12T06:57:43Z</time>
      </trkpt>
      <trkpt lat="43.39134" lon="6.69828">
        <ele>115.01</ele>
        <time>2012-10-12T06:57:54Z</time>
      </trkpt>
      <trkpt lat="43.3913" lon="6.69797">
        <ele>116.94</ele>
        <time>2012-10-12T06:58:04Z</time>
      </trkpt>
      <trkpt lat="43.39129" lon="6.69769">
        <ele>120.3</ele>
        <time>2012-10-12T06:58:14Z</time>
      </trkpt>
      <trkpt lat="43.3913" lon="6.69738">
        <ele>123.67</ele>
        <time>2012-10-12T06:58:26Z</time>
      </trkpt>
      <trkpt lat="43.39129" lon="6.69725">
        <ele>125.59</ele>
        <time>2012-10-12T06:58:32Z</time>
      </trkpt>
      <trkpt lat="43.39129" lon="6.69723">
        <ele>126.07</ele>
        <time>2012-10-12T06:58:33Z</time>
      </trkpt>
      <trkpt lat="43.39129" lon="6.6972">
        <ele>126.55</ele>
        <time>2012-10-12T06:58:34Z</time>
      </trkpt>
      <trkpt lat="43.39124" lon="6.69698">
        <ele>128.95</ele>
        <time>2012-10-12T06:58:44Z</time>
      </trkpt>
      <trkpt lat="43.39116" lon="6.69671">
        <ele>131.84</ele>
        <time>2012-10-12T06:58:56Z</time>
      </trkpt>
      <trkpt lat="43.39112" lon="6.69651">
        <ele>134.72</ele>
        <time>2012-10-12T06:59:06Z</time>
      </trkpt>
      <trkpt lat="43.39108" lon="6.6963">
        <ele>136.16</ele>
        <time>2012-10-12T06:59:14Z</time>
      </trkpt>
      <trkpt lat="43.39104" lon="6.6961">
        <ele>138.57</ele>
        <time>2012-10-12T06:59:24Z</time>
      </trkpt>
      <trkpt lat="43.391" lon="6.69592">
        <ele>140.49</ele>
        <time>2012-10-12T06:59:34Z</time>
      </trkpt>
      <trkpt lat="43.39099" lon="6.69589">
        <ele>140.97</ele>
        <time>2012-10-12T06:59:35Z</time>
      </trkpt>
      <trkpt lat="43.39099" lon="6.69587">
        <ele>141.45</ele>
        <time>2012-10-12T06:59:36Z</time>
      </trkpt>
      <trkpt lat="43.39098" lon="6.69585">
        <ele>141.45</ele>
        <time>2012-10-12T06:59:37Z</time>
      </trkpt>
      <trkpt lat="43.39097" lon="6.69583">
        <ele>141.93</ele>
        <time>2012-10-12T06:59:38Z</time>
      </trkpt>
      <trkpt lat="43.39097" lon="6.69582">
        <ele>141.93</ele>
        <time>2012-10-12T06:59:39Z</time>
      </trkpt>
      <trkpt lat="43.39097" lon="6.6958">
        <ele>142.41</ele>
        <time>2012-10-12T06:59:40Z</time>
      </trkpt>
      <trkpt lat="43.39095" lon="6.69575">
        <ele>143.37</ele>
        <time>2012-10-12T06:59:43Z</time>
      </trkpt>
      <trkpt lat="43.39093" lon="6.69567">
        <ele>144.34</ele>
        <time>2012-10-12T06:59:47Z</time>
      </trkpt>
      <trkpt lat="43.39092" lon="6.69566">
        <ele>144.82</ele>
        <time>2012-10-12T06:59:48Z</time>
      </trkpt>
      <trkpt lat="43.3909" lon="6.69559">
        <ele>145.78</ele>
        <time>2012-10-12T06:59:52Z</time>
      </trkpt>
      <trkpt lat="43.39089" lon="6.69557">
        <ele>146.26</ele>
        <time>2012-10-12T06:59:53Z</time>
      </trkpt>
      <trkpt lat="43.39088" lon="6.69556">
        <ele>146.26</ele>
        <time>2012-10-12T06:59:54Z</time>
      </trkpt>
      <trkpt lat="43.39079" lon="6.6954">
        <ele>147.7</ele>
        <time>2012-10-12T07:00:02Z</time>
      </trkpt>
      <trkpt lat="43.39066" lon="6.69528">
        <ele>150.58</ele>
        <time>2012-10-12T07:00:13Z</time>
      </trkpt>
      <trkpt lat="43.39043" lon="6.69516">
        <ele>152.99</ele>
        <time>2012-10-12T07:00:27Z</time>
      </trkpt>
      <trkpt lat="43.39028" lon="6.69502">
        <ele>156.83</ele>
        <time>2012-10-12T07:00:39Z</time>
      </trkpt>
      <trkpt lat="43.39011" lon="6.69488">
        <ele>157.79</ele>
        <time>2012-10-12T07:00:49Z</time>
      </trkpt>
      <trkpt lat="43.38993" lon="6.69474">
        <ele>160.68</ele>
        <time>2012-10-12T07:01:01Z</time>
      </trkpt>
      <trkpt lat="43.38976" lon="6.69458">
        <ele>164.04</ele>
        <time>2012-10-12T07:01:13Z</time>
      </trkpt>
      <trkpt lat="43.38966" lon="6.69442">
        <ele>166.45</ele>
        <time>2012-10-12T07:01:23Z</time>
      </trkpt>
      <trkpt lat="43.38958" lon="6.69416">
        <ele>169.81</ele>
        <time>2012-10-12T07:01:36Z</time>
      </trkpt>
      <trkpt lat="43.38951" lon="6.69392">
        <ele>171.73</ele>
        <time>2012-10-12T07:01:47Z</time>
      </trkpt>
      <trkpt lat="43.38943" lon="6.69369">
        <ele>174.62</ele>
        <time>2012-10-12T07:02:00Z</time>
      </trkpt>
      <trkpt lat="43.38934" lon="6.69349">
        <ele>177.98</ele>
        <time>2012-10-12T07:02:12Z</time>
      </trkpt>
      <trkpt lat="43.38926" lon="6.69332">
        <ele>180.87</ele>
        <time>2012-10-12T07:02:22Z</time>
      </trkpt>
      <trkpt lat="43.38917" lon="6.69318">
        <ele>184.23</ele>
        <time>2012-10-12T07:02:32Z</time>
      </trkpt>
      <trkpt lat="43.38915" lon="6.69315">
        <ele>185.19</ele>
        <time>2012-10-12T07:02:34Z</time>
      </trkpt>
      <trkpt lat="43.38914" lon="6.69313">
        <ele>185.19</ele>
        <time>2012-10-12T07:02:35Z</time>
      </trkpt>
      <trkpt lat="43.38913" lon="6.69312">
        <ele>185.19</ele>
        <time>2012-10-12T07:02:36Z</time>
      </trkpt>
      <trkpt lat="43.38901" lon="6.69306">
        <ele>186.63</ele>
        <time>2012-10-12T07:02:44Z</time>
      </trkpt>
      <trkpt lat="43.38885" lon="6.69299">
        <ele>189.52</ele>
        <time>2012-10-12T07:02:56Z</time>
      </trkpt>
      <trkpt lat="43.38871" lon="6.6929">
        <ele>190.96</ele>
        <time>2012-10-12T07:03:07Z</time>
      </trkpt>
      <trkpt lat="43.38866" lon="6.69287">
        <ele>191.92</ele>
        <time>2012-10-12T07:03:11Z</time>
      </trkpt>
      <trkpt lat="43.38858" lon="6.69283">
        <ele>192.88</ele>
        <time>2012-10-12T07:03:18Z</time>
      </trkpt>
      <trkpt lat="43.38843" lon="6.69273">
        <ele>196.73</ele>
        <time>2012-10-12T07:03:30Z</time>
      </trkpt>
      <trkpt lat="43.38838" lon="6.69271">
        <ele>198.17</ele>
        <time>2012-10-12T07:03:33Z</time>
      </trkpt>
      <trkpt lat="43.38824" lon="6.69261">
        <ele>199.13</ele>
        <time>2012-10-12T07:03:42Z</time>
      </trkpt>
      <trkpt lat="43.38813" lon="6.69246">
        <ele>202.01</ele>
        <time>2012-10-12T07:03:53Z</time>
      </trkpt>
      <trkpt lat="43.38803" lon="6.69229">
        <ele>204.42</ele>
        <time>2012-10-12T07:04:04Z</time>
      </trkpt>
      <trkpt lat="43.38795" lon="6.69216">
        <ele>206.82</ele>
        <time>2012-10-12T07:04:13Z</time>
      </trkpt>
      <trkpt lat="43.38779" lon="6.69204">
        <ele>209.22</ele>
        <time>2012-10-12T07:04:25Z</time>
      </trkpt>
      <trkpt lat="43.38772" lon="6.69198">
        <ele>210.19</ele>
        <time>2012-10-12T07:04:29Z</time>
      </trkpt>
      <trkpt lat="43.3877" lon="6.69197">
        <ele>210.19</ele>
        <time>2012-10-12T07:04:30Z</time>
      </trkpt>
      <trkpt lat="43.38756" lon="6.6918">
        <ele>212.59</ele>
        <time>2012-10-12T07:04:40Z</time>
      </trkpt>
      <trkpt lat="43.38732" lon="6.69155">
        <ele>213.07</ele>
        <time>2012-10-12T07:04:54Z</time>
      </trkpt>
      <trkpt lat="43.38715" lon="6.69142">
        <ele>213.07</ele>
        <time>2012-10-12T07:05:02Z</time>
      </trkpt>
      <trkpt lat="43.38713" lon="6.69127">
        <ele>214.51</ele>
        <time>2012-10-12T07:05:10Z</time>
      </trkpt>
      <trkpt lat="43.38716" lon="6.69121">
        <ele>216.91</ele>
        <time>2012-10-12T07:05:17Z</time>
      </trkpt>
      <trkpt lat="43.38721" lon="6.69115">
        <ele>217.4</ele>
        <time>2012-10-12T07:05:25Z</time>
      </trkpt>
      <trkpt lat="43.38729" lon="6.69104">
        <ele>220.28</ele>
        <time>2012-10-12T07:05:37Z</time>
      </trkpt>
      <trkpt lat="43.38731" lon="6.69104">
        <ele>220.76</ele>
        <time>2012-10-12T07:05:43Z</time>
      </trkpt>
      <trkpt lat="43.38736" lon="6.69103">
        <ele>221.24</ele>
        <time>2012-10-12T07:05:47Z</time>
      </trkpt>
      <trkpt lat="43.38741" lon="6.69105">
        <ele>221.72</ele>
        <time>2012-10-12T07:05:50Z</time>
      </trkpt>
      <trkpt lat="43.38758" lon="6.69113">
        <ele>223.16</ele>
        <time>2012-10-12T07:05:59Z</time>
      </trkpt>
      <trkpt lat="43.38784" lon="6.69122">
        <ele>224.61</ele>
        <time>2012-10-12T07:06:09Z</time>
      </trkpt>
      <trkpt lat="43.3881" lon="6.69143">
        <ele>223.64</ele>
        <time>2012-10-12T07:06:18Z</time>
      </trkpt>
      <trkpt lat="43.38828" lon="6.69134">
        <ele>223.16</ele>
        <time>2012-10-12T07:06:24Z</time>
      </trkpt>
      <trkpt lat="43.38845" lon="6.69118">
        <ele>219.8</ele>
        <time>2012-10-12T07:06:30Z</time>
      </trkpt>
      <trkpt lat="43.38867" lon="6.691">
        <ele>216.91</ele>
        <time>2012-10-12T07:06:34Z</time>
      </trkpt>
      <trkpt lat="43.38873" lon="6.69097">
        <ele>216.43</ele>
        <time>2012-10-12T07:06:35Z</time>
      </trkpt>
      <trkpt lat="43.38878" lon="6.69094">
        <ele>216.43</ele>
        <time>2012-10-12T07:06:36Z</time>
      </trkpt>
      <trkpt lat="43.38883" lon="6.69092">
        <ele>215.95</ele>
        <time>2012-10-12T07:06:37Z</time>
      </trkpt>
      <trkpt lat="43.38902" lon="6.69074">
        <ele>213.07</ele>
        <time>2012-10-12T07:06:41Z</time>
      </trkpt>
      <trkpt lat="43.38913" lon="6.69064">
        <ele>212.11</ele>
        <time>2012-10-12T07:06:43Z</time>
      </trkpt>
      <trkpt lat="43.38943" lon="6.69049">
        <ele>207.78</ele>
        <time>2012-10-12T07:06:48Z</time>
      </trkpt>
      <trkpt lat="43.38949" lon="6.69046">
        <ele>207.3</ele>
        <time>2012-10-12T07:06:49Z</time>
      </trkpt>
      <trkpt lat="43.38966" lon="6.69044">
        <ele>205.86</ele>
        <time>2012-10-12T07:06:52Z</time>
      </trkpt>
      <trkpt lat="43.3899" lon="6.69039">
        <ele>201.53</ele>
        <time>2012-10-12T07:06:57Z</time>
      </trkpt>
      <trkpt lat="43.38999" lon="6.69036">
        <ele>200.57</ele>
        <time>2012-10-12T07:06:59Z</time>
      </trkpt>
      <trkpt lat="43.39019" lon="6.69028">
        <ele>197.21</ele>
        <time>2012-10-12T07:07:04Z</time>
      </trkpt>
      <trkpt lat="43.39036" lon="6.69021">
        <ele>193.84</ele>
        <time>2012-10-12T07:07:08Z</time>
      </trkpt>
      <trkpt lat="43.39042" lon="6.69018">
        <ele>193.36</ele>
        <time>2012-10-12T07:07:10Z</time>
      </trkpt>
      <trkpt lat="43.39056" lon="6.69008">
        <ele>189.52</ele>
        <time>2012-10-12T07:07:16Z</time>
      </trkpt>
      <trkpt lat="43.39059" lon="6.69004">
        <ele>188.56</ele>
        <time>2012-10-12T07:07:17Z</time>
      </trkpt>
      <trkpt lat="43.39077" lon="6.68996">
        <ele>184.71</ele>
        <time>2012-10-12T07:07:23Z</time>
      </trkpt>
      <trkpt lat="43.39079" lon="6.68995">
        <ele>184.23</ele>
        <time>2012-10-12T07:07:24Z</time>
      </trkpt>
      <trkpt lat="43.39093" lon="6.68988">
        <ele>180.38</ele>
        <time>2012-10-12T07:07:29Z</time>
      </trkpt>
      <trkpt lat="43.39101" lon="6.68974">
        <ele>178.46</ele>
        <time>2012-10-12T07:07:32Z</time>
      </trkpt>
      <trkpt lat="43.39115" lon="6.68961">
        <ele>174.14</ele>
        <time>2012-10-12T07:07:36Z</time>
      </trkpt>
      <trkpt lat="43.39129" lon="6.68955">
        <ele>171.25</ele>
        <time>2012-10-12T07:07:40Z</time>
      </trkpt>
      <trkpt lat="43.39135" lon="6.68949">
        <ele>169.81</ele>
        <time>2012-10-12T07:07:42Z</time>
      </trkpt>
      <trkpt lat="43.39154" lon="6.68948">
        <ele>166.45</ele>
        <time>2012-10-12T07:07:46Z</time>
      </trkpt>
      <trkpt lat="43.39161" lon="6.68939">
        <ele>165.48</ele>
        <time>2012-10-12T07:07:48Z</time>
      </trkpt>
      <trkpt lat="43.39176" lon="6.68928">
        <ele>163.08</ele>
        <time>2012-10-12T07:07:51Z</time>
      </trkpt>
      <trkpt lat="43.39196" lon="6.68921">
        <ele>160.2</ele>
        <time>2012-10-12T07:07:55Z</time>
      </trkpt>
      <trkpt lat="43.39208" lon="6.68922">
        <ele>158.75</ele>
        <time>2012-10-12T07:07:57Z</time>
      </trkpt>
      <trkpt lat="43.39261" lon="6.68921">
        <ele>154.91</ele>
        <time>2012-10-12T07:08:05Z</time>
      </trkpt>
      <trkpt lat="43.39272" lon="6.68924">
        <ele>153.47</ele>
        <time>2012-10-12T07:08:08Z</time>
      </trkpt>
      <trkpt lat="43.39288" lon="6.68915">
        <ele>149.62</ele>
        <time>2012-10-12T07:08:13Z</time>
      </trkpt>
      <trkpt lat="43.39306" lon="6.68905">
        <ele>145.78</ele>
        <time>2012-10-12T07:08:17Z</time>
      </trkpt>
      <trkpt lat="43.39332" lon="6.68885">
        <ele>142.41</ele>
        <time>2012-10-12T07:08:22Z</time>
      </trkpt>
      <trkpt lat="43.3935" lon="6.68891">
        <ele>138.57</ele>
        <time>2012-10-12T07:08:26Z</time>
      </trkpt>
      <trkpt lat="43.3937" lon="6.68899">
        <ele>135.2</ele>
        <time>2012-10-12T07:08:29Z</time>
      </trkpt>
      <trkpt lat="43.39382" lon="6.68906">
        <ele>133.28</ele>
        <time>2012-10-12T07:08:31Z</time>
      </trkpt>
      <trkpt lat="43.39406" lon="6.68914">
        <ele>128.95</ele>
        <time>2012-10-12T07:08:34Z</time>
      </trkpt>
      <trkpt lat="43.39443" lon="6.68928">
        <ele>124.63</ele>
        <time>2012-10-12T07:08:40Z</time>
      </trkpt>
      <trkpt lat="43.39449" lon="6.68925">
        <ele>124.15</ele>
        <time>2012-10-12T07:08:41Z</time>
      </trkpt>
      <trkpt lat="43.39478" lon="6.68898">
        <ele>120.78</ele>
        <time>2012-10-12T07:08:47Z</time>
      </trkpt>
      <trkpt lat="43.39483" lon="6.68895">
        <ele>119.82</ele>
        <time>2012-10-12T07:08:48Z</time>
      </trkpt>
      <trkpt lat="43.39491" lon="6.6889">
        <ele>118.38</ele>
        <time>2012-10-12T07:08:50Z</time>
      </trkpt>
      <trkpt lat="43.39509" lon="6.68875">
        <ele>112.61</ele>
        <time>2012-10-12T07:08:54Z</time>
      </trkpt>
      <trkpt lat="43.39514" lon="6.68869">
        <ele>111.65</ele>
        <time>2012-10-12T07:08:55Z</time>
      </trkpt>
      <trkpt lat="43.39523" lon="6.68858">
        <ele>110.21</ele>
        <time>2012-10-12T07:08:57Z</time>
      </trkpt>
      <trkpt lat="43.39527" lon="6.68853">
        <ele>109.73</ele>
        <time>2012-10-12T07:08:58Z</time>
      </trkpt>
      <trkpt lat="43.39533" lon="6.6884">
        <ele>108.29</ele>
        <time>2012-10-12T07:09:00Z</time>
      </trkpt>
      <trkpt lat="43.39534" lon="6.68833">
        <ele>107.32</ele>
        <time>2012-10-12T07:09:01Z</time>
      </trkpt>
      <trkpt lat="43.39535" lon="6.68827">
        <ele>107.32</ele>
        <time>2012-10-12T07:09:02Z</time>
      </trkpt>
      <trkpt lat="43.39534" lon="6.68823">
        <ele>107.81</ele>
        <time>2012-10-12T07:09:03Z</time>
      </trkpt>
      <trkpt lat="43.39532" lon="6.68819">
        <ele>106.84</ele>
        <time>2012-10-12T07:09:04Z</time>
      </trkpt>
      <trkpt lat="43.39516" lon="6.68784">
        <ele>107.32</ele>
        <time>2012-10-12T07:09:10Z</time>
      </trkpt>
      <trkpt lat="43.39513" lon="6.68779">
        <ele>106.84</ele>
        <time>2012-10-12T07:09:11Z</time>
      </trkpt>
      <trkpt lat="43.39509" lon="6.68775">
        <ele>107.32</ele>
        <time>2012-10-12T07:09:12Z</time>
      </trkpt>
      <trkpt lat="43.39505" lon="6.68771">
        <ele>106.84</ele>
        <time>2012-10-12T07:09:13Z</time>
      </trkpt>
      <trkpt lat="43.395" lon="6.68766">
        <ele>106.36</ele>
        <time>2012-10-12T07:09:14Z</time>
      </trkpt>
      <trkpt lat="43.39496" lon="6.68761">
        <ele>105.88</ele>
        <time>2012-10-12T07:09:15Z</time>
      </trkpt>
      <trkpt lat="43.39491" lon="6.68756">
        <ele>105.88</ele>
        <time>2012-10-12T07:09:16Z</time>
      </trkpt>
      <trkpt lat="43.39477" lon="6.68736">
        <ele>103.48</ele>
        <time>2012-10-12T07:09:19Z</time>
      </trkpt>
      <trkpt lat="43.39474" lon="6.68728">
        <ele>103.48</ele>
        <time>2012-10-12T07:09:20Z</time>
      </trkpt>
      <trkpt lat="43.39468" lon="6.68705">
        <ele>103.96</ele>
        <time>2012-10-12T07:09:23Z</time>
      </trkpt>
      <trkpt lat="43.39464" lon="6.68688">
        <ele>104.92</ele>
        <time>2012-10-12T07:09:26Z</time>
      </trkpt>
      <trkpt lat="43.39464" lon="6.68682">
        <ele>103.96</ele>
        <time>2012-10-12T07:09:27Z</time>
      </trkpt>
      <trkpt lat="43.39464" lon="6.68674">
        <ele>103.48</ele>
        <time>2012-10-12T07:09:28Z</time>
      </trkpt>
      <trkpt lat="43.39465" lon="6.68665">
        <ele>102.52</ele>
        <time>2012-10-12T07:09:29Z</time>
      </trkpt>
      <trkpt lat="43.39465" lon="6.68656">
        <ele>102.52</ele>
        <time>2012-10-12T07:09:30Z</time>
      </trkpt>
      <trkpt lat="43.39466" lon="6.68646">
        <ele>102.52</ele>
        <time>2012-10-12T07:09:31Z</time>
      </trkpt>
      <trkpt lat="43.39468" lon="6.68637">
        <ele>101.56</ele>
        <time>2012-10-12T07:09:32Z</time>
      </trkpt>
      <trkpt lat="43.39477" lon="6.68589">
        <ele>98.67</ele>
        <time>2012-10-12T07:09:37Z</time>
      </trkpt>
      <trkpt lat="43.39482" lon="6.68559">
        <ele>97.23</ele>
        <time>2012-10-12T07:09:41Z</time>
      </trkpt>
      <trkpt lat="43.39482" lon="6.68552">
        <ele>96.75</ele>
        <time>2012-10-12T07:09:42Z</time>
      </trkpt>
      <trkpt lat="43.39482" lon="6.68547">
        <ele>96.27</ele>
        <time>2012-10-12T07:09:43Z</time>
      </trkpt>
      <trkpt lat="43.3948" lon="6.68542">
        <ele>95.79</ele>
        <time>2012-10-12T07:09:44Z</time>
      </trkpt>
      <trkpt lat="43.39479" lon="6.68537">
        <ele>95.79</ele>
        <time>2012-10-12T07:09:45Z</time>
      </trkpt>
      <trkpt lat="43.39476" lon="6.68534">
        <ele>95.31</ele>
        <time>2012-10-12T07:09:46Z</time>
      </trkpt>
      <trkpt lat="43.39473" lon="6.6853">
        <ele>95.31</ele>
        <time>2012-10-12T07:09:47Z</time>
      </trkpt>
      <trkpt lat="43.39469" lon="6.68525">
        <ele>93.87</ele>
        <time>2012-10-12T07:09:48Z</time>
      </trkpt>
      <trkpt lat="43.39463" lon="6.68522">
        <ele>92.42</ele>
        <time>2012-10-12T07:09:49Z</time>
      </trkpt>
      <trkpt lat="43.39458" lon="6.68521">
        <ele>91.94</ele>
        <time>2012-10-12T07:09:50Z</time>
      </trkpt>
      <trkpt lat="43.39453" lon="6.68521">
        <ele>91.46</ele>
        <time>2012-10-12T07:09:51Z</time>
      </trkpt>
      <trkpt lat="43.39448" lon="6.68519">
        <ele>90.5</ele>
        <time>2012-10-12T07:09:52Z</time>
      </trkpt>
      <trkpt lat="43.39441" lon="6.68515">
        <ele>87.62</ele>
        <time>2012-10-12T07:09:53Z</time>
      </trkpt>
      <trkpt lat="43.39434" lon="6.68507">
        <ele>86.18</ele>
        <time>2012-10-12T07:09:54Z</time>
      </trkpt>
      <trkpt lat="43.39428" lon="6.68498">
        <ele>84.73</ele>
        <time>2012-10-12T07:09:55Z</time>
      </trkpt>
      <trkpt lat="43.39422" lon="6.68489">
        <ele>83.29</ele>
        <time>2012-10-12T07:09:56Z</time>
      </trkpt>
      <trkpt lat="43.39416" lon="6.68482">
        <ele>83.29</ele>
        <time>2012-10-12T07:09:57Z</time>
      </trkpt>
      <trkpt lat="43.3941" lon="6.68476">
        <ele>83.29</ele>
        <time>2012-10-12T07:09:58Z</time>
      </trkpt>
      <trkpt lat="43.39404" lon="6.68469">
        <ele>81.37</ele>
        <time>2012-10-12T07:09:59Z</time>
      </trkpt>
      <trkpt lat="43.39399" lon="6.6846">
        <ele>80.41</ele>
        <time>2012-10-12T07:10:00Z</time>
      </trkpt>
      <trkpt lat="43.39394" lon="6.6845">
        <ele>79.93</ele>
        <time>2012-10-12T07:10:01Z</time>
      </trkpt>
      <trkpt lat="43.39391" lon="6.6844">
        <ele>79.93</ele>
        <time>2012-10-12T07:10:02Z</time>
      </trkpt>
      <trkpt lat="43.39388" lon="6.6843">
        <ele>79.93</ele>
        <time>2012-10-12T07:10:03Z</time>
      </trkpt>
      <trkpt lat="43.39382" lon="6.68403">
        <ele>80.89</ele>
        <time>2012-10-12T07:10:06Z</time>
      </trkpt>
      <trkpt lat="43.3938" lon="6.68397">
        <ele>81.37</ele>
        <time>2012-10-12T07:10:07Z</time>
      </trkpt>
      <trkpt lat="43.39368" lon="6.68379">
        <ele>78.48</ele>
        <time>2012-10-12T07:10:13Z</time>
      </trkpt>
      <trkpt lat="43.39358" lon="6.68364">
        <ele>73.68</ele>
        <time>2012-10-12T07:10:17Z</time>
      </trkpt>
      <trkpt lat="43.39355" lon="6.68356">
        <ele>72.72</ele>
        <time>2012-10-12T07:10:18Z</time>
      </trkpt>
      <trkpt lat="43.39352" lon="6.68348">
        <ele>70.79</ele>
        <time>2012-10-12T07:10:19Z</time>
      </trkpt>
      <trkpt lat="43.3935" lon="6.68341">
        <ele>70.79</ele>
        <time>2012-10-12T07:10:20Z</time>
      </trkpt>
      <trkpt lat="43.39348" lon="6.68337">
        <ele>70.79</ele>
        <time>2012-10-12T07:10:21Z</time>
      </trkpt>
      <trkpt lat="43.39345" lon="6.68334">
        <ele>70.79</ele>
        <time>2012-10-12T07:10:22Z</time>
      </trkpt>
      <trkpt lat="43.39341" lon="6.68334">
        <ele>70.31</ele>
        <time>2012-10-12T07:10:23Z</time>
      </trkpt>
      <trkpt lat="43.39337" lon="6.68334">
        <ele>70.79</ele>
        <time>2012-10-12T07:10:24Z</time>
      </trkpt>
      <trkpt lat="43.39334" lon="6.68335">
        <ele>71.76</ele>
        <time>2012-10-12T07:10:25Z</time>
      </trkpt>
      <trkpt lat="43.39331" lon="6.68337">
        <ele>71.76</ele>
        <time>2012-10-12T07:10:26Z</time>
      </trkpt>
      <trkpt lat="43.39328" lon="6.68337">
        <ele>72.24</ele>
        <time>2012-10-12T07:10:27Z</time>
      </trkpt>
      <trkpt lat="43.39325" lon="6.68337">
        <ele>72.72</ele>
        <time>2012-10-12T07:10:28Z</time>
      </trkpt>
      <trkpt lat="43.39322" lon="6.68337">
        <ele>72.24</ele>
        <time>2012-10-12T07:10:29Z</time>
      </trkpt>
      <trkpt lat="43.39314" lon="6.68335">
        <ele>72.24</ele>
        <time>2012-10-12T07:10:31Z</time>
      </trkpt>
      <trkpt lat="43.39311" lon="6.68331">
        <ele>71.76</ele>
        <time>2012-10-12T07:10:32Z</time>
      </trkpt>
      <trkpt lat="43.39309" lon="6.68324">
        <ele>70.31</ele>
        <time>2012-10-12T07:10:33Z</time>
      </trkpt>
      <trkpt lat="43.39309" lon="6.68318">
        <ele>71.27</ele>
        <time>2012-10-12T07:10:34Z</time>
      </trkpt>
      <trkpt lat="43.3931" lon="6.68314">
        <ele>71.76</ele>
        <time>2012-10-12T07:10:35Z</time>
      </trkpt>
      <trkpt lat="43.39312" lon="6.68309">
        <ele>71.76</ele>
        <time>2012-10-12T07:10:36Z</time>
      </trkpt>
      <trkpt lat="43.39314" lon="6.68304">
        <ele>71.76</ele>
        <time>2012-10-12T07:10:37Z</time>
      </trkpt>
      <trkpt lat="43.39316" lon="6.68299">
        <ele>71.27</ele>
        <time>2012-10-12T07:10:38Z</time>
      </trkpt>
      <trkpt lat="43.39318" lon="6.68294">
        <ele>72.24</ele>
        <time>2012-10-12T07:10:39Z</time>
      </trkpt>
      <trkpt lat="43.39318" lon="6.68288">
        <ele>71.76</ele>
        <time>2012-10-12T07:10:40Z</time>
      </trkpt>
      <trkpt lat="43.39317" lon="6.68283">
        <ele>72.24</ele>
        <time>2012-10-12T07:10:41Z</time>
      </trkpt>
      <trkpt lat="43.39316" lon="6.68279">
        <ele>72.72</ele>
        <time>2012-10-12T07:10:42Z</time>
      </trkpt>
      <trkpt lat="43.39315" lon="6.68277">
        <ele>74.16</ele>
        <time>2012-10-12T07:10:43Z</time>
      </trkpt>
      <trkpt lat="43.39314" lon="6.68274">
        <ele>73.68</ele>
        <time>2012-10-12T07:10:44Z</time>
      </trkpt>
      <trkpt lat="43.39303" lon="6.68259">
        <ele>77.04</ele>
        <time>2012-10-12T07:10:52Z</time>
      </trkpt>
      <trkpt lat="43.39283" lon="6.68245">
        <ele>79.45</ele>
        <time>2012-10-12T07:11:03Z</time>
      </trkpt>
      <trkpt lat="43.39276" lon="6.6824">
        <ele>81.85</ele>
        <time>2012-10-12T07:11:07Z</time>
      </trkpt>
      <trkpt lat="43.39272" lon="6.68234">
        <ele>82.33</ele>
        <time>2012-10-12T07:11:10Z</time>
      </trkpt>
      <trkpt lat="43.39272" lon="6.68232">
        <ele>82.33</ele>
        <time>2012-10-12T07:11:11Z</time>
      </trkpt>
      <trkpt lat="43.39272" lon="6.68229">
        <ele>82.33</ele>
        <time>2012-10-12T07:11:12Z</time>
      </trkpt>
      <trkpt lat="43.39272" lon="6.68225">
        <ele>82.33</ele>
        <time>2012-10-12T07:11:13Z</time>
      </trkpt>
      <trkpt lat="43.39272" lon="6.68221">
        <ele>82.33</ele>
        <time>2012-10-12T07:11:14Z</time>
      </trkpt>
      <trkpt lat="43.39271" lon="6.68217">
        <ele>82.33</ele>
        <time>2012-10-12T07:11:15Z</time>
      </trkpt>
      <trkpt lat="43.39271" lon="6.68213">
        <ele>81.85</ele>
        <time>2012-10-12T07:11:16Z</time>
      </trkpt>
      <trkpt lat="43.39271" lon="6.68208">
        <ele>81.85</ele>
        <time>2012-10-12T07:11:17Z</time>
      </trkpt>
      <trkpt lat="43.39272" lon="6.68197">
        <ele>80.89</ele>
        <time>2012-10-12T07:11:19Z</time>
      </trkpt>
      <trkpt lat="43.39274" lon="6.68191">
        <ele>80.89</ele>
        <time>2012-10-12T07:11:20Z</time>
      </trkpt>
      <trkpt lat="43.39278" lon="6.6818">
        <ele>80.89</ele>
        <time>2012-10-12T07:11:22Z</time>
      </trkpt>
      <trkpt lat="43.3928" lon="6.68175">
        <ele>81.37</ele>
        <time>2012-10-12T07:11:23Z</time>
      </trkpt>
      <trkpt lat="43.39283" lon="6.68171">
        <ele>81.85</ele>
        <time>2012-10-12T07:11:24Z</time>
      </trkpt>
      <trkpt lat="43.39285" lon="6.68166">
        <ele>81.85</ele>
        <time>2012-10-12T07:11:25Z</time>
      </trkpt>
      <trkpt lat="43.39286" lon="6.68161">
        <ele>81.85</ele>
        <time>2012-10-12T07:11:26Z</time>
      </trkpt>
      <trkpt lat="43.393" lon="6.68135">
        <ele>82.33</ele>
        <time>2012-10-12T07:11:32Z</time>
      </trkpt>
      <trkpt lat="43.39302" lon="6.68131">
        <ele>82.33</ele>
        <time>2012-10-12T07:11:33Z</time>
      </trkpt>
      <trkpt lat="43.39305" lon="6.68127">
        <ele>82.81</ele>
        <time>2012-10-12T07:11:34Z</time>
      </trkpt>
      <trkpt lat="43.39309" lon="6.68123">
        <ele>82.81</ele>
        <time>2012-10-12T07:11:35Z</time>
      </trkpt>
      <trkpt lat="43.39311" lon="6.68119">
        <ele>82.81</ele>
        <time>2012-10-12T07:11:36Z</time>
      </trkpt>
      <trkpt lat="43.39315" lon="6.68116">
        <ele>83.77</ele>
        <time>2012-10-12T07:11:37Z</time>
      </trkpt>
      <trkpt lat="43.39317" lon="6.68112">
        <ele>83.77</ele>
        <time>2012-10-12T07:11:38Z</time>
      </trkpt>
      <trkpt lat="43.39328" lon="6.68084">
        <ele>86.66</ele>
        <time>2012-10-12T07:11:47Z</time>
      </trkpt>
      <trkpt lat="43.39327" lon="6.68082">
        <ele>86.66</ele>
        <time>2012-10-12T07:11:48Z</time>
      </trkpt>
      <trkpt lat="43.39327" lon="6.68078">
        <ele>86.66</ele>
        <time>2012-10-12T07:11:49Z</time>
      </trkpt>
      <trkpt lat="43.39326" lon="6.68049">
        <ele>88.58</ele>
        <time>2012-10-12T07:11:58Z</time>
      </trkpt>
      <trkpt lat="43.39328" lon="6.68028">
        <ele>88.1</ele>
        <time>2012-10-12T07:12:03Z</time>
      </trkpt>
      <trkpt lat="43.3933" lon="6.68023">
        <ele>86.66</ele>
        <time>2012-10-12T07:12:04Z</time>
      </trkpt>
      <trkpt lat="43.39332" lon="6.68018">
        <ele>85.21</ele>
        <time>2012-10-12T07:12:05Z</time>
      </trkpt>
      <trkpt lat="43.39334" lon="6.68011">
        <ele>84.73</ele>
        <time>2012-10-12T07:12:06Z</time>
      </trkpt>
      <trkpt lat="43.39335" lon="6.68005">
        <ele>84.25</ele>
        <time>2012-10-12T07:12:07Z</time>
      </trkpt>
      <trkpt lat="43.39334" lon="6.67997">
        <ele>84.25</ele>
        <time>2012-10-12T07:12:08Z</time>
      </trkpt>
      <trkpt lat="43.39334" lon="6.6799">
        <ele>83.77</ele>
        <time>2012-10-12T07:12:09Z</time>
      </trkpt>
      <trkpt lat="43.39333" lon="6.67976">
        <ele>83.29</ele>
        <time>2012-10-12T07:12:11Z</time>
      </trkpt>
      <trkpt lat="43.39331" lon="6.67971">
        <ele>82.33</ele>
        <time>2012-10-12T07:12:12Z</time>
      </trkpt>
      <trkpt lat="43.39326" lon="6.67963">
        <ele>81.37</ele>
        <time>2012-10-12T07:12:14Z</time>
      </trkpt>
      <trkpt lat="43.39324" lon="6.67958">
        <ele>80.89</ele>
        <time>2012-10-12T07:12:15Z</time>
      </trkpt>
      <trkpt lat="43.39322" lon="6.67952">
        <ele>80.41</ele>
        <time>2012-10-12T07:12:16Z</time>
      </trkpt>
      <trkpt lat="43.3932" lon="6.67947">
        <ele>79.45</ele>
        <time>2012-10-12T07:12:17Z</time>
      </trkpt>
      <trkpt lat="43.39318" lon="6.67941">
        <ele>78.97</ele>
        <time>2012-10-12T07:12:18Z</time>
      </trkpt>
      <trkpt lat="43.39316" lon="6.67936">
        <ele>78.48</ele>
        <time>2012-10-12T07:12:19Z</time>
      </trkpt>
      <trkpt lat="43.39316" lon="6.6793">
        <ele>78</ele>
        <time>2012-10-12T07:12:20Z</time>
      </trkpt>
      <trkpt lat="43.39316" lon="6.67924">
        <ele>76.56</ele>
        <time>2012-10-12T07:12:21Z</time>
      </trkpt>
      <trkpt lat="43.39315" lon="6.67917">
        <ele>76.08</ele>
        <time>2012-10-12T07:12:22Z</time>
      </trkpt>
      <trkpt lat="43.39313" lon="6.67911">
        <ele>76.08</ele>
        <time>2012-10-12T07:12:23Z</time>
      </trkpt>
      <trkpt lat="43.39312" lon="6.67905">
        <ele>75.12</ele>
        <time>2012-10-12T07:12:24Z</time>
      </trkpt>
      <trkpt lat="43.3931" lon="6.67899">
        <ele>75.12</ele>
        <time>2012-10-12T07:12:25Z</time>
      </trkpt>
      <trkpt lat="43.39308" lon="6.67893">
        <ele>74.16</ele>
        <time>2012-10-12T07:12:26Z</time>
      </trkpt>
      <trkpt lat="43.39306" lon="6.67889">
        <ele>73.68</ele>
        <time>2012-10-12T07:12:27Z</time>
      </trkpt>
      <trkpt lat="43.39304" lon="6.67885">
        <ele>73.2</ele>
        <time>2012-10-12T07:12:28Z</time>
      </trkpt>
      <trkpt lat="43.39298" lon="6.67878">
        <ele>71.76</ele>
        <time>2012-10-12T07:12:31Z</time>
      </trkpt>
      <trkpt lat="43.39298" lon="6.67875">
        <ele>71.27</ele>
        <time>2012-10-12T07:12:32Z</time>
      </trkpt>
      <trkpt lat="43.39307" lon="6.67863">
        <ele>67.91</ele>
        <time>2012-10-12T07:12:36Z</time>
      </trkpt>
      <trkpt lat="43.39311" lon="6.67858">
        <ele>67.43</ele>
        <time>2012-10-12T07:12:38Z</time>
      </trkpt>
      <trkpt lat="43.39312" lon="6.67855">
        <ele>66.47</ele>
        <time>2012-10-12T07:12:39Z</time>
      </trkpt>
      <trkpt lat="43.39313" lon="6.67852">
        <ele>65.51</ele>
        <time>2012-10-12T07:12:40Z</time>
      </trkpt>
      <trkpt lat="43.39314" lon="6.67849">
        <ele>65.03</ele>
        <time>2012-10-12T07:12:41Z</time>
      </trkpt>
      <trkpt lat="43.39316" lon="6.67847">
        <ele>65.03</ele>
        <time>2012-10-12T07:12:42Z</time>
      </trkpt>
      <trkpt lat="43.39318" lon="6.67846">
        <ele>64.55</ele>
        <time>2012-10-12T07:12:43Z</time>
      </trkpt>
      <trkpt lat="43.39319" lon="6.67843">
        <ele>63.58</ele>
        <time>2012-10-12T07:12:44Z</time>
      </trkpt>
      <trkpt lat="43.39319" lon="6.6784">
        <ele>63.1</ele>
        <time>2012-10-12T07:12:45Z</time>
      </trkpt>
      <trkpt lat="43.39318" lon="6.67836">
        <ele>62.14</ele>
        <time>2012-10-12T07:12:46Z</time>
      </trkpt>
      <trkpt lat="43.39318" lon="6.67833">
        <ele>61.66</ele>
        <time>2012-10-12T07:12:47Z</time>
      </trkpt>
      <trkpt lat="43.39318" lon="6.67831">
        <ele>61.66</ele>
        <time>2012-10-12T07:12:48Z</time>
      </trkpt>
      <trkpt lat="43.39319" lon="6.67829">
        <ele>60.7</ele>
        <time>2012-10-12T07:12:49Z</time>
      </trkpt>
      <trkpt lat="43.3932" lon="6.67825">
        <ele>59.74</ele>
        <time>2012-10-12T07:12:50Z</time>
      </trkpt>
      <trkpt lat="43.39319" lon="6.67822">
        <ele>58.78</ele>
        <time>2012-10-12T07:12:51Z</time>
      </trkpt>
      <trkpt lat="43.39318" lon="6.67819">
        <ele>58.3</ele>
        <time>2012-10-12T07:12:52Z</time>
      </trkpt>
      <trkpt lat="43.39317" lon="6.67817">
        <ele>57.34</ele>
        <time>2012-10-12T07:12:53Z</time>
      </trkpt>
      <trkpt lat="43.39315" lon="6.67815">
        <ele>57.34</ele>
        <time>2012-10-12T07:12:54Z</time>
      </trkpt>
      <trkpt lat="43.39314" lon="6.67813">
        <ele>56.37</ele>
        <time>2012-10-12T07:12:55Z</time>
      </trkpt>
      <trkpt lat="43.39312" lon="6.6781">
        <ele>55.89</ele>
        <time>2012-10-12T07:12:56Z</time>
      </trkpt>
      <trkpt lat="43.39312" lon="6.67807">
        <ele>56.37</ele>
        <time>2012-10-12T07:12:57Z</time>
      </trkpt>
      <trkpt lat="43.39312" lon="6.67805">
        <ele>55.89</ele>
        <time>2012-10-12T07:12:58Z</time>
      </trkpt>
      <trkpt lat="43.39312" lon="6.67802">
        <ele>54.93</ele>
        <time>2012-10-12T07:12:59Z</time>
      </trkpt>
      <trkpt lat="43.39311" lon="6.67799">
        <ele>54.45</ele>
        <time>2012-10-12T07:13:00Z</time>
      </trkpt>
      <trkpt lat="43.39311" lon="6.67796">
        <ele>53.97</ele>
        <time>2012-10-12T07:13:01Z</time>
      </trkpt>
      <trkpt lat="43.39312" lon="6.67793">
        <ele>53.97</ele>
        <time>2012-10-12T07:13:02Z</time>
      </trkpt>
      <trkpt lat="43.39313" lon="6.6779">
        <ele>52.53</ele>
        <time>2012-10-12T07:13:03Z</time>
      </trkpt>
      <trkpt lat="43.39314" lon="6.67788">
        <ele>52.05</ele>
        <time>2012-10-12T07:13:04Z</time>
      </trkpt>
      <trkpt lat="43.39316" lon="6.67786">
        <ele>51.57</ele>
        <time>2012-10-12T07:13:05Z</time>
      </trkpt>
      <trkpt lat="43.39318" lon="6.67785">
        <ele>51.09</ele>
        <time>2012-10-12T07:13:06Z</time>
      </trkpt>
      <trkpt lat="43.3932" lon="6.67783">
        <ele>51.09</ele>
        <time>2012-10-12T07:13:07Z</time>
      </trkpt>
      <trkpt lat="43.39323" lon="6.6778">
        <ele>49.65</ele>
        <time>2012-10-12T07:13:09Z</time>
      </trkpt>
      <trkpt lat="43.39329" lon="6.67769">
        <ele>48.2</ele>
        <time>2012-10-12T07:13:12Z</time>
      </trkpt>
      <trkpt lat="43.3933" lon="6.67766">
        <ele>48.2</ele>
        <time>2012-10-12T07:13:13Z</time>
      </trkpt>
      <trkpt lat="43.3933" lon="6.67762">
        <ele>48.2</ele>
        <time>2012-10-12T07:13:14Z</time>
      </trkpt>
      <trkpt lat="43.39334" lon="6.6775">
        <ele>48.68</ele>
        <time>2012-10-12T07:13:18Z</time>
      </trkpt>
      <trkpt lat="43.39329" lon="6.67739">
        <ele>48.2</ele>
        <time>2012-10-12T07:13:29Z</time>
      </trkpt>
      <trkpt lat="43.39325" lon="6.67728">
        <ele>44.84</ele>
        <time>2012-10-12T07:13:35Z</time>
      </trkpt>
      <trkpt lat="43.39318" lon="6.67717">
        <ele>41.47</ele>
        <time>2012-10-12T07:13:40Z</time>
      </trkpt>
      <trkpt lat="43.39305" lon="6.67713">
        <ele>38.11</ele>
        <time>2012-10-12T07:13:45Z</time>
      </trkpt>
      <trkpt lat="43.39304" lon="6.6771">
        <ele>37.63</ele>
        <time>2012-10-12T07:13:46Z</time>
      </trkpt>
      <trkpt lat="43.39303" lon="6.67708">
        <ele>37.15</ele>
        <time>2012-10-12T07:13:47Z</time>
      </trkpt>
      <trkpt lat="43.39302" lon="6.67705">
        <ele>37.15</ele>
        <time>2012-10-12T07:13:48Z</time>
      </trkpt>
      <trkpt lat="43.39301" lon="6.67703">
        <ele>36.19</ele>
        <time>2012-10-12T07:13:49Z</time>
      </trkpt>
      <trkpt lat="43.393" lon="6.67701">
        <ele>36.19</ele>
        <time>2012-10-12T07:13:50Z</time>
      </trkpt>
      <trkpt lat="43.39299" lon="6.677">
        <ele>35.71</ele>
        <time>2012-10-12T07:13:51Z</time>
      </trkpt>
      <trkpt lat="43.39297" lon="6.67698">
        <ele>34.74</ele>
        <time>2012-10-12T07:13:52Z</time>
      </trkpt>
      <trkpt lat="43.39296" lon="6.67697">
        <ele>34.26</ele>
        <time>2012-10-12T07:13:53Z</time>
      </trkpt>
      <trkpt lat="43.39294" lon="6.67697">
        <ele>34.26</ele>
        <time>2012-10-12T07:13:54Z</time>
      </trkpt>
      <trkpt lat="43.39293" lon="6.67697">
        <ele>33.3</ele>
        <time>2012-10-12T07:13:55Z</time>
      </trkpt>
      <trkpt lat="43.39292" lon="6.67696">
        <ele>33.3</ele>
        <time>2012-10-12T07:13:56Z</time>
      </trkpt>
      <trkpt lat="43.39291" lon="6.67695">
        <ele>32.82</ele>
        <time>2012-10-12T07:13:57Z</time>
      </trkpt>
      <trkpt lat="43.39283" lon="6.67687">
        <ele>29.94</ele>
        <time>2012-10-12T07:14:06Z</time>
      </trkpt>
      <trkpt lat="43.3928" lon="6.67682">
        <ele>28.5</ele>
        <time>2012-10-12T07:14:11Z</time>
      </trkpt>
      <trkpt lat="43.39279" lon="6.6768">
        <ele>28.02</ele>
        <time>2012-10-12T07:14:12Z</time>
      </trkpt>
      <trkpt lat="43.39278" lon="6.67678">
        <ele>27.53</ele>
        <time>2012-10-12T07:14:13Z</time>
      </trkpt>
      <trkpt lat="43.39277" lon="6.67677">
        <ele>27.05</ele>
        <time>2012-10-12T07:14:14Z</time>
      </trkpt>
      <trkpt lat="43.39276" lon="6.67675">
        <ele>26.57</ele>
        <time>2012-10-12T07:14:15Z</time>
      </trkpt>
      <trkpt lat="43.39275" lon="6.67674">
        <ele>26.09</ele>
        <time>2012-10-12T07:14:16Z</time>
      </trkpt>
      <trkpt lat="43.39269" lon="6.67663">
        <ele>23.69</ele>
        <time>2012-10-12T07:14:21Z</time>
      </trkpt>
      <trkpt lat="43.39266" lon="6.67662">
        <ele>23.21</ele>
        <time>2012-10-12T07:14:22Z</time>
      </trkpt>
      <trkpt lat="43.39264" lon="6.67661">
        <ele>23.21</ele>
        <time>2012-10-12T07:14:23Z</time>
      </trkpt>
      <trkpt lat="43.39261" lon="6.67661">
        <ele>23.21</ele>
        <time>2012-10-12T07:14:24Z</time>
      </trkpt>
      <trkpt lat="43.39259" lon="6.6766">
        <ele>23.69</ele>
        <time>2012-10-12T07:14:25Z</time>
      </trkpt>
      <trkpt lat="43.39257" lon="6.6766">
        <ele>24.17</ele>
        <time>2012-10-12T07:14:26Z</time>
      </trkpt>
      <trkpt lat="43.39255" lon="6.6766">
        <ele>23.69</ele>
        <time>2012-10-12T07:14:27Z</time>
      </trkpt>
      <trkpt lat="43.39252" lon="6.67661">
        <ele>24.65</ele>
        <time>2012-10-12T07:14:28Z</time>
      </trkpt>
      <trkpt lat="43.3923" lon="6.67668">
        <ele>21.29</ele>
        <time>2012-10-12T07:14:35Z</time>
      </trkpt>
      <trkpt lat="43.39226" lon="6.67667">
        <ele>21.29</ele>
        <time>2012-10-12T07:14:36Z</time>
      </trkpt>
      <trkpt lat="43.39223" lon="6.67664">
        <ele>21.77</ele>
        <time>2012-10-12T07:14:37Z</time>
      </trkpt>
      <trkpt lat="43.39221" lon="6.67661">
        <ele>22.25</ele>
        <time>2012-10-12T07:14:38Z</time>
      </trkpt>
      <trkpt lat="43.3922" lon="6.67658">
        <ele>23.21</ele>
        <time>2012-10-12T07:14:39Z</time>
      </trkpt>
      <trkpt lat="43.39221" lon="6.67656">
        <ele>23.21</ele>
        <time>2012-10-12T07:14:40Z</time>
      </trkpt>
      <trkpt lat="43.39224" lon="6.67653">
        <ele>22.25</ele>
        <time>2012-10-12T07:14:41Z</time>
      </trkpt>
      <trkpt lat="43.39226" lon="6.6765">
        <ele>22.73</ele>
        <time>2012-10-12T07:14:42Z</time>
      </trkpt>
      <trkpt lat="43.39225" lon="6.67646">
        <ele>21.77</ele>
        <time>2012-10-12T07:14:43Z</time>
      </trkpt>
      <trkpt lat="43.39223" lon="6.67643">
        <ele>20.81</ele>
        <time>2012-10-12T07:14:44Z</time>
      </trkpt>
      <trkpt lat="43.3922" lon="6.67642">
        <ele>20.81</ele>
        <time>2012-10-12T07:14:45Z</time>
      </trkpt>
      <trkpt lat="43.39218" lon="6.6764">
        <ele>20.32</ele>
        <time>2012-10-12T07:14:46Z</time>
      </trkpt>
      <trkpt lat="43.39217" lon="6.67637">
        <ele>19.84</ele>
        <time>2012-10-12T07:14:47Z</time>
      </trkpt>
      <trkpt lat="43.39216" lon="6.67632">
        <ele>20.32</ele>
        <time>2012-10-12T07:14:48Z</time>
      </trkpt>
      <trkpt lat="43.39216" lon="6.67628">
        <ele>19.84</ele>
        <time>2012-10-12T07:14:49Z</time>
      </trkpt>
      <trkpt lat="43.39217" lon="6.67625">
        <ele>20.32</ele>
        <time>2012-10-12T07:14:50Z</time>
      </trkpt>
      <trkpt lat="43.39218" lon="6.67623">
        <ele>20.32</ele>
        <time>2012-10-12T07:14:51Z</time>
      </trkpt>
      <trkpt lat="43.39221" lon="6.67624">
        <ele>20.32</ele>
        <time>2012-10-12T07:14:52Z</time>
      </trkpt>
      <trkpt lat="43.39223" lon="6.67625">
        <ele>20.32</ele>
        <time>2012-10-12T07:14:53Z</time>
      </trkpt>
      <trkpt lat="43.39227" lon="6.67625">
        <ele>20.81</ele>
        <time>2012-10-12T07:14:54Z</time>
      </trkpt>
      <trkpt lat="43.3923" lon="6.67625">
        <ele>20.32</ele>
        <time>2012-10-12T07:14:55Z</time>
      </trkpt>
      <trkpt lat="43.39233" lon="6.67625">
        <ele>20.32</ele>
        <time>2012-10-12T07:14:56Z</time>
      </trkpt>
      <trkpt lat="43.39236" lon="6.67624">
        <ele>19.84</ele>
        <time>2012-10-12T07:14:57Z</time>
      </trkpt>
      <trkpt lat="43.39239" lon="6.67624">
        <ele>20.32</ele>
        <time>2012-10-12T07:14:58Z</time>
      </trkpt>
      <trkpt lat="43.39244" lon="6.67624">
        <ele>19.84</ele>
        <time>2012-10-12T07:14:59Z</time>
      </trkpt>
      <trkpt lat="43.39249" lon="6.67625">
        <ele>20.32</ele>
        <time>2012-10-12T07:15:00Z</time>
      </trkpt>
      <trkpt lat="43.39261" lon="6.67625">
        <ele>20.81</ele>
        <time>2012-10-12T07:15:03Z</time>
      </trkpt>
      <trkpt lat="43.39266" lon="6.67623">
        <ele>20.32</ele>
        <time>2012-10-12T07:15:04Z</time>
      </trkpt>
      <trkpt lat="43.39271" lon="6.67621">
        <ele>20.81</ele>
        <time>2012-10-12T07:15:05Z</time>
      </trkpt>
      <trkpt lat="43.39275" lon="6.6762">
        <ele>20.81</ele>
        <time>2012-10-12T07:15:06Z</time>
      </trkpt>
      <trkpt lat="43.39279" lon="6.67619">
        <ele>20.81</ele>
        <time>2012-10-12T07:15:07Z</time>
      </trkpt>
      <trkpt lat="43.39284" lon="6.67618">
        <ele>20.81</ele>
        <time>2012-10-12T07:15:08Z</time>
      </trkpt>
      <trkpt lat="43.39289" lon="6.67618">
        <ele>20.81</ele>
        <time>2012-10-12T07:15:09Z</time>
      </trkpt>
      <trkpt lat="43.39294" lon="6.67619">
        <ele>21.29</ele>
        <time>2012-10-12T07:15:10Z</time>
      </trkpt>
      <trkpt lat="43.39299" lon="6.67619">
        <ele>20.81</ele>
        <time>2012-10-12T07:15:11Z</time>
      </trkpt>
      <trkpt lat="43.39304" lon="6.67619">
        <ele>20.81</ele>
        <time>2012-10-12T07:15:12Z</time>
      </trkpt>
      <trkpt lat="43.3931" lon="6.67618">
        <ele>20.81</ele>
        <time>2012-10-12T07:15:13Z</time>
      </trkpt>
      <trkpt lat="43.39315" lon="6.67617">
        <ele>20.81</ele>
        <time>2012-10-12T07:15:14Z</time>
      </trkpt>
      <trkpt lat="43.3932" lon="6.67615">
        <ele>20.32</ele>
        <time>2012-10-12T07:15:15Z</time>
      </trkpt>
      <trkpt lat="43.39325" lon="6.67615">
        <ele>20.81</ele>
        <time>2012-10-12T07:15:16Z</time>
      </trkpt>
      <trkpt lat="43.3933" lon="6.67615">
        <ele>20.81</ele>
        <time>2012-10-12T07:15:17Z</time>
      </trkpt>
      <trkpt lat="43.39335" lon="6.67615">
        <ele>21.29</ele>
        <time>2012-10-12T07:15:18Z</time>
      </trkpt>
      <trkpt lat="43.3934" lon="6.67614">
        <ele>19.84</ele>
        <time>2012-10-12T07:15:19Z</time>
      </trkpt>
      <trkpt lat="43.39346" lon="6.6761">
        <ele>19.36</ele>
        <time>2012-10-12T07:15:20Z</time>
      </trkpt>
      <trkpt lat="43.39351" lon="6.67606">
        <ele>18.88</ele>
        <time>2012-10-12T07:15:21Z</time>
      </trkpt>
      <trkpt lat="43.39357" lon="6.67602">
        <ele>18.88</ele>
        <time>2012-10-12T07:15:22Z</time>
      </trkpt>
      <trkpt lat="43.39396" lon="6.6758">
        <ele>21.77</ele>
        <time>2012-10-12T07:15:31Z</time>
      </trkpt>
      <trkpt lat="43.39398" lon="6.67577">
        <ele>21.29</ele>
        <time>2012-10-12T07:15:32Z</time>
      </trkpt>
      <trkpt lat="43.39401" lon="6.67575">
        <ele>21.29</ele>
        <time>2012-10-12T07:15:33Z</time>
      </trkpt>
      <trkpt lat="43.39404" lon="6.67574">
        <ele>21.29</ele>
        <time>2012-10-12T07:15:34Z</time>
      </trkpt>
      <trkpt lat="43.39407" lon="6.67574">
        <ele>20.32</ele>
        <time>2012-10-12T07:15:35Z</time>
      </trkpt>
      <trkpt lat="43.39412" lon="6.67575">
        <ele>20.32</ele>
        <time>2012-10-12T07:15:36Z</time>
      </trkpt>
      <trkpt lat="43.39416" lon="6.67577">
        <ele>20.32</ele>
        <time>2012-10-12T07:15:37Z</time>
      </trkpt>
      <trkpt lat="43.3942" lon="6.67579">
        <ele>21.29</ele>
        <time>2012-10-12T07:15:38Z</time>
      </trkpt>
      <trkpt lat="43.39422" lon="6.67582">
        <ele>20.81</ele>
        <time>2012-10-12T07:15:39Z</time>
      </trkpt>
      <trkpt lat="43.39426" lon="6.67584">
        <ele>20.32</ele>
        <time>2012-10-12T07:15:40Z</time>
      </trkpt>
      <trkpt lat="43.39429" lon="6.67583">
        <ele>20.32</ele>
        <time>2012-10-12T07:15:41Z</time>
      </trkpt>
      <trkpt lat="43.39432" lon="6.67582">
        <ele>20.81</ele>
        <time>2012-10-12T07:15:42Z</time>
      </trkpt>
      <trkpt lat="43.39435" lon="6.6758">
        <ele>20.81</ele>
        <time>2012-10-12T07:15:43Z</time>
      </trkpt>
      <trkpt lat="43.39438" lon="6.67579">
        <ele>20.81</ele>
        <time>2012-10-12T07:15:44Z</time>
      </trkpt>
      <trkpt lat="43.39442" lon="6.67582">
        <ele>19.84</ele>
        <time>2012-10-12T07:15:45Z</time>
      </trkpt>
      <trkpt lat="43.39447" lon="6.67583">
        <ele>20.32</ele>
        <time>2012-10-12T07:15:46Z</time>
      </trkpt>
      <trkpt lat="43.39453" lon="6.67582">
        <ele>20.32</ele>
        <time>2012-10-12T07:15:47Z</time>
      </trkpt>
      <trkpt lat="43.39458" lon="6.6758">
        <ele>19.84</ele>
        <time>2012-10-12T07:15:48Z</time>
      </trkpt>
      <trkpt lat="43.39468" lon="6.67574">
        <ele>19.84</ele>
        <time>2012-10-12T07:15:50Z</time>
      </trkpt>
      <trkpt lat="43.39472" lon="6.67569">
        <ele>20.32</ele>
        <time>2012-10-12T07:15:51Z</time>
      </trkpt>
      <trkpt lat="43.39476" lon="6.67564">
        <ele>19.84</ele>
        <time>2012-10-12T07:15:52Z</time>
      </trkpt>
      <trkpt lat="43.39481" lon="6.6756">
        <ele>19.84</ele>
        <time>2012-10-12T07:15:53Z</time>
      </trkpt>
      <trkpt lat="43.39486" lon="6.67557">
        <ele>19.84</ele>
        <time>2012-10-12T07:15:54Z</time>
      </trkpt>
      <trkpt lat="43.39491" lon="6.67555">
        <ele>19.36</ele>
        <time>2012-10-12T07:15:55Z</time>
      </trkpt>
      <trkpt lat="43.39497" lon="6.67554">
        <ele>18.88</ele>
        <time>2012-10-12T07:15:56Z</time>
      </trkpt>
      <trkpt lat="43.39504" lon="6.67556">
        <ele>17.44</ele>
        <time>2012-10-12T07:15:57Z</time>
      </trkpt>
      <trkpt lat="43.39508" lon="6.67558">
        <ele>18.4</ele>
        <time>2012-10-12T07:15:58Z</time>
      </trkpt>
      <trkpt lat="43.39511" lon="6.67559">
        <ele>19.84</ele>
        <time>2012-10-12T07:15:59Z</time>
      </trkpt>
      <trkpt lat="43.39514" lon="6.67557">
        <ele>19.84</ele>
        <time>2012-10-12T07:16:00Z</time>
      </trkpt>
      <trkpt lat="43.39516" lon="6.67553">
        <ele>19.84</ele>
        <time>2012-10-12T07:16:01Z</time>
      </trkpt>
      <trkpt lat="43.39518" lon="6.67548">
        <ele>19.84</ele>
        <time>2012-10-12T07:16:02Z</time>
      </trkpt>
      <trkpt lat="43.3952" lon="6.67542">
        <ele>19.84</ele>
        <time>2012-10-12T07:16:03Z</time>
      </trkpt>
      <trkpt lat="43.39524" lon="6.67537">
        <ele>19.36</ele>
        <time>2012-10-12T07:16:04Z</time>
      </trkpt>
      <trkpt lat="43.39528" lon="6.67533">
        <ele>19.84</ele>
        <time>2012-10-12T07:16:05Z</time>
      </trkpt>
      <trkpt lat="43.39533" lon="6.67529">
        <ele>19.84</ele>
        <time>2012-10-12T07:16:06Z</time>
      </trkpt>
      <trkpt lat="43.39538" lon="6.67525">
        <ele>19.36</ele>
        <time>2012-10-12T07:16:07Z</time>
      </trkpt>
      <trkpt lat="43.39581" lon="6.67501">
        <ele>19.36</ele>
        <time>2012-10-12T07:16:15Z</time>
      </trkpt>
      <trkpt lat="43.39637" lon="6.67482">
        <ele>18.88</ele>
        <time>2012-10-12T07:16:25Z</time>
      </trkpt>
      <trkpt lat="43.39664" lon="6.67477">
        <ele>18.88</ele>
        <time>2012-10-12T07:16:30Z</time>
      </trkpt>
      <trkpt lat="43.39678" lon="6.67473">
        <ele>19.36</ele>
        <time>2012-10-12T07:16:33Z</time>
      </trkpt>
      <trkpt lat="43.39683" lon="6.67473">
        <ele>18.88</ele>
        <time>2012-10-12T07:16:34Z</time>
      </trkpt>
      <trkpt lat="43.39694" lon="6.67474">
        <ele>16.96</ele>
        <time>2012-10-12T07:16:36Z</time>
      </trkpt>
      <trkpt lat="43.397" lon="6.67476">
        <ele>16.48</ele>
        <time>2012-10-12T07:16:37Z</time>
      </trkpt>
      <trkpt lat="43.39704" lon="6.6748">
        <ele>16</ele>
        <time>2012-10-12T07:16:38Z</time>
      </trkpt>
      <trkpt lat="43.39709" lon="6.67485">
        <ele>16.48</ele>
        <time>2012-10-12T07:16:39Z</time>
      </trkpt>
      <trkpt lat="43.39712" lon="6.6749">
        <ele>16.48</ele>
        <time>2012-10-12T07:16:40Z</time>
      </trkpt>
      <trkpt lat="43.39714" lon="6.67493">
        <ele>16.48</ele>
        <time>2012-10-12T07:16:41Z</time>
      </trkpt>
      <trkpt lat="43.39718" lon="6.67495">
        <ele>16</ele>
        <time>2012-10-12T07:16:42Z</time>
      </trkpt>
      <trkpt lat="43.39722" lon="6.67494">
        <ele>17.44</ele>
        <time>2012-10-12T07:16:43Z</time>
      </trkpt>
      <trkpt lat="43.39724" lon="6.67494">
        <ele>17.92</ele>
        <time>2012-10-12T07:16:44Z</time>
      </trkpt>
      <trkpt lat="43.39726" lon="6.67492">
        <ele>17.92</ele>
        <time>2012-10-12T07:16:45Z</time>
      </trkpt>
      <trkpt lat="43.39727" lon="6.6749">
        <ele>17.44</ele>
        <time>2012-10-12T07:16:46Z</time>
      </trkpt>
      <trkpt lat="43.39729" lon="6.67486">
        <ele>16.96</ele>
        <time>2012-10-12T07:16:47Z</time>
      </trkpt>
      <trkpt lat="43.39734" lon="6.67472">
        <ele>16.96</ele>
        <time>2012-10-12T07:16:50Z</time>
      </trkpt>
      <trkpt lat="43.39735" lon="6.67466">
        <ele>16.96</ele>
        <time>2012-10-12T07:16:51Z</time>
      </trkpt>
      <trkpt lat="43.39734" lon="6.6746">
        <ele>17.92</ele>
        <time>2012-10-12T07:16:52Z</time>
      </trkpt>
      <trkpt lat="43.39735" lon="6.67454">
        <ele>18.88</ele>
        <time>2012-10-12T07:16:53Z</time>
      </trkpt>
      <trkpt lat="43.39736" lon="6.67448">
        <ele>19.36</ele>
        <time>2012-10-12T07:16:54Z</time>
      </trkpt>
      <trkpt lat="43.39736" lon="6.67442">
        <ele>19.36</ele>
        <time>2012-10-12T07:16:55Z</time>
      </trkpt>
      <trkpt lat="43.39739" lon="6.67417">
        <ele>18.4</ele>
        <time>2012-10-12T07:16:59Z</time>
      </trkpt>
      <trkpt lat="43.3974" lon="6.6741">
        <ele>18.4</ele>
        <time>2012-10-12T07:17:00Z</time>
      </trkpt>
      <trkpt lat="43.39747" lon="6.67366">
        <ele>18.4</ele>
        <time>2012-10-12T07:17:06Z</time>
      </trkpt>
      <trkpt lat="43.39748" lon="6.67358">
        <ele>18.88</ele>
        <time>2012-10-12T07:17:07Z</time>
      </trkpt>
      <trkpt lat="43.39748" lon="6.67336">
        <ele>18.4</ele>
        <time>2012-10-12T07:17:10Z</time>
      </trkpt>
      <trkpt lat="43.3974" lon="6.67287">
        <ele>19.84</ele>
        <time>2012-10-12T07:17:17Z</time>
      </trkpt>
      <trkpt lat="43.39738" lon="6.67281">
        <ele>19.36</ele>
        <time>2012-10-12T07:17:18Z</time>
      </trkpt>
      <trkpt lat="43.39737" lon="6.67275">
        <ele>19.36</ele>
        <time>2012-10-12T07:17:19Z</time>
      </trkpt>
      <trkpt lat="43.39734" lon="6.6727">
        <ele>19.36</ele>
        <time>2012-10-12T07:17:20Z</time>
      </trkpt>
      <trkpt lat="43.39731" lon="6.67264">
        <ele>19.36</ele>
        <time>2012-10-12T07:17:21Z</time>
      </trkpt>
      <trkpt lat="43.39724" lon="6.67253">
        <ele>18.88</ele>
        <time>2012-10-12T07:17:23Z</time>
      </trkpt>
      <trkpt lat="43.3972" lon="6.67248">
        <ele>19.36</ele>
        <time>2012-10-12T07:17:24Z</time>
      </trkpt>
      <trkpt lat="43.39716" lon="6.67244">
        <ele>19.36</ele>
        <time>2012-10-12T07:17:25Z</time>
      </trkpt>
      <trkpt lat="43.39691" lon="6.67218">
        <ele>19.84</ele>
        <time>2012-10-12T07:17:32Z</time>
      </trkpt>
      <trkpt lat="43.39673" lon="6.67202">
        <ele>19.36</ele>
        <time>2012-10-12T07:17:36Z</time>
      </trkpt>
      <trkpt lat="43.39668" lon="6.67199">
        <ele>18.88</ele>
        <time>2012-10-12T07:17:37Z</time>
      </trkpt>
      <trkpt lat="43.39662" lon="6.67198">
        <ele>18.88</ele>
        <time>2012-10-12T07:17:38Z</time>
      </trkpt>
      <trkpt lat="43.39643" lon="6.67197">
        <ele>17.92</ele>
        <time>2012-10-12T07:17:41Z</time>
      </trkpt>
      <trkpt lat="43.39638" lon="6.67198">
        <ele>18.4</ele>
        <time>2012-10-12T07:17:42Z</time>
      </trkpt>
      <trkpt lat="43.39633" lon="6.672">
        <ele>18.4</ele>
        <time>2012-10-12T07:17:43Z</time>
      </trkpt>
      <trkpt lat="43.39609" lon="6.67211">
        <ele>18.4</ele>
        <time>2012-10-12T07:17:48Z</time>
      </trkpt>
      <trkpt lat="43.39604" lon="6.67214">
        <ele>17.92</ele>
        <time>2012-10-12T07:17:49Z</time>
      </trkpt>
      <trkpt lat="43.39595" lon="6.67219">
        <ele>18.4</ele>
        <time>2012-10-12T07:17:51Z</time>
      </trkpt>
      <trkpt lat="43.3959" lon="6.67222">
        <ele>17.92</ele>
        <time>2012-10-12T07:17:52Z</time>
      </trkpt>
      <trkpt lat="43.39585" lon="6.67223">
        <ele>18.4</ele>
        <time>2012-10-12T07:17:53Z</time>
      </trkpt>
      <trkpt lat="43.39579" lon="6.67222">
        <ele>17.92</ele>
        <time>2012-10-12T07:17:54Z</time>
      </trkpt>
      <trkpt lat="43.39574" lon="6.67219">
        <ele>17.92</ele>
        <time>2012-10-12T07:17:55Z</time>
      </trkpt>
      <trkpt lat="43.39569" lon="6.67216">
        <ele>17.92</ele>
        <time>2012-10-12T07:17:56Z</time>
      </trkpt>
      <trkpt lat="43.39564" lon="6.67212">
        <ele>18.4</ele>
        <time>2012-10-12T07:17:57Z</time>
      </trkpt>
      <trkpt lat="43.3956" lon="6.67207">
        <ele>18.4</ele>
        <time>2012-10-12T07:17:58Z</time>
      </trkpt>
      <trkpt lat="43.39547" lon="6.67183">
        <ele>18.4</ele>
        <time>2012-10-12T07:18:02Z</time>
      </trkpt>
      <trkpt lat="43.39544" lon="6.67177">
        <ele>18.4</ele>
        <time>2012-10-12T07:18:03Z</time>
      </trkpt>
      <trkpt lat="43.39535" lon="6.67159">
        <ele>17.92</ele>
        <time>2012-10-12T07:18:06Z</time>
      </trkpt>
      <trkpt lat="43.39531" lon="6.67154">
        <ele>18.4</ele>
        <time>2012-10-12T07:18:07Z</time>
      </trkpt>
      <trkpt lat="43.39527" lon="6.6715">
        <ele>18.4</ele>
        <time>2012-10-12T07:18:08Z</time>
      </trkpt>
      <trkpt lat="43.39522" lon="6.67145">
        <ele>18.4</ele>
        <time>2012-10-12T07:18:09Z</time>
      </trkpt>
      <trkpt lat="43.39517" lon="6.67142">
        <ele>18.4</ele>
        <time>2012-10-12T07:18:10Z</time>
      </trkpt>
      <trkpt lat="43.39512" lon="6.6714">
        <ele>18.88</ele>
        <time>2012-10-12T07:18:11Z</time>
      </trkpt>
      <trkpt lat="43.39507" lon="6.67139">
        <ele>18.4</ele>
        <time>2012-10-12T07:18:12Z</time>
      </trkpt>
      <trkpt lat="43.39503" lon="6.67136">
        <ele>18.4</ele>
        <time>2012-10-12T07:18:13Z</time>
      </trkpt>
      <trkpt lat="43.39499" lon="6.67132">
        <ele>18.88</ele>
        <time>2012-10-12T07:18:14Z</time>
      </trkpt>
      <trkpt lat="43.39496" lon="6.67126">
        <ele>17.92</ele>
        <time>2012-10-12T07:18:15Z</time>
      </trkpt>
      <trkpt lat="43.39494" lon="6.67119">
        <ele>17.44</ele>
        <time>2012-10-12T07:18:16Z</time>
      </trkpt>
      <trkpt lat="43.39489" lon="6.67107">
        <ele>17.92</ele>
        <time>2012-10-12T07:18:18Z</time>
      </trkpt>
      <trkpt lat="43.39486" lon="6.67103">
        <ele>18.88</ele>
        <time>2012-10-12T07:18:19Z</time>
      </trkpt>
      <trkpt lat="43.39482" lon="6.67101">
        <ele>19.36</ele>
        <time>2012-10-12T07:18:20Z</time>
      </trkpt>
      <trkpt lat="43.39456" lon="6.67084">
        <ele>19.84</ele>
        <time>2012-10-12T07:18:28Z</time>
      </trkpt>
      <trkpt lat="43.39448" lon="6.67073">
        <ele>20.32</ele>
        <time>2012-10-12T07:18:31Z</time>
      </trkpt>
      <trkpt lat="43.39442" lon="6.67064">
        <ele>20.32</ele>
        <time>2012-10-12T07:18:33Z</time>
      </trkpt>
      <trkpt lat="43.3944" lon="6.67058">
        <ele>20.32</ele>
        <time>2012-10-12T07:18:34Z</time>
      </trkpt>
      <trkpt lat="43.39435" lon="6.67044">
        <ele>20.81</ele>
        <time>2012-10-12T07:18:37Z</time>
      </trkpt>
      <trkpt lat="43.39421" lon="6.67022">
        <ele>20.81</ele>
        <time>2012-10-12T07:18:42Z</time>
      </trkpt>
      <trkpt lat="43.39418" lon="6.67017">
        <ele>21.29</ele>
        <time>2012-10-12T07:18:43Z</time>
      </trkpt>
      <trkpt lat="43.39416" lon="6.67011">
        <ele>20.81</ele>
        <time>2012-10-12T07:18:44Z</time>
      </trkpt>
      <trkpt lat="43.3941" lon="6.66999">
        <ele>21.29</ele>
        <time>2012-10-12T07:18:46Z</time>
      </trkpt>
      <trkpt lat="43.39395" lon="6.6697">
        <ele>20.81</ele>
        <time>2012-10-12T07:18:51Z</time>
      </trkpt>
      <trkpt lat="43.3939" lon="6.66965">
        <ele>20.32</ele>
        <time>2012-10-12T07:18:52Z</time>
      </trkpt>
      <trkpt lat="43.39386" lon="6.6696">
        <ele>20.81</ele>
        <time>2012-10-12T07:18:53Z</time>
      </trkpt>
      <trkpt lat="43.39377" lon="6.66952">
        <ele>20.81</ele>
        <time>2012-10-12T07:18:55Z</time>
      </trkpt>
      <trkpt lat="43.39372" lon="6.66948">
        <ele>20.32</ele>
        <time>2012-10-12T07:18:56Z</time>
      </trkpt>
      <trkpt lat="43.39366" lon="6.66944">
        <ele>20.81</ele>
        <time>2012-10-12T07:18:57Z</time>
      </trkpt>
      <trkpt lat="43.39309" lon="6.66901">
        <ele>20.32</ele>
        <time>2012-10-12T07:19:09Z</time>
      </trkpt>
      <trkpt lat="43.39304" lon="6.66897">
        <ele>20.81</ele>
        <time>2012-10-12T07:19:10Z</time>
      </trkpt>
      <trkpt lat="43.39287" lon="6.6688">
        <ele>20.81</ele>
        <time>2012-10-12T07:19:14Z</time>
      </trkpt>
      <trkpt lat="43.39284" lon="6.66875">
        <ele>21.29</ele>
        <time>2012-10-12T07:19:15Z</time>
      </trkpt>
      <trkpt lat="43.3928" lon="6.66869">
        <ele>21.29</ele>
        <time>2012-10-12T07:19:16Z</time>
      </trkpt>
      <trkpt lat="43.39277" lon="6.66863">
        <ele>20.81</ele>
        <time>2012-10-12T07:19:17Z</time>
      </trkpt>
      <trkpt lat="43.39275" lon="6.66856">
        <ele>21.29</ele>
        <time>2012-10-12T07:19:18Z</time>
      </trkpt>
      <trkpt lat="43.39273" lon="6.66849">
        <ele>21.29</ele>
        <time>2012-10-12T07:19:19Z</time>
      </trkpt>
      <trkpt lat="43.39272" lon="6.66842">
        <ele>20.81</ele>
        <time>2012-10-12T07:19:20Z</time>
      </trkpt>
      <trkpt lat="43.39272" lon="6.66835">
        <ele>20.81</ele>
        <time>2012-10-12T07:19:21Z</time>
      </trkpt>
      <trkpt lat="43.39272" lon="6.66828">
        <ele>20.81</ele>
        <time>2012-10-12T07:19:22Z</time>
      </trkpt>
      <trkpt lat="43.39272" lon="6.6682">
        <ele>20.81</ele>
        <time>2012-10-12T07:19:23Z</time>
      </trkpt>
      <trkpt lat="43.39273" lon="6.66812">
        <ele>21.29</ele>
        <time>2012-10-12T07:19:24Z</time>
      </trkpt>
      <trkpt lat="43.39275" lon="6.66805">
        <ele>20.81</ele>
        <time>2012-10-12T07:19:25Z</time>
      </trkpt>
      <trkpt lat="43.39277" lon="6.668">
        <ele>21.77</ele>
        <time>2012-10-12T07:19:26Z</time>
      </trkpt>
      <trkpt lat="43.39288" lon="6.6678">
        <ele>22.25</ele>
        <time>2012-10-12T07:19:30Z</time>
      </trkpt>
      <trkpt lat="43.3929" lon="6.66775">
        <ele>21.77</ele>
        <time>2012-10-12T07:19:31Z</time>
      </trkpt>
      <trkpt lat="43.39299" lon="6.66749">
        <ele>24.17</ele>
        <time>2012-10-12T07:19:38Z</time>
      </trkpt>
      <trkpt lat="43.39309" lon="6.66711">
        <ele>26.57</ele>
        <time>2012-10-12T07:19:49Z</time>
      </trkpt>
      <trkpt lat="43.39314" lon="6.66683">
        <ele>29.46</ele>
        <time>2012-10-12T07:19:59Z</time>
      </trkpt>
      <trkpt lat="43.39318" lon="6.66653">
        <ele>31.38</ele>
        <time>2012-10-12T07:20:09Z</time>
      </trkpt>
      <trkpt lat="43.39326" lon="6.66616">
        <ele>33.78</ele>
        <time>2012-10-12T07:20:21Z</time>
      </trkpt>
      <trkpt lat="43.39339" lon="6.66573">
        <ele>34.26</ele>
        <time>2012-10-12T07:20:32Z</time>
      </trkpt>
      <trkpt lat="43.39342" lon="6.66535">
        <ele>36.19</ele>
        <time>2012-10-12T07:20:42Z</time>
      </trkpt>
      <trkpt lat="43.39358" lon="6.66505">
        <ele>38.11</ele>
        <time>2012-10-12T07:20:52Z</time>
      </trkpt>
      <trkpt lat="43.39391" lon="6.66486">
        <ele>40.51</ele>
        <time>2012-10-12T07:21:04Z</time>
      </trkpt>
      <trkpt lat="43.39422" lon="6.66475">
        <ele>42.44</ele>
        <time>2012-10-12T07:21:15Z</time>
      </trkpt>
      <trkpt lat="43.39452" lon="6.66461">
        <ele>44.84</ele>
        <time>2012-10-12T07:21:28Z</time>
      </trkpt>
      <trkpt lat="43.39477" lon="6.66451">
        <ele>47.24</ele>
        <time>2012-10-12T07:21:39Z</time>
      </trkpt>
      <trkpt lat="43.39506" lon="6.66444">
        <ele>50.13</ele>
        <time>2012-10-12T07:21:51Z</time>
      </trkpt>
      <trkpt lat="43.3953" lon="6.66435">
        <ele>52.53</ele>
        <time>2012-10-12T07:22:01Z</time>
      </trkpt>
      <trkpt lat="43.39551" lon="6.66433">
        <ele>54.45</ele>
        <time>2012-10-12T07:22:10Z</time>
      </trkpt>
      <trkpt lat="43.39577" lon="6.66439">
        <ele>55.41</ele>
        <time>2012-10-12T07:22:21Z</time>
      </trkpt>
      <trkpt lat="43.39609" lon="6.6644">
        <ele>56.86</ele>
        <time>2012-10-12T07:22:30Z</time>
      </trkpt>
      <trkpt lat="43.39641" lon="6.66432">
        <ele>58.78</ele>
        <time>2012-10-12T07:22:41Z</time>
      </trkpt>
      <trkpt lat="43.39662" lon="6.66417">
        <ele>61.18</ele>
        <time>2012-10-12T07:22:51Z</time>
      </trkpt>
      <trkpt lat="43.39678" lon="6.66418">
        <ele>64.07</ele>
        <time>2012-10-12T07:22:59Z</time>
      </trkpt>
      <trkpt lat="43.39689" lon="6.66437">
        <ele>65.03</ele>
        <time>2012-10-12T07:23:08Z</time>
      </trkpt>
      <trkpt lat="43.39696" lon="6.66448">
        <ele>65.03</ele>
        <time>2012-10-12T07:23:12Z</time>
      </trkpt>
      <trkpt lat="43.39699" lon="6.66448">
        <ele>65.03</ele>
        <time>2012-10-12T07:23:13Z</time>
      </trkpt>
      <trkpt lat="43.39701" lon="6.66446">
        <ele>65.03</ele>
        <time>2012-10-12T07:23:14Z</time>
      </trkpt>
      <trkpt lat="43.39702" lon="6.66443">
        <ele>65.51</ele>
        <time>2012-10-12T07:23:15Z</time>
      </trkpt>
      <trkpt lat="43.39702" lon="6.66439">
        <ele>65.51</ele>
        <time>2012-10-12T07:23:16Z</time>
      </trkpt>
      <trkpt lat="43.39701" lon="6.66436">
        <ele>65.51</ele>
        <time>2012-10-12T07:23:17Z</time>
      </trkpt>
      <trkpt lat="43.39701" lon="6.66433">
        <ele>65.03</ele>
        <time>2012-10-12T07:23:18Z</time>
      </trkpt>
      <trkpt lat="43.397" lon="6.66429">
        <ele>65.99</ele>
        <time>2012-10-12T07:23:19Z</time>
      </trkpt>
      <trkpt lat="43.39702" lon="6.66397">
        <ele>67.91</ele>
        <time>2012-10-12T07:23:28Z</time>
      </trkpt>
      <trkpt lat="43.39705" lon="6.66393">
        <ele>68.87</ele>
        <time>2012-10-12T07:23:30Z</time>
      </trkpt>
      <trkpt lat="43.39728" lon="6.66391">
        <ele>71.76</ele>
        <time>2012-10-12T07:23:41Z</time>
      </trkpt>
      <trkpt lat="43.39748" lon="6.66401">
        <ele>72.72</ele>
        <time>2012-10-12T07:23:50Z</time>
      </trkpt>
      <trkpt lat="43.3976" lon="6.66407">
        <ele>74.64</ele>
        <time>2012-10-12T07:23:55Z</time>
      </trkpt>
      <trkpt lat="43.39779" lon="6.66404">
        <ele>76.56</ele>
        <time>2012-10-12T07:24:04Z</time>
      </trkpt>
      <trkpt lat="43.39794" lon="6.66377">
        <ele>78.97</ele>
        <time>2012-10-12T07:24:16Z</time>
      </trkpt>
      <trkpt lat="43.39801" lon="6.66344">
        <ele>79.45</ele>
        <time>2012-10-12T07:24:26Z</time>
      </trkpt>
      <trkpt lat="43.39794" lon="6.66312">
        <ele>80.41</ele>
        <time>2012-10-12T07:24:34Z</time>
      </trkpt>
      <trkpt lat="43.39775" lon="6.6629">
        <ele>81.85</ele>
        <time>2012-10-12T07:24:44Z</time>
      </trkpt>
      <trkpt lat="43.39765" lon="6.66269">
        <ele>84.25</ele>
        <time>2012-10-12T07:24:53Z</time>
      </trkpt>
      <trkpt lat="43.39779" lon="6.66263">
        <ele>86.66</ele>
        <time>2012-10-12T07:25:02Z</time>
      </trkpt>
      <trkpt lat="43.39782" lon="6.66264">
        <ele>87.62</ele>
        <time>2012-10-12T07:25:04Z</time>
      </trkpt>
      <trkpt lat="43.39786" lon="6.66262">
        <ele>88.58</ele>
        <time>2012-10-12T07:25:07Z</time>
      </trkpt>
      <trkpt lat="43.39789" lon="6.66252">
        <ele>89.06</ele>
        <time>2012-10-12T07:25:12Z</time>
      </trkpt>
      <trkpt lat="43.39773" lon="6.66226">
        <ele>90.98</ele>
        <time>2012-10-12T07:25:23Z</time>
      </trkpt>
      <trkpt lat="43.39771" lon="6.66207">
        <ele>91.94</ele>
        <time>2012-10-12T07:25:30Z</time>
      </trkpt>
      <trkpt lat="43.39778" lon="6.66203">
        <ele>93.39</ele>
        <time>2012-10-12T07:25:34Z</time>
      </trkpt>
      <trkpt lat="43.39797" lon="6.66208">
        <ele>94.83</ele>
        <time>2012-10-12T07:25:43Z</time>
      </trkpt>
      <trkpt lat="43.39812" lon="6.66192">
        <ele>97.71</ele>
        <time>2012-10-12T07:25:53Z</time>
      </trkpt>
      <trkpt lat="43.39822" lon="6.66169">
        <ele>100.6</ele>
        <time>2012-10-12T07:26:03Z</time>
      </trkpt>
      <trkpt lat="43.39841" lon="6.66143">
        <ele>102.52</ele>
        <time>2012-10-12T07:26:15Z</time>
      </trkpt>
      <trkpt lat="43.39859" lon="6.66118">
        <ele>103.48</ele>
        <time>2012-10-12T07:26:25Z</time>
      </trkpt>
      <trkpt lat="43.39876" lon="6.66097">
        <ele>105.88</ele>
        <time>2012-10-12T07:26:35Z</time>
      </trkpt>
      <trkpt lat="43.39887" lon="6.66074">
        <ele>108.29</ele>
        <time>2012-10-12T07:26:44Z</time>
      </trkpt>
      <trkpt lat="43.39897" lon="6.66054">
        <ele>111.17</ele>
        <time>2012-10-12T07:26:54Z</time>
      </trkpt>
      <trkpt lat="43.39903" lon="6.66031">
        <ele>113.57</ele>
        <time>2012-10-12T07:27:04Z</time>
      </trkpt>
      <trkpt lat="43.39909" lon="6.66005">
        <ele>115.01</ele>
        <time>2012-10-12T07:27:13Z</time>
      </trkpt>
      <trkpt lat="43.39914" lon="6.6597">
        <ele>115.98</ele>
        <time>2012-10-12T07:27:24Z</time>
      </trkpt>
      <trkpt lat="43.39915" lon="6.65935">
        <ele>117.9</ele>
        <time>2012-10-12T07:27:36Z</time>
      </trkpt>
      <trkpt lat="43.39914" lon="6.659">
        <ele>120.3</ele>
        <time>2012-10-12T07:27:48Z</time>
      </trkpt>
      <trkpt lat="43.39911" lon="6.65869">
        <ele>122.22</ele>
        <time>2012-10-12T07:27:59Z</time>
      </trkpt>
      <trkpt lat="43.39915" lon="6.65845">
        <ele>123.67</ele>
        <time>2012-10-12T07:28:08Z</time>
      </trkpt>
      <trkpt lat="43.39915" lon="6.65837">
        <ele>125.11</ele>
        <time>2012-10-12T07:28:11Z</time>
      </trkpt>
      <trkpt lat="43.39931" lon="6.65822">
        <ele>126.55</ele>
        <time>2012-10-12T07:28:21Z</time>
      </trkpt>
      <trkpt lat="43.39949" lon="6.65807">
        <ele>128.47</ele>
        <time>2012-10-12T07:28:32Z</time>
      </trkpt>
      <trkpt lat="43.39974" lon="6.65795">
        <ele>130.88</ele>
        <time>2012-10-12T07:28:44Z</time>
      </trkpt>
      <trkpt lat="43.39992" lon="6.65786">
        <ele>132.8</ele>
        <time>2012-10-12T07:28:53Z</time>
      </trkpt>
      <trkpt lat="43.40012" lon="6.65765">
        <ele>134.72</ele>
        <time>2012-10-12T07:29:04Z</time>
      </trkpt>
      <trkpt lat="43.40024" lon="6.65734">
        <ele>137.13</ele>
        <time>2012-10-12T07:29:15Z</time>
      </trkpt>
      <trkpt lat="43.4003" lon="6.65705">
        <ele>139.05</ele>
        <time>2012-10-12T07:29:25Z</time>
      </trkpt>
      <trkpt lat="43.40033" lon="6.65685">
        <ele>140.01</ele>
        <time>2012-10-12T07:29:32Z</time>
      </trkpt>
      <trkpt lat="43.40035" lon="6.6567">
        <ele>140.97</ele>
        <time>2012-10-12T07:29:37Z</time>
      </trkpt>
      <trkpt lat="43.40035" lon="6.6566">
        <ele>141.93</ele>
        <time>2012-10-12T07:29:41Z</time>
      </trkpt>
      <trkpt lat="43.40033" lon="6.65633">
        <ele>143.85</ele>
        <time>2012-10-12T07:29:51Z</time>
      </trkpt>
      <trkpt lat="43.40028" lon="6.65608">
        <ele>144.82</ele>
        <time>2012-10-12T07:30:00Z</time>
      </trkpt>
      <trkpt lat="43.40023" lon="6.65583">
        <ele>147.7</ele>
        <time>2012-10-12T07:30:11Z</time>
      </trkpt>
      <trkpt lat="43.40018" lon="6.65561">
        <ele>150.58</ele>
        <time>2012-10-12T07:30:21Z</time>
      </trkpt>
      <trkpt lat="43.40008" lon="6.6554">
        <ele>151.54</ele>
        <time>2012-10-12T07:30:30Z</time>
      </trkpt>
      <trkpt lat="43.39991" lon="6.65514">
        <ele>153.95</ele>
        <time>2012-10-12T07:30:42Z</time>
      </trkpt>
      <trkpt lat="43.39969" lon="6.65495">
        <ele>155.39</ele>
        <time>2012-10-12T07:30:54Z</time>
      </trkpt>
      <trkpt lat="43.39945" lon="6.65483">
        <ele>157.31</ele>
        <time>2012-10-12T07:31:05Z</time>
      </trkpt>
      <trkpt lat="43.39924" lon="6.65474">
        <ele>159.72</ele>
        <time>2012-10-12T07:31:16Z</time>
      </trkpt>
      <trkpt lat="43.39907" lon="6.6546">
        <ele>161.16</ele>
        <time>2012-10-12T07:31:25Z</time>
      </trkpt>
      <trkpt lat="43.39892" lon="6.65433">
        <ele>162.6</ele>
        <time>2012-10-12T07:31:37Z</time>
      </trkpt>
      <trkpt lat="43.39891" lon="6.65405">
        <ele>165</ele>
        <time>2012-10-12T07:31:47Z</time>
      </trkpt>
      <trkpt lat="43.39885" lon="6.65373">
        <ele>165.48</ele>
        <time>2012-10-12T07:31:56Z</time>
      </trkpt>
      <trkpt lat="43.39882" lon="6.65355">
        <ele>166.45</ele>
        <time>2012-10-12T07:32:02Z</time>
      </trkpt>
      <trkpt lat="43.39873" lon="6.65346">
        <ele>168.37</ele>
        <time>2012-10-12T07:32:07Z</time>
      </trkpt>
      <trkpt lat="43.3985" lon="6.6534">
        <ele>170.29</ele>
        <time>2012-10-12T07:32:18Z</time>
      </trkpt>
      <trkpt lat="43.39831" lon="6.65321">
        <ele>171.25</ele>
        <time>2012-10-12T07:32:29Z</time>
      </trkpt>
      <trkpt lat="43.39817" lon="6.65295">
        <ele>172.21</ele>
        <time>2012-10-12T07:32:39Z</time>
      </trkpt>
      <trkpt lat="43.39805" lon="6.65291">
        <ele>174.14</ele>
        <time>2012-10-12T07:32:45Z</time>
      </trkpt>
      <trkpt lat="43.39788" lon="6.65311">
        <ele>175.1</ele>
        <time>2012-10-12T07:32:54Z</time>
      </trkpt>
      <trkpt lat="43.39763" lon="6.65329">
        <ele>174.62</ele>
        <time>2012-10-12T07:33:03Z</time>
      </trkpt>
      <trkpt lat="43.39733" lon="6.65348">
        <ele>177.98</ele>
        <time>2012-10-12T07:33:15Z</time>
      </trkpt>
      <trkpt lat="43.3972" lon="6.65367">
        <ele>178.46</ele>
        <time>2012-10-12T07:33:22Z</time>
      </trkpt>
      <trkpt lat="43.397" lon="6.65396">
        <ele>179.9</ele>
        <time>2012-10-12T07:33:32Z</time>
      </trkpt>
      <trkpt lat="43.39677" lon="6.6541">
        <ele>181.35</ele>
        <time>2012-10-12T07:33:41Z</time>
      </trkpt>
      <trkpt lat="43.39651" lon="6.65401">
        <ele>182.79</ele>
        <time>2012-10-12T07:33:51Z</time>
      </trkpt>
      <trkpt lat="43.39621" lon="6.65369">
        <ele>184.23</ele>
        <time>2012-10-12T07:34:04Z</time>
      </trkpt>
      <trkpt lat="43.3959" lon="6.6533">
        <ele>182.31</ele>
        <time>2012-10-12T07:34:15Z</time>
      </trkpt>
      <trkpt lat="43.3955" lon="6.65299">
        <ele>183.27</ele>
        <time>2012-10-12T07:34:26Z</time>
      </trkpt>
      <trkpt lat="43.39546" lon="6.65298">
        <ele>183.75</ele>
        <time>2012-10-12T07:34:27Z</time>
      </trkpt>
      <trkpt lat="43.39542" lon="6.65296">
        <ele>183.75</ele>
        <time>2012-10-12T07:34:28Z</time>
      </trkpt>
      <trkpt lat="43.39536" lon="6.65293">
        <ele>184.71</ele>
        <time>2012-10-12T07:34:30Z</time>
      </trkpt>
      <trkpt lat="43.39509" lon="6.65276">
        <ele>186.63</ele>
        <time>2012-10-12T07:34:40Z</time>
      </trkpt>
      <trkpt lat="43.395" lon="6.6527">
        <ele>187.59</ele>
        <time>2012-10-12T07:34:44Z</time>
      </trkpt>
      <trkpt lat="43.39498" lon="6.65267">
        <ele>187.59</ele>
        <time>2012-10-12T07:34:45Z</time>
      </trkpt>
      <trkpt lat="43.39495" lon="6.65265">
        <ele>188.08</ele>
        <time>2012-10-12T07:34:46Z</time>
      </trkpt>
      <trkpt lat="43.39492" lon="6.65263">
        <ele>189.04</ele>
        <time>2012-10-12T07:34:47Z</time>
      </trkpt>
      <trkpt lat="43.39489" lon="6.65262">
        <ele>189.04</ele>
        <time>2012-10-12T07:34:48Z</time>
      </trkpt>
      <trkpt lat="43.39487" lon="6.65259">
        <ele>189.04</ele>
        <time>2012-10-12T07:34:49Z</time>
      </trkpt>
      <trkpt lat="43.39486" lon="6.65257">
        <ele>189.52</ele>
        <time>2012-10-12T07:34:50Z</time>
      </trkpt>
      <trkpt lat="43.39483" lon="6.65255">
        <ele>190</ele>
        <time>2012-10-12T07:34:51Z</time>
      </trkpt>
      <trkpt lat="43.39481" lon="6.65253">
        <ele>190</ele>
        <time>2012-10-12T07:34:52Z</time>
      </trkpt>
      <trkpt lat="43.39473" lon="6.65246">
        <ele>190.48</ele>
        <time>2012-10-12T07:34:56Z</time>
      </trkpt>
      <trkpt lat="43.39471" lon="6.65244">
        <ele>190.96</ele>
        <time>2012-10-12T07:34:57Z</time>
      </trkpt>
      <trkpt lat="43.39454" lon="6.65226">
        <ele>191.92</ele>
        <time>2012-10-12T07:35:07Z</time>
      </trkpt>
      <trkpt lat="43.39455" lon="6.65222">
        <ele>192.88</ele>
        <time>2012-10-12T07:35:09Z</time>
      </trkpt>
      <trkpt lat="43.39456" lon="6.6522">
        <ele>193.36</ele>
        <time>2012-10-12T07:35:10Z</time>
      </trkpt>
      <trkpt lat="43.39457" lon="6.65219">
        <ele>193.36</ele>
        <time>2012-10-12T07:35:11Z</time>
      </trkpt>
      <trkpt lat="43.3946" lon="6.65218">
        <ele>193.84</ele>
        <time>2012-10-12T07:35:13Z</time>
      </trkpt>
      <trkpt lat="43.39462" lon="6.65217">
        <ele>194.32</ele>
        <time>2012-10-12T07:35:14Z</time>
      </trkpt>
      <trkpt lat="43.39463" lon="6.65217">
        <ele>194.8</ele>
        <time>2012-10-12T07:35:15Z</time>
      </trkpt>
      <trkpt lat="43.39465" lon="6.65216">
        <ele>194.32</ele>
        <time>2012-10-12T07:35:16Z</time>
      </trkpt>
      <trkpt lat="43.39466" lon="6.65216">
        <ele>194.8</ele>
        <time>2012-10-12T07:35:17Z</time>
      </trkpt>
      <trkpt lat="43.39467" lon="6.65216">
        <ele>194.8</ele>
        <time>2012-10-12T07:35:18Z</time>
      </trkpt>
      <trkpt lat="43.39484" lon="6.65215">
        <ele>196.73</ele>
        <time>2012-10-12T07:35:29Z</time>
      </trkpt>
      <trkpt lat="43.39491" lon="6.65216">
        <ele>199.13</ele>
        <time>2012-10-12T07:35:34Z</time>
      </trkpt>
      <trkpt lat="43.39501" lon="6.65216">
        <ele>200.57</ele>
        <time>2012-10-12T07:35:42Z</time>
      </trkpt>
      <trkpt lat="43.39502" lon="6.65215">
        <ele>201.05</ele>
        <time>2012-10-12T07:35:43Z</time>
      </trkpt>
      <trkpt lat="43.39504" lon="6.65215">
        <ele>201.05</ele>
        <time>2012-10-12T07:35:44Z</time>
      </trkpt>
      <trkpt lat="43.39508" lon="6.65216">
        <ele>201.53</ele>
        <time>2012-10-12T07:35:47Z</time>
      </trkpt>
      <trkpt lat="43.3951" lon="6.65216">
        <ele>202.01</ele>
        <time>2012-10-12T07:35:48Z</time>
      </trkpt>
      <trkpt lat="43.39526" lon="6.65213">
        <ele>203.94</ele>
        <time>2012-10-12T07:35:59Z</time>
      </trkpt>
      <trkpt lat="43.39544" lon="6.65212">
        <ele>205.86</ele>
        <time>2012-10-12T07:36:10Z</time>
      </trkpt>
      <trkpt lat="43.39563" lon="6.65214">
        <ele>207.3</ele>
        <time>2012-10-12T07:36:22Z</time>
      </trkpt>
      <trkpt lat="43.3957" lon="6.65214">
        <ele>209.22</ele>
        <time>2012-10-12T07:36:27Z</time>
      </trkpt>
      <trkpt lat="43.39585" lon="6.65214">
        <ele>212.59</ele>
        <time>2012-10-12T07:36:37Z</time>
      </trkpt>
      <trkpt lat="43.39597" lon="6.65214">
        <ele>214.51</ele>
        <time>2012-10-12T07:36:46Z</time>
      </trkpt>
      <trkpt lat="43.39612" lon="6.65213">
        <ele>217.88</ele>
        <time>2012-10-12T07:36:57Z</time>
      </trkpt>
      <trkpt lat="43.39613" lon="6.65212">
        <ele>217.88</ele>
        <time>2012-10-12T07:36:58Z</time>
      </trkpt>
      <trkpt lat="43.39618" lon="6.65211">
        <ele>219.32</ele>
        <time>2012-10-12T07:37:02Z</time>
      </trkpt>
      <trkpt lat="43.39619" lon="6.65211">
        <ele>219.8</ele>
        <time>2012-10-12T07:37:03Z</time>
      </trkpt>
      <trkpt lat="43.39626" lon="6.65208">
        <ele>221.72</ele>
        <time>2012-10-12T07:37:08Z</time>
      </trkpt>
      <trkpt lat="43.39627" lon="6.65208">
        <ele>221.72</ele>
        <time>2012-10-12T07:37:09Z</time>
      </trkpt>
      <trkpt lat="43.39629" lon="6.65208">
        <ele>222.2</ele>
        <time>2012-10-12T07:37:10Z</time>
      </trkpt>
      <trkpt lat="43.3963" lon="6.65207">
        <ele>222.2</ele>
        <time>2012-10-12T07:37:11Z</time>
      </trkpt>
      <trkpt lat="43.39631" lon="6.65207">
        <ele>222.68</ele>
        <time>2012-10-12T07:37:12Z</time>
      </trkpt>
      <trkpt lat="43.39633" lon="6.65206">
        <ele>223.16</ele>
        <time>2012-10-12T07:37:13Z</time>
      </trkpt>
      <trkpt lat="43.39634" lon="6.65206">
        <ele>222.68</ele>
        <time>2012-10-12T07:37:14Z</time>
      </trkpt>
      <trkpt lat="43.39635" lon="6.65205">
        <ele>223.64</ele>
        <time>2012-10-12T07:37:15Z</time>
      </trkpt>
      <trkpt lat="43.39636" lon="6.65204">
        <ele>223.64</ele>
        <time>2012-10-12T07:37:16Z</time>
      </trkpt>
      <trkpt lat="43.39638" lon="6.65204">
        <ele>224.12</ele>
        <time>2012-10-12T07:37:17Z</time>
      </trkpt>
      <trkpt lat="43.39639" lon="6.65204">
        <ele>224.12</ele>
        <time>2012-10-12T07:37:18Z</time>
      </trkpt>
      <trkpt lat="43.3964" lon="6.65203">
        <ele>225.09</ele>
        <time>2012-10-12T07:37:19Z</time>
      </trkpt>
      <trkpt lat="43.39642" lon="6.65202">
        <ele>225.09</ele>
        <time>2012-10-12T07:37:20Z</time>
      </trkpt>
      <trkpt lat="43.39643" lon="6.65202">
        <ele>225.57</ele>
        <time>2012-10-12T07:37:21Z</time>
      </trkpt>
      <trkpt lat="43.39644" lon="6.65201">
        <ele>225.57</ele>
        <time>2012-10-12T07:37:22Z</time>
      </trkpt>
      <trkpt lat="43.39645" lon="6.652">
        <ele>225.57</ele>
        <time>2012-10-12T07:37:23Z</time>
      </trkpt>
      <trkpt lat="43.39658" lon="6.65183">
        <ele>228.45</ele>
        <time>2012-10-12T07:37:36Z</time>
      </trkpt>
      <trkpt lat="43.39666" lon="6.65167">
        <ele>231.81</ele>
        <time>2012-10-12T07:37:46Z</time>
      </trkpt>
      <trkpt lat="43.39675" lon="6.65141">
        <ele>233.74</ele>
        <time>2012-10-12T07:37:59Z</time>
      </trkpt>
      <trkpt lat="43.39677" lon="6.65136">
        <ele>234.22</ele>
        <time>2012-10-12T07:38:02Z</time>
      </trkpt>
      <trkpt lat="43.39688" lon="6.65108">
        <ele>236.62</ele>
        <time>2012-10-12T07:38:15Z</time>
      </trkpt>
      <trkpt lat="43.39693" lon="6.65094">
        <ele>237.1</ele>
        <time>2012-10-12T07:38:21Z</time>
      </trkpt>
      <trkpt lat="43.39701" lon="6.65068">
        <ele>238.54</ele>
        <time>2012-10-12T07:38:32Z</time>
      </trkpt>
      <trkpt lat="43.39717" lon="6.65047">
        <ele>240.95</ele>
        <time>2012-10-12T07:38:44Z</time>
      </trkpt>
      <trkpt lat="43.39738" lon="6.65035">
        <ele>242.39</ele>
        <time>2012-10-12T07:38:56Z</time>
      </trkpt>
      <trkpt lat="43.39756" lon="6.65028">
        <ele>245.27</ele>
        <time>2012-10-12T07:39:07Z</time>
      </trkpt>
      <trkpt lat="43.39757" lon="6.65026">
        <ele>245.27</ele>
        <time>2012-10-12T07:39:08Z</time>
      </trkpt>
      <trkpt lat="43.39759" lon="6.65025">
        <ele>245.75</ele>
        <time>2012-10-12T07:39:09Z</time>
      </trkpt>
      <trkpt lat="43.3976" lon="6.65024">
        <ele>245.27</ele>
        <time>2012-10-12T07:39:10Z</time>
      </trkpt>
      <trkpt lat="43.39761" lon="6.65023">
        <ele>245.27</ele>
        <time>2012-10-12T07:39:11Z</time>
      </trkpt>
      <trkpt lat="43.39767" lon="6.65018">
        <ele>246.72</ele>
        <time>2012-10-12T07:39:15Z</time>
      </trkpt>
      <trkpt lat="43.39783" lon="6.65008">
        <ele>248.16</ele>
        <time>2012-10-12T07:39:25Z</time>
      </trkpt>
      <trkpt lat="43.39799" lon="6.65005">
        <ele>251.52</ele>
        <time>2012-10-12T07:39:36Z</time>
      </trkpt>
      <trkpt lat="43.39804" lon="6.65004">
        <ele>252</ele>
        <time>2012-10-12T07:39:40Z</time>
      </trkpt>
      <trkpt lat="43.39805" lon="6.65003">
        <ele>252.48</ele>
        <time>2012-10-12T07:39:41Z</time>
      </trkpt>
      <trkpt lat="43.39816" lon="6.65002">
        <ele>253.93</ele>
        <time>2012-10-12T07:39:49Z</time>
      </trkpt>
      <trkpt lat="43.39817" lon="6.65002">
        <ele>254.41</ele>
        <time>2012-10-12T07:39:50Z</time>
      </trkpt>
      <trkpt lat="43.3983" lon="6.64997">
        <ele>256.33</ele>
        <time>2012-10-12T07:40:00Z</time>
      </trkpt>
      <trkpt lat="43.39843" lon="6.6499">
        <ele>258.73</ele>
        <time>2012-10-12T07:40:10Z</time>
      </trkpt>
      <trkpt lat="43.39845" lon="6.64989">
        <ele>259.21</ele>
        <time>2012-10-12T07:40:11Z</time>
      </trkpt>
      <trkpt lat="43.39846" lon="6.64988">
        <ele>259.21</ele>
        <time>2012-10-12T07:40:12Z</time>
      </trkpt>
      <trkpt lat="43.39847" lon="6.64987">
        <ele>259.21</ele>
        <time>2012-10-12T07:40:13Z</time>
      </trkpt>
      <trkpt lat="43.39849" lon="6.64986">
        <ele>259.69</ele>
        <time>2012-10-12T07:40:14Z</time>
      </trkpt>
      <trkpt lat="43.39865" lon="6.64974">
        <ele>263.06</ele>
        <time>2012-10-12T07:40:26Z</time>
      </trkpt>
      <trkpt lat="43.39882" lon="6.64965">
        <ele>265.94</ele>
        <time>2012-10-12T07:40:38Z</time>
      </trkpt>
      <trkpt lat="43.399" lon="6.6496">
        <ele>267.38</ele>
        <time>2012-10-12T07:40:49Z</time>
      </trkpt>
      <trkpt lat="43.39916" lon="6.64955">
        <ele>270.27</ele>
        <time>2012-10-12T07:41:00Z</time>
      </trkpt>
      <trkpt lat="43.39922" lon="6.64951">
        <ele>271.23</ele>
        <time>2012-10-12T07:41:05Z</time>
      </trkpt>
      <trkpt lat="43.39923" lon="6.6495">
        <ele>271.71</ele>
        <time>2012-10-12T07:41:06Z</time>
      </trkpt>
      <trkpt lat="43.39925" lon="6.64949">
        <ele>271.23</ele>
        <time>2012-10-12T07:41:07Z</time>
      </trkpt>
      <trkpt lat="43.39936" lon="6.64939">
        <ele>274.59</ele>
        <time>2012-10-12T07:41:17Z</time>
      </trkpt>
      <trkpt lat="43.39939" lon="6.64937">
        <ele>275.56</ele>
        <time>2012-10-12T07:41:20Z</time>
      </trkpt>
      <trkpt lat="43.3994" lon="6.64937">
        <ele>275.56</ele>
        <time>2012-10-12T07:41:21Z</time>
      </trkpt>
      <trkpt lat="43.39941" lon="6.64936">
        <ele>275.56</ele>
        <time>2012-10-12T07:41:22Z</time>
      </trkpt>
      <trkpt lat="43.39942" lon="6.64936">
        <ele>276.04</ele>
        <time>2012-10-12T07:41:23Z</time>
      </trkpt>
      <trkpt lat="43.39944" lon="6.64936">
        <ele>276.04</ele>
        <time>2012-10-12T07:41:24Z</time>
      </trkpt>
      <trkpt lat="43.39945" lon="6.64935">
        <ele>276.04</ele>
        <time>2012-10-12T07:41:25Z</time>
      </trkpt>
      <trkpt lat="43.39946" lon="6.64935">
        <ele>276.04</ele>
        <time>2012-10-12T07:41:26Z</time>
      </trkpt>
      <trkpt lat="43.39948" lon="6.64935">
        <ele>276.52</ele>
        <time>2012-10-12T07:41:27Z</time>
      </trkpt>
      <trkpt lat="43.39953" lon="6.64935">
        <ele>277.48</ele>
        <time>2012-10-12T07:41:32Z</time>
      </trkpt>
      <trkpt lat="43.39955" lon="6.64935">
        <ele>277.48</ele>
        <time>2012-10-12T07:41:33Z</time>
      </trkpt>
      <trkpt lat="43.39957" lon="6.64934">
        <ele>278.44</ele>
        <time>2012-10-12T07:41:35Z</time>
      </trkpt>
      <trkpt lat="43.39959" lon="6.64935">
        <ele>278.44</ele>
        <time>2012-10-12T07:41:36Z</time>
      </trkpt>
      <trkpt lat="43.3996" lon="6.64935">
        <ele>278.92</ele>
        <time>2012-10-12T07:41:37Z</time>
      </trkpt>
      <trkpt lat="43.39961" lon="6.64934">
        <ele>279.88</ele>
        <time>2012-10-12T07:41:38Z</time>
      </trkpt>
      <trkpt lat="43.39963" lon="6.64934">
        <ele>279.88</ele>
        <time>2012-10-12T07:41:39Z</time>
      </trkpt>
      <trkpt lat="43.39964" lon="6.64935">
        <ele>279.88</ele>
        <time>2012-10-12T07:41:40Z</time>
      </trkpt>
      <trkpt lat="43.39974" lon="6.64934">
        <ele>283.25</ele>
        <time>2012-10-12T07:41:47Z</time>
      </trkpt>
      <trkpt lat="43.39975" lon="6.64934">
        <ele>283.25</ele>
        <time>2012-10-12T07:41:48Z</time>
      </trkpt>
      <trkpt lat="43.39981" lon="6.64937">
        <ele>284.69</ele>
        <time>2012-10-12T07:41:53Z</time>
      </trkpt>
      <trkpt lat="43.39982" lon="6.64937">
        <ele>285.17</ele>
        <time>2012-10-12T07:41:54Z</time>
      </trkpt>
      <trkpt lat="43.39984" lon="6.64937">
        <ele>285.17</ele>
        <time>2012-10-12T07:41:55Z</time>
      </trkpt>
      <trkpt lat="43.3999" lon="6.64939">
        <ele>286.61</ele>
        <time>2012-10-12T07:42:00Z</time>
      </trkpt>
      <trkpt lat="43.39991" lon="6.64939">
        <ele>286.61</ele>
        <time>2012-10-12T07:42:01Z</time>
      </trkpt>
      <trkpt lat="43.39992" lon="6.6494">
        <ele>286.61</ele>
        <time>2012-10-12T07:42:02Z</time>
      </trkpt>
      <trkpt lat="43.39994" lon="6.6494">
        <ele>287.09</ele>
        <time>2012-10-12T07:42:03Z</time>
      </trkpt>
      <trkpt lat="43.39995" lon="6.64941">
        <ele>287.09</ele>
        <time>2012-10-12T07:42:04Z</time>
      </trkpt>
      <trkpt lat="43.39996" lon="6.64941">
        <ele>287.57</ele>
        <time>2012-10-12T07:42:05Z</time>
      </trkpt>
      <trkpt lat="43.40007" lon="6.64937">
        <ele>290.94</ele>
        <time>2012-10-12T07:42:15Z</time>
      </trkpt>
      <trkpt lat="43.40009" lon="6.64937">
        <ele>290.94</ele>
        <time>2012-10-12T07:42:16Z</time>
      </trkpt>
      <trkpt lat="43.4001" lon="6.64937">
        <ele>291.42</ele>
        <time>2012-10-12T07:42:17Z</time>
      </trkpt>
      <trkpt lat="43.40011" lon="6.64937">
        <ele>291.9</ele>
        <time>2012-10-12T07:42:18Z</time>
      </trkpt>
      <trkpt lat="43.40013" lon="6.64937">
        <ele>291.42</ele>
        <time>2012-10-12T07:42:19Z</time>
      </trkpt>
      <trkpt lat="43.40024" lon="6.64934">
        <ele>293.82</ele>
        <time>2012-10-12T07:42:28Z</time>
      </trkpt>
      <trkpt lat="43.40025" lon="6.64934">
        <ele>293.82</ele>
        <time>2012-10-12T07:42:29Z</time>
      </trkpt>
      <trkpt lat="43.40026" lon="6.64933">
        <ele>293.82</ele>
        <time>2012-10-12T07:42:30Z</time>
      </trkpt>
      <trkpt lat="43.4003" lon="6.64931">
        <ele>294.3</ele>
        <time>2012-10-12T07:42:33Z</time>
      </trkpt>
      <trkpt lat="43.40034" lon="6.64928">
        <ele>295.74</ele>
        <time>2012-10-12T07:42:37Z</time>
      </trkpt>
      <trkpt lat="43.40036" lon="6.64927">
        <ele>296.7</ele>
        <time>2012-10-12T07:42:39Z</time>
      </trkpt>
      <trkpt lat="43.40044" lon="6.64915">
        <ele>299.11</ele>
        <time>2012-10-12T07:42:50Z</time>
      </trkpt>
      <trkpt lat="43.40045" lon="6.64914">
        <ele>300.07</ele>
        <time>2012-10-12T07:42:51Z</time>
      </trkpt>
      <trkpt lat="43.40046" lon="6.64913">
        <ele>299.59</ele>
        <time>2012-10-12T07:42:52Z</time>
      </trkpt>
      <trkpt lat="43.40047" lon="6.64911">
        <ele>300.07</ele>
        <time>2012-10-12T07:42:53Z</time>
      </trkpt>
      <trkpt lat="43.40048" lon="6.6491">
        <ele>300.55</ele>
        <time>2012-10-12T07:42:54Z</time>
      </trkpt>
      <trkpt lat="43.40049" lon="6.64909">
        <ele>301.03</ele>
        <time>2012-10-12T07:42:55Z</time>
      </trkpt>
      <trkpt lat="43.4005" lon="6.64908">
        <ele>301.03</ele>
        <time>2012-10-12T07:42:56Z</time>
      </trkpt>
      <trkpt lat="43.40051" lon="6.64908">
        <ele>301.03</ele>
        <time>2012-10-12T07:42:57Z</time>
      </trkpt>
      <trkpt lat="43.40052" lon="6.64907">
        <ele>301.51</ele>
        <time>2012-10-12T07:42:58Z</time>
      </trkpt>
      <trkpt lat="43.40053" lon="6.64906">
        <ele>301.51</ele>
        <time>2012-10-12T07:42:59Z</time>
      </trkpt>
      <trkpt lat="43.40054" lon="6.64905">
        <ele>301.51</ele>
        <time>2012-10-12T07:43:00Z</time>
      </trkpt>
      <trkpt lat="43.40055" lon="6.64904">
        <ele>301.99</ele>
        <time>2012-10-12T07:43:01Z</time>
      </trkpt>
      <trkpt lat="43.40056" lon="6.64903">
        <ele>302.47</ele>
        <time>2012-10-12T07:43:02Z</time>
      </trkpt>
      <trkpt lat="43.40057" lon="6.64902">
        <ele>302.47</ele>
        <time>2012-10-12T07:43:03Z</time>
      </trkpt>
      <trkpt lat="43.40058" lon="6.649">
        <ele>303.43</ele>
        <time>2012-10-12T07:43:04Z</time>
      </trkpt>
      <trkpt lat="43.40059" lon="6.64899">
        <ele>303.43</ele>
        <time>2012-10-12T07:43:05Z</time>
      </trkpt>
      <trkpt lat="43.40067" lon="6.64892">
        <ele>305.36</ele>
        <time>2012-10-12T07:43:13Z</time>
      </trkpt>
      <trkpt lat="43.4007" lon="6.64888">
        <ele>306.8</ele>
        <time>2012-10-12T07:43:16Z</time>
      </trkpt>
      <trkpt lat="43.40073" lon="6.64886">
        <ele>307.76</ele>
        <time>2012-10-12T07:43:18Z</time>
      </trkpt>
      <trkpt lat="43.40074" lon="6.64885">
        <ele>308.24</ele>
        <time>2012-10-12T07:43:19Z</time>
      </trkpt>
      <trkpt lat="43.40076" lon="6.64885">
        <ele>308.24</ele>
        <time>2012-10-12T07:43:20Z</time>
      </trkpt>
      <trkpt lat="43.40077" lon="6.64884">
        <ele>308.24</ele>
        <time>2012-10-12T07:43:21Z</time>
      </trkpt>
      <trkpt lat="43.40079" lon="6.64883">
        <ele>308.24</ele>
        <time>2012-10-12T07:43:22Z</time>
      </trkpt>
      <trkpt lat="43.4008" lon="6.64882">
        <ele>308.72</ele>
        <time>2012-10-12T07:43:23Z</time>
      </trkpt>
      <trkpt lat="43.40081" lon="6.64882">
        <ele>308.72</ele>
        <time>2012-10-12T07:43:24Z</time>
      </trkpt>
      <trkpt lat="43.40083" lon="6.6488">
        <ele>309.2</ele>
        <time>2012-10-12T07:43:25Z</time>
      </trkpt>
      <trkpt lat="43.40084" lon="6.64879">
        <ele>309.2</ele>
        <time>2012-10-12T07:43:26Z</time>
      </trkpt>
      <trkpt lat="43.40086" lon="6.64878">
        <ele>309.68</ele>
        <time>2012-10-12T07:43:27Z</time>
      </trkpt>
      <trkpt lat="43.40088" lon="6.64877">
        <ele>309.2</ele>
        <time>2012-10-12T07:43:28Z</time>
      </trkpt>
      <trkpt lat="43.4009" lon="6.64876">
        <ele>309.2</ele>
        <time>2012-10-12T07:43:29Z</time>
      </trkpt>
      <trkpt lat="43.40091" lon="6.64875">
        <ele>309.68</ele>
        <time>2012-10-12T07:43:30Z</time>
      </trkpt>
      <trkpt lat="43.40093" lon="6.64874">
        <ele>309.68</ele>
        <time>2012-10-12T07:43:31Z</time>
      </trkpt>
      <trkpt lat="43.40112" lon="6.64858">
        <ele>309.2</ele>
        <time>2012-10-12T07:43:42Z</time>
      </trkpt>
      <trkpt lat="43.40133" lon="6.64825">
        <ele>308.72</ele>
        <time>2012-10-12T07:43:54Z</time>
      </trkpt>
      <trkpt lat="43.40157" lon="6.64785">
        <ele>306.32</ele>
        <time>2012-10-12T07:44:02Z</time>
      </trkpt>
      <trkpt lat="43.40161" lon="6.6478">
        <ele>305.84</ele>
        <time>2012-10-12T07:44:03Z</time>
      </trkpt>
      <trkpt lat="43.40166" lon="6.64774">
        <ele>305.36</ele>
        <time>2012-10-12T07:44:04Z</time>
      </trkpt>
      <trkpt lat="43.40178" lon="6.64764">
        <ele>303.91</ele>
        <time>2012-10-12T07:44:06Z</time>
      </trkpt>
      <trkpt lat="43.40185" lon="6.6476">
        <ele>302.47</ele>
        <time>2012-10-12T07:44:07Z</time>
      </trkpt>
      <trkpt lat="43.40193" lon="6.64759">
        <ele>301.99</ele>
        <time>2012-10-12T07:44:08Z</time>
      </trkpt>
      <trkpt lat="43.40218" lon="6.64755">
        <ele>300.07</ele>
        <time>2012-10-12T07:44:11Z</time>
      </trkpt>
      <trkpt lat="43.40226" lon="6.64755">
        <ele>299.11</ele>
        <time>2012-10-12T07:44:12Z</time>
      </trkpt>
      <trkpt lat="43.40274" lon="6.64746">
        <ele>300.07</ele>
        <time>2012-10-12T07:44:18Z</time>
      </trkpt>
      <trkpt lat="43.40281" lon="6.64744">
        <ele>300.55</ele>
        <time>2012-10-12T07:44:19Z</time>
      </trkpt>
      <trkpt lat="43.40312" lon="6.64737">
        <ele>301.51</ele>
        <time>2012-10-12T07:44:24Z</time>
      </trkpt>
      <trkpt lat="43.4033" lon="6.64739">
        <ele>300.55</ele>
        <time>2012-10-12T07:44:27Z</time>
      </trkpt>
      <trkpt lat="43.40368" lon="6.64753">
        <ele>297.18</ele>
        <time>2012-10-12T07:44:32Z</time>
      </trkpt>
      <trkpt lat="43.40425" lon="6.64773">
        <ele>298.15</ele>
        <time>2012-10-12T07:44:40Z</time>
      </trkpt>
      <trkpt lat="43.40468" lon="6.64781">
        <ele>295.26</ele>
        <time>2012-10-12T07:44:46Z</time>
      </trkpt>
      <trkpt lat="43.40515" lon="6.64787">
        <ele>292.86</ele>
        <time>2012-10-12T07:44:52Z</time>
      </trkpt>
      <trkpt lat="43.40524" lon="6.64789">
        <ele>292.86</ele>
        <time>2012-10-12T07:44:53Z</time>
      </trkpt>
      <trkpt lat="43.40564" lon="6.64798">
        <ele>289.49</ele>
        <time>2012-10-12T07:44:58Z</time>
      </trkpt>
      <trkpt lat="43.40593" lon="6.64804">
        <ele>290.46</ele>
        <time>2012-10-12T07:45:02Z</time>
      </trkpt>
      <trkpt lat="43.40606" lon="6.64806">
        <ele>291.9</ele>
        <time>2012-10-12T07:45:04Z</time>
      </trkpt>
      <trkpt lat="43.40621" lon="6.64809">
        <ele>293.34</ele>
        <time>2012-10-12T07:45:07Z</time>
      </trkpt>
      <trkpt lat="43.40656" lon="6.64816">
        <ele>293.82</ele>
        <time>2012-10-12T07:45:15Z</time>
      </trkpt>
      <trkpt lat="43.40695" lon="6.64829">
        <ele>296.22</ele>
        <time>2012-10-12T07:45:27Z</time>
      </trkpt>
      <trkpt lat="43.40721" lon="6.64839">
        <ele>297.67</ele>
        <time>2012-10-12T07:45:35Z</time>
      </trkpt>
      <trkpt lat="43.40733" lon="6.64846">
        <ele>295.74</ele>
        <time>2012-10-12T07:45:38Z</time>
      </trkpt>
      <trkpt lat="43.40742" lon="6.64856">
        <ele>298.15</ele>
        <time>2012-10-12T07:45:41Z</time>
      </trkpt>
      <trkpt lat="43.40755" lon="6.64876">
        <ele>300.07</ele>
        <time>2012-10-12T07:45:48Z</time>
      </trkpt>
      <trkpt lat="43.4077" lon="6.64902">
        <ele>301.51</ele>
        <time>2012-10-12T07:45:57Z</time>
      </trkpt>
      <trkpt lat="43.40776" lon="6.64919">
        <ele>302.95</ele>
        <time>2012-10-12T07:46:03Z</time>
      </trkpt>
      <trkpt lat="43.4078" lon="6.64942">
        <ele>306.32</ele>
        <time>2012-10-12T07:46:12Z</time>
      </trkpt>
      <trkpt lat="43.40781" lon="6.64944">
        <ele>306.32</ele>
        <time>2012-10-12T07:46:13Z</time>
      </trkpt>
      <trkpt lat="43.40785" lon="6.6497">
        <ele>307.28</ele>
        <time>2012-10-12T07:46:22Z</time>
      </trkpt>
      <trkpt lat="43.40785" lon="6.64973">
        <ele>307.28</ele>
        <time>2012-10-12T07:46:23Z</time>
      </trkpt>
      <trkpt lat="43.40786" lon="6.64977">
        <ele>307.28</ele>
        <time>2012-10-12T07:46:24Z</time>
      </trkpt>
      <trkpt lat="43.40786" lon="6.6498">
        <ele>306.8</ele>
        <time>2012-10-12T07:46:25Z</time>
      </trkpt>
      <trkpt lat="43.40786" lon="6.64983">
        <ele>307.28</ele>
        <time>2012-10-12T07:46:26Z</time>
      </trkpt>
      <trkpt lat="43.40786" lon="6.64986">
        <ele>307.76</ele>
        <time>2012-10-12T07:46:27Z</time>
      </trkpt>
      <trkpt lat="43.40786" lon="6.6499">
        <ele>307.28</ele>
        <time>2012-10-12T07:46:28Z</time>
      </trkpt>
      <trkpt lat="43.40786" lon="6.65">
        <ele>308.72</ele>
        <time>2012-10-12T07:46:31Z</time>
      </trkpt>
      <trkpt lat="43.40789" lon="6.65037">
        <ele>308.72</ele>
        <time>2012-10-12T07:46:40Z</time>
      </trkpt>
      <trkpt lat="43.40794" lon="6.65081">
        <ele>308.72</ele>
        <time>2012-10-12T07:46:50Z</time>
      </trkpt>
      <trkpt lat="43.40796" lon="6.65133">
        <ele>304.88</ele>
        <time>2012-10-12T07:46:58Z</time>
      </trkpt>
      <trkpt lat="43.40796" lon="6.65152">
        <ele>302.95</ele>
        <time>2012-10-12T07:47:00Z</time>
      </trkpt>
      <trkpt lat="43.408" lon="6.65174">
        <ele>301.51</ele>
        <time>2012-10-12T07:47:03Z</time>
      </trkpt>
      <trkpt lat="43.40819" lon="6.65191">
        <ele>303.91</ele>
        <time>2012-10-12T07:47:09Z</time>
      </trkpt>
      <trkpt lat="43.40854" lon="6.65192">
        <ele>305.36</ele>
        <time>2012-10-12T07:47:19Z</time>
      </trkpt>
      <trkpt lat="43.40872" lon="6.65202">
        <ele>306.32</ele>
        <time>2012-10-12T07:47:26Z</time>
      </trkpt>
      <trkpt lat="43.40884" lon="6.65218">
        <ele>306.8</ele>
        <time>2012-10-12T07:47:31Z</time>
      </trkpt>
      <trkpt lat="43.40904" lon="6.65233">
        <ele>305.84</ele>
        <time>2012-10-12T07:47:36Z</time>
      </trkpt>
      <trkpt lat="43.40942" lon="6.65251">
        <ele>307.28</ele>
        <time>2012-10-12T07:47:47Z</time>
      </trkpt>
      <trkpt lat="43.40957" lon="6.65259">
        <ele>306.8</ele>
        <time>2012-10-12T07:47:51Z</time>
      </trkpt>
      <trkpt lat="43.4097" lon="6.65264">
        <ele>306.8</ele>
        <time>2012-10-12T07:47:54Z</time>
      </trkpt>
      <trkpt lat="43.40979" lon="6.65267">
        <ele>306.32</ele>
        <time>2012-10-12T07:47:56Z</time>
      </trkpt>
      <trkpt lat="43.40993" lon="6.65281">
        <ele>303.91</ele>
        <time>2012-10-12T07:47:59Z</time>
      </trkpt>
      <trkpt lat="43.41005" lon="6.65291">
        <ele>302.47</ele>
        <time>2012-10-12T07:48:01Z</time>
      </trkpt>
      <trkpt lat="43.41018" lon="6.65299">
        <ele>301.03</ele>
        <time>2012-10-12T07:48:03Z</time>
      </trkpt>
      <trkpt lat="43.41037" lon="6.65315">
        <ele>297.67</ele>
        <time>2012-10-12T07:48:06Z</time>
      </trkpt>
      <trkpt lat="43.41061" lon="6.65319">
        <ele>293.82</ele>
        <time>2012-10-12T07:48:10Z</time>
      </trkpt>
      <trkpt lat="43.41084" lon="6.6531">
        <ele>289.49</ele>
        <time>2012-10-12T07:48:13Z</time>
      </trkpt>
      <trkpt lat="43.41108" lon="6.65301">
        <ele>287.09</ele>
        <time>2012-10-12T07:48:16Z</time>
      </trkpt>
      <trkpt lat="43.41128" lon="6.6528">
        <ele>286.13</ele>
        <time>2012-10-12T07:48:20Z</time>
      </trkpt>
      <trkpt lat="43.41152" lon="6.65259">
        <ele>282.77</ele>
        <time>2012-10-12T07:48:24Z</time>
      </trkpt>
      <trkpt lat="43.41168" lon="6.65253">
        <ele>280.84</ele>
        <time>2012-10-12T07:48:26Z</time>
      </trkpt>
      <trkpt lat="43.41188" lon="6.65241">
        <ele>280.36</ele>
        <time>2012-10-12T07:48:29Z</time>
      </trkpt>
      <trkpt lat="43.41208" lon="6.65246">
        <ele>277.48</ele>
        <time>2012-10-12T07:48:35Z</time>
      </trkpt>
      <trkpt lat="43.41218" lon="6.65258">
        <ele>272.67</ele>
        <time>2012-10-12T07:48:39Z</time>
      </trkpt>
      <trkpt lat="43.41224" lon="6.65267">
        <ele>269.31</ele>
        <time>2012-10-12T07:48:43Z</time>
      </trkpt>
      <trkpt lat="43.4123" lon="6.65275">
        <ele>266.42</ele>
        <time>2012-10-12T07:48:46Z</time>
      </trkpt>
      <trkpt lat="43.41235" lon="6.65285">
        <ele>263.06</ele>
        <time>2012-10-12T07:48:49Z</time>
      </trkpt>
      <trkpt lat="43.41239" lon="6.65291">
        <ele>260.65</ele>
        <time>2012-10-12T07:48:51Z</time>
      </trkpt>
      <trkpt lat="43.41245" lon="6.65292">
        <ele>259.21</ele>
        <time>2012-10-12T07:48:53Z</time>
      </trkpt>
      <trkpt lat="43.41256" lon="6.65291">
        <ele>257.29</ele>
        <time>2012-10-12T07:48:57Z</time>
      </trkpt>
      <trkpt lat="43.41266" lon="6.65292">
        <ele>253.44</ele>
        <time>2012-10-12T07:49:01Z</time>
      </trkpt>
      <trkpt lat="43.41277" lon="6.65288">
        <ele>249.6</ele>
        <time>2012-10-12T07:49:06Z</time>
      </trkpt>
      <trkpt lat="43.4128" lon="6.65287">
        <ele>248.64</ele>
        <time>2012-10-12T07:49:07Z</time>
      </trkpt>
      <trkpt lat="43.4129" lon="6.65295">
        <ele>243.35</ele>
        <time>2012-10-12T07:49:12Z</time>
      </trkpt>
      <trkpt lat="43.41296" lon="6.65326">
        <ele>239.02</ele>
        <time>2012-10-12T07:49:17Z</time>
      </trkpt>
      <trkpt lat="43.41298" lon="6.65334">
        <ele>239.02</ele>
        <time>2012-10-12T07:49:18Z</time>
      </trkpt>
      <trkpt lat="43.413" lon="6.65342">
        <ele>238.54</ele>
        <time>2012-10-12T07:49:19Z</time>
      </trkpt>
      <trkpt lat="43.41312" lon="6.6537">
        <ele>234.22</ele>
        <time>2012-10-12T07:49:23Z</time>
      </trkpt>
      <trkpt lat="43.41321" lon="6.65383">
        <ele>230.85</ele>
        <time>2012-10-12T07:49:25Z</time>
      </trkpt>
      <trkpt lat="43.41346" lon="6.65401">
        <ele>226.53</ele>
        <time>2012-10-12T07:49:31Z</time>
      </trkpt>
      <trkpt lat="43.41349" lon="6.65404">
        <ele>227.01</ele>
        <time>2012-10-12T07:49:32Z</time>
      </trkpt>
      <trkpt lat="43.41354" lon="6.65434">
        <ele>226.05</ele>
        <time>2012-10-12T07:49:38Z</time>
      </trkpt>
      <trkpt lat="43.41348" lon="6.65462">
        <ele>222.68</ele>
        <time>2012-10-12T07:49:44Z</time>
      </trkpt>
      <trkpt lat="43.41353" lon="6.65481">
        <ele>220.76</ele>
        <time>2012-10-12T07:49:47Z</time>
      </trkpt>
      <trkpt lat="43.41358" lon="6.655">
        <ele>218.84</ele>
        <time>2012-10-12T07:49:50Z</time>
      </trkpt>
      <trkpt lat="43.41363" lon="6.65525">
        <ele>215.47</ele>
        <time>2012-10-12T07:49:56Z</time>
      </trkpt>
      <trkpt lat="43.41369" lon="6.65529">
        <ele>214.99</ele>
        <time>2012-10-12T07:49:58Z</time>
      </trkpt>
      <trkpt lat="43.41372" lon="6.6553">
        <ele>214.51</ele>
        <time>2012-10-12T07:49:59Z</time>
      </trkpt>
      <trkpt lat="43.41379" lon="6.65545">
        <ele>210.19</ele>
        <time>2012-10-12T07:50:04Z</time>
      </trkpt>
      <trkpt lat="43.41381" lon="6.65548">
        <ele>208.74</ele>
        <time>2012-10-12T07:50:05Z</time>
      </trkpt>
      <trkpt lat="43.41391" lon="6.65561">
        <ele>204.9</ele>
        <time>2012-10-12T07:50:11Z</time>
      </trkpt>
      <trkpt lat="43.41392" lon="6.65564">
        <ele>204.9</ele>
        <time>2012-10-12T07:50:12Z</time>
      </trkpt>
      <trkpt lat="43.41398" lon="6.65573">
        <ele>202.01</ele>
        <time>2012-10-12T07:50:16Z</time>
      </trkpt>
      <trkpt lat="43.41398" lon="6.65584">
        <ele>198.65</ele>
        <time>2012-10-12T07:50:20Z</time>
      </trkpt>
      <trkpt lat="43.41397" lon="6.65597">
        <ele>196.25</ele>
        <time>2012-10-12T07:50:24Z</time>
      </trkpt>
      <trkpt lat="43.41403" lon="6.6561">
        <ele>193.84</ele>
        <time>2012-10-12T07:50:28Z</time>
      </trkpt>
      <trkpt lat="43.41405" lon="6.65626">
        <ele>190.96</ele>
        <time>2012-10-12T07:50:32Z</time>
      </trkpt>
      <trkpt lat="43.41408" lon="6.65638">
        <ele>189.52</ele>
        <time>2012-10-12T07:50:35Z</time>
      </trkpt>
      <trkpt lat="43.41404" lon="6.65657">
        <ele>186.15</ele>
        <time>2012-10-12T07:50:41Z</time>
      </trkpt>
      <trkpt lat="43.41404" lon="6.6566">
        <ele>185.67</ele>
        <time>2012-10-12T07:50:42Z</time>
      </trkpt>
      <trkpt lat="43.41404" lon="6.65664">
        <ele>185.19</ele>
        <time>2012-10-12T07:50:44Z</time>
      </trkpt>
      <trkpt lat="43.41405" lon="6.65673">
        <ele>184.23</ele>
        <time>2012-10-12T07:50:49Z</time>
      </trkpt>
      <trkpt lat="43.41406" lon="6.65679">
        <ele>182.79</ele>
        <time>2012-10-12T07:50:51Z</time>
      </trkpt>
      <trkpt lat="43.41404" lon="6.65689">
        <ele>180.87</ele>
        <time>2012-10-12T07:50:56Z</time>
      </trkpt>
      <trkpt lat="43.41405" lon="6.65696">
        <ele>179.9</ele>
        <time>2012-10-12T07:50:59Z</time>
      </trkpt>
      <trkpt lat="43.41402" lon="6.65714">
        <ele>176.54</ele>
        <time>2012-10-12T07:51:07Z</time>
      </trkpt>
      <trkpt lat="43.41402" lon="6.6573">
        <ele>173.17</ele>
        <time>2012-10-12T07:51:12Z</time>
      </trkpt>
      <trkpt lat="43.41402" lon="6.65733">
        <ele>172.21</ele>
        <time>2012-10-12T07:51:13Z</time>
      </trkpt>
      <trkpt lat="43.414" lon="6.65739">
        <ele>171.73</ele>
        <time>2012-10-12T07:51:15Z</time>
      </trkpt>
      <trkpt lat="43.41397" lon="6.65747">
        <ele>170.29</ele>
        <time>2012-10-12T07:51:18Z</time>
      </trkpt>
      <trkpt lat="43.41395" lon="6.65762">
        <ele>165.96</ele>
        <time>2012-10-12T07:51:23Z</time>
      </trkpt>
      <trkpt lat="43.41395" lon="6.65769">
        <ele>165</ele>
        <time>2012-10-12T07:51:25Z</time>
      </trkpt>
      <trkpt lat="43.41392" lon="6.65779">
        <ele>163.08</ele>
        <time>2012-10-12T07:51:28Z</time>
      </trkpt>
      <trkpt lat="43.41397" lon="6.65799">
        <ele>159.72</ele>
        <time>2012-10-12T07:51:34Z</time>
      </trkpt>
      <trkpt lat="43.41399" lon="6.65821">
        <ele>155.87</ele>
        <time>2012-10-12T07:51:39Z</time>
      </trkpt>
      <trkpt lat="43.41397" lon="6.65838">
        <ele>152.99</ele>
        <time>2012-10-12T07:51:45Z</time>
      </trkpt>
      <trkpt lat="43.41397" lon="6.65847">
        <ele>151.06</ele>
        <time>2012-10-12T07:51:49Z</time>
      </trkpt>
      <trkpt lat="43.41403" lon="6.65865">
        <ele>147.7</ele>
        <time>2012-10-12T07:51:56Z</time>
      </trkpt>
      <trkpt lat="43.41407" lon="6.65874">
        <ele>145.78</ele>
        <time>2012-10-12T07:51:59Z</time>
      </trkpt>
      <trkpt lat="43.41412" lon="6.65881">
        <ele>143.85</ele>
        <time>2012-10-12T07:52:02Z</time>
      </trkpt>
      <trkpt lat="43.41415" lon="6.65883">
        <ele>143.37</ele>
        <time>2012-10-12T07:52:03Z</time>
      </trkpt>
      <trkpt lat="43.41429" lon="6.65884">
        <ele>140.01</ele>
        <time>2012-10-12T07:52:08Z</time>
      </trkpt>
      <trkpt lat="43.41443" lon="6.65892">
        <ele>137.13</ele>
        <time>2012-10-12T07:52:13Z</time>
      </trkpt>
      <trkpt lat="43.41444" lon="6.65896">
        <ele>136.16</ele>
        <time>2012-10-12T07:52:14Z</time>
      </trkpt>
      <trkpt lat="43.41448" lon="6.65906">
        <ele>134.24</ele>
        <time>2012-10-12T07:52:17Z</time>
      </trkpt>
      <trkpt lat="43.41452" lon="6.6592">
        <ele>130.88</ele>
        <time>2012-10-12T07:52:21Z</time>
      </trkpt>
      <trkpt lat="43.41457" lon="6.65939">
        <ele>127.03</ele>
        <time>2012-10-12T07:52:25Z</time>
      </trkpt>
      <trkpt lat="43.41461" lon="6.65953">
        <ele>124.15</ele>
        <time>2012-10-12T07:52:28Z</time>
      </trkpt>
      <trkpt lat="43.41465" lon="6.6596">
        <ele>123.19</ele>
        <time>2012-10-12T07:52:30Z</time>
      </trkpt>
      <trkpt lat="43.41465" lon="6.65966">
        <ele>122.22</ele>
        <time>2012-10-12T07:52:32Z</time>
      </trkpt>
      <trkpt lat="43.41461" lon="6.65971">
        <ele>120.3</ele>
        <time>2012-10-12T07:52:35Z</time>
      </trkpt>
      <trkpt lat="43.41459" lon="6.65976">
        <ele>119.34</ele>
        <time>2012-10-12T07:52:39Z</time>
      </trkpt>
      <trkpt lat="43.41456" lon="6.65977">
        <ele>118.38</ele>
        <time>2012-10-12T07:52:42Z</time>
      </trkpt>
      <trkpt lat="43.41452" lon="6.65976">
        <ele>116.94</ele>
        <time>2012-10-12T07:52:49Z</time>
      </trkpt>
      <trkpt lat="43.41447" lon="6.65985">
        <ele>115.01</ele>
        <time>2012-10-12T07:52:55Z</time>
      </trkpt>
      <trkpt lat="43.41444" lon="6.6599">
        <ele>113.09</ele>
        <time>2012-10-12T07:53:00Z</time>
      </trkpt>
      <trkpt lat="43.41431" lon="6.6599">
        <ele>112.13</ele>
        <time>2012-10-12T07:53:08Z</time>
      </trkpt>
      <trkpt lat="43.41428" lon="6.65992">
        <ele>112.13</ele>
        <time>2012-10-12T07:53:10Z</time>
      </trkpt>
      <trkpt lat="43.41425" lon="6.65995">
        <ele>111.17</ele>
        <time>2012-10-12T07:53:12Z</time>
      </trkpt>
      <trkpt lat="43.41414" lon="6.66002">
        <ele>109.25</ele>
        <time>2012-10-12T07:53:16Z</time>
      </trkpt>
      <trkpt lat="43.41395" lon="6.66008">
        <ele>108.29</ele>
        <time>2012-10-12T07:53:21Z</time>
      </trkpt>
      <trkpt lat="43.41378" lon="6.66026">
        <ele>108.77</ele>
        <time>2012-10-12T07:53:26Z</time>
      </trkpt>
      <trkpt lat="43.41368" lon="6.66038">
        <ele>108.29</ele>
        <time>2012-10-12T07:53:32Z</time>
      </trkpt>
      <trkpt lat="43.41361" lon="6.66043">
        <ele>106.36</ele>
        <time>2012-10-12T07:53:36Z</time>
      </trkpt>
      <trkpt lat="43.41359" lon="6.66046">
        <ele>105.88</ele>
        <time>2012-10-12T07:53:38Z</time>
      </trkpt>
      <trkpt lat="43.41353" lon="6.66051">
        <ele>103.96</ele>
        <time>2012-10-12T07:53:43Z</time>
      </trkpt>
      <trkpt lat="43.41355" lon="6.66071">
        <ele>100.11</ele>
        <time>2012-10-12T07:53:49Z</time>
      </trkpt>
      <trkpt lat="43.41357" lon="6.66097">
        <ele>98.19</ele>
        <time>2012-10-12T07:53:54Z</time>
      </trkpt>
      <trkpt lat="43.41346" lon="6.66117">
        <ele>95.79</ele>
        <time>2012-10-12T07:53:59Z</time>
      </trkpt>
      <trkpt lat="43.41328" lon="6.66126">
        <ele>94.35</ele>
        <time>2012-10-12T07:54:03Z</time>
      </trkpt>
      <trkpt lat="43.41322" lon="6.66132">
        <ele>93.87</ele>
        <time>2012-10-12T07:54:05Z</time>
      </trkpt>
      <trkpt lat="43.41318" lon="6.66138">
        <ele>93.39</ele>
        <time>2012-10-12T07:54:07Z</time>
      </trkpt>
      <trkpt lat="43.41298" lon="6.66153">
        <ele>89.06</ele>
        <time>2012-10-12T07:54:12Z</time>
      </trkpt>
      <trkpt lat="43.41291" lon="6.66162">
        <ele>89.54</ele>
        <time>2012-10-12T07:54:16Z</time>
      </trkpt>
      <trkpt lat="43.41291" lon="6.66169">
        <ele>88.58</ele>
        <time>2012-10-12T07:54:20Z</time>
      </trkpt>
      <trkpt lat="43.41286" lon="6.66177">
        <ele>85.69</ele>
        <time>2012-10-12T07:54:24Z</time>
      </trkpt>
      <trkpt lat="43.41285" lon="6.66177">
        <ele>85.69</ele>
        <time>2012-10-12T07:54:25Z</time>
      </trkpt>
      <trkpt lat="43.41283" lon="6.66185">
        <ele>83.29</ele>
        <time>2012-10-12T07:54:30Z</time>
      </trkpt>
      <trkpt lat="43.4128" lon="6.66187">
        <ele>82.81</ele>
        <time>2012-10-12T07:54:32Z</time>
      </trkpt>
      <trkpt lat="43.41273" lon="6.66194">
        <ele>78.97</ele>
        <time>2012-10-12T07:54:38Z</time>
      </trkpt>
      <trkpt lat="43.41272" lon="6.66193">
        <ele>78.97</ele>
        <time>2012-10-12T07:54:41Z</time>
      </trkpt>
      <trkpt lat="43.41266" lon="6.66199">
        <ele>76.56</ele>
        <time>2012-10-12T07:54:48Z</time>
      </trkpt>
      <trkpt lat="43.41259" lon="6.66205">
        <ele>77.04</ele>
        <time>2012-10-12T07:54:53Z</time>
      </trkpt>
      <trkpt lat="43.41258" lon="6.66211">
        <ele>79.45</ele>
        <time>2012-10-12T07:54:57Z</time>
      </trkpt>
      <trkpt lat="43.41258" lon="6.66218">
        <ele>79.93</ele>
        <time>2012-10-12T07:55:02Z</time>
      </trkpt>
      <trkpt lat="43.41258" lon="6.66222">
        <ele>81.37</ele>
        <time>2012-10-12T07:55:07Z</time>
      </trkpt>
      <trkpt lat="43.4126" lon="6.66226">
        <ele>81.37</ele>
        <time>2012-10-12T07:55:10Z</time>
      </trkpt>
      <trkpt lat="43.41262" lon="6.66232">
        <ele>83.77</ele>
        <time>2012-10-12T07:55:16Z</time>
      </trkpt>
      <trkpt lat="43.41267" lon="6.66243">
        <ele>86.66</ele>
        <time>2012-10-12T07:55:26Z</time>
      </trkpt>
      <trkpt lat="43.41268" lon="6.66245">
        <ele>86.66</ele>
        <time>2012-10-12T07:55:28Z</time>
      </trkpt>
      <trkpt lat="43.41282" lon="6.66252">
        <ele>85.69</ele>
        <time>2012-10-12T07:55:34Z</time>
      </trkpt>
      <trkpt lat="43.41318" lon="6.6626">
        <ele>79.93</ele>
        <time>2012-10-12T07:55:41Z</time>
      </trkpt>
      <trkpt lat="43.41323" lon="6.66263">
        <ele>78.97</ele>
        <time>2012-10-12T07:55:42Z</time>
      </trkpt>
      <trkpt lat="43.41335" lon="6.66278">
        <ele>77.04</ele>
        <time>2012-10-12T07:55:45Z</time>
      </trkpt>
      <trkpt lat="43.41341" lon="6.66304">
        <ele>73.68</ele>
        <time>2012-10-12T07:55:49Z</time>
      </trkpt>
      <trkpt lat="43.41343" lon="6.6633">
        <ele>70.31</ele>
        <time>2012-10-12T07:55:52Z</time>
      </trkpt>
      <trkpt lat="43.41342" lon="6.66339">
        <ele>68.87</ele>
        <time>2012-10-12T07:55:53Z</time>
      </trkpt>
      <trkpt lat="43.41351" lon="6.66387">
        <ele>63.58</ele>
        <time>2012-10-12T07:55:59Z</time>
      </trkpt>
      <trkpt lat="43.41354" lon="6.66394">
        <ele>62.62</ele>
        <time>2012-10-12T07:56:00Z</time>
      </trkpt>
      <trkpt lat="43.4137" lon="6.66416">
        <ele>60.22</ele>
        <time>2012-10-12T07:56:04Z</time>
      </trkpt>
      <trkpt lat="43.4139" lon="6.66429">
        <ele>59.26</ele>
        <time>2012-10-12T07:56:10Z</time>
      </trkpt>
      <trkpt lat="43.41392" lon="6.66433">
        <ele>59.26</ele>
        <time>2012-10-12T07:56:15Z</time>
      </trkpt>
      <trkpt lat="43.41392" lon="6.66433">
        <ele>59.26</ele>
        <time>2012-10-12T07:56:36Z</time>
      </trkpt>
      <trkpt lat="43.41392" lon="6.66434">
        <ele>59.74</ele>
        <time>2012-10-12T07:56:41Z</time>
      </trkpt>
      <trkpt lat="43.41393" lon="6.66431">
        <ele>59.74</ele>
        <time>2012-10-12T07:56:45Z</time>
      </trkpt>
      <trkpt lat="43.41401" lon="6.66433">
        <ele>58.78</ele>
        <time>2012-10-12T07:56:49Z</time>
      </trkpt>
      <trkpt lat="43.41411" lon="6.66437">
        <ele>56.86</ele>
        <time>2012-10-12T07:56:52Z</time>
      </trkpt>
      <trkpt lat="43.41419" lon="6.66442">
        <ele>55.41</ele>
        <time>2012-10-12T07:56:54Z</time>
      </trkpt>
      <trkpt lat="43.41433" lon="6.66465">
        <ele>51.57</ele>
        <time>2012-10-12T07:56:58Z</time>
      </trkpt>
      <trkpt lat="43.41439" lon="6.66485">
        <ele>49.65</ele>
        <time>2012-10-12T07:57:01Z</time>
      </trkpt>
      <trkpt lat="43.4145" lon="6.66489">
        <ele>49.16</ele>
        <time>2012-10-12T07:57:04Z</time>
      </trkpt>
      <trkpt lat="43.41476" lon="6.66495">
        <ele>50.61</ele>
        <time>2012-10-12T07:57:12Z</time>
      </trkpt>
      <trkpt lat="43.41502" lon="6.66497">
        <ele>53.49</ele>
        <time>2012-10-12T07:57:22Z</time>
      </trkpt>
      <trkpt lat="43.41529" lon="6.66501">
        <ele>54.45</ele>
        <time>2012-10-12T07:57:33Z</time>
      </trkpt>
      <trkpt lat="43.41555" lon="6.66502">
        <ele>56.86</ele>
        <time>2012-10-12T07:57:43Z</time>
      </trkpt>
      <trkpt lat="43.41569" lon="6.66508">
        <ele>57.34</ele>
        <time>2012-10-12T07:57:48Z</time>
      </trkpt>
      <trkpt lat="43.41593" lon="6.66489">
        <ele>57.34</ele>
        <time>2012-10-12T07:57:56Z</time>
      </trkpt>
      <trkpt lat="43.41606" lon="6.66482">
        <ele>56.37</ele>
        <time>2012-10-12T07:57:59Z</time>
      </trkpt>
      <trkpt lat="43.41629" lon="6.66485">
        <ele>53.97</ele>
        <time>2012-10-12T07:58:03Z</time>
      </trkpt>
      <trkpt lat="43.41642" lon="6.66518">
        <ele>53.01</ele>
        <time>2012-10-12T07:58:08Z</time>
      </trkpt>
      <trkpt lat="43.4165" lon="6.66518">
        <ele>53.49</ele>
        <time>2012-10-12T07:58:10Z</time>
      </trkpt>
      <trkpt lat="43.41679" lon="6.66495">
        <ele>54.45</ele>
        <time>2012-10-12T07:58:19Z</time>
      </trkpt>
      <trkpt lat="43.41721" lon="6.66482">
        <ele>53.01</ele>
        <time>2012-10-12T07:58:28Z</time>
      </trkpt>
      <trkpt lat="43.41732" lon="6.66478">
        <ele>52.05</ele>
        <time>2012-10-12T07:58:30Z</time>
      </trkpt>
      <trkpt lat="43.41748" lon="6.66491">
        <ele>53.49</ele>
        <time>2012-10-12T07:58:35Z</time>
      </trkpt>
      <trkpt lat="43.41743" lon="6.66506">
        <ele>53.97</ele>
        <time>2012-10-12T07:58:38Z</time>
      </trkpt>
      <trkpt lat="43.41749" lon="6.6654">
        <ele>54.45</ele>
        <time>2012-10-12T07:58:45Z</time>
      </trkpt>
      <trkpt lat="43.41761" lon="6.66564">
        <ele>54.45</ele>
        <time>2012-10-12T07:58:51Z</time>
      </trkpt>
      <trkpt lat="43.41775" lon="6.66558">
        <ele>54.45</ele>
        <time>2012-10-12T07:58:58Z</time>
      </trkpt>
      <trkpt lat="43.41794" lon="6.66534">
        <ele>53.49</ele>
        <time>2012-10-12T07:59:05Z</time>
      </trkpt>
      <trkpt lat="43.41822" lon="6.66513">
        <ele>51.09</ele>
        <time>2012-10-12T07:59:11Z</time>
      </trkpt>
      <trkpt lat="43.41856" lon="6.66512">
        <ele>49.16</ele>
        <time>2012-10-12T07:59:16Z</time>
      </trkpt>
      <trkpt lat="43.419" lon="6.66511">
        <ele>47.72</ele>
        <time>2012-10-12T07:59:23Z</time>
      </trkpt>
      <trkpt lat="43.41907" lon="6.66508">
        <ele>46.28</ele>
        <time>2012-10-12T07:59:24Z</time>
      </trkpt>
      <trkpt lat="43.41932" lon="6.66493">
        <ele>38.59</ele>
        <time>2012-10-12T07:59:27Z</time>
      </trkpt>
      <trkpt lat="43.41964" lon="6.66475">
        <ele>33.78</ele>
        <time>2012-10-12T07:59:30Z</time>
      </trkpt>
      <trkpt lat="43.41974" lon="6.6647">
        <ele>32.82</ele>
        <time>2012-10-12T07:59:31Z</time>
      </trkpt>
      <trkpt lat="43.41998" lon="6.66444">
        <ele>30.42</ele>
        <time>2012-10-12T07:59:35Z</time>
      </trkpt>
      <trkpt lat="43.42006" lon="6.66432">
        <ele>28.98</ele>
        <time>2012-10-12T07:59:37Z</time>
      </trkpt>
      <trkpt lat="43.42019" lon="6.66415">
        <ele>25.13</ele>
        <time>2012-10-12T07:59:42Z</time>
      </trkpt>
      <trkpt lat="43.42023" lon="6.6641">
        <ele>24.17</ele>
        <time>2012-10-12T07:59:44Z</time>
      </trkpt>
      <trkpt lat="43.42023" lon="6.66387">
        <ele>20.81</ele>
        <time>2012-10-12T07:59:52Z</time>
      </trkpt>
      <trkpt lat="43.42025" lon="6.6638">
        <ele>22.73</ele>
        <time>2012-10-12T07:59:55Z</time>
      </trkpt>
      <trkpt lat="43.4203" lon="6.66374">
        <ele>22.73</ele>
        <time>2012-10-12T08:00:02Z</time>
      </trkpt>
      <trkpt lat="43.42049" lon="6.66383">
        <ele>21.77</ele>
        <time>2012-10-12T08:00:08Z</time>
      </trkpt>
      <trkpt lat="43.42054" lon="6.66386">
        <ele>21.77</ele>
        <time>2012-10-12T08:00:09Z</time>
      </trkpt>
      <trkpt lat="43.42079" lon="6.66394">
        <ele>21.29</ele>
        <time>2012-10-12T08:00:14Z</time>
      </trkpt>
      <trkpt lat="43.4212" lon="6.66382">
        <ele>21.77</ele>
        <time>2012-10-12T08:00:23Z</time>
      </trkpt>
      <trkpt lat="43.42136" lon="6.66377">
        <ele>21.29</ele>
        <time>2012-10-12T08:00:27Z</time>
      </trkpt>
      <trkpt lat="43.42166" lon="6.66379">
        <ele>19.84</ele>
        <time>2012-10-12T08:00:33Z</time>
      </trkpt>
      <trkpt lat="43.42197" lon="6.66383">
        <ele>19.84</ele>
        <time>2012-10-12T08:00:39Z</time>
      </trkpt>
      <trkpt lat="43.42214" lon="6.66397">
        <ele>19.84</ele>
        <time>2012-10-12T08:00:43Z</time>
      </trkpt>
      <trkpt lat="43.42242" lon="6.6641">
        <ele>19.84</ele>
        <time>2012-10-12T08:00:49Z</time>
      </trkpt>
      <trkpt lat="43.4226" lon="6.66423">
        <ele>19.36</ele>
        <time>2012-10-12T08:00:53Z</time>
      </trkpt>
      <trkpt lat="43.42283" lon="6.66435">
        <ele>19.36</ele>
        <time>2012-10-12T08:00:59Z</time>
      </trkpt>
      <trkpt lat="43.42287" lon="6.66446">
        <ele>17.92</ele>
        <time>2012-10-12T08:01:01Z</time>
      </trkpt>
      <trkpt lat="43.42314" lon="6.66476">
        <ele>19.36</ele>
        <time>2012-10-12T08:01:09Z</time>
      </trkpt>
      <trkpt lat="43.42321" lon="6.66485">
        <ele>18.88</ele>
        <time>2012-10-12T08:01:11Z</time>
      </trkpt>
      <trkpt lat="43.42338" lon="6.66505">
        <ele>18.4</ele>
        <time>2012-10-12T08:01:15Z</time>
      </trkpt>
      <trkpt lat="43.42359" lon="6.66519">
        <ele>17.92</ele>
        <time>2012-10-12T08:01:19Z</time>
      </trkpt>
      <trkpt lat="43.42434" lon="6.6653">
        <ele>16.96</ele>
        <time>2012-10-12T08:01:31Z</time>
      </trkpt>
      <trkpt lat="43.42441" lon="6.66529">
        <ele>16.48</ele>
        <time>2012-10-12T08:01:32Z</time>
      </trkpt>
      <trkpt lat="43.42513" lon="6.66495">
        <ele>15.52</ele>
        <time>2012-10-12T08:01:44Z</time>
      </trkpt>
      <trkpt lat="43.42546" lon="6.6648">
        <ele>16.48</ele>
        <time>2012-10-12T08:01:50Z</time>
      </trkpt>
      <trkpt lat="43.42591" lon="6.66466">
        <ele>15.52</ele>
        <time>2012-10-12T08:01:58Z</time>
      </trkpt>
      <trkpt lat="43.426" lon="6.66433">
        <ele>16</ele>
        <time>2012-10-12T08:02:03Z</time>
      </trkpt>
      <trkpt lat="43.42593" lon="6.6641">
        <ele>16.48</ele>
        <time>2012-10-12T08:02:06Z</time>
      </trkpt>
      <trkpt lat="43.42588" lon="6.66395">
        <ele>16.48</ele>
        <time>2012-10-12T08:02:08Z</time>
      </trkpt>
      <trkpt lat="43.4258" lon="6.66352">
        <ele>15.52</ele>
        <time>2012-10-12T08:02:15Z</time>
      </trkpt>
      <trkpt lat="43.42588" lon="6.66338">
        <ele>16.48</ele>
        <time>2012-10-12T08:02:18Z</time>
      </trkpt>
      <trkpt lat="43.42595" lon="6.66329">
        <ele>16.48</ele>
        <time>2012-10-12T08:02:20Z</time>
      </trkpt>
      <trkpt lat="43.42606" lon="6.6631">
        <ele>16.96</ele>
        <time>2012-10-12T08:02:24Z</time>
      </trkpt>
      <trkpt lat="43.42639" lon="6.66259">
        <ele>16.96</ele>
        <time>2012-10-12T08:02:33Z</time>
      </trkpt>
      <trkpt lat="43.42643" lon="6.66253">
        <ele>17.44</ele>
        <time>2012-10-12T08:02:34Z</time>
      </trkpt>
      <trkpt lat="43.42666" lon="6.66219">
        <ele>17.44</ele>
        <time>2012-10-12T08:02:40Z</time>
      </trkpt>
      <trkpt lat="43.4269" lon="6.6619">
        <ele>18.4</ele>
        <time>2012-10-12T08:02:46Z</time>
      </trkpt>
      <trkpt lat="43.42714" lon="6.6618">
        <ele>16.48</ele>
        <time>2012-10-12T08:02:51Z</time>
      </trkpt>
      <trkpt lat="43.42754" lon="6.66171">
        <ele>15.04</ele>
        <time>2012-10-12T08:02:57Z</time>
      </trkpt>
      <trkpt lat="43.42819" lon="6.66126">
        <ele>7.83</ele>
        <time>2012-10-12T08:03:08Z</time>
      </trkpt>
      <trkpt lat="43.42824" lon="6.66122">
        <ele>16</ele>
        <time>2012-10-12T08:03:09Z</time>
      </trkpt>
      <trkpt lat="43.42841" lon="6.66111">
        <ele>15.04</ele>
        <time>2012-10-12T08:03:12Z</time>
      </trkpt>
      <trkpt lat="43.42882" lon="6.66086">
        <ele>16</ele>
        <time>2012-10-12T08:03:20Z</time>
      </trkpt>
      <trkpt lat="43.42925" lon="6.66069">
        <ele>16.96</ele>
        <time>2012-10-12T08:03:28Z</time>
      </trkpt>
      <trkpt lat="43.42971" lon="6.66054">
        <ele>18.88</ele>
        <time>2012-10-12T08:03:37Z</time>
      </trkpt>
      <trkpt lat="43.42991" lon="6.66047">
        <ele>20.32</ele>
        <time>2012-10-12T08:03:41Z</time>
      </trkpt>
      <trkpt lat="43.43011" lon="6.66038">
        <ele>21.29</ele>
        <time>2012-10-12T08:03:46Z</time>
      </trkpt>
      <trkpt lat="43.43015" lon="6.66036">
        <ele>22.25</ele>
        <time>2012-10-12T08:03:47Z</time>
      </trkpt>
      <trkpt lat="43.43028" lon="6.66027">
        <ele>21.29</ele>
        <time>2012-10-12T08:03:50Z</time>
      </trkpt>
      <trkpt lat="43.43048" lon="6.66008">
        <ele>18.88</ele>
        <time>2012-10-12T08:03:54Z</time>
      </trkpt>
      <trkpt lat="43.43074" lon="6.65981">
        <ele>17.44</ele>
        <time>2012-10-12T08:03:59Z</time>
      </trkpt>
      <trkpt lat="43.43134" lon="6.65948">
        <ele>16.96</ele>
        <time>2012-10-12T08:04:09Z</time>
      </trkpt>
      <trkpt lat="43.4314" lon="6.65945">
        <ele>16.96</ele>
        <time>2012-10-12T08:04:10Z</time>
      </trkpt>
      <trkpt lat="43.43185" lon="6.65941">
        <ele>17.44</ele>
        <time>2012-10-12T08:04:18Z</time>
      </trkpt>
      <trkpt lat="43.43235" lon="6.65954">
        <ele>18.4</ele>
        <time>2012-10-12T08:04:27Z</time>
      </trkpt>
      <trkpt lat="43.4324" lon="6.65954">
        <ele>18.4</ele>
        <time>2012-10-12T08:04:28Z</time>
      </trkpt>
      <trkpt lat="43.43261" lon="6.65955">
        <ele>19.36</ele>
        <time>2012-10-12T08:04:32Z</time>
      </trkpt>
      <trkpt lat="43.43289" lon="6.65957">
        <ele>20.81</ele>
        <time>2012-10-12T08:04:38Z</time>
      </trkpt>
      <trkpt lat="43.43331" lon="6.65966">
        <ele>24.65</ele>
        <time>2012-10-12T08:04:49Z</time>
      </trkpt>
      <trkpt lat="43.43358" lon="6.65964">
        <ele>23.21</ele>
        <time>2012-10-12T08:04:57Z</time>
      </trkpt>
      <trkpt lat="43.43362" lon="6.65963">
        <ele>22.73</ele>
        <time>2012-10-12T08:04:58Z</time>
      </trkpt>
      <trkpt lat="43.43394" lon="6.6595">
        <ele>23.21</ele>
        <time>2012-10-12T08:05:04Z</time>
      </trkpt>
      <trkpt lat="43.43402" lon="6.65944">
        <ele>24.17</ele>
        <time>2012-10-12T08:05:06Z</time>
      </trkpt>
      <trkpt lat="43.43431" lon="6.65926">
        <ele>23.21</ele>
        <time>2012-10-12T08:05:13Z</time>
      </trkpt>
      <trkpt lat="43.43435" lon="6.65923">
        <ele>23.69</ele>
        <time>2012-10-12T08:05:14Z</time>
      </trkpt>
      <trkpt lat="43.43439" lon="6.65919">
        <ele>23.21</ele>
        <time>2012-10-12T08:05:15Z</time>
      </trkpt>
      <trkpt lat="43.43443" lon="6.65915">
        <ele>23.21</ele>
        <time>2012-10-12T08:05:16Z</time>
      </trkpt>
      <trkpt lat="43.43448" lon="6.6591">
        <ele>22.73</ele>
        <time>2012-10-12T08:05:17Z</time>
      </trkpt>
      <trkpt lat="43.43453" lon="6.65905">
        <ele>22.73</ele>
        <time>2012-10-12T08:05:18Z</time>
      </trkpt>
      <trkpt lat="43.43458" lon="6.659">
        <ele>22.25</ele>
        <time>2012-10-12T08:05:19Z</time>
      </trkpt>
      <trkpt lat="43.43463" lon="6.65896">
        <ele>21.77</ele>
        <time>2012-10-12T08:05:20Z</time>
      </trkpt>
      <trkpt lat="43.43491" lon="6.65863">
        <ele>23.69</ele>
        <time>2012-10-12T08:05:27Z</time>
      </trkpt>
      <trkpt lat="43.43495" lon="6.65859">
        <ele>23.69</ele>
        <time>2012-10-12T08:05:28Z</time>
      </trkpt>
      <trkpt lat="43.43505" lon="6.6585">
        <ele>22.73</ele>
        <time>2012-10-12T08:05:30Z</time>
      </trkpt>
      <trkpt lat="43.43522" lon="6.65837">
        <ele>19.84</ele>
        <time>2012-10-12T08:05:33Z</time>
      </trkpt>
      <trkpt lat="43.43527" lon="6.65832">
        <ele>19.36</ele>
        <time>2012-10-12T08:05:34Z</time>
      </trkpt>
      <trkpt lat="43.43555" lon="6.65807">
        <ele>15.52</ele>
        <time>2012-10-12T08:05:38Z</time>
      </trkpt>
      <trkpt lat="43.43574" lon="6.65784">
        <ele>14.56</ele>
        <time>2012-10-12T08:05:41Z</time>
      </trkpt>
      <trkpt lat="43.43599" lon="6.6575">
        <ele>17.92</ele>
        <time>2012-10-12T08:05:47Z</time>
      </trkpt>
      <trkpt lat="43.43622" lon="6.65718">
        <ele>18.4</ele>
        <time>2012-10-12T08:05:55Z</time>
      </trkpt>
      <trkpt lat="43.43628" lon="6.65705">
        <ele>17.44</ele>
        <time>2012-10-12T08:05:57Z</time>
      </trkpt>
      <trkpt lat="43.43636" lon="6.65681">
        <ele>16</ele>
        <time>2012-10-12T08:06:00Z</time>
      </trkpt>
      <trkpt lat="43.43677" lon="6.65572">
        <ele>14.56</ele>
        <time>2012-10-12T08:06:13Z</time>
      </trkpt>
      <trkpt lat="43.43681" lon="6.65564">
        <ele>14.08</ele>
        <time>2012-10-12T08:06:14Z</time>
      </trkpt>
      <trkpt lat="43.43685" lon="6.65558">
        <ele>14.56</ele>
        <time>2012-10-12T08:06:15Z</time>
      </trkpt>
      <trkpt lat="43.43694" lon="6.65544">
        <ele>15.52</ele>
        <time>2012-10-12T08:06:17Z</time>
      </trkpt>
      <trkpt lat="43.43702" lon="6.6553">
        <ele>14.56</ele>
        <time>2012-10-12T08:06:19Z</time>
      </trkpt>
      <trkpt lat="43.43705" lon="6.65523">
        <ele>14.08</ele>
        <time>2012-10-12T08:06:20Z</time>
      </trkpt>
      <trkpt lat="43.43707" lon="6.65515">
        <ele>13.12</ele>
        <time>2012-10-12T08:06:21Z</time>
      </trkpt>
      <trkpt lat="43.43709" lon="6.65508">
        <ele>13.12</ele>
        <time>2012-10-12T08:06:22Z</time>
      </trkpt>
      <trkpt lat="43.4371" lon="6.655">
        <ele>14.56</ele>
        <time>2012-10-12T08:06:23Z</time>
      </trkpt>
      <trkpt lat="43.43712" lon="6.65492">
        <ele>14.56</ele>
        <time>2012-10-12T08:06:24Z</time>
      </trkpt>
      <trkpt lat="43.43717" lon="6.65463">
        <ele>14.56</ele>
        <time>2012-10-12T08:06:28Z</time>
      </trkpt>
      <trkpt lat="43.43732" lon="6.65392">
        <ele>15.52</ele>
        <time>2012-10-12T08:06:39Z</time>
      </trkpt>
      <trkpt lat="43.43733" lon="6.65387">
        <ele>15.52</ele>
        <time>2012-10-12T08:06:40Z</time>
      </trkpt>
      <trkpt lat="43.43735" lon="6.65381">
        <ele>16</ele>
        <time>2012-10-12T08:06:41Z</time>
      </trkpt>
      <trkpt lat="43.43736" lon="6.65375">
        <ele>16</ele>
        <time>2012-10-12T08:06:42Z</time>
      </trkpt>
      <trkpt lat="43.43743" lon="6.65324">
        <ele>17.44</ele>
        <time>2012-10-12T08:06:50Z</time>
      </trkpt>
      <trkpt lat="43.43749" lon="6.65287">
        <ele>16.96</ele>
        <time>2012-10-12T08:06:56Z</time>
      </trkpt>
      <trkpt lat="43.43751" lon="6.65281">
        <ele>17.92</ele>
        <time>2012-10-12T08:06:57Z</time>
      </trkpt>
      <trkpt lat="43.43753" lon="6.65274">
        <ele>17.92</ele>
        <time>2012-10-12T08:06:58Z</time>
      </trkpt>
      <trkpt lat="43.43757" lon="6.65261">
        <ele>17.92</ele>
        <time>2012-10-12T08:07:00Z</time>
      </trkpt>
      <trkpt lat="43.4376" lon="6.65255">
        <ele>17.92</ele>
        <time>2012-10-12T08:07:01Z</time>
      </trkpt>
      <trkpt lat="43.43773" lon="6.65222">
        <ele>17.92</ele>
        <time>2012-10-12T08:07:07Z</time>
      </trkpt>
      <trkpt lat="43.43776" lon="6.65203">
        <ele>18.4</ele>
        <time>2012-10-12T08:07:10Z</time>
      </trkpt>
      <trkpt lat="43.43777" lon="6.65196">
        <ele>18.4</ele>
        <time>2012-10-12T08:07:11Z</time>
      </trkpt>
      <trkpt lat="43.43778" lon="6.65183">
        <ele>19.36</ele>
        <time>2012-10-12T08:07:13Z</time>
      </trkpt>
      <trkpt lat="43.43778" lon="6.65177">
        <ele>18.88</ele>
        <time>2012-10-12T08:07:14Z</time>
      </trkpt>
      <trkpt lat="43.43777" lon="6.65171">
        <ele>19.36</ele>
        <time>2012-10-12T08:07:15Z</time>
      </trkpt>
      <trkpt lat="43.43776" lon="6.65166">
        <ele>19.36</ele>
        <time>2012-10-12T08:07:16Z</time>
      </trkpt>
      <trkpt lat="43.43776" lon="6.65161">
        <ele>18.88</ele>
        <time>2012-10-12T08:07:17Z</time>
      </trkpt>
      <trkpt lat="43.43777" lon="6.65155">
        <ele>19.36</ele>
        <time>2012-10-12T08:07:18Z</time>
      </trkpt>
      <trkpt lat="43.43778" lon="6.6515">
        <ele>19.84</ele>
        <time>2012-10-12T08:07:19Z</time>
      </trkpt>
      <trkpt lat="43.43778" lon="6.65144">
        <ele>19.84</ele>
        <time>2012-10-12T08:07:20Z</time>
      </trkpt>
      <trkpt lat="43.43778" lon="6.65138">
        <ele>19.84</ele>
        <time>2012-10-12T08:07:21Z</time>
      </trkpt>
      <trkpt lat="43.43779" lon="6.65132">
        <ele>20.32</ele>
        <time>2012-10-12T08:07:22Z</time>
      </trkpt>
      <trkpt lat="43.43783" lon="6.65114">
        <ele>20.81</ele>
        <time>2012-10-12T08:07:25Z</time>
      </trkpt>
      <trkpt lat="43.43785" lon="6.65108">
        <ele>21.77</ele>
        <time>2012-10-12T08:07:26Z</time>
      </trkpt>
      <trkpt lat="43.43787" lon="6.65103">
        <ele>22.25</ele>
        <time>2012-10-12T08:07:27Z</time>
      </trkpt>
      <trkpt lat="43.43819" lon="6.65053">
        <ele>23.69</ele>
        <time>2012-10-12T08:07:38Z</time>
      </trkpt>
      <trkpt lat="43.43844" lon="6.65011">
        <ele>24.17</ele>
        <time>2012-10-12T08:07:48Z</time>
      </trkpt>
      <trkpt lat="43.43854" lon="6.64994">
        <ele>22.73</ele>
        <time>2012-10-12T08:07:52Z</time>
      </trkpt>
      <trkpt lat="43.43882" lon="6.64952">
        <ele>21.77</ele>
        <time>2012-10-12T08:08:00Z</time>
      </trkpt>
      <trkpt lat="43.43904" lon="6.64922">
        <ele>20.32</ele>
        <time>2012-10-12T08:08:05Z</time>
      </trkpt>
      <trkpt lat="43.43947" lon="6.6486">
        <ele>17.44</ele>
        <time>2012-10-12T08:08:14Z</time>
      </trkpt>
      <trkpt lat="43.43957" lon="6.64843">
        <ele>15.04</ele>
        <time>2012-10-12T08:08:16Z</time>
      </trkpt>
      <trkpt lat="43.43996" lon="6.64789">
        <ele>16.48</ele>
        <time>2012-10-12T08:08:24Z</time>
      </trkpt>
      <trkpt lat="43.44035" lon="6.64736">
        <ele>17.44</ele>
        <time>2012-10-12T08:08:33Z</time>
      </trkpt>
      <trkpt lat="43.44074" lon="6.64704">
        <ele>19.84</ele>
        <time>2012-10-12T08:08:43Z</time>
      </trkpt>
      <trkpt lat="43.44099" lon="6.64692">
        <ele>22.73</ele>
        <time>2012-10-12T08:08:52Z</time>
      </trkpt>
      <trkpt lat="43.44101" lon="6.64691">
        <ele>23.21</ele>
        <time>2012-10-12T08:08:53Z</time>
      </trkpt>
      <trkpt lat="43.44103" lon="6.64689">
        <ele>23.69</ele>
        <time>2012-10-12T08:08:54Z</time>
      </trkpt>
      <trkpt lat="43.44105" lon="6.64686">
        <ele>24.17</ele>
        <time>2012-10-12T08:08:55Z</time>
      </trkpt>
      <trkpt lat="43.44107" lon="6.64684">
        <ele>24.17</ele>
        <time>2012-10-12T08:08:56Z</time>
      </trkpt>
      <trkpt lat="43.44109" lon="6.64682">
        <ele>24.65</ele>
        <time>2012-10-12T08:08:57Z</time>
      </trkpt>
      <trkpt lat="43.44121" lon="6.64664">
        <ele>28.02</ele>
        <time>2012-10-12T08:09:05Z</time>
      </trkpt>
      <trkpt lat="43.44128" lon="6.64635">
        <ele>28.5</ele>
        <time>2012-10-12T08:09:13Z</time>
      </trkpt>
      <trkpt lat="43.44138" lon="6.64578">
        <ele>29.94</ele>
        <time>2012-10-12T08:09:25Z</time>
      </trkpt>
      <trkpt lat="43.4414" lon="6.64538">
        <ele>32.34</ele>
        <time>2012-10-12T08:09:36Z</time>
      </trkpt>
      <trkpt lat="43.44136" lon="6.64512">
        <ele>35.23</ele>
        <time>2012-10-12T08:09:44Z</time>
      </trkpt>
      <trkpt lat="43.44135" lon="6.64509">
        <ele>35.71</ele>
        <time>2012-10-12T08:09:45Z</time>
      </trkpt>
      <trkpt lat="43.44117" lon="6.64483">
        <ele>37.15</ele>
        <time>2012-10-12T08:09:55Z</time>
      </trkpt>
      <trkpt lat="43.44093" lon="6.64466">
        <ele>39.55</ele>
        <time>2012-10-12T08:10:05Z</time>
      </trkpt>
      <trkpt lat="43.44065" lon="6.64446">
        <ele>42.44</ele>
        <time>2012-10-12T08:10:18Z</time>
      </trkpt>
      <trkpt lat="43.44061" lon="6.64443">
        <ele>43.4</ele>
        <time>2012-10-12T08:10:20Z</time>
      </trkpt>
      <trkpt lat="43.4403" lon="6.6442">
        <ele>45.8</ele>
        <time>2012-10-12T08:10:34Z</time>
      </trkpt>
      <trkpt lat="43.44011" lon="6.64405">
        <ele>47.72</ele>
        <time>2012-10-12T08:10:43Z</time>
      </trkpt>
      <trkpt lat="43.44003" lon="6.64395">
        <ele>48.2</ele>
        <time>2012-10-12T08:10:47Z</time>
      </trkpt>
      <trkpt lat="43.44002" lon="6.64393">
        <ele>48.2</ele>
        <time>2012-10-12T08:10:48Z</time>
      </trkpt>
      <trkpt lat="43.44" lon="6.64391">
        <ele>48.68</ele>
        <time>2012-10-12T08:10:49Z</time>
      </trkpt>
      <trkpt lat="43.43978" lon="6.64359">
        <ele>49.65</ele>
        <time>2012-10-12T08:11:00Z</time>
      </trkpt>
      <trkpt lat="43.4397" lon="6.64347">
        <ele>51.09</ele>
        <time>2012-10-12T08:11:04Z</time>
      </trkpt>
      <trkpt lat="43.43959" lon="6.64328">
        <ele>51.57</ele>
        <time>2012-10-12T08:11:10Z</time>
      </trkpt>
      <trkpt lat="43.43957" lon="6.64325">
        <ele>51.57</ele>
        <time>2012-10-12T08:11:11Z</time>
      </trkpt>
      <trkpt lat="43.43943" lon="6.64307">
        <ele>50.61</ele>
        <time>2012-10-12T08:11:16Z</time>
      </trkpt>
      <trkpt lat="43.4394" lon="6.64303">
        <ele>50.13</ele>
        <time>2012-10-12T08:11:17Z</time>
      </trkpt>
      <trkpt lat="43.43936" lon="6.64298">
        <ele>50.13</ele>
        <time>2012-10-12T08:11:18Z</time>
      </trkpt>
      <trkpt lat="43.43919" lon="6.64279">
        <ele>48.68</ele>
        <time>2012-10-12T08:11:22Z</time>
      </trkpt>
      <trkpt lat="43.43916" lon="6.64273">
        <ele>48.68</ele>
        <time>2012-10-12T08:11:23Z</time>
      </trkpt>
      <trkpt lat="43.43912" lon="6.64268">
        <ele>48.68</ele>
        <time>2012-10-12T08:11:24Z</time>
      </trkpt>
      <trkpt lat="43.43908" lon="6.64262">
        <ele>48.68</ele>
        <time>2012-10-12T08:11:25Z</time>
      </trkpt>
      <trkpt lat="43.43905" lon="6.64256">
        <ele>48.2</ele>
        <time>2012-10-12T08:11:26Z</time>
      </trkpt>
      <trkpt lat="43.43878" lon="6.64211">
        <ele>45.32</ele>
        <time>2012-10-12T08:11:33Z</time>
      </trkpt>
      <trkpt lat="43.43869" lon="6.64197">
        <ele>44.36</ele>
        <time>2012-10-12T08:11:35Z</time>
      </trkpt>
      <trkpt lat="43.43823" lon="6.64116">
        <ele>43.88</ele>
        <time>2012-10-12T08:11:47Z</time>
      </trkpt>
      <trkpt lat="43.43813" lon="6.64097">
        <ele>45.8</ele>
        <time>2012-10-12T08:11:51Z</time>
      </trkpt>
      <trkpt lat="43.4381" lon="6.64064">
        <ele>48.68</ele>
        <time>2012-10-12T08:11:59Z</time>
      </trkpt>
      <trkpt lat="43.4384" lon="6.6401">
        <ele>46.76</ele>
        <time>2012-10-12T08:12:10Z</time>
      </trkpt>
      <trkpt lat="43.43854" lon="6.63986">
        <ele>44.84</ele>
        <time>2012-10-12T08:12:14Z</time>
      </trkpt>
      <trkpt lat="43.43858" lon="6.6398">
        <ele>45.32</ele>
        <time>2012-10-12T08:12:15Z</time>
      </trkpt>
      <trkpt lat="43.43873" lon="6.63953">
        <ele>41.47</ele>
        <time>2012-10-12T08:12:19Z</time>
      </trkpt>
      <trkpt lat="43.43885" lon="6.63932">
        <ele>42.92</ele>
        <time>2012-10-12T08:12:22Z</time>
      </trkpt>
      <trkpt lat="43.43905" lon="6.63898">
        <ele>39.07</ele>
        <time>2012-10-12T08:12:26Z</time>
      </trkpt>
      <trkpt lat="43.43924" lon="6.63869">
        <ele>34.26</ele>
        <time>2012-10-12T08:12:29Z</time>
      </trkpt>
      <trkpt lat="43.43931" lon="6.63859">
        <ele>33.3</ele>
        <time>2012-10-12T08:12:30Z</time>
      </trkpt>
      <trkpt lat="43.43948" lon="6.63842">
        <ele>30.9</ele>
        <time>2012-10-12T08:12:32Z</time>
      </trkpt>
      <trkpt lat="43.43959" lon="6.63835">
        <ele>29.94</ele>
        <time>2012-10-12T08:12:33Z</time>
      </trkpt>
      <trkpt lat="43.43969" lon="6.63829">
        <ele>29.46</ele>
        <time>2012-10-12T08:12:34Z</time>
      </trkpt>
      <trkpt lat="43.4398" lon="6.63825">
        <ele>28.5</ele>
        <time>2012-10-12T08:12:35Z</time>
      </trkpt>
      <trkpt lat="43.4399" lon="6.63821">
        <ele>29.94</ele>
        <time>2012-10-12T08:12:36Z</time>
      </trkpt>
      <trkpt lat="43.43998" lon="6.63815">
        <ele>31.38</ele>
        <time>2012-10-12T08:12:37Z</time>
      </trkpt>
      <trkpt lat="43.44005" lon="6.63807">
        <ele>32.82</ele>
        <time>2012-10-12T08:12:38Z</time>
      </trkpt>
      <trkpt lat="43.44011" lon="6.63799">
        <ele>33.78</ele>
        <time>2012-10-12T08:12:39Z</time>
      </trkpt>
      <trkpt lat="43.44017" lon="6.63791">
        <ele>33.78</ele>
        <time>2012-10-12T08:12:40Z</time>
      </trkpt>
      <trkpt lat="43.44022" lon="6.63785">
        <ele>34.74</ele>
        <time>2012-10-12T08:12:41Z</time>
      </trkpt>
      <trkpt lat="43.44028" lon="6.63779">
        <ele>34.74</ele>
        <time>2012-10-12T08:12:42Z</time>
      </trkpt>
      <trkpt lat="43.44034" lon="6.63775">
        <ele>34.74</ele>
        <time>2012-10-12T08:12:43Z</time>
      </trkpt>
      <trkpt lat="43.44066" lon="6.63752">
        <ele>31.86</ele>
        <time>2012-10-12T08:12:48Z</time>
      </trkpt>
      <trkpt lat="43.44085" lon="6.63743">
        <ele>27.53</ele>
        <time>2012-10-12T08:12:50Z</time>
      </trkpt>
      <trkpt lat="43.44095" lon="6.63741">
        <ele>26.57</ele>
        <time>2012-10-12T08:12:51Z</time>
      </trkpt>
      <trkpt lat="43.44137" lon="6.63732">
        <ele>31.38</ele>
        <time>2012-10-12T08:12:56Z</time>
      </trkpt>
      <trkpt lat="43.44141" lon="6.63729">
        <ele>31.86</ele>
        <time>2012-10-12T08:12:58Z</time>
      </trkpt>
      <trkpt lat="43.44141" lon="6.63724">
        <ele>33.3</ele>
        <time>2012-10-12T08:13:06Z</time>
      </trkpt>
      <trkpt lat="43.44144" lon="6.63722">
        <ele>35.23</ele>
        <time>2012-10-12T08:13:13Z</time>
      </trkpt>
      <trkpt lat="43.44148" lon="6.63719">
        <ele>36.67</ele>
        <time>2012-10-12T08:13:18Z</time>
      </trkpt>
      <trkpt lat="43.44162" lon="6.63708">
        <ele>38.59</ele>
        <time>2012-10-12T08:13:31Z</time>
      </trkpt>
      <trkpt lat="43.44159" lon="6.63706">
        <ele>39.07</ele>
        <time>2012-10-12T08:13:33Z</time>
      </trkpt>
      <trkpt lat="43.44158" lon="6.63705">
        <ele>39.07</ele>
        <time>2012-10-12T08:13:34Z</time>
      </trkpt>
      <trkpt lat="43.44156" lon="6.63705">
        <ele>39.07</ele>
        <time>2012-10-12T08:13:35Z</time>
      </trkpt>
      <trkpt lat="43.44155" lon="6.63704">
        <ele>39.07</ele>
        <time>2012-10-12T08:13:36Z</time>
      </trkpt>
      <trkpt lat="43.44152" lon="6.63703">
        <ele>39.07</ele>
        <time>2012-10-12T08:13:37Z</time>
      </trkpt>
      <trkpt lat="43.4415" lon="6.63701">
        <ele>39.07</ele>
        <time>2012-10-12T08:13:38Z</time>
      </trkpt>
      <trkpt lat="43.44148" lon="6.637">
        <ele>38.59</ele>
        <time>2012-10-12T08:13:39Z</time>
      </trkpt>
      <trkpt lat="43.44146" lon="6.63698">
        <ele>39.07</ele>
        <time>2012-10-12T08:13:40Z</time>
      </trkpt>
      <trkpt lat="43.44145" lon="6.63696">
        <ele>39.07</ele>
        <time>2012-10-12T08:13:41Z</time>
      </trkpt>
      <trkpt lat="43.44143" lon="6.63693">
        <ele>39.07</ele>
        <time>2012-10-12T08:13:42Z</time>
      </trkpt>
      <trkpt lat="43.44141" lon="6.6369">
        <ele>39.07</ele>
        <time>2012-10-12T08:13:43Z</time>
      </trkpt>
      <trkpt lat="43.4414" lon="6.63687">
        <ele>38.59</ele>
        <time>2012-10-12T08:13:44Z</time>
      </trkpt>
      <trkpt lat="43.4413" lon="6.63645">
        <ele>40.51</ele>
        <time>2012-10-12T08:13:54Z</time>
      </trkpt>
      <trkpt lat="43.44129" lon="6.6363">
        <ele>41.47</ele>
        <time>2012-10-12T08:13:57Z</time>
      </trkpt>
      <trkpt lat="43.44127" lon="6.63627">
        <ele>40.99</ele>
        <time>2012-10-12T08:13:58Z</time>
      </trkpt>
      <trkpt lat="43.44126" lon="6.63622">
        <ele>41.47</ele>
        <time>2012-10-12T08:13:59Z</time>
      </trkpt>
      <trkpt lat="43.44125" lon="6.63617">
        <ele>40.99</ele>
        <time>2012-10-12T08:14:00Z</time>
      </trkpt>
      <trkpt lat="43.44123" lon="6.63612">
        <ele>40.99</ele>
        <time>2012-10-12T08:14:01Z</time>
      </trkpt>
      <trkpt lat="43.44121" lon="6.63608">
        <ele>40.99</ele>
        <time>2012-10-12T08:14:02Z</time>
      </trkpt>
      <trkpt lat="43.44119" lon="6.63604">
        <ele>40.99</ele>
        <time>2012-10-12T08:14:03Z</time>
      </trkpt>
      <trkpt lat="43.44117" lon="6.636">
        <ele>41.47</ele>
        <time>2012-10-12T08:14:04Z</time>
      </trkpt>
      <trkpt lat="43.44115" lon="6.63595">
        <ele>41.47</ele>
        <time>2012-10-12T08:14:05Z</time>
      </trkpt>
      <trkpt lat="43.44085" lon="6.63553">
        <ele>40.51</ele>
        <time>2012-10-12T08:14:14Z</time>
      </trkpt>
      <trkpt lat="43.44048" lon="6.63499">
        <ele>42.44</ele>
        <time>2012-10-12T08:14:26Z</time>
      </trkpt>
      <trkpt lat="43.44023" lon="6.63467">
        <ele>45.8</ele>
        <time>2012-10-12T08:14:36Z</time>
      </trkpt>
      <trkpt lat="43.44012" lon="6.63436">
        <ele>48.2</ele>
        <time>2012-10-12T08:14:44Z</time>
      </trkpt>
      <trkpt lat="43.44002" lon="6.63412">
        <ele>49.16</ele>
        <time>2012-10-12T08:14:51Z</time>
      </trkpt>
      <trkpt lat="43.44003" lon="6.63409">
        <ele>49.65</ele>
        <time>2012-10-12T08:14:52Z</time>
      </trkpt>
      <trkpt lat="43.44004" lon="6.63407">
        <ele>49.65</ele>
        <time>2012-10-12T08:14:53Z</time>
      </trkpt>
      <trkpt lat="43.44006" lon="6.63394">
        <ele>49.65</ele>
        <time>2012-10-12T08:14:59Z</time>
      </trkpt>
      <trkpt lat="43.44011" lon="6.63391">
        <ele>50.13</ele>
        <time>2012-10-12T08:15:06Z</time>
      </trkpt>
      <trkpt lat="43.44012" lon="6.63389">
        <ele>50.13</ele>
        <time>2012-10-12T08:15:18Z</time>
      </trkpt>
      <trkpt lat="43.44012" lon="6.63389">
        <ele>50.13</ele>
        <time>2012-10-12T08:15:45Z</time>
      </trkpt>
      <trkpt lat="43.44012" lon="6.6339">
        <ele>50.13</ele>
        <time>2012-10-12T08:16:09Z</time>
      </trkpt>
      <trkpt lat="43.44012" lon="6.63392">
        <ele>50.13</ele>
        <time>2012-10-12T08:16:33Z</time>
      </trkpt>
      <trkpt lat="43.44013" lon="6.6339">
        <ele>50.61</ele>
        <time>2012-10-12T08:17:01Z</time>
      </trkpt>
      <trkpt lat="43.44013" lon="6.6339">
        <ele>50.61</ele>
        <time>2012-10-12T08:17:23Z</time>
      </trkpt>
      <trkpt lat="43.44012" lon="6.63391">
        <ele>50.13</ele>
        <time>2012-10-12T08:17:49Z</time>
      </trkpt>
      <trkpt lat="43.44013" lon="6.63391">
        <ele>50.61</ele>
        <time>2012-10-12T08:18:13Z</time>
      </trkpt>
      <trkpt lat="43.44013" lon="6.63392">
        <ele>50.61</ele>
        <time>2012-10-12T08:18:37Z</time>
      </trkpt>
      <trkpt lat="43.44011" lon="6.63393">
        <ele>51.09</ele>
        <time>2012-10-12T08:19:00Z</time>
      </trkpt>
      <trkpt lat="43.44011" lon="6.63393">
        <ele>51.09</ele>
        <time>2012-10-12T08:19:03Z</time>
      </trkpt>
      <trkpt lat="43.44011" lon="6.63395">
        <ele>51.09</ele>
        <time>2012-10-12T08:19:04Z</time>
      </trkpt>
      <trkpt lat="43.4401" lon="6.63396">
        <ele>51.09</ele>
        <time>2012-10-12T08:19:05Z</time>
      </trkpt>
      <trkpt lat="43.4401" lon="6.63398">
        <ele>51.09</ele>
        <time>2012-10-12T08:19:06Z</time>
      </trkpt>
      <trkpt lat="43.44009" lon="6.63399">
        <ele>50.61</ele>
        <time>2012-10-12T08:19:07Z</time>
      </trkpt>
      <trkpt lat="43.44007" lon="6.63398">
        <ele>51.09</ele>
        <time>2012-10-12T08:19:08Z</time>
      </trkpt>
      <trkpt lat="43.44006" lon="6.63397">
        <ele>51.09</ele>
        <time>2012-10-12T08:19:09Z</time>
      </trkpt>
      <trkpt lat="43.44006" lon="6.63396">
        <ele>51.09</ele>
        <time>2012-10-12T08:19:10Z</time>
      </trkpt>
      <trkpt lat="43.44005" lon="6.63394">
        <ele>51.09</ele>
        <time>2012-10-12T08:19:11Z</time>
      </trkpt>
      <trkpt lat="43.44004" lon="6.63392">
        <ele>51.09</ele>
        <time>2012-10-12T08:19:12Z</time>
      </trkpt>
      <trkpt lat="43.43999" lon="6.63386">
        <ele>50.13</ele>
        <time>2012-10-12T08:19:16Z</time>
      </trkpt>
      <trkpt lat="43.43998" lon="6.63383">
        <ele>51.09</ele>
        <time>2012-10-12T08:19:17Z</time>
      </trkpt>
      <trkpt lat="43.43991" lon="6.63365">
        <ele>52.05</ele>
        <time>2012-10-12T08:19:24Z</time>
      </trkpt>
      <trkpt lat="43.43989" lon="6.63364">
        <ele>52.53</ele>
        <time>2012-10-12T08:19:25Z</time>
      </trkpt>
      <trkpt lat="43.43987" lon="6.63364">
        <ele>52.53</ele>
        <time>2012-10-12T08:19:26Z</time>
      </trkpt>
      <trkpt lat="43.43985" lon="6.63366">
        <ele>53.49</ele>
        <time>2012-10-12T08:19:27Z</time>
      </trkpt>
      <trkpt lat="43.43983" lon="6.63367">
        <ele>53.49</ele>
        <time>2012-10-12T08:19:28Z</time>
      </trkpt>
      <trkpt lat="43.43981" lon="6.63367">
        <ele>53.49</ele>
        <time>2012-10-12T08:19:29Z</time>
      </trkpt>
      <trkpt lat="43.43979" lon="6.63367">
        <ele>53.97</ele>
        <time>2012-10-12T08:19:30Z</time>
      </trkpt>
      <trkpt lat="43.43977" lon="6.63367">
        <ele>53.97</ele>
        <time>2012-10-12T08:19:31Z</time>
      </trkpt>
      <trkpt lat="43.43976" lon="6.63368">
        <ele>54.45</ele>
        <time>2012-10-12T08:19:32Z</time>
      </trkpt>
      <trkpt lat="43.43975" lon="6.63369">
        <ele>54.45</ele>
        <time>2012-10-12T08:19:33Z</time>
      </trkpt>
      <trkpt lat="43.43974" lon="6.63371">
        <ele>54.45</ele>
        <time>2012-10-12T08:19:34Z</time>
      </trkpt>
      <trkpt lat="43.43973" lon="6.63372">
        <ele>54.93</ele>
        <time>2012-10-12T08:19:35Z</time>
      </trkpt>
      <trkpt lat="43.43972" lon="6.63374">
        <ele>54.93</ele>
        <time>2012-10-12T08:19:36Z</time>
      </trkpt>
      <trkpt lat="43.43971" lon="6.63374">
        <ele>54.93</ele>
        <time>2012-10-12T08:19:37Z</time>
      </trkpt>
      <trkpt lat="43.4397" lon="6.63374">
        <ele>55.41</ele>
        <time>2012-10-12T08:19:38Z</time>
      </trkpt>
      <trkpt lat="43.43968" lon="6.63374">
        <ele>54.93</ele>
        <time>2012-10-12T08:19:39Z</time>
      </trkpt>
      <trkpt lat="43.43966" lon="6.63373">
        <ele>54.93</ele>
        <time>2012-10-12T08:19:40Z</time>
      </trkpt>
      <trkpt lat="43.43965" lon="6.63373">
        <ele>55.41</ele>
        <time>2012-10-12T08:19:41Z</time>
      </trkpt>
      <trkpt lat="43.43961" lon="6.63371">
        <ele>56.37</ele>
        <time>2012-10-12T08:19:45Z</time>
      </trkpt>
      <trkpt lat="43.4396" lon="6.63371">
        <ele>56.37</ele>
        <time>2012-10-12T08:19:46Z</time>
      </trkpt>
      <trkpt lat="43.43959" lon="6.6337">
        <ele>56.86</ele>
        <time>2012-10-12T08:19:47Z</time>
      </trkpt>
      <trkpt lat="43.43957" lon="6.63369">
        <ele>56.86</ele>
        <time>2012-10-12T08:19:48Z</time>
      </trkpt>
      <trkpt lat="43.43956" lon="6.63368">
        <ele>57.34</ele>
        <time>2012-10-12T08:19:49Z</time>
      </trkpt>
      <trkpt lat="43.43955" lon="6.63367">
        <ele>57.34</ele>
        <time>2012-10-12T08:19:50Z</time>
      </trkpt>
      <trkpt lat="43.43953" lon="6.63366">
        <ele>57.34</ele>
        <time>2012-10-12T08:19:51Z</time>
      </trkpt>
      <trkpt lat="43.43949" lon="6.63363">
        <ele>58.3</ele>
        <time>2012-10-12T08:19:57Z</time>
      </trkpt>
      <trkpt lat="43.43939" lon="6.63355">
        <ele>60.22</ele>
        <time>2012-10-12T08:20:06Z</time>
      </trkpt>
      <trkpt lat="43.43934" lon="6.63347">
        <ele>60.22</ele>
        <time>2012-10-12T08:20:12Z</time>
      </trkpt>
      <trkpt lat="43.43934" lon="6.63346">
        <ele>60.22</ele>
        <time>2012-10-12T08:20:13Z</time>
      </trkpt>
      <trkpt lat="43.43933" lon="6.63345">
        <ele>60.22</ele>
        <time>2012-10-12T08:20:14Z</time>
      </trkpt>
      <trkpt lat="43.43932" lon="6.63342">
        <ele>60.7</ele>
        <time>2012-10-12T08:20:15Z</time>
      </trkpt>
      <trkpt lat="43.43932" lon="6.63341">
        <ele>60.7</ele>
        <time>2012-10-12T08:20:16Z</time>
      </trkpt>
      <trkpt lat="43.43931" lon="6.63339">
        <ele>61.18</ele>
        <time>2012-10-12T08:20:17Z</time>
      </trkpt>
      <trkpt lat="43.4393" lon="6.63337">
        <ele>61.18</ele>
        <time>2012-10-12T08:20:19Z</time>
      </trkpt>
      <trkpt lat="43.43928" lon="6.63336">
        <ele>61.18</ele>
        <time>2012-10-12T08:20:20Z</time>
      </trkpt>
      <trkpt lat="43.43927" lon="6.63335">
        <ele>61.18</ele>
        <time>2012-10-12T08:20:21Z</time>
      </trkpt>
      <trkpt lat="43.43926" lon="6.63333">
        <ele>61.66</ele>
        <time>2012-10-12T08:20:22Z</time>
      </trkpt>
      <trkpt lat="43.43924" lon="6.63332">
        <ele>62.14</ele>
        <time>2012-10-12T08:20:23Z</time>
      </trkpt>
      <trkpt lat="43.43923" lon="6.63331">
        <ele>61.66</ele>
        <time>2012-10-12T08:20:24Z</time>
      </trkpt>
      <trkpt lat="43.43921" lon="6.6333">
        <ele>61.66</ele>
        <time>2012-10-12T08:20:25Z</time>
      </trkpt>
      <trkpt lat="43.43915" lon="6.63325">
        <ele>62.62</ele>
        <time>2012-10-12T08:20:32Z</time>
      </trkpt>
      <trkpt lat="43.43913" lon="6.63324">
        <ele>62.62</ele>
        <time>2012-10-12T08:20:34Z</time>
      </trkpt>
      <trkpt lat="43.43912" lon="6.63324">
        <ele>63.1</ele>
        <time>2012-10-12T08:20:35Z</time>
      </trkpt>
      <trkpt lat="43.43908" lon="6.63325">
        <ele>63.1</ele>
        <time>2012-10-12T08:20:39Z</time>
      </trkpt>
      <trkpt lat="43.43907" lon="6.63327">
        <ele>62.62</ele>
        <time>2012-10-12T08:20:40Z</time>
      </trkpt>
      <trkpt lat="43.43907" lon="6.63328">
        <ele>63.1</ele>
        <time>2012-10-12T08:20:41Z</time>
      </trkpt>
      <trkpt lat="43.43905" lon="6.6333">
        <ele>63.58</ele>
        <time>2012-10-12T08:20:43Z</time>
      </trkpt>
      <trkpt lat="43.43904" lon="6.6333">
        <ele>63.58</ele>
        <time>2012-10-12T08:20:44Z</time>
      </trkpt>
      <trkpt lat="43.43903" lon="6.6333">
        <ele>64.07</ele>
        <time>2012-10-12T08:20:45Z</time>
      </trkpt>
      <trkpt lat="43.43897" lon="6.63336">
        <ele>65.51</ele>
        <time>2012-10-12T08:20:52Z</time>
      </trkpt>
      <trkpt lat="43.43896" lon="6.63337">
        <ele>65.03</ele>
        <time>2012-10-12T08:20:54Z</time>
      </trkpt>
      <trkpt lat="43.43894" lon="6.63336">
        <ele>65.51</ele>
        <time>2012-10-12T08:20:55Z</time>
      </trkpt>
      <trkpt lat="43.43892" lon="6.63337">
        <ele>65.51</ele>
        <time>2012-10-12T08:20:58Z</time>
      </trkpt>
      <trkpt lat="43.4389" lon="6.63338">
        <ele>65.51</ele>
        <time>2012-10-12T08:21:00Z</time>
      </trkpt>
      <trkpt lat="43.43889" lon="6.63339">
        <ele>65.99</ele>
        <time>2012-10-12T08:21:01Z</time>
      </trkpt>
      <trkpt lat="43.43889" lon="6.63341">
        <ele>65.99</ele>
        <time>2012-10-12T08:21:02Z</time>
      </trkpt>
      <trkpt lat="43.43888" lon="6.63343">
        <ele>66.95</ele>
        <time>2012-10-12T08:21:03Z</time>
      </trkpt>
      <trkpt lat="43.43887" lon="6.63344">
        <ele>66.47</ele>
        <time>2012-10-12T08:21:04Z</time>
      </trkpt>
      <trkpt lat="43.43885" lon="6.63344">
        <ele>67.43</ele>
        <time>2012-10-12T08:21:07Z</time>
      </trkpt>
      <trkpt lat="43.43883" lon="6.63343">
        <ele>67.91</ele>
        <time>2012-10-12T08:21:08Z</time>
      </trkpt>
      <trkpt lat="43.43881" lon="6.63344">
        <ele>67.43</ele>
        <time>2012-10-12T08:21:11Z</time>
      </trkpt>
      <trkpt lat="43.43879" lon="6.63344">
        <ele>67.91</ele>
        <time>2012-10-12T08:21:12Z</time>
      </trkpt>
      <trkpt lat="43.43878" lon="6.63345">
        <ele>68.39</ele>
        <time>2012-10-12T08:21:13Z</time>
      </trkpt>
      <trkpt lat="43.43877" lon="6.63346">
        <ele>68.39</ele>
        <time>2012-10-12T08:21:14Z</time>
      </trkpt>
      <trkpt lat="43.43876" lon="6.63347">
        <ele>68.87</ele>
        <time>2012-10-12T08:21:15Z</time>
      </trkpt>
      <trkpt lat="43.43876" lon="6.63348">
        <ele>68.87</ele>
        <time>2012-10-12T08:21:16Z</time>
      </trkpt>
      <trkpt lat="43.43875" lon="6.63349">
        <ele>68.87</ele>
        <time>2012-10-12T08:21:17Z</time>
      </trkpt>
      <trkpt lat="43.43874" lon="6.6335">
        <ele>68.87</ele>
        <time>2012-10-12T08:21:18Z</time>
      </trkpt>
      <trkpt lat="43.43873" lon="6.6335">
        <ele>69.35</ele>
        <time>2012-10-12T08:21:19Z</time>
      </trkpt>
      <trkpt lat="43.43872" lon="6.63351">
        <ele>69.83</ele>
        <time>2012-10-12T08:21:20Z</time>
      </trkpt>
      <trkpt lat="43.43865" lon="6.63354">
        <ele>70.79</ele>
        <time>2012-10-12T08:21:28Z</time>
      </trkpt>
      <trkpt lat="43.43861" lon="6.63353">
        <ele>70.79</ele>
        <time>2012-10-12T08:21:34Z</time>
      </trkpt>
      <trkpt lat="43.43851" lon="6.63359">
        <ele>72.24</ele>
        <time>2012-10-12T08:21:42Z</time>
      </trkpt>
      <trkpt lat="43.43836" lon="6.6337">
        <ele>74.16</ele>
        <time>2012-10-12T08:21:51Z</time>
      </trkpt>
      <trkpt lat="43.43824" lon="6.63372">
        <ele>75.12</ele>
        <time>2012-10-12T08:21:58Z</time>
      </trkpt>
      <trkpt lat="43.43822" lon="6.63373">
        <ele>75.6</ele>
        <time>2012-10-12T08:21:59Z</time>
      </trkpt>
      <trkpt lat="43.43816" lon="6.63372">
        <ele>76.08</ele>
        <time>2012-10-12T08:22:03Z</time>
      </trkpt>
      <trkpt lat="43.43815" lon="6.6337">
        <ele>76.56</ele>
        <time>2012-10-12T08:22:04Z</time>
      </trkpt>
      <trkpt lat="43.43814" lon="6.63369">
        <ele>77.52</ele>
        <time>2012-10-12T08:22:05Z</time>
      </trkpt>
      <trkpt lat="43.43813" lon="6.63369">
        <ele>78</ele>
        <time>2012-10-12T08:22:06Z</time>
      </trkpt>
      <trkpt lat="43.43812" lon="6.6337">
        <ele>78</ele>
        <time>2012-10-12T08:22:07Z</time>
      </trkpt>
      <trkpt lat="43.43807" lon="6.63372">
        <ele>78.48</ele>
        <time>2012-10-12T08:22:15Z</time>
      </trkpt>
      <trkpt lat="43.43805" lon="6.63372">
        <ele>77.52</ele>
        <time>2012-10-12T08:22:16Z</time>
      </trkpt>
      <trkpt lat="43.43804" lon="6.63371">
        <ele>78</ele>
        <time>2012-10-12T08:22:17Z</time>
      </trkpt>
      <trkpt lat="43.43802" lon="6.63372">
        <ele>78</ele>
        <time>2012-10-12T08:22:18Z</time>
      </trkpt>
      <trkpt lat="43.43801" lon="6.63374">
        <ele>77.52</ele>
        <time>2012-10-12T08:22:19Z</time>
      </trkpt>
      <trkpt lat="43.438" lon="6.63377">
        <ele>77.52</ele>
        <time>2012-10-12T08:22:20Z</time>
      </trkpt>
      <trkpt lat="43.438" lon="6.6338">
        <ele>77.52</ele>
        <time>2012-10-12T08:22:21Z</time>
      </trkpt>
      <trkpt lat="43.43799" lon="6.63383">
        <ele>77.52</ele>
        <time>2012-10-12T08:22:22Z</time>
      </trkpt>
      <trkpt lat="43.43799" lon="6.63387">
        <ele>78</ele>
        <time>2012-10-12T08:22:23Z</time>
      </trkpt>
      <trkpt lat="43.43799" lon="6.63389">
        <ele>78.48</ele>
        <time>2012-10-12T08:22:24Z</time>
      </trkpt>
      <trkpt lat="43.43801" lon="6.63396">
        <ele>79.45</ele>
        <time>2012-10-12T08:22:27Z</time>
      </trkpt>
      <trkpt lat="43.43802" lon="6.63398">
        <ele>79.45</ele>
        <time>2012-10-12T08:22:28Z</time>
      </trkpt>
      <trkpt lat="43.43802" lon="6.634">
        <ele>79.45</ele>
        <time>2012-10-12T08:22:29Z</time>
      </trkpt>
      <trkpt lat="43.43803" lon="6.63401">
        <ele>79.93</ele>
        <time>2012-10-12T08:22:30Z</time>
      </trkpt>
      <trkpt lat="43.43803" lon="6.63403">
        <ele>79.93</ele>
        <time>2012-10-12T08:22:31Z</time>
      </trkpt>
      <trkpt lat="43.43804" lon="6.63405">
        <ele>79.93</ele>
        <time>2012-10-12T08:22:32Z</time>
      </trkpt>
      <trkpt lat="43.43804" lon="6.63407">
        <ele>79.93</ele>
        <time>2012-10-12T08:22:33Z</time>
      </trkpt>
      <trkpt lat="43.43803" lon="6.63414">
        <ele>80.41</ele>
        <time>2012-10-12T08:22:38Z</time>
      </trkpt>
      <trkpt lat="43.43802" lon="6.63416">
        <ele>80.41</ele>
        <time>2012-10-12T08:22:39Z</time>
      </trkpt>
      <trkpt lat="43.43802" lon="6.63419">
        <ele>79.93</ele>
        <time>2012-10-12T08:22:40Z</time>
      </trkpt>
      <trkpt lat="43.43802" lon="6.63422">
        <ele>80.41</ele>
        <time>2012-10-12T08:22:41Z</time>
      </trkpt>
      <trkpt lat="43.43802" lon="6.63426">
        <ele>79.93</ele>
        <time>2012-10-12T08:22:42Z</time>
      </trkpt>
      <trkpt lat="43.43801" lon="6.63431">
        <ele>79.93</ele>
        <time>2012-10-12T08:22:43Z</time>
      </trkpt>
      <trkpt lat="43.438" lon="6.63453">
        <ele>80.89</ele>
        <time>2012-10-12T08:22:48Z</time>
      </trkpt>
      <trkpt lat="43.438" lon="6.63457">
        <ele>81.37</ele>
        <time>2012-10-12T08:22:49Z</time>
      </trkpt>
      <trkpt lat="43.438" lon="6.63468">
        <ele>83.29</ele>
        <time>2012-10-12T08:22:55Z</time>
      </trkpt>
      <trkpt lat="43.43799" lon="6.63471">
        <ele>82.81</ele>
        <time>2012-10-12T08:22:56Z</time>
      </trkpt>
      <trkpt lat="43.43799" lon="6.63473">
        <ele>83.29</ele>
        <time>2012-10-12T08:22:57Z</time>
      </trkpt>
      <trkpt lat="43.43798" lon="6.63476">
        <ele>83.77</ele>
        <time>2012-10-12T08:22:58Z</time>
      </trkpt>
      <trkpt lat="43.43797" lon="6.63479">
        <ele>82.81</ele>
        <time>2012-10-12T08:22:59Z</time>
      </trkpt>
      <trkpt lat="43.43796" lon="6.63482">
        <ele>83.77</ele>
        <time>2012-10-12T08:23:00Z</time>
      </trkpt>
      <trkpt lat="43.43795" lon="6.63485">
        <ele>83.77</ele>
        <time>2012-10-12T08:23:01Z</time>
      </trkpt>
      <trkpt lat="43.43793" lon="6.63488">
        <ele>83.77</ele>
        <time>2012-10-12T08:23:02Z</time>
      </trkpt>
      <trkpt lat="43.43791" lon="6.63491">
        <ele>83.77</ele>
        <time>2012-10-12T08:23:03Z</time>
      </trkpt>
      <trkpt lat="43.43789" lon="6.63494">
        <ele>83.77</ele>
        <time>2012-10-12T08:23:04Z</time>
      </trkpt>
      <trkpt lat="43.43787" lon="6.63497">
        <ele>84.25</ele>
        <time>2012-10-12T08:23:05Z</time>
      </trkpt>
      <trkpt lat="43.43786" lon="6.635">
        <ele>84.25</ele>
        <time>2012-10-12T08:23:06Z</time>
      </trkpt>
      <trkpt lat="43.43784" lon="6.63503">
        <ele>84.73</ele>
        <time>2012-10-12T08:23:07Z</time>
      </trkpt>
      <trkpt lat="43.43783" lon="6.63506">
        <ele>84.73</ele>
        <time>2012-10-12T08:23:08Z</time>
      </trkpt>
      <trkpt lat="43.43781" lon="6.63509">
        <ele>85.21</ele>
        <time>2012-10-12T08:23:09Z</time>
      </trkpt>
      <trkpt lat="43.4378" lon="6.63512">
        <ele>85.21</ele>
        <time>2012-10-12T08:23:10Z</time>
      </trkpt>
      <trkpt lat="43.43777" lon="6.63514">
        <ele>85.21</ele>
        <time>2012-10-12T08:23:11Z</time>
      </trkpt>
      <trkpt lat="43.43775" lon="6.63517">
        <ele>85.21</ele>
        <time>2012-10-12T08:23:12Z</time>
      </trkpt>
      <trkpt lat="43.43773" lon="6.6352">
        <ele>85.21</ele>
        <time>2012-10-12T08:23:13Z</time>
      </trkpt>
      <trkpt lat="43.43755" lon="6.63536">
        <ele>87.62</ele>
        <time>2012-10-12T08:23:22Z</time>
      </trkpt>
      <trkpt lat="43.43744" lon="6.63535">
        <ele>86.66</ele>
        <time>2012-10-12T08:23:25Z</time>
      </trkpt>
      <trkpt lat="43.4374" lon="6.63538">
        <ele>85.21</ele>
        <time>2012-10-12T08:23:26Z</time>
      </trkpt>
      <trkpt lat="43.43737" lon="6.63542">
        <ele>85.69</ele>
        <time>2012-10-12T08:23:27Z</time>
      </trkpt>
      <trkpt lat="43.43734" lon="6.63546">
        <ele>86.18</ele>
        <time>2012-10-12T08:23:28Z</time>
      </trkpt>
      <trkpt lat="43.43734" lon="6.6355">
        <ele>86.18</ele>
        <time>2012-10-12T08:23:29Z</time>
      </trkpt>
      <trkpt lat="43.43733" lon="6.63555">
        <ele>87.14</ele>
        <time>2012-10-12T08:23:30Z</time>
      </trkpt>
      <trkpt lat="43.43733" lon="6.63559">
        <ele>87.14</ele>
        <time>2012-10-12T08:23:31Z</time>
      </trkpt>
      <trkpt lat="43.43726" lon="6.63583">
        <ele>87.62</ele>
        <time>2012-10-12T08:23:38Z</time>
      </trkpt>
      <trkpt lat="43.43724" lon="6.63587">
        <ele>87.62</ele>
        <time>2012-10-12T08:23:39Z</time>
      </trkpt>
      <trkpt lat="43.43721" lon="6.6359">
        <ele>87.62</ele>
        <time>2012-10-12T08:23:40Z</time>
      </trkpt>
      <trkpt lat="43.4372" lon="6.63594">
        <ele>88.1</ele>
        <time>2012-10-12T08:23:41Z</time>
      </trkpt>
      <trkpt lat="43.43719" lon="6.63598">
        <ele>87.62</ele>
        <time>2012-10-12T08:23:42Z</time>
      </trkpt>
      <trkpt lat="43.43716" lon="6.63601">
        <ele>88.1</ele>
        <time>2012-10-12T08:23:43Z</time>
      </trkpt>
      <trkpt lat="43.43714" lon="6.63604">
        <ele>87.14</ele>
        <time>2012-10-12T08:23:44Z</time>
      </trkpt>
      <trkpt lat="43.43711" lon="6.63609">
        <ele>87.14</ele>
        <time>2012-10-12T08:23:45Z</time>
      </trkpt>
      <trkpt lat="43.43708" lon="6.63613">
        <ele>86.66</ele>
        <time>2012-10-12T08:23:46Z</time>
      </trkpt>
      <trkpt lat="43.43701" lon="6.63622">
        <ele>87.14</ele>
        <time>2012-10-12T08:23:48Z</time>
      </trkpt>
      <trkpt lat="43.43698" lon="6.63626">
        <ele>87.62</ele>
        <time>2012-10-12T08:23:49Z</time>
      </trkpt>
      <trkpt lat="43.43693" lon="6.63633">
        <ele>87.14</ele>
        <time>2012-10-12T08:23:51Z</time>
      </trkpt>
      <trkpt lat="43.43691" lon="6.63637">
        <ele>87.62</ele>
        <time>2012-10-12T08:23:52Z</time>
      </trkpt>
      <trkpt lat="43.43689" lon="6.63639">
        <ele>88.1</ele>
        <time>2012-10-12T08:23:53Z</time>
      </trkpt>
      <trkpt lat="43.43684" lon="6.63642">
        <ele>88.58</ele>
        <time>2012-10-12T08:23:58Z</time>
      </trkpt>
      <trkpt lat="43.43682" lon="6.63643">
        <ele>88.1</ele>
        <time>2012-10-12T08:23:59Z</time>
      </trkpt>
      <trkpt lat="43.4368" lon="6.63643">
        <ele>89.06</ele>
        <time>2012-10-12T08:24:00Z</time>
      </trkpt>
      <trkpt lat="43.43674" lon="6.63644">
        <ele>88.58</ele>
        <time>2012-10-12T08:24:07Z</time>
      </trkpt>
      <trkpt lat="43.43672" lon="6.63646">
        <ele>88.58</ele>
        <time>2012-10-12T08:24:08Z</time>
      </trkpt>
      <trkpt lat="43.43669" lon="6.63647">
        <ele>88.58</ele>
        <time>2012-10-12T08:24:09Z</time>
      </trkpt>
      <trkpt lat="43.43667" lon="6.63648">
        <ele>88.58</ele>
        <time>2012-10-12T08:24:10Z</time>
      </trkpt>
      <trkpt lat="43.43664" lon="6.63648">
        <ele>88.58</ele>
        <time>2012-10-12T08:24:11Z</time>
      </trkpt>
      <trkpt lat="43.43661" lon="6.63647">
        <ele>88.1</ele>
        <time>2012-10-12T08:24:12Z</time>
      </trkpt>
      <trkpt lat="43.43658" lon="6.63646">
        <ele>88.1</ele>
        <time>2012-10-12T08:24:13Z</time>
      </trkpt>
      <trkpt lat="43.43655" lon="6.63645">
        <ele>88.58</ele>
        <time>2012-10-12T08:24:14Z</time>
      </trkpt>
      <trkpt lat="43.43653" lon="6.63644">
        <ele>88.58</ele>
        <time>2012-10-12T08:24:15Z</time>
      </trkpt>
      <trkpt lat="43.4365" lon="6.63643">
        <ele>89.06</ele>
        <time>2012-10-12T08:24:16Z</time>
      </trkpt>
      <trkpt lat="43.43628" lon="6.63628">
        <ele>89.54</ele>
        <time>2012-10-12T08:24:24Z</time>
      </trkpt>
      <trkpt lat="43.43619" lon="6.63622">
        <ele>89.06</ele>
        <time>2012-10-12T08:24:27Z</time>
      </trkpt>
      <trkpt lat="43.43616" lon="6.63623">
        <ele>88.58</ele>
        <time>2012-10-12T08:24:28Z</time>
      </trkpt>
      <trkpt lat="43.43613" lon="6.63626">
        <ele>89.06</ele>
        <time>2012-10-12T08:24:29Z</time>
      </trkpt>
      <trkpt lat="43.43611" lon="6.63628">
        <ele>89.54</ele>
        <time>2012-10-12T08:24:30Z</time>
      </trkpt>
      <trkpt lat="43.43608" lon="6.6363">
        <ele>89.54</ele>
        <time>2012-10-12T08:24:31Z</time>
      </trkpt>
      <trkpt lat="43.43592" lon="6.63645">
        <ele>90.98</ele>
        <time>2012-10-12T08:24:38Z</time>
      </trkpt>
      <trkpt lat="43.43589" lon="6.63645">
        <ele>90.98</ele>
        <time>2012-10-12T08:24:39Z</time>
      </trkpt>
      <trkpt lat="43.43586" lon="6.63643">
        <ele>91.46</ele>
        <time>2012-10-12T08:24:40Z</time>
      </trkpt>
      <trkpt lat="43.43584" lon="6.6364">
        <ele>90.98</ele>
        <time>2012-10-12T08:24:41Z</time>
      </trkpt>
      <trkpt lat="43.43582" lon="6.63637">
        <ele>90.5</ele>
        <time>2012-10-12T08:24:42Z</time>
      </trkpt>
      <trkpt lat="43.4358" lon="6.63632">
        <ele>90.98</ele>
        <time>2012-10-12T08:24:43Z</time>
      </trkpt>
      <trkpt lat="43.43578" lon="6.63627">
        <ele>90.5</ele>
        <time>2012-10-12T08:24:44Z</time>
      </trkpt>
      <trkpt lat="43.43576" lon="6.63623">
        <ele>90.5</ele>
        <time>2012-10-12T08:24:45Z</time>
      </trkpt>
      <trkpt lat="43.43573" lon="6.6362">
        <ele>90.5</ele>
        <time>2012-10-12T08:24:46Z</time>
      </trkpt>
      <trkpt lat="43.4357" lon="6.6362">
        <ele>90.98</ele>
        <time>2012-10-12T08:24:47Z</time>
      </trkpt>
      <trkpt lat="43.43566" lon="6.6362">
        <ele>91.46</ele>
        <time>2012-10-12T08:24:48Z</time>
      </trkpt>
      <trkpt lat="43.43563" lon="6.6362">
        <ele>91.94</ele>
        <time>2012-10-12T08:24:49Z</time>
      </trkpt>
      <trkpt lat="43.4356" lon="6.6362">
        <ele>91.94</ele>
        <time>2012-10-12T08:24:50Z</time>
      </trkpt>
      <trkpt lat="43.43558" lon="6.63618">
        <ele>91.94</ele>
        <time>2012-10-12T08:24:51Z</time>
      </trkpt>
      <trkpt lat="43.43555" lon="6.63616">
        <ele>91.94</ele>
        <time>2012-10-12T08:24:52Z</time>
      </trkpt>
      <trkpt lat="43.43553" lon="6.63613">
        <ele>92.42</ele>
        <time>2012-10-12T08:24:53Z</time>
      </trkpt>
      <trkpt lat="43.43552" lon="6.6361">
        <ele>92.42</ele>
        <time>2012-10-12T08:24:54Z</time>
      </trkpt>
      <trkpt lat="43.43544" lon="6.63598">
        <ele>91.94</ele>
        <time>2012-10-12T08:24:57Z</time>
      </trkpt>
      <trkpt lat="43.43534" lon="6.63581">
        <ele>92.42</ele>
        <time>2012-10-12T08:25:01Z</time>
      </trkpt>
      <trkpt lat="43.43525" lon="6.63567">
        <ele>91.94</ele>
        <time>2012-10-12T08:25:04Z</time>
      </trkpt>
      <trkpt lat="43.43524" lon="6.63561">
        <ele>91.94</ele>
        <time>2012-10-12T08:25:05Z</time>
      </trkpt>
      <trkpt lat="43.43522" lon="6.63555">
        <ele>91.46</ele>
        <time>2012-10-12T08:25:06Z</time>
      </trkpt>
      <trkpt lat="43.43522" lon="6.63549">
        <ele>91.94</ele>
        <time>2012-10-12T08:25:07Z</time>
      </trkpt>
      <trkpt lat="43.43523" lon="6.63543">
        <ele>91.94</ele>
        <time>2012-10-12T08:25:08Z</time>
      </trkpt>
      <trkpt lat="43.43523" lon="6.63537">
        <ele>91.94</ele>
        <time>2012-10-12T08:25:09Z</time>
      </trkpt>
      <trkpt lat="43.43521" lon="6.63532">
        <ele>91.94</ele>
        <time>2012-10-12T08:25:10Z</time>
      </trkpt>
      <trkpt lat="43.43517" lon="6.63529">
        <ele>91.94</ele>
        <time>2012-10-12T08:25:11Z</time>
      </trkpt>
      <trkpt lat="43.43514" lon="6.63527">
        <ele>91.94</ele>
        <time>2012-10-12T08:25:12Z</time>
      </trkpt>
      <trkpt lat="43.4351" lon="6.63527">
        <ele>92.42</ele>
        <time>2012-10-12T08:25:13Z</time>
      </trkpt>
      <trkpt lat="43.43498" lon="6.63522">
        <ele>93.39</ele>
        <time>2012-10-12T08:25:17Z</time>
      </trkpt>
      <trkpt lat="43.43496" lon="6.63519">
        <ele>93.39</ele>
        <time>2012-10-12T08:25:18Z</time>
      </trkpt>
      <trkpt lat="43.43495" lon="6.63515">
        <ele>92.9</ele>
        <time>2012-10-12T08:25:19Z</time>
      </trkpt>
      <trkpt lat="43.4348" lon="6.63494">
        <ele>92.9</ele>
        <time>2012-10-12T08:25:25Z</time>
      </trkpt>
      <trkpt lat="43.43478" lon="6.63493">
        <ele>92.9</ele>
        <time>2012-10-12T08:25:26Z</time>
      </trkpt>
      <trkpt lat="43.43475" lon="6.63492">
        <ele>93.39</ele>
        <time>2012-10-12T08:25:27Z</time>
      </trkpt>
      <trkpt lat="43.43473" lon="6.63489">
        <ele>93.39</ele>
        <time>2012-10-12T08:25:28Z</time>
      </trkpt>
      <trkpt lat="43.43472" lon="6.63486">
        <ele>93.39</ele>
        <time>2012-10-12T08:25:29Z</time>
      </trkpt>
      <trkpt lat="43.4347" lon="6.63482">
        <ele>93.39</ele>
        <time>2012-10-12T08:25:30Z</time>
      </trkpt>
      <trkpt lat="43.43458" lon="6.63459">
        <ele>91.94</ele>
        <time>2012-10-12T08:25:36Z</time>
      </trkpt>
      <trkpt lat="43.43441" lon="6.63438">
        <ele>90.02</ele>
        <time>2012-10-12T08:25:42Z</time>
      </trkpt>
      <trkpt lat="43.43438" lon="6.63433">
        <ele>90.02</ele>
        <time>2012-10-12T08:25:43Z</time>
      </trkpt>
      <trkpt lat="43.43436" lon="6.63428">
        <ele>89.54</ele>
        <time>2012-10-12T08:25:44Z</time>
      </trkpt>
      <trkpt lat="43.43423" lon="6.63389">
        <ele>91.94</ele>
        <time>2012-10-12T08:25:52Z</time>
      </trkpt>
      <trkpt lat="43.43422" lon="6.63387">
        <ele>91.94</ele>
        <time>2012-10-12T08:25:53Z</time>
      </trkpt>
      <trkpt lat="43.43417" lon="6.63374">
        <ele>93.39</ele>
        <time>2012-10-12T08:25:58Z</time>
      </trkpt>
      <trkpt lat="43.43416" lon="6.63372">
        <ele>94.83</ele>
        <time>2012-10-12T08:25:59Z</time>
      </trkpt>
      <trkpt lat="43.43416" lon="6.63369">
        <ele>95.31</ele>
        <time>2012-10-12T08:26:00Z</time>
      </trkpt>
      <trkpt lat="43.43415" lon="6.63367">
        <ele>95.31</ele>
        <time>2012-10-12T08:26:01Z</time>
      </trkpt>
      <trkpt lat="43.43415" lon="6.63365">
        <ele>95.31</ele>
        <time>2012-10-12T08:26:02Z</time>
      </trkpt>
      <trkpt lat="43.43414" lon="6.63362">
        <ele>95.79</ele>
        <time>2012-10-12T08:26:03Z</time>
      </trkpt>
      <trkpt lat="43.43414" lon="6.63344">
        <ele>97.23</ele>
        <time>2012-10-12T08:26:10Z</time>
      </trkpt>
      <trkpt lat="43.43416" lon="6.63337">
        <ele>97.71</ele>
        <time>2012-10-12T08:26:13Z</time>
      </trkpt>
      <trkpt lat="43.43415" lon="6.63325">
        <ele>98.67</ele>
        <time>2012-10-12T08:26:18Z</time>
      </trkpt>
      <trkpt lat="43.43415" lon="6.63312">
        <ele>99.63</ele>
        <time>2012-10-12T08:26:22Z</time>
      </trkpt>
      <trkpt lat="43.43425" lon="6.63281">
        <ele>102.52</ele>
        <time>2012-10-12T08:26:33Z</time>
      </trkpt>
      <trkpt lat="43.43426" lon="6.63278">
        <ele>102.52</ele>
        <time>2012-10-12T08:26:34Z</time>
      </trkpt>
      <trkpt lat="43.43426" lon="6.63276">
        <ele>103</ele>
        <time>2012-10-12T08:26:35Z</time>
      </trkpt>
      <trkpt lat="43.43427" lon="6.6327">
        <ele>103.48</ele>
        <time>2012-10-12T08:26:40Z</time>
      </trkpt>
      <trkpt lat="43.43433" lon="6.63258">
        <ele>104.92</ele>
        <time>2012-10-12T08:26:48Z</time>
      </trkpt>
      <trkpt lat="43.43435" lon="6.6325">
        <ele>106.36</ele>
        <time>2012-10-12T08:26:56Z</time>
      </trkpt>
      <trkpt lat="43.43438" lon="6.63248">
        <ele>106.84</ele>
        <time>2012-10-12T08:27:04Z</time>
      </trkpt>
      <trkpt lat="43.43439" lon="6.63243">
        <ele>108.77</ele>
        <time>2012-10-12T08:27:08Z</time>
      </trkpt>
      <trkpt lat="43.43442" lon="6.6324">
        <ele>109.73</ele>
        <time>2012-10-12T08:27:11Z</time>
      </trkpt>
      <trkpt lat="43.43447" lon="6.63234">
        <ele>109.73</ele>
        <time>2012-10-12T08:27:17Z</time>
      </trkpt>
      <trkpt lat="43.43454" lon="6.6322">
        <ele>111.17</ele>
        <time>2012-10-12T08:27:27Z</time>
      </trkpt>
      <trkpt lat="43.43461" lon="6.63209">
        <ele>113.09</ele>
        <time>2012-10-12T08:27:38Z</time>
      </trkpt>
      <trkpt lat="43.43462" lon="6.63206">
        <ele>113.09</ele>
        <time>2012-10-12T08:27:41Z</time>
      </trkpt>
      <trkpt lat="43.43469" lon="6.63187">
        <ele>113.57</ele>
        <time>2012-10-12T08:27:49Z</time>
      </trkpt>
      <trkpt lat="43.43474" lon="6.63161">
        <ele>113.09</ele>
        <time>2012-10-12T08:27:55Z</time>
      </trkpt>
      <trkpt lat="43.43475" lon="6.63149">
        <ele>112.61</ele>
        <time>2012-10-12T08:27:57Z</time>
      </trkpt>
      <trkpt lat="43.43478" lon="6.63098">
        <ele>111.65</ele>
        <time>2012-10-12T08:28:05Z</time>
      </trkpt>
      <trkpt lat="43.43493" lon="6.63075">
        <ele>111.17</ele>
        <time>2012-10-12T08:28:11Z</time>
      </trkpt>
      <trkpt lat="43.43499" lon="6.63074">
        <ele>112.61</ele>
        <time>2012-10-12T08:28:13Z</time>
      </trkpt>
      <trkpt lat="43.43505" lon="6.63052">
        <ele>111.65</ele>
        <time>2012-10-12T08:28:19Z</time>
      </trkpt>
      <trkpt lat="43.4351" lon="6.6303">
        <ele>109.25</ele>
        <time>2012-10-12T08:28:23Z</time>
      </trkpt>
      <trkpt lat="43.43521" lon="6.63009">
        <ele>106.36</ele>
        <time>2012-10-12T08:28:28Z</time>
      </trkpt>
      <trkpt lat="43.43532" lon="6.63002">
        <ele>108.29</ele>
        <time>2012-10-12T08:28:33Z</time>
      </trkpt>
      <trkpt lat="43.43549" lon="6.62998">
        <ele>107.32</ele>
        <time>2012-10-12T08:28:39Z</time>
      </trkpt>
      <trkpt lat="43.43557" lon="6.62999">
        <ele>108.29</ele>
        <time>2012-10-12T08:28:44Z</time>
      </trkpt>
      <trkpt lat="43.43575" lon="6.63001">
        <ele>104.92</ele>
        <time>2012-10-12T08:28:52Z</time>
      </trkpt>
      <trkpt lat="43.4358" lon="6.63">
        <ele>104.44</ele>
        <time>2012-10-12T08:29:00Z</time>
      </trkpt>
      <trkpt lat="43.4358" lon="6.62999">
        <ele>104.44</ele>
        <time>2012-10-12T08:29:07Z</time>
      </trkpt>
      <trkpt lat="43.43588" lon="6.63001">
        <ele>102.04</ele>
        <time>2012-10-12T08:29:12Z</time>
      </trkpt>
      <trkpt lat="43.43595" lon="6.63005">
        <ele>102.04</ele>
        <time>2012-10-12T08:29:15Z</time>
      </trkpt>
      <trkpt lat="43.43599" lon="6.63007">
        <ele>103.48</ele>
        <time>2012-10-12T08:29:18Z</time>
      </trkpt>
      <trkpt lat="43.43603" lon="6.63008">
        <ele>104.92</ele>
        <time>2012-10-12T08:29:22Z</time>
      </trkpt>
      <trkpt lat="43.43607" lon="6.63003">
        <ele>104.44</ele>
        <time>2012-10-12T08:29:27Z</time>
      </trkpt>
      <trkpt lat="43.43612" lon="6.63">
        <ele>103.96</ele>
        <time>2012-10-12T08:29:30Z</time>
      </trkpt>
      <trkpt lat="43.43618" lon="6.62997">
        <ele>104.44</ele>
        <time>2012-10-12T08:29:33Z</time>
      </trkpt>
      <trkpt lat="43.43622" lon="6.62997">
        <ele>105.4</ele>
        <time>2012-10-12T08:29:35Z</time>
      </trkpt>
      <trkpt lat="43.43625" lon="6.62998">
        <ele>105.88</ele>
        <time>2012-10-12T08:29:42Z</time>
      </trkpt>
      <trkpt lat="43.43638" lon="6.62989">
        <ele>104.44</ele>
        <time>2012-10-12T08:29:50Z</time>
      </trkpt>
      <trkpt lat="43.43652" lon="6.62996">
        <ele>106.84</ele>
        <time>2012-10-12T08:29:59Z</time>
      </trkpt>
      <trkpt lat="43.43659" lon="6.63002">
        <ele>109.25</ele>
        <time>2012-10-12T08:30:04Z</time>
      </trkpt>
      <trkpt lat="43.43662" lon="6.63005">
        <ele>109.73</ele>
        <time>2012-10-12T08:30:16Z</time>
      </trkpt>
      <trkpt lat="43.43668" lon="6.63013">
        <ele>111.65</ele>
        <time>2012-10-12T08:30:23Z</time>
      </trkpt>
      <trkpt lat="43.43671" lon="6.63019">
        <ele>113.57</ele>
        <time>2012-10-12T08:30:28Z</time>
      </trkpt>
      <trkpt lat="43.43672" lon="6.6302">
        <ele>114.05</ele>
        <time>2012-10-12T08:30:29Z</time>
      </trkpt>
      <trkpt lat="43.43678" lon="6.63025">
        <ele>115.01</ele>
        <time>2012-10-12T08:30:37Z</time>
      </trkpt>
      <trkpt lat="43.4368" lon="6.63026">
        <ele>115.01</ele>
        <time>2012-10-12T08:30:46Z</time>
      </trkpt>
      <trkpt lat="43.43684" lon="6.6303">
        <ele>115.01</ele>
        <time>2012-10-12T08:30:57Z</time>
      </trkpt>
      <trkpt lat="43.43689" lon="6.63035">
        <ele>114.05</ele>
        <time>2012-10-12T08:31:02Z</time>
      </trkpt>
      <trkpt lat="43.43702" lon="6.63044">
        <ele>116.94</ele>
        <time>2012-10-12T08:31:10Z</time>
      </trkpt>
      <trkpt lat="43.43715" lon="6.63039">
        <ele>116.94</ele>
        <time>2012-10-12T08:31:15Z</time>
      </trkpt>
      <trkpt lat="43.43719" lon="6.63035">
        <ele>115.98</ele>
        <time>2012-10-12T08:31:16Z</time>
      </trkpt>
      <trkpt lat="43.43728" lon="6.63027">
        <ele>115.01</ele>
        <time>2012-10-12T08:31:18Z</time>
      </trkpt>
      <trkpt lat="43.43737" lon="6.63015">
        <ele>114.05</ele>
        <time>2012-10-12T08:31:20Z</time>
      </trkpt>
      <trkpt lat="43.43742" lon="6.63008">
        <ele>113.09</ele>
        <time>2012-10-12T08:31:21Z</time>
      </trkpt>
      <trkpt lat="43.43746" lon="6.63001">
        <ele>113.57</ele>
        <time>2012-10-12T08:31:22Z</time>
      </trkpt>
      <trkpt lat="43.4376" lon="6.62983">
        <ele>116.46</ele>
        <time>2012-10-12T08:31:26Z</time>
      </trkpt>
      <trkpt lat="43.43776" lon="6.62965">
        <ele>117.9</ele>
        <time>2012-10-12T08:31:35Z</time>
      </trkpt>
      <trkpt lat="43.43793" lon="6.62958">
        <ele>119.34</ele>
        <time>2012-10-12T08:31:43Z</time>
      </trkpt>
      <trkpt lat="43.43797" lon="6.62955">
        <ele>120.3</ele>
        <time>2012-10-12T08:31:45Z</time>
      </trkpt>
      <trkpt lat="43.43799" lon="6.62954">
        <ele>120.3</ele>
        <time>2012-10-12T08:31:46Z</time>
      </trkpt>
      <trkpt lat="43.43806" lon="6.62945">
        <ele>120.78</ele>
        <time>2012-10-12T08:31:50Z</time>
      </trkpt>
      <trkpt lat="43.43815" lon="6.62927">
        <ele>122.22</ele>
        <time>2012-10-12T08:31:58Z</time>
      </trkpt>
      <trkpt lat="43.43817" lon="6.6292">
        <ele>123.19</ele>
        <time>2012-10-12T08:32:01Z</time>
      </trkpt>
      <trkpt lat="43.43823" lon="6.62896">
        <ele>124.15</ele>
        <time>2012-10-12T08:32:09Z</time>
      </trkpt>
      <trkpt lat="43.43828" lon="6.62884">
        <ele>124.63</ele>
        <time>2012-10-12T08:32:13Z</time>
      </trkpt>
      <trkpt lat="43.43829" lon="6.62879">
        <ele>125.59</ele>
        <time>2012-10-12T08:32:15Z</time>
      </trkpt>
      <trkpt lat="43.4383" lon="6.62859">
        <ele>126.55</ele>
        <time>2012-10-12T08:32:22Z</time>
      </trkpt>
      <trkpt lat="43.4384" lon="6.62834">
        <ele>126.07</ele>
        <time>2012-10-12T08:32:29Z</time>
      </trkpt>
      <trkpt lat="43.43841" lon="6.62827">
        <ele>127.03</ele>
        <time>2012-10-12T08:32:30Z</time>
      </trkpt>
      <trkpt lat="43.43843" lon="6.62807">
        <ele>127.51</ele>
        <time>2012-10-12T08:32:36Z</time>
      </trkpt>
      <trkpt lat="43.43848" lon="6.62784">
        <ele>127.03</ele>
        <time>2012-10-12T08:32:41Z</time>
      </trkpt>
      <trkpt lat="43.43862" lon="6.62742">
        <ele>123.67</ele>
        <time>2012-10-12T08:32:49Z</time>
      </trkpt>
      <trkpt lat="43.43867" lon="6.62723">
        <ele>119.82</ele>
        <time>2012-10-12T08:32:55Z</time>
      </trkpt>
      <trkpt lat="43.43871" lon="6.62708">
        <ele>116.46</ele>
        <time>2012-10-12T08:32:59Z</time>
      </trkpt>
      <trkpt lat="43.43872" lon="6.62703">
        <ele>115.5</ele>
        <time>2012-10-12T08:33:00Z</time>
      </trkpt>
      <trkpt lat="43.43881" lon="6.62673">
        <ele>114.05</ele>
        <time>2012-10-12T08:33:07Z</time>
      </trkpt>
      <trkpt lat="43.43885" lon="6.62655">
        <ele>110.69</ele>
        <time>2012-10-12T08:33:11Z</time>
      </trkpt>
      <trkpt lat="43.43889" lon="6.62635">
        <ele>107.81</ele>
        <time>2012-10-12T08:33:15Z</time>
      </trkpt>
      <trkpt lat="43.43899" lon="6.62617">
        <ele>105.88</ele>
        <time>2012-10-12T08:33:20Z</time>
      </trkpt>
      <trkpt lat="43.43902" lon="6.62603">
        <ele>104.44</ele>
        <time>2012-10-12T08:33:23Z</time>
      </trkpt>
      <trkpt lat="43.43904" lon="6.62596">
        <ele>103</ele>
        <time>2012-10-12T08:33:25Z</time>
      </trkpt>
      <trkpt lat="43.43913" lon="6.62578">
        <ele>100.11</ele>
        <time>2012-10-12T08:33:30Z</time>
      </trkpt>
      <trkpt lat="43.43933" lon="6.62549">
        <ele>96.75</ele>
        <time>2012-10-12T08:33:36Z</time>
      </trkpt>
      <trkpt lat="43.43936" lon="6.62546">
        <ele>96.27</ele>
        <time>2012-10-12T08:33:37Z</time>
      </trkpt>
      <trkpt lat="43.43942" lon="6.62534">
        <ele>94.83</ele>
        <time>2012-10-12T08:33:40Z</time>
      </trkpt>
      <trkpt lat="43.43948" lon="6.62529">
        <ele>93.87</ele>
        <time>2012-10-12T08:33:42Z</time>
      </trkpt>
      <trkpt lat="43.43959" lon="6.62546">
        <ele>92.9</ele>
        <time>2012-10-12T08:33:46Z</time>
      </trkpt>
      <trkpt lat="43.43965" lon="6.62582">
        <ele>90.5</ele>
        <time>2012-10-12T08:33:51Z</time>
      </trkpt>
      <trkpt lat="43.4396" lon="6.62616">
        <ele>87.62</ele>
        <time>2012-10-12T08:33:55Z</time>
      </trkpt>
      <trkpt lat="43.43957" lon="6.62647">
        <ele>87.62</ele>
        <time>2012-10-12T08:33:59Z</time>
      </trkpt>
      <trkpt lat="43.43966" lon="6.62686">
        <ele>86.66</ele>
        <time>2012-10-12T08:34:04Z</time>
      </trkpt>
      <trkpt lat="43.43967" lon="6.62689">
        <ele>86.66</ele>
        <time>2012-10-12T08:34:05Z</time>
      </trkpt>
      <trkpt lat="43.43978" lon="6.62703">
        <ele>85.69</ele>
        <time>2012-10-12T08:34:08Z</time>
      </trkpt>
      <trkpt lat="43.43983" lon="6.62707">
        <ele>85.21</ele>
        <time>2012-10-12T08:34:09Z</time>
      </trkpt>
      <trkpt lat="43.43987" lon="6.6271">
        <ele>84.73</ele>
        <time>2012-10-12T08:34:10Z</time>
      </trkpt>
      <trkpt lat="43.4399" lon="6.62715">
        <ele>84.25</ele>
        <time>2012-10-12T08:34:11Z</time>
      </trkpt>
      <trkpt lat="43.43994" lon="6.6272">
        <ele>84.25</ele>
        <time>2012-10-12T08:34:12Z</time>
      </trkpt>
      <trkpt lat="43.43996" lon="6.62725">
        <ele>84.25</ele>
        <time>2012-10-12T08:34:13Z</time>
      </trkpt>
      <trkpt lat="43.43997" lon="6.62731">
        <ele>83.77</ele>
        <time>2012-10-12T08:34:14Z</time>
      </trkpt>
      <trkpt lat="43.43997" lon="6.62736">
        <ele>83.77</ele>
        <time>2012-10-12T08:34:15Z</time>
      </trkpt>
      <trkpt lat="43.43997" lon="6.6274">
        <ele>83.29</ele>
        <time>2012-10-12T08:34:16Z</time>
      </trkpt>
      <trkpt lat="43.43998" lon="6.62743">
        <ele>83.29</ele>
        <time>2012-10-12T08:34:17Z</time>
      </trkpt>
      <trkpt lat="43.43999" lon="6.62745">
        <ele>83.29</ele>
        <time>2012-10-12T08:34:18Z</time>
      </trkpt>
      <trkpt lat="43.44009" lon="6.62765">
        <ele>80.89</ele>
        <time>2012-10-12T08:34:26Z</time>
      </trkpt>
      <trkpt lat="43.44014" lon="6.62766">
        <ele>79.93</ele>
        <time>2012-10-12T08:34:27Z</time>
      </trkpt>
      <trkpt lat="43.44018" lon="6.62768">
        <ele>79.45</ele>
        <time>2012-10-12T08:34:28Z</time>
      </trkpt>
      <trkpt lat="43.44022" lon="6.6277">
        <ele>78.48</ele>
        <time>2012-10-12T08:34:29Z</time>
      </trkpt>
      <trkpt lat="43.44026" lon="6.62774">
        <ele>77.52</ele>
        <time>2012-10-12T08:34:30Z</time>
      </trkpt>
      <trkpt lat="43.44031" lon="6.62776">
        <ele>77.04</ele>
        <time>2012-10-12T08:34:31Z</time>
      </trkpt>
      <trkpt lat="43.44036" lon="6.62778">
        <ele>76.56</ele>
        <time>2012-10-12T08:34:32Z</time>
      </trkpt>
      <trkpt lat="43.4404" lon="6.6278">
        <ele>75.6</ele>
        <time>2012-10-12T08:34:33Z</time>
      </trkpt>
      <trkpt lat="43.44044" lon="6.6278">
        <ele>76.56</ele>
        <time>2012-10-12T08:34:34Z</time>
      </trkpt>
      <trkpt lat="43.44046" lon="6.62781">
        <ele>76.56</ele>
        <time>2012-10-12T08:34:35Z</time>
      </trkpt>
      <trkpt lat="43.44047" lon="6.62782">
        <ele>76.08</ele>
        <time>2012-10-12T08:34:36Z</time>
      </trkpt>
      <trkpt lat="43.44049" lon="6.62782">
        <ele>75.6</ele>
        <time>2012-10-12T08:34:37Z</time>
      </trkpt>
      <trkpt lat="43.44051" lon="6.62784">
        <ele>76.08</ele>
        <time>2012-10-12T08:34:38Z</time>
      </trkpt>
      <trkpt lat="43.44055" lon="6.62786">
        <ele>76.08</ele>
        <time>2012-10-12T08:34:39Z</time>
      </trkpt>
      <trkpt lat="43.44059" lon="6.62789">
        <ele>75.12</ele>
        <time>2012-10-12T08:34:40Z</time>
      </trkpt>
      <trkpt lat="43.44062" lon="6.62792">
        <ele>74.64</ele>
        <time>2012-10-12T08:34:41Z</time>
      </trkpt>
      <trkpt lat="43.44067" lon="6.62793">
        <ele>74.16</ele>
        <time>2012-10-12T08:34:42Z</time>
      </trkpt>
      <trkpt lat="43.44077" lon="6.62784">
        <ele>71.27</ele>
        <time>2012-10-12T08:34:46Z</time>
      </trkpt>
      <trkpt lat="43.44075" lon="6.62775">
        <ele>71.27</ele>
        <time>2012-10-12T08:34:48Z</time>
      </trkpt>
      <trkpt lat="43.44073" lon="6.62769">
        <ele>71.27</ele>
        <time>2012-10-12T08:34:49Z</time>
      </trkpt>
      <trkpt lat="43.44071" lon="6.62764">
        <ele>70.79</ele>
        <time>2012-10-12T08:34:50Z</time>
      </trkpt>
      <trkpt lat="43.44068" lon="6.6276">
        <ele>70.79</ele>
        <time>2012-10-12T08:34:51Z</time>
      </trkpt>
      <trkpt lat="43.44064" lon="6.62755">
        <ele>70.31</ele>
        <time>2012-10-12T08:34:52Z</time>
      </trkpt>
      <trkpt lat="43.44059" lon="6.62751">
        <ele>70.31</ele>
        <time>2012-10-12T08:34:53Z</time>
      </trkpt>
      <trkpt lat="43.44055" lon="6.62746">
        <ele>68.87</ele>
        <time>2012-10-12T08:34:54Z</time>
      </trkpt>
      <trkpt lat="43.44051" lon="6.6274">
        <ele>66.95</ele>
        <time>2012-10-12T08:34:55Z</time>
      </trkpt>
      <trkpt lat="43.44047" lon="6.62732">
        <ele>66.95</ele>
        <time>2012-10-12T08:34:56Z</time>
      </trkpt>
      <trkpt lat="43.44044" lon="6.62723">
        <ele>65.99</ele>
        <time>2012-10-12T08:34:57Z</time>
      </trkpt>
      <trkpt lat="43.44042" lon="6.62714">
        <ele>65.99</ele>
        <time>2012-10-12T08:34:58Z</time>
      </trkpt>
      <trkpt lat="43.44023" lon="6.6266">
        <ele>64.07</ele>
        <time>2012-10-12T08:35:04Z</time>
      </trkpt>
      <trkpt lat="43.44023" lon="6.62651">
        <ele>64.07</ele>
        <time>2012-10-12T08:35:05Z</time>
      </trkpt>
      <trkpt lat="43.44024" lon="6.62642">
        <ele>63.58</ele>
        <time>2012-10-12T08:35:06Z</time>
      </trkpt>
      <trkpt lat="43.44027" lon="6.62624">
        <ele>63.58</ele>
        <time>2012-10-12T08:35:08Z</time>
      </trkpt>
      <trkpt lat="43.44027" lon="6.62605">
        <ele>61.18</ele>
        <time>2012-10-12T08:35:10Z</time>
      </trkpt>
      <trkpt lat="43.44028" lon="6.62594">
        <ele>60.7</ele>
        <time>2012-10-12T08:35:11Z</time>
      </trkpt>
      <trkpt lat="43.4403" lon="6.62583">
        <ele>59.74</ele>
        <time>2012-10-12T08:35:12Z</time>
      </trkpt>
      <trkpt lat="43.44036" lon="6.6256">
        <ele>57.34</ele>
        <time>2012-10-12T08:35:14Z</time>
      </trkpt>
      <trkpt lat="43.44046" lon="6.62523">
        <ele>53.01</ele>
        <time>2012-10-12T08:35:17Z</time>
      </trkpt>
      <trkpt lat="43.44059" lon="6.62475">
        <ele>49.16</ele>
        <time>2012-10-12T08:35:21Z</time>
      </trkpt>
      <trkpt lat="43.44065" lon="6.62453">
        <ele>46.28</ele>
        <time>2012-10-12T08:35:23Z</time>
      </trkpt>
      <trkpt lat="43.44077" lon="6.62409">
        <ele>43.4</ele>
        <time>2012-10-12T08:35:26Z</time>
      </trkpt>
      <trkpt lat="43.44079" lon="6.62398">
        <ele>41.47</ele>
        <time>2012-10-12T08:35:27Z</time>
      </trkpt>
      <trkpt lat="43.44083" lon="6.62382">
        <ele>41.95</ele>
        <time>2012-10-12T08:35:29Z</time>
      </trkpt>
      <trkpt lat="43.44083" lon="6.62375">
        <ele>41.95</ele>
        <time>2012-10-12T08:35:30Z</time>
      </trkpt>
      <trkpt lat="43.44082" lon="6.62369">
        <ele>40.99</ele>
        <time>2012-10-12T08:35:31Z</time>
      </trkpt>
      <trkpt lat="43.44078" lon="6.62363">
        <ele>40.99</ele>
        <time>2012-10-12T08:35:32Z</time>
      </trkpt>
      <trkpt lat="43.44073" lon="6.62357">
        <ele>40.03</ele>
        <time>2012-10-12T08:35:33Z</time>
      </trkpt>
      <trkpt lat="43.44067" lon="6.62353">
        <ele>38.59</ele>
        <time>2012-10-12T08:35:34Z</time>
      </trkpt>
      <trkpt lat="43.44059" lon="6.62349">
        <ele>38.11</ele>
        <time>2012-10-12T08:35:35Z</time>
      </trkpt>
      <trkpt lat="43.44016" lon="6.62327">
        <ele>35.71</ele>
        <time>2012-10-12T08:35:41Z</time>
      </trkpt>
      <trkpt lat="43.44009" lon="6.62324">
        <ele>36.19</ele>
        <time>2012-10-12T08:35:42Z</time>
      </trkpt>
      <trkpt lat="43.43993" lon="6.62319">
        <ele>34.26</ele>
        <time>2012-10-12T08:35:44Z</time>
      </trkpt>
      <trkpt lat="43.43985" lon="6.62318">
        <ele>33.78</ele>
        <time>2012-10-12T08:35:45Z</time>
      </trkpt>
      <trkpt lat="43.43977" lon="6.62319">
        <ele>33.78</ele>
        <time>2012-10-12T08:35:46Z</time>
      </trkpt>
      <trkpt lat="43.4397" lon="6.62322">
        <ele>33.78</ele>
        <time>2012-10-12T08:35:47Z</time>
      </trkpt>
      <trkpt lat="43.43963" lon="6.62325">
        <ele>33.3</ele>
        <time>2012-10-12T08:35:48Z</time>
      </trkpt>
      <trkpt lat="43.43956" lon="6.62325">
        <ele>32.34</ele>
        <time>2012-10-12T08:35:49Z</time>
      </trkpt>
      <trkpt lat="43.43949" lon="6.62322">
        <ele>31.86</ele>
        <time>2012-10-12T08:35:50Z</time>
      </trkpt>
      <trkpt lat="43.43942" lon="6.62317">
        <ele>31.86</ele>
        <time>2012-10-12T08:35:51Z</time>
      </trkpt>
      <trkpt lat="43.43935" lon="6.62313">
        <ele>30.42</ele>
        <time>2012-10-12T08:35:52Z</time>
      </trkpt>
      <trkpt lat="43.43927" lon="6.62312">
        <ele>30.42</ele>
        <time>2012-10-12T08:35:53Z</time>
      </trkpt>
      <trkpt lat="43.4392" lon="6.62312">
        <ele>29.46</ele>
        <time>2012-10-12T08:35:54Z</time>
      </trkpt>
      <trkpt lat="43.43904" lon="6.62314">
        <ele>26.57</ele>
        <time>2012-10-12T08:35:56Z</time>
      </trkpt>
      <trkpt lat="43.43897" lon="6.62311">
        <ele>26.57</ele>
        <time>2012-10-12T08:35:57Z</time>
      </trkpt>
      <trkpt lat="43.43881" lon="6.62304">
        <ele>25.61</ele>
        <time>2012-10-12T08:35:59Z</time>
      </trkpt>
      <trkpt lat="43.43874" lon="6.62302">
        <ele>24.17</ele>
        <time>2012-10-12T08:36:00Z</time>
      </trkpt>
      <trkpt lat="43.43836" lon="6.62292">
        <ele>19.36</ele>
        <time>2012-10-12T08:36:05Z</time>
      </trkpt>
      <trkpt lat="43.43801" lon="6.62287">
        <ele>16.96</ele>
        <time>2012-10-12T08:36:09Z</time>
      </trkpt>
      <trkpt lat="43.43786" lon="6.62285">
        <ele>17.44</ele>
        <time>2012-10-12T08:36:11Z</time>
      </trkpt>
      <trkpt lat="43.43757" lon="6.62274">
        <ele>19.36</ele>
        <time>2012-10-12T08:36:15Z</time>
      </trkpt>
      <trkpt lat="43.43751" lon="6.62272">
        <ele>20.32</ele>
        <time>2012-10-12T08:36:16Z</time>
      </trkpt>
      <trkpt lat="43.43728" lon="6.62262">
        <ele>22.73</ele>
        <time>2012-10-12T08:36:22Z</time>
      </trkpt>
      <trkpt lat="43.43722" lon="6.6226">
        <ele>23.69</ele>
        <time>2012-10-12T08:36:24Z</time>
      </trkpt>
      <trkpt lat="43.43719" lon="6.62259">
        <ele>23.69</ele>
        <time>2012-10-12T08:36:25Z</time>
      </trkpt>
      <trkpt lat="43.43687" lon="6.62245">
        <ele>25.13</ele>
        <time>2012-10-12T08:36:35Z</time>
      </trkpt>
      <trkpt lat="43.43657" lon="6.62225">
        <ele>27.53</ele>
        <time>2012-10-12T08:36:45Z</time>
      </trkpt>
      <trkpt lat="43.43635" lon="6.6223">
        <ele>28.5</ele>
        <time>2012-10-12T08:36:53Z</time>
      </trkpt>
      <trkpt lat="43.43613" lon="6.62238">
        <ele>29.94</ele>
        <time>2012-10-12T08:37:02Z</time>
      </trkpt>
      <trkpt lat="43.43594" lon="6.62248">
        <ele>30.9</ele>
        <time>2012-10-12T08:37:09Z</time>
      </trkpt>
      <trkpt lat="43.43565" lon="6.62263">
        <ele>32.34</ele>
        <time>2012-10-12T08:37:19Z</time>
      </trkpt>
      <trkpt lat="43.43539" lon="6.62284">
        <ele>32.82</ele>
        <time>2012-10-12T08:37:29Z</time>
      </trkpt>
      <trkpt lat="43.43516" lon="6.62301">
        <ele>33.78</ele>
        <time>2012-10-12T08:37:38Z</time>
      </trkpt>
      <trkpt lat="43.43479" lon="6.62313">
        <ele>35.23</ele>
        <time>2012-10-12T08:37:50Z</time>
      </trkpt>
      <trkpt lat="43.43446" lon="6.62329">
        <ele>36.67</ele>
        <time>2012-10-12T08:37:59Z</time>
      </trkpt>
      <trkpt lat="43.43436" lon="6.62336">
        <ele>36.67</ele>
        <time>2012-10-12T08:38:02Z</time>
      </trkpt>
      <trkpt lat="43.4343" lon="6.62344">
        <ele>35.71</ele>
        <time>2012-10-12T08:38:04Z</time>
      </trkpt>
      <trkpt lat="43.43427" lon="6.62349">
        <ele>35.23</ele>
        <time>2012-10-12T08:38:05Z</time>
      </trkpt>
      <trkpt lat="43.43425" lon="6.62355">
        <ele>34.74</ele>
        <time>2012-10-12T08:38:06Z</time>
      </trkpt>
      <trkpt lat="43.43423" lon="6.62361">
        <ele>34.74</ele>
        <time>2012-10-12T08:38:07Z</time>
      </trkpt>
      <trkpt lat="43.4342" lon="6.62366">
        <ele>34.74</ele>
        <time>2012-10-12T08:38:08Z</time>
      </trkpt>
      <trkpt lat="43.43417" lon="6.62369">
        <ele>34.74</ele>
        <time>2012-10-12T08:38:09Z</time>
      </trkpt>
      <trkpt lat="43.43413" lon="6.62369">
        <ele>35.23</ele>
        <time>2012-10-12T08:38:10Z</time>
      </trkpt>
      <trkpt lat="43.4341" lon="6.62367">
        <ele>35.23</ele>
        <time>2012-10-12T08:38:11Z</time>
      </trkpt>
      <trkpt lat="43.43408" lon="6.62363">
        <ele>35.23</ele>
        <time>2012-10-12T08:38:12Z</time>
      </trkpt>
      <trkpt lat="43.43407" lon="6.62358">
        <ele>35.23</ele>
        <time>2012-10-12T08:38:13Z</time>
      </trkpt>
      <trkpt lat="43.43408" lon="6.62353">
        <ele>35.71</ele>
        <time>2012-10-12T08:38:14Z</time>
      </trkpt>
      <trkpt lat="43.43408" lon="6.62348">
        <ele>35.71</ele>
        <time>2012-10-12T08:38:15Z</time>
      </trkpt>
      <trkpt lat="43.43408" lon="6.62342">
        <ele>35.23</ele>
        <time>2012-10-12T08:38:16Z</time>
      </trkpt>
      <trkpt lat="43.43408" lon="6.62336">
        <ele>35.71</ele>
        <time>2012-10-12T08:38:17Z</time>
      </trkpt>
      <trkpt lat="43.43405" lon="6.62321">
        <ele>35.23</ele>
        <time>2012-10-12T08:38:20Z</time>
      </trkpt>
      <trkpt lat="43.43402" lon="6.62316">
        <ele>35.71</ele>
        <time>2012-10-12T08:38:21Z</time>
      </trkpt>
      <trkpt lat="43.43394" lon="6.62309">
        <ele>34.26</ele>
        <time>2012-10-12T08:38:23Z</time>
      </trkpt>
      <trkpt lat="43.43389" lon="6.62307">
        <ele>34.26</ele>
        <time>2012-10-12T08:38:24Z</time>
      </trkpt>
      <trkpt lat="43.43343" lon="6.62288">
        <ele>33.3</ele>
        <time>2012-10-12T08:38:32Z</time>
      </trkpt>
      <trkpt lat="43.4333" lon="6.6228">
        <ele>34.26</ele>
        <time>2012-10-12T08:38:35Z</time>
      </trkpt>
      <trkpt lat="43.43326" lon="6.62279">
        <ele>34.74</ele>
        <time>2012-10-12T08:38:36Z</time>
      </trkpt>
      <trkpt lat="43.43322" lon="6.6228">
        <ele>34.74</ele>
        <time>2012-10-12T08:38:37Z</time>
      </trkpt>
      <trkpt lat="43.43319" lon="6.62283">
        <ele>35.23</ele>
        <time>2012-10-12T08:38:38Z</time>
      </trkpt>
      <trkpt lat="43.43316" lon="6.62286">
        <ele>35.71</ele>
        <time>2012-10-12T08:38:39Z</time>
      </trkpt>
      <trkpt lat="43.43313" lon="6.62289">
        <ele>35.23</ele>
        <time>2012-10-12T08:38:40Z</time>
      </trkpt>
      <trkpt lat="43.43309" lon="6.62291">
        <ele>35.71</ele>
        <time>2012-10-12T08:38:41Z</time>
      </trkpt>
      <trkpt lat="43.43301" lon="6.62285">
        <ele>36.19</ele>
        <time>2012-10-12T08:38:44Z</time>
      </trkpt>
      <trkpt lat="43.43299" lon="6.62257">
        <ele>35.71</ele>
        <time>2012-10-12T08:38:50Z</time>
      </trkpt>
      <trkpt lat="43.43297" lon="6.62252">
        <ele>35.71</ele>
        <time>2012-10-12T08:38:51Z</time>
      </trkpt>
      <trkpt lat="43.43293" lon="6.62248">
        <ele>34.74</ele>
        <time>2012-10-12T08:38:52Z</time>
      </trkpt>
      <trkpt lat="43.43289" lon="6.62245">
        <ele>34.74</ele>
        <time>2012-10-12T08:38:53Z</time>
      </trkpt>
      <trkpt lat="43.43285" lon="6.62245">
        <ele>34.26</ele>
        <time>2012-10-12T08:38:54Z</time>
      </trkpt>
      <trkpt lat="43.4328" lon="6.62245">
        <ele>34.26</ele>
        <time>2012-10-12T08:38:55Z</time>
      </trkpt>
      <trkpt lat="43.43275" lon="6.62245">
        <ele>33.3</ele>
        <time>2012-10-12T08:38:56Z</time>
      </trkpt>
      <trkpt lat="43.4327" lon="6.62244">
        <ele>33.3</ele>
        <time>2012-10-12T08:38:57Z</time>
      </trkpt>
      <trkpt lat="43.43264" lon="6.62235">
        <ele>33.3</ele>
        <time>2012-10-12T08:38:59Z</time>
      </trkpt>
      <trkpt lat="43.43263" lon="6.62228">
        <ele>33.3</ele>
        <time>2012-10-12T08:39:00Z</time>
      </trkpt>
      <trkpt lat="43.43265" lon="6.62222">
        <ele>32.82</ele>
        <time>2012-10-12T08:39:01Z</time>
      </trkpt>
      <trkpt lat="43.43267" lon="6.62216">
        <ele>32.82</ele>
        <time>2012-10-12T08:39:02Z</time>
      </trkpt>
      <trkpt lat="43.43269" lon="6.62209">
        <ele>31.86</ele>
        <time>2012-10-12T08:39:03Z</time>
      </trkpt>
      <trkpt lat="43.43272" lon="6.62202">
        <ele>31.86</ele>
        <time>2012-10-12T08:39:04Z</time>
      </trkpt>
      <trkpt lat="43.43275" lon="6.62197">
        <ele>31.38</ele>
        <time>2012-10-12T08:39:05Z</time>
      </trkpt>
      <trkpt lat="43.43278" lon="6.62191">
        <ele>30.9</ele>
        <time>2012-10-12T08:39:06Z</time>
      </trkpt>
      <trkpt lat="43.43282" lon="6.62185">
        <ele>30.42</ele>
        <time>2012-10-12T08:39:07Z</time>
      </trkpt>
      <trkpt lat="43.43285" lon="6.62179">
        <ele>30.9</ele>
        <time>2012-10-12T08:39:08Z</time>
      </trkpt>
      <trkpt lat="43.43287" lon="6.62172">
        <ele>30.42</ele>
        <time>2012-10-12T08:39:09Z</time>
      </trkpt>
      <trkpt lat="43.43288" lon="6.62166">
        <ele>31.38</ele>
        <time>2012-10-12T08:39:10Z</time>
      </trkpt>
      <trkpt lat="43.43289" lon="6.62159">
        <ele>30.9</ele>
        <time>2012-10-12T08:39:11Z</time>
      </trkpt>
      <trkpt lat="43.43289" lon="6.62153">
        <ele>31.38</ele>
        <time>2012-10-12T08:39:12Z</time>
      </trkpt>
      <trkpt lat="43.43289" lon="6.62148">
        <ele>32.34</ele>
        <time>2012-10-12T08:39:13Z</time>
      </trkpt>
      <trkpt lat="43.43289" lon="6.62143">
        <ele>33.3</ele>
        <time>2012-10-12T08:39:14Z</time>
      </trkpt>
      <trkpt lat="43.43288" lon="6.62139">
        <ele>33.3</ele>
        <time>2012-10-12T08:39:15Z</time>
      </trkpt>
      <trkpt lat="43.43287" lon="6.62135">
        <ele>33.78</ele>
        <time>2012-10-12T08:39:16Z</time>
      </trkpt>
      <trkpt lat="43.43288" lon="6.62132">
        <ele>33.78</ele>
        <time>2012-10-12T08:39:17Z</time>
      </trkpt>
      <trkpt lat="43.43293" lon="6.62109">
        <ele>36.19</ele>
        <time>2012-10-12T08:39:24Z</time>
      </trkpt>
      <trkpt lat="43.43298" lon="6.62091">
        <ele>37.15</ele>
        <time>2012-10-12T08:39:29Z</time>
      </trkpt>
      <trkpt lat="43.43299" lon="6.62088">
        <ele>37.15</ele>
        <time>2012-10-12T08:39:30Z</time>
      </trkpt>
      <trkpt lat="43.43309" lon="6.62066">
        <ele>38.11</ele>
        <time>2012-10-12T08:39:38Z</time>
      </trkpt>
      <trkpt lat="43.43327" lon="6.62051">
        <ele>39.55</ele>
        <time>2012-10-12T08:39:45Z</time>
      </trkpt>
      <trkpt lat="43.43354" lon="6.62033">
        <ele>40.03</ele>
        <time>2012-10-12T08:39:53Z</time>
      </trkpt>
      <trkpt lat="43.43374" lon="6.62016">
        <ele>39.55</ele>
        <time>2012-10-12T08:39:58Z</time>
      </trkpt>
      <trkpt lat="43.43386" lon="6.62001">
        <ele>40.51</ele>
        <time>2012-10-12T08:40:02Z</time>
      </trkpt>
      <trkpt lat="43.43397" lon="6.61984">
        <ele>40.51</ele>
        <time>2012-10-12T08:40:06Z</time>
      </trkpt>
      <trkpt lat="43.43404" lon="6.61961">
        <ele>39.07</ele>
        <time>2012-10-12T08:40:10Z</time>
      </trkpt>
      <trkpt lat="43.43405" lon="6.61948">
        <ele>39.55</ele>
        <time>2012-10-12T08:40:12Z</time>
      </trkpt>
      <trkpt lat="43.43406" lon="6.61913">
        <ele>38.59</ele>
        <time>2012-10-12T08:40:17Z</time>
      </trkpt>
      <trkpt lat="43.434" lon="6.61878">
        <ele>39.55</ele>
        <time>2012-10-12T08:40:22Z</time>
      </trkpt>
      <trkpt lat="43.43389" lon="6.61823">
        <ele>39.07</ele>
        <time>2012-10-12T08:40:31Z</time>
      </trkpt>
      <trkpt lat="43.43382" lon="6.61809">
        <ele>40.03</ele>
        <time>2012-10-12T08:40:34Z</time>
      </trkpt>
      <trkpt lat="43.4337" lon="6.61775">
        <ele>39.07</ele>
        <time>2012-10-12T08:40:40Z</time>
      </trkpt>
      <trkpt lat="43.43374" lon="6.61764">
        <ele>39.07</ele>
        <time>2012-10-12T08:40:44Z</time>
      </trkpt>
      <trkpt lat="43.43378" lon="6.61756">
        <ele>39.55</ele>
        <time>2012-10-12T08:40:48Z</time>
      </trkpt>
      <trkpt lat="43.43377" lon="6.6174">
        <ele>41.47</ele>
        <time>2012-10-12T08:40:55Z</time>
      </trkpt>
      <trkpt lat="43.43369" lon="6.61733">
        <ele>39.55</ele>
        <time>2012-10-12T08:40:59Z</time>
      </trkpt>
      <trkpt lat="43.43368" lon="6.61727">
        <ele>40.03</ele>
        <time>2012-10-12T08:41:01Z</time>
      </trkpt>
      <trkpt lat="43.43365" lon="6.61716">
        <ele>40.51</ele>
        <time>2012-10-12T08:41:04Z</time>
      </trkpt>
      <trkpt lat="43.43366" lon="6.61692">
        <ele>40.99</ele>
        <time>2012-10-12T08:41:12Z</time>
      </trkpt>
      <trkpt lat="43.4336" lon="6.61669">
        <ele>41.47</ele>
        <time>2012-10-12T08:41:19Z</time>
      </trkpt>
      <trkpt lat="43.43356" lon="6.6165">
        <ele>42.44</ele>
        <time>2012-10-12T08:41:25Z</time>
      </trkpt>
      <trkpt lat="43.43357" lon="6.61631">
        <ele>44.84</ele>
        <time>2012-10-12T08:41:31Z</time>
      </trkpt>
      <trkpt lat="43.43361" lon="6.61599">
        <ele>42.44</ele>
        <time>2012-10-12T08:41:39Z</time>
      </trkpt>
      <trkpt lat="43.43353" lon="6.61587">
        <ele>42.92</ele>
        <time>2012-10-12T08:41:43Z</time>
      </trkpt>
      <trkpt lat="43.43349" lon="6.61558">
        <ele>43.88</ele>
        <time>2012-10-12T08:41:51Z</time>
      </trkpt>
      <trkpt lat="43.43349" lon="6.61549">
        <ele>43.88</ele>
        <time>2012-10-12T08:41:53Z</time>
      </trkpt>
      <trkpt lat="43.43349" lon="6.61512">
        <ele>45.32</ele>
        <time>2012-10-12T08:42:02Z</time>
      </trkpt>
      <trkpt lat="43.4335" lon="6.61489">
        <ele>46.28</ele>
        <time>2012-10-12T08:42:10Z</time>
      </trkpt>
      <trkpt lat="43.43351" lon="6.61457">
        <ele>47.72</ele>
        <time>2012-10-12T08:42:18Z</time>
      </trkpt>
      <trkpt lat="43.43353" lon="6.61445">
        <ele>46.28</ele>
        <time>2012-10-12T08:42:22Z</time>
      </trkpt>
      <trkpt lat="43.43357" lon="6.61435">
        <ele>45.8</ele>
        <time>2012-10-12T08:42:24Z</time>
      </trkpt>
      <trkpt lat="43.43359" lon="6.61402">
        <ele>45.32</ele>
        <time>2012-10-12T08:42:29Z</time>
      </trkpt>
      <trkpt lat="43.43358" lon="6.6139">
        <ele>45.8</ele>
        <time>2012-10-12T08:42:31Z</time>
      </trkpt>
      <trkpt lat="43.43355" lon="6.61366">
        <ele>45.8</ele>
        <time>2012-10-12T08:42:35Z</time>
      </trkpt>
      <trkpt lat="43.43352" lon="6.61336">
        <ele>47.24</ele>
        <time>2012-10-12T08:42:41Z</time>
      </trkpt>
      <trkpt lat="43.43345" lon="6.61293">
        <ele>47.24</ele>
        <time>2012-10-12T08:42:51Z</time>
      </trkpt>
      <trkpt lat="43.4334" lon="6.61271">
        <ele>49.16</ele>
        <time>2012-10-12T08:42:58Z</time>
      </trkpt>
      <trkpt lat="43.43337" lon="6.6125">
        <ele>51.57</ele>
        <time>2012-10-12T08:43:06Z</time>
      </trkpt>
      <trkpt lat="43.43333" lon="6.61238">
        <ele>52.05</ele>
        <time>2012-10-12T08:43:10Z</time>
      </trkpt>
      <trkpt lat="43.43335" lon="6.61195">
        <ele>51.57</ele>
        <time>2012-10-12T08:43:20Z</time>
      </trkpt>
      <trkpt lat="43.4333" lon="6.61168">
        <ele>51.09</ele>
        <time>2012-10-12T08:43:25Z</time>
      </trkpt>
      <trkpt lat="43.43317" lon="6.6115">
        <ele>52.53</ele>
        <time>2012-10-12T08:43:30Z</time>
      </trkpt>
      <trkpt lat="43.43303" lon="6.61141">
        <ele>53.97</ele>
        <time>2012-10-12T08:43:36Z</time>
      </trkpt>
      <trkpt lat="43.43302" lon="6.61138">
        <ele>53.97</ele>
        <time>2012-10-12T08:43:37Z</time>
      </trkpt>
      <trkpt lat="43.43299" lon="6.61133">
        <ele>53.49</ele>
        <time>2012-10-12T08:43:39Z</time>
      </trkpt>
      <trkpt lat="43.4327" lon="6.61111">
        <ele>53.97</ele>
        <time>2012-10-12T08:43:50Z</time>
      </trkpt>
      <trkpt lat="43.43267" lon="6.61107">
        <ele>54.45</ele>
        <time>2012-10-12T08:43:55Z</time>
      </trkpt>
      <trkpt lat="43.43263" lon="6.611">
        <ele>55.41</ele>
        <time>2012-10-12T08:43:59Z</time>
      </trkpt>
      <trkpt lat="43.43263" lon="6.61093">
        <ele>56.86</ele>
        <time>2012-10-12T08:44:05Z</time>
      </trkpt>
      <trkpt lat="43.43263" lon="6.61086">
        <ele>58.78</ele>
        <time>2012-10-12T08:44:11Z</time>
      </trkpt>
      <trkpt lat="43.43264" lon="6.61083">
        <ele>59.74</ele>
        <time>2012-10-12T08:44:16Z</time>
      </trkpt>
      <trkpt lat="43.43264" lon="6.61081">
        <ele>59.74</ele>
        <time>2012-10-12T08:44:20Z</time>
      </trkpt>
      <trkpt lat="43.43261" lon="6.61073">
        <ele>59.26</ele>
        <time>2012-10-12T08:44:28Z</time>
      </trkpt>
      <trkpt lat="43.43254" lon="6.61046">
        <ele>56.86</ele>
        <time>2012-10-12T08:44:35Z</time>
      </trkpt>
      <trkpt lat="43.43253" lon="6.61042">
        <ele>55.89</ele>
        <time>2012-10-12T08:44:36Z</time>
      </trkpt>
      <trkpt lat="43.43246" lon="6.61023">
        <ele>53.97</ele>
        <time>2012-10-12T08:44:40Z</time>
      </trkpt>
      <trkpt lat="43.43243" lon="6.6101">
        <ele>53.49</ele>
        <time>2012-10-12T08:44:42Z</time>
      </trkpt>
      <trkpt lat="43.43239" lon="6.60984">
        <ele>54.93</ele>
        <time>2012-10-12T08:44:49Z</time>
      </trkpt>
      <trkpt lat="43.43239" lon="6.60978">
        <ele>54.45</ele>
        <time>2012-10-12T08:44:54Z</time>
      </trkpt>
      <trkpt lat="43.43239" lon="6.60975">
        <ele>54.93</ele>
        <time>2012-10-12T08:44:56Z</time>
      </trkpt>
      <trkpt lat="43.43239" lon="6.60967">
        <ele>55.41</ele>
        <time>2012-10-12T08:45:01Z</time>
      </trkpt>
      <trkpt lat="43.43247" lon="6.60963">
        <ele>56.37</ele>
        <time>2012-10-12T08:45:07Z</time>
      </trkpt>
      <trkpt lat="43.43248" lon="6.6096">
        <ele>57.34</ele>
        <time>2012-10-12T08:45:09Z</time>
      </trkpt>
      <trkpt lat="43.43245" lon="6.60953">
        <ele>56.86</ele>
        <time>2012-10-12T08:45:13Z</time>
      </trkpt>
      <trkpt lat="43.43239" lon="6.60934">
        <ele>58.78</ele>
        <time>2012-10-12T08:45:22Z</time>
      </trkpt>
      <trkpt lat="43.43235" lon="6.60928">
        <ele>59.26</ele>
        <time>2012-10-12T08:45:25Z</time>
      </trkpt>
      <trkpt lat="43.43234" lon="6.60924">
        <ele>59.26</ele>
        <time>2012-10-12T08:45:28Z</time>
      </trkpt>
      <trkpt lat="43.43228" lon="6.60912">
        <ele>57.82</ele>
        <time>2012-10-12T08:45:35Z</time>
      </trkpt>
      <trkpt lat="43.43227" lon="6.60898">
        <ele>57.34</ele>
        <time>2012-10-12T08:45:40Z</time>
      </trkpt>
      <trkpt lat="43.43213" lon="6.60868">
        <ele>57.34</ele>
        <time>2012-10-12T08:45:48Z</time>
      </trkpt>
      <trkpt lat="43.43192" lon="6.60843">
        <ele>57.82</ele>
        <time>2012-10-12T08:45:55Z</time>
      </trkpt>
      <trkpt lat="43.43165" lon="6.60808">
        <ele>57.82</ele>
        <time>2012-10-12T08:46:04Z</time>
      </trkpt>
      <trkpt lat="43.43151" lon="6.60779">
        <ele>59.26</ele>
        <time>2012-10-12T08:46:12Z</time>
      </trkpt>
      <trkpt lat="43.43133" lon="6.60749">
        <ele>60.22</ele>
        <time>2012-10-12T08:46:21Z</time>
      </trkpt>
      <trkpt lat="43.43121" lon="6.60747">
        <ele>58.3</ele>
        <time>2012-10-12T08:46:25Z</time>
      </trkpt>
      <trkpt lat="43.43116" lon="6.60749">
        <ele>58.3</ele>
        <time>2012-10-12T08:46:26Z</time>
      </trkpt>
      <trkpt lat="43.43111" lon="6.6075">
        <ele>58.3</ele>
        <time>2012-10-12T08:46:27Z</time>
      </trkpt>
      <trkpt lat="43.43106" lon="6.6075">
        <ele>58.78</ele>
        <time>2012-10-12T08:46:28Z</time>
      </trkpt>
      <trkpt lat="43.43103" lon="6.6075">
        <ele>59.74</ele>
        <time>2012-10-12T08:46:29Z</time>
      </trkpt>
      <trkpt lat="43.43099" lon="6.60749">
        <ele>59.74</ele>
        <time>2012-10-12T08:46:30Z</time>
      </trkpt>
      <trkpt lat="43.43095" lon="6.60747">
        <ele>60.22</ele>
        <time>2012-10-12T08:46:31Z</time>
      </trkpt>
      <trkpt lat="43.43056" lon="6.60725">
        <ele>61.66</ele>
        <time>2012-10-12T08:46:41Z</time>
      </trkpt>
      <trkpt lat="43.43026" lon="6.60699">
        <ele>63.1</ele>
        <time>2012-10-12T08:46:51Z</time>
      </trkpt>
      <trkpt lat="43.43022" lon="6.60693">
        <ele>63.58</ele>
        <time>2012-10-12T08:46:54Z</time>
      </trkpt>
      <trkpt lat="43.43021" lon="6.60685">
        <ele>63.1</ele>
        <time>2012-10-12T08:47:02Z</time>
      </trkpt>
      <trkpt lat="43.43015" lon="6.60662">
        <ele>63.1</ele>
        <time>2012-10-12T08:47:10Z</time>
      </trkpt>
      <trkpt lat="43.43015" lon="6.60651">
        <ele>63.58</ele>
        <time>2012-10-12T08:47:13Z</time>
      </trkpt>
      <trkpt lat="43.43005" lon="6.60624">
        <ele>65.03</ele>
        <time>2012-10-12T08:47:22Z</time>
      </trkpt>
      <trkpt lat="43.42998" lon="6.60621">
        <ele>65.51</ele>
        <time>2012-10-12T08:47:25Z</time>
      </trkpt>
      <trkpt lat="43.42991" lon="6.60614">
        <ele>65.99</ele>
        <time>2012-10-12T08:47:29Z</time>
      </trkpt>
      <trkpt lat="43.42982" lon="6.60585">
        <ele>68.39</ele>
        <time>2012-10-12T08:47:38Z</time>
      </trkpt>
      <trkpt lat="43.42993" lon="6.6057">
        <ele>67.43</ele>
        <time>2012-10-12T08:47:43Z</time>
      </trkpt>
      <trkpt lat="43.43002" lon="6.60545">
        <ele>66.95</ele>
        <time>2012-10-12T08:47:49Z</time>
      </trkpt>
      <trkpt lat="43.42999" lon="6.60529">
        <ele>67.91</ele>
        <time>2012-10-12T08:47:53Z</time>
      </trkpt>
      <trkpt lat="43.42976" lon="6.60505">
        <ele>68.87</ele>
        <time>2012-10-12T08:48:00Z</time>
      </trkpt>
      <trkpt lat="43.4297" lon="6.60502">
        <ele>70.31</ele>
        <time>2012-10-12T08:48:01Z</time>
      </trkpt>
      <trkpt lat="43.42957" lon="6.60489">
        <ele>69.83</ele>
        <time>2012-10-12T08:48:08Z</time>
      </trkpt>
      <trkpt lat="43.42943" lon="6.6047">
        <ele>70.31</ele>
        <time>2012-10-12T08:48:14Z</time>
      </trkpt>
      <trkpt lat="43.42926" lon="6.6045">
        <ele>70.31</ele>
        <time>2012-10-12T08:48:22Z</time>
      </trkpt>
      <trkpt lat="43.42925" lon="6.60444">
        <ele>70.79</ele>
        <time>2012-10-12T08:48:24Z</time>
      </trkpt>
      <trkpt lat="43.42913" lon="6.60422">
        <ele>71.27</ele>
        <time>2012-10-12T08:48:31Z</time>
      </trkpt>
      <trkpt lat="43.42903" lon="6.60401">
        <ele>73.2</ele>
        <time>2012-10-12T08:48:38Z</time>
      </trkpt>
      <trkpt lat="43.42897" lon="6.60379">
        <ele>71.76</ele>
        <time>2012-10-12T08:48:43Z</time>
      </trkpt>
      <trkpt lat="43.42889" lon="6.60366">
        <ele>72.24</ele>
        <time>2012-10-12T08:48:47Z</time>
      </trkpt>
      <trkpt lat="43.42875" lon="6.60342">
        <ele>74.16</ele>
        <time>2012-10-12T08:48:55Z</time>
      </trkpt>
      <trkpt lat="43.42864" lon="6.60328">
        <ele>74.64</ele>
        <time>2012-10-12T08:49:02Z</time>
      </trkpt>
      <trkpt lat="43.42858" lon="6.60317">
        <ele>75.6</ele>
        <time>2012-10-12T08:49:13Z</time>
      </trkpt>
      <trkpt lat="43.42849" lon="6.60308">
        <ele>76.08</ele>
        <time>2012-10-12T08:49:20Z</time>
      </trkpt>
      <trkpt lat="43.42845" lon="6.60305">
        <ele>76.08</ele>
        <time>2012-10-12T08:49:24Z</time>
      </trkpt>
      <trkpt lat="43.42844" lon="6.603">
        <ele>76.08</ele>
        <time>2012-10-12T08:49:27Z</time>
      </trkpt>
      <trkpt lat="43.42849" lon="6.60295">
        <ele>74.16</ele>
        <time>2012-10-12T08:49:29Z</time>
      </trkpt>
      <trkpt lat="43.42856" lon="6.6029">
        <ele>73.68</ele>
        <time>2012-10-12T08:49:35Z</time>
      </trkpt>
      <trkpt lat="43.42857" lon="6.60288">
        <ele>73.2</ele>
        <time>2012-10-12T08:49:36Z</time>
      </trkpt>
      <trkpt lat="43.42849" lon="6.60279">
        <ele>74.64</ele>
        <time>2012-10-12T08:49:40Z</time>
      </trkpt>
      <trkpt lat="43.42849" lon="6.60276">
        <ele>75.12</ele>
        <time>2012-10-12T08:49:42Z</time>
      </trkpt>
      <trkpt lat="43.42851" lon="6.60269">
        <ele>76.08</ele>
        <time>2012-10-12T08:49:47Z</time>
      </trkpt>
      <trkpt lat="43.42844" lon="6.60259">
        <ele>77.04</ele>
        <time>2012-10-12T08:49:51Z</time>
      </trkpt>
      <trkpt lat="43.42833" lon="6.60244">
        <ele>77.52</ele>
        <time>2012-10-12T08:49:59Z</time>
      </trkpt>
      <trkpt lat="43.4283" lon="6.60229">
        <ele>78.48</ele>
        <time>2012-10-12T08:50:08Z</time>
      </trkpt>
      <trkpt lat="43.42829" lon="6.60221">
        <ele>80.41</ele>
        <time>2012-10-12T08:50:18Z</time>
      </trkpt>
      <trkpt lat="43.4283" lon="6.60211">
        <ele>82.81</ele>
        <time>2012-10-12T08:50:29Z</time>
      </trkpt>
      <trkpt lat="43.4283" lon="6.60203">
        <ele>85.21</ele>
        <time>2012-10-12T08:50:38Z</time>
      </trkpt>
      <trkpt lat="43.42831" lon="6.60195">
        <ele>86.66</ele>
        <time>2012-10-12T08:50:48Z</time>
      </trkpt>
      <trkpt lat="43.42833" lon="6.60191">
        <ele>87.62</ele>
        <time>2012-10-12T08:50:52Z</time>
      </trkpt>
      <trkpt lat="43.4284" lon="6.60181">
        <ele>90.5</ele>
        <time>2012-10-12T08:51:03Z</time>
      </trkpt>
      <trkpt lat="43.42847" lon="6.60169">
        <ele>91.94</ele>
        <time>2012-10-12T08:51:14Z</time>
      </trkpt>
      <trkpt lat="43.42853" lon="6.60159">
        <ele>93.87</ele>
        <time>2012-10-12T08:51:24Z</time>
      </trkpt>
      <trkpt lat="43.42856" lon="6.60149">
        <ele>95.31</ele>
        <time>2012-10-12T08:51:33Z</time>
      </trkpt>
      <trkpt lat="43.42861" lon="6.60138">
        <ele>98.67</ele>
        <time>2012-10-12T08:51:44Z</time>
      </trkpt>
      <trkpt lat="43.42863" lon="6.60132">
        <ele>99.63</ele>
        <time>2012-10-12T08:51:50Z</time>
      </trkpt>
      <trkpt lat="43.42867" lon="6.60124">
        <ele>101.56</ele>
        <time>2012-10-12T08:51:57Z</time>
      </trkpt>
      <trkpt lat="43.42874" lon="6.60109">
        <ele>103</ele>
        <time>2012-10-12T08:52:10Z</time>
      </trkpt>
      <trkpt lat="43.42877" lon="6.60097">
        <ele>104.92</ele>
        <time>2012-10-12T08:52:21Z</time>
      </trkpt>
      <trkpt lat="43.42878" lon="6.60087">
        <ele>103.96</ele>
        <time>2012-10-12T08:52:26Z</time>
      </trkpt>
      <trkpt lat="43.42882" lon="6.60073">
        <ele>103.48</ele>
        <time>2012-10-12T08:52:29Z</time>
      </trkpt>
      <trkpt lat="43.42869" lon="6.60049">
        <ele>103.48</ele>
        <time>2012-10-12T08:52:35Z</time>
      </trkpt>
      <trkpt lat="43.42856" lon="6.60034">
        <ele>106.36</ele>
        <time>2012-10-12T08:52:45Z</time>
      </trkpt>
      <trkpt lat="43.42852" lon="6.60027">
        <ele>107.32</ele>
        <time>2012-10-12T08:52:49Z</time>
      </trkpt>
      <trkpt lat="43.42842" lon="6.60009">
        <ele>110.21</ele>
        <time>2012-10-12T08:52:59Z</time>
      </trkpt>
      <trkpt lat="43.42835" lon="6.60007">
        <ele>111.17</ele>
        <time>2012-10-12T08:53:04Z</time>
      </trkpt>
      <trkpt lat="43.42826" lon="6.60002">
        <ele>112.13</ele>
        <time>2012-10-12T08:53:09Z</time>
      </trkpt>
      <trkpt lat="43.4282" lon="6.59999">
        <ele>113.09</ele>
        <time>2012-10-12T08:53:13Z</time>
      </trkpt>
      <trkpt lat="43.42813" lon="6.59997">
        <ele>113.57</ele>
        <time>2012-10-12T08:53:17Z</time>
      </trkpt>
      <trkpt lat="43.42807" lon="6.59996">
        <ele>114.05</ele>
        <time>2012-10-12T08:53:20Z</time>
      </trkpt>
      <trkpt lat="43.42792" lon="6.59997">
        <ele>115.98</ele>
        <time>2012-10-12T08:53:30Z</time>
      </trkpt>
      <trkpt lat="43.42783" lon="6.59994">
        <ele>117.42</ele>
        <time>2012-10-12T08:53:36Z</time>
      </trkpt>
      <trkpt lat="43.42778" lon="6.59982">
        <ele>117.9</ele>
        <time>2012-10-12T08:53:43Z</time>
      </trkpt>
      <trkpt lat="43.42774" lon="6.59953">
        <ele>120.3</ele>
        <time>2012-10-12T08:53:54Z</time>
      </trkpt>
      <trkpt lat="43.42769" lon="6.59923">
        <ele>121.74</ele>
        <time>2012-10-12T08:54:06Z</time>
      </trkpt>
      <trkpt lat="43.42778" lon="6.59889">
        <ele>122.71</ele>
        <time>2012-10-12T08:54:17Z</time>
      </trkpt>
      <trkpt lat="43.42783" lon="6.59863">
        <ele>124.15</ele>
        <time>2012-10-12T08:54:26Z</time>
      </trkpt>
      <trkpt lat="43.42783" lon="6.59837">
        <ele>125.59</ele>
        <time>2012-10-12T08:54:34Z</time>
      </trkpt>
      <trkpt lat="43.42782" lon="6.59834">
        <ele>126.07</ele>
        <time>2012-10-12T08:54:35Z</time>
      </trkpt>
      <trkpt lat="43.4277" lon="6.59824">
        <ele>127.51</ele>
        <time>2012-10-12T08:54:41Z</time>
      </trkpt>
      <trkpt lat="43.4277" lon="6.5982">
        <ele>127.99</ele>
        <time>2012-10-12T08:54:43Z</time>
      </trkpt>
      <trkpt lat="43.42758" lon="6.5981">
        <ele>128.95</ele>
        <time>2012-10-12T08:54:49Z</time>
      </trkpt>
      <trkpt lat="43.42757" lon="6.59809">
        <ele>129.43</ele>
        <time>2012-10-12T08:54:50Z</time>
      </trkpt>
      <trkpt lat="43.42754" lon="6.59805">
        <ele>129.92</ele>
        <time>2012-10-12T08:54:53Z</time>
      </trkpt>
      <trkpt lat="43.42753" lon="6.598">
        <ele>130.4</ele>
        <time>2012-10-12T08:54:56Z</time>
      </trkpt>
      <trkpt lat="43.42742" lon="6.59776">
        <ele>133.28</ele>
        <time>2012-10-12T08:55:08Z</time>
      </trkpt>
      <trkpt lat="43.42741" lon="6.5977">
        <ele>133.76</ele>
        <time>2012-10-12T08:55:11Z</time>
      </trkpt>
      <trkpt lat="43.42742" lon="6.59758">
        <ele>134.24</ele>
        <time>2012-10-12T08:55:16Z</time>
      </trkpt>
      <trkpt lat="43.42738" lon="6.59747">
        <ele>134.72</ele>
        <time>2012-10-12T08:55:21Z</time>
      </trkpt>
      <trkpt lat="43.42725" lon="6.59736">
        <ele>135.68</ele>
        <time>2012-10-12T08:55:28Z</time>
      </trkpt>
      <trkpt lat="43.42719" lon="6.59738">
        <ele>136.64</ele>
        <time>2012-10-12T08:55:31Z</time>
      </trkpt>
      <trkpt lat="43.42711" lon="6.59737">
        <ele>137.61</ele>
        <time>2012-10-12T08:55:35Z</time>
      </trkpt>
      <trkpt lat="43.42695" lon="6.59741">
        <ele>139.53</ele>
        <time>2012-10-12T08:55:45Z</time>
      </trkpt>
      <trkpt lat="43.42691" lon="6.59739">
        <ele>140.01</ele>
        <time>2012-10-12T08:55:48Z</time>
      </trkpt>
      <trkpt lat="43.42688" lon="6.59738">
        <ele>140.97</ele>
        <time>2012-10-12T08:55:50Z</time>
      </trkpt>
      <trkpt lat="43.42677" lon="6.59731">
        <ele>144.34</ele>
        <time>2012-10-12T08:56:00Z</time>
      </trkpt>
      <trkpt lat="43.42672" lon="6.59726">
        <ele>145.3</ele>
        <time>2012-10-12T08:56:04Z</time>
      </trkpt>
      <trkpt lat="43.42669" lon="6.59725">
        <ele>145.78</ele>
        <time>2012-10-12T08:56:07Z</time>
      </trkpt>
      <trkpt lat="43.42657" lon="6.59717">
        <ele>147.22</ele>
        <time>2012-10-12T08:56:17Z</time>
      </trkpt>
      <trkpt lat="43.42643" lon="6.59714">
        <ele>149.62</ele>
        <time>2012-10-12T08:56:28Z</time>
      </trkpt>
      <trkpt lat="43.42641" lon="6.59714">
        <ele>150.1</ele>
        <time>2012-10-12T08:56:29Z</time>
      </trkpt>
      <trkpt lat="43.42637" lon="6.59712">
        <ele>150.58</ele>
        <time>2012-10-12T08:56:32Z</time>
      </trkpt>
      <trkpt lat="43.42633" lon="6.59708">
        <ele>151.54</ele>
        <time>2012-10-12T08:56:36Z</time>
      </trkpt>
      <trkpt lat="43.42631" lon="6.59705">
        <ele>152.03</ele>
        <time>2012-10-12T08:56:38Z</time>
      </trkpt>
      <trkpt lat="43.42623" lon="6.5969">
        <ele>153.95</ele>
        <time>2012-10-12T08:56:49Z</time>
      </trkpt>
      <trkpt lat="43.4262" lon="6.59683">
        <ele>154.91</ele>
        <time>2012-10-12T08:56:53Z</time>
      </trkpt>
      <trkpt lat="43.42619" lon="6.5968">
        <ele>155.39</ele>
        <time>2012-10-12T08:56:55Z</time>
      </trkpt>
      <trkpt lat="43.42611" lon="6.59669">
        <ele>156.83</ele>
        <time>2012-10-12T08:57:03Z</time>
      </trkpt>
      <trkpt lat="43.42601" lon="6.59659">
        <ele>157.79</ele>
        <time>2012-10-12T08:57:12Z</time>
      </trkpt>
      <trkpt lat="43.42581" lon="6.59644">
        <ele>159.24</ele>
        <time>2012-10-12T08:57:25Z</time>
      </trkpt>
      <trkpt lat="43.42556" lon="6.59646">
        <ele>159.72</ele>
        <time>2012-10-12T08:57:37Z</time>
      </trkpt>
      <trkpt lat="43.42554" lon="6.59646">
        <ele>160.2</ele>
        <time>2012-10-12T08:57:38Z</time>
      </trkpt>
      <trkpt lat="43.42541" lon="6.59632">
        <ele>160.68</ele>
        <time>2012-10-12T08:57:46Z</time>
      </trkpt>
      <trkpt lat="43.4254" lon="6.5963">
        <ele>161.16</ele>
        <time>2012-10-12T08:57:47Z</time>
      </trkpt>
      <trkpt lat="43.42521" lon="6.59605">
        <ele>161.16</ele>
        <time>2012-10-12T08:57:57Z</time>
      </trkpt>
      <trkpt lat="43.425" lon="6.5961">
        <ele>164.04</ele>
        <time>2012-10-12T08:58:07Z</time>
      </trkpt>
      <trkpt lat="43.42492" lon="6.59614">
        <ele>165</ele>
        <time>2012-10-12T08:58:12Z</time>
      </trkpt>
      <trkpt lat="43.42473" lon="6.59619">
        <ele>166.45</ele>
        <time>2012-10-12T08:58:23Z</time>
      </trkpt>
      <trkpt lat="43.42472" lon="6.59618">
        <ele>166.93</ele>
        <time>2012-10-12T08:58:24Z</time>
      </trkpt>
      <trkpt lat="43.42467" lon="6.59616">
        <ele>167.41</ele>
        <time>2012-10-12T08:58:27Z</time>
      </trkpt>
      <trkpt lat="43.42463" lon="6.59598">
        <ele>166.93</ele>
        <time>2012-10-12T08:58:34Z</time>
      </trkpt>
      <trkpt lat="43.42456" lon="6.59563">
        <ele>168.37</ele>
        <time>2012-10-12T08:58:46Z</time>
      </trkpt>
      <trkpt lat="43.42443" lon="6.59539">
        <ele>168.85</ele>
        <time>2012-10-12T08:58:55Z</time>
      </trkpt>
      <trkpt lat="43.42439" lon="6.59518">
        <ele>169.33</ele>
        <time>2012-10-12T08:59:01Z</time>
      </trkpt>
      <trkpt lat="43.42421" lon="6.59516">
        <ele>169.33</ele>
        <time>2012-10-12T08:59:07Z</time>
      </trkpt>
      <trkpt lat="43.424" lon="6.59528">
        <ele>168.85</ele>
        <time>2012-10-12T08:59:14Z</time>
      </trkpt>
      <trkpt lat="43.42381" lon="6.59529">
        <ele>167.41</ele>
        <time>2012-10-12T08:59:18Z</time>
      </trkpt>
      <trkpt lat="43.42369" lon="6.59524">
        <ele>166.93</ele>
        <time>2012-10-12T08:59:21Z</time>
      </trkpt>
      <trkpt lat="43.42364" lon="6.5952">
        <ele>166.93</ele>
        <time>2012-10-12T08:59:22Z</time>
      </trkpt>
      <trkpt lat="43.42349" lon="6.595">
        <ele>168.37</ele>
        <time>2012-10-12T08:59:27Z</time>
      </trkpt>
      <trkpt lat="43.42345" lon="6.59477">
        <ele>167.89</ele>
        <time>2012-10-12T08:59:32Z</time>
      </trkpt>
      <trkpt lat="43.42332" lon="6.59474">
        <ele>167.89</ele>
        <time>2012-10-12T08:59:37Z</time>
      </trkpt>
      <trkpt lat="43.42316" lon="6.59486">
        <ele>167.89</ele>
        <time>2012-10-12T08:59:43Z</time>
      </trkpt>
      <trkpt lat="43.42299" lon="6.59479">
        <ele>166.45</ele>
        <time>2012-10-12T08:59:47Z</time>
      </trkpt>
      <trkpt lat="43.42286" lon="6.59472">
        <ele>166.45</ele>
        <time>2012-10-12T08:59:50Z</time>
      </trkpt>
      <trkpt lat="43.42253" lon="6.59487">
        <ele>163.56</ele>
        <time>2012-10-12T08:59:57Z</time>
      </trkpt>
      <trkpt lat="43.42249" lon="6.59495">
        <ele>165.48</ele>
        <time>2012-10-12T09:00:00Z</time>
      </trkpt>
      <trkpt lat="43.42246" lon="6.59504">
        <ele>166.93</ele>
        <time>2012-10-12T09:00:09Z</time>
      </trkpt>
      <trkpt lat="43.42242" lon="6.59512">
        <ele>169.81</ele>
        <time>2012-10-12T09:00:20Z</time>
      </trkpt>
      <trkpt lat="43.42242" lon="6.5952">
        <ele>172.21</ele>
        <time>2012-10-12T09:00:30Z</time>
      </trkpt>
      <trkpt lat="43.42241" lon="6.59526">
        <ele>174.14</ele>
        <time>2012-10-12T09:00:39Z</time>
      </trkpt>
      <trkpt lat="43.42241" lon="6.59527">
        <ele>174.62</ele>
        <time>2012-10-12T09:00:41Z</time>
      </trkpt>
      <trkpt lat="43.42241" lon="6.59535">
        <ele>176.54</ele>
        <time>2012-10-12T09:00:50Z</time>
      </trkpt>
      <trkpt lat="43.42242" lon="6.59545">
        <ele>178.46</ele>
        <time>2012-10-12T09:01:00Z</time>
      </trkpt>
      <trkpt lat="43.42243" lon="6.59551">
        <ele>178.94</ele>
        <time>2012-10-12T09:01:04Z</time>
      </trkpt>
      <trkpt lat="43.42243" lon="6.5956">
        <ele>179.9</ele>
        <time>2012-10-12T09:01:15Z</time>
      </trkpt>
      <trkpt lat="43.42242" lon="6.59561">
        <ele>179.9</ele>
        <time>2012-10-12T09:01:19Z</time>
      </trkpt>
      <trkpt lat="43.42234" lon="6.59573">
        <ele>181.35</ele>
        <time>2012-10-12T09:01:29Z</time>
      </trkpt>
      <trkpt lat="43.42227" lon="6.59579">
        <ele>182.31</ele>
        <time>2012-10-12T09:01:35Z</time>
      </trkpt>
      <trkpt lat="43.42226" lon="6.59596">
        <ele>184.23</ele>
        <time>2012-10-12T09:01:42Z</time>
      </trkpt>
      <trkpt lat="43.42218" lon="6.59621">
        <ele>185.67</ele>
        <time>2012-10-12T09:01:54Z</time>
      </trkpt>
      <trkpt lat="43.4221" lon="6.59639">
        <ele>188.08</ele>
        <time>2012-10-12T09:02:03Z</time>
      </trkpt>
      <trkpt lat="43.42206" lon="6.59646">
        <ele>188.56</ele>
        <time>2012-10-12T09:02:08Z</time>
      </trkpt>
      <trkpt lat="43.42203" lon="6.5965">
        <ele>189.52</ele>
        <time>2012-10-12T09:02:11Z</time>
      </trkpt>
      <trkpt lat="43.42198" lon="6.59654">
        <ele>191.44</ele>
        <time>2012-10-12T09:02:15Z</time>
      </trkpt>
      <trkpt lat="43.42194" lon="6.59658">
        <ele>192.88</ele>
        <time>2012-10-12T09:02:19Z</time>
      </trkpt>
      <trkpt lat="43.4218" lon="6.59666">
        <ele>192.4</ele>
        <time>2012-10-12T09:02:27Z</time>
      </trkpt>
      <trkpt lat="43.42171" lon="6.59672">
        <ele>191.44</ele>
        <time>2012-10-12T09:02:30Z</time>
      </trkpt>
      <trkpt lat="43.4216" lon="6.59682">
        <ele>190</ele>
        <time>2012-10-12T09:02:33Z</time>
      </trkpt>
      <trkpt lat="43.42152" lon="6.59689">
        <ele>189.52</ele>
        <time>2012-10-12T09:02:35Z</time>
      </trkpt>
      <trkpt lat="43.42135" lon="6.59721">
        <ele>191.92</ele>
        <time>2012-10-12T09:02:44Z</time>
      </trkpt>
      <trkpt lat="43.42125" lon="6.59749">
        <ele>193.84</ele>
        <time>2012-10-12T09:02:54Z</time>
      </trkpt>
      <trkpt lat="43.42114" lon="6.59771">
        <ele>195.77</ele>
        <time>2012-10-12T09:03:04Z</time>
      </trkpt>
      <trkpt lat="43.42099" lon="6.59793">
        <ele>195.28</ele>
        <time>2012-10-12T09:03:13Z</time>
      </trkpt>
      <trkpt lat="43.42088" lon="6.59822">
        <ele>197.69</ele>
        <time>2012-10-12T09:03:22Z</time>
      </trkpt>
      <trkpt lat="43.42068" lon="6.59856">
        <ele>197.69</ele>
        <time>2012-10-12T09:03:33Z</time>
      </trkpt>
      <trkpt lat="43.42067" lon="6.59865">
        <ele>196.73</ele>
        <time>2012-10-12T09:03:35Z</time>
      </trkpt>
      <trkpt lat="43.42068" lon="6.59871">
        <ele>196.25</ele>
        <time>2012-10-12T09:03:36Z</time>
      </trkpt>
      <trkpt lat="43.42069" lon="6.59876">
        <ele>196.25</ele>
        <time>2012-10-12T09:03:37Z</time>
      </trkpt>
      <trkpt lat="43.42072" lon="6.59879">
        <ele>196.25</ele>
        <time>2012-10-12T09:03:38Z</time>
      </trkpt>
      <trkpt lat="43.42075" lon="6.59881">
        <ele>196.25</ele>
        <time>2012-10-12T09:03:39Z</time>
      </trkpt>
      <trkpt lat="43.42079" lon="6.59883">
        <ele>195.77</ele>
        <time>2012-10-12T09:03:40Z</time>
      </trkpt>
      <trkpt lat="43.42083" lon="6.59883">
        <ele>196.25</ele>
        <time>2012-10-12T09:03:41Z</time>
      </trkpt>
      <trkpt lat="43.42086" lon="6.59882">
        <ele>196.25</ele>
        <time>2012-10-12T09:03:42Z</time>
      </trkpt>
      <trkpt lat="43.4209" lon="6.59881">
        <ele>195.77</ele>
        <time>2012-10-12T09:03:43Z</time>
      </trkpt>
      <trkpt lat="43.42093" lon="6.59879">
        <ele>195.77</ele>
        <time>2012-10-12T09:03:44Z</time>
      </trkpt>
      <trkpt lat="43.42095" lon="6.59877">
        <ele>195.77</ele>
        <time>2012-10-12T09:03:45Z</time>
      </trkpt>
      <trkpt lat="43.42097" lon="6.59874">
        <ele>195.77</ele>
        <time>2012-10-12T09:03:46Z</time>
      </trkpt>
      <trkpt lat="43.421" lon="6.59871">
        <ele>195.77</ele>
        <time>2012-10-12T09:03:47Z</time>
      </trkpt>
      <trkpt lat="43.42102" lon="6.59868">
        <ele>196.25</ele>
        <time>2012-10-12T09:03:48Z</time>
      </trkpt>
      <trkpt lat="43.42104" lon="6.59866">
        <ele>196.25</ele>
        <time>2012-10-12T09:03:49Z</time>
      </trkpt>
      <trkpt lat="43.42118" lon="6.59846">
        <ele>197.69</ele>
        <time>2012-10-12T09:03:56Z</time>
      </trkpt>
      <trkpt lat="43.42145" lon="6.59829">
        <ele>198.65</ele>
        <time>2012-10-12T09:04:06Z</time>
      </trkpt>
      <trkpt lat="43.42167" lon="6.59826">
        <ele>200.09</ele>
        <time>2012-10-12T09:04:15Z</time>
      </trkpt>
      <trkpt lat="43.42179" lon="6.59826">
        <ele>201.05</ele>
        <time>2012-10-12T09:04:20Z</time>
      </trkpt>
      <trkpt lat="43.42181" lon="6.59827">
        <ele>201.53</ele>
        <time>2012-10-12T09:04:21Z</time>
      </trkpt>
      <trkpt lat="43.42201" lon="6.59846">
        <ele>203.94</ele>
        <time>2012-10-12T09:04:32Z</time>
      </trkpt>
      <trkpt lat="43.42217" lon="6.59863">
        <ele>205.86</ele>
        <time>2012-10-12T09:04:41Z</time>
      </trkpt>
      <trkpt lat="43.42231" lon="6.5988">
        <ele>208.74</ele>
        <time>2012-10-12T09:04:51Z</time>
      </trkpt>
      <trkpt lat="43.42236" lon="6.59887">
        <ele>209.7</ele>
        <time>2012-10-12T09:04:55Z</time>
      </trkpt>
      <trkpt lat="43.42236" lon="6.59889">
        <ele>210.19</ele>
        <time>2012-10-12T09:04:56Z</time>
      </trkpt>
      <trkpt lat="43.42237" lon="6.59891">
        <ele>210.67</ele>
        <time>2012-10-12T09:04:57Z</time>
      </trkpt>
      <trkpt lat="43.4224" lon="6.59899">
        <ele>211.63</ele>
        <time>2012-10-12T09:05:01Z</time>
      </trkpt>
      <trkpt lat="43.42241" lon="6.59902">
        <ele>211.63</ele>
        <time>2012-10-12T09:05:02Z</time>
      </trkpt>
      <trkpt lat="43.42242" lon="6.59904">
        <ele>212.11</ele>
        <time>2012-10-12T09:05:03Z</time>
      </trkpt>
      <trkpt lat="43.42243" lon="6.59907">
        <ele>212.11</ele>
        <time>2012-10-12T09:05:04Z</time>
      </trkpt>
      <trkpt lat="43.42243" lon="6.59909">
        <ele>212.11</ele>
        <time>2012-10-12T09:05:05Z</time>
      </trkpt>
      <trkpt lat="43.42244" lon="6.59911">
        <ele>213.07</ele>
        <time>2012-10-12T09:05:06Z</time>
      </trkpt>
      <trkpt lat="43.42245" lon="6.59914">
        <ele>213.07</ele>
        <time>2012-10-12T09:05:07Z</time>
      </trkpt>
      <trkpt lat="43.42245" lon="6.59916">
        <ele>213.07</ele>
        <time>2012-10-12T09:05:08Z</time>
      </trkpt>
      <trkpt lat="43.42247" lon="6.59939">
        <ele>215.47</ele>
        <time>2012-10-12T09:05:18Z</time>
      </trkpt>
      <trkpt lat="43.42248" lon="6.59941">
        <ele>215.47</ele>
        <time>2012-10-12T09:05:19Z</time>
      </trkpt>
      <trkpt lat="43.42247" lon="6.59944">
        <ele>215.47</ele>
        <time>2012-10-12T09:05:20Z</time>
      </trkpt>
      <trkpt lat="43.42248" lon="6.5995">
        <ele>216.91</ele>
        <time>2012-10-12T09:05:23Z</time>
      </trkpt>
      <trkpt lat="43.42248" lon="6.59952">
        <ele>217.4</ele>
        <time>2012-10-12T09:05:24Z</time>
      </trkpt>
      <trkpt lat="43.42248" lon="6.59954">
        <ele>217.4</ele>
        <time>2012-10-12T09:05:25Z</time>
      </trkpt>
      <trkpt lat="43.42248" lon="6.59957">
        <ele>217.4</ele>
        <time>2012-10-12T09:05:26Z</time>
      </trkpt>
      <trkpt lat="43.42248" lon="6.59959">
        <ele>217.88</ele>
        <time>2012-10-12T09:05:27Z</time>
      </trkpt>
      <trkpt lat="43.42248" lon="6.59962">
        <ele>218.36</ele>
        <time>2012-10-12T09:05:28Z</time>
      </trkpt>
      <trkpt lat="43.42244" lon="6.59973">
        <ele>219.32</ele>
        <time>2012-10-12T09:05:33Z</time>
      </trkpt>
      <trkpt lat="43.42243" lon="6.59974">
        <ele>219.32</ele>
        <time>2012-10-12T09:05:34Z</time>
      </trkpt>
      <trkpt lat="43.42241" lon="6.59976">
        <ele>219.32</ele>
        <time>2012-10-12T09:05:35Z</time>
      </trkpt>
      <trkpt lat="43.4224" lon="6.59977">
        <ele>219.32</ele>
        <time>2012-10-12T09:05:36Z</time>
      </trkpt>
      <trkpt lat="43.42238" lon="6.59978">
        <ele>220.28</ele>
        <time>2012-10-12T09:05:37Z</time>
      </trkpt>
      <trkpt lat="43.42236" lon="6.59979">
        <ele>219.32</ele>
        <time>2012-10-12T09:05:38Z</time>
      </trkpt>
      <trkpt lat="43.42235" lon="6.5998">
        <ele>219.8</ele>
        <time>2012-10-12T09:05:39Z</time>
      </trkpt>
      <trkpt lat="43.42233" lon="6.5998">
        <ele>219.8</ele>
        <time>2012-10-12T09:05:40Z</time>
      </trkpt>
      <trkpt lat="43.42231" lon="6.59981">
        <ele>218.84</ele>
        <time>2012-10-12T09:05:41Z</time>
      </trkpt>
      <trkpt lat="43.42229" lon="6.59982">
        <ele>219.8</ele>
        <time>2012-10-12T09:05:42Z</time>
      </trkpt>
      <trkpt lat="43.42227" lon="6.59983">
        <ele>219.8</ele>
        <time>2012-10-12T09:05:43Z</time>
      </trkpt>
      <trkpt lat="43.42225" lon="6.59985">
        <ele>220.28</ele>
        <time>2012-10-12T09:05:44Z</time>
      </trkpt>
      <trkpt lat="43.42202" lon="6.60015">
        <ele>219.32</ele>
        <time>2012-10-12T09:05:54Z</time>
      </trkpt>
      <trkpt lat="43.42196" lon="6.60024">
        <ele>218.84</ele>
        <time>2012-10-12T09:05:56Z</time>
      </trkpt>
      <trkpt lat="43.42182" lon="6.6004">
        <ele>219.8</ele>
        <time>2012-10-12T09:06:00Z</time>
      </trkpt>
      <trkpt lat="43.42179" lon="6.60044">
        <ele>220.28</ele>
        <time>2012-10-12T09:06:01Z</time>
      </trkpt>
      <trkpt lat="43.42155" lon="6.60079">
        <ele>222.2</ele>
        <time>2012-10-12T09:06:11Z</time>
      </trkpt>
      <trkpt lat="43.42133" lon="6.60118">
        <ele>223.16</ele>
        <time>2012-10-12T09:06:21Z</time>
      </trkpt>
      <trkpt lat="43.42115" lon="6.60167">
        <ele>224.12</ele>
        <time>2012-10-12T09:06:33Z</time>
      </trkpt>
      <trkpt lat="43.42115" lon="6.60181">
        <ele>224.12</ele>
        <time>2012-10-12T09:06:36Z</time>
      </trkpt>
      <trkpt lat="43.42116" lon="6.60185">
        <ele>224.12</ele>
        <time>2012-10-12T09:06:37Z</time>
      </trkpt>
      <trkpt lat="43.42119" lon="6.60189">
        <ele>224.12</ele>
        <time>2012-10-12T09:06:38Z</time>
      </trkpt>
      <trkpt lat="43.42125" lon="6.60199">
        <ele>224.12</ele>
        <time>2012-10-12T09:06:40Z</time>
      </trkpt>
      <trkpt lat="43.42144" lon="6.60237">
        <ele>222.68</ele>
        <time>2012-10-12T09:06:47Z</time>
      </trkpt>
      <trkpt lat="43.4216" lon="6.6027">
        <ele>220.76</ele>
        <time>2012-10-12T09:06:52Z</time>
      </trkpt>
      <trkpt lat="43.42165" lon="6.60285">
        <ele>219.8</ele>
        <time>2012-10-12T09:06:54Z</time>
      </trkpt>
      <trkpt lat="43.42175" lon="6.60314">
        <ele>216.43</ele>
        <time>2012-10-12T09:06:57Z</time>
      </trkpt>
      <trkpt lat="43.42176" lon="6.60326">
        <ele>214.03</ele>
        <time>2012-10-12T09:06:58Z</time>
      </trkpt>
      <trkpt lat="43.42176" lon="6.60339">
        <ele>213.55</ele>
        <time>2012-10-12T09:06:59Z</time>
      </trkpt>
      <trkpt lat="43.42175" lon="6.6035">
        <ele>214.03</ele>
        <time>2012-10-12T09:07:00Z</time>
      </trkpt>
      <trkpt lat="43.42174" lon="6.6036">
        <ele>215.47</ele>
        <time>2012-10-12T09:07:01Z</time>
      </trkpt>
      <trkpt lat="43.42172" lon="6.60376">
        <ele>216.43</ele>
        <time>2012-10-12T09:07:03Z</time>
      </trkpt>
      <trkpt lat="43.42173" lon="6.60383">
        <ele>215.95</ele>
        <time>2012-10-12T09:07:04Z</time>
      </trkpt>
      <trkpt lat="43.42176" lon="6.60389">
        <ele>215.47</ele>
        <time>2012-10-12T09:07:05Z</time>
      </trkpt>
      <trkpt lat="43.42181" lon="6.60395">
        <ele>214.99</ele>
        <time>2012-10-12T09:07:06Z</time>
      </trkpt>
      <trkpt lat="43.42187" lon="6.60399">
        <ele>213.07</ele>
        <time>2012-10-12T09:07:07Z</time>
      </trkpt>
      <trkpt lat="43.42194" lon="6.60404">
        <ele>212.59</ele>
        <time>2012-10-12T09:07:08Z</time>
      </trkpt>
      <trkpt lat="43.4221" lon="6.60413">
        <ele>210.19</ele>
        <time>2012-10-12T09:07:10Z</time>
      </trkpt>
      <trkpt lat="43.4222" lon="6.60417">
        <ele>209.22</ele>
        <time>2012-10-12T09:07:11Z</time>
      </trkpt>
      <trkpt lat="43.4224" lon="6.60423">
        <ele>208.26</ele>
        <time>2012-10-12T09:07:13Z</time>
      </trkpt>
      <trkpt lat="43.4225" lon="6.60424">
        <ele>206.82</ele>
        <time>2012-10-12T09:07:14Z</time>
      </trkpt>
      <trkpt lat="43.42261" lon="6.60423">
        <ele>206.34</ele>
        <time>2012-10-12T09:07:15Z</time>
      </trkpt>
      <trkpt lat="43.4227" lon="6.60419">
        <ele>205.38</ele>
        <time>2012-10-12T09:07:16Z</time>
      </trkpt>
      <trkpt lat="43.42278" lon="6.60413">
        <ele>205.86</ele>
        <time>2012-10-12T09:07:17Z</time>
      </trkpt>
      <trkpt lat="43.42285" lon="6.60408">
        <ele>205.38</ele>
        <time>2012-10-12T09:07:18Z</time>
      </trkpt>
      <trkpt lat="43.42291" lon="6.60404">
        <ele>204.9</ele>
        <time>2012-10-12T09:07:19Z</time>
      </trkpt>
      <trkpt lat="43.42296" lon="6.60404">
        <ele>204.42</ele>
        <time>2012-10-12T09:07:20Z</time>
      </trkpt>
      <trkpt lat="43.42299" lon="6.60408">
        <ele>203.94</ele>
        <time>2012-10-12T09:07:21Z</time>
      </trkpt>
      <trkpt lat="43.42301" lon="6.60414">
        <ele>203.94</ele>
        <time>2012-10-12T09:07:22Z</time>
      </trkpt>
      <trkpt lat="43.423" lon="6.60421">
        <ele>203.46</ele>
        <time>2012-10-12T09:07:23Z</time>
      </trkpt>
      <trkpt lat="43.42298" lon="6.60427">
        <ele>203.46</ele>
        <time>2012-10-12T09:07:24Z</time>
      </trkpt>
      <trkpt lat="43.42295" lon="6.60433">
        <ele>202.98</ele>
        <time>2012-10-12T09:07:25Z</time>
      </trkpt>
      <trkpt lat="43.42291" lon="6.60438">
        <ele>202.49</ele>
        <time>2012-10-12T09:07:26Z</time>
      </trkpt>
      <trkpt lat="43.42286" lon="6.60442">
        <ele>201.53</ele>
        <time>2012-10-12T09:07:27Z</time>
      </trkpt>
      <trkpt lat="43.42279" lon="6.60446">
        <ele>200.09</ele>
        <time>2012-10-12T09:07:28Z</time>
      </trkpt>
      <trkpt lat="43.42257" lon="6.60459">
        <ele>198.17</ele>
        <time>2012-10-12T09:07:31Z</time>
      </trkpt>
      <trkpt lat="43.42251" lon="6.60467">
        <ele>196.73</ele>
        <time>2012-10-12T09:07:32Z</time>
      </trkpt>
      <trkpt lat="43.42248" lon="6.60477">
        <ele>196.73</ele>
        <time>2012-10-12T09:07:33Z</time>
      </trkpt>
      <trkpt lat="43.42242" lon="6.60517">
        <ele>196.25</ele>
        <time>2012-10-12T09:07:37Z</time>
      </trkpt>
      <trkpt lat="43.42243" lon="6.60527">
        <ele>194.32</ele>
        <time>2012-10-12T09:07:38Z</time>
      </trkpt>
      <trkpt lat="43.42247" lon="6.60537">
        <ele>192.88</ele>
        <time>2012-10-12T09:07:39Z</time>
      </trkpt>
      <trkpt lat="43.42251" lon="6.60545">
        <ele>194.8</ele>
        <time>2012-10-12T09:07:40Z</time>
      </trkpt>
      <trkpt lat="43.42253" lon="6.60552">
        <ele>194.8</ele>
        <time>2012-10-12T09:07:41Z</time>
      </trkpt>
      <trkpt lat="43.42253" lon="6.60559">
        <ele>194.32</ele>
        <time>2012-10-12T09:07:42Z</time>
      </trkpt>
      <trkpt lat="43.42251" lon="6.60566">
        <ele>193.36</ele>
        <time>2012-10-12T09:07:43Z</time>
      </trkpt>
      <trkpt lat="43.42247" lon="6.60572">
        <ele>192.88</ele>
        <time>2012-10-12T09:07:44Z</time>
      </trkpt>
      <trkpt lat="43.42241" lon="6.60578">
        <ele>191.92</ele>
        <time>2012-10-12T09:07:45Z</time>
      </trkpt>
      <trkpt lat="43.42235" lon="6.60582">
        <ele>190.48</ele>
        <time>2012-10-12T09:07:46Z</time>
      </trkpt>
      <trkpt lat="43.42214" lon="6.60599">
        <ele>187.11</ele>
        <time>2012-10-12T09:07:49Z</time>
      </trkpt>
      <trkpt lat="43.422" lon="6.60616">
        <ele>185.67</ele>
        <time>2012-10-12T09:07:51Z</time>
      </trkpt>
      <trkpt lat="43.42194" lon="6.60627">
        <ele>185.67</ele>
        <time>2012-10-12T09:07:52Z</time>
      </trkpt>
      <trkpt lat="43.42189" lon="6.60638">
        <ele>184.23</ele>
        <time>2012-10-12T09:07:53Z</time>
      </trkpt>
      <trkpt lat="43.42185" lon="6.6065">
        <ele>183.75</ele>
        <time>2012-10-12T09:07:54Z</time>
      </trkpt>
      <trkpt lat="43.42182" lon="6.60662">
        <ele>183.27</ele>
        <time>2012-10-12T09:07:55Z</time>
      </trkpt>
      <trkpt lat="43.42173" lon="6.60699">
        <ele>182.31</ele>
        <time>2012-10-12T09:07:58Z</time>
      </trkpt>
      <trkpt lat="43.42172" lon="6.60712">
        <ele>181.83</ele>
        <time>2012-10-12T09:07:59Z</time>
      </trkpt>
      <trkpt lat="43.42173" lon="6.60724">
        <ele>181.35</ele>
        <time>2012-10-12T09:08:00Z</time>
      </trkpt>
      <trkpt lat="43.42177" lon="6.60744">
        <ele>184.23</ele>
        <time>2012-10-12T09:08:02Z</time>
      </trkpt>
      <trkpt lat="43.42178" lon="6.6075">
        <ele>185.19</ele>
        <time>2012-10-12T09:08:03Z</time>
      </trkpt>
      <trkpt lat="43.42177" lon="6.60754">
        <ele>185.67</ele>
        <time>2012-10-12T09:08:04Z</time>
      </trkpt>
      <trkpt lat="43.42176" lon="6.60756">
        <ele>187.11</ele>
        <time>2012-10-12T09:08:06Z</time>
      </trkpt>
      <trkpt lat="43.42178" lon="6.60756">
        <ele>186.63</ele>
        <time>2012-10-12T09:08:14Z</time>
      </trkpt>
      <trkpt lat="43.42177" lon="6.60755">
        <ele>186.15</ele>
        <time>2012-10-12T09:08:38Z</time>
      </trkpt>
      <trkpt lat="43.42175" lon="6.60753">
        <ele>186.15</ele>
        <time>2012-10-12T09:09:10Z</time>
      </trkpt>
      <trkpt lat="43.42175" lon="6.60751">
        <ele>186.15</ele>
        <time>2012-10-12T09:09:31Z</time>
      </trkpt>
      <trkpt lat="43.42175" lon="6.6075">
        <ele>186.15</ele>
        <time>2012-10-12T09:09:58Z</time>
      </trkpt>
      <trkpt lat="43.42175" lon="6.6075">
        <ele>186.15</ele>
        <time>2012-10-12T09:10:21Z</time>
      </trkpt>
      <trkpt lat="43.42175" lon="6.6075">
        <ele>186.15</ele>
        <time>2012-10-12T09:10:41Z</time>
      </trkpt>
      <trkpt lat="43.42176" lon="6.6075">
        <ele>186.63</ele>
        <time>2012-10-12T09:11:09Z</time>
      </trkpt>
      <trkpt lat="43.42175" lon="6.60751">
        <ele>186.15</ele>
        <time>2012-10-12T09:11:32Z</time>
      </trkpt>
      <trkpt lat="43.42177" lon="6.60751">
        <ele>187.59</ele>
        <time>2012-10-12T09:11:43Z</time>
      </trkpt>
      <trkpt lat="43.42179" lon="6.60758">
        <ele>187.59</ele>
        <time>2012-10-12T09:11:53Z</time>
      </trkpt>
      <trkpt lat="43.42179" lon="6.60758">
        <ele>187.59</ele>
        <time>2012-10-12T09:12:02Z</time>
      </trkpt>
      <trkpt lat="43.42179" lon="6.60766">
        <ele>187.59</ele>
        <time>2012-10-12T09:12:09Z</time>
      </trkpt>
      <trkpt lat="43.42188" lon="6.60787">
        <ele>189.52</ele>
        <time>2012-10-12T09:12:20Z</time>
      </trkpt>
      <trkpt lat="43.42194" lon="6.60793">
        <ele>190</ele>
        <time>2012-10-12T09:12:25Z</time>
      </trkpt>
      <trkpt lat="43.42197" lon="6.60794">
        <ele>190.96</ele>
        <time>2012-10-12T09:12:28Z</time>
      </trkpt>
      <trkpt lat="43.4221" lon="6.6079">
        <ele>191.92</ele>
        <time>2012-10-12T09:12:37Z</time>
      </trkpt>
      <trkpt lat="43.42223" lon="6.60777">
        <ele>195.28</ele>
        <time>2012-10-12T09:12:48Z</time>
      </trkpt>
      <trkpt lat="43.42224" lon="6.60775">
        <ele>195.28</ele>
        <time>2012-10-12T09:12:49Z</time>
      </trkpt>
      <trkpt lat="43.42237" lon="6.60768">
        <ele>196.73</ele>
        <time>2012-10-12T09:12:59Z</time>
      </trkpt>
      <trkpt lat="43.42243" lon="6.60767">
        <ele>198.17</ele>
        <time>2012-10-12T09:13:04Z</time>
      </trkpt>
      <trkpt lat="43.42256" lon="6.60775">
        <ele>199.61</ele>
        <time>2012-10-12T09:13:14Z</time>
      </trkpt>
      <trkpt lat="43.42272" lon="6.60793">
        <ele>201.05</ele>
        <time>2012-10-12T09:13:27Z</time>
      </trkpt>
      <trkpt lat="43.4228" lon="6.60805">
        <ele>203.46</ele>
        <time>2012-10-12T09:13:36Z</time>
      </trkpt>
      <trkpt lat="43.42286" lon="6.60812">
        <ele>204.9</ele>
        <time>2012-10-12T09:13:41Z</time>
      </trkpt>
      <trkpt lat="43.42287" lon="6.60813">
        <ele>204.9</ele>
        <time>2012-10-12T09:13:42Z</time>
      </trkpt>
      <trkpt lat="43.42299" lon="6.60826">
        <ele>207.3</ele>
        <time>2012-10-12T09:13:51Z</time>
      </trkpt>
      <trkpt lat="43.42306" lon="6.60833">
        <ele>208.74</ele>
        <time>2012-10-12T09:13:57Z</time>
      </trkpt>
      <trkpt lat="43.42319" lon="6.60842">
        <ele>210.19</ele>
        <time>2012-10-12T09:14:06Z</time>
      </trkpt>
      <trkpt lat="43.42328" lon="6.60845">
        <ele>210.67</ele>
        <time>2012-10-12T09:14:11Z</time>
      </trkpt>
      <trkpt lat="43.42346" lon="6.60844">
        <ele>213.07</ele>
        <time>2012-10-12T09:14:21Z</time>
      </trkpt>
      <trkpt lat="43.42354" lon="6.60848">
        <ele>214.51</ele>
        <time>2012-10-12T09:14:26Z</time>
      </trkpt>
      <trkpt lat="43.42358" lon="6.6087">
        <ele>217.4</ele>
        <time>2012-10-12T09:14:38Z</time>
      </trkpt>
      <trkpt lat="43.42357" lon="6.60886">
        <ele>218.84</ele>
        <time>2012-10-12T09:14:46Z</time>
      </trkpt>
      <trkpt lat="43.42356" lon="6.60893">
        <ele>220.28</ele>
        <time>2012-10-12T09:14:50Z</time>
      </trkpt>
      <trkpt lat="43.42351" lon="6.60907">
        <ele>222.2</ele>
        <time>2012-10-12T09:14:59Z</time>
      </trkpt>
      <trkpt lat="43.42344" lon="6.60917">
        <ele>224.61</ele>
        <time>2012-10-12T09:15:06Z</time>
      </trkpt>
      <trkpt lat="43.4234" lon="6.60926">
        <ele>225.09</ele>
        <time>2012-10-12T09:15:11Z</time>
      </trkpt>
      <trkpt lat="43.42329" lon="6.60939">
        <ele>227.49</ele>
        <time>2012-10-12T09:15:22Z</time>
      </trkpt>
      <trkpt lat="43.42323" lon="6.60945">
        <ele>228.93</ele>
        <time>2012-10-12T09:15:28Z</time>
      </trkpt>
      <trkpt lat="43.4232" lon="6.60947">
        <ele>229.89</ele>
        <time>2012-10-12T09:15:30Z</time>
      </trkpt>
      <trkpt lat="43.42319" lon="6.60949">
        <ele>229.41</ele>
        <time>2012-10-12T09:15:31Z</time>
      </trkpt>
      <trkpt lat="43.42315" lon="6.60957">
        <ele>231.81</ele>
        <time>2012-10-12T09:15:36Z</time>
      </trkpt>
      <trkpt lat="43.42305" lon="6.60984">
        <ele>233.74</ele>
        <time>2012-10-12T09:15:49Z</time>
      </trkpt>
      <trkpt lat="43.42296" lon="6.61005">
        <ele>236.14</ele>
        <time>2012-10-12T09:15:58Z</time>
      </trkpt>
      <trkpt lat="43.42288" lon="6.61035">
        <ele>235.66</ele>
        <time>2012-10-12T09:16:08Z</time>
      </trkpt>
      <trkpt lat="43.42282" lon="6.61064">
        <ele>236.62</ele>
        <time>2012-10-12T09:16:18Z</time>
      </trkpt>
      <trkpt lat="43.42288" lon="6.611">
        <ele>236.14</ele>
        <time>2012-10-12T09:16:27Z</time>
      </trkpt>
      <trkpt lat="43.42308" lon="6.61124">
        <ele>237.58</ele>
        <time>2012-10-12T09:16:35Z</time>
      </trkpt>
      <trkpt lat="43.42339" lon="6.61168">
        <ele>236.62</ele>
        <time>2012-10-12T09:16:46Z</time>
      </trkpt>
      <trkpt lat="43.42342" lon="6.61172">
        <ele>237.1</ele>
        <time>2012-10-12T09:16:47Z</time>
      </trkpt>
      <trkpt lat="43.42353" lon="6.61191">
        <ele>237.1</ele>
        <time>2012-10-12T09:16:51Z</time>
      </trkpt>
      <trkpt lat="43.42372" lon="6.61223">
        <ele>236.14</ele>
        <time>2012-10-12T09:16:57Z</time>
      </trkpt>
      <trkpt lat="43.42396" lon="6.61266">
        <ele>238.54</ele>
        <time>2012-10-12T09:17:06Z</time>
      </trkpt>
      <trkpt lat="43.42397" lon="6.61271">
        <ele>238.54</ele>
        <time>2012-10-12T09:17:07Z</time>
      </trkpt>
      <trkpt lat="43.424" lon="6.61284">
        <ele>237.58</ele>
        <time>2012-10-12T09:17:09Z</time>
      </trkpt>
      <trkpt lat="43.42404" lon="6.61297">
        <ele>236.14</ele>
        <time>2012-10-12T09:17:11Z</time>
      </trkpt>
      <trkpt lat="43.42417" lon="6.61319">
        <ele>233.74</ele>
        <time>2012-10-12T09:17:14Z</time>
      </trkpt>
      <trkpt lat="43.42445" lon="6.61346">
        <ele>235.18</ele>
        <time>2012-10-12T09:17:20Z</time>
      </trkpt>
      <trkpt lat="43.42452" lon="6.61359">
        <ele>233.26</ele>
        <time>2012-10-12T09:17:22Z</time>
      </trkpt>
      <trkpt lat="43.42458" lon="6.61373">
        <ele>232.78</ele>
        <time>2012-10-12T09:17:24Z</time>
      </trkpt>
      <trkpt lat="43.42493" lon="6.61411">
        <ele>229.41</ele>
        <time>2012-10-12T09:17:30Z</time>
      </trkpt>
      <trkpt lat="43.425" lon="6.61418">
        <ele>228.93</ele>
        <time>2012-10-12T09:17:31Z</time>
      </trkpt>
      <trkpt lat="43.42517" lon="6.61426">
        <ele>226.05</ele>
        <time>2012-10-12T09:17:33Z</time>
      </trkpt>
      <trkpt lat="43.42526" lon="6.61427">
        <ele>226.05</ele>
        <time>2012-10-12T09:17:34Z</time>
      </trkpt>
      <trkpt lat="43.42534" lon="6.61425">
        <ele>225.57</ele>
        <time>2012-10-12T09:17:35Z</time>
      </trkpt>
      <trkpt lat="43.42542" lon="6.61421">
        <ele>225.09</ele>
        <time>2012-10-12T09:17:36Z</time>
      </trkpt>
      <trkpt lat="43.42549" lon="6.61417">
        <ele>225.09</ele>
        <time>2012-10-12T09:17:37Z</time>
      </trkpt>
      <trkpt lat="43.42557" lon="6.61413">
        <ele>224.61</ele>
        <time>2012-10-12T09:17:38Z</time>
      </trkpt>
      <trkpt lat="43.42572" lon="6.61408">
        <ele>225.57</ele>
        <time>2012-10-12T09:17:40Z</time>
      </trkpt>
      <trkpt lat="43.42578" lon="6.61407">
        <ele>226.53</ele>
        <time>2012-10-12T09:17:41Z</time>
      </trkpt>
      <trkpt lat="43.42584" lon="6.61407">
        <ele>227.97</ele>
        <time>2012-10-12T09:17:42Z</time>
      </trkpt>
      <trkpt lat="43.4259" lon="6.61409">
        <ele>227.49</ele>
        <time>2012-10-12T09:17:43Z</time>
      </trkpt>
      <trkpt lat="43.42596" lon="6.61412">
        <ele>227.97</ele>
        <time>2012-10-12T09:17:44Z</time>
      </trkpt>
      <trkpt lat="43.42601" lon="6.61416">
        <ele>227.49</ele>
        <time>2012-10-12T09:17:45Z</time>
      </trkpt>
      <trkpt lat="43.42607" lon="6.6142">
        <ele>227.01</ele>
        <time>2012-10-12T09:17:46Z</time>
      </trkpt>
      <trkpt lat="43.42612" lon="6.61425">
        <ele>227.49</ele>
        <time>2012-10-12T09:17:47Z</time>
      </trkpt>
      <trkpt lat="43.42639" lon="6.61457">
        <ele>226.05</ele>
        <time>2012-10-12T09:17:52Z</time>
      </trkpt>
      <trkpt lat="43.42658" lon="6.61494">
        <ele>221.72</ele>
        <time>2012-10-12T09:17:56Z</time>
      </trkpt>
      <trkpt lat="43.42664" lon="6.61503">
        <ele>221.72</ele>
        <time>2012-10-12T09:17:57Z</time>
      </trkpt>
      <trkpt lat="43.42669" lon="6.61511">
        <ele>221.24</ele>
        <time>2012-10-12T09:17:58Z</time>
      </trkpt>
      <trkpt lat="43.42674" lon="6.61517">
        <ele>220.76</ele>
        <time>2012-10-12T09:17:59Z</time>
      </trkpt>
      <trkpt lat="43.42683" lon="6.61548">
        <ele>217.4</ele>
        <time>2012-10-12T09:18:03Z</time>
      </trkpt>
      <trkpt lat="43.42688" lon="6.61555">
        <ele>216.91</ele>
        <time>2012-10-12T09:18:04Z</time>
      </trkpt>
      <trkpt lat="43.42692" lon="6.61561">
        <ele>216.91</ele>
        <time>2012-10-12T09:18:05Z</time>
      </trkpt>
      <trkpt lat="43.42695" lon="6.61567">
        <ele>216.43</ele>
        <time>2012-10-12T09:18:06Z</time>
      </trkpt>
      <trkpt lat="43.42699" lon="6.61583">
        <ele>214.99</ele>
        <time>2012-10-12T09:18:08Z</time>
      </trkpt>
      <trkpt lat="43.427" lon="6.61598">
        <ele>214.03</ele>
        <time>2012-10-12T09:18:10Z</time>
      </trkpt>
      <trkpt lat="43.427" lon="6.6161">
        <ele>212.59</ele>
        <time>2012-10-12T09:18:12Z</time>
      </trkpt>
      <trkpt lat="43.42697" lon="6.61623">
        <ele>210.67</ele>
        <time>2012-10-12T09:18:14Z</time>
      </trkpt>
      <trkpt lat="43.42685" lon="6.61653">
        <ele>207.3</ele>
        <time>2012-10-12T09:18:19Z</time>
      </trkpt>
      <trkpt lat="43.42679" lon="6.6167">
        <ele>204.9</ele>
        <time>2012-10-12T09:18:22Z</time>
      </trkpt>
      <trkpt lat="43.4267" lon="6.61701">
        <ele>198.65</ele>
        <time>2012-10-12T09:18:27Z</time>
      </trkpt>
      <trkpt lat="43.42668" lon="6.61706">
        <ele>197.69</ele>
        <time>2012-10-12T09:18:28Z</time>
      </trkpt>
      <trkpt lat="43.42661" lon="6.61725">
        <ele>192.88</ele>
        <time>2012-10-12T09:18:31Z</time>
      </trkpt>
      <trkpt lat="43.42657" lon="6.61748">
        <ele>190.96</ele>
        <time>2012-10-12T09:18:35Z</time>
      </trkpt>
      <trkpt lat="43.42658" lon="6.61756">
        <ele>190</ele>
        <time>2012-10-12T09:18:37Z</time>
      </trkpt>
      <trkpt lat="43.42655" lon="6.61775">
        <ele>185.19</ele>
        <time>2012-10-12T09:18:42Z</time>
      </trkpt>
      <trkpt lat="43.42651" lon="6.61785">
        <ele>183.27</ele>
        <time>2012-10-12T09:18:44Z</time>
      </trkpt>
      <trkpt lat="43.42639" lon="6.61806">
        <ele>179.9</ele>
        <time>2012-10-12T09:18:47Z</time>
      </trkpt>
      <trkpt lat="43.42617" lon="6.61834">
        <ele>175.58</ele>
        <time>2012-10-12T09:18:53Z</time>
      </trkpt>
      <trkpt lat="43.42609" lon="6.6185">
        <ele>172.21</ele>
        <time>2012-10-12T09:18:57Z</time>
      </trkpt>
      <trkpt lat="43.42605" lon="6.61859">
        <ele>170.77</ele>
        <time>2012-10-12T09:18:59Z</time>
      </trkpt>
      <trkpt lat="43.42599" lon="6.6187">
        <ele>167.89</ele>
        <time>2012-10-12T09:19:01Z</time>
      </trkpt>
      <trkpt lat="43.42576" lon="6.61893">
        <ele>163.56</ele>
        <time>2012-10-12T09:19:06Z</time>
      </trkpt>
      <trkpt lat="43.42556" lon="6.61913">
        <ele>161.16</ele>
        <time>2012-10-12T09:19:10Z</time>
      </trkpt>
      <trkpt lat="43.42539" lon="6.61936">
        <ele>158.27</ele>
        <time>2012-10-12T09:19:15Z</time>
      </trkpt>
      <trkpt lat="43.42516" lon="6.61954">
        <ele>154.91</ele>
        <time>2012-10-12T09:19:22Z</time>
      </trkpt>
      <trkpt lat="43.42512" lon="6.61955">
        <ele>153.47</ele>
        <time>2012-10-12T09:19:24Z</time>
      </trkpt>
      <trkpt lat="43.42499" lon="6.61969">
        <ele>149.62</ele>
        <time>2012-10-12T09:19:29Z</time>
      </trkpt>
      <trkpt lat="43.42493" lon="6.61978">
        <ele>146.74</ele>
        <time>2012-10-12T09:19:31Z</time>
      </trkpt>
      <trkpt lat="43.42487" lon="6.62009">
        <ele>142.41</ele>
        <time>2012-10-12T09:19:37Z</time>
      </trkpt>
      <trkpt lat="43.42496" lon="6.62022">
        <ele>139.05</ele>
        <time>2012-10-12T09:19:41Z</time>
      </trkpt>
      <trkpt lat="43.425" lon="6.62023">
        <ele>139.05</ele>
        <time>2012-10-12T09:19:42Z</time>
      </trkpt>
      <trkpt lat="43.42514" lon="6.62028">
        <ele>135.68</ele>
        <time>2012-10-12T09:19:44Z</time>
      </trkpt>
      <trkpt lat="43.42528" lon="6.6204">
        <ele>134.24</ele>
        <time>2012-10-12T09:19:47Z</time>
      </trkpt>
      <trkpt lat="43.42531" lon="6.62046">
        <ele>133.28</ele>
        <time>2012-10-12T09:19:48Z</time>
      </trkpt>
      <trkpt lat="43.42545" lon="6.62077">
        <ele>130.4</ele>
        <time>2012-10-12T09:19:52Z</time>
      </trkpt>
      <trkpt lat="43.42548" lon="6.62083">
        <ele>130.4</ele>
        <time>2012-10-12T09:19:53Z</time>
      </trkpt>
      <trkpt lat="43.42552" lon="6.62087">
        <ele>129.92</ele>
        <time>2012-10-12T09:19:54Z</time>
      </trkpt>
      <trkpt lat="43.4255" lon="6.62101">
        <ele>129.92</ele>
        <time>2012-10-12T09:19:59Z</time>
      </trkpt>
      <trkpt lat="43.42547" lon="6.62101">
        <ele>129.43</ele>
        <time>2012-10-12T09:20:00Z</time>
      </trkpt>
      <trkpt lat="43.42533" lon="6.62107">
        <ele>127.51</ele>
        <time>2012-10-12T09:20:04Z</time>
      </trkpt>
      <trkpt lat="43.42528" lon="6.62107">
        <ele>127.03</ele>
        <time>2012-10-12T09:20:05Z</time>
      </trkpt>
      <trkpt lat="43.42523" lon="6.62106">
        <ele>126.07</ele>
        <time>2012-10-12T09:20:06Z</time>
      </trkpt>
      <trkpt lat="43.42518" lon="6.62105">
        <ele>125.59</ele>
        <time>2012-10-12T09:20:07Z</time>
      </trkpt>
      <trkpt lat="43.42512" lon="6.62103">
        <ele>125.11</ele>
        <time>2012-10-12T09:20:08Z</time>
      </trkpt>
      <trkpt lat="43.42507" lon="6.621">
        <ele>125.11</ele>
        <time>2012-10-12T09:20:09Z</time>
      </trkpt>
      <trkpt lat="43.42484" lon="6.62086">
        <ele>125.59</ele>
        <time>2012-10-12T09:20:14Z</time>
      </trkpt>
      <trkpt lat="43.42469" lon="6.6207">
        <ele>125.59</ele>
        <time>2012-10-12T09:20:18Z</time>
      </trkpt>
      <trkpt lat="43.42466" lon="6.62065">
        <ele>125.59</ele>
        <time>2012-10-12T09:20:19Z</time>
      </trkpt>
      <trkpt lat="43.42458" lon="6.62053">
        <ele>127.03</ele>
        <time>2012-10-12T09:20:22Z</time>
      </trkpt>
      <trkpt lat="43.42443" lon="6.62028">
        <ele>127.51</ele>
        <time>2012-10-12T09:20:29Z</time>
      </trkpt>
      <trkpt lat="43.42431" lon="6.62022">
        <ele>127.03</ele>
        <time>2012-10-12T09:20:32Z</time>
      </trkpt>
      <trkpt lat="43.42428" lon="6.62019">
        <ele>127.99</ele>
        <time>2012-10-12T09:20:33Z</time>
      </trkpt>
      <trkpt lat="43.42426" lon="6.62017">
        <ele>128.47</ele>
        <time>2012-10-12T09:20:34Z</time>
      </trkpt>
      <trkpt lat="43.42423" lon="6.62014">
        <ele>128.95</ele>
        <time>2012-10-12T09:20:35Z</time>
      </trkpt>
      <trkpt lat="43.42421" lon="6.62012">
        <ele>128.95</ele>
        <time>2012-10-12T09:20:36Z</time>
      </trkpt>
      <trkpt lat="43.42419" lon="6.6201">
        <ele>128.95</ele>
        <time>2012-10-12T09:20:37Z</time>
      </trkpt>
      <trkpt lat="43.42416" lon="6.62008">
        <ele>129.43</ele>
        <time>2012-10-12T09:20:38Z</time>
      </trkpt>
      <trkpt lat="43.42414" lon="6.62007">
        <ele>129.92</ele>
        <time>2012-10-12T09:20:39Z</time>
      </trkpt>
      <trkpt lat="43.42412" lon="6.62005">
        <ele>129.92</ele>
        <time>2012-10-12T09:20:40Z</time>
      </trkpt>
      <trkpt lat="43.42409" lon="6.62002">
        <ele>129.43</ele>
        <time>2012-10-12T09:20:41Z</time>
      </trkpt>
      <trkpt lat="43.42396" lon="6.61996">
        <ele>129.92</ele>
        <time>2012-10-12T09:20:46Z</time>
      </trkpt>
      <trkpt lat="43.42393" lon="6.61997">
        <ele>130.4</ele>
        <time>2012-10-12T09:20:47Z</time>
      </trkpt>
      <trkpt lat="43.42391" lon="6.61998">
        <ele>130.88</ele>
        <time>2012-10-12T09:20:48Z</time>
      </trkpt>
      <trkpt lat="43.42365" lon="6.62013">
        <ele>131.84</ele>
        <time>2012-10-12T09:20:59Z</time>
      </trkpt>
      <trkpt lat="43.42335" lon="6.62034">
        <ele>132.8</ele>
        <time>2012-10-12T09:21:11Z</time>
      </trkpt>
      <trkpt lat="43.4231" lon="6.62041">
        <ele>133.28</ele>
        <time>2012-10-12T09:21:20Z</time>
      </trkpt>
      <trkpt lat="43.42278" lon="6.62046">
        <ele>132.32</ele>
        <time>2012-10-12T09:21:29Z</time>
      </trkpt>
      <trkpt lat="43.42246" lon="6.6204">
        <ele>134.72</ele>
        <time>2012-10-12T09:21:39Z</time>
      </trkpt>
      <trkpt lat="43.42227" lon="6.62033">
        <ele>136.64</ele>
        <time>2012-10-12T09:21:48Z</time>
      </trkpt>
      <trkpt lat="43.42213" lon="6.62027">
        <ele>138.09</ele>
        <time>2012-10-12T09:21:56Z</time>
      </trkpt>
      <trkpt lat="43.42206" lon="6.62022">
        <ele>138.57</ele>
        <time>2012-10-12T09:22:00Z</time>
      </trkpt>
      <trkpt lat="43.42204" lon="6.62021">
        <ele>138.57</ele>
        <time>2012-10-12T09:22:01Z</time>
      </trkpt>
      <trkpt lat="43.42203" lon="6.62021">
        <ele>139.05</ele>
        <time>2012-10-12T09:22:02Z</time>
      </trkpt>
      <trkpt lat="43.42201" lon="6.62021">
        <ele>139.53</ele>
        <time>2012-10-12T09:22:03Z</time>
      </trkpt>
      <trkpt lat="43.42199" lon="6.6202">
        <ele>139.53</ele>
        <time>2012-10-12T09:22:04Z</time>
      </trkpt>
      <trkpt lat="43.42197" lon="6.62019">
        <ele>140.01</ele>
        <time>2012-10-12T09:22:05Z</time>
      </trkpt>
      <trkpt lat="43.42195" lon="6.62018">
        <ele>140.01</ele>
        <time>2012-10-12T09:22:06Z</time>
      </trkpt>
      <trkpt lat="43.42194" lon="6.62017">
        <ele>140.49</ele>
        <time>2012-10-12T09:22:07Z</time>
      </trkpt>
      <trkpt lat="43.42172" lon="6.62009">
        <ele>142.89</ele>
        <time>2012-10-12T09:22:19Z</time>
      </trkpt>
      <trkpt lat="43.4215" lon="6.62008">
        <ele>143.85</ele>
        <time>2012-10-12T09:22:29Z</time>
      </trkpt>
      <trkpt lat="43.42108" lon="6.62002">
        <ele>143.37</ele>
        <time>2012-10-12T09:22:41Z</time>
      </trkpt>
      <trkpt lat="43.42072" lon="6.61995">
        <ele>143.37</ele>
        <time>2012-10-12T09:22:51Z</time>
      </trkpt>
      <trkpt lat="43.42041" lon="6.61991">
        <ele>143.85</ele>
        <time>2012-10-12T09:23:00Z</time>
      </trkpt>
      <trkpt lat="43.42016" lon="6.61987">
        <ele>145.3</ele>
        <time>2012-10-12T09:23:10Z</time>
      </trkpt>
      <trkpt lat="43.41994" lon="6.61987">
        <ele>147.22</ele>
        <time>2012-10-12T09:23:19Z</time>
      </trkpt>
      <trkpt lat="43.41993" lon="6.61989">
        <ele>147.22</ele>
        <time>2012-10-12T09:23:20Z</time>
      </trkpt>
      <trkpt lat="43.41992" lon="6.61991">
        <ele>148.18</ele>
        <time>2012-10-12T09:23:21Z</time>
      </trkpt>
      <trkpt lat="43.41975" lon="6.62008">
        <ele>149.14</ele>
        <time>2012-10-12T09:23:30Z</time>
      </trkpt>
      <trkpt lat="43.41954" lon="6.6202">
        <ele>149.62</ele>
        <time>2012-10-12T09:23:40Z</time>
      </trkpt>
      <trkpt lat="43.41936" lon="6.6203">
        <ele>152.03</ele>
        <time>2012-10-12T09:23:49Z</time>
      </trkpt>
      <trkpt lat="43.41912" lon="6.62046">
        <ele>152.03</ele>
        <time>2012-10-12T09:24:00Z</time>
      </trkpt>
      <trkpt lat="43.41886" lon="6.62059">
        <ele>152.51</ele>
        <time>2012-10-12T09:24:11Z</time>
      </trkpt>
      <trkpt lat="43.4186" lon="6.62064">
        <ele>153.95</ele>
        <time>2012-10-12T09:24:21Z</time>
      </trkpt>
      <trkpt lat="43.41831" lon="6.62072">
        <ele>154.43</ele>
        <time>2012-10-12T09:24:32Z</time>
      </trkpt>
      <trkpt lat="43.41805" lon="6.62079">
        <ele>155.39</ele>
        <time>2012-10-12T09:24:41Z</time>
      </trkpt>
      <trkpt lat="43.41791" lon="6.62075">
        <ele>156.35</ele>
        <time>2012-10-12T09:24:47Z</time>
      </trkpt>
      <trkpt lat="43.4177" lon="6.62073">
        <ele>157.31</ele>
        <time>2012-10-12T09:24:55Z</time>
      </trkpt>
      <trkpt lat="43.41747" lon="6.62067">
        <ele>159.24</ele>
        <time>2012-10-12T09:25:06Z</time>
      </trkpt>
      <trkpt lat="43.41728" lon="6.62063">
        <ele>160.2</ele>
        <time>2012-10-12T09:25:15Z</time>
      </trkpt>
      <trkpt lat="43.41726" lon="6.62063">
        <ele>160.2</ele>
        <time>2012-10-12T09:25:16Z</time>
      </trkpt>
      <trkpt lat="43.41724" lon="6.62063">
        <ele>160.68</ele>
        <time>2012-10-12T09:25:17Z</time>
      </trkpt>
      <trkpt lat="43.41722" lon="6.62062">
        <ele>160.68</ele>
        <time>2012-10-12T09:25:18Z</time>
      </trkpt>
      <trkpt lat="43.41721" lon="6.62062">
        <ele>161.16</ele>
        <time>2012-10-12T09:25:19Z</time>
      </trkpt>
      <trkpt lat="43.41708" lon="6.6206">
        <ele>161.64</ele>
        <time>2012-10-12T09:25:27Z</time>
      </trkpt>
      <trkpt lat="43.41689" lon="6.62055">
        <ele>163.08</ele>
        <time>2012-10-12T09:25:37Z</time>
      </trkpt>
      <trkpt lat="43.41669" lon="6.62051">
        <ele>165</ele>
        <time>2012-10-12T09:25:46Z</time>
      </trkpt>
      <trkpt lat="43.41649" lon="6.62044">
        <ele>165.96</ele>
        <time>2012-10-12T09:25:56Z</time>
      </trkpt>
      <trkpt lat="43.41631" lon="6.6204">
        <ele>167.41</ele>
        <time>2012-10-12T09:26:05Z</time>
      </trkpt>
      <trkpt lat="43.41628" lon="6.62038">
        <ele>168.37</ele>
        <time>2012-10-12T09:26:07Z</time>
      </trkpt>
      <trkpt lat="43.41626" lon="6.62036">
        <ele>168.85</ele>
        <time>2012-10-12T09:26:08Z</time>
      </trkpt>
      <trkpt lat="43.4161" lon="6.62033">
        <ele>171.25</ele>
        <time>2012-10-12T09:26:17Z</time>
      </trkpt>
      <trkpt lat="43.41604" lon="6.62034">
        <ele>171.73</ele>
        <time>2012-10-12T09:26:21Z</time>
      </trkpt>
      <trkpt lat="43.41602" lon="6.62034">
        <ele>171.73</ele>
        <time>2012-10-12T09:26:22Z</time>
      </trkpt>
      <trkpt lat="43.41595" lon="6.62034">
        <ele>172.21</ele>
        <time>2012-10-12T09:26:26Z</time>
      </trkpt>
      <trkpt lat="43.41577" lon="6.62038">
        <ele>173.66</ele>
        <time>2012-10-12T09:26:35Z</time>
      </trkpt>
      <trkpt lat="43.41556" lon="6.62041">
        <ele>174.62</ele>
        <time>2012-10-12T09:26:46Z</time>
      </trkpt>
      <trkpt lat="43.41544" lon="6.62038">
        <ele>176.54</ele>
        <time>2012-10-12T09:26:54Z</time>
      </trkpt>
      <trkpt lat="43.41536" lon="6.62033">
        <ele>178.46</ele>
        <time>2012-10-12T09:27:03Z</time>
      </trkpt>
      <trkpt lat="43.4153" lon="6.62028">
        <ele>179.42</ele>
        <time>2012-10-12T09:27:09Z</time>
      </trkpt>
      <trkpt lat="43.41525" lon="6.62025">
        <ele>180.38</ele>
        <time>2012-10-12T09:27:14Z</time>
      </trkpt>
      <trkpt lat="43.41524" lon="6.62024">
        <ele>180.87</ele>
        <time>2012-10-12T09:27:15Z</time>
      </trkpt>
      <trkpt lat="43.41517" lon="6.62019">
        <ele>182.31</ele>
        <time>2012-10-12T09:27:22Z</time>
      </trkpt>
      <trkpt lat="43.41513" lon="6.62015">
        <ele>182.79</ele>
        <time>2012-10-12T09:27:29Z</time>
      </trkpt>
      <trkpt lat="43.41512" lon="6.62014">
        <ele>182.79</ele>
        <time>2012-10-12T09:27:30Z</time>
      </trkpt>
      <trkpt lat="43.41511" lon="6.62012">
        <ele>182.79</ele>
        <time>2012-10-12T09:27:31Z</time>
      </trkpt>
      <trkpt lat="43.4151" lon="6.6201">
        <ele>183.27</ele>
        <time>2012-10-12T09:27:33Z</time>
      </trkpt>
      <trkpt lat="43.41505" lon="6.62005">
        <ele>184.71</ele>
        <time>2012-10-12T09:27:40Z</time>
      </trkpt>
      <trkpt lat="43.41504" lon="6.62004">
        <ele>185.19</ele>
        <time>2012-10-12T09:27:42Z</time>
      </trkpt>
      <trkpt lat="43.41502" lon="6.62">
        <ele>187.11</ele>
        <time>2012-10-12T09:27:45Z</time>
      </trkpt>
      <trkpt lat="43.41495" lon="6.61986">
        <ele>188.08</ele>
        <time>2012-10-12T09:27:56Z</time>
      </trkpt>
      <trkpt lat="43.41495" lon="6.61982">
        <ele>188.56</ele>
        <time>2012-10-12T09:28:01Z</time>
      </trkpt>
      <trkpt lat="43.41493" lon="6.61976">
        <ele>189.52</ele>
        <time>2012-10-12T09:28:09Z</time>
      </trkpt>
      <trkpt lat="43.41486" lon="6.61962">
        <ele>190.48</ele>
        <time>2012-10-12T09:28:16Z</time>
      </trkpt>
      <trkpt lat="43.41479" lon="6.61953">
        <ele>190.48</ele>
        <time>2012-10-12T09:28:22Z</time>
      </trkpt>
      <trkpt lat="43.41469" lon="6.61933">
        <ele>193.36</ele>
        <time>2012-10-12T09:28:33Z</time>
      </trkpt>
      <trkpt lat="43.41454" lon="6.61917">
        <ele>194.8</ele>
        <time>2012-10-12T09:28:42Z</time>
      </trkpt>
      <trkpt lat="43.41444" lon="6.61891">
        <ele>195.28</ele>
        <time>2012-10-12T09:28:54Z</time>
      </trkpt>
      <trkpt lat="43.41443" lon="6.61856">
        <ele>197.69</ele>
        <time>2012-10-12T09:29:05Z</time>
      </trkpt>
      <trkpt lat="43.41434" lon="6.61824">
        <ele>199.13</ele>
        <time>2012-10-12T09:29:15Z</time>
      </trkpt>
      <trkpt lat="43.41419" lon="6.61804">
        <ele>198.65</ele>
        <time>2012-10-12T09:29:23Z</time>
      </trkpt>
      <trkpt lat="43.41408" lon="6.61797">
        <ele>201.05</ele>
        <time>2012-10-12T09:29:31Z</time>
      </trkpt>
      <trkpt lat="43.41402" lon="6.61792">
        <ele>202.49</ele>
        <time>2012-10-12T09:29:36Z</time>
      </trkpt>
      <trkpt lat="43.41394" lon="6.61783">
        <ele>204.42</ele>
        <time>2012-10-12T09:29:42Z</time>
      </trkpt>
      <trkpt lat="43.41386" lon="6.61773">
        <ele>203.46</ele>
        <time>2012-10-12T09:29:47Z</time>
      </trkpt>
      <trkpt lat="43.41368" lon="6.61756">
        <ele>205.86</ele>
        <time>2012-10-12T09:29:56Z</time>
      </trkpt>
      <trkpt lat="43.41347" lon="6.61725">
        <ele>206.34</ele>
        <time>2012-10-12T09:30:08Z</time>
      </trkpt>
      <trkpt lat="43.41346" lon="6.61704">
        <ele>207.78</ele>
        <time>2012-10-12T09:30:14Z</time>
      </trkpt>
      <trkpt lat="43.41355" lon="6.61681">
        <ele>209.22</ele>
        <time>2012-10-12T09:30:24Z</time>
      </trkpt>
      <trkpt lat="43.41373" lon="6.61666">
        <ele>210.19</ele>
        <time>2012-10-12T09:30:35Z</time>
      </trkpt>
      <trkpt lat="43.41385" lon="6.61653">
        <ele>214.03</ele>
        <time>2012-10-12T09:30:43Z</time>
      </trkpt>
      <trkpt lat="43.41396" lon="6.61634">
        <ele>214.99</ele>
        <time>2012-10-12T09:30:54Z</time>
      </trkpt>
      <trkpt lat="43.41405" lon="6.61616">
        <ele>217.88</ele>
        <time>2012-10-12T09:31:04Z</time>
      </trkpt>
      <trkpt lat="43.41423" lon="6.61599">
        <ele>216.43</ele>
        <time>2012-10-12T09:31:13Z</time>
      </trkpt>
      <trkpt lat="43.41438" lon="6.61591">
        <ele>217.88</ele>
        <time>2012-10-12T09:31:20Z</time>
      </trkpt>
      <trkpt lat="43.41457" lon="6.61585">
        <ele>219.32</ele>
        <time>2012-10-12T09:31:31Z</time>
      </trkpt>
      <trkpt lat="43.41467" lon="6.61577">
        <ele>220.28</ele>
        <time>2012-10-12T09:31:40Z</time>
      </trkpt>
      <trkpt lat="43.41471" lon="6.61574">
        <ele>220.76</ele>
        <time>2012-10-12T09:31:43Z</time>
      </trkpt>
      <trkpt lat="43.41473" lon="6.61571">
        <ele>221.72</ele>
        <time>2012-10-12T09:31:45Z</time>
      </trkpt>
      <trkpt lat="43.41475" lon="6.61568">
        <ele>223.16</ele>
        <time>2012-10-12T09:31:48Z</time>
      </trkpt>
      <trkpt lat="43.41477" lon="6.61567">
        <ele>223.64</ele>
        <time>2012-10-12T09:31:49Z</time>
      </trkpt>
      <trkpt lat="43.41481" lon="6.61567">
        <ele>224.61</ele>
        <time>2012-10-12T09:31:53Z</time>
      </trkpt>
      <trkpt lat="43.41489" lon="6.61568">
        <ele>225.57</ele>
        <time>2012-10-12T09:32:00Z</time>
      </trkpt>
      <trkpt lat="43.41492" lon="6.61568">
        <ele>226.53</ele>
        <time>2012-10-12T09:32:05Z</time>
      </trkpt>
      <trkpt lat="43.41502" lon="6.61568">
        <ele>228.45</ele>
        <time>2012-10-12T09:32:15Z</time>
      </trkpt>
      <trkpt lat="43.41514" lon="6.61569">
        <ele>230.37</ele>
        <time>2012-10-12T09:32:27Z</time>
      </trkpt>
      <trkpt lat="43.41521" lon="6.6157">
        <ele>231.81</ele>
        <time>2012-10-12T09:32:36Z</time>
      </trkpt>
      <trkpt lat="43.4153" lon="6.61567">
        <ele>233.74</ele>
        <time>2012-10-12T09:32:48Z</time>
      </trkpt>
      <trkpt lat="43.41538" lon="6.61563">
        <ele>235.18</ele>
        <time>2012-10-12T09:32:59Z</time>
      </trkpt>
      <trkpt lat="43.41543" lon="6.61563">
        <ele>237.1</ele>
        <time>2012-10-12T09:33:07Z</time>
      </trkpt>
      <trkpt lat="43.41545" lon="6.61564">
        <ele>237.58</ele>
        <time>2012-10-12T09:33:10Z</time>
      </trkpt>
      <trkpt lat="43.41555" lon="6.61564">
        <ele>239.02</ele>
        <time>2012-10-12T09:33:20Z</time>
      </trkpt>
      <trkpt lat="43.41566" lon="6.61568">
        <ele>239.99</ele>
        <time>2012-10-12T09:33:30Z</time>
      </trkpt>
      <trkpt lat="43.41577" lon="6.61574">
        <ele>241.43</ele>
        <time>2012-10-12T09:33:42Z</time>
      </trkpt>
      <trkpt lat="43.41587" lon="6.61579">
        <ele>243.83</ele>
        <time>2012-10-12T09:33:55Z</time>
      </trkpt>
      <trkpt lat="43.41592" lon="6.61585">
        <ele>245.27</ele>
        <time>2012-10-12T09:34:04Z</time>
      </trkpt>
      <trkpt lat="43.41596" lon="6.6159">
        <ele>247.68</ele>
        <time>2012-10-12T09:34:15Z</time>
      </trkpt>
      <trkpt lat="43.41598" lon="6.61591">
        <ele>247.68</ele>
        <time>2012-10-12T09:34:17Z</time>
      </trkpt>
      <trkpt lat="43.41608" lon="6.61599">
        <ele>249.6</ele>
        <time>2012-10-12T09:34:28Z</time>
      </trkpt>
      <trkpt lat="43.41615" lon="6.61599">
        <ele>251.52</ele>
        <time>2012-10-12T09:34:37Z</time>
      </trkpt>
      <trkpt lat="43.41619" lon="6.61597">
        <ele>257.77</ele>
        <time>2012-10-12T09:34:42Z</time>
      </trkpt>
      <trkpt lat="43.4162" lon="6.61597">
        <ele>252.48</ele>
        <time>2012-10-12T09:34:43Z</time>
      </trkpt>
      <trkpt lat="43.41634" lon="6.61597">
        <ele>254.89</ele>
        <time>2012-10-12T09:34:55Z</time>
      </trkpt>
      <trkpt lat="43.41644" lon="6.61599">
        <ele>256.33</ele>
        <time>2012-10-12T09:35:05Z</time>
      </trkpt>
      <trkpt lat="43.41655" lon="6.61602">
        <ele>258.25</ele>
        <time>2012-10-12T09:35:16Z</time>
      </trkpt>
      <trkpt lat="43.4166" lon="6.61605">
        <ele>259.69</ele>
        <time>2012-10-12T09:35:22Z</time>
      </trkpt>
      <trkpt lat="43.41664" lon="6.61606">
        <ele>260.17</ele>
        <time>2012-10-12T09:35:26Z</time>
      </trkpt>
      <trkpt lat="43.41672" lon="6.61606">
        <ele>261.14</ele>
        <time>2012-10-12T09:35:34Z</time>
      </trkpt>
      <trkpt lat="43.41682" lon="6.61606">
        <ele>263.54</ele>
        <time>2012-10-12T09:35:43Z</time>
      </trkpt>
      <trkpt lat="43.41684" lon="6.61605">
        <ele>263.54</ele>
        <time>2012-10-12T09:35:45Z</time>
      </trkpt>
      <trkpt lat="43.41688" lon="6.61598">
        <ele>264.02</ele>
        <time>2012-10-12T09:35:54Z</time>
      </trkpt>
      <trkpt lat="43.4169" lon="6.6159">
        <ele>264.02</ele>
        <time>2012-10-12T09:36:00Z</time>
      </trkpt>
      <trkpt lat="43.41696" lon="6.61575">
        <ele>266.9</ele>
        <time>2012-10-12T09:36:11Z</time>
      </trkpt>
      <trkpt lat="43.41696" lon="6.61574">
        <ele>267.38</ele>
        <time>2012-10-12T09:36:12Z</time>
      </trkpt>
      <trkpt lat="43.41698" lon="6.61567">
        <ele>267.38</ele>
        <time>2012-10-12T09:36:17Z</time>
      </trkpt>
      <trkpt lat="43.41703" lon="6.61556">
        <ele>269.31</ele>
        <time>2012-10-12T09:36:27Z</time>
      </trkpt>
      <trkpt lat="43.41704" lon="6.61553">
        <ele>269.79</ele>
        <time>2012-10-12T09:36:29Z</time>
      </trkpt>
      <trkpt lat="43.41706" lon="6.61548">
        <ele>269.31</ele>
        <time>2012-10-12T09:36:33Z</time>
      </trkpt>
      <trkpt lat="43.41706" lon="6.61544">
        <ele>270.75</ele>
        <time>2012-10-12T09:36:36Z</time>
      </trkpt>
      <trkpt lat="43.41706" lon="6.61532">
        <ele>272.67</ele>
        <time>2012-10-12T09:36:45Z</time>
      </trkpt>
      <trkpt lat="43.41709" lon="6.61522">
        <ele>274.11</ele>
        <time>2012-10-12T09:36:56Z</time>
      </trkpt>
      <trkpt lat="43.41709" lon="6.61522">
        <ele>274.59</ele>
        <time>2012-10-12T09:36:57Z</time>
      </trkpt>
      <trkpt lat="43.41724" lon="6.6153">
        <ele>273.15</ele>
        <time>2012-10-12T09:37:03Z</time>
      </trkpt>
      <trkpt lat="43.41729" lon="6.6153">
        <ele>272.19</ele>
        <time>2012-10-12T09:37:04Z</time>
      </trkpt>
      <trkpt lat="43.41734" lon="6.61528">
        <ele>272.19</ele>
        <time>2012-10-12T09:37:05Z</time>
      </trkpt>
      <trkpt lat="43.41739" lon="6.61526">
        <ele>271.23</ele>
        <time>2012-10-12T09:37:06Z</time>
      </trkpt>
      <trkpt lat="43.41749" lon="6.6152">
        <ele>269.79</ele>
        <time>2012-10-12T09:37:08Z</time>
      </trkpt>
      <trkpt lat="43.41754" lon="6.61517">
        <ele>269.31</ele>
        <time>2012-10-12T09:37:09Z</time>
      </trkpt>
      <trkpt lat="43.41764" lon="6.61508">
        <ele>267.86</ele>
        <time>2012-10-12T09:37:11Z</time>
      </trkpt>
      <trkpt lat="43.41769" lon="6.61503">
        <ele>266.9</ele>
        <time>2012-10-12T09:37:12Z</time>
      </trkpt>
      <trkpt lat="43.41775" lon="6.61497">
        <ele>265.94</ele>
        <time>2012-10-12T09:37:13Z</time>
      </trkpt>
      <trkpt lat="43.4178" lon="6.6149">
        <ele>265.46</ele>
        <time>2012-10-12T09:37:14Z</time>
      </trkpt>
      <trkpt lat="43.41787" lon="6.61483">
        <ele>264.5</ele>
        <time>2012-10-12T09:37:15Z</time>
      </trkpt>
      <trkpt lat="43.41794" lon="6.61478">
        <ele>263.54</ele>
        <time>2012-10-12T09:37:16Z</time>
      </trkpt>
      <trkpt lat="43.41801" lon="6.61474">
        <ele>263.54</ele>
        <time>2012-10-12T09:37:17Z</time>
      </trkpt>
      <trkpt lat="43.41809" lon="6.61471">
        <ele>263.54</ele>
        <time>2012-10-12T09:37:18Z</time>
      </trkpt>
      <trkpt lat="43.41831" lon="6.61461">
        <ele>262.58</ele>
        <time>2012-10-12T09:37:21Z</time>
      </trkpt>
      <trkpt lat="43.41852" lon="6.61457">
        <ele>264.02</ele>
        <time>2012-10-12T09:37:24Z</time>
      </trkpt>
      <trkpt lat="43.41858" lon="6.61458">
        <ele>264.98</ele>
        <time>2012-10-12T09:37:25Z</time>
      </trkpt>
      <trkpt lat="43.41864" lon="6.61459">
        <ele>265.46</ele>
        <time>2012-10-12T09:37:26Z</time>
      </trkpt>
      <trkpt lat="43.41868" lon="6.61459">
        <ele>265.46</ele>
        <time>2012-10-12T09:37:27Z</time>
      </trkpt>
      <trkpt lat="43.41873" lon="6.6146">
        <ele>265.94</ele>
        <time>2012-10-12T09:37:28Z</time>
      </trkpt>
      <trkpt lat="43.41877" lon="6.6146">
        <ele>264.98</ele>
        <time>2012-10-12T09:37:29Z</time>
      </trkpt>
      <trkpt lat="43.41882" lon="6.6146">
        <ele>264.5</ele>
        <time>2012-10-12T09:37:30Z</time>
      </trkpt>
      <trkpt lat="43.41887" lon="6.6146">
        <ele>264.02</ele>
        <time>2012-10-12T09:37:31Z</time>
      </trkpt>
      <trkpt lat="43.41893" lon="6.61458">
        <ele>263.54</ele>
        <time>2012-10-12T09:37:32Z</time>
      </trkpt>
      <trkpt lat="43.419" lon="6.61456">
        <ele>262.58</ele>
        <time>2012-10-12T09:37:33Z</time>
      </trkpt>
      <trkpt lat="43.41906" lon="6.61453">
        <ele>263.06</ele>
        <time>2012-10-12T09:37:34Z</time>
      </trkpt>
      <trkpt lat="43.41913" lon="6.61451">
        <ele>262.1</ele>
        <time>2012-10-12T09:37:35Z</time>
      </trkpt>
      <trkpt lat="43.41919" lon="6.6145">
        <ele>261.62</ele>
        <time>2012-10-12T09:37:36Z</time>
      </trkpt>
      <trkpt lat="43.41931" lon="6.6145">
        <ele>263.06</ele>
        <time>2012-10-12T09:37:38Z</time>
      </trkpt>
      <trkpt lat="43.41936" lon="6.6145">
        <ele>264.02</ele>
        <time>2012-10-12T09:37:39Z</time>
      </trkpt>
      <trkpt lat="43.4194" lon="6.61451">
        <ele>264.98</ele>
        <time>2012-10-12T09:37:40Z</time>
      </trkpt>
      <trkpt lat="43.41956" lon="6.61456">
        <ele>263.06</ele>
        <time>2012-10-12T09:37:43Z</time>
      </trkpt>
      <trkpt lat="43.4197" lon="6.6146">
        <ele>264.5</ele>
        <time>2012-10-12T09:37:46Z</time>
      </trkpt>
      <trkpt lat="43.41978" lon="6.61463">
        <ele>265.94</ele>
        <time>2012-10-12T09:37:49Z</time>
      </trkpt>
      <trkpt lat="43.41981" lon="6.61465">
        <ele>266.42</ele>
        <time>2012-10-12T09:37:51Z</time>
      </trkpt>
      <trkpt lat="43.41984" lon="6.61468">
        <ele>267.86</ele>
        <time>2012-10-12T09:37:54Z</time>
      </trkpt>
      <trkpt lat="43.41995" lon="6.61468">
        <ele>268.83</ele>
        <time>2012-10-12T09:38:01Z</time>
      </trkpt>
      <trkpt lat="43.41996" lon="6.61468">
        <ele>269.79</ele>
        <time>2012-10-12T09:38:02Z</time>
      </trkpt>
      <trkpt lat="43.42001" lon="6.61469">
        <ele>270.27</ele>
        <time>2012-10-12T09:38:05Z</time>
      </trkpt>
      <trkpt lat="43.42002" lon="6.6147">
        <ele>270.27</ele>
        <time>2012-10-12T09:38:06Z</time>
      </trkpt>
      <trkpt lat="43.42004" lon="6.61469">
        <ele>270.75</ele>
        <time>2012-10-12T09:38:07Z</time>
      </trkpt>
      <trkpt lat="43.42005" lon="6.61469">
        <ele>271.23</ele>
        <time>2012-10-12T09:38:08Z</time>
      </trkpt>
      <trkpt lat="43.42007" lon="6.61469">
        <ele>271.71</ele>
        <time>2012-10-12T09:38:09Z</time>
      </trkpt>
      <trkpt lat="43.42008" lon="6.61468">
        <ele>272.19</ele>
        <time>2012-10-12T09:38:10Z</time>
      </trkpt>
      <trkpt lat="43.42009" lon="6.61468">
        <ele>272.19</ele>
        <time>2012-10-12T09:38:11Z</time>
      </trkpt>
      <trkpt lat="43.42011" lon="6.61467">
        <ele>272.67</ele>
        <time>2012-10-12T09:38:12Z</time>
      </trkpt>
      <trkpt lat="43.42012" lon="6.61467">
        <ele>272.67</ele>
        <time>2012-10-12T09:38:13Z</time>
      </trkpt>
      <trkpt lat="43.42037" lon="6.61465">
        <ele>273.15</ele>
        <time>2012-10-12T09:38:24Z</time>
      </trkpt>
      <trkpt lat="43.42051" lon="6.6147">
        <ele>274.11</ele>
        <time>2012-10-12T09:38:31Z</time>
      </trkpt>
      <trkpt lat="43.42071" lon="6.61484">
        <ele>276.52</ele>
        <time>2012-10-12T09:38:41Z</time>
      </trkpt>
      <trkpt lat="43.42092" lon="6.6149">
        <ele>277.48</ele>
        <time>2012-10-12T09:38:51Z</time>
      </trkpt>
      <trkpt lat="43.42114" lon="6.615">
        <ele>277.96</ele>
        <time>2012-10-12T09:38:59Z</time>
      </trkpt>
      <trkpt lat="43.42124" lon="6.61517">
        <ele>279.88</ele>
        <time>2012-10-12T09:39:08Z</time>
      </trkpt>
      <trkpt lat="43.42132" lon="6.61544">
        <ele>280.36</ele>
        <time>2012-10-12T09:39:16Z</time>
      </trkpt>
      <trkpt lat="43.42139" lon="6.61554">
        <ele>281.32</ele>
        <time>2012-10-12T09:39:20Z</time>
      </trkpt>
      <trkpt lat="43.42141" lon="6.61555">
        <ele>281.32</ele>
        <time>2012-10-12T09:39:21Z</time>
      </trkpt>
      <trkpt lat="43.42144" lon="6.61555">
        <ele>280.84</ele>
        <time>2012-10-12T09:39:22Z</time>
      </trkpt>
      <trkpt lat="43.42159" lon="6.61546">
        <ele>282.77</ele>
        <time>2012-10-12T09:39:30Z</time>
      </trkpt>
      <trkpt lat="43.42169" lon="6.6154">
        <ele>284.21</ele>
        <time>2012-10-12T09:39:36Z</time>
      </trkpt>
      <trkpt lat="43.42171" lon="6.61539">
        <ele>283.73</ele>
        <time>2012-10-12T09:39:37Z</time>
      </trkpt>
      <trkpt lat="43.42172" lon="6.61538">
        <ele>284.69</ele>
        <time>2012-10-12T09:39:38Z</time>
      </trkpt>
      <trkpt lat="43.42174" lon="6.61536">
        <ele>285.17</ele>
        <time>2012-10-12T09:39:39Z</time>
      </trkpt>
      <trkpt lat="43.42176" lon="6.61535">
        <ele>284.69</ele>
        <time>2012-10-12T09:39:40Z</time>
      </trkpt>
      <trkpt lat="43.42178" lon="6.61534">
        <ele>285.17</ele>
        <time>2012-10-12T09:39:41Z</time>
      </trkpt>
      <trkpt lat="43.4218" lon="6.61533">
        <ele>285.17</ele>
        <time>2012-10-12T09:39:42Z</time>
      </trkpt>
      <trkpt lat="43.42193" lon="6.61516">
        <ele>285.65</ele>
        <time>2012-10-12T09:39:50Z</time>
      </trkpt>
      <trkpt lat="43.42206" lon="6.61498">
        <ele>288.53</ele>
        <time>2012-10-12T09:39:59Z</time>
      </trkpt>
      <trkpt lat="43.42206" lon="6.61495">
        <ele>288.53</ele>
        <time>2012-10-12T09:40:00Z</time>
      </trkpt>
      <trkpt lat="43.42199" lon="6.61494">
        <ele>287.57</ele>
        <time>2012-10-12T09:40:05Z</time>
      </trkpt>
      <trkpt lat="43.42184" lon="6.61499">
        <ele>283.73</ele>
        <time>2012-10-12T09:40:09Z</time>
      </trkpt>
      <trkpt lat="43.42179" lon="6.61498">
        <ele>283.25</ele>
        <time>2012-10-12T09:40:10Z</time>
      </trkpt>
      <trkpt lat="43.42175" lon="6.61497">
        <ele>282.77</ele>
        <time>2012-10-12T09:40:11Z</time>
      </trkpt>
      <trkpt lat="43.4217" lon="6.61497">
        <ele>282.28</ele>
        <time>2012-10-12T09:40:12Z</time>
      </trkpt>
      <trkpt lat="43.42167" lon="6.61497">
        <ele>281.8</ele>
        <time>2012-10-12T09:40:13Z</time>
      </trkpt>
      <trkpt lat="43.42163" lon="6.61496">
        <ele>281.8</ele>
        <time>2012-10-12T09:40:14Z</time>
      </trkpt>
      <trkpt lat="43.42156" lon="6.61482">
        <ele>279.4</ele>
        <time>2012-10-12T09:40:17Z</time>
      </trkpt>
      <trkpt lat="43.42149" lon="6.61471">
        <ele>277.96</ele>
        <time>2012-10-12T09:40:19Z</time>
      </trkpt>
      <trkpt lat="43.42146" lon="6.61467">
        <ele>277.96</ele>
        <time>2012-10-12T09:40:20Z</time>
      </trkpt>
      <trkpt lat="43.42142" lon="6.61467">
        <ele>277.96</ele>
        <time>2012-10-12T09:40:21Z</time>
      </trkpt>
      <trkpt lat="43.42139" lon="6.61467">
        <ele>277.48</ele>
        <time>2012-10-12T09:40:22Z</time>
      </trkpt>
      <trkpt lat="43.42135" lon="6.61466">
        <ele>277</ele>
        <time>2012-10-12T09:40:23Z</time>
      </trkpt>
      <trkpt lat="43.42131" lon="6.61463">
        <ele>276.52</ele>
        <time>2012-10-12T09:40:24Z</time>
      </trkpt>
      <trkpt lat="43.42127" lon="6.6146">
        <ele>275.56</ele>
        <time>2012-10-12T09:40:25Z</time>
      </trkpt>
      <trkpt lat="43.42124" lon="6.61457">
        <ele>276.04</ele>
        <time>2012-10-12T09:40:26Z</time>
      </trkpt>
      <trkpt lat="43.42122" lon="6.61453">
        <ele>274.59</ele>
        <time>2012-10-12T09:40:27Z</time>
      </trkpt>
      <trkpt lat="43.4212" lon="6.6145">
        <ele>274.59</ele>
        <time>2012-10-12T09:40:28Z</time>
      </trkpt>
      <trkpt lat="43.42116" lon="6.61448">
        <ele>272.67</ele>
        <time>2012-10-12T09:40:29Z</time>
      </trkpt>
      <trkpt lat="43.42112" lon="6.61446">
        <ele>272.67</ele>
        <time>2012-10-12T09:40:30Z</time>
      </trkpt>
      <trkpt lat="43.42109" lon="6.61445">
        <ele>272.67</ele>
        <time>2012-10-12T09:40:31Z</time>
      </trkpt>
      <trkpt lat="43.42094" lon="6.6143">
        <ele>270.75</ele>
        <time>2012-10-12T09:40:37Z</time>
      </trkpt>
      <trkpt lat="43.42093" lon="6.61427">
        <ele>269.79</ele>
        <time>2012-10-12T09:40:38Z</time>
      </trkpt>
      <trkpt lat="43.42092" lon="6.61423">
        <ele>269.79</ele>
        <time>2012-10-12T09:40:39Z</time>
      </trkpt>
      <trkpt lat="43.42087" lon="6.61411">
        <ele>268.35</ele>
        <time>2012-10-12T09:40:41Z</time>
      </trkpt>
      <trkpt lat="43.42084" lon="6.61397">
        <ele>266.42</ele>
        <time>2012-10-12T09:40:43Z</time>
      </trkpt>
      <trkpt lat="43.42083" lon="6.6139">
        <ele>265.94</ele>
        <time>2012-10-12T09:40:44Z</time>
      </trkpt>
      <trkpt lat="43.42081" lon="6.61384">
        <ele>264.98</ele>
        <time>2012-10-12T09:40:45Z</time>
      </trkpt>
      <trkpt lat="43.42091" lon="6.6136">
        <ele>266.42</ele>
        <time>2012-10-12T09:40:51Z</time>
      </trkpt>
      <trkpt lat="43.42093" lon="6.61344">
        <ele>263.06</ele>
        <time>2012-10-12T09:40:56Z</time>
      </trkpt>
      <trkpt lat="43.42094" lon="6.61341">
        <ele>263.06</ele>
        <time>2012-10-12T09:40:57Z</time>
      </trkpt>
      <trkpt lat="43.42097" lon="6.61339">
        <ele>263.06</ele>
        <time>2012-10-12T09:40:59Z</time>
      </trkpt>
      <trkpt lat="43.421" lon="6.61332">
        <ele>262.1</ele>
        <time>2012-10-12T09:41:05Z</time>
      </trkpt>
      <trkpt lat="43.42102" lon="6.61329">
        <ele>261.62</ele>
        <time>2012-10-12T09:41:07Z</time>
      </trkpt>
      <trkpt lat="43.42106" lon="6.6132">
        <ele>261.14</ele>
        <time>2012-10-12T09:41:16Z</time>
      </trkpt>
      <trkpt lat="43.42103" lon="6.61313">
        <ele>259.69</ele>
        <time>2012-10-12T09:41:24Z</time>
      </trkpt>
      <trkpt lat="43.42102" lon="6.61313">
        <ele>258.73</ele>
        <time>2012-10-12T09:41:25Z</time>
      </trkpt>
      <trkpt lat="43.42098" lon="6.61311">
        <ele>257.29</ele>
        <time>2012-10-12T09:41:30Z</time>
      </trkpt>
      <trkpt lat="43.42093" lon="6.61303">
        <ele>255.85</ele>
        <time>2012-10-12T09:41:39Z</time>
      </trkpt>
      <trkpt lat="43.42092" lon="6.61303">
        <ele>254.41</ele>
        <time>2012-10-12T09:41:40Z</time>
      </trkpt>
      <trkpt lat="43.42088" lon="6.61301">
        <ele>252.96</ele>
        <time>2012-10-12T09:41:44Z</time>
      </trkpt>
      <trkpt lat="43.42086" lon="6.61293">
        <ele>251.04</ele>
        <time>2012-10-12T09:41:50Z</time>
      </trkpt>
      <trkpt lat="43.42078" lon="6.61286">
        <ele>248.64</ele>
        <time>2012-10-12T09:41:59Z</time>
      </trkpt>
      <trkpt lat="43.42075" lon="6.61283">
        <ele>247.2</ele>
        <time>2012-10-12T09:42:06Z</time>
      </trkpt>
      <trkpt lat="43.42073" lon="6.61282">
        <ele>246.23</ele>
        <time>2012-10-12T09:42:09Z</time>
      </trkpt>
      <trkpt lat="43.42071" lon="6.61283">
        <ele>245.27</ele>
        <time>2012-10-12T09:42:11Z</time>
      </trkpt>
      <trkpt lat="43.42069" lon="6.61283">
        <ele>245.27</ele>
        <time>2012-10-12T09:42:13Z</time>
      </trkpt>
      <trkpt lat="43.42066" lon="6.61278">
        <ele>243.83</ele>
        <time>2012-10-12T09:42:18Z</time>
      </trkpt>
      <trkpt lat="43.42065" lon="6.61267">
        <ele>242.39</ele>
        <time>2012-10-12T09:42:26Z</time>
      </trkpt>
      <trkpt lat="43.42059" lon="6.61256">
        <ele>239.02</ele>
        <time>2012-10-12T09:42:32Z</time>
      </trkpt>
      <trkpt lat="43.42054" lon="6.61242">
        <ele>235.66</ele>
        <time>2012-10-12T09:42:39Z</time>
      </trkpt>
      <trkpt lat="43.42049" lon="6.61241">
        <ele>233.26</ele>
        <time>2012-10-12T09:42:41Z</time>
      </trkpt>
      <trkpt lat="43.42042" lon="6.61237">
        <ele>232.3</ele>
        <time>2012-10-12T09:42:43Z</time>
      </trkpt>
      <trkpt lat="43.42029" lon="6.61216">
        <ele>228.45</ele>
        <time>2012-10-12T09:42:49Z</time>
      </trkpt>
      <trkpt lat="43.42021" lon="6.61206">
        <ele>226.53</ele>
        <time>2012-10-12T09:42:52Z</time>
      </trkpt>
      <trkpt lat="43.42014" lon="6.61191">
        <ele>224.12</ele>
        <time>2012-10-12T09:42:56Z</time>
      </trkpt>
      <trkpt lat="43.42012" lon="6.61186">
        <ele>223.16</ele>
        <time>2012-10-12T09:42:57Z</time>
      </trkpt>
      <trkpt lat="43.42005" lon="6.61175">
        <ele>221.24</ele>
        <time>2012-10-12T09:42:59Z</time>
      </trkpt>
      <trkpt lat="43.41994" lon="6.6115">
        <ele>218.36</ele>
        <time>2012-10-12T09:43:06Z</time>
      </trkpt>
      <trkpt lat="43.41993" lon="6.61148">
        <ele>218.36</ele>
        <time>2012-10-12T09:43:07Z</time>
      </trkpt>
      <trkpt lat="43.41991" lon="6.61141">
        <ele>218.36</ele>
        <time>2012-10-12T09:43:10Z</time>
      </trkpt>
      <trkpt lat="43.41989" lon="6.6113">
        <ele>215.95</ele>
        <time>2012-10-12T09:43:14Z</time>
      </trkpt>
      <trkpt lat="43.4199" lon="6.61126">
        <ele>216.43</ele>
        <time>2012-10-12T09:43:21Z</time>
      </trkpt>
      <trkpt lat="43.41988" lon="6.61113">
        <ele>214.03</ele>
        <time>2012-10-12T09:43:28Z</time>
      </trkpt>
      <trkpt lat="43.41983" lon="6.6111">
        <ele>213.07</ele>
        <time>2012-10-12T09:43:32Z</time>
      </trkpt>
      <trkpt lat="43.41979" lon="6.61112">
        <ele>213.07</ele>
        <time>2012-10-12T09:43:34Z</time>
      </trkpt>
      <trkpt lat="43.41973" lon="6.61122">
        <ele>214.51</ele>
        <time>2012-10-12T09:43:39Z</time>
      </trkpt>
      <trkpt lat="43.41972" lon="6.61124">
        <ele>214.99</ele>
        <time>2012-10-12T09:43:40Z</time>
      </trkpt>
      <trkpt lat="43.41954" lon="6.61142">
        <ele>216.91</ele>
        <time>2012-10-12T09:43:52Z</time>
      </trkpt>
      <trkpt lat="43.41937" lon="6.61152">
        <ele>217.4</ele>
        <time>2012-10-12T09:44:02Z</time>
      </trkpt>
      <trkpt lat="43.41917" lon="6.61156">
        <ele>219.8</ele>
        <time>2012-10-12T09:44:13Z</time>
      </trkpt>
      <trkpt lat="43.419" lon="6.61167">
        <ele>221.72</ele>
        <time>2012-10-12T09:44:24Z</time>
      </trkpt>
      <trkpt lat="43.41894" lon="6.61174">
        <ele>223.16</ele>
        <time>2012-10-12T09:44:29Z</time>
      </trkpt>
      <trkpt lat="43.41889" lon="6.61179">
        <ele>224.12</ele>
        <time>2012-10-12T09:44:34Z</time>
      </trkpt>
      <trkpt lat="43.41884" lon="6.6118">
        <ele>225.09</ele>
        <time>2012-10-12T09:44:37Z</time>
      </trkpt>
      <trkpt lat="43.4187" lon="6.61192">
        <ele>225.09</ele>
        <time>2012-10-12T09:44:46Z</time>
      </trkpt>
      <trkpt lat="43.41846" lon="6.61211">
        <ele>226.53</ele>
        <time>2012-10-12T09:44:57Z</time>
      </trkpt>
      <trkpt lat="43.41829" lon="6.6122">
        <ele>226.05</ele>
        <time>2012-10-12T09:45:04Z</time>
      </trkpt>
      <trkpt lat="43.4182" lon="6.6122">
        <ele>225.09</ele>
        <time>2012-10-12T09:45:06Z</time>
      </trkpt>
      <trkpt lat="43.41805" lon="6.6123">
        <ele>227.01</ele>
        <time>2012-10-12T09:45:12Z</time>
      </trkpt>
      <trkpt lat="43.41785" lon="6.61235">
        <ele>227.01</ele>
        <time>2012-10-12T09:45:20Z</time>
      </trkpt>
      <trkpt lat="43.41781" lon="6.61236">
        <ele>227.49</ele>
        <time>2012-10-12T09:45:25Z</time>
      </trkpt>
      <trkpt lat="43.4178" lon="6.61236">
        <ele>227.49</ele>
        <time>2012-10-12T09:45:26Z</time>
      </trkpt>
      <trkpt lat="43.41776" lon="6.61236">
        <ele>227.97</ele>
        <time>2012-10-12T09:45:30Z</time>
      </trkpt>
      <trkpt lat="43.41774" lon="6.61236">
        <ele>228.45</ele>
        <time>2012-10-12T09:45:31Z</time>
      </trkpt>
      <trkpt lat="43.41773" lon="6.61237">
        <ele>228.93</ele>
        <time>2012-10-12T09:45:32Z</time>
      </trkpt>
      <trkpt lat="43.41771" lon="6.61238">
        <ele>229.89</ele>
        <time>2012-10-12T09:45:39Z</time>
      </trkpt>
      <trkpt lat="43.4176" lon="6.61242">
        <ele>231.33</ele>
        <time>2012-10-12T09:45:50Z</time>
      </trkpt>
      <trkpt lat="43.4175" lon="6.61251">
        <ele>232.78</ele>
        <time>2012-10-12T09:45:59Z</time>
      </trkpt>
      <trkpt lat="43.41748" lon="6.61253">
        <ele>232.78</ele>
        <time>2012-10-12T09:46:04Z</time>
      </trkpt>
      <trkpt lat="43.41747" lon="6.61253">
        <ele>232.78</ele>
        <time>2012-10-12T09:46:05Z</time>
      </trkpt>
      <trkpt lat="43.41745" lon="6.61253">
        <ele>232.3</ele>
        <time>2012-10-12T09:46:06Z</time>
      </trkpt>
      <trkpt lat="43.41744" lon="6.61253">
        <ele>233.26</ele>
        <time>2012-10-12T09:46:07Z</time>
      </trkpt>
      <trkpt lat="43.41743" lon="6.61253">
        <ele>232.78</ele>
        <time>2012-10-12T09:46:08Z</time>
      </trkpt>
      <trkpt lat="43.41741" lon="6.61253">
        <ele>233.26</ele>
        <time>2012-10-12T09:46:09Z</time>
      </trkpt>
      <trkpt lat="43.4174" lon="6.61254">
        <ele>233.26</ele>
        <time>2012-10-12T09:46:10Z</time>
      </trkpt>
      <trkpt lat="43.41719" lon="6.61252">
        <ele>234.22</ele>
        <time>2012-10-12T09:46:22Z</time>
      </trkpt>
      <trkpt lat="43.41715" lon="6.61251">
        <ele>233.74</ele>
        <time>2012-10-12T09:46:24Z</time>
      </trkpt>
      <trkpt lat="43.41713" lon="6.61249">
        <ele>233.74</ele>
        <time>2012-10-12T09:46:25Z</time>
      </trkpt>
      <trkpt lat="43.41712" lon="6.61247">
        <ele>234.22</ele>
        <time>2012-10-12T09:46:26Z</time>
      </trkpt>
      <trkpt lat="43.4171" lon="6.61241">
        <ele>234.7</ele>
        <time>2012-10-12T09:46:30Z</time>
      </trkpt>
      <trkpt lat="43.41711" lon="6.61239">
        <ele>234.7</ele>
        <time>2012-10-12T09:46:40Z</time>
      </trkpt>
      <trkpt lat="43.41711" lon="6.61238">
        <ele>234.7</ele>
        <time>2012-10-12T09:47:00Z</time>
      </trkpt>
      <trkpt lat="43.41711" lon="6.61237">
        <ele>234.7</ele>
        <time>2012-10-12T09:47:23Z</time>
      </trkpt>
      <trkpt lat="43.41711" lon="6.61236">
        <ele>234.7</ele>
        <time>2012-10-12T09:47:43Z</time>
      </trkpt>
      <trkpt lat="43.4171" lon="6.61236">
        <ele>234.7</ele>
        <time>2012-10-12T09:48:05Z</time>
      </trkpt>
      <trkpt lat="43.41718" lon="6.61226">
        <ele>234.22</ele>
        <time>2012-10-12T09:48:17Z</time>
      </trkpt>
      <trkpt lat="43.41725" lon="6.61209">
        <ele>234.7</ele>
        <time>2012-10-12T09:48:22Z</time>
      </trkpt>
      <trkpt lat="43.41726" lon="6.61205">
        <ele>233.74</ele>
        <time>2012-10-12T09:48:23Z</time>
      </trkpt>
      <trkpt lat="43.41726" lon="6.612">
        <ele>233.74</ele>
        <time>2012-10-12T09:48:24Z</time>
      </trkpt>
      <trkpt lat="43.41723" lon="6.61165">
        <ele>235.18</ele>
        <time>2012-10-12T09:48:33Z</time>
      </trkpt>
      <trkpt lat="43.41728" lon="6.61147">
        <ele>237.58</ele>
        <time>2012-10-12T09:48:41Z</time>
      </trkpt>
      <trkpt lat="43.41734" lon="6.61138">
        <ele>238.06</ele>
        <time>2012-10-12T09:48:45Z</time>
      </trkpt>
      <trkpt lat="43.41734" lon="6.61136">
        <ele>238.54</ele>
        <time>2012-10-12T09:48:46Z</time>
      </trkpt>
      <trkpt lat="43.41734" lon="6.61134">
        <ele>238.54</ele>
        <time>2012-10-12T09:48:47Z</time>
      </trkpt>
      <trkpt lat="43.41733" lon="6.61132">
        <ele>239.02</ele>
        <time>2012-10-12T09:48:48Z</time>
      </trkpt>
      <trkpt lat="43.41732" lon="6.6113">
        <ele>239.51</ele>
        <time>2012-10-12T09:48:49Z</time>
      </trkpt>
      <trkpt lat="43.41731" lon="6.61129">
        <ele>239.51</ele>
        <time>2012-10-12T09:48:50Z</time>
      </trkpt>
      <trkpt lat="43.4173" lon="6.61128">
        <ele>239.51</ele>
        <time>2012-10-12T09:48:51Z</time>
      </trkpt>
      <trkpt lat="43.41728" lon="6.61128">
        <ele>239.99</ele>
        <time>2012-10-12T09:48:52Z</time>
      </trkpt>
      <trkpt lat="43.41727" lon="6.61128">
        <ele>239.99</ele>
        <time>2012-10-12T09:48:53Z</time>
      </trkpt>
      <trkpt lat="43.4171" lon="6.6113">
        <ele>241.91</ele>
        <time>2012-10-12T09:49:03Z</time>
      </trkpt>
      <trkpt lat="43.41693" lon="6.61124">
        <ele>243.83</ele>
        <time>2012-10-12T09:49:14Z</time>
      </trkpt>
      <trkpt lat="43.41679" lon="6.61113">
        <ele>245.75</ele>
        <time>2012-10-12T09:49:23Z</time>
      </trkpt>
      <trkpt lat="43.41677" lon="6.61109">
        <ele>246.23</ele>
        <time>2012-10-12T09:49:25Z</time>
      </trkpt>
      <trkpt lat="43.41669" lon="6.61086">
        <ele>247.68</ele>
        <time>2012-10-12T09:49:35Z</time>
      </trkpt>
      <trkpt lat="43.41661" lon="6.61072">
        <ele>248.16</ele>
        <time>2012-10-12T09:49:42Z</time>
      </trkpt>
      <trkpt lat="43.41659" lon="6.61071">
        <ele>248.64</ele>
        <time>2012-10-12T09:49:43Z</time>
      </trkpt>
      <trkpt lat="43.41658" lon="6.61071">
        <ele>249.12</ele>
        <time>2012-10-12T09:49:44Z</time>
      </trkpt>
      <trkpt lat="43.41656" lon="6.6107">
        <ele>249.12</ele>
        <time>2012-10-12T09:49:45Z</time>
      </trkpt>
      <trkpt lat="43.41654" lon="6.61069">
        <ele>249.12</ele>
        <time>2012-10-12T09:49:46Z</time>
      </trkpt>
      <trkpt lat="43.41653" lon="6.61069">
        <ele>249.12</ele>
        <time>2012-10-12T09:49:47Z</time>
      </trkpt>
      <trkpt lat="43.41651" lon="6.61069">
        <ele>249.6</ele>
        <time>2012-10-12T09:49:48Z</time>
      </trkpt>
      <trkpt lat="43.41649" lon="6.61068">
        <ele>249.6</ele>
        <time>2012-10-12T09:49:49Z</time>
      </trkpt>
      <trkpt lat="43.41647" lon="6.61067">
        <ele>250.08</ele>
        <time>2012-10-12T09:49:50Z</time>
      </trkpt>
      <trkpt lat="43.41646" lon="6.61066">
        <ele>250.08</ele>
        <time>2012-10-12T09:49:51Z</time>
      </trkpt>
      <trkpt lat="43.41632" lon="6.61056">
        <ele>252</ele>
        <time>2012-10-12T09:50:00Z</time>
      </trkpt>
      <trkpt lat="43.41618" lon="6.61041">
        <ele>253.44</ele>
        <time>2012-10-12T09:50:11Z</time>
      </trkpt>
      <trkpt lat="43.41613" lon="6.61035">
        <ele>254.89</ele>
        <time>2012-10-12T09:50:16Z</time>
      </trkpt>
      <trkpt lat="43.41612" lon="6.61034">
        <ele>255.85</ele>
        <time>2012-10-12T09:50:17Z</time>
      </trkpt>
      <trkpt lat="43.41608" lon="6.61029">
        <ele>255.85</ele>
        <time>2012-10-12T09:50:21Z</time>
      </trkpt>
      <trkpt lat="43.41607" lon="6.61027">
        <ele>255.37</ele>
        <time>2012-10-12T09:50:22Z</time>
      </trkpt>
      <trkpt lat="43.41607" lon="6.61026">
        <ele>255.37</ele>
        <time>2012-10-12T09:50:23Z</time>
      </trkpt>
      <trkpt lat="43.41606" lon="6.61024">
        <ele>255.37</ele>
        <time>2012-10-12T09:50:24Z</time>
      </trkpt>
      <trkpt lat="43.41606" lon="6.61023">
        <ele>255.85</ele>
        <time>2012-10-12T09:50:25Z</time>
      </trkpt>
      <trkpt lat="43.41605" lon="6.61021">
        <ele>255.85</ele>
        <time>2012-10-12T09:50:26Z</time>
      </trkpt>
      <trkpt lat="43.41605" lon="6.61019">
        <ele>256.33</ele>
        <time>2012-10-12T09:50:27Z</time>
      </trkpt>
      <trkpt lat="43.41604" lon="6.61017">
        <ele>256.33</ele>
        <time>2012-10-12T09:50:28Z</time>
      </trkpt>
      <trkpt lat="43.41602" lon="6.61011">
        <ele>256.81</ele>
        <time>2012-10-12T09:50:31Z</time>
      </trkpt>
      <trkpt lat="43.41601" lon="6.6101">
        <ele>256.81</ele>
        <time>2012-10-12T09:50:32Z</time>
      </trkpt>
      <trkpt lat="43.41599" lon="6.61008">
        <ele>256.81</ele>
        <time>2012-10-12T09:50:33Z</time>
      </trkpt>
      <trkpt lat="43.41598" lon="6.61007">
        <ele>257.29</ele>
        <time>2012-10-12T09:50:34Z</time>
      </trkpt>
      <trkpt lat="43.41597" lon="6.61006">
        <ele>257.29</ele>
        <time>2012-10-12T09:50:35Z</time>
      </trkpt>
      <trkpt lat="43.41596" lon="6.61006">
        <ele>257.29</ele>
        <time>2012-10-12T09:50:36Z</time>
      </trkpt>
      <trkpt lat="43.41594" lon="6.61005">
        <ele>258.25</ele>
        <time>2012-10-12T09:50:37Z</time>
      </trkpt>
      <trkpt lat="43.41593" lon="6.61006">
        <ele>258.25</ele>
        <time>2012-10-12T09:50:38Z</time>
      </trkpt>
      <trkpt lat="43.41592" lon="6.61007">
        <ele>258.25</ele>
        <time>2012-10-12T09:50:39Z</time>
      </trkpt>
      <trkpt lat="43.41591" lon="6.61008">
        <ele>258.73</ele>
        <time>2012-10-12T09:50:40Z</time>
      </trkpt>
      <trkpt lat="43.4159" lon="6.61009">
        <ele>258.73</ele>
        <time>2012-10-12T09:50:41Z</time>
      </trkpt>
      <trkpt lat="43.4159" lon="6.61011">
        <ele>258.73</ele>
        <time>2012-10-12T09:50:42Z</time>
      </trkpt>
      <trkpt lat="43.41589" lon="6.61013">
        <ele>259.21</ele>
        <time>2012-10-12T09:50:43Z</time>
      </trkpt>
      <trkpt lat="43.41589" lon="6.61015">
        <ele>259.21</ele>
        <time>2012-10-12T09:50:44Z</time>
      </trkpt>
      <trkpt lat="43.41589" lon="6.61018">
        <ele>259.21</ele>
        <time>2012-10-12T09:50:45Z</time>
      </trkpt>
      <trkpt lat="43.41588" lon="6.6102">
        <ele>259.21</ele>
        <time>2012-10-12T09:50:46Z</time>
      </trkpt>
      <trkpt lat="43.41584" lon="6.6104">
        <ele>260.65</ele>
        <time>2012-10-12T09:50:54Z</time>
      </trkpt>
      <trkpt lat="43.41583" lon="6.61042">
        <ele>260.17</ele>
        <time>2012-10-12T09:50:55Z</time>
      </trkpt>
      <trkpt lat="43.41582" lon="6.61043">
        <ele>261.14</ele>
        <time>2012-10-12T09:50:56Z</time>
      </trkpt>
      <trkpt lat="43.4158" lon="6.61045">
        <ele>261.14</ele>
        <time>2012-10-12T09:50:57Z</time>
      </trkpt>
      <trkpt lat="43.41579" lon="6.61046">
        <ele>261.14</ele>
        <time>2012-10-12T09:50:58Z</time>
      </trkpt>
      <trkpt lat="43.41577" lon="6.61047">
        <ele>261.14</ele>
        <time>2012-10-12T09:50:59Z</time>
      </trkpt>
      <trkpt lat="43.41576" lon="6.61048">
        <ele>261.62</ele>
        <time>2012-10-12T09:51:00Z</time>
      </trkpt>
      <trkpt lat="43.41574" lon="6.61048">
        <ele>261.14</ele>
        <time>2012-10-12T09:51:01Z</time>
      </trkpt>
      <trkpt lat="43.41572" lon="6.61048">
        <ele>261.62</ele>
        <time>2012-10-12T09:51:02Z</time>
      </trkpt>
      <trkpt lat="43.41554" lon="6.61044">
        <ele>263.06</ele>
        <time>2012-10-12T09:51:11Z</time>
      </trkpt>
      <trkpt lat="43.41536" lon="6.61042">
        <ele>264.02</ele>
        <time>2012-10-12T09:51:20Z</time>
      </trkpt>
      <trkpt lat="43.41518" lon="6.61035">
        <ele>265.94</ele>
        <time>2012-10-12T09:51:29Z</time>
      </trkpt>
      <trkpt lat="43.415" lon="6.61019">
        <ele>266.9</ele>
        <time>2012-10-12T09:51:39Z</time>
      </trkpt>
      <trkpt lat="43.41482" lon="6.61024">
        <ele>268.35</ele>
        <time>2012-10-12T09:51:48Z</time>
      </trkpt>
      <trkpt lat="43.41458" lon="6.61026">
        <ele>269.79</ele>
        <time>2012-10-12T09:51:58Z</time>
      </trkpt>
      <trkpt lat="43.41434" lon="6.61018">
        <ele>271.23</ele>
        <time>2012-10-12T09:52:07Z</time>
      </trkpt>
      <trkpt lat="43.41407" lon="6.61011">
        <ele>272.67</ele>
        <time>2012-10-12T09:52:18Z</time>
      </trkpt>
      <trkpt lat="43.41379" lon="6.61001">
        <ele>273.15</ele>
        <time>2012-10-12T09:52:29Z</time>
      </trkpt>
      <trkpt lat="43.41351" lon="6.60986">
        <ele>274.59</ele>
        <time>2012-10-12T09:52:38Z</time>
      </trkpt>
      <trkpt lat="43.41321" lon="6.60966">
        <ele>275.07</ele>
        <time>2012-10-12T09:52:49Z</time>
      </trkpt>
      <trkpt lat="43.413" lon="6.60941">
        <ele>277</ele>
        <time>2012-10-12T09:53:00Z</time>
      </trkpt>
      <trkpt lat="43.4128" lon="6.60907">
        <ele>278.92</ele>
        <time>2012-10-12T09:53:13Z</time>
      </trkpt>
      <trkpt lat="43.41264" lon="6.60884">
        <ele>281.32</ele>
        <time>2012-10-12T09:53:24Z</time>
      </trkpt>
      <trkpt lat="43.41259" lon="6.6088">
        <ele>281.8</ele>
        <time>2012-10-12T09:53:27Z</time>
      </trkpt>
      <trkpt lat="43.41257" lon="6.60879">
        <ele>282.28</ele>
        <time>2012-10-12T09:53:28Z</time>
      </trkpt>
      <trkpt lat="43.41237" lon="6.60877">
        <ele>283.73</ele>
        <time>2012-10-12T09:53:38Z</time>
      </trkpt>
      <trkpt lat="43.4122" lon="6.60867">
        <ele>285.17</ele>
        <time>2012-10-12T09:53:48Z</time>
      </trkpt>
      <trkpt lat="43.41204" lon="6.60851">
        <ele>286.61</ele>
        <time>2012-10-12T09:53:58Z</time>
      </trkpt>
      <trkpt lat="43.41189" lon="6.60841">
        <ele>288.53</ele>
        <time>2012-10-12T09:54:07Z</time>
      </trkpt>
      <trkpt lat="43.41181" lon="6.60837">
        <ele>289.97</ele>
        <time>2012-10-12T09:54:13Z</time>
      </trkpt>
      <trkpt lat="43.41179" lon="6.60836">
        <ele>289.97</ele>
        <time>2012-10-12T09:54:14Z</time>
      </trkpt>
      <trkpt lat="43.41166" lon="6.60824">
        <ele>291.9</ele>
        <time>2012-10-12T09:54:23Z</time>
      </trkpt>
      <trkpt lat="43.41158" lon="6.60817">
        <ele>292.86</ele>
        <time>2012-10-12T09:54:29Z</time>
      </trkpt>
      <trkpt lat="43.41156" lon="6.60817">
        <ele>292.86</ele>
        <time>2012-10-12T09:54:30Z</time>
      </trkpt>
      <trkpt lat="43.41155" lon="6.60818">
        <ele>292.86</ele>
        <time>2012-10-12T09:54:31Z</time>
      </trkpt>
      <trkpt lat="43.41154" lon="6.6082">
        <ele>293.34</ele>
        <time>2012-10-12T09:54:32Z</time>
      </trkpt>
      <trkpt lat="43.41152" lon="6.6083">
        <ele>293.82</ele>
        <time>2012-10-12T09:54:36Z</time>
      </trkpt>
      <trkpt lat="43.41158" lon="6.60858">
        <ele>294.3</ele>
        <time>2012-10-12T09:54:46Z</time>
      </trkpt>
      <trkpt lat="43.41168" lon="6.60886">
        <ele>296.22</ele>
        <time>2012-10-12T09:54:57Z</time>
      </trkpt>
      <trkpt lat="43.4118" lon="6.6091">
        <ele>297.18</ele>
        <time>2012-10-12T09:55:07Z</time>
      </trkpt>
      <trkpt lat="43.41194" lon="6.60936">
        <ele>297.67</ele>
        <time>2012-10-12T09:55:17Z</time>
      </trkpt>
      <trkpt lat="43.41215" lon="6.60971">
        <ele>299.59</ele>
        <time>2012-10-12T09:55:29Z</time>
      </trkpt>
      <trkpt lat="43.4123" lon="6.60999">
        <ele>300.07</ele>
        <time>2012-10-12T09:55:38Z</time>
      </trkpt>
      <trkpt lat="43.4124" lon="6.61025">
        <ele>301.03</ele>
        <time>2012-10-12T09:55:47Z</time>
      </trkpt>
      <trkpt lat="43.41255" lon="6.61053">
        <ele>301.99</ele>
        <time>2012-10-12T09:55:58Z</time>
      </trkpt>
      <trkpt lat="43.41267" lon="6.61082">
        <ele>303.91</ele>
        <time>2012-10-12T09:56:08Z</time>
      </trkpt>
      <trkpt lat="43.41267" lon="6.61085">
        <ele>304.39</ele>
        <time>2012-10-12T09:56:09Z</time>
      </trkpt>
      <trkpt lat="43.41266" lon="6.61088">
        <ele>304.39</ele>
        <time>2012-10-12T09:56:10Z</time>
      </trkpt>
      <trkpt lat="43.41265" lon="6.61091">
        <ele>304.39</ele>
        <time>2012-10-12T09:56:11Z</time>
      </trkpt>
      <trkpt lat="43.41263" lon="6.61093">
        <ele>305.84</ele>
        <time>2012-10-12T09:56:12Z</time>
      </trkpt>
      <trkpt lat="43.41261" lon="6.61094">
        <ele>304.88</ele>
        <time>2012-10-12T09:56:13Z</time>
      </trkpt>
      <trkpt lat="43.41259" lon="6.61095">
        <ele>305.36</ele>
        <time>2012-10-12T09:56:14Z</time>
      </trkpt>
      <trkpt lat="43.41257" lon="6.61095">
        <ele>305.36</ele>
        <time>2012-10-12T09:56:15Z</time>
      </trkpt>
      <trkpt lat="43.41255" lon="6.61095">
        <ele>305.36</ele>
        <time>2012-10-12T09:56:16Z</time>
      </trkpt>
      <trkpt lat="43.41239" lon="6.61085">
        <ele>307.28</ele>
        <time>2012-10-12T09:56:25Z</time>
      </trkpt>
      <trkpt lat="43.41222" lon="6.61077">
        <ele>308.72</ele>
        <time>2012-10-12T09:56:35Z</time>
      </trkpt>
      <trkpt lat="43.412" lon="6.61078">
        <ele>310.64</ele>
        <time>2012-10-12T09:56:46Z</time>
      </trkpt>
      <trkpt lat="43.41174" lon="6.61076">
        <ele>312.09</ele>
        <time>2012-10-12T09:56:58Z</time>
      </trkpt>
      <trkpt lat="43.4115" lon="6.61069">
        <ele>312.57</ele>
        <time>2012-10-12T09:57:09Z</time>
      </trkpt>
      <trkpt lat="43.41127" lon="6.61062">
        <ele>314.97</ele>
        <time>2012-10-12T09:57:19Z</time>
      </trkpt>
      <trkpt lat="43.41102" lon="6.61047">
        <ele>316.41</ele>
        <time>2012-10-12T09:57:30Z</time>
      </trkpt>
      <trkpt lat="43.41082" lon="6.61021">
        <ele>315.93</ele>
        <time>2012-10-12T09:57:41Z</time>
      </trkpt>
      <trkpt lat="43.41073" lon="6.60994">
        <ele>316.89</ele>
        <time>2012-10-12T09:57:49Z</time>
      </trkpt>
      <trkpt lat="43.41065" lon="6.60954">
        <ele>316.89</ele>
        <time>2012-10-12T09:57:59Z</time>
      </trkpt>
      <trkpt lat="43.41058" lon="6.60909">
        <ele>319.78</ele>
        <time>2012-10-12T09:58:10Z</time>
      </trkpt>
      <trkpt lat="43.41049" lon="6.60873">
        <ele>320.74</ele>
        <time>2012-10-12T09:58:19Z</time>
      </trkpt>
      <trkpt lat="43.41027" lon="6.60826">
        <ele>322.18</ele>
        <time>2012-10-12T09:58:32Z</time>
      </trkpt>
      <trkpt lat="43.41004" lon="6.60802">
        <ele>324.1</ele>
        <time>2012-10-12T09:58:42Z</time>
      </trkpt>
      <trkpt lat="43.40981" lon="6.60792">
        <ele>325.06</ele>
        <time>2012-10-12T09:58:51Z</time>
      </trkpt>
      <trkpt lat="43.40955" lon="6.60772">
        <ele>326.02</ele>
        <time>2012-10-12T09:59:01Z</time>
      </trkpt>
      <trkpt lat="43.40934" lon="6.60762">
        <ele>325.54</ele>
        <time>2012-10-12T09:59:09Z</time>
      </trkpt>
      <trkpt lat="43.40914" lon="6.60773">
        <ele>325.06</ele>
        <time>2012-10-12T09:59:14Z</time>
      </trkpt>
      <trkpt lat="43.40871" lon="6.60793">
        <ele>325.06</ele>
        <time>2012-10-12T09:59:24Z</time>
      </trkpt>
      <trkpt lat="43.40859" lon="6.60794">
        <ele>324.58</ele>
        <time>2012-10-12T09:59:27Z</time>
      </trkpt>
      <trkpt lat="43.4085" lon="6.60793">
        <ele>324.58</ele>
        <time>2012-10-12T09:59:29Z</time>
      </trkpt>
      <trkpt lat="43.40846" lon="6.60791">
        <ele>324.58</ele>
        <time>2012-10-12T09:59:30Z</time>
      </trkpt>
      <trkpt lat="43.40842" lon="6.60787">
        <ele>325.06</ele>
        <time>2012-10-12T09:59:31Z</time>
      </trkpt>
      <trkpt lat="43.40838" lon="6.60784">
        <ele>324.58</ele>
        <time>2012-10-12T09:59:32Z</time>
      </trkpt>
      <trkpt lat="43.40816" lon="6.60765">
        <ele>325.06</ele>
        <time>2012-10-12T09:59:38Z</time>
      </trkpt>
      <trkpt lat="43.40813" lon="6.60761">
        <ele>324.58</ele>
        <time>2012-10-12T09:59:39Z</time>
      </trkpt>
      <trkpt lat="43.40807" lon="6.60753">
        <ele>325.06</ele>
        <time>2012-10-12T09:59:41Z</time>
      </trkpt>
      <trkpt lat="43.40803" lon="6.60751">
        <ele>324.58</ele>
        <time>2012-10-12T09:59:42Z</time>
      </trkpt>
      <trkpt lat="43.40791" lon="6.60748">
        <ele>325.06</ele>
        <time>2012-10-12T09:59:45Z</time>
      </trkpt>
      <trkpt lat="43.40787" lon="6.60746">
        <ele>325.06</ele>
        <time>2012-10-12T09:59:46Z</time>
      </trkpt>
      <trkpt lat="43.40784" lon="6.60743">
        <ele>325.06</ele>
        <time>2012-10-12T09:59:47Z</time>
      </trkpt>
      <trkpt lat="43.40782" lon="6.60738">
        <ele>325.06</ele>
        <time>2012-10-12T09:59:48Z</time>
      </trkpt>
      <trkpt lat="43.40779" lon="6.60733">
        <ele>325.06</ele>
        <time>2012-10-12T09:59:49Z</time>
      </trkpt>
      <trkpt lat="43.40775" lon="6.60729">
        <ele>324.58</ele>
        <time>2012-10-12T09:59:50Z</time>
      </trkpt>
      <trkpt lat="43.40772" lon="6.60724">
        <ele>324.58</ele>
        <time>2012-10-12T09:59:51Z</time>
      </trkpt>
      <trkpt lat="43.40769" lon="6.6072">
        <ele>325.06</ele>
        <time>2012-10-12T09:59:52Z</time>
      </trkpt>
      <trkpt lat="43.40765" lon="6.60717">
        <ele>324.58</ele>
        <time>2012-10-12T09:59:53Z</time>
      </trkpt>
      <trkpt lat="43.40761" lon="6.60715">
        <ele>325.06</ele>
        <time>2012-10-12T09:59:54Z</time>
      </trkpt>
      <trkpt lat="43.40754" lon="6.60712">
        <ele>325.06</ele>
        <time>2012-10-12T09:59:56Z</time>
      </trkpt>
      <trkpt lat="43.4075" lon="6.6071">
        <ele>324.58</ele>
        <time>2012-10-12T09:59:57Z</time>
      </trkpt>
      <trkpt lat="43.4071" lon="6.60698">
        <ele>326.02</ele>
        <time>2012-10-12T10:00:08Z</time>
      </trkpt>
      <trkpt lat="43.40688" lon="6.60691">
        <ele>327.47</ele>
        <time>2012-10-12T10:00:17Z</time>
      </trkpt>
      <trkpt lat="43.40664" lon="6.60675">
        <ele>328.91</ele>
        <time>2012-10-12T10:00:27Z</time>
      </trkpt>
      <trkpt lat="43.40634" lon="6.60661">
        <ele>328.91</ele>
        <time>2012-10-12T10:00:39Z</time>
      </trkpt>
      <trkpt lat="43.40632" lon="6.60667">
        <ele>328.91</ele>
        <time>2012-10-12T10:00:41Z</time>
      </trkpt>
      <trkpt lat="43.40646" lon="6.60693">
        <ele>328.91</ele>
        <time>2012-10-12T10:00:49Z</time>
      </trkpt>
      <trkpt lat="43.40686" lon="6.60732">
        <ele>326.99</ele>
        <time>2012-10-12T10:01:00Z</time>
      </trkpt>
      <trkpt lat="43.40727" lon="6.60774">
        <ele>326.5</ele>
        <time>2012-10-12T10:01:10Z</time>
      </trkpt>
      <trkpt lat="43.4073" lon="6.6078">
        <ele>326.5</ele>
        <time>2012-10-12T10:01:11Z</time>
      </trkpt>
      <trkpt lat="43.40732" lon="6.60786">
        <ele>326.02</ele>
        <time>2012-10-12T10:01:12Z</time>
      </trkpt>
      <trkpt lat="43.40734" lon="6.60793">
        <ele>326.5</ele>
        <time>2012-10-12T10:01:13Z</time>
      </trkpt>
      <trkpt lat="43.40736" lon="6.608">
        <ele>326.02</ele>
        <time>2012-10-12T10:01:14Z</time>
      </trkpt>
      <trkpt lat="43.40737" lon="6.60808">
        <ele>326.02</ele>
        <time>2012-10-12T10:01:15Z</time>
      </trkpt>
      <trkpt lat="43.40746" lon="6.60881">
        <ele>326.5</ele>
        <time>2012-10-12T10:01:27Z</time>
      </trkpt>
      <trkpt lat="43.40761" lon="6.60926">
        <ele>327.47</ele>
        <time>2012-10-12T10:01:38Z</time>
      </trkpt>
      <trkpt lat="43.40781" lon="6.60969">
        <ele>328.91</ele>
        <time>2012-10-12T10:01:48Z</time>
      </trkpt>
      <trkpt lat="43.40779" lon="6.60974">
        <ele>328.43</ele>
        <time>2012-10-12T10:01:49Z</time>
      </trkpt>
      <trkpt lat="43.40776" lon="6.60977">
        <ele>328.91</ele>
        <time>2012-10-12T10:01:50Z</time>
      </trkpt>
      <trkpt lat="43.40772" lon="6.60979">
        <ele>328.91</ele>
        <time>2012-10-12T10:01:51Z</time>
      </trkpt>
      <trkpt lat="43.40768" lon="6.60979">
        <ele>328.43</ele>
        <time>2012-10-12T10:01:52Z</time>
      </trkpt>
      <trkpt lat="43.40764" lon="6.60979">
        <ele>328.43</ele>
        <time>2012-10-12T10:01:53Z</time>
      </trkpt>
      <trkpt lat="43.40759" lon="6.60977">
        <ele>327.95</ele>
        <time>2012-10-12T10:01:54Z</time>
      </trkpt>
      <trkpt lat="43.40754" lon="6.60976">
        <ele>327.95</ele>
        <time>2012-10-12T10:01:55Z</time>
      </trkpt>
      <trkpt lat="43.40716" lon="6.60957">
        <ele>327.95</ele>
        <time>2012-10-12T10:02:04Z</time>
      </trkpt>
      <trkpt lat="43.40713" lon="6.60958">
        <ele>327.95</ele>
        <time>2012-10-12T10:02:05Z</time>
      </trkpt>
      <trkpt lat="43.40711" lon="6.60961">
        <ele>327.95</ele>
        <time>2012-10-12T10:02:06Z</time>
      </trkpt>
      <trkpt lat="43.4071" lon="6.60965">
        <ele>328.43</ele>
        <time>2012-10-12T10:02:07Z</time>
      </trkpt>
      <trkpt lat="43.40714" lon="6.61002">
        <ele>329.87</ele>
        <time>2012-10-12T10:02:16Z</time>
      </trkpt>
      <trkpt lat="43.40713" lon="6.61007">
        <ele>329.87</ele>
        <time>2012-10-12T10:02:17Z</time>
      </trkpt>
      <trkpt lat="43.40712" lon="6.61011">
        <ele>329.87</ele>
        <time>2012-10-12T10:02:18Z</time>
      </trkpt>
      <trkpt lat="43.4071" lon="6.61015">
        <ele>329.39</ele>
        <time>2012-10-12T10:02:19Z</time>
      </trkpt>
      <trkpt lat="43.40707" lon="6.61019">
        <ele>329.87</ele>
        <time>2012-10-12T10:02:20Z</time>
      </trkpt>
      <trkpt lat="43.40704" lon="6.61022">
        <ele>329.87</ele>
        <time>2012-10-12T10:02:21Z</time>
      </trkpt>
      <trkpt lat="43.40702" lon="6.61024">
        <ele>329.39</ele>
        <time>2012-10-12T10:02:22Z</time>
      </trkpt>
      <trkpt lat="43.40699" lon="6.61027">
        <ele>329.87</ele>
        <time>2012-10-12T10:02:23Z</time>
      </trkpt>
      <trkpt lat="43.40697" lon="6.61029">
        <ele>329.87</ele>
        <time>2012-10-12T10:02:24Z</time>
      </trkpt>
      <trkpt lat="43.40695" lon="6.61033">
        <ele>329.87</ele>
        <time>2012-10-12T10:02:25Z</time>
      </trkpt>
      <trkpt lat="43.40694" lon="6.61037">
        <ele>330.35</ele>
        <time>2012-10-12T10:02:26Z</time>
      </trkpt>
      <trkpt lat="43.40691" lon="6.61076">
        <ele>331.79</ele>
        <time>2012-10-12T10:02:35Z</time>
      </trkpt>
      <trkpt lat="43.40697" lon="6.61108">
        <ele>331.79</ele>
        <time>2012-10-12T10:02:44Z</time>
      </trkpt>
      <trkpt lat="43.40711" lon="6.6115">
        <ele>333.71</ele>
        <time>2012-10-12T10:02:56Z</time>
      </trkpt>
      <trkpt lat="43.40717" lon="6.61181">
        <ele>336.12</ele>
        <time>2012-10-12T10:03:04Z</time>
      </trkpt>
      <trkpt lat="43.40713" lon="6.61226">
        <ele>336.6</ele>
        <time>2012-10-12T10:03:13Z</time>
      </trkpt>
      <trkpt lat="43.40688" lon="6.61247">
        <ele>338.04</ele>
        <time>2012-10-12T10:03:22Z</time>
      </trkpt>
      <trkpt lat="43.40657" lon="6.61243">
        <ele>339.96</ele>
        <time>2012-10-12T10:03:32Z</time>
      </trkpt>
      <trkpt lat="43.40628" lon="6.61247">
        <ele>340.92</ele>
        <time>2012-10-12T10:03:41Z</time>
      </trkpt>
      <trkpt lat="43.40597" lon="6.61269">
        <ele>341.89</ele>
        <time>2012-10-12T10:03:52Z</time>
      </trkpt>
      <trkpt lat="43.40562" lon="6.61265">
        <ele>343.33</ele>
        <time>2012-10-12T10:04:02Z</time>
      </trkpt>
      <trkpt lat="43.40524" lon="6.61235">
        <ele>344.77</ele>
        <time>2012-10-12T10:04:14Z</time>
      </trkpt>
      <trkpt lat="43.40499" lon="6.61219">
        <ele>346.69</ele>
        <time>2012-10-12T10:04:22Z</time>
      </trkpt>
      <trkpt lat="43.40479" lon="6.61207">
        <ele>347.17</ele>
        <time>2012-10-12T10:04:29Z</time>
      </trkpt>
      <trkpt lat="43.40456" lon="6.6119">
        <ele>348.13</ele>
        <time>2012-10-12T10:04:38Z</time>
      </trkpt>
      <trkpt lat="43.40454" lon="6.61193">
        <ele>348.13</ele>
        <time>2012-10-12T10:04:39Z</time>
      </trkpt>
      <trkpt lat="43.40453" lon="6.61197">
        <ele>348.13</ele>
        <time>2012-10-12T10:04:40Z</time>
      </trkpt>
      <trkpt lat="43.40452" lon="6.61201">
        <ele>348.13</ele>
        <time>2012-10-12T10:04:41Z</time>
      </trkpt>
      <trkpt lat="43.40452" lon="6.61204">
        <ele>348.13</ele>
        <time>2012-10-12T10:04:42Z</time>
      </trkpt>
      <trkpt lat="43.40455" lon="6.6124">
        <ele>349.1</ele>
        <time>2012-10-12T10:04:50Z</time>
      </trkpt>
      <trkpt lat="43.40455" lon="6.61291">
        <ele>349.58</ele>
        <time>2012-10-12T10:05:01Z</time>
      </trkpt>
      <trkpt lat="43.40442" lon="6.61325">
        <ele>351.02</ele>
        <time>2012-10-12T10:05:11Z</time>
      </trkpt>
      <trkpt lat="43.40455" lon="6.61353">
        <ele>351.5</ele>
        <time>2012-10-12T10:05:19Z</time>
      </trkpt>
      <trkpt lat="43.40482" lon="6.61381">
        <ele>352.94</ele>
        <time>2012-10-12T10:05:28Z</time>
      </trkpt>
      <trkpt lat="43.40506" lon="6.6141">
        <ele>353.9</ele>
        <time>2012-10-12T10:05:37Z</time>
      </trkpt>
      <trkpt lat="43.40524" lon="6.61445">
        <ele>354.38</ele>
        <time>2012-10-12T10:05:46Z</time>
      </trkpt>
      <trkpt lat="43.40547" lon="6.61479">
        <ele>355.34</ele>
        <time>2012-10-12T10:05:56Z</time>
      </trkpt>
      <trkpt lat="43.40573" lon="6.61505">
        <ele>357.27</ele>
        <time>2012-10-12T10:06:06Z</time>
      </trkpt>
      <trkpt lat="43.40599" lon="6.6152">
        <ele>357.27</ele>
        <time>2012-10-12T10:06:14Z</time>
      </trkpt>
      <trkpt lat="43.40637" lon="6.61531">
        <ele>358.71</ele>
        <time>2012-10-12T10:06:24Z</time>
      </trkpt>
      <trkpt lat="43.4067" lon="6.61538">
        <ele>359.67</ele>
        <time>2012-10-12T10:06:33Z</time>
      </trkpt>
      <trkpt lat="43.40679" lon="6.61543">
        <ele>361.11</ele>
        <time>2012-10-12T10:06:36Z</time>
      </trkpt>
      <trkpt lat="43.4071" lon="6.61554">
        <ele>364</ele>
        <time>2012-10-12T10:06:47Z</time>
      </trkpt>
      <trkpt lat="43.40733" lon="6.61566">
        <ele>366.4</ele>
        <time>2012-10-12T10:06:55Z</time>
      </trkpt>
      <trkpt lat="43.40755" lon="6.61585">
        <ele>366.88</ele>
        <time>2012-10-12T10:07:03Z</time>
      </trkpt>
      <trkpt lat="43.40787" lon="6.61616">
        <ele>369.28</ele>
        <time>2012-10-12T10:07:15Z</time>
      </trkpt>
      <trkpt lat="43.40795" lon="6.61645">
        <ele>371.21</ele>
        <time>2012-10-12T10:07:24Z</time>
      </trkpt>
      <trkpt lat="43.40779" lon="6.61663">
        <ele>371.69</ele>
        <time>2012-10-12T10:07:32Z</time>
      </trkpt>
      <trkpt lat="43.40756" lon="6.61676">
        <ele>372.65</ele>
        <time>2012-10-12T10:07:41Z</time>
      </trkpt>
      <trkpt lat="43.40729" lon="6.61692">
        <ele>374.57</ele>
        <time>2012-10-12T10:07:51Z</time>
      </trkpt>
      <trkpt lat="43.40709" lon="6.61704">
        <ele>375.53</ele>
        <time>2012-10-12T10:07:58Z</time>
      </trkpt>
      <trkpt lat="43.4068" lon="6.61726">
        <ele>376.97</ele>
        <time>2012-10-12T10:08:09Z</time>
      </trkpt>
      <trkpt lat="43.40651" lon="6.61732">
        <ele>378.42</ele>
        <time>2012-10-12T10:08:19Z</time>
      </trkpt>
      <trkpt lat="43.40627" lon="6.61751">
        <ele>379.86</ele>
        <time>2012-10-12T10:08:28Z</time>
      </trkpt>
      <trkpt lat="43.40603" lon="6.61774">
        <ele>380.34</ele>
        <time>2012-10-12T10:08:37Z</time>
      </trkpt>
      <trkpt lat="43.40579" lon="6.61813">
        <ele>382.26</ele>
        <time>2012-10-12T10:08:48Z</time>
      </trkpt>
      <trkpt lat="43.40567" lon="6.61836">
        <ele>384.18</ele>
        <time>2012-10-12T10:08:54Z</time>
      </trkpt>
      <trkpt lat="43.4055" lon="6.61866">
        <ele>385.15</ele>
        <time>2012-10-12T10:09:02Z</time>
      </trkpt>
      <trkpt lat="43.40536" lon="6.61894">
        <ele>385.63</ele>
        <time>2012-10-12T10:09:09Z</time>
      </trkpt>
      <trkpt lat="43.40533" lon="6.61898">
        <ele>385.63</ele>
        <time>2012-10-12T10:09:10Z</time>
      </trkpt>
      <trkpt lat="43.40521" lon="6.6191">
        <ele>385.63</ele>
        <time>2012-10-12T10:09:14Z</time>
      </trkpt>
      <trkpt lat="43.40513" lon="6.61915">
        <ele>385.63</ele>
        <time>2012-10-12T10:09:16Z</time>
      </trkpt>
      <trkpt lat="43.40509" lon="6.61916">
        <ele>385.63</ele>
        <time>2012-10-12T10:09:17Z</time>
      </trkpt>
      <trkpt lat="43.40501" lon="6.6192">
        <ele>385.63</ele>
        <time>2012-10-12T10:09:19Z</time>
      </trkpt>
      <trkpt lat="43.40497" lon="6.6192">
        <ele>385.15</ele>
        <time>2012-10-12T10:09:20Z</time>
      </trkpt>
      <trkpt lat="43.40492" lon="6.61922">
        <ele>385.63</ele>
        <time>2012-10-12T10:09:21Z</time>
      </trkpt>
      <trkpt lat="43.40466" lon="6.61938">
        <ele>386.11</ele>
        <time>2012-10-12T10:09:29Z</time>
      </trkpt>
      <trkpt lat="43.40463" lon="6.61943">
        <ele>385.15</ele>
        <time>2012-10-12T10:09:30Z</time>
      </trkpt>
      <trkpt lat="43.40462" lon="6.61948">
        <ele>385.15</ele>
        <time>2012-10-12T10:09:31Z</time>
      </trkpt>
      <trkpt lat="43.40461" lon="6.61954">
        <ele>386.11</ele>
        <time>2012-10-12T10:09:32Z</time>
      </trkpt>
      <trkpt lat="43.40461" lon="6.6196">
        <ele>385.63</ele>
        <time>2012-10-12T10:09:33Z</time>
      </trkpt>
      <trkpt lat="43.40461" lon="6.61965">
        <ele>385.63</ele>
        <time>2012-10-12T10:09:34Z</time>
      </trkpt>
      <trkpt lat="43.40461" lon="6.61971">
        <ele>385.63</ele>
        <time>2012-10-12T10:09:35Z</time>
      </trkpt>
      <trkpt lat="43.40461" lon="6.62004">
        <ele>387.55</ele>
        <time>2012-10-12T10:09:42Z</time>
      </trkpt>
      <trkpt lat="43.40455" lon="6.6205">
        <ele>388.99</ele>
        <time>2012-10-12T10:09:53Z</time>
      </trkpt>
      <trkpt lat="43.4044" lon="6.62089">
        <ele>390.43</ele>
        <time>2012-10-12T10:10:03Z</time>
      </trkpt>
      <trkpt lat="43.40419" lon="6.62123">
        <ele>393.32</ele>
        <time>2012-10-12T10:10:13Z</time>
      </trkpt>
      <trkpt lat="43.40406" lon="6.62145">
        <ele>396.2</ele>
        <time>2012-10-12T10:10:21Z</time>
      </trkpt>
      <trkpt lat="43.404" lon="6.62169">
        <ele>394.76</ele>
        <time>2012-10-12T10:10:28Z</time>
      </trkpt>
      <trkpt lat="43.40401" lon="6.62172">
        <ele>394.28</ele>
        <time>2012-10-12T10:10:37Z</time>
      </trkpt>
      <trkpt lat="43.40401" lon="6.62178">
        <ele>394.28</ele>
        <time>2012-10-12T10:10:47Z</time>
      </trkpt>
      <trkpt lat="43.40399" lon="6.62179">
        <ele>395.24</ele>
        <time>2012-10-12T10:10:56Z</time>
      </trkpt>
      <trkpt lat="43.404" lon="6.62179">
        <ele>394.76</ele>
        <time>2012-10-12T10:11:16Z</time>
      </trkpt>
      <trkpt lat="43.40401" lon="6.6218">
        <ele>395.24</ele>
        <time>2012-10-12T10:11:42Z</time>
      </trkpt>
      <trkpt lat="43.404" lon="6.6218">
        <ele>396.2</ele>
        <time>2012-10-12T10:12:12Z</time>
      </trkpt>
      <trkpt lat="43.40399" lon="6.6218">
        <ele>396.68</ele>
        <time>2012-10-12T10:12:30Z</time>
      </trkpt>
      <trkpt lat="43.404" lon="6.62179">
        <ele>394.76</ele>
        <time>2012-10-12T10:12:54Z</time>
      </trkpt>
      <trkpt lat="43.40399" lon="6.62179">
        <ele>395.72</ele>
        <time>2012-10-12T10:13:19Z</time>
      </trkpt>
      <trkpt lat="43.40399" lon="6.62179">
        <ele>396.68</ele>
        <time>2012-10-12T10:13:25Z</time>
      </trkpt>
      <trkpt lat="43.40399" lon="6.62179">
        <ele>395.72</ele>
        <time>2012-10-12T10:13:47Z</time>
      </trkpt>
      <trkpt lat="43.40399" lon="6.62179">
        <ele>394.28</ele>
        <time>2012-10-12T10:14:14Z</time>
      </trkpt>
      <trkpt lat="43.40399" lon="6.62179">
        <ele>395.24</ele>
        <time>2012-10-12T10:14:42Z</time>
      </trkpt>
      <trkpt lat="43.40399" lon="6.6218">
        <ele>395.72</ele>
        <time>2012-10-12T10:15:12Z</time>
      </trkpt>
      <trkpt lat="43.40399" lon="6.6218">
        <ele>395.24</ele>
        <time>2012-10-12T10:15:36Z</time>
      </trkpt>
      <trkpt lat="43.404" lon="6.62179">
        <ele>394.76</ele>
        <time>2012-10-12T10:16:03Z</time>
      </trkpt>
      <trkpt lat="43.40399" lon="6.62179">
        <ele>394.76</ele>
        <time>2012-10-12T10:16:26Z</time>
      </trkpt>
      <trkpt lat="43.40399" lon="6.62179">
        <ele>394.28</ele>
        <time>2012-10-12T10:16:51Z</time>
      </trkpt>
      <trkpt lat="43.40399" lon="6.62179">
        <ele>394.28</ele>
        <time>2012-10-12T10:17:05Z</time>
      </trkpt>
      <trkpt lat="43.40399" lon="6.6218">
        <ele>395.24</ele>
        <time>2012-10-12T10:17:30Z</time>
      </trkpt>
      <trkpt lat="43.40399" lon="6.6218">
        <ele>393.8</ele>
        <time>2012-10-12T10:17:34Z</time>
      </trkpt>
      <trkpt lat="43.40399" lon="6.62181">
        <ele>395.24</ele>
        <time>2012-10-12T10:17:58Z</time>
      </trkpt>
      <trkpt lat="43.40399" lon="6.62181">
        <ele>394.76</ele>
        <time>2012-10-12T10:18:05Z</time>
      </trkpt>
      <trkpt lat="43.40395" lon="6.62179">
        <ele>393.32</ele>
        <time>2012-10-12T10:18:15Z</time>
      </trkpt>
      <trkpt lat="43.40394" lon="6.62178">
        <ele>393.32</ele>
        <time>2012-10-12T10:18:16Z</time>
      </trkpt>
      <trkpt lat="43.40391" lon="6.62176">
        <ele>394.76</ele>
        <time>2012-10-12T10:18:19Z</time>
      </trkpt>
      <trkpt lat="43.4039" lon="6.62176">
        <ele>394.76</ele>
        <time>2012-10-12T10:18:20Z</time>
      </trkpt>
      <trkpt lat="43.40389" lon="6.62177">
        <ele>395.24</ele>
        <time>2012-10-12T10:18:21Z</time>
      </trkpt>
      <trkpt lat="43.40385" lon="6.62183">
        <ele>394.28</ele>
        <time>2012-10-12T10:18:29Z</time>
      </trkpt>
      <trkpt lat="43.40384" lon="6.62184">
        <ele>394.28</ele>
        <time>2012-10-12T10:18:30Z</time>
      </trkpt>
      <trkpt lat="43.40369" lon="6.62208">
        <ele>393.32</ele>
        <time>2012-10-12T10:18:42Z</time>
      </trkpt>
      <trkpt lat="43.40359" lon="6.62233">
        <ele>392.36</ele>
        <time>2012-10-12T10:18:48Z</time>
      </trkpt>
      <trkpt lat="43.40358" lon="6.62246">
        <ele>391.87</ele>
        <time>2012-10-12T10:18:50Z</time>
      </trkpt>
      <trkpt lat="43.40353" lon="6.62303">
        <ele>389.47</ele>
        <time>2012-10-12T10:18:58Z</time>
      </trkpt>
      <trkpt lat="43.40352" lon="6.62311">
        <ele>389.47</ele>
        <time>2012-10-12T10:18:59Z</time>
      </trkpt>
      <trkpt lat="43.40352" lon="6.62326">
        <ele>388.51</ele>
        <time>2012-10-12T10:19:01Z</time>
      </trkpt>
      <trkpt lat="43.40351" lon="6.62334">
        <ele>388.51</ele>
        <time>2012-10-12T10:19:02Z</time>
      </trkpt>
      <trkpt lat="43.4035" lon="6.62341">
        <ele>388.51</ele>
        <time>2012-10-12T10:19:03Z</time>
      </trkpt>
      <trkpt lat="43.40348" lon="6.62349">
        <ele>387.55</ele>
        <time>2012-10-12T10:19:04Z</time>
      </trkpt>
      <trkpt lat="43.40345" lon="6.62356">
        <ele>387.07</ele>
        <time>2012-10-12T10:19:05Z</time>
      </trkpt>
      <trkpt lat="43.40341" lon="6.62362">
        <ele>387.07</ele>
        <time>2012-10-12T10:19:06Z</time>
      </trkpt>
      <trkpt lat="43.40337" lon="6.62369">
        <ele>387.07</ele>
        <time>2012-10-12T10:19:07Z</time>
      </trkpt>
      <trkpt lat="43.40333" lon="6.62375">
        <ele>387.55</ele>
        <time>2012-10-12T10:19:08Z</time>
      </trkpt>
      <trkpt lat="43.40329" lon="6.62382">
        <ele>386.59</ele>
        <time>2012-10-12T10:19:09Z</time>
      </trkpt>
      <trkpt lat="43.40324" lon="6.62388">
        <ele>386.59</ele>
        <time>2012-10-12T10:19:10Z</time>
      </trkpt>
      <trkpt lat="43.40308" lon="6.62416">
        <ele>384.18</ele>
        <time>2012-10-12T10:19:14Z</time>
      </trkpt>
      <trkpt lat="43.40266" lon="6.62463">
        <ele>384.18</ele>
        <time>2012-10-12T10:19:22Z</time>
      </trkpt>
      <trkpt lat="43.40206" lon="6.62514">
        <ele>382.26</ele>
        <time>2012-10-12T10:19:31Z</time>
      </trkpt>
      <trkpt lat="43.40176" lon="6.62539">
        <ele>378.9</ele>
        <time>2012-10-12T10:19:35Z</time>
      </trkpt>
      <trkpt lat="43.40091" lon="6.62615">
        <ele>376.49</ele>
        <time>2012-10-12T10:19:47Z</time>
      </trkpt>
      <trkpt lat="43.40085" lon="6.62623">
        <ele>375.05</ele>
        <time>2012-10-12T10:19:48Z</time>
      </trkpt>
      <trkpt lat="43.40073" lon="6.62639">
        <ele>374.09</ele>
        <time>2012-10-12T10:19:50Z</time>
      </trkpt>
      <trkpt lat="43.40043" lon="6.6268">
        <ele>372.65</ele>
        <time>2012-10-12T10:19:55Z</time>
      </trkpt>
      <trkpt lat="43.40004" lon="6.62728">
        <ele>370.24</ele>
        <time>2012-10-12T10:20:01Z</time>
      </trkpt>
      <trkpt lat="43.3997" lon="6.628">
        <ele>367.84</ele>
        <time>2012-10-12T10:20:08Z</time>
      </trkpt>
      <trkpt lat="43.39933" lon="6.62856">
        <ele>366.4</ele>
        <time>2012-10-12T10:20:14Z</time>
      </trkpt>
      <trkpt lat="43.3987" lon="6.62971">
        <ele>362.07</ele>
        <time>2012-10-12T10:20:25Z</time>
      </trkpt>
      <trkpt lat="43.39866" lon="6.62983">
        <ele>362.55</ele>
        <time>2012-10-12T10:20:26Z</time>
      </trkpt>
      <trkpt lat="43.39863" lon="6.62996">
        <ele>361.59</ele>
        <time>2012-10-12T10:20:27Z</time>
      </trkpt>
      <trkpt lat="43.39849" lon="6.63061">
        <ele>357.75</ele>
        <time>2012-10-12T10:20:32Z</time>
      </trkpt>
      <trkpt lat="43.39818" lon="6.63153">
        <ele>356.31</ele>
        <time>2012-10-12T10:20:40Z</time>
      </trkpt>
      <trkpt lat="43.39815" lon="6.63165">
        <ele>355.34</ele>
        <time>2012-10-12T10:20:41Z</time>
      </trkpt>
      <trkpt lat="43.39812" lon="6.63176">
        <ele>355.34</ele>
        <time>2012-10-12T10:20:42Z</time>
      </trkpt>
      <trkpt lat="43.39809" lon="6.63188">
        <ele>354.86</ele>
        <time>2012-10-12T10:20:43Z</time>
      </trkpt>
      <trkpt lat="43.39804" lon="6.63198">
        <ele>354.86</ele>
        <time>2012-10-12T10:20:44Z</time>
      </trkpt>
      <trkpt lat="43.39799" lon="6.63208">
        <ele>354.38</ele>
        <time>2012-10-12T10:20:45Z</time>
      </trkpt>
      <trkpt lat="43.39771" lon="6.63273">
        <ele>352.94</ele>
        <time>2012-10-12T10:20:51Z</time>
      </trkpt>
      <trkpt lat="43.39765" lon="6.63283">
        <ele>353.42</ele>
        <time>2012-10-12T10:20:52Z</time>
      </trkpt>
      <trkpt lat="43.39759" lon="6.63291">
        <ele>352.94</ele>
        <time>2012-10-12T10:20:53Z</time>
      </trkpt>
      <trkpt lat="43.39752" lon="6.63299">
        <ele>352.94</ele>
        <time>2012-10-12T10:20:54Z</time>
      </trkpt>
      <trkpt lat="43.39746" lon="6.63309">
        <ele>353.42</ele>
        <time>2012-10-12T10:20:55Z</time>
      </trkpt>
      <trkpt lat="43.39741" lon="6.63319">
        <ele>352.94</ele>
        <time>2012-10-12T10:20:56Z</time>
      </trkpt>
      <trkpt lat="43.39737" lon="6.6333">
        <ele>352.94</ele>
        <time>2012-10-12T10:20:57Z</time>
      </trkpt>
      <trkpt lat="43.39734" lon="6.63342">
        <ele>352.94</ele>
        <time>2012-10-12T10:20:58Z</time>
      </trkpt>
      <trkpt lat="43.39731" lon="6.63354">
        <ele>352.94</ele>
        <time>2012-10-12T10:20:59Z</time>
      </trkpt>
      <trkpt lat="43.3973" lon="6.63364">
        <ele>352.94</ele>
        <time>2012-10-12T10:21:00Z</time>
      </trkpt>
      <trkpt lat="43.3973" lon="6.63372">
        <ele>353.42</ele>
        <time>2012-10-12T10:21:01Z</time>
      </trkpt>
      <trkpt lat="43.39729" lon="6.63377">
        <ele>353.42</ele>
        <time>2012-10-12T10:21:02Z</time>
      </trkpt>
      <trkpt lat="43.39728" lon="6.63382">
        <ele>353.42</ele>
        <time>2012-10-12T10:21:03Z</time>
      </trkpt>
      <trkpt lat="43.39726" lon="6.63385">
        <ele>352.46</ele>
        <time>2012-10-12T10:21:04Z</time>
      </trkpt>
      <trkpt lat="43.39723" lon="6.63389">
        <ele>351.02</ele>
        <time>2012-10-12T10:21:05Z</time>
      </trkpt>
      <trkpt lat="43.39717" lon="6.63392">
        <ele>348.62</ele>
        <time>2012-10-12T10:21:06Z</time>
      </trkpt>
      <trkpt lat="43.39711" lon="6.63397">
        <ele>346.69</ele>
        <time>2012-10-12T10:21:07Z</time>
      </trkpt>
      <trkpt lat="43.39705" lon="6.63403">
        <ele>345.73</ele>
        <time>2012-10-12T10:21:08Z</time>
      </trkpt>
      <trkpt lat="43.39692" lon="6.63412">
        <ele>342.85</ele>
        <time>2012-10-12T10:21:10Z</time>
      </trkpt>
      <trkpt lat="43.39688" lon="6.63418">
        <ele>342.85</ele>
        <time>2012-10-12T10:21:11Z</time>
      </trkpt>
      <trkpt lat="43.39685" lon="6.63424">
        <ele>343.33</ele>
        <time>2012-10-12T10:21:12Z</time>
      </trkpt>
      <trkpt lat="43.39682" lon="6.6343">
        <ele>344.29</ele>
        <time>2012-10-12T10:21:13Z</time>
      </trkpt>
      <trkpt lat="43.39679" lon="6.63433">
        <ele>344.29</ele>
        <time>2012-10-12T10:21:14Z</time>
      </trkpt>
      <trkpt lat="43.39674" lon="6.63436">
        <ele>342.85</ele>
        <time>2012-10-12T10:21:15Z</time>
      </trkpt>
      <trkpt lat="43.39669" lon="6.6344">
        <ele>343.33</ele>
        <time>2012-10-12T10:21:16Z</time>
      </trkpt>
      <trkpt lat="43.39666" lon="6.63445">
        <ele>344.29</ele>
        <time>2012-10-12T10:21:17Z</time>
      </trkpt>
      <trkpt lat="43.39664" lon="6.6345">
        <ele>344.77</ele>
        <time>2012-10-12T10:21:18Z</time>
      </trkpt>
      <trkpt lat="43.3966" lon="6.63455">
        <ele>343.33</ele>
        <time>2012-10-12T10:21:20Z</time>
      </trkpt>
      <trkpt lat="43.39657" lon="6.63455">
        <ele>342.85</ele>
        <time>2012-10-12T10:21:21Z</time>
      </trkpt>
      <trkpt lat="43.39654" lon="6.63457">
        <ele>341.41</ele>
        <time>2012-10-12T10:21:22Z</time>
      </trkpt>
      <trkpt lat="43.3965" lon="6.6346">
        <ele>341.89</ele>
        <time>2012-10-12T10:21:23Z</time>
      </trkpt>
      <trkpt lat="43.39646" lon="6.63463">
        <ele>340.92</ele>
        <time>2012-10-12T10:21:24Z</time>
      </trkpt>
      <trkpt lat="43.39642" lon="6.63467">
        <ele>339.96</ele>
        <time>2012-10-12T10:21:25Z</time>
      </trkpt>
      <trkpt lat="43.39633" lon="6.63477">
        <ele>339.48</ele>
        <time>2012-10-12T10:21:27Z</time>
      </trkpt>
      <trkpt lat="43.39629" lon="6.63482">
        <ele>338.52</ele>
        <time>2012-10-12T10:21:28Z</time>
      </trkpt>
      <trkpt lat="43.39625" lon="6.63486">
        <ele>337.56</ele>
        <time>2012-10-12T10:21:29Z</time>
      </trkpt>
      <trkpt lat="43.39621" lon="6.63488">
        <ele>336.6</ele>
        <time>2012-10-12T10:21:30Z</time>
      </trkpt>
      <trkpt lat="43.39616" lon="6.63491">
        <ele>335.16</ele>
        <time>2012-10-12T10:21:31Z</time>
      </trkpt>
      <trkpt lat="43.39612" lon="6.63495">
        <ele>334.2</ele>
        <time>2012-10-12T10:21:32Z</time>
      </trkpt>
      <trkpt lat="43.39608" lon="6.63499">
        <ele>333.23</ele>
        <time>2012-10-12T10:21:33Z</time>
      </trkpt>
      <trkpt lat="43.39601" lon="6.63505">
        <ele>331.31</ele>
        <time>2012-10-12T10:21:35Z</time>
      </trkpt>
      <trkpt lat="43.39585" lon="6.63508">
        <ele>328.43</ele>
        <time>2012-10-12T10:21:38Z</time>
      </trkpt>
      <trkpt lat="43.39581" lon="6.63508">
        <ele>327.47</ele>
        <time>2012-10-12T10:21:39Z</time>
      </trkpt>
      <trkpt lat="43.39577" lon="6.63508">
        <ele>326.5</ele>
        <time>2012-10-12T10:21:40Z</time>
      </trkpt>
      <trkpt lat="43.39573" lon="6.63509">
        <ele>326.02</ele>
        <time>2012-10-12T10:21:41Z</time>
      </trkpt>
      <trkpt lat="43.39571" lon="6.63512">
        <ele>325.54</ele>
        <time>2012-10-12T10:21:42Z</time>
      </trkpt>
      <trkpt lat="43.39568" lon="6.63514">
        <ele>325.06</ele>
        <time>2012-10-12T10:21:43Z</time>
      </trkpt>
      <trkpt lat="43.39565" lon="6.63514">
        <ele>324.1</ele>
        <time>2012-10-12T10:21:44Z</time>
      </trkpt>
      <trkpt lat="43.39563" lon="6.63515">
        <ele>323.62</ele>
        <time>2012-10-12T10:21:45Z</time>
      </trkpt>
      <trkpt lat="43.39559" lon="6.63516">
        <ele>323.14</ele>
        <time>2012-10-12T10:21:46Z</time>
      </trkpt>
      <trkpt lat="43.39554" lon="6.63517">
        <ele>321.7</ele>
        <time>2012-10-12T10:21:47Z</time>
      </trkpt>
      <trkpt lat="43.39545" lon="6.63515">
        <ele>320.26</ele>
        <time>2012-10-12T10:21:49Z</time>
      </trkpt>
      <trkpt lat="43.39535" lon="6.63511">
        <ele>318.33</ele>
        <time>2012-10-12T10:21:53Z</time>
      </trkpt>
      <trkpt lat="43.39526" lon="6.63513">
        <ele>316.89</ele>
        <time>2012-10-12T10:21:56Z</time>
      </trkpt>
      <trkpt lat="43.3952" lon="6.63519">
        <ele>315.93</ele>
        <time>2012-10-12T10:21:58Z</time>
      </trkpt>
      <trkpt lat="43.39516" lon="6.63522">
        <ele>314.01</ele>
        <time>2012-10-12T10:21:59Z</time>
      </trkpt>
      <trkpt lat="43.39511" lon="6.63523">
        <ele>313.05</ele>
        <time>2012-10-12T10:22:00Z</time>
      </trkpt>
      <trkpt lat="43.39505" lon="6.63524">
        <ele>312.57</ele>
        <time>2012-10-12T10:22:01Z</time>
      </trkpt>
      <trkpt lat="43.39499" lon="6.63526">
        <ele>311.6</ele>
        <time>2012-10-12T10:22:02Z</time>
      </trkpt>
      <trkpt lat="43.39494" lon="6.63528">
        <ele>311.12</ele>
        <time>2012-10-12T10:22:03Z</time>
      </trkpt>
      <trkpt lat="43.39489" lon="6.63528">
        <ele>310.16</ele>
        <time>2012-10-12T10:22:04Z</time>
      </trkpt>
      <trkpt lat="43.39483" lon="6.63529">
        <ele>309.68</ele>
        <time>2012-10-12T10:22:05Z</time>
      </trkpt>
      <trkpt lat="43.39477" lon="6.63531">
        <ele>307.76</ele>
        <time>2012-10-12T10:22:06Z</time>
      </trkpt>
      <trkpt lat="43.39472" lon="6.63534">
        <ele>307.28</ele>
        <time>2012-10-12T10:22:07Z</time>
      </trkpt>
      <trkpt lat="43.39467" lon="6.63537">
        <ele>305.84</ele>
        <time>2012-10-12T10:22:08Z</time>
      </trkpt>
      <trkpt lat="43.39463" lon="6.63541">
        <ele>304.88</ele>
        <time>2012-10-12T10:22:09Z</time>
      </trkpt>
      <trkpt lat="43.39451" lon="6.63557">
        <ele>301.03</ele>
        <time>2012-10-12T10:22:13Z</time>
      </trkpt>
      <trkpt lat="43.39449" lon="6.63559">
        <ele>301.03</ele>
        <time>2012-10-12T10:22:14Z</time>
      </trkpt>
      <trkpt lat="43.39443" lon="6.63568">
        <ele>298.63</ele>
        <time>2012-10-12T10:22:17Z</time>
      </trkpt>
      <trkpt lat="43.39437" lon="6.63573">
        <ele>295.26</ele>
        <time>2012-10-12T10:22:19Z</time>
      </trkpt>
      <trkpt lat="43.39426" lon="6.63579">
        <ele>293.34</ele>
        <time>2012-10-12T10:22:22Z</time>
      </trkpt>
      <trkpt lat="43.39423" lon="6.63582">
        <ele>292.38</ele>
        <time>2012-10-12T10:22:23Z</time>
      </trkpt>
      <trkpt lat="43.39422" lon="6.63587">
        <ele>291.42</ele>
        <time>2012-10-12T10:22:24Z</time>
      </trkpt>
      <trkpt lat="43.39421" lon="6.63592">
        <ele>289.97</ele>
        <time>2012-10-12T10:22:25Z</time>
      </trkpt>
      <trkpt lat="43.39418" lon="6.63605">
        <ele>288.53</ele>
        <time>2012-10-12T10:22:27Z</time>
      </trkpt>
      <trkpt lat="43.39417" lon="6.63613">
        <ele>287.57</ele>
        <time>2012-10-12T10:22:28Z</time>
      </trkpt>
      <trkpt lat="43.39416" lon="6.6362">
        <ele>287.57</ele>
        <time>2012-10-12T10:22:29Z</time>
      </trkpt>
      <trkpt lat="43.39413" lon="6.63627">
        <ele>286.13</ele>
        <time>2012-10-12T10:22:30Z</time>
      </trkpt>
      <trkpt lat="43.3941" lon="6.63634">
        <ele>285.65</ele>
        <time>2012-10-12T10:22:31Z</time>
      </trkpt>
      <trkpt lat="43.39406" lon="6.6364">
        <ele>285.17</ele>
        <time>2012-10-12T10:22:32Z</time>
      </trkpt>
      <trkpt lat="43.39403" lon="6.63645">
        <ele>285.17</ele>
        <time>2012-10-12T10:22:33Z</time>
      </trkpt>
      <trkpt lat="43.39401" lon="6.63649">
        <ele>285.17</ele>
        <time>2012-10-12T10:22:34Z</time>
      </trkpt>
      <trkpt lat="43.39399" lon="6.63653">
        <ele>283.73</ele>
        <time>2012-10-12T10:22:35Z</time>
      </trkpt>
      <trkpt lat="43.39397" lon="6.63662">
        <ele>282.28</ele>
        <time>2012-10-12T10:22:37Z</time>
      </trkpt>
      <trkpt lat="43.39388" lon="6.63676">
        <ele>280.36</ele>
        <time>2012-10-12T10:22:40Z</time>
      </trkpt>
      <trkpt lat="43.39378" lon="6.63683">
        <ele>277</ele>
        <time>2012-10-12T10:22:44Z</time>
      </trkpt>
      <trkpt lat="43.39371" lon="6.63688">
        <ele>274.11</ele>
        <time>2012-10-12T10:22:46Z</time>
      </trkpt>
      <trkpt lat="43.39363" lon="6.63694">
        <ele>270.75</ele>
        <time>2012-10-12T10:22:48Z</time>
      </trkpt>
      <trkpt lat="43.39358" lon="6.63697">
        <ele>269.79</ele>
        <time>2012-10-12T10:22:49Z</time>
      </trkpt>
      <trkpt lat="43.39355" lon="6.63702">
        <ele>268.83</ele>
        <time>2012-10-12T10:22:50Z</time>
      </trkpt>
      <trkpt lat="43.39345" lon="6.63717">
        <ele>265.46</ele>
        <time>2012-10-12T10:22:53Z</time>
      </trkpt>
      <trkpt lat="43.39341" lon="6.63722">
        <ele>264.5</ele>
        <time>2012-10-12T10:22:54Z</time>
      </trkpt>
      <trkpt lat="43.39336" lon="6.63733">
        <ele>263.06</ele>
        <time>2012-10-12T10:22:56Z</time>
      </trkpt>
      <trkpt lat="43.39333" lon="6.63738">
        <ele>262.1</ele>
        <time>2012-10-12T10:22:57Z</time>
      </trkpt>
      <trkpt lat="43.39328" lon="6.63749">
        <ele>259.21</ele>
        <time>2012-10-12T10:22:59Z</time>
      </trkpt>
      <trkpt lat="43.3932" lon="6.63759">
        <ele>256.81</ele>
        <time>2012-10-12T10:23:02Z</time>
      </trkpt>
      <trkpt lat="43.39318" lon="6.6376">
        <ele>256.33</ele>
        <time>2012-10-12T10:23:03Z</time>
      </trkpt>
      <trkpt lat="43.39316" lon="6.63761">
        <ele>255.37</ele>
        <time>2012-10-12T10:23:04Z</time>
      </trkpt>
      <trkpt lat="43.39313" lon="6.63763">
        <ele>254.41</ele>
        <time>2012-10-12T10:23:05Z</time>
      </trkpt>
      <trkpt lat="43.39309" lon="6.63765">
        <ele>252.96</ele>
        <time>2012-10-12T10:23:06Z</time>
      </trkpt>
      <trkpt lat="43.39306" lon="6.63767">
        <ele>252</ele>
        <time>2012-10-12T10:23:07Z</time>
      </trkpt>
      <trkpt lat="43.39303" lon="6.63769">
        <ele>251.04</ele>
        <time>2012-10-12T10:23:08Z</time>
      </trkpt>
      <trkpt lat="43.39301" lon="6.63773">
        <ele>249.6</ele>
        <time>2012-10-12T10:23:09Z</time>
      </trkpt>
      <trkpt lat="43.39299" lon="6.63777">
        <ele>248.64</ele>
        <time>2012-10-12T10:23:10Z</time>
      </trkpt>
      <trkpt lat="43.39292" lon="6.63789">
        <ele>246.23</ele>
        <time>2012-10-12T10:23:16Z</time>
      </trkpt>
      <trkpt lat="43.39291" lon="6.6379">
        <ele>245.75</ele>
        <time>2012-10-12T10:23:17Z</time>
      </trkpt>
      <trkpt lat="43.3929" lon="6.63791">
        <ele>245.75</ele>
        <time>2012-10-12T10:23:18Z</time>
      </trkpt>
      <trkpt lat="43.39288" lon="6.63792">
        <ele>244.79</ele>
        <time>2012-10-12T10:23:19Z</time>
      </trkpt>
      <trkpt lat="43.3928" lon="6.63795">
        <ele>240.95</ele>
        <time>2012-10-12T10:23:25Z</time>
      </trkpt>
      <trkpt lat="43.3928" lon="6.6381">
        <ele>237.58</ele>
        <time>2012-10-12T10:23:31Z</time>
      </trkpt>
      <trkpt lat="43.39275" lon="6.63825">
        <ele>233.26</ele>
        <time>2012-10-12T10:23:35Z</time>
      </trkpt>
      <trkpt lat="43.39274" lon="6.63834">
        <ele>231.81</ele>
        <time>2012-10-12T10:23:37Z</time>
      </trkpt>
      <trkpt lat="43.39273" lon="6.6384">
        <ele>230.37</ele>
        <time>2012-10-12T10:23:38Z</time>
      </trkpt>
      <trkpt lat="43.39272" lon="6.63846">
        <ele>229.41</ele>
        <time>2012-10-12T10:23:39Z</time>
      </trkpt>
      <trkpt lat="43.39271" lon="6.63853">
        <ele>227.97</ele>
        <time>2012-10-12T10:23:40Z</time>
      </trkpt>
      <trkpt lat="43.39268" lon="6.63869">
        <ele>225.57</ele>
        <time>2012-10-12T10:23:43Z</time>
      </trkpt>
      <trkpt lat="43.39265" lon="6.63874">
        <ele>223.16</ele>
        <time>2012-10-12T10:23:44Z</time>
      </trkpt>
      <trkpt lat="43.39262" lon="6.63878">
        <ele>222.68</ele>
        <time>2012-10-12T10:23:45Z</time>
      </trkpt>
      <trkpt lat="43.3926" lon="6.63884">
        <ele>221.72</ele>
        <time>2012-10-12T10:23:46Z</time>
      </trkpt>
      <trkpt lat="43.39259" lon="6.63889">
        <ele>221.24</ele>
        <time>2012-10-12T10:23:47Z</time>
      </trkpt>
      <trkpt lat="43.39259" lon="6.63895">
        <ele>221.24</ele>
        <time>2012-10-12T10:23:48Z</time>
      </trkpt>
      <trkpt lat="43.39259" lon="6.639">
        <ele>220.76</ele>
        <time>2012-10-12T10:23:49Z</time>
      </trkpt>
      <trkpt lat="43.39257" lon="6.63908">
        <ele>218.84</ele>
        <time>2012-10-12T10:23:50Z</time>
      </trkpt>
      <trkpt lat="43.39255" lon="6.63917">
        <ele>217.88</ele>
        <time>2012-10-12T10:23:51Z</time>
      </trkpt>
      <trkpt lat="43.39254" lon="6.63925">
        <ele>217.88</ele>
        <time>2012-10-12T10:23:52Z</time>
      </trkpt>
      <trkpt lat="43.39253" lon="6.63933">
        <ele>217.4</ele>
        <time>2012-10-12T10:23:53Z</time>
      </trkpt>
      <trkpt lat="43.39252" lon="6.63942">
        <ele>215.95</ele>
        <time>2012-10-12T10:23:54Z</time>
      </trkpt>
      <trkpt lat="43.39251" lon="6.63951">
        <ele>214.99</ele>
        <time>2012-10-12T10:23:55Z</time>
      </trkpt>
      <trkpt lat="43.39248" lon="6.63958">
        <ele>214.51</ele>
        <time>2012-10-12T10:23:56Z</time>
      </trkpt>
      <trkpt lat="43.39246" lon="6.63964">
        <ele>214.03</ele>
        <time>2012-10-12T10:23:57Z</time>
      </trkpt>
      <trkpt lat="43.39246" lon="6.63971">
        <ele>214.03</ele>
        <time>2012-10-12T10:23:58Z</time>
      </trkpt>
      <trkpt lat="43.39247" lon="6.63979">
        <ele>213.07</ele>
        <time>2012-10-12T10:23:59Z</time>
      </trkpt>
      <trkpt lat="43.3925" lon="6.6399">
        <ele>212.59</ele>
        <time>2012-10-12T10:24:01Z</time>
      </trkpt>
      <trkpt lat="43.39252" lon="6.63991">
        <ele>212.59</ele>
        <time>2012-10-12T10:24:02Z</time>
      </trkpt>
      <trkpt lat="43.39255" lon="6.63991">
        <ele>212.11</ele>
        <time>2012-10-12T10:24:03Z</time>
      </trkpt>
      <trkpt lat="43.3926" lon="6.63989">
        <ele>211.15</ele>
        <time>2012-10-12T10:24:04Z</time>
      </trkpt>
      <trkpt lat="43.39264" lon="6.63987">
        <ele>210.19</ele>
        <time>2012-10-12T10:24:05Z</time>
      </trkpt>
      <trkpt lat="43.39268" lon="6.63983">
        <ele>209.7</ele>
        <time>2012-10-12T10:24:06Z</time>
      </trkpt>
      <trkpt lat="43.39273" lon="6.63979">
        <ele>207.78</ele>
        <time>2012-10-12T10:24:07Z</time>
      </trkpt>
      <trkpt lat="43.39277" lon="6.63974">
        <ele>205.86</ele>
        <time>2012-10-12T10:24:08Z</time>
      </trkpt>
      <trkpt lat="43.39283" lon="6.63969">
        <ele>204.42</ele>
        <time>2012-10-12T10:24:09Z</time>
      </trkpt>
      <trkpt lat="43.39291" lon="6.63963">
        <ele>202.49</ele>
        <time>2012-10-12T10:24:10Z</time>
      </trkpt>
      <trkpt lat="43.39299" lon="6.63958">
        <ele>202.01</ele>
        <time>2012-10-12T10:24:11Z</time>
      </trkpt>
      <trkpt lat="43.39306" lon="6.63953">
        <ele>201.53</ele>
        <time>2012-10-12T10:24:12Z</time>
      </trkpt>
      <trkpt lat="43.3933" lon="6.63943">
        <ele>201.05</ele>
        <time>2012-10-12T10:24:15Z</time>
      </trkpt>
      <trkpt lat="43.3937" lon="6.63935">
        <ele>197.21</ele>
        <time>2012-10-12T10:24:20Z</time>
      </trkpt>
      <trkpt lat="43.39377" lon="6.63934">
        <ele>197.21</ele>
        <time>2012-10-12T10:24:21Z</time>
      </trkpt>
      <trkpt lat="43.39385" lon="6.63934">
        <ele>195.77</ele>
        <time>2012-10-12T10:24:22Z</time>
      </trkpt>
      <trkpt lat="43.39392" lon="6.63937">
        <ele>194.8</ele>
        <time>2012-10-12T10:24:23Z</time>
      </trkpt>
      <trkpt lat="43.39409" lon="6.63942">
        <ele>193.36</ele>
        <time>2012-10-12T10:24:25Z</time>
      </trkpt>
      <trkpt lat="43.39431" lon="6.63947">
        <ele>193.84</ele>
        <time>2012-10-12T10:24:28Z</time>
      </trkpt>
      <trkpt lat="43.39437" lon="6.63947">
        <ele>194.8</ele>
        <time>2012-10-12T10:24:29Z</time>
      </trkpt>
      <trkpt lat="43.39442" lon="6.63946">
        <ele>195.28</ele>
        <time>2012-10-12T10:24:30Z</time>
      </trkpt>
      <trkpt lat="43.39446" lon="6.63944">
        <ele>195.28</ele>
        <time>2012-10-12T10:24:31Z</time>
      </trkpt>
      <trkpt lat="43.3945" lon="6.63943">
        <ele>195.28</ele>
        <time>2012-10-12T10:24:32Z</time>
      </trkpt>
      <trkpt lat="43.39454" lon="6.63942">
        <ele>195.28</ele>
        <time>2012-10-12T10:24:33Z</time>
      </trkpt>
      <trkpt lat="43.39459" lon="6.63941">
        <ele>194.32</ele>
        <time>2012-10-12T10:24:34Z</time>
      </trkpt>
      <trkpt lat="43.39464" lon="6.63941">
        <ele>193.84</ele>
        <time>2012-10-12T10:24:35Z</time>
      </trkpt>
      <trkpt lat="43.3947" lon="6.63943">
        <ele>193.36</ele>
        <time>2012-10-12T10:24:36Z</time>
      </trkpt>
      <trkpt lat="43.39475" lon="6.63946">
        <ele>192.4</ele>
        <time>2012-10-12T10:24:37Z</time>
      </trkpt>
      <trkpt lat="43.39481" lon="6.6395">
        <ele>191.44</ele>
        <time>2012-10-12T10:24:38Z</time>
      </trkpt>
      <trkpt lat="43.39487" lon="6.63955">
        <ele>190.96</ele>
        <time>2012-10-12T10:24:39Z</time>
      </trkpt>
      <trkpt lat="43.39492" lon="6.63959">
        <ele>190.48</ele>
        <time>2012-10-12T10:24:40Z</time>
      </trkpt>
      <trkpt lat="43.39498" lon="6.63961">
        <ele>190.96</ele>
        <time>2012-10-12T10:24:41Z</time>
      </trkpt>
      <trkpt lat="43.39504" lon="6.63961">
        <ele>192.4</ele>
        <time>2012-10-12T10:24:42Z</time>
      </trkpt>
      <trkpt lat="43.39509" lon="6.6396">
        <ele>191.92</ele>
        <time>2012-10-12T10:24:43Z</time>
      </trkpt>
      <trkpt lat="43.39514" lon="6.63959">
        <ele>191.44</ele>
        <time>2012-10-12T10:24:44Z</time>
      </trkpt>
      <trkpt lat="43.39531" lon="6.63952">
        <ele>191.92</ele>
        <time>2012-10-12T10:24:47Z</time>
      </trkpt>
      <trkpt lat="43.39536" lon="6.63948">
        <ele>191.92</ele>
        <time>2012-10-12T10:24:48Z</time>
      </trkpt>
      <trkpt lat="43.3954" lon="6.63944">
        <ele>191.44</ele>
        <time>2012-10-12T10:24:49Z</time>
      </trkpt>
      <trkpt lat="43.39545" lon="6.63939">
        <ele>191.44</ele>
        <time>2012-10-12T10:24:50Z</time>
      </trkpt>
      <trkpt lat="43.39548" lon="6.63934">
        <ele>191.44</ele>
        <time>2012-10-12T10:24:51Z</time>
      </trkpt>
      <trkpt lat="43.39551" lon="6.63929">
        <ele>190.96</ele>
        <time>2012-10-12T10:24:52Z</time>
      </trkpt>
      <trkpt lat="43.39555" lon="6.63925">
        <ele>190.48</ele>
        <time>2012-10-12T10:24:53Z</time>
      </trkpt>
      <trkpt lat="43.39558" lon="6.63923">
        <ele>190.48</ele>
        <time>2012-10-12T10:24:54Z</time>
      </trkpt>
      <trkpt lat="43.39562" lon="6.63923">
        <ele>190</ele>
        <time>2012-10-12T10:24:55Z</time>
      </trkpt>
      <trkpt lat="43.39566" lon="6.63925">
        <ele>190.48</ele>
        <time>2012-10-12T10:24:56Z</time>
      </trkpt>
      <trkpt lat="43.39569" lon="6.63927">
        <ele>190.96</ele>
        <time>2012-10-12T10:24:57Z</time>
      </trkpt>
      <trkpt lat="43.39591" lon="6.6394">
        <ele>191.92</ele>
        <time>2012-10-12T10:25:05Z</time>
      </trkpt>
      <trkpt lat="43.39595" lon="6.63948">
        <ele>191.44</ele>
        <time>2012-10-12T10:25:07Z</time>
      </trkpt>
      <trkpt lat="43.39595" lon="6.63953">
        <ele>191.92</ele>
        <time>2012-10-12T10:25:08Z</time>
      </trkpt>
      <trkpt lat="43.39596" lon="6.63959">
        <ele>191.44</ele>
        <time>2012-10-12T10:25:09Z</time>
      </trkpt>
      <trkpt lat="43.39598" lon="6.63971">
        <ele>191.44</ele>
        <time>2012-10-12T10:25:11Z</time>
      </trkpt>
      <trkpt lat="43.39609" lon="6.64001">
        <ele>192.4</ele>
        <time>2012-10-12T10:25:16Z</time>
      </trkpt>
      <trkpt lat="43.39613" lon="6.64007">
        <ele>190.96</ele>
        <time>2012-10-12T10:25:17Z</time>
      </trkpt>
      <trkpt lat="43.39617" lon="6.64011">
        <ele>190.48</ele>
        <time>2012-10-12T10:25:18Z</time>
      </trkpt>
      <trkpt lat="43.39622" lon="6.64015">
        <ele>190.48</ele>
        <time>2012-10-12T10:25:19Z</time>
      </trkpt>
      <trkpt lat="43.39627" lon="6.64018">
        <ele>190</ele>
        <time>2012-10-12T10:25:20Z</time>
      </trkpt>
      <trkpt lat="43.39633" lon="6.64021">
        <ele>188.56</ele>
        <time>2012-10-12T10:25:21Z</time>
      </trkpt>
      <trkpt lat="43.3964" lon="6.64023">
        <ele>186.63</ele>
        <time>2012-10-12T10:25:22Z</time>
      </trkpt>
      <trkpt lat="43.39647" lon="6.64025">
        <ele>185.67</ele>
        <time>2012-10-12T10:25:23Z</time>
      </trkpt>
      <trkpt lat="43.39655" lon="6.64027">
        <ele>184.71</ele>
        <time>2012-10-12T10:25:24Z</time>
      </trkpt>
      <trkpt lat="43.39663" lon="6.64031">
        <ele>184.71</ele>
        <time>2012-10-12T10:25:25Z</time>
      </trkpt>
      <trkpt lat="43.39677" lon="6.64041">
        <ele>183.75</ele>
        <time>2012-10-12T10:25:27Z</time>
      </trkpt>
      <trkpt lat="43.39684" lon="6.64046">
        <ele>183.75</ele>
        <time>2012-10-12T10:25:28Z</time>
      </trkpt>
      <trkpt lat="43.3969" lon="6.64049">
        <ele>185.19</ele>
        <time>2012-10-12T10:25:29Z</time>
      </trkpt>
      <trkpt lat="43.39696" lon="6.64052">
        <ele>185.19</ele>
        <time>2012-10-12T10:25:30Z</time>
      </trkpt>
      <trkpt lat="43.39702" lon="6.64053">
        <ele>185.67</ele>
        <time>2012-10-12T10:25:31Z</time>
      </trkpt>
      <trkpt lat="43.39707" lon="6.64054">
        <ele>186.15</ele>
        <time>2012-10-12T10:25:32Z</time>
      </trkpt>
      <trkpt lat="43.3972" lon="6.64054">
        <ele>187.11</ele>
        <time>2012-10-12T10:25:35Z</time>
      </trkpt>
      <trkpt lat="43.39734" lon="6.64053">
        <ele>185.67</ele>
        <time>2012-10-12T10:25:38Z</time>
      </trkpt>
      <trkpt lat="43.3974" lon="6.64053">
        <ele>184.71</ele>
        <time>2012-10-12T10:25:39Z</time>
      </trkpt>
      <trkpt lat="43.39748" lon="6.64053">
        <ele>184.23</ele>
        <time>2012-10-12T10:25:40Z</time>
      </trkpt>
      <trkpt lat="43.39755" lon="6.64056">
        <ele>183.27</ele>
        <time>2012-10-12T10:25:41Z</time>
      </trkpt>
      <trkpt lat="43.39762" lon="6.64059">
        <ele>182.79</ele>
        <time>2012-10-12T10:25:42Z</time>
      </trkpt>
      <trkpt lat="43.39783" lon="6.64071">
        <ele>182.79</ele>
        <time>2012-10-12T10:25:45Z</time>
      </trkpt>
      <trkpt lat="43.39788" lon="6.64072">
        <ele>182.79</ele>
        <time>2012-10-12T10:25:46Z</time>
      </trkpt>
      <trkpt lat="43.39794" lon="6.64073">
        <ele>183.75</ele>
        <time>2012-10-12T10:25:47Z</time>
      </trkpt>
      <trkpt lat="43.39834" lon="6.64073">
        <ele>183.27</ele>
        <time>2012-10-12T10:25:56Z</time>
      </trkpt>
      <trkpt lat="43.3985" lon="6.64069">
        <ele>182.79</ele>
        <time>2012-10-12T10:26:00Z</time>
      </trkpt>
      <trkpt lat="43.39854" lon="6.64066">
        <ele>182.31</ele>
        <time>2012-10-12T10:26:01Z</time>
      </trkpt>
      <trkpt lat="43.39857" lon="6.64063">
        <ele>182.31</ele>
        <time>2012-10-12T10:26:02Z</time>
      </trkpt>
      <trkpt lat="43.39861" lon="6.64059">
        <ele>182.31</ele>
        <time>2012-10-12T10:26:03Z</time>
      </trkpt>
      <trkpt lat="43.39864" lon="6.64054">
        <ele>182.31</ele>
        <time>2012-10-12T10:26:04Z</time>
      </trkpt>
      <trkpt lat="43.39867" lon="6.6405">
        <ele>182.31</ele>
        <time>2012-10-12T10:26:05Z</time>
      </trkpt>
      <trkpt lat="43.39871" lon="6.64047">
        <ele>182.31</ele>
        <time>2012-10-12T10:26:06Z</time>
      </trkpt>
      <trkpt lat="43.39874" lon="6.64045">
        <ele>182.31</ele>
        <time>2012-10-12T10:26:07Z</time>
      </trkpt>
      <trkpt lat="43.39878" lon="6.64045">
        <ele>181.83</ele>
        <time>2012-10-12T10:26:08Z</time>
      </trkpt>
      <trkpt lat="43.39882" lon="6.64047">
        <ele>182.31</ele>
        <time>2012-10-12T10:26:09Z</time>
      </trkpt>
      <trkpt lat="43.39884" lon="6.64048">
        <ele>182.79</ele>
        <time>2012-10-12T10:26:10Z</time>
      </trkpt>
      <trkpt lat="43.39889" lon="6.64052">
        <ele>183.27</ele>
        <time>2012-10-12T10:26:12Z</time>
      </trkpt>
      <trkpt lat="43.39891" lon="6.64056">
        <ele>183.27</ele>
        <time>2012-10-12T10:26:13Z</time>
      </trkpt>
      <trkpt lat="43.39908" lon="6.64079">
        <ele>183.27</ele>
        <time>2012-10-12T10:26:19Z</time>
      </trkpt>
      <trkpt lat="43.39912" lon="6.64083">
        <ele>182.79</ele>
        <time>2012-10-12T10:26:20Z</time>
      </trkpt>
      <trkpt lat="43.39916" lon="6.64086">
        <ele>182.31</ele>
        <time>2012-10-12T10:26:21Z</time>
      </trkpt>
      <trkpt lat="43.3992" lon="6.64088">
        <ele>182.31</ele>
        <time>2012-10-12T10:26:22Z</time>
      </trkpt>
      <trkpt lat="43.39924" lon="6.64089">
        <ele>181.83</ele>
        <time>2012-10-12T10:26:23Z</time>
      </trkpt>
      <trkpt lat="43.39929" lon="6.64091">
        <ele>181.83</ele>
        <time>2012-10-12T10:26:24Z</time>
      </trkpt>
      <trkpt lat="43.39933" lon="6.64093">
        <ele>181.83</ele>
        <time>2012-10-12T10:26:25Z</time>
      </trkpt>
      <trkpt lat="43.39937" lon="6.64097">
        <ele>182.79</ele>
        <time>2012-10-12T10:26:26Z</time>
      </trkpt>
      <trkpt lat="43.39941" lon="6.641">
        <ele>182.79</ele>
        <time>2012-10-12T10:26:27Z</time>
      </trkpt>
      <trkpt lat="43.39944" lon="6.64104">
        <ele>183.75</ele>
        <time>2012-10-12T10:26:28Z</time>
      </trkpt>
      <trkpt lat="43.39946" lon="6.64108">
        <ele>184.23</ele>
        <time>2012-10-12T10:26:29Z</time>
      </trkpt>
      <trkpt lat="43.39967" lon="6.64125">
        <ele>186.15</ele>
        <time>2012-10-12T10:26:37Z</time>
      </trkpt>
      <trkpt lat="43.39988" lon="6.64138">
        <ele>187.11</ele>
        <time>2012-10-12T10:26:45Z</time>
      </trkpt>
      <trkpt lat="43.40011" lon="6.64151">
        <ele>189.04</ele>
        <time>2012-10-12T10:26:54Z</time>
      </trkpt>
      <trkpt lat="43.40036" lon="6.64167">
        <ele>190.96</ele>
        <time>2012-10-12T10:27:05Z</time>
      </trkpt>
      <trkpt lat="43.40039" lon="6.64171">
        <ele>190.96</ele>
        <time>2012-10-12T10:27:07Z</time>
      </trkpt>
      <trkpt lat="43.40039" lon="6.64175">
        <ele>191.44</ele>
        <time>2012-10-12T10:27:08Z</time>
      </trkpt>
      <trkpt lat="43.40039" lon="6.64178">
        <ele>191.92</ele>
        <time>2012-10-12T10:27:09Z</time>
      </trkpt>
      <trkpt lat="43.40045" lon="6.64204">
        <ele>193.36</ele>
        <time>2012-10-12T10:27:18Z</time>
      </trkpt>
      <trkpt lat="43.40046" lon="6.64206">
        <ele>193.84</ele>
        <time>2012-10-12T10:27:19Z</time>
      </trkpt>
      <trkpt lat="43.40055" lon="6.64234">
        <ele>195.28</ele>
        <time>2012-10-12T10:27:30Z</time>
      </trkpt>
      <trkpt lat="43.40065" lon="6.64245">
        <ele>196.73</ele>
        <time>2012-10-12T10:27:36Z</time>
      </trkpt>
      <trkpt lat="43.4007" lon="6.64247">
        <ele>197.69</ele>
        <time>2012-10-12T10:27:39Z</time>
      </trkpt>
      <trkpt lat="43.40071" lon="6.64248">
        <ele>197.69</ele>
        <time>2012-10-12T10:27:40Z</time>
      </trkpt>
      <trkpt lat="43.40072" lon="6.6425">
        <ele>198.17</ele>
        <time>2012-10-12T10:27:41Z</time>
      </trkpt>
      <trkpt lat="43.40075" lon="6.64253">
        <ele>198.65</ele>
        <time>2012-10-12T10:27:48Z</time>
      </trkpt>
      <trkpt lat="43.40076" lon="6.64257">
        <ele>199.61</ele>
        <time>2012-10-12T10:27:58Z</time>
      </trkpt>
      <trkpt lat="43.40076" lon="6.6426">
        <ele>200.09</ele>
        <time>2012-10-12T10:28:00Z</time>
      </trkpt>
      <trkpt lat="43.40075" lon="6.64269">
        <ele>202.01</ele>
        <time>2012-10-12T10:28:07Z</time>
      </trkpt>
      <trkpt lat="43.40075" lon="6.6428">
        <ele>203.94</ele>
        <time>2012-10-12T10:28:17Z</time>
      </trkpt>
      <trkpt lat="43.40072" lon="6.64289">
        <ele>205.38</ele>
        <time>2012-10-12T10:28:25Z</time>
      </trkpt>
      <trkpt lat="43.40072" lon="6.6429">
        <ele>205.38</ele>
        <time>2012-10-12T10:28:26Z</time>
      </trkpt>
      <trkpt lat="43.4007" lon="6.64295">
        <ele>205.86</ele>
        <time>2012-10-12T10:28:29Z</time>
      </trkpt>
      <trkpt lat="43.40065" lon="6.64308">
        <ele>206.34</ele>
        <time>2012-10-12T10:28:38Z</time>
      </trkpt>
      <trkpt lat="43.4006" lon="6.64322">
        <ele>207.78</ele>
        <time>2012-10-12T10:28:47Z</time>
      </trkpt>
      <trkpt lat="43.40058" lon="6.64327">
        <ele>208.26</ele>
        <time>2012-10-12T10:28:52Z</time>
      </trkpt>
      <trkpt lat="43.40056" lon="6.6433">
        <ele>209.7</ele>
        <time>2012-10-12T10:28:55Z</time>
      </trkpt>
      <trkpt lat="43.40052" lon="6.64334">
        <ele>210.67</ele>
        <time>2012-10-12T10:29:01Z</time>
      </trkpt>
      <trkpt lat="43.40047" lon="6.6434">
        <ele>212.11</ele>
        <time>2012-10-12T10:29:11Z</time>
      </trkpt>
      <trkpt lat="43.40043" lon="6.64343">
        <ele>214.03</ele>
        <time>2012-10-12T10:29:20Z</time>
      </trkpt>
      <trkpt lat="43.40038" lon="6.64345">
        <ele>215.95</ele>
        <time>2012-10-12T10:29:29Z</time>
      </trkpt>
      <trkpt lat="43.40036" lon="6.64346">
        <ele>216.43</ele>
        <time>2012-10-12T10:29:31Z</time>
      </trkpt>
      <trkpt lat="43.40031" lon="6.64348">
        <ele>217.88</ele>
        <time>2012-10-12T10:29:38Z</time>
      </trkpt>
      <trkpt lat="43.4002" lon="6.64349">
        <ele>220.28</ele>
        <time>2012-10-12T10:29:50Z</time>
      </trkpt>
      <trkpt lat="43.40018" lon="6.64348">
        <ele>219.8</ele>
        <time>2012-10-12T10:29:56Z</time>
      </trkpt>
      <trkpt lat="43.40017" lon="6.64347">
        <ele>220.28</ele>
        <time>2012-10-12T10:29:57Z</time>
      </trkpt>
      <trkpt lat="43.40015" lon="6.64347">
        <ele>220.76</ele>
        <time>2012-10-12T10:29:58Z</time>
      </trkpt>
      <trkpt lat="43.40013" lon="6.64347">
        <ele>220.76</ele>
        <time>2012-10-12T10:29:59Z</time>
      </trkpt>
      <trkpt lat="43.40012" lon="6.64347">
        <ele>220.28</ele>
        <time>2012-10-12T10:30:00Z</time>
      </trkpt>
      <trkpt lat="43.39996" lon="6.64354">
        <ele>223.64</ele>
        <time>2012-10-12T10:30:10Z</time>
      </trkpt>
      <trkpt lat="43.39995" lon="6.64355">
        <ele>223.64</ele>
        <time>2012-10-12T10:30:11Z</time>
      </trkpt>
      <trkpt lat="43.39975" lon="6.64363">
        <ele>225.57</ele>
        <time>2012-10-12T10:30:22Z</time>
      </trkpt>
      <trkpt lat="43.39959" lon="6.64383">
        <ele>225.57</ele>
        <time>2012-10-12T10:30:31Z</time>
      </trkpt>
      <trkpt lat="43.39957" lon="6.64388">
        <ele>224.61</ele>
        <time>2012-10-12T10:30:32Z</time>
      </trkpt>
      <trkpt lat="43.39955" lon="6.64394">
        <ele>223.64</ele>
        <time>2012-10-12T10:30:33Z</time>
      </trkpt>
      <trkpt lat="43.39953" lon="6.64401">
        <ele>223.64</ele>
        <time>2012-10-12T10:30:34Z</time>
      </trkpt>
      <trkpt lat="43.39947" lon="6.64415">
        <ele>222.68</ele>
        <time>2012-10-12T10:30:36Z</time>
      </trkpt>
      <trkpt lat="43.39944" lon="6.64421">
        <ele>222.2</ele>
        <time>2012-10-12T10:30:37Z</time>
      </trkpt>
      <trkpt lat="43.3994" lon="6.64426">
        <ele>222.2</ele>
        <time>2012-10-12T10:30:38Z</time>
      </trkpt>
      <trkpt lat="43.39936" lon="6.64431">
        <ele>222.2</ele>
        <time>2012-10-12T10:30:39Z</time>
      </trkpt>
      <trkpt lat="43.39932" lon="6.64436">
        <ele>222.2</ele>
        <time>2012-10-12T10:30:40Z</time>
      </trkpt>
      <trkpt lat="43.39927" lon="6.64439">
        <ele>221.72</ele>
        <time>2012-10-12T10:30:41Z</time>
      </trkpt>
      <trkpt lat="43.39922" lon="6.64441">
        <ele>221.24</ele>
        <time>2012-10-12T10:30:42Z</time>
      </trkpt>
      <trkpt lat="43.39918" lon="6.64442">
        <ele>222.2</ele>
        <time>2012-10-12T10:30:43Z</time>
      </trkpt>
      <trkpt lat="43.39908" lon="6.64443">
        <ele>224.61</ele>
        <time>2012-10-12T10:30:47Z</time>
      </trkpt>
      <trkpt lat="43.39889" lon="6.6445">
        <ele>225.57</ele>
        <time>2012-10-12T10:30:56Z</time>
      </trkpt>
      <trkpt lat="43.39875" lon="6.6446">
        <ele>227.97</ele>
        <time>2012-10-12T10:31:04Z</time>
      </trkpt>
      <trkpt lat="43.39868" lon="6.64467">
        <ele>229.89</ele>
        <time>2012-10-12T10:31:10Z</time>
      </trkpt>
      <trkpt lat="43.39867" lon="6.64468">
        <ele>229.89</ele>
        <time>2012-10-12T10:31:11Z</time>
      </trkpt>
      <trkpt lat="43.39866" lon="6.64469">
        <ele>230.37</ele>
        <time>2012-10-12T10:31:12Z</time>
      </trkpt>
      <trkpt lat="43.39865" lon="6.6447">
        <ele>230.37</ele>
        <time>2012-10-12T10:31:13Z</time>
      </trkpt>
      <trkpt lat="43.39864" lon="6.64471">
        <ele>230.85</ele>
        <time>2012-10-12T10:31:14Z</time>
      </trkpt>
      <trkpt lat="43.39863" lon="6.64473">
        <ele>231.33</ele>
        <time>2012-10-12T10:31:15Z</time>
      </trkpt>
      <trkpt lat="43.39862" lon="6.64474">
        <ele>231.33</ele>
        <time>2012-10-12T10:31:16Z</time>
      </trkpt>
      <trkpt lat="43.39856" lon="6.64482">
        <ele>232.78</ele>
        <time>2012-10-12T10:31:22Z</time>
      </trkpt>
      <trkpt lat="43.39855" lon="6.64483">
        <ele>232.78</ele>
        <time>2012-10-12T10:31:23Z</time>
      </trkpt>
      <trkpt lat="43.39854" lon="6.64484">
        <ele>233.26</ele>
        <time>2012-10-12T10:31:24Z</time>
      </trkpt>
      <trkpt lat="43.39853" lon="6.64485">
        <ele>233.26</ele>
        <time>2012-10-12T10:31:25Z</time>
      </trkpt>
      <trkpt lat="43.3985" lon="6.64487">
        <ele>234.22</ele>
        <time>2012-10-12T10:31:27Z</time>
      </trkpt>
      <trkpt lat="43.39849" lon="6.64489">
        <ele>234.22</ele>
        <time>2012-10-12T10:31:28Z</time>
      </trkpt>
      <trkpt lat="43.39848" lon="6.6449">
        <ele>234.7</ele>
        <time>2012-10-12T10:31:29Z</time>
      </trkpt>
      <trkpt lat="43.39847" lon="6.64492">
        <ele>235.66</ele>
        <time>2012-10-12T10:31:30Z</time>
      </trkpt>
      <trkpt lat="43.39846" lon="6.64493">
        <ele>235.18</ele>
        <time>2012-10-12T10:31:31Z</time>
      </trkpt>
      <trkpt lat="43.39845" lon="6.64495">
        <ele>235.18</ele>
        <time>2012-10-12T10:31:32Z</time>
      </trkpt>
      <trkpt lat="43.39844" lon="6.64496">
        <ele>236.14</ele>
        <time>2012-10-12T10:31:33Z</time>
      </trkpt>
      <trkpt lat="43.39843" lon="6.64498">
        <ele>236.14</ele>
        <time>2012-10-12T10:31:34Z</time>
      </trkpt>
      <trkpt lat="43.39841" lon="6.64499">
        <ele>236.62</ele>
        <time>2012-10-12T10:31:35Z</time>
      </trkpt>
      <trkpt lat="43.3984" lon="6.645">
        <ele>236.14</ele>
        <time>2012-10-12T10:31:36Z</time>
      </trkpt>
      <trkpt lat="43.39839" lon="6.64501">
        <ele>237.1</ele>
        <time>2012-10-12T10:31:37Z</time>
      </trkpt>
      <trkpt lat="43.39837" lon="6.64502">
        <ele>236.62</ele>
        <time>2012-10-12T10:31:38Z</time>
      </trkpt>
      <trkpt lat="43.39836" lon="6.64504">
        <ele>236.62</ele>
        <time>2012-10-12T10:31:39Z</time>
      </trkpt>
      <trkpt lat="43.39834" lon="6.64505">
        <ele>237.58</ele>
        <time>2012-10-12T10:31:40Z</time>
      </trkpt>
      <trkpt lat="43.39833" lon="6.64506">
        <ele>237.58</ele>
        <time>2012-10-12T10:31:41Z</time>
      </trkpt>
      <trkpt lat="43.39831" lon="6.64507">
        <ele>237.1</ele>
        <time>2012-10-12T10:31:42Z</time>
      </trkpt>
      <trkpt lat="43.39822" lon="6.64514">
        <ele>238.54</ele>
        <time>2012-10-12T10:31:49Z</time>
      </trkpt>
      <trkpt lat="43.39821" lon="6.64515">
        <ele>238.54</ele>
        <time>2012-10-12T10:31:50Z</time>
      </trkpt>
      <trkpt lat="43.3982" lon="6.64516">
        <ele>238.54</ele>
        <time>2012-10-12T10:31:51Z</time>
      </trkpt>
      <trkpt lat="43.39818" lon="6.64518">
        <ele>239.02</ele>
        <time>2012-10-12T10:31:52Z</time>
      </trkpt>
      <trkpt lat="43.39809" lon="6.64525">
        <ele>240.47</ele>
        <time>2012-10-12T10:31:58Z</time>
      </trkpt>
      <trkpt lat="43.39807" lon="6.64526">
        <ele>240.95</ele>
        <time>2012-10-12T10:31:59Z</time>
      </trkpt>
      <trkpt lat="43.39805" lon="6.64527">
        <ele>240.95</ele>
        <time>2012-10-12T10:32:00Z</time>
      </trkpt>
      <trkpt lat="43.39803" lon="6.64527">
        <ele>240.95</ele>
        <time>2012-10-12T10:32:01Z</time>
      </trkpt>
      <trkpt lat="43.39802" lon="6.64527">
        <ele>241.43</ele>
        <time>2012-10-12T10:32:02Z</time>
      </trkpt>
      <trkpt lat="43.398" lon="6.64528">
        <ele>241.43</ele>
        <time>2012-10-12T10:32:03Z</time>
      </trkpt>
      <trkpt lat="43.3978" lon="6.64518">
        <ele>243.35</ele>
        <time>2012-10-12T10:32:14Z</time>
      </trkpt>
      <trkpt lat="43.39757" lon="6.64515">
        <ele>244.31</ele>
        <time>2012-10-12T10:32:24Z</time>
      </trkpt>
      <trkpt lat="43.39732" lon="6.64508">
        <ele>243.83</ele>
        <time>2012-10-12T10:32:33Z</time>
      </trkpt>
      <trkpt lat="43.39718" lon="6.64504">
        <ele>241.91</ele>
        <time>2012-10-12T10:32:37Z</time>
      </trkpt>
      <trkpt lat="43.39713" lon="6.64503">
        <ele>241.91</ele>
        <time>2012-10-12T10:32:38Z</time>
      </trkpt>
      <trkpt lat="43.39709" lon="6.64505">
        <ele>242.39</ele>
        <time>2012-10-12T10:32:39Z</time>
      </trkpt>
      <trkpt lat="43.39705" lon="6.64509">
        <ele>243.35</ele>
        <time>2012-10-12T10:32:40Z</time>
      </trkpt>
      <trkpt lat="43.39702" lon="6.64513">
        <ele>243.35</ele>
        <time>2012-10-12T10:32:41Z</time>
      </trkpt>
      <trkpt lat="43.397" lon="6.64517">
        <ele>243.35</ele>
        <time>2012-10-12T10:32:42Z</time>
      </trkpt>
      <trkpt lat="43.39698" lon="6.6452">
        <ele>243.35</ele>
        <time>2012-10-12T10:32:43Z</time>
      </trkpt>
      <trkpt lat="43.39695" lon="6.64523">
        <ele>242.87</ele>
        <time>2012-10-12T10:32:44Z</time>
      </trkpt>
      <trkpt lat="43.39691" lon="6.64525">
        <ele>242.87</ele>
        <time>2012-10-12T10:32:45Z</time>
      </trkpt>
      <trkpt lat="43.39687" lon="6.64527">
        <ele>241.91</ele>
        <time>2012-10-12T10:32:46Z</time>
      </trkpt>
      <trkpt lat="43.39683" lon="6.64527">
        <ele>242.39</ele>
        <time>2012-10-12T10:32:47Z</time>
      </trkpt>
      <trkpt lat="43.39679" lon="6.64527">
        <ele>240.95</ele>
        <time>2012-10-12T10:32:48Z</time>
      </trkpt>
      <trkpt lat="43.39673" lon="6.64526">
        <ele>238.54</ele>
        <time>2012-10-12T10:32:49Z</time>
      </trkpt>
      <trkpt lat="43.39666" lon="6.64528">
        <ele>236.14</ele>
        <time>2012-10-12T10:32:50Z</time>
      </trkpt>
      <trkpt lat="43.39658" lon="6.64529">
        <ele>235.18</ele>
        <time>2012-10-12T10:32:51Z</time>
      </trkpt>
      <trkpt lat="43.3965" lon="6.6453">
        <ele>233.74</ele>
        <time>2012-10-12T10:32:52Z</time>
      </trkpt>
      <trkpt lat="43.39642" lon="6.64532">
        <ele>233.26</ele>
        <time>2012-10-12T10:32:53Z</time>
      </trkpt>
      <trkpt lat="43.39634" lon="6.64535">
        <ele>231.81</ele>
        <time>2012-10-12T10:32:54Z</time>
      </trkpt>
      <trkpt lat="43.39614" lon="6.64543">
        <ele>231.33</ele>
        <time>2012-10-12T10:32:57Z</time>
      </trkpt>
      <trkpt lat="43.39609" lon="6.64546">
        <ele>231.33</ele>
        <time>2012-10-12T10:32:58Z</time>
      </trkpt>
      <trkpt lat="43.39604" lon="6.64549">
        <ele>231.33</ele>
        <time>2012-10-12T10:32:59Z</time>
      </trkpt>
      <trkpt lat="43.39601" lon="6.64555">
        <ele>231.33</ele>
        <time>2012-10-12T10:33:00Z</time>
      </trkpt>
      <trkpt lat="43.39598" lon="6.64561">
        <ele>230.37</ele>
        <time>2012-10-12T10:33:01Z</time>
      </trkpt>
      <trkpt lat="43.39595" lon="6.64567">
        <ele>228.93</ele>
        <time>2012-10-12T10:33:02Z</time>
      </trkpt>
      <trkpt lat="43.39592" lon="6.64571">
        <ele>228.45</ele>
        <time>2012-10-12T10:33:03Z</time>
      </trkpt>
      <trkpt lat="43.39589" lon="6.64575">
        <ele>227.97</ele>
        <time>2012-10-12T10:33:04Z</time>
      </trkpt>
      <trkpt lat="43.39585" lon="6.64578">
        <ele>226.53</ele>
        <time>2012-10-12T10:33:05Z</time>
      </trkpt>
      <trkpt lat="43.3958" lon="6.64582">
        <ele>224.12</ele>
        <time>2012-10-12T10:33:06Z</time>
      </trkpt>
      <trkpt lat="43.39567" lon="6.64592">
        <ele>221.24</ele>
        <time>2012-10-12T10:33:09Z</time>
      </trkpt>
      <trkpt lat="43.39562" lon="6.64596">
        <ele>220.76</ele>
        <time>2012-10-12T10:33:10Z</time>
      </trkpt>
      <trkpt lat="43.39556" lon="6.64597">
        <ele>220.28</ele>
        <time>2012-10-12T10:33:11Z</time>
      </trkpt>
      <trkpt lat="43.39552" lon="6.64598">
        <ele>220.28</ele>
        <time>2012-10-12T10:33:12Z</time>
      </trkpt>
      <trkpt lat="43.39548" lon="6.64598">
        <ele>220.28</ele>
        <time>2012-10-12T10:33:13Z</time>
      </trkpt>
      <trkpt lat="43.39544" lon="6.64599">
        <ele>218.84</ele>
        <time>2012-10-12T10:33:14Z</time>
      </trkpt>
      <trkpt lat="43.3954" lon="6.646">
        <ele>218.36</ele>
        <time>2012-10-12T10:33:15Z</time>
      </trkpt>
      <trkpt lat="43.39535" lon="6.64602">
        <ele>217.4</ele>
        <time>2012-10-12T10:33:16Z</time>
      </trkpt>
      <trkpt lat="43.3953" lon="6.64605">
        <ele>215.95</ele>
        <time>2012-10-12T10:33:17Z</time>
      </trkpt>
      <trkpt lat="43.39525" lon="6.64608">
        <ele>214.51</ele>
        <time>2012-10-12T10:33:18Z</time>
      </trkpt>
      <trkpt lat="43.3952" lon="6.64611">
        <ele>213.55</ele>
        <time>2012-10-12T10:33:19Z</time>
      </trkpt>
      <trkpt lat="43.39515" lon="6.64613">
        <ele>213.07</ele>
        <time>2012-10-12T10:33:20Z</time>
      </trkpt>
      <trkpt lat="43.3951" lon="6.64616">
        <ele>212.11</ele>
        <time>2012-10-12T10:33:21Z</time>
      </trkpt>
      <trkpt lat="43.39506" lon="6.6462">
        <ele>211.63</ele>
        <time>2012-10-12T10:33:22Z</time>
      </trkpt>
      <trkpt lat="43.39501" lon="6.64622">
        <ele>211.15</ele>
        <time>2012-10-12T10:33:23Z</time>
      </trkpt>
      <trkpt lat="43.39497" lon="6.64625">
        <ele>211.15</ele>
        <time>2012-10-12T10:33:24Z</time>
      </trkpt>
      <trkpt lat="43.39492" lon="6.64628">
        <ele>209.7</ele>
        <time>2012-10-12T10:33:25Z</time>
      </trkpt>
      <trkpt lat="43.39487" lon="6.64631">
        <ele>209.22</ele>
        <time>2012-10-12T10:33:26Z</time>
      </trkpt>
      <trkpt lat="43.39481" lon="6.64633">
        <ele>207.78</ele>
        <time>2012-10-12T10:33:27Z</time>
      </trkpt>
      <trkpt lat="43.39475" lon="6.64635">
        <ele>206.34</ele>
        <time>2012-10-12T10:33:28Z</time>
      </trkpt>
      <trkpt lat="43.39447" lon="6.6465">
        <ele>204.42</ele>
        <time>2012-10-12T10:33:32Z</time>
      </trkpt>
      <trkpt lat="43.39432" lon="6.64655">
        <ele>204.42</ele>
        <time>2012-10-12T10:33:34Z</time>
      </trkpt>
      <trkpt lat="43.39424" lon="6.64655">
        <ele>204.42</ele>
        <time>2012-10-12T10:33:35Z</time>
      </trkpt>
      <trkpt lat="43.39417" lon="6.64654">
        <ele>203.94</ele>
        <time>2012-10-12T10:33:36Z</time>
      </trkpt>
      <trkpt lat="43.3941" lon="6.64651">
        <ele>203.46</ele>
        <time>2012-10-12T10:33:37Z</time>
      </trkpt>
      <trkpt lat="43.39404" lon="6.64647">
        <ele>202.49</ele>
        <time>2012-10-12T10:33:38Z</time>
      </trkpt>
      <trkpt lat="43.39399" lon="6.64644">
        <ele>202.49</ele>
        <time>2012-10-12T10:33:39Z</time>
      </trkpt>
      <trkpt lat="43.39395" lon="6.6464">
        <ele>202.49</ele>
        <time>2012-10-12T10:33:40Z</time>
      </trkpt>
      <trkpt lat="43.39391" lon="6.64639">
        <ele>202.01</ele>
        <time>2012-10-12T10:33:41Z</time>
      </trkpt>
      <trkpt lat="43.39385" lon="6.64638">
        <ele>200.57</ele>
        <time>2012-10-12T10:33:42Z</time>
      </trkpt>
      <trkpt lat="43.39365" lon="6.64634">
        <ele>197.69</ele>
        <time>2012-10-12T10:33:45Z</time>
      </trkpt>
      <trkpt lat="43.3936" lon="6.64633">
        <ele>198.17</ele>
        <time>2012-10-12T10:33:46Z</time>
      </trkpt>
      <trkpt lat="43.39355" lon="6.64632">
        <ele>197.69</ele>
        <time>2012-10-12T10:33:47Z</time>
      </trkpt>
      <trkpt lat="43.39351" lon="6.64633">
        <ele>198.17</ele>
        <time>2012-10-12T10:33:48Z</time>
      </trkpt>
      <trkpt lat="43.39346" lon="6.64634">
        <ele>197.69</ele>
        <time>2012-10-12T10:33:49Z</time>
      </trkpt>
      <trkpt lat="43.39341" lon="6.64634">
        <ele>197.21</ele>
        <time>2012-10-12T10:33:50Z</time>
      </trkpt>
      <trkpt lat="43.39337" lon="6.64631">
        <ele>196.73</ele>
        <time>2012-10-12T10:33:51Z</time>
      </trkpt>
      <trkpt lat="43.39336" lon="6.64627">
        <ele>195.77</ele>
        <time>2012-10-12T10:33:52Z</time>
      </trkpt>
      <trkpt lat="43.39335" lon="6.64622">
        <ele>195.28</ele>
        <time>2012-10-12T10:33:53Z</time>
      </trkpt>
      <trkpt lat="43.39334" lon="6.64617">
        <ele>195.28</ele>
        <time>2012-10-12T10:33:54Z</time>
      </trkpt>
      <trkpt lat="43.39332" lon="6.64612">
        <ele>195.77</ele>
        <time>2012-10-12T10:33:55Z</time>
      </trkpt>
      <trkpt lat="43.3933" lon="6.64608">
        <ele>196.25</ele>
        <time>2012-10-12T10:33:56Z</time>
      </trkpt>
      <trkpt lat="43.39327" lon="6.64603">
        <ele>196.25</ele>
        <time>2012-10-12T10:33:57Z</time>
      </trkpt>
      <trkpt lat="43.39324" lon="6.64599">
        <ele>195.28</ele>
        <time>2012-10-12T10:33:58Z</time>
      </trkpt>
      <trkpt lat="43.3932" lon="6.64595">
        <ele>194.32</ele>
        <time>2012-10-12T10:33:59Z</time>
      </trkpt>
      <trkpt lat="43.39316" lon="6.64591">
        <ele>193.84</ele>
        <time>2012-10-12T10:34:00Z</time>
      </trkpt>
      <trkpt lat="43.3931" lon="6.64587">
        <ele>193.84</ele>
        <time>2012-10-12T10:34:01Z</time>
      </trkpt>
      <trkpt lat="43.39304" lon="6.64585">
        <ele>192.4</ele>
        <time>2012-10-12T10:34:02Z</time>
      </trkpt>
      <trkpt lat="43.39297" lon="6.64583">
        <ele>191.92</ele>
        <time>2012-10-12T10:34:03Z</time>
      </trkpt>
      <trkpt lat="43.39275" lon="6.64579">
        <ele>189.52</ele>
        <time>2012-10-12T10:34:06Z</time>
      </trkpt>
      <trkpt lat="43.39259" lon="6.64579">
        <ele>187.59</ele>
        <time>2012-10-12T10:34:08Z</time>
      </trkpt>
      <trkpt lat="43.39251" lon="6.64581">
        <ele>187.59</ele>
        <time>2012-10-12T10:34:09Z</time>
      </trkpt>
      <trkpt lat="43.39204" lon="6.64601">
        <ele>185.19</ele>
        <time>2012-10-12T10:34:15Z</time>
      </trkpt>
      <trkpt lat="43.39176" lon="6.6461">
        <ele>181.83</ele>
        <time>2012-10-12T10:34:18Z</time>
      </trkpt>
      <trkpt lat="43.39166" lon="6.64613">
        <ele>178.46</ele>
        <time>2012-10-12T10:34:19Z</time>
      </trkpt>
      <trkpt lat="43.39156" lon="6.64614">
        <ele>177.5</ele>
        <time>2012-10-12T10:34:20Z</time>
      </trkpt>
      <trkpt lat="43.39146" lon="6.64614">
        <ele>177.02</ele>
        <time>2012-10-12T10:34:21Z</time>
      </trkpt>
      <trkpt lat="43.39137" lon="6.64613">
        <ele>177.02</ele>
        <time>2012-10-12T10:34:22Z</time>
      </trkpt>
      <trkpt lat="43.39111" lon="6.6461">
        <ele>178.46</ele>
        <time>2012-10-12T10:34:25Z</time>
      </trkpt>
      <trkpt lat="43.39104" lon="6.64611">
        <ele>177.5</ele>
        <time>2012-10-12T10:34:26Z</time>
      </trkpt>
      <trkpt lat="43.39089" lon="6.64615">
        <ele>173.66</ele>
        <time>2012-10-12T10:34:28Z</time>
      </trkpt>
      <trkpt lat="43.39071" lon="6.64619">
        <ele>170.77</ele>
        <time>2012-10-12T10:34:30Z</time>
      </trkpt>
      <trkpt lat="43.39062" lon="6.64621">
        <ele>170.77</ele>
        <time>2012-10-12T10:34:31Z</time>
      </trkpt>
      <trkpt lat="43.39045" lon="6.64625">
        <ele>169.81</ele>
        <time>2012-10-12T10:34:33Z</time>
      </trkpt>
      <trkpt lat="43.39038" lon="6.64628">
        <ele>170.77</ele>
        <time>2012-10-12T10:34:34Z</time>
      </trkpt>
      <trkpt lat="43.39032" lon="6.64631">
        <ele>169.81</ele>
        <time>2012-10-12T10:34:35Z</time>
      </trkpt>
      <trkpt lat="43.39025" lon="6.64636">
        <ele>168.85</ele>
        <time>2012-10-12T10:34:36Z</time>
      </trkpt>
      <trkpt lat="43.39019" lon="6.64643">
        <ele>167.41</ele>
        <time>2012-10-12T10:34:37Z</time>
      </trkpt>
      <trkpt lat="43.39001" lon="6.64664">
        <ele>165.48</ele>
        <time>2012-10-12T10:34:40Z</time>
      </trkpt>
      <trkpt lat="43.3899" lon="6.6468">
        <ele>162.6</ele>
        <time>2012-10-12T10:34:42Z</time>
      </trkpt>
      <trkpt lat="43.38983" lon="6.64687">
        <ele>161.64</ele>
        <time>2012-10-12T10:34:43Z</time>
      </trkpt>
      <trkpt lat="43.38975" lon="6.64693">
        <ele>160.68</ele>
        <time>2012-10-12T10:34:44Z</time>
      </trkpt>
      <trkpt lat="43.38956" lon="6.64704">
        <ele>156.83</ele>
        <time>2012-10-12T10:34:46Z</time>
      </trkpt>
      <trkpt lat="43.38937" lon="6.64713">
        <ele>154.91</ele>
        <time>2012-10-12T10:34:48Z</time>
      </trkpt>
      <trkpt lat="43.38928" lon="6.64716">
        <ele>155.39</ele>
        <time>2012-10-12T10:34:49Z</time>
      </trkpt>
      <trkpt lat="43.38892" lon="6.64738">
        <ele>151.54</ele>
        <time>2012-10-12T10:34:53Z</time>
      </trkpt>
      <trkpt lat="43.38869" lon="6.64753">
        <ele>151.06</ele>
        <time>2012-10-12T10:34:56Z</time>
      </trkpt>
      <trkpt lat="43.38862" lon="6.64754">
        <ele>150.58</ele>
        <time>2012-10-12T10:34:57Z</time>
      </trkpt>
      <trkpt lat="43.38855" lon="6.64753">
        <ele>151.06</ele>
        <time>2012-10-12T10:34:58Z</time>
      </trkpt>
      <trkpt lat="43.38848" lon="6.6475">
        <ele>149.14</ele>
        <time>2012-10-12T10:34:59Z</time>
      </trkpt>
      <trkpt lat="43.3884" lon="6.64747">
        <ele>148.18</ele>
        <time>2012-10-12T10:35:00Z</time>
      </trkpt>
      <trkpt lat="43.38825" lon="6.64741">
        <ele>145.3</ele>
        <time>2012-10-12T10:35:02Z</time>
      </trkpt>
      <trkpt lat="43.38818" lon="6.6474">
        <ele>146.26</ele>
        <time>2012-10-12T10:35:03Z</time>
      </trkpt>
      <trkpt lat="43.38811" lon="6.64741">
        <ele>145.3</ele>
        <time>2012-10-12T10:35:04Z</time>
      </trkpt>
      <trkpt lat="43.38781" lon="6.64742">
        <ele>142.89</ele>
        <time>2012-10-12T10:35:10Z</time>
      </trkpt>
      <trkpt lat="43.38777" lon="6.64743">
        <ele>141.93</ele>
        <time>2012-10-12T10:35:11Z</time>
      </trkpt>
      <trkpt lat="43.38775" lon="6.64745">
        <ele>141.45</ele>
        <time>2012-10-12T10:35:12Z</time>
      </trkpt>
      <trkpt lat="43.38773" lon="6.64748">
        <ele>140.49</ele>
        <time>2012-10-12T10:35:13Z</time>
      </trkpt>
      <trkpt lat="43.38766" lon="6.64759">
        <ele>139.05</ele>
        <time>2012-10-12T10:35:16Z</time>
      </trkpt>
      <trkpt lat="43.38764" lon="6.6476">
        <ele>138.57</ele>
        <time>2012-10-12T10:35:17Z</time>
      </trkpt>
      <trkpt lat="43.38762" lon="6.64759">
        <ele>137.61</ele>
        <time>2012-10-12T10:35:18Z</time>
      </trkpt>
      <trkpt lat="43.3876" lon="6.64756">
        <ele>137.13</ele>
        <time>2012-10-12T10:35:19Z</time>
      </trkpt>
      <trkpt lat="43.3876" lon="6.64752">
        <ele>136.64</ele>
        <time>2012-10-12T10:35:20Z</time>
      </trkpt>
      <trkpt lat="43.38761" lon="6.64747">
        <ele>136.64</ele>
        <time>2012-10-12T10:35:21Z</time>
      </trkpt>
      <trkpt lat="43.38763" lon="6.64742">
        <ele>136.16</ele>
        <time>2012-10-12T10:35:22Z</time>
      </trkpt>
      <trkpt lat="43.38765" lon="6.64737">
        <ele>136.16</ele>
        <time>2012-10-12T10:35:23Z</time>
      </trkpt>
      <trkpt lat="43.38767" lon="6.64732">
        <ele>135.2</ele>
        <time>2012-10-12T10:35:24Z</time>
      </trkpt>
      <trkpt lat="43.38768" lon="6.64725">
        <ele>134.72</ele>
        <time>2012-10-12T10:35:25Z</time>
      </trkpt>
      <trkpt lat="43.38768" lon="6.64719">
        <ele>134.24</ele>
        <time>2012-10-12T10:35:26Z</time>
      </trkpt>
      <trkpt lat="43.38767" lon="6.64714">
        <ele>133.28</ele>
        <time>2012-10-12T10:35:27Z</time>
      </trkpt>
      <trkpt lat="43.38765" lon="6.6471">
        <ele>133.76</ele>
        <time>2012-10-12T10:35:28Z</time>
      </trkpt>
      <trkpt lat="43.38763" lon="6.64705">
        <ele>132.8</ele>
        <time>2012-10-12T10:35:29Z</time>
      </trkpt>
      <trkpt lat="43.3876" lon="6.64699">
        <ele>131.84</ele>
        <time>2012-10-12T10:35:30Z</time>
      </trkpt>
      <trkpt lat="43.38752" lon="6.64688">
        <ele>129.92</ele>
        <time>2012-10-12T10:35:33Z</time>
      </trkpt>
      <trkpt lat="43.38748" lon="6.64686">
        <ele>129.43</ele>
        <time>2012-10-12T10:35:34Z</time>
      </trkpt>
      <trkpt lat="43.38743" lon="6.64685">
        <ele>128.95</ele>
        <time>2012-10-12T10:35:35Z</time>
      </trkpt>
      <trkpt lat="43.38739" lon="6.64684">
        <ele>128.95</ele>
        <time>2012-10-12T10:35:36Z</time>
      </trkpt>
      <trkpt lat="43.38735" lon="6.6468">
        <ele>127.51</ele>
        <time>2012-10-12T10:35:37Z</time>
      </trkpt>
      <trkpt lat="43.38731" lon="6.64677">
        <ele>126.55</ele>
        <time>2012-10-12T10:35:38Z</time>
      </trkpt>
      <trkpt lat="43.38729" lon="6.64673">
        <ele>124.63</ele>
        <time>2012-10-12T10:35:39Z</time>
      </trkpt>
      <trkpt lat="43.38718" lon="6.64661">
        <ele>122.22</ele>
        <time>2012-10-12T10:35:43Z</time>
      </trkpt>
      <trkpt lat="43.38714" lon="6.64661">
        <ele>121.26</ele>
        <time>2012-10-12T10:35:45Z</time>
      </trkpt>
      <trkpt lat="43.38713" lon="6.64662">
        <ele>120.78</ele>
        <time>2012-10-12T10:35:46Z</time>
      </trkpt>
      <trkpt lat="43.38712" lon="6.64662">
        <ele>120.3</ele>
        <time>2012-10-12T10:35:47Z</time>
      </trkpt>
      <trkpt lat="43.38709" lon="6.64662">
        <ele>119.82</ele>
        <time>2012-10-12T10:35:48Z</time>
      </trkpt>
      <trkpt lat="43.38707" lon="6.64661">
        <ele>118.86</ele>
        <time>2012-10-12T10:35:49Z</time>
      </trkpt>
      <trkpt lat="43.38698" lon="6.64656">
        <ele>115.98</ele>
        <time>2012-10-12T10:35:52Z</time>
      </trkpt>
      <trkpt lat="43.38684" lon="6.64655">
        <ele>113.09</ele>
        <time>2012-10-12T10:35:57Z</time>
      </trkpt>
      <trkpt lat="43.38678" lon="6.64652">
        <ele>111.17</ele>
        <time>2012-10-12T10:36:01Z</time>
      </trkpt>
      <trkpt lat="43.38669" lon="6.64642">
        <ele>107.81</ele>
        <time>2012-10-12T10:36:07Z</time>
      </trkpt>
      <trkpt lat="43.38668" lon="6.6464">
        <ele>107.32</ele>
        <time>2012-10-12T10:36:08Z</time>
      </trkpt>
      <trkpt lat="43.38665" lon="6.64639">
        <ele>106.36</ele>
        <time>2012-10-12T10:36:09Z</time>
      </trkpt>
      <trkpt lat="43.38663" lon="6.64641">
        <ele>105.88</ele>
        <time>2012-10-12T10:36:10Z</time>
      </trkpt>
      <trkpt lat="43.3866" lon="6.64644">
        <ele>105.4</ele>
        <time>2012-10-12T10:36:11Z</time>
      </trkpt>
      <trkpt lat="43.38659" lon="6.64647">
        <ele>105.4</ele>
        <time>2012-10-12T10:36:12Z</time>
      </trkpt>
      <trkpt lat="43.38656" lon="6.64648">
        <ele>104.44</ele>
        <time>2012-10-12T10:36:13Z</time>
      </trkpt>
      <trkpt lat="43.38653" lon="6.64648">
        <ele>103.48</ele>
        <time>2012-10-12T10:36:14Z</time>
      </trkpt>
      <trkpt lat="43.3865" lon="6.64647">
        <ele>103.48</ele>
        <time>2012-10-12T10:36:15Z</time>
      </trkpt>
      <trkpt lat="43.38649" lon="6.64645">
        <ele>102.52</ele>
        <time>2012-10-12T10:36:16Z</time>
      </trkpt>
      <trkpt lat="43.38647" lon="6.64643">
        <ele>101.56</ele>
        <time>2012-10-12T10:36:17Z</time>
      </trkpt>
      <trkpt lat="43.38645" lon="6.6464">
        <ele>101.08</ele>
        <time>2012-10-12T10:36:18Z</time>
      </trkpt>
      <trkpt lat="43.38643" lon="6.64638">
        <ele>100.11</ele>
        <time>2012-10-12T10:36:19Z</time>
      </trkpt>
      <trkpt lat="43.3864" lon="6.64636">
        <ele>99.63</ele>
        <time>2012-10-12T10:36:20Z</time>
      </trkpt>
      <trkpt lat="43.38638" lon="6.64633">
        <ele>99.15</ele>
        <time>2012-10-12T10:36:21Z</time>
      </trkpt>
      <trkpt lat="43.38635" lon="6.64632">
        <ele>98.67</ele>
        <time>2012-10-12T10:36:22Z</time>
      </trkpt>
      <trkpt lat="43.38633" lon="6.64632">
        <ele>98.19</ele>
        <time>2012-10-12T10:36:23Z</time>
      </trkpt>
      <trkpt lat="43.38631" lon="6.64631">
        <ele>97.23</ele>
        <time>2012-10-12T10:36:24Z</time>
      </trkpt>
      <trkpt lat="43.38629" lon="6.6463">
        <ele>96.75</ele>
        <time>2012-10-12T10:36:25Z</time>
      </trkpt>
      <trkpt lat="43.38627" lon="6.64628">
        <ele>96.75</ele>
        <time>2012-10-12T10:36:26Z</time>
      </trkpt>
      <trkpt lat="43.38626" lon="6.64625">
        <ele>95.79</ele>
        <time>2012-10-12T10:36:27Z</time>
      </trkpt>
      <trkpt lat="43.38625" lon="6.64622">
        <ele>95.79</ele>
        <time>2012-10-12T10:36:28Z</time>
      </trkpt>
      <trkpt lat="43.38623" lon="6.64619">
        <ele>95.31</ele>
        <time>2012-10-12T10:36:29Z</time>
      </trkpt>
      <trkpt lat="43.3862" lon="6.64615">
        <ele>94.83</ele>
        <time>2012-10-12T10:36:30Z</time>
      </trkpt>
      <trkpt lat="43.38616" lon="6.64613">
        <ele>93.87</ele>
        <time>2012-10-12T10:36:31Z</time>
      </trkpt>
      <trkpt lat="43.38611" lon="6.64613">
        <ele>93.87</ele>
        <time>2012-10-12T10:36:32Z</time>
      </trkpt>
      <trkpt lat="43.386" lon="6.64607">
        <ele>91.46</ele>
        <time>2012-10-12T10:36:37Z</time>
      </trkpt>
      <trkpt lat="43.38602" lon="6.64601">
        <ele>90.98</ele>
        <time>2012-10-12T10:36:39Z</time>
      </trkpt>
      <trkpt lat="43.38604" lon="6.64594">
        <ele>89.54</ele>
        <time>2012-10-12T10:36:41Z</time>
      </trkpt>
      <trkpt lat="43.38606" lon="6.64587">
        <ele>88.1</ele>
        <time>2012-10-12T10:36:43Z</time>
      </trkpt>
      <trkpt lat="43.3861" lon="6.6458">
        <ele>86.18</ele>
        <time>2012-10-12T10:36:45Z</time>
      </trkpt>
      <trkpt lat="43.38614" lon="6.64578">
        <ele>85.69</ele>
        <time>2012-10-12T10:36:46Z</time>
      </trkpt>
      <trkpt lat="43.38617" lon="6.64576">
        <ele>86.18</ele>
        <time>2012-10-12T10:36:47Z</time>
      </trkpt>
      <trkpt lat="43.3862" lon="6.64574">
        <ele>86.66</ele>
        <time>2012-10-12T10:36:48Z</time>
      </trkpt>
      <trkpt lat="43.38622" lon="6.64572">
        <ele>86.18</ele>
        <time>2012-10-12T10:36:49Z</time>
      </trkpt>
      <trkpt lat="43.38623" lon="6.6457">
        <ele>85.69</ele>
        <time>2012-10-12T10:36:50Z</time>
      </trkpt>
      <trkpt lat="43.38624" lon="6.64566">
        <ele>85.69</ele>
        <time>2012-10-12T10:36:57Z</time>
      </trkpt>
      <trkpt lat="43.38624" lon="6.64564">
        <ele>85.21</ele>
        <time>2012-10-12T10:36:58Z</time>
      </trkpt>
      <trkpt lat="43.38625" lon="6.64563">
        <ele>84.73</ele>
        <time>2012-10-12T10:36:59Z</time>
      </trkpt>
      <trkpt lat="43.38625" lon="6.6456">
        <ele>84.25</ele>
        <time>2012-10-12T10:37:00Z</time>
      </trkpt>
      <trkpt lat="43.38625" lon="6.64558">
        <ele>83.29</ele>
        <time>2012-10-12T10:37:01Z</time>
      </trkpt>
      <trkpt lat="43.38625" lon="6.64556">
        <ele>82.81</ele>
        <time>2012-10-12T10:37:02Z</time>
      </trkpt>
      <trkpt lat="43.38626" lon="6.64554">
        <ele>81.85</ele>
        <time>2012-10-12T10:37:03Z</time>
      </trkpt>
      <trkpt lat="43.38626" lon="6.64552">
        <ele>82.33</ele>
        <time>2012-10-12T10:37:04Z</time>
      </trkpt>
      <trkpt lat="43.38627" lon="6.6455">
        <ele>81.37</ele>
        <time>2012-10-12T10:37:05Z</time>
      </trkpt>
      <trkpt lat="43.38627" lon="6.64548">
        <ele>80.41</ele>
        <time>2012-10-12T10:37:06Z</time>
      </trkpt>
      <trkpt lat="43.38626" lon="6.64545">
        <ele>79.93</ele>
        <time>2012-10-12T10:37:07Z</time>
      </trkpt>
      <trkpt lat="43.38626" lon="6.64542">
        <ele>79.45</ele>
        <time>2012-10-12T10:37:08Z</time>
      </trkpt>
      <trkpt lat="43.38625" lon="6.64541">
        <ele>78.97</ele>
        <time>2012-10-12T10:37:09Z</time>
      </trkpt>
      <trkpt lat="43.38624" lon="6.64542">
        <ele>78.97</ele>
        <time>2012-10-12T10:37:14Z</time>
      </trkpt>
      <trkpt lat="43.38622" lon="6.64541">
        <ele>78.48</ele>
        <time>2012-10-12T10:37:15Z</time>
      </trkpt>
      <trkpt lat="43.38619" lon="6.64541">
        <ele>77.52</ele>
        <time>2012-10-12T10:37:16Z</time>
      </trkpt>
      <trkpt lat="43.38616" lon="6.64541">
        <ele>77.04</ele>
        <time>2012-10-12T10:37:17Z</time>
      </trkpt>
      <trkpt lat="43.38612" lon="6.64542">
        <ele>76.08</ele>
        <time>2012-10-12T10:37:18Z</time>
      </trkpt>
      <trkpt lat="43.38609" lon="6.64543">
        <ele>74.64</ele>
        <time>2012-10-12T10:37:19Z</time>
      </trkpt>
      <trkpt lat="43.38606" lon="6.64544">
        <ele>74.16</ele>
        <time>2012-10-12T10:37:20Z</time>
      </trkpt>
      <trkpt lat="43.38602" lon="6.64544">
        <ele>73.68</ele>
        <time>2012-10-12T10:37:21Z</time>
      </trkpt>
      <trkpt lat="43.38599" lon="6.64545">
        <ele>73.2</ele>
        <time>2012-10-12T10:37:22Z</time>
      </trkpt>
      <trkpt lat="43.38596" lon="6.64546">
        <ele>73.2</ele>
        <time>2012-10-12T10:37:23Z</time>
      </trkpt>
      <trkpt lat="43.38593" lon="6.64547">
        <ele>72.72</ele>
        <time>2012-10-12T10:37:24Z</time>
      </trkpt>
      <trkpt lat="43.38591" lon="6.64546">
        <ele>72.72</ele>
        <time>2012-10-12T10:37:25Z</time>
      </trkpt>
      <trkpt lat="43.38588" lon="6.64545">
        <ele>72.24</ele>
        <time>2012-10-12T10:37:26Z</time>
      </trkpt>
      <trkpt lat="43.38585" lon="6.64542">
        <ele>71.27</ele>
        <time>2012-10-12T10:37:27Z</time>
      </trkpt>
      <trkpt lat="43.38582" lon="6.64538">
        <ele>70.79</ele>
        <time>2012-10-12T10:37:28Z</time>
      </trkpt>
      <trkpt lat="43.38568" lon="6.64532">
        <ele>72.72</ele>
        <time>2012-10-12T10:37:35Z</time>
      </trkpt>
      <trkpt lat="43.38545" lon="6.64529">
        <ele>72.24</ele>
        <time>2012-10-12T10:37:43Z</time>
      </trkpt>
      <trkpt lat="43.3854" lon="6.64528">
        <ele>71.27</ele>
        <time>2012-10-12T10:37:44Z</time>
      </trkpt>
      <trkpt lat="43.38535" lon="6.64529">
        <ele>70.31</ele>
        <time>2012-10-12T10:37:45Z</time>
      </trkpt>
      <trkpt lat="43.3853" lon="6.64532">
        <ele>69.83</ele>
        <time>2012-10-12T10:37:46Z</time>
      </trkpt>
      <trkpt lat="43.38526" lon="6.64535">
        <ele>69.35</ele>
        <time>2012-10-12T10:37:47Z</time>
      </trkpt>
      <trkpt lat="43.38515" lon="6.64545">
        <ele>71.27</ele>
        <time>2012-10-12T10:37:52Z</time>
      </trkpt>
      <trkpt lat="43.38497" lon="6.64556">
        <ele>74.64</ele>
        <time>2012-10-12T10:38:04Z</time>
      </trkpt>
      <trkpt lat="43.38482" lon="6.6456">
        <ele>75.6</ele>
        <time>2012-10-12T10:38:14Z</time>
      </trkpt>
      <trkpt lat="43.38463" lon="6.64562">
        <ele>78.48</ele>
        <time>2012-10-12T10:38:26Z</time>
      </trkpt>
      <trkpt lat="43.38457" lon="6.64562">
        <ele>79.45</ele>
        <time>2012-10-12T10:38:30Z</time>
      </trkpt>
      <trkpt lat="43.38456" lon="6.64561">
        <ele>79.45</ele>
        <time>2012-10-12T10:38:31Z</time>
      </trkpt>
      <trkpt lat="43.38455" lon="6.64561">
        <ele>79.45</ele>
        <time>2012-10-12T10:38:32Z</time>
      </trkpt>
      <trkpt lat="43.38454" lon="6.6456">
        <ele>79.93</ele>
        <time>2012-10-12T10:38:33Z</time>
      </trkpt>
      <trkpt lat="43.38453" lon="6.6456">
        <ele>80.41</ele>
        <time>2012-10-12T10:38:34Z</time>
      </trkpt>
      <trkpt lat="43.38451" lon="6.64561">
        <ele>80.89</ele>
        <time>2012-10-12T10:38:35Z</time>
      </trkpt>
      <trkpt lat="43.3845" lon="6.64561">
        <ele>80.89</ele>
        <time>2012-10-12T10:38:36Z</time>
      </trkpt>
      <trkpt lat="43.38448" lon="6.64561">
        <ele>81.37</ele>
        <time>2012-10-12T10:38:37Z</time>
      </trkpt>
      <trkpt lat="43.38447" lon="6.64562">
        <ele>81.37</ele>
        <time>2012-10-12T10:38:38Z</time>
      </trkpt>
      <trkpt lat="43.38446" lon="6.64562">
        <ele>81.37</ele>
        <time>2012-10-12T10:38:39Z</time>
      </trkpt>
      <trkpt lat="43.38445" lon="6.64563">
        <ele>80.89</ele>
        <time>2012-10-12T10:38:40Z</time>
      </trkpt>
      <trkpt lat="43.38443" lon="6.64563">
        <ele>81.37</ele>
        <time>2012-10-12T10:38:41Z</time>
      </trkpt>
      <trkpt lat="43.38441" lon="6.64563">
        <ele>81.37</ele>
        <time>2012-10-12T10:38:42Z</time>
      </trkpt>
      <trkpt lat="43.3844" lon="6.64563">
        <ele>81.37</ele>
        <time>2012-10-12T10:38:43Z</time>
      </trkpt>
      <trkpt lat="43.38436" lon="6.64563">
        <ele>82.81</ele>
        <time>2012-10-12T10:38:46Z</time>
      </trkpt>
      <trkpt lat="43.38433" lon="6.64564">
        <ele>84.25</ele>
        <time>2012-10-12T10:38:48Z</time>
      </trkpt>
      <trkpt lat="43.38432" lon="6.64563">
        <ele>84.25</ele>
        <time>2012-10-12T10:38:49Z</time>
      </trkpt>
      <trkpt lat="43.3843" lon="6.64563">
        <ele>84.25</ele>
        <time>2012-10-12T10:38:50Z</time>
      </trkpt>
      <trkpt lat="43.38429" lon="6.64564">
        <ele>84.73</ele>
        <time>2012-10-12T10:38:51Z</time>
      </trkpt>
      <trkpt lat="43.38427" lon="6.64564">
        <ele>84.73</ele>
        <time>2012-10-12T10:38:52Z</time>
      </trkpt>
      <trkpt lat="43.38426" lon="6.64564">
        <ele>85.21</ele>
        <time>2012-10-12T10:38:53Z</time>
      </trkpt>
      <trkpt lat="43.38425" lon="6.64564">
        <ele>85.69</ele>
        <time>2012-10-12T10:38:54Z</time>
      </trkpt>
      <trkpt lat="43.38424" lon="6.64565">
        <ele>85.69</ele>
        <time>2012-10-12T10:38:55Z</time>
      </trkpt>
      <trkpt lat="43.38422" lon="6.64565">
        <ele>86.66</ele>
        <time>2012-10-12T10:38:56Z</time>
      </trkpt>
      <trkpt lat="43.38421" lon="6.64565">
        <ele>86.66</ele>
        <time>2012-10-12T10:38:57Z</time>
      </trkpt>
      <trkpt lat="43.38416" lon="6.64564">
        <ele>88.1</ele>
        <time>2012-10-12T10:39:00Z</time>
      </trkpt>
      <trkpt lat="43.38415" lon="6.64564">
        <ele>88.58</ele>
        <time>2012-10-12T10:39:01Z</time>
      </trkpt>
      <trkpt lat="43.38414" lon="6.64564">
        <ele>88.58</ele>
        <time>2012-10-12T10:39:02Z</time>
      </trkpt>
      <trkpt lat="43.38412" lon="6.64564">
        <ele>89.54</ele>
        <time>2012-10-12T10:39:03Z</time>
      </trkpt>
      <trkpt lat="43.38411" lon="6.64564">
        <ele>89.54</ele>
        <time>2012-10-12T10:39:04Z</time>
      </trkpt>
      <trkpt lat="43.3841" lon="6.64564">
        <ele>90.02</ele>
        <time>2012-10-12T10:39:05Z</time>
      </trkpt>
      <trkpt lat="43.38409" lon="6.64564">
        <ele>90.5</ele>
        <time>2012-10-12T10:39:06Z</time>
      </trkpt>
      <trkpt lat="43.38407" lon="6.64564">
        <ele>90.98</ele>
        <time>2012-10-12T10:39:07Z</time>
      </trkpt>
      <trkpt lat="43.38403" lon="6.64564">
        <ele>91.94</ele>
        <time>2012-10-12T10:39:10Z</time>
      </trkpt>
      <trkpt lat="43.38402" lon="6.64564">
        <ele>91.94</ele>
        <time>2012-10-12T10:39:11Z</time>
      </trkpt>
      <trkpt lat="43.38389" lon="6.64566">
        <ele>93.87</ele>
        <time>2012-10-12T10:39:20Z</time>
      </trkpt>
      <trkpt lat="43.38378" lon="6.64566">
        <ele>96.75</ele>
        <time>2012-10-12T10:39:29Z</time>
      </trkpt>
      <trkpt lat="43.38377" lon="6.64566">
        <ele>96.75</ele>
        <time>2012-10-12T10:39:30Z</time>
      </trkpt>
      <trkpt lat="43.38376" lon="6.64568">
        <ele>96.75</ele>
        <time>2012-10-12T10:39:31Z</time>
      </trkpt>
      <trkpt lat="43.38375" lon="6.64569">
        <ele>96.75</ele>
        <time>2012-10-12T10:39:32Z</time>
      </trkpt>
      <trkpt lat="43.38374" lon="6.6457">
        <ele>97.23</ele>
        <time>2012-10-12T10:39:33Z</time>
      </trkpt>
      <trkpt lat="43.38372" lon="6.6457">
        <ele>97.23</ele>
        <time>2012-10-12T10:39:34Z</time>
      </trkpt>
      <trkpt lat="43.38371" lon="6.64572">
        <ele>97.23</ele>
        <time>2012-10-12T10:39:35Z</time>
      </trkpt>
      <trkpt lat="43.38369" lon="6.64573">
        <ele>97.23</ele>
        <time>2012-10-12T10:39:36Z</time>
      </trkpt>
      <trkpt lat="43.38351" lon="6.64582">
        <ele>99.15</ele>
        <time>2012-10-12T10:39:47Z</time>
      </trkpt>
      <trkpt lat="43.38324" lon="6.64581">
        <ele>99.15</ele>
        <time>2012-10-12T10:39:58Z</time>
      </trkpt>
      <trkpt lat="43.38289" lon="6.64566">
        <ele>98.67</ele>
        <time>2012-10-12T10:40:08Z</time>
      </trkpt>
      <trkpt lat="43.38264" lon="6.64557">
        <ele>98.67</ele>
        <time>2012-10-12T10:40:14Z</time>
      </trkpt>
      <trkpt lat="43.38218" lon="6.64545">
        <ele>100.11</ele>
        <time>2012-10-12T10:40:27Z</time>
      </trkpt>
      <trkpt lat="43.38206" lon="6.64517">
        <ele>100.11</ele>
        <time>2012-10-12T10:40:35Z</time>
      </trkpt>
      <trkpt lat="43.38203" lon="6.6448">
        <ele>101.56</ele>
        <time>2012-10-12T10:40:44Z</time>
      </trkpt>
      <trkpt lat="43.38206" lon="6.6445">
        <ele>102.04</ele>
        <time>2012-10-12T10:40:50Z</time>
      </trkpt>
      <trkpt lat="43.38201" lon="6.64421">
        <ele>100.6</ele>
        <time>2012-10-12T10:40:56Z</time>
      </trkpt>
      <trkpt lat="43.38202" lon="6.6439">
        <ele>97.23</ele>
        <time>2012-10-12T10:41:01Z</time>
      </trkpt>
      <trkpt lat="43.38208" lon="6.64373">
        <ele>100.6</ele>
        <time>2012-10-12T10:41:04Z</time>
      </trkpt>
      <trkpt lat="43.38231" lon="6.64333">
        <ele>99.63</ele>
        <time>2012-10-12T10:41:13Z</time>
      </trkpt>
      <trkpt lat="43.38234" lon="6.64298">
        <ele>100.11</ele>
        <time>2012-10-12T10:41:21Z</time>
      </trkpt>
      <trkpt lat="43.38235" lon="6.6428">
        <ele>101.56</ele>
        <time>2012-10-12T10:41:25Z</time>
      </trkpt>
      <trkpt lat="43.38249" lon="6.64256">
        <ele>103</ele>
        <time>2012-10-12T10:41:35Z</time>
      </trkpt>
      <trkpt lat="43.38251" lon="6.64254">
        <ele>103.48</ele>
        <time>2012-10-12T10:41:36Z</time>
      </trkpt>
      <trkpt lat="43.38267" lon="6.64227">
        <ele>104.44</ele>
        <time>2012-10-12T10:41:47Z</time>
      </trkpt>
      <trkpt lat="43.3826" lon="6.64196">
        <ele>104.44</ele>
        <time>2012-10-12T10:41:56Z</time>
      </trkpt>
      <trkpt lat="43.38245" lon="6.64179">
        <ele>104.44</ele>
        <time>2012-10-12T10:42:00Z</time>
      </trkpt>
      <trkpt lat="43.38226" lon="6.64163">
        <ele>101.56</ele>
        <time>2012-10-12T10:42:04Z</time>
      </trkpt>
      <trkpt lat="43.38225" lon="6.64132">
        <ele>100.6</ele>
        <time>2012-10-12T10:42:09Z</time>
      </trkpt>
      <trkpt lat="43.38273" lon="6.64079">
        <ele>100.11</ele>
        <time>2012-10-12T10:42:21Z</time>
      </trkpt>
      <trkpt lat="43.38281" lon="6.64068">
        <ele>101.56</ele>
        <time>2012-10-12T10:42:24Z</time>
      </trkpt>
      <trkpt lat="43.38297" lon="6.64042">
        <ele>103.48</ele>
        <time>2012-10-12T10:42:33Z</time>
      </trkpt>
      <trkpt lat="43.38302" lon="6.64009">
        <ele>104.92</ele>
        <time>2012-10-12T10:42:42Z</time>
      </trkpt>
      <trkpt lat="43.38298" lon="6.6396">
        <ele>105.4</ele>
        <time>2012-10-12T10:42:54Z</time>
      </trkpt>
      <trkpt lat="43.38289" lon="6.63923">
        <ele>105.88</ele>
        <time>2012-10-12T10:43:03Z</time>
      </trkpt>
      <trkpt lat="43.38285" lon="6.63916">
        <ele>104.92</ele>
        <time>2012-10-12T10:43:05Z</time>
      </trkpt>
      <trkpt lat="43.38257" lon="6.6389">
        <ele>104.44</ele>
        <time>2012-10-12T10:43:15Z</time>
      </trkpt>
      <trkpt lat="43.38235" lon="6.63868">
        <ele>105.4</ele>
        <time>2012-10-12T10:43:23Z</time>
      </trkpt>
      <trkpt lat="43.38213" lon="6.63849">
        <ele>106.84</ele>
        <time>2012-10-12T10:43:33Z</time>
      </trkpt>
      <trkpt lat="43.38209" lon="6.63846">
        <ele>107.81</ele>
        <time>2012-10-12T10:43:35Z</time>
      </trkpt>
      <trkpt lat="43.38202" lon="6.63843">
        <ele>109.25</ele>
        <time>2012-10-12T10:43:38Z</time>
      </trkpt>
      <trkpt lat="43.38187" lon="6.63828">
        <ele>111.17</ele>
        <time>2012-10-12T10:43:47Z</time>
      </trkpt>
      <trkpt lat="43.38179" lon="6.63824">
        <ele>112.13</ele>
        <time>2012-10-12T10:43:51Z</time>
      </trkpt>
      <trkpt lat="43.38159" lon="6.63817">
        <ele>112.13</ele>
        <time>2012-10-12T10:44:03Z</time>
      </trkpt>
      <trkpt lat="43.38141" lon="6.63809">
        <ele>114.05</ele>
        <time>2012-10-12T10:44:14Z</time>
      </trkpt>
      <trkpt lat="43.38122" lon="6.63805">
        <ele>116.46</ele>
        <time>2012-10-12T10:44:23Z</time>
      </trkpt>
      <trkpt lat="43.38102" lon="6.63799">
        <ele>118.86</ele>
        <time>2012-10-12T10:44:33Z</time>
      </trkpt>
      <trkpt lat="43.38084" lon="6.63791">
        <ele>120.3</ele>
        <time>2012-10-12T10:44:43Z</time>
      </trkpt>
      <trkpt lat="43.38064" lon="6.63779">
        <ele>123.19</ele>
        <time>2012-10-12T10:44:55Z</time>
      </trkpt>
      <trkpt lat="43.38054" lon="6.63777">
        <ele>124.63</ele>
        <time>2012-10-12T10:45:02Z</time>
      </trkpt>
      <trkpt lat="43.38034" lon="6.63772">
        <ele>126.07</ele>
        <time>2012-10-12T10:45:12Z</time>
      </trkpt>
      <trkpt lat="43.38015" lon="6.63764">
        <ele>127.99</ele>
        <time>2012-10-12T10:45:22Z</time>
      </trkpt>
      <trkpt lat="43.37998" lon="6.63756">
        <ele>129.43</ele>
        <time>2012-10-12T10:45:32Z</time>
      </trkpt>
      <trkpt lat="43.37977" lon="6.63756">
        <ele>131.36</ele>
        <time>2012-10-12T10:45:42Z</time>
      </trkpt>
      <trkpt lat="43.37958" lon="6.63758">
        <ele>132.8</ele>
        <time>2012-10-12T10:45:53Z</time>
      </trkpt>
      <trkpt lat="43.37937" lon="6.63762">
        <ele>134.72</ele>
        <time>2012-10-12T10:46:04Z</time>
      </trkpt>
      <trkpt lat="43.37917" lon="6.63765">
        <ele>136.16</ele>
        <time>2012-10-12T10:46:14Z</time>
      </trkpt>
      <trkpt lat="43.37894" lon="6.63767">
        <ele>138.57</ele>
        <time>2012-10-12T10:46:25Z</time>
      </trkpt>
      <trkpt lat="43.37872" lon="6.63767">
        <ele>138.09</ele>
        <time>2012-10-12T10:46:34Z</time>
      </trkpt>
      <trkpt lat="43.37854" lon="6.63761">
        <ele>140.97</ele>
        <time>2012-10-12T10:46:43Z</time>
      </trkpt>
      <trkpt lat="43.37833" lon="6.6376">
        <ele>143.37</ele>
        <time>2012-10-12T10:46:53Z</time>
      </trkpt>
      <trkpt lat="43.37809" lon="6.63759">
        <ele>144.82</ele>
        <time>2012-10-12T10:47:04Z</time>
      </trkpt>
      <trkpt lat="43.37799" lon="6.63754">
        <ele>145.78</ele>
        <time>2012-10-12T10:47:09Z</time>
      </trkpt>
      <trkpt lat="43.37793" lon="6.63749">
        <ele>146.74</ele>
        <time>2012-10-12T10:47:13Z</time>
      </trkpt>
      <trkpt lat="43.37767" lon="6.63749">
        <ele>149.62</ele>
        <time>2012-10-12T10:47:26Z</time>
      </trkpt>
      <trkpt lat="43.37765" lon="6.63749">
        <ele>149.14</ele>
        <time>2012-10-12T10:47:27Z</time>
      </trkpt>
      <trkpt lat="43.37757" lon="6.63748">
        <ele>150.1</ele>
        <time>2012-10-12T10:47:31Z</time>
      </trkpt>
      <trkpt lat="43.37749" lon="6.63724">
        <ele>150.58</ele>
        <time>2012-10-12T10:47:41Z</time>
      </trkpt>
      <trkpt lat="43.37742" lon="6.63698">
        <ele>151.54</ele>
        <time>2012-10-12T10:47:50Z</time>
      </trkpt>
      <trkpt lat="43.37727" lon="6.63678">
        <ele>152.03</ele>
        <time>2012-10-12T10:47:57Z</time>
      </trkpt>
      <trkpt lat="43.37712" lon="6.6365">
        <ele>149.62</ele>
        <time>2012-10-12T10:48:04Z</time>
      </trkpt>
      <trkpt lat="43.37702" lon="6.63623">
        <ele>151.54</ele>
        <time>2012-10-12T10:48:10Z</time>
      </trkpt>
      <trkpt lat="43.37708" lon="6.63604">
        <ele>150.58</ele>
        <time>2012-10-12T10:48:14Z</time>
      </trkpt>
      <trkpt lat="43.37723" lon="6.63571">
        <ele>152.99</ele>
        <time>2012-10-12T10:48:23Z</time>
      </trkpt>
      <trkpt lat="43.37723" lon="6.63567">
        <ele>152.99</ele>
        <time>2012-10-12T10:48:24Z</time>
      </trkpt>
      <trkpt lat="43.37729" lon="6.63515">
        <ele>153.47</ele>
        <time>2012-10-12T10:48:35Z</time>
      </trkpt>
      <trkpt lat="43.37739" lon="6.63466">
        <ele>152.99</ele>
        <time>2012-10-12T10:48:45Z</time>
      </trkpt>
      <trkpt lat="43.37735" lon="6.63434">
        <ele>155.87</ele>
        <time>2012-10-12T10:48:54Z</time>
      </trkpt>
      <trkpt lat="43.37728" lon="6.63422">
        <ele>157.79</ele>
        <time>2012-10-12T10:48:59Z</time>
      </trkpt>
      <trkpt lat="43.37719" lon="6.63395">
        <ele>158.75</ele>
        <time>2012-10-12T10:49:10Z</time>
      </trkpt>
      <trkpt lat="43.37713" lon="6.63367">
        <ele>160.68</ele>
        <time>2012-10-12T10:49:20Z</time>
      </trkpt>
      <trkpt lat="43.37703" lon="6.63361">
        <ele>161.16</ele>
        <time>2012-10-12T10:49:25Z</time>
      </trkpt>
      <trkpt lat="43.37683" lon="6.63363">
        <ele>163.56</ele>
        <time>2012-10-12T10:49:36Z</time>
      </trkpt>
      <trkpt lat="43.3766" lon="6.63364">
        <ele>164.52</ele>
        <time>2012-10-12T10:49:47Z</time>
      </trkpt>
      <trkpt lat="43.37645" lon="6.63368">
        <ele>165.96</ele>
        <time>2012-10-12T10:49:55Z</time>
      </trkpt>
      <trkpt lat="43.37648" lon="6.63382">
        <ele>166.93</ele>
        <time>2012-10-12T10:50:02Z</time>
      </trkpt>
      <trkpt lat="43.37665" lon="6.63401">
        <ele>169.33</ele>
        <time>2012-10-12T10:50:13Z</time>
      </trkpt>
      <trkpt lat="43.37676" lon="6.63427">
        <ele>171.73</ele>
        <time>2012-10-12T10:50:23Z</time>
      </trkpt>
      <trkpt lat="43.37676" lon="6.63462">
        <ele>174.14</ele>
        <time>2012-10-12T10:50:33Z</time>
      </trkpt>
      <trkpt lat="43.37669" lon="6.63503">
        <ele>174.62</ele>
        <time>2012-10-12T10:50:45Z</time>
      </trkpt>
      <trkpt lat="43.37668" lon="6.6351">
        <ele>174.62</ele>
        <time>2012-10-12T10:50:47Z</time>
      </trkpt>
      <trkpt lat="43.3765" lon="6.63545">
        <ele>175.58</ele>
        <time>2012-10-12T10:50:58Z</time>
      </trkpt>
      <trkpt lat="43.37646" lon="6.63552">
        <ele>179.42</ele>
        <time>2012-10-12T10:51:00Z</time>
      </trkpt>
      <trkpt lat="43.37644" lon="6.63555">
        <ele>175.58</ele>
        <time>2012-10-12T10:51:01Z</time>
      </trkpt>
      <trkpt lat="43.37627" lon="6.63583">
        <ele>177.5</ele>
        <time>2012-10-12T10:51:12Z</time>
      </trkpt>
      <trkpt lat="43.37608" lon="6.63601">
        <ele>178.94</ele>
        <time>2012-10-12T10:51:22Z</time>
      </trkpt>
      <trkpt lat="43.37602" lon="6.63619">
        <ele>179.42</ele>
        <time>2012-10-12T10:51:30Z</time>
      </trkpt>
      <trkpt lat="43.37601" lon="6.63624">
        <ele>180.38</ele>
        <time>2012-10-12T10:51:33Z</time>
      </trkpt>
      <trkpt lat="43.37602" lon="6.63629">
        <ele>180.87</ele>
        <time>2012-10-12T10:51:35Z</time>
      </trkpt>
      <trkpt lat="43.37603" lon="6.63637">
        <ele>181.83</ele>
        <time>2012-10-12T10:51:39Z</time>
      </trkpt>
      <trkpt lat="43.37604" lon="6.63645">
        <ele>183.27</ele>
        <time>2012-10-12T10:51:43Z</time>
      </trkpt>
      <trkpt lat="43.37609" lon="6.63658">
        <ele>184.71</ele>
        <time>2012-10-12T10:51:49Z</time>
      </trkpt>
      <trkpt lat="43.37615" lon="6.63681">
        <ele>185.19</ele>
        <time>2012-10-12T10:52:00Z</time>
      </trkpt>
      <trkpt lat="43.37626" lon="6.63702">
        <ele>187.11</ele>
        <time>2012-10-12T10:52:11Z</time>
      </trkpt>
      <trkpt lat="43.37629" lon="6.6371">
        <ele>187.59</ele>
        <time>2012-10-12T10:52:16Z</time>
      </trkpt>
      <trkpt lat="43.37631" lon="6.63729">
        <ele>190.96</ele>
        <time>2012-10-12T10:52:27Z</time>
      </trkpt>
      <trkpt lat="43.37627" lon="6.6374">
        <ele>191.44</ele>
        <time>2012-10-12T10:52:33Z</time>
      </trkpt>
      <trkpt lat="43.37622" lon="6.63748">
        <ele>192.4</ele>
        <time>2012-10-12T10:52:38Z</time>
      </trkpt>
      <trkpt lat="43.37619" lon="6.6376">
        <ele>192.4</ele>
        <time>2012-10-12T10:52:43Z</time>
      </trkpt>
      <trkpt lat="43.37627" lon="6.63778">
        <ele>194.32</ele>
        <time>2012-10-12T10:52:54Z</time>
      </trkpt>
      <trkpt lat="43.37628" lon="6.63779">
        <ele>195.28</ele>
        <time>2012-10-12T10:52:55Z</time>
      </trkpt>
      <trkpt lat="43.37633" lon="6.63788">
        <ele>196.25</ele>
        <time>2012-10-12T10:53:01Z</time>
      </trkpt>
      <trkpt lat="43.37643" lon="6.63807">
        <ele>197.69</ele>
        <time>2012-10-12T10:53:13Z</time>
      </trkpt>
      <trkpt lat="43.37646" lon="6.63811">
        <ele>198.65</ele>
        <time>2012-10-12T10:53:16Z</time>
      </trkpt>
      <trkpt lat="43.37654" lon="6.63827">
        <ele>200.09</ele>
        <time>2012-10-12T10:53:26Z</time>
      </trkpt>
      <trkpt lat="43.37655" lon="6.63828">
        <ele>200.57</ele>
        <time>2012-10-12T10:53:27Z</time>
      </trkpt>
      <trkpt lat="43.37663" lon="6.6385">
        <ele>201.53</ele>
        <time>2012-10-12T10:53:38Z</time>
      </trkpt>
      <trkpt lat="43.37666" lon="6.63871">
        <ele>204.9</ele>
        <time>2012-10-12T10:53:50Z</time>
      </trkpt>
      <trkpt lat="43.37667" lon="6.63885">
        <ele>206.34</ele>
        <time>2012-10-12T10:53:57Z</time>
      </trkpt>
      <trkpt lat="43.37673" lon="6.63905">
        <ele>209.7</ele>
        <time>2012-10-12T10:54:09Z</time>
      </trkpt>
      <trkpt lat="43.3768" lon="6.63931">
        <ele>211.15</ele>
        <time>2012-10-12T10:54:22Z</time>
      </trkpt>
      <trkpt lat="43.37679" lon="6.63938">
        <ele>211.63</ele>
        <time>2012-10-12T10:54:25Z</time>
      </trkpt>
      <trkpt lat="43.37668" lon="6.63945">
        <ele>212.11</ele>
        <time>2012-10-12T10:54:32Z</time>
      </trkpt>
      <trkpt lat="43.37653" lon="6.63954">
        <ele>210.67</ele>
        <time>2012-10-12T10:54:38Z</time>
      </trkpt>
      <trkpt lat="43.37642" lon="6.63964">
        <ele>209.7</ele>
        <time>2012-10-12T10:54:41Z</time>
      </trkpt>
      <trkpt lat="43.37631" lon="6.63979">
        <ele>207.3</ele>
        <time>2012-10-12T10:54:44Z</time>
      </trkpt>
      <trkpt lat="43.37607" lon="6.64007">
        <ele>202.98</ele>
        <time>2012-10-12T10:54:51Z</time>
      </trkpt>
      <trkpt lat="43.37605" lon="6.64012">
        <ele>202.98</ele>
        <time>2012-10-12T10:54:52Z</time>
      </trkpt>
      <trkpt lat="43.37597" lon="6.64028">
        <ele>199.13</ele>
        <time>2012-10-12T10:54:55Z</time>
      </trkpt>
      <trkpt lat="43.376" lon="6.6404">
        <ele>197.21</ele>
        <time>2012-10-12T10:54:59Z</time>
      </trkpt>
      <trkpt lat="43.37605" lon="6.64041">
        <ele>195.77</ele>
        <time>2012-10-12T10:55:00Z</time>
      </trkpt>
      <trkpt lat="43.37617" lon="6.64044">
        <ele>194.32</ele>
        <time>2012-10-12T10:55:02Z</time>
      </trkpt>
      <trkpt lat="43.37648" lon="6.64043">
        <ele>190.96</ele>
        <time>2012-10-12T10:55:06Z</time>
      </trkpt>
      <trkpt lat="43.37674" lon="6.64054">
        <ele>187.59</ele>
        <time>2012-10-12T10:55:10Z</time>
      </trkpt>
      <trkpt lat="43.37674" lon="6.64069">
        <ele>185.19</ele>
        <time>2012-10-12T10:55:15Z</time>
      </trkpt>
      <trkpt lat="43.37646" lon="6.64095">
        <ele>180.38</ele>
        <time>2012-10-12T10:55:21Z</time>
      </trkpt>
      <trkpt lat="43.37629" lon="6.64113">
        <ele>178.46</ele>
        <time>2012-10-12T10:55:27Z</time>
      </trkpt>
      <trkpt lat="43.37634" lon="6.64117">
        <ele>177.5</ele>
        <time>2012-10-12T10:55:29Z</time>
      </trkpt>
      <trkpt lat="43.37644" lon="6.64118">
        <ele>175.1</ele>
        <time>2012-10-12T10:55:31Z</time>
      </trkpt>
      <trkpt lat="43.37666" lon="6.64121">
        <ele>172.69</ele>
        <time>2012-10-12T10:55:35Z</time>
      </trkpt>
      <trkpt lat="43.3769" lon="6.64109">
        <ele>170.29</ele>
        <time>2012-10-12T10:55:39Z</time>
      </trkpt>
      <trkpt lat="43.37695" lon="6.64107">
        <ele>169.81</ele>
        <time>2012-10-12T10:55:40Z</time>
      </trkpt>
      <trkpt lat="43.37712" lon="6.64103">
        <ele>168.37</ele>
        <time>2012-10-12T10:55:43Z</time>
      </trkpt>
      <trkpt lat="43.37717" lon="6.64102">
        <ele>168.85</ele>
        <time>2012-10-12T10:55:44Z</time>
      </trkpt>
      <trkpt lat="43.37751" lon="6.64095">
        <ele>165.48</ele>
        <time>2012-10-12T10:55:50Z</time>
      </trkpt>
      <trkpt lat="43.37757" lon="6.64093">
        <ele>165</ele>
        <time>2012-10-12T10:55:51Z</time>
      </trkpt>
      <trkpt lat="43.37788" lon="6.64092">
        <ele>161.64</ele>
        <time>2012-10-12T10:55:57Z</time>
      </trkpt>
      <trkpt lat="43.37808" lon="6.64086">
        <ele>158.75</ele>
        <time>2012-10-12T10:56:00Z</time>
      </trkpt>
      <trkpt lat="43.37834" lon="6.64082">
        <ele>158.27</ele>
        <time>2012-10-12T10:56:04Z</time>
      </trkpt>
      <trkpt lat="43.37853" lon="6.64074">
        <ele>156.83</ele>
        <time>2012-10-12T10:56:07Z</time>
      </trkpt>
      <trkpt lat="43.37881" lon="6.64083">
        <ele>154.43</ele>
        <time>2012-10-12T10:56:13Z</time>
      </trkpt>
      <trkpt lat="43.37898" lon="6.64085">
        <ele>152.03</ele>
        <time>2012-10-12T10:56:17Z</time>
      </trkpt>
      <trkpt lat="43.37903" lon="6.64085">
        <ele>151.06</ele>
        <time>2012-10-12T10:56:18Z</time>
      </trkpt>
      <trkpt lat="43.3792" lon="6.64091">
        <ele>149.14</ele>
        <time>2012-10-12T10:56:21Z</time>
      </trkpt>
      <trkpt lat="43.37931" lon="6.64096">
        <ele>148.66</ele>
        <time>2012-10-12T10:56:23Z</time>
      </trkpt>
      <trkpt lat="43.3795" lon="6.64101">
        <ele>144.82</ele>
        <time>2012-10-12T10:56:28Z</time>
      </trkpt>
      <trkpt lat="43.37963" lon="6.64108">
        <ele>142.89</ele>
        <time>2012-10-12T10:56:30Z</time>
      </trkpt>
      <trkpt lat="43.3798" lon="6.64121">
        <ele>140.97</ele>
        <time>2012-10-12T10:56:33Z</time>
      </trkpt>
      <trkpt lat="43.37993" lon="6.64129">
        <ele>139.53</ele>
        <time>2012-10-12T10:56:35Z</time>
      </trkpt>
      <trkpt lat="43.38022" lon="6.64152">
        <ele>138.57</ele>
        <time>2012-10-12T10:56:40Z</time>
      </trkpt>
      <trkpt lat="43.38035" lon="6.64162">
        <ele>136.16</ele>
        <time>2012-10-12T10:56:42Z</time>
      </trkpt>
      <trkpt lat="43.38045" lon="6.64173">
        <ele>136.16</ele>
        <time>2012-10-12T10:56:44Z</time>
      </trkpt>
      <trkpt lat="43.38058" lon="6.64195">
        <ele>133.28</ele>
        <time>2012-10-12T10:56:49Z</time>
      </trkpt>
      <trkpt lat="43.38061" lon="6.6421">
        <ele>131.36</ele>
        <time>2012-10-12T10:56:52Z</time>
      </trkpt>
      <trkpt lat="43.38064" lon="6.64239">
        <ele>127.51</ele>
        <time>2012-10-12T10:56:59Z</time>
      </trkpt>
      <trkpt lat="43.38064" lon="6.64257">
        <ele>124.63</ele>
        <time>2012-10-12T10:57:07Z</time>
      </trkpt>
      <trkpt lat="43.38064" lon="6.6426">
        <ele>124.63</ele>
        <time>2012-10-12T10:57:08Z</time>
      </trkpt>
      <trkpt lat="43.38065" lon="6.64263">
        <ele>124.15</ele>
        <time>2012-10-12T10:57:10Z</time>
      </trkpt>
      <trkpt lat="43.38072" lon="6.64275">
        <ele>123.19</ele>
        <time>2012-10-12T10:57:18Z</time>
      </trkpt>
      <trkpt lat="43.38083" lon="6.64279">
        <ele>122.22</ele>
        <time>2012-10-12T10:57:29Z</time>
      </trkpt>
      <trkpt lat="43.38096" lon="6.6428">
        <ele>121.26</ele>
        <time>2012-10-12T10:57:37Z</time>
      </trkpt>
      <trkpt lat="43.38117" lon="6.64265">
        <ele>117.42</ele>
        <time>2012-10-12T10:57:46Z</time>
      </trkpt>
      <trkpt lat="43.38124" lon="6.64264">
        <ele>116.94</ele>
        <time>2012-10-12T10:57:48Z</time>
      </trkpt>
      <trkpt lat="43.38133" lon="6.64266">
        <ele>115.5</ele>
        <time>2012-10-12T10:57:51Z</time>
      </trkpt>
      <trkpt lat="43.3816" lon="6.64254">
        <ele>111.65</ele>
        <time>2012-10-12T10:57:57Z</time>
      </trkpt>
      <trkpt lat="43.38168" lon="6.64249">
        <ele>111.65</ele>
        <time>2012-10-12T10:57:59Z</time>
      </trkpt>
      <trkpt lat="43.38187" lon="6.64236">
        <ele>107.32</ele>
        <time>2012-10-12T10:58:06Z</time>
      </trkpt>
      <trkpt lat="43.3819" lon="6.64231">
        <ele>107.32</ele>
        <time>2012-10-12T10:58:07Z</time>
      </trkpt>
      <trkpt lat="43.38193" lon="6.64227">
        <ele>106.84</ele>
        <time>2012-10-12T10:58:08Z</time>
      </trkpt>
      <trkpt lat="43.38201" lon="6.64222">
        <ele>104.92</ele>
        <time>2012-10-12T10:58:10Z</time>
      </trkpt>
      <trkpt lat="43.38221" lon="6.64241">
        <ele>102.52</ele>
        <time>2012-10-12T10:58:15Z</time>
      </trkpt>
      <trkpt lat="43.38221" lon="6.6428">
        <ele>100.11</ele>
        <time>2012-10-12T10:58:20Z</time>
      </trkpt>
      <trkpt lat="43.38224" lon="6.64298">
        <ele>99.63</ele>
        <time>2012-10-12T10:58:24Z</time>
      </trkpt>
      <trkpt lat="43.38221" lon="6.64312">
        <ele>99.63</ele>
        <time>2012-10-12T10:58:27Z</time>
      </trkpt>
      <trkpt lat="43.38207" lon="6.64328">
        <ele>97.23</ele>
        <time>2012-10-12T10:58:31Z</time>
      </trkpt>
      <trkpt lat="43.38166" lon="6.64357">
        <ele>94.35</ele>
        <time>2012-10-12T10:58:38Z</time>
      </trkpt>
      <trkpt lat="43.38161" lon="6.64363">
        <ele>92.9</ele>
        <time>2012-10-12T10:58:39Z</time>
      </trkpt>
      <trkpt lat="43.38151" lon="6.64378">
        <ele>91.46</ele>
        <time>2012-10-12T10:58:41Z</time>
      </trkpt>
      <trkpt lat="43.3813" lon="6.64424">
        <ele>89.06</ele>
        <time>2012-10-12T10:58:46Z</time>
      </trkpt>
      <trkpt lat="43.38114" lon="6.64439">
        <ele>88.1</ele>
        <time>2012-10-12T10:58:49Z</time>
      </trkpt>
      <trkpt lat="43.38108" lon="6.64438">
        <ele>86.66</ele>
        <time>2012-10-12T10:58:50Z</time>
      </trkpt>
      <trkpt lat="43.38102" lon="6.64436">
        <ele>85.69</ele>
        <time>2012-10-12T10:58:51Z</time>
      </trkpt>
      <trkpt lat="43.38097" lon="6.64432">
        <ele>85.21</ele>
        <time>2012-10-12T10:58:52Z</time>
      </trkpt>
      <trkpt lat="43.38091" lon="6.64428">
        <ele>85.69</ele>
        <time>2012-10-12T10:58:53Z</time>
      </trkpt>
      <trkpt lat="43.38085" lon="6.64424">
        <ele>84.73</ele>
        <time>2012-10-12T10:58:54Z</time>
      </trkpt>
      <trkpt lat="43.38079" lon="6.64421">
        <ele>84.73</ele>
        <time>2012-10-12T10:58:55Z</time>
      </trkpt>
      <trkpt lat="43.38072" lon="6.6442">
        <ele>85.21</ele>
        <time>2012-10-12T10:58:56Z</time>
      </trkpt>
      <trkpt lat="43.38065" lon="6.6442">
        <ele>85.21</ele>
        <time>2012-10-12T10:58:57Z</time>
      </trkpt>
      <trkpt lat="43.38059" lon="6.64421">
        <ele>85.21</ele>
        <time>2012-10-12T10:58:58Z</time>
      </trkpt>
      <trkpt lat="43.38053" lon="6.64425">
        <ele>84.25</ele>
        <time>2012-10-12T10:58:59Z</time>
      </trkpt>
      <trkpt lat="43.38047" lon="6.6443">
        <ele>84.73</ele>
        <time>2012-10-12T10:59:00Z</time>
      </trkpt>
      <trkpt lat="43.38042" lon="6.64435">
        <ele>84.25</ele>
        <time>2012-10-12T10:59:01Z</time>
      </trkpt>
      <trkpt lat="43.38031" lon="6.64447">
        <ele>84.25</ele>
        <time>2012-10-12T10:59:03Z</time>
      </trkpt>
      <trkpt lat="43.38025" lon="6.64451">
        <ele>84.25</ele>
        <time>2012-10-12T10:59:04Z</time>
      </trkpt>
      <trkpt lat="43.38019" lon="6.64453">
        <ele>84.73</ele>
        <time>2012-10-12T10:59:05Z</time>
      </trkpt>
      <trkpt lat="43.38013" lon="6.64453">
        <ele>85.21</ele>
        <time>2012-10-12T10:59:06Z</time>
      </trkpt>
      <trkpt lat="43.38006" lon="6.64452">
        <ele>85.69</ele>
        <time>2012-10-12T10:59:07Z</time>
      </trkpt>
      <trkpt lat="43.38" lon="6.6445">
        <ele>85.69</ele>
        <time>2012-10-12T10:59:08Z</time>
      </trkpt>
      <trkpt lat="43.37943" lon="6.64442">
        <ele>84.25</ele>
        <time>2012-10-12T10:59:17Z</time>
      </trkpt>
      <trkpt lat="43.37889" lon="6.64449">
        <ele>84.73</ele>
        <time>2012-10-12T10:59:27Z</time>
      </trkpt>
      <trkpt lat="43.3788" lon="6.64451">
        <ele>85.21</ele>
        <time>2012-10-12T10:59:29Z</time>
      </trkpt>
      <trkpt lat="43.37852" lon="6.64469">
        <ele>85.69</ele>
        <time>2012-10-12T10:59:37Z</time>
      </trkpt>
      <trkpt lat="43.37845" lon="6.64474">
        <ele>85.69</ele>
        <time>2012-10-12T10:59:39Z</time>
      </trkpt>
      <trkpt lat="43.37834" lon="6.64483">
        <ele>86.18</ele>
        <time>2012-10-12T10:59:42Z</time>
      </trkpt>
      <trkpt lat="43.37797" lon="6.64507">
        <ele>87.14</ele>
        <time>2012-10-12T10:59:53Z</time>
      </trkpt>
      <trkpt lat="43.37768" lon="6.6452">
        <ele>87.62</ele>
        <time>2012-10-12T11:00:01Z</time>
      </trkpt>
      <trkpt lat="43.37755" lon="6.6454">
        <ele>89.54</ele>
        <time>2012-10-12T11:00:08Z</time>
      </trkpt>
      <trkpt lat="43.37749" lon="6.64558">
        <ele>92.42</ele>
        <time>2012-10-12T11:00:16Z</time>
      </trkpt>
      <trkpt lat="43.37736" lon="6.64578">
        <ele>92.9</ele>
        <time>2012-10-12T11:00:25Z</time>
      </trkpt>
      <trkpt lat="43.37713" lon="6.64592">
        <ele>93.39</ele>
        <time>2012-10-12T11:00:34Z</time>
      </trkpt>
      <trkpt lat="43.37675" lon="6.64598">
        <ele>93.87</ele>
        <time>2012-10-12T11:00:46Z</time>
      </trkpt>
      <trkpt lat="43.37656" lon="6.64586">
        <ele>95.31</ele>
        <time>2012-10-12T11:00:54Z</time>
      </trkpt>
      <trkpt lat="43.37638" lon="6.64577">
        <ele>95.79</ele>
        <time>2012-10-12T11:01:00Z</time>
      </trkpt>
      <trkpt lat="43.37618" lon="6.64577">
        <ele>95.31</ele>
        <time>2012-10-12T11:01:05Z</time>
      </trkpt>
      <trkpt lat="43.3757" lon="6.64595">
        <ele>94.83</ele>
        <time>2012-10-12T11:01:17Z</time>
      </trkpt>
      <trkpt lat="43.37536" lon="6.64623">
        <ele>94.35</ele>
        <time>2012-10-12T11:01:27Z</time>
      </trkpt>
      <trkpt lat="43.3751" lon="6.64645">
        <ele>94.35</ele>
        <time>2012-10-12T11:01:34Z</time>
      </trkpt>
      <trkpt lat="43.37478" lon="6.64673">
        <ele>97.23</ele>
        <time>2012-10-12T11:01:45Z</time>
      </trkpt>
      <trkpt lat="43.37445" lon="6.64697">
        <ele>97.23</ele>
        <time>2012-10-12T11:01:56Z</time>
      </trkpt>
      <trkpt lat="43.37417" lon="6.64721">
        <ele>97.71</ele>
        <time>2012-10-12T11:02:06Z</time>
      </trkpt>
      <trkpt lat="43.37386" lon="6.64747">
        <ele>98.19</ele>
        <time>2012-10-12T11:02:16Z</time>
      </trkpt>
      <trkpt lat="43.37372" lon="6.64761">
        <ele>98.19</ele>
        <time>2012-10-12T11:02:20Z</time>
      </trkpt>
      <trkpt lat="43.37368" lon="6.64763">
        <ele>98.19</ele>
        <time>2012-10-12T11:02:21Z</time>
      </trkpt>
      <trkpt lat="43.37364" lon="6.64765">
        <ele>98.67</ele>
        <time>2012-10-12T11:02:22Z</time>
      </trkpt>
      <trkpt lat="43.37359" lon="6.64766">
        <ele>98.67</ele>
        <time>2012-10-12T11:02:23Z</time>
      </trkpt>
      <trkpt lat="43.37355" lon="6.64766">
        <ele>98.67</ele>
        <time>2012-10-12T11:02:24Z</time>
      </trkpt>
      <trkpt lat="43.37351" lon="6.64766">
        <ele>98.67</ele>
        <time>2012-10-12T11:02:25Z</time>
      </trkpt>
      <trkpt lat="43.37347" lon="6.64766">
        <ele>98.67</ele>
        <time>2012-10-12T11:02:26Z</time>
      </trkpt>
      <trkpt lat="43.37343" lon="6.64766">
        <ele>98.67</ele>
        <time>2012-10-12T11:02:27Z</time>
      </trkpt>
      <trkpt lat="43.37307" lon="6.64768">
        <ele>99.15</ele>
        <time>2012-10-12T11:02:36Z</time>
      </trkpt>
      <trkpt lat="43.37303" lon="6.64767">
        <ele>98.67</ele>
        <time>2012-10-12T11:02:37Z</time>
      </trkpt>
      <trkpt lat="43.37295" lon="6.64767">
        <ele>98.19</ele>
        <time>2012-10-12T11:02:39Z</time>
      </trkpt>
      <trkpt lat="43.3729" lon="6.64767">
        <ele>97.23</ele>
        <time>2012-10-12T11:02:40Z</time>
      </trkpt>
      <trkpt lat="43.37285" lon="6.64768">
        <ele>97.23</ele>
        <time>2012-10-12T11:02:41Z</time>
      </trkpt>
      <trkpt lat="43.37282" lon="6.64768">
        <ele>97.23</ele>
        <time>2012-10-12T11:02:42Z</time>
      </trkpt>
      <trkpt lat="43.37278" lon="6.64766">
        <ele>97.71</ele>
        <time>2012-10-12T11:02:43Z</time>
      </trkpt>
      <trkpt lat="43.37276" lon="6.64764">
        <ele>97.71</ele>
        <time>2012-10-12T11:02:44Z</time>
      </trkpt>
      <trkpt lat="43.37274" lon="6.64762">
        <ele>98.19</ele>
        <time>2012-10-12T11:02:45Z</time>
      </trkpt>
      <trkpt lat="43.37254" lon="6.64736">
        <ele>99.63</ele>
        <time>2012-10-12T11:02:54Z</time>
      </trkpt>
      <trkpt lat="43.37229" lon="6.64698">
        <ele>101.08</ele>
        <time>2012-10-12T11:03:04Z</time>
      </trkpt>
      <trkpt lat="43.37226" lon="6.64696">
        <ele>100.6</ele>
        <time>2012-10-12T11:03:05Z</time>
      </trkpt>
      <trkpt lat="43.37222" lon="6.64694">
        <ele>100.6</ele>
        <time>2012-10-12T11:03:06Z</time>
      </trkpt>
      <trkpt lat="43.37219" lon="6.64694">
        <ele>101.08</ele>
        <time>2012-10-12T11:03:07Z</time>
      </trkpt>
      <trkpt lat="43.37215" lon="6.64694">
        <ele>101.56</ele>
        <time>2012-10-12T11:03:08Z</time>
      </trkpt>
      <trkpt lat="43.37211" lon="6.64695">
        <ele>101.08</ele>
        <time>2012-10-12T11:03:09Z</time>
      </trkpt>
      <trkpt lat="43.37208" lon="6.64696">
        <ele>102.04</ele>
        <time>2012-10-12T11:03:10Z</time>
      </trkpt>
      <trkpt lat="43.37204" lon="6.64698">
        <ele>102.04</ele>
        <time>2012-10-12T11:03:11Z</time>
      </trkpt>
      <trkpt lat="43.37201" lon="6.64699">
        <ele>102.52</ele>
        <time>2012-10-12T11:03:12Z</time>
      </trkpt>
      <trkpt lat="43.37197" lon="6.64699">
        <ele>102.52</ele>
        <time>2012-10-12T11:03:13Z</time>
      </trkpt>
      <trkpt lat="43.37172" lon="6.6471">
        <ele>103.96</ele>
        <time>2012-10-12T11:03:21Z</time>
      </trkpt>
      <trkpt lat="43.37148" lon="6.64721">
        <ele>104.92</ele>
        <time>2012-10-12T11:03:29Z</time>
      </trkpt>
      <trkpt lat="43.37141" lon="6.64724">
        <ele>104.44</ele>
        <time>2012-10-12T11:03:31Z</time>
      </trkpt>
      <trkpt lat="43.3712" lon="6.64732">
        <ele>104.44</ele>
        <time>2012-10-12T11:03:36Z</time>
      </trkpt>
      <trkpt lat="43.37117" lon="6.64733">
        <ele>104.92</ele>
        <time>2012-10-12T11:03:37Z</time>
      </trkpt>
      <trkpt lat="43.37078" lon="6.64758">
        <ele>104.92</ele>
        <time>2012-10-12T11:03:48Z</time>
      </trkpt>
      <trkpt lat="43.37035" lon="6.64775">
        <ele>106.36</ele>
        <time>2012-10-12T11:04:00Z</time>
      </trkpt>
      <trkpt lat="43.36995" lon="6.64766">
        <ele>106.84</ele>
        <time>2012-10-12T11:04:11Z</time>
      </trkpt>
      <trkpt lat="43.36963" lon="6.64757">
        <ele>107.81</ele>
        <time>2012-10-12T11:04:20Z</time>
      </trkpt>
      <trkpt lat="43.36935" lon="6.6476">
        <ele>107.81</ele>
        <time>2012-10-12T11:04:28Z</time>
      </trkpt>
      <trkpt lat="43.3691" lon="6.64776">
        <ele>109.25</ele>
        <time>2012-10-12T11:04:37Z</time>
      </trkpt>
      <trkpt lat="43.36907" lon="6.64777">
        <ele>109.73</ele>
        <time>2012-10-12T11:04:38Z</time>
      </trkpt>
      <trkpt lat="43.36904" lon="6.64778">
        <ele>109.73</ele>
        <time>2012-10-12T11:04:39Z</time>
      </trkpt>
      <trkpt lat="43.36902" lon="6.6478">
        <ele>110.21</ele>
        <time>2012-10-12T11:04:40Z</time>
      </trkpt>
      <trkpt lat="43.369" lon="6.64781">
        <ele>109.73</ele>
        <time>2012-10-12T11:04:41Z</time>
      </trkpt>
      <trkpt lat="43.36884" lon="6.64796">
        <ele>110.69</ele>
        <time>2012-10-12T11:04:49Z</time>
      </trkpt>
      <trkpt lat="43.36877" lon="6.64808">
        <ele>110.69</ele>
        <time>2012-10-12T11:04:57Z</time>
      </trkpt>
      <trkpt lat="43.36873" lon="6.64817">
        <ele>110.69</ele>
        <time>2012-10-12T11:05:05Z</time>
      </trkpt>
      <trkpt lat="43.36873" lon="6.64819">
        <ele>110.69</ele>
        <time>2012-10-12T11:05:06Z</time>
      </trkpt>
      <trkpt lat="43.36873" lon="6.6482">
        <ele>110.69</ele>
        <time>2012-10-12T11:05:07Z</time>
      </trkpt>
      <trkpt lat="43.36873" lon="6.64822">
        <ele>111.17</ele>
        <time>2012-10-12T11:05:08Z</time>
      </trkpt>
      <trkpt lat="43.36873" lon="6.64823">
        <ele>111.17</ele>
        <time>2012-10-12T11:05:09Z</time>
      </trkpt>
      <trkpt lat="43.36872" lon="6.64825">
        <ele>110.69</ele>
        <time>2012-10-12T11:05:10Z</time>
      </trkpt>
      <trkpt lat="43.36872" lon="6.64837">
        <ele>111.65</ele>
        <time>2012-10-12T11:05:18Z</time>
      </trkpt>
      <trkpt lat="43.3687" lon="6.64845">
        <ele>111.65</ele>
        <time>2012-10-12T11:05:25Z</time>
      </trkpt>
      <trkpt lat="43.3687" lon="6.64846">
        <ele>111.65</ele>
        <time>2012-10-12T11:05:26Z</time>
      </trkpt>
      <trkpt lat="43.36869" lon="6.64848">
        <ele>112.13</ele>
        <time>2012-10-12T11:05:27Z</time>
      </trkpt>
      <trkpt lat="43.36867" lon="6.64854">
        <ele>112.61</ele>
        <time>2012-10-12T11:05:32Z</time>
      </trkpt>
      <trkpt lat="43.36866" lon="6.64855">
        <ele>112.61</ele>
        <time>2012-10-12T11:05:33Z</time>
      </trkpt>
      <trkpt lat="43.36858" lon="6.64862">
        <ele>113.57</ele>
        <time>2012-10-12T11:05:43Z</time>
      </trkpt>
      <trkpt lat="43.36829" lon="6.64866">
        <ele>113.09</ele>
        <time>2012-10-12T11:05:52Z</time>
      </trkpt>
      <trkpt lat="43.36797" lon="6.64875">
        <ele>114.05</ele>
        <time>2012-10-12T11:06:01Z</time>
      </trkpt>
      <trkpt lat="43.36762" lon="6.64878">
        <ele>115.5</ele>
        <time>2012-10-12T11:06:11Z</time>
      </trkpt>
      <trkpt lat="43.36724" lon="6.64881">
        <ele>115.5</ele>
        <time>2012-10-12T11:06:21Z</time>
      </trkpt>
      <trkpt lat="43.36704" lon="6.64889">
        <ele>116.46</ele>
        <time>2012-10-12T11:06:28Z</time>
      </trkpt>
      <trkpt lat="43.36678" lon="6.64901">
        <ele>117.42</ele>
        <time>2012-10-12T11:06:39Z</time>
      </trkpt>
      <trkpt lat="43.36642" lon="6.64921">
        <ele>118.86</ele>
        <time>2012-10-12T11:06:50Z</time>
      </trkpt>
      <trkpt lat="43.36597" lon="6.64949">
        <ele>119.82</ele>
        <time>2012-10-12T11:07:02Z</time>
      </trkpt>
      <trkpt lat="43.3658" lon="6.64965">
        <ele>120.78</ele>
        <time>2012-10-12T11:07:10Z</time>
      </trkpt>
      <trkpt lat="43.3657" lon="6.64975">
        <ele>122.22</ele>
        <time>2012-10-12T11:07:18Z</time>
      </trkpt>
      <trkpt lat="43.36566" lon="6.64984">
        <ele>123.19</ele>
        <time>2012-10-12T11:07:27Z</time>
      </trkpt>
      <trkpt lat="43.36566" lon="6.64992">
        <ele>123.19</ele>
        <time>2012-10-12T11:07:34Z</time>
      </trkpt>
      <trkpt lat="43.36566" lon="6.65033">
        <ele>123.67</ele>
        <time>2012-10-12T11:07:43Z</time>
      </trkpt>
      <trkpt lat="43.36571" lon="6.65076">
        <ele>124.63</ele>
        <time>2012-10-12T11:07:52Z</time>
      </trkpt>
      <trkpt lat="43.36583" lon="6.65127">
        <ele>126.07</ele>
        <time>2012-10-12T11:08:02Z</time>
      </trkpt>
      <trkpt lat="43.36588" lon="6.65165">
        <ele>127.03</ele>
        <time>2012-10-12T11:08:10Z</time>
      </trkpt>
      <trkpt lat="43.36588" lon="6.6517">
        <ele>127.03</ele>
        <time>2012-10-12T11:08:11Z</time>
      </trkpt>
      <trkpt lat="43.36587" lon="6.65174">
        <ele>127.51</ele>
        <time>2012-10-12T11:08:12Z</time>
      </trkpt>
      <trkpt lat="43.36587" lon="6.65179">
        <ele>127.99</ele>
        <time>2012-10-12T11:08:13Z</time>
      </trkpt>
      <trkpt lat="43.36588" lon="6.65184">
        <ele>127.51</ele>
        <time>2012-10-12T11:08:14Z</time>
      </trkpt>
      <trkpt lat="43.36589" lon="6.65188">
        <ele>127.99</ele>
        <time>2012-10-12T11:08:15Z</time>
      </trkpt>
      <trkpt lat="43.36587" lon="6.65227">
        <ele>127.99</ele>
        <time>2012-10-12T11:08:22Z</time>
      </trkpt>
      <trkpt lat="43.36581" lon="6.65277">
        <ele>129.43</ele>
        <time>2012-10-12T11:08:32Z</time>
      </trkpt>
      <trkpt lat="43.36587" lon="6.65314">
        <ele>131.36</ele>
        <time>2012-10-12T11:08:40Z</time>
      </trkpt>
      <trkpt lat="43.36596" lon="6.65332">
        <ele>131.84</ele>
        <time>2012-10-12T11:08:44Z</time>
      </trkpt>
      <trkpt lat="43.36596" lon="6.65337">
        <ele>131.36</ele>
        <time>2012-10-12T11:08:45Z</time>
      </trkpt>
      <trkpt lat="43.36597" lon="6.65343">
        <ele>131.36</ele>
        <time>2012-10-12T11:08:46Z</time>
      </trkpt>
      <trkpt lat="43.36596" lon="6.65348">
        <ele>131.84</ele>
        <time>2012-10-12T11:08:47Z</time>
      </trkpt>
      <trkpt lat="43.36596" lon="6.65352">
        <ele>131.84</ele>
        <time>2012-10-12T11:08:48Z</time>
      </trkpt>
      <trkpt lat="43.36595" lon="6.65356">
        <ele>131.84</ele>
        <time>2012-10-12T11:08:49Z</time>
      </trkpt>
      <trkpt lat="43.36595" lon="6.65359">
        <ele>131.84</ele>
        <time>2012-10-12T11:08:50Z</time>
      </trkpt>
      <trkpt lat="43.36596" lon="6.65364">
        <ele>131.84</ele>
        <time>2012-10-12T11:08:51Z</time>
      </trkpt>
      <trkpt lat="43.36596" lon="6.65375">
        <ele>131.84</ele>
        <time>2012-10-12T11:08:53Z</time>
      </trkpt>
      <trkpt lat="43.36599" lon="6.65425">
        <ele>133.28</ele>
        <time>2012-10-12T11:09:03Z</time>
      </trkpt>
      <trkpt lat="43.36601" lon="6.65469">
        <ele>133.76</ele>
        <time>2012-10-12T11:09:12Z</time>
      </trkpt>
      <trkpt lat="43.36608" lon="6.65488">
        <ele>134.72</ele>
        <time>2012-10-12T11:09:20Z</time>
      </trkpt>
      <trkpt lat="43.3661" lon="6.65494">
        <ele>135.2</ele>
        <time>2012-10-12T11:09:22Z</time>
      </trkpt>
      <trkpt lat="43.36611" lon="6.65496">
        <ele>135.2</ele>
        <time>2012-10-12T11:09:23Z</time>
      </trkpt>
      <trkpt lat="43.36612" lon="6.655">
        <ele>135.68</ele>
        <time>2012-10-12T11:09:24Z</time>
      </trkpt>
      <trkpt lat="43.36614" lon="6.65534">
        <ele>139.53</ele>
        <time>2012-10-12T11:09:33Z</time>
      </trkpt>
      <trkpt lat="43.36611" lon="6.65574">
        <ele>139.05</ele>
        <time>2012-10-12T11:09:43Z</time>
      </trkpt>
      <trkpt lat="43.36613" lon="6.65592">
        <ele>138.57</ele>
        <time>2012-10-12T11:09:48Z</time>
      </trkpt>
      <trkpt lat="43.36623" lon="6.65612">
        <ele>141.45</ele>
        <time>2012-10-12T11:09:58Z</time>
      </trkpt>
      <trkpt lat="43.36625" lon="6.65617">
        <ele>141.93</ele>
        <time>2012-10-12T11:10:00Z</time>
      </trkpt>
      <trkpt lat="43.36625" lon="6.6562">
        <ele>141.93</ele>
        <time>2012-10-12T11:10:01Z</time>
      </trkpt>
      <trkpt lat="43.36626" lon="6.65622">
        <ele>142.41</ele>
        <time>2012-10-12T11:10:02Z</time>
      </trkpt>
      <trkpt lat="43.36627" lon="6.65625">
        <ele>142.41</ele>
        <time>2012-10-12T11:10:03Z</time>
      </trkpt>
      <trkpt lat="43.36628" lon="6.65628">
        <ele>142.89</ele>
        <time>2012-10-12T11:10:04Z</time>
      </trkpt>
      <trkpt lat="43.36637" lon="6.65652">
        <ele>143.85</ele>
        <time>2012-10-12T11:10:14Z</time>
      </trkpt>
      <trkpt lat="43.36647" lon="6.65684">
        <ele>145.3</ele>
        <time>2012-10-12T11:10:24Z</time>
      </trkpt>
      <trkpt lat="43.36661" lon="6.65712">
        <ele>146.26</ele>
        <time>2012-10-12T11:10:33Z</time>
      </trkpt>
      <trkpt lat="43.36676" lon="6.65739">
        <ele>148.18</ele>
        <time>2012-10-12T11:10:42Z</time>
      </trkpt>
      <trkpt lat="43.36682" lon="6.65768">
        <ele>150.1</ele>
        <time>2012-10-12T11:10:52Z</time>
      </trkpt>
      <trkpt lat="43.36681" lon="6.65774">
        <ele>150.1</ele>
        <time>2012-10-12T11:10:54Z</time>
      </trkpt>
      <trkpt lat="43.3668" lon="6.65777">
        <ele>150.1</ele>
        <time>2012-10-12T11:10:55Z</time>
      </trkpt>
      <trkpt lat="43.36679" lon="6.65781">
        <ele>150.1</ele>
        <time>2012-10-12T11:10:56Z</time>
      </trkpt>
      <trkpt lat="43.36677" lon="6.65784">
        <ele>151.06</ele>
        <time>2012-10-12T11:10:57Z</time>
      </trkpt>
      <trkpt lat="43.36676" lon="6.65787">
        <ele>150.58</ele>
        <time>2012-10-12T11:10:58Z</time>
      </trkpt>
      <trkpt lat="43.3666" lon="6.65814">
        <ele>152.03</ele>
        <time>2012-10-12T11:11:08Z</time>
      </trkpt>
      <trkpt lat="43.3665" lon="6.65842">
        <ele>153.95</ele>
        <time>2012-10-12T11:11:17Z</time>
      </trkpt>
      <trkpt lat="43.36654" lon="6.65871">
        <ele>153.95</ele>
        <time>2012-10-12T11:11:24Z</time>
      </trkpt>
      <trkpt lat="43.36657" lon="6.65873">
        <ele>154.43</ele>
        <time>2012-10-12T11:11:26Z</time>
      </trkpt>
      <trkpt lat="43.36668" lon="6.65871">
        <ele>154.91</ele>
        <time>2012-10-12T11:11:31Z</time>
      </trkpt>
      <trkpt lat="43.3667" lon="6.65872">
        <ele>155.87</ele>
        <time>2012-10-12T11:11:32Z</time>
      </trkpt>
      <trkpt lat="43.36671" lon="6.65871">
        <ele>155.39</ele>
        <time>2012-10-12T11:11:33Z</time>
      </trkpt>
      <trkpt lat="43.36673" lon="6.6587">
        <ele>156.35</ele>
        <time>2012-10-12T11:11:34Z</time>
      </trkpt>
      <trkpt lat="43.36675" lon="6.6587">
        <ele>156.35</ele>
        <time>2012-10-12T11:11:35Z</time>
      </trkpt>
      <trkpt lat="43.36695" lon="6.65855">
        <ele>157.31</ele>
        <time>2012-10-12T11:11:45Z</time>
      </trkpt>
      <trkpt lat="43.36699" lon="6.65853">
        <ele>158.75</ele>
        <time>2012-10-12T11:11:47Z</time>
      </trkpt>
      <trkpt lat="43.36702" lon="6.65853">
        <ele>158.75</ele>
        <time>2012-10-12T11:11:48Z</time>
      </trkpt>
      <trkpt lat="43.36704" lon="6.65853">
        <ele>158.75</ele>
        <time>2012-10-12T11:11:49Z</time>
      </trkpt>
      <trkpt lat="43.36706" lon="6.65855">
        <ele>158.75</ele>
        <time>2012-10-12T11:11:50Z</time>
      </trkpt>
      <trkpt lat="43.36707" lon="6.65857">
        <ele>159.24</ele>
        <time>2012-10-12T11:11:51Z</time>
      </trkpt>
      <trkpt lat="43.36713" lon="6.6587">
        <ele>160.2</ele>
        <time>2012-10-12T11:11:56Z</time>
      </trkpt>
      <trkpt lat="43.36714" lon="6.65872">
        <ele>160.68</ele>
        <time>2012-10-12T11:11:57Z</time>
      </trkpt>
      <trkpt lat="43.36715" lon="6.65874">
        <ele>160.68</ele>
        <time>2012-10-12T11:11:58Z</time>
      </trkpt>
      <trkpt lat="43.36716" lon="6.65876">
        <ele>160.68</ele>
        <time>2012-10-12T11:11:59Z</time>
      </trkpt>
      <trkpt lat="43.36717" lon="6.65878">
        <ele>161.64</ele>
        <time>2012-10-12T11:12:00Z</time>
      </trkpt>
      <trkpt lat="43.36718" lon="6.6588">
        <ele>161.64</ele>
        <time>2012-10-12T11:12:01Z</time>
      </trkpt>
      <trkpt lat="43.36718" lon="6.65882">
        <ele>161.64</ele>
        <time>2012-10-12T11:12:02Z</time>
      </trkpt>
      <trkpt lat="43.36728" lon="6.65904">
        <ele>163.08</ele>
        <time>2012-10-12T11:12:14Z</time>
      </trkpt>
      <trkpt lat="43.36733" lon="6.6592">
        <ele>165</ele>
        <time>2012-10-12T11:12:21Z</time>
      </trkpt>
      <trkpt lat="43.36734" lon="6.65922">
        <ele>165</ele>
        <time>2012-10-12T11:12:22Z</time>
      </trkpt>
      <trkpt lat="43.36738" lon="6.65939">
        <ele>166.93</ele>
        <time>2012-10-12T11:12:31Z</time>
      </trkpt>
      <trkpt lat="43.36739" lon="6.65948">
        <ele>167.89</ele>
        <time>2012-10-12T11:12:36Z</time>
      </trkpt>
      <trkpt lat="43.3674" lon="6.65951">
        <ele>168.85</ele>
        <time>2012-10-12T11:12:37Z</time>
      </trkpt>
      <trkpt lat="43.3674" lon="6.65953">
        <ele>168.85</ele>
        <time>2012-10-12T11:12:38Z</time>
      </trkpt>
      <trkpt lat="43.36741" lon="6.65955">
        <ele>169.33</ele>
        <time>2012-10-12T11:12:39Z</time>
      </trkpt>
      <trkpt lat="43.36742" lon="6.65957">
        <ele>169.33</ele>
        <time>2012-10-12T11:12:40Z</time>
      </trkpt>
      <trkpt lat="43.36742" lon="6.65959">
        <ele>169.33</ele>
        <time>2012-10-12T11:12:41Z</time>
      </trkpt>
      <trkpt lat="43.36743" lon="6.65962">
        <ele>169.81</ele>
        <time>2012-10-12T11:12:42Z</time>
      </trkpt>
      <trkpt lat="43.36743" lon="6.65964">
        <ele>169.81</ele>
        <time>2012-10-12T11:12:43Z</time>
      </trkpt>
      <trkpt lat="43.36744" lon="6.65966">
        <ele>170.29</ele>
        <time>2012-10-12T11:12:44Z</time>
      </trkpt>
      <trkpt lat="43.36744" lon="6.65968">
        <ele>170.29</ele>
        <time>2012-10-12T11:12:45Z</time>
      </trkpt>
      <trkpt lat="43.36744" lon="6.65971">
        <ele>170.29</ele>
        <time>2012-10-12T11:12:46Z</time>
      </trkpt>
      <trkpt lat="43.36745" lon="6.65973">
        <ele>170.29</ele>
        <time>2012-10-12T11:12:47Z</time>
      </trkpt>
      <trkpt lat="43.36745" lon="6.65976">
        <ele>170.29</ele>
        <time>2012-10-12T11:12:48Z</time>
      </trkpt>
      <trkpt lat="43.36751" lon="6.66007">
        <ele>171.25</ele>
        <time>2012-10-12T11:12:59Z</time>
      </trkpt>
      <trkpt lat="43.36752" lon="6.66013">
        <ele>171.25</ele>
        <time>2012-10-12T11:13:01Z</time>
      </trkpt>
      <trkpt lat="43.36753" lon="6.66016">
        <ele>171.25</ele>
        <time>2012-10-12T11:13:02Z</time>
      </trkpt>
      <trkpt lat="43.36754" lon="6.66018">
        <ele>171.73</ele>
        <time>2012-10-12T11:13:03Z</time>
      </trkpt>
      <trkpt lat="43.36755" lon="6.6602">
        <ele>171.73</ele>
        <time>2012-10-12T11:13:04Z</time>
      </trkpt>
      <trkpt lat="43.36755" lon="6.66022">
        <ele>172.21</ele>
        <time>2012-10-12T11:13:05Z</time>
      </trkpt>
      <trkpt lat="43.36756" lon="6.66024">
        <ele>172.21</ele>
        <time>2012-10-12T11:13:06Z</time>
      </trkpt>
      <trkpt lat="43.36757" lon="6.66026">
        <ele>172.69</ele>
        <time>2012-10-12T11:13:07Z</time>
      </trkpt>
      <trkpt lat="43.36758" lon="6.66028">
        <ele>172.69</ele>
        <time>2012-10-12T11:13:08Z</time>
      </trkpt>
      <trkpt lat="43.36759" lon="6.66031">
        <ele>173.17</ele>
        <time>2012-10-12T11:13:09Z</time>
      </trkpt>
      <trkpt lat="43.36759" lon="6.66033">
        <ele>173.66</ele>
        <time>2012-10-12T11:13:10Z</time>
      </trkpt>
      <trkpt lat="43.36759" lon="6.66036">
        <ele>173.66</ele>
        <time>2012-10-12T11:13:11Z</time>
      </trkpt>
      <trkpt lat="43.3676" lon="6.66039">
        <ele>174.14</ele>
        <time>2012-10-12T11:13:12Z</time>
      </trkpt>
      <trkpt lat="43.3676" lon="6.66041">
        <ele>174.14</ele>
        <time>2012-10-12T11:13:13Z</time>
      </trkpt>
      <trkpt lat="43.3676" lon="6.66044">
        <ele>174.62</ele>
        <time>2012-10-12T11:13:14Z</time>
      </trkpt>
      <trkpt lat="43.3676" lon="6.66047">
        <ele>174.62</ele>
        <time>2012-10-12T11:13:15Z</time>
      </trkpt>
      <trkpt lat="43.3676" lon="6.66049">
        <ele>174.62</ele>
        <time>2012-10-12T11:13:16Z</time>
      </trkpt>
      <trkpt lat="43.3676" lon="6.66052">
        <ele>174.62</ele>
        <time>2012-10-12T11:13:17Z</time>
      </trkpt>
      <trkpt lat="43.36761" lon="6.66055">
        <ele>175.58</ele>
        <time>2012-10-12T11:13:18Z</time>
      </trkpt>
      <trkpt lat="43.36761" lon="6.66058">
        <ele>175.1</ele>
        <time>2012-10-12T11:13:19Z</time>
      </trkpt>
      <trkpt lat="43.3676" lon="6.66061">
        <ele>175.58</ele>
        <time>2012-10-12T11:13:20Z</time>
      </trkpt>
      <trkpt lat="43.3676" lon="6.66063">
        <ele>176.06</ele>
        <time>2012-10-12T11:13:21Z</time>
      </trkpt>
      <trkpt lat="43.36759" lon="6.66065">
        <ele>176.06</ele>
        <time>2012-10-12T11:13:22Z</time>
      </trkpt>
      <trkpt lat="43.36759" lon="6.66067">
        <ele>176.06</ele>
        <time>2012-10-12T11:13:23Z</time>
      </trkpt>
      <trkpt lat="43.36758" lon="6.66069">
        <ele>176.06</ele>
        <time>2012-10-12T11:13:24Z</time>
      </trkpt>
      <trkpt lat="43.36758" lon="6.66071">
        <ele>176.06</ele>
        <time>2012-10-12T11:13:25Z</time>
      </trkpt>
      <trkpt lat="43.36758" lon="6.66089">
        <ele>177.02</ele>
        <time>2012-10-12T11:13:33Z</time>
      </trkpt>
      <trkpt lat="43.3676" lon="6.66114">
        <ele>178.94</ele>
        <time>2012-10-12T11:13:43Z</time>
      </trkpt>
      <trkpt lat="43.36761" lon="6.6613">
        <ele>178.94</ele>
        <time>2012-10-12T11:13:50Z</time>
      </trkpt>
      <trkpt lat="43.3676" lon="6.66132">
        <ele>179.42</ele>
        <time>2012-10-12T11:13:51Z</time>
      </trkpt>
      <trkpt lat="43.36759" lon="6.66134">
        <ele>179.9</ele>
        <time>2012-10-12T11:13:52Z</time>
      </trkpt>
      <trkpt lat="43.36758" lon="6.66136">
        <ele>179.42</ele>
        <time>2012-10-12T11:13:53Z</time>
      </trkpt>
      <trkpt lat="43.36741" lon="6.66156">
        <ele>180.38</ele>
        <time>2012-10-12T11:14:05Z</time>
      </trkpt>
      <trkpt lat="43.36732" lon="6.66176">
        <ele>181.83</ele>
        <time>2012-10-12T11:14:14Z</time>
      </trkpt>
      <trkpt lat="43.36722" lon="6.66202">
        <ele>183.75</ele>
        <time>2012-10-12T11:14:25Z</time>
      </trkpt>
      <trkpt lat="43.36712" lon="6.66224">
        <ele>184.71</ele>
        <time>2012-10-12T11:14:36Z</time>
      </trkpt>
      <trkpt lat="43.36711" lon="6.66228">
        <ele>184.71</ele>
        <time>2012-10-12T11:14:38Z</time>
      </trkpt>
      <trkpt lat="43.36706" lon="6.66241">
        <ele>185.67</ele>
        <time>2012-10-12T11:14:46Z</time>
      </trkpt>
      <trkpt lat="43.36701" lon="6.66239">
        <ele>185.67</ele>
        <time>2012-10-12T11:14:54Z</time>
      </trkpt>
      <trkpt lat="43.36699" lon="6.66239">
        <ele>185.67</ele>
        <time>2012-10-12T11:15:14Z</time>
      </trkpt>
      <trkpt lat="43.36699" lon="6.66239">
        <ele>186.15</ele>
        <time>2012-10-12T11:15:32Z</time>
      </trkpt>
      <trkpt lat="43.36699" lon="6.66239">
        <ele>186.15</ele>
        <time>2012-10-12T11:15:47Z</time>
      </trkpt>
      <trkpt lat="43.367" lon="6.66238">
        <ele>186.15</ele>
        <time>2012-10-12T11:16:08Z</time>
      </trkpt>
      <trkpt lat="43.36699" lon="6.66238">
        <ele>185.67</ele>
        <time>2012-10-12T11:16:32Z</time>
      </trkpt>
      <trkpt lat="43.367" lon="6.66238">
        <ele>185.67</ele>
        <time>2012-10-12T11:16:54Z</time>
      </trkpt>
      <trkpt lat="43.367" lon="6.66238">
        <ele>185.67</ele>
        <time>2012-10-12T11:17:11Z</time>
      </trkpt>
      <trkpt lat="43.367" lon="6.66238">
        <ele>185.19</ele>
        <time>2012-10-12T11:17:27Z</time>
      </trkpt>
      <trkpt lat="43.36699" lon="6.66238">
        <ele>185.67</ele>
        <time>2012-10-12T11:17:45Z</time>
      </trkpt>
      <trkpt lat="43.36699" lon="6.66239">
        <ele>186.15</ele>
        <time>2012-10-12T11:18:02Z</time>
      </trkpt>
      <trkpt lat="43.367" lon="6.66238">
        <ele>186.15</ele>
        <time>2012-10-12T11:18:20Z</time>
      </trkpt>
      <trkpt lat="43.367" lon="6.66238">
        <ele>186.15</ele>
        <time>2012-10-12T11:18:38Z</time>
      </trkpt>
      <trkpt lat="43.367" lon="6.66238">
        <ele>185.67</ele>
        <time>2012-10-12T11:18:53Z</time>
      </trkpt>
      <trkpt lat="43.367" lon="6.66238">
        <ele>186.15</ele>
        <time>2012-10-12T11:19:10Z</time>
      </trkpt>
      <trkpt lat="43.367" lon="6.66238">
        <ele>185.67</ele>
        <time>2012-10-12T11:19:27Z</time>
      </trkpt>
      <trkpt lat="43.36699" lon="6.66239">
        <ele>185.67</ele>
        <time>2012-10-12T11:19:38Z</time>
      </trkpt>
      <trkpt lat="43.36699" lon="6.6624">
        <ele>186.15</ele>
        <time>2012-10-12T11:19:41Z</time>
      </trkpt>
      <trkpt lat="43.36699" lon="6.66242">
        <ele>185.67</ele>
        <time>2012-10-12T11:19:42Z</time>
      </trkpt>
      <trkpt lat="43.36699" lon="6.66244">
        <ele>185.67</ele>
        <time>2012-10-12T11:19:43Z</time>
      </trkpt>
      <trkpt lat="43.36698" lon="6.66245">
        <ele>186.15</ele>
        <time>2012-10-12T11:19:44Z</time>
      </trkpt>
      <trkpt lat="43.36697" lon="6.66246">
        <ele>186.15</ele>
        <time>2012-10-12T11:19:45Z</time>
      </trkpt>
      <trkpt lat="43.36696" lon="6.66247">
        <ele>186.15</ele>
        <time>2012-10-12T11:19:46Z</time>
      </trkpt>
      <trkpt lat="43.36695" lon="6.66249">
        <ele>186.15</ele>
        <time>2012-10-12T11:19:47Z</time>
      </trkpt>
      <trkpt lat="43.36695" lon="6.6625">
        <ele>186.15</ele>
        <time>2012-10-12T11:19:48Z</time>
      </trkpt>
      <trkpt lat="43.36694" lon="6.66253">
        <ele>185.67</ele>
        <time>2012-10-12T11:19:49Z</time>
      </trkpt>
      <trkpt lat="43.36693" lon="6.66263">
        <ele>185.19</ele>
        <time>2012-10-12T11:19:52Z</time>
      </trkpt>
      <trkpt lat="43.36692" lon="6.66267">
        <ele>184.71</ele>
        <time>2012-10-12T11:19:53Z</time>
      </trkpt>
      <trkpt lat="43.36691" lon="6.6627">
        <ele>184.71</ele>
        <time>2012-10-12T11:19:54Z</time>
      </trkpt>
      <trkpt lat="43.36691" lon="6.66273">
        <ele>184.23</ele>
        <time>2012-10-12T11:19:55Z</time>
      </trkpt>
      <trkpt lat="43.36691" lon="6.66275">
        <ele>183.75</ele>
        <time>2012-10-12T11:19:56Z</time>
      </trkpt>
      <trkpt lat="43.36691" lon="6.66279">
        <ele>183.75</ele>
        <time>2012-10-12T11:19:58Z</time>
      </trkpt>
      <trkpt lat="43.36684" lon="6.66285">
        <ele>182.31</ele>
        <time>2012-10-12T11:20:06Z</time>
      </trkpt>
      <trkpt lat="43.36683" lon="6.66285">
        <ele>181.83</ele>
        <time>2012-10-12T11:20:07Z</time>
      </trkpt>
      <trkpt lat="43.36681" lon="6.66287">
        <ele>181.35</ele>
        <time>2012-10-12T11:20:08Z</time>
      </trkpt>
      <trkpt lat="43.36678" lon="6.66288">
        <ele>180.38</ele>
        <time>2012-10-12T11:20:09Z</time>
      </trkpt>
      <trkpt lat="43.36676" lon="6.66289">
        <ele>179.9</ele>
        <time>2012-10-12T11:20:10Z</time>
      </trkpt>
      <trkpt lat="43.36675" lon="6.66293">
        <ele>179.42</ele>
        <time>2012-10-12T11:20:11Z</time>
      </trkpt>
      <trkpt lat="43.36674" lon="6.66296">
        <ele>178.94</ele>
        <time>2012-10-12T11:20:12Z</time>
      </trkpt>
      <trkpt lat="43.36673" lon="6.663">
        <ele>178.46</ele>
        <time>2012-10-12T11:20:13Z</time>
      </trkpt>
      <trkpt lat="43.36671" lon="6.66326">
        <ele>177.5</ele>
        <time>2012-10-12T11:20:20Z</time>
      </trkpt>
      <trkpt lat="43.36672" lon="6.66339">
        <ele>176.06</ele>
        <time>2012-10-12T11:20:22Z</time>
      </trkpt>
      <trkpt lat="43.36672" lon="6.66345">
        <ele>175.58</ele>
        <time>2012-10-12T11:20:23Z</time>
      </trkpt>
      <trkpt lat="43.36672" lon="6.66359">
        <ele>174.62</ele>
        <time>2012-10-12T11:20:25Z</time>
      </trkpt>
      <trkpt lat="43.36672" lon="6.66367">
        <ele>174.62</ele>
        <time>2012-10-12T11:20:26Z</time>
      </trkpt>
      <trkpt lat="43.36675" lon="6.66394">
        <ele>174.62</ele>
        <time>2012-10-12T11:20:32Z</time>
      </trkpt>
      <trkpt lat="43.36674" lon="6.66409">
        <ele>173.17</ele>
        <time>2012-10-12T11:20:40Z</time>
      </trkpt>
      <trkpt lat="43.36674" lon="6.66415">
        <ele>172.69</ele>
        <time>2012-10-12T11:20:43Z</time>
      </trkpt>
      <trkpt lat="43.36674" lon="6.66417">
        <ele>172.69</ele>
        <time>2012-10-12T11:20:44Z</time>
      </trkpt>
      <trkpt lat="43.36675" lon="6.6642">
        <ele>172.21</ele>
        <time>2012-10-12T11:20:45Z</time>
      </trkpt>
      <trkpt lat="43.36676" lon="6.66423">
        <ele>172.21</ele>
        <time>2012-10-12T11:20:46Z</time>
      </trkpt>
      <trkpt lat="43.36677" lon="6.66426">
        <ele>171.25</ele>
        <time>2012-10-12T11:20:47Z</time>
      </trkpt>
      <trkpt lat="43.36679" lon="6.66433">
        <ele>169.81</ele>
        <time>2012-10-12T11:20:49Z</time>
      </trkpt>
      <trkpt lat="43.3668" lon="6.66436">
        <ele>169.33</ele>
        <time>2012-10-12T11:20:50Z</time>
      </trkpt>
      <trkpt lat="43.36681" lon="6.66439">
        <ele>168.85</ele>
        <time>2012-10-12T11:20:51Z</time>
      </trkpt>
      <trkpt lat="43.36682" lon="6.66441">
        <ele>168.85</ele>
        <time>2012-10-12T11:20:52Z</time>
      </trkpt>
      <trkpt lat="43.36682" lon="6.66444">
        <ele>168.37</ele>
        <time>2012-10-12T11:20:53Z</time>
      </trkpt>
      <trkpt lat="43.36681" lon="6.66446">
        <ele>167.41</ele>
        <time>2012-10-12T11:20:54Z</time>
      </trkpt>
      <trkpt lat="43.36681" lon="6.66449">
        <ele>167.41</ele>
        <time>2012-10-12T11:20:55Z</time>
      </trkpt>
      <trkpt lat="43.36681" lon="6.66452">
        <ele>166.93</ele>
        <time>2012-10-12T11:20:56Z</time>
      </trkpt>
      <trkpt lat="43.36681" lon="6.66454">
        <ele>166.45</ele>
        <time>2012-10-12T11:20:57Z</time>
      </trkpt>
      <trkpt lat="43.36682" lon="6.66461">
        <ele>165</ele>
        <time>2012-10-12T11:21:06Z</time>
      </trkpt>
      <trkpt lat="43.36683" lon="6.66464">
        <ele>164.04</ele>
        <time>2012-10-12T11:21:13Z</time>
      </trkpt>
      <trkpt lat="43.36683" lon="6.66469">
        <ele>163.08</ele>
        <time>2012-10-12T11:21:20Z</time>
      </trkpt>
      <trkpt lat="43.36686" lon="6.66483">
        <ele>160.68</ele>
        <time>2012-10-12T11:21:27Z</time>
      </trkpt>
      <trkpt lat="43.36687" lon="6.66491">
        <ele>158.75</ele>
        <time>2012-10-12T11:21:30Z</time>
      </trkpt>
      <trkpt lat="43.36687" lon="6.66493">
        <ele>157.79</ele>
        <time>2012-10-12T11:21:31Z</time>
      </trkpt>
      <trkpt lat="43.36687" lon="6.66495">
        <ele>157.79</ele>
        <time>2012-10-12T11:21:32Z</time>
      </trkpt>
      <trkpt lat="43.36687" lon="6.66497">
        <ele>157.31</ele>
        <time>2012-10-12T11:21:33Z</time>
      </trkpt>
      <trkpt lat="43.36687" lon="6.66499">
        <ele>156.83</ele>
        <time>2012-10-12T11:21:34Z</time>
      </trkpt>
      <trkpt lat="43.36689" lon="6.66515">
        <ele>154.91</ele>
        <time>2012-10-12T11:21:40Z</time>
      </trkpt>
      <trkpt lat="43.3669" lon="6.66517">
        <ele>154.43</ele>
        <time>2012-10-12T11:21:41Z</time>
      </trkpt>
      <trkpt lat="43.36693" lon="6.66533">
        <ele>151.54</ele>
        <time>2012-10-12T11:21:48Z</time>
      </trkpt>
      <trkpt lat="43.36695" lon="6.66552">
        <ele>149.62</ele>
        <time>2012-10-12T11:21:55Z</time>
      </trkpt>
      <trkpt lat="43.36704" lon="6.66582">
        <ele>146.26</ele>
        <time>2012-10-12T11:22:00Z</time>
      </trkpt>
      <trkpt lat="43.36713" lon="6.66597">
        <ele>145.3</ele>
        <time>2012-10-12T11:22:04Z</time>
      </trkpt>
      <trkpt lat="43.36714" lon="6.66601">
        <ele>144.82</ele>
        <time>2012-10-12T11:22:05Z</time>
      </trkpt>
      <trkpt lat="43.36715" lon="6.66605">
        <ele>143.85</ele>
        <time>2012-10-12T11:22:06Z</time>
      </trkpt>
      <trkpt lat="43.36716" lon="6.66608">
        <ele>142.89</ele>
        <time>2012-10-12T11:22:07Z</time>
      </trkpt>
      <trkpt lat="43.36718" lon="6.66612">
        <ele>142.89</ele>
        <time>2012-10-12T11:22:08Z</time>
      </trkpt>
      <trkpt lat="43.36719" lon="6.66616">
        <ele>142.41</ele>
        <time>2012-10-12T11:22:09Z</time>
      </trkpt>
      <trkpt lat="43.36721" lon="6.66623">
        <ele>140.97</ele>
        <time>2012-10-12T11:22:11Z</time>
      </trkpt>
      <trkpt lat="43.36721" lon="6.66626">
        <ele>140.49</ele>
        <time>2012-10-12T11:22:12Z</time>
      </trkpt>
      <trkpt lat="43.36724" lon="6.66643">
        <ele>137.13</ele>
        <time>2012-10-12T11:22:17Z</time>
      </trkpt>
      <trkpt lat="43.36727" lon="6.66664">
        <ele>132.8</ele>
        <time>2012-10-12T11:22:24Z</time>
      </trkpt>
      <trkpt lat="43.36728" lon="6.6667">
        <ele>132.32</ele>
        <time>2012-10-12T11:22:26Z</time>
      </trkpt>
      <trkpt lat="43.3673" lon="6.66686">
        <ele>130.4</ele>
        <time>2012-10-12T11:22:30Z</time>
      </trkpt>
      <trkpt lat="43.36731" lon="6.66692">
        <ele>129.43</ele>
        <time>2012-10-12T11:22:31Z</time>
      </trkpt>
      <trkpt lat="43.36731" lon="6.66718">
        <ele>127.03</ele>
        <time>2012-10-12T11:22:37Z</time>
      </trkpt>
      <trkpt lat="43.36731" lon="6.66741">
        <ele>126.07</ele>
        <time>2012-10-12T11:22:43Z</time>
      </trkpt>
      <trkpt lat="43.36731" lon="6.6676">
        <ele>125.11</ele>
        <time>2012-10-12T11:22:46Z</time>
      </trkpt>
      <trkpt lat="43.36731" lon="6.66767">
        <ele>124.63</ele>
        <time>2012-10-12T11:22:47Z</time>
      </trkpt>
      <trkpt lat="43.36731" lon="6.66774">
        <ele>124.63</ele>
        <time>2012-10-12T11:22:48Z</time>
      </trkpt>
      <trkpt lat="43.36729" lon="6.66785">
        <ele>124.63</ele>
        <time>2012-10-12T11:22:50Z</time>
      </trkpt>
      <trkpt lat="43.3673" lon="6.66792">
        <ele>123.67</ele>
        <time>2012-10-12T11:22:51Z</time>
      </trkpt>
      <trkpt lat="43.36731" lon="6.66798">
        <ele>123.19</ele>
        <time>2012-10-12T11:22:52Z</time>
      </trkpt>
      <trkpt lat="43.36732" lon="6.66828">
        <ele>121.26</ele>
        <time>2012-10-12T11:22:58Z</time>
      </trkpt>
      <trkpt lat="43.36732" lon="6.66834">
        <ele>120.78</ele>
        <time>2012-10-12T11:22:59Z</time>
      </trkpt>
      <trkpt lat="43.36733" lon="6.66839">
        <ele>120.3</ele>
        <time>2012-10-12T11:23:00Z</time>
      </trkpt>
      <trkpt lat="43.36732" lon="6.66844">
        <ele>120.3</ele>
        <time>2012-10-12T11:23:01Z</time>
      </trkpt>
      <trkpt lat="43.36731" lon="6.66848">
        <ele>119.82</ele>
        <time>2012-10-12T11:23:02Z</time>
      </trkpt>
      <trkpt lat="43.36729" lon="6.66853">
        <ele>119.34</ele>
        <time>2012-10-12T11:23:03Z</time>
      </trkpt>
      <trkpt lat="43.36724" lon="6.66863">
        <ele>118.38</ele>
        <time>2012-10-12T11:23:05Z</time>
      </trkpt>
      <trkpt lat="43.36721" lon="6.66866">
        <ele>117.42</ele>
        <time>2012-10-12T11:23:06Z</time>
      </trkpt>
      <trkpt lat="43.36717" lon="6.66867">
        <ele>116.94</ele>
        <time>2012-10-12T11:23:07Z</time>
      </trkpt>
      <trkpt lat="43.36714" lon="6.66866">
        <ele>116.46</ele>
        <time>2012-10-12T11:23:08Z</time>
      </trkpt>
      <trkpt lat="43.36711" lon="6.66865">
        <ele>115.98</ele>
        <time>2012-10-12T11:23:09Z</time>
      </trkpt>
      <trkpt lat="43.36709" lon="6.66864">
        <ele>115.98</ele>
        <time>2012-10-12T11:23:10Z</time>
      </trkpt>
      <trkpt lat="43.36706" lon="6.66864">
        <ele>115.98</ele>
        <time>2012-10-12T11:23:12Z</time>
      </trkpt>
      <trkpt lat="43.36701" lon="6.66873">
        <ele>114.53</ele>
        <time>2012-10-12T11:23:15Z</time>
      </trkpt>
      <trkpt lat="43.36701" lon="6.66876">
        <ele>114.05</ele>
        <time>2012-10-12T11:23:16Z</time>
      </trkpt>
      <trkpt lat="43.36702" lon="6.66879">
        <ele>114.53</ele>
        <time>2012-10-12T11:23:17Z</time>
      </trkpt>
      <trkpt lat="43.36702" lon="6.66881">
        <ele>114.53</ele>
        <time>2012-10-12T11:23:18Z</time>
      </trkpt>
      <trkpt lat="43.36703" lon="6.66883">
        <ele>115.5</ele>
        <time>2012-10-12T11:23:19Z</time>
      </trkpt>
      <trkpt lat="43.36703" lon="6.66885">
        <ele>115.5</ele>
        <time>2012-10-12T11:23:20Z</time>
      </trkpt>
      <trkpt lat="43.36703" lon="6.66887">
        <ele>115.5</ele>
        <time>2012-10-12T11:23:21Z</time>
      </trkpt>
      <trkpt lat="43.36703" lon="6.66889">
        <ele>116.46</ele>
        <time>2012-10-12T11:23:22Z</time>
      </trkpt>
      <trkpt lat="43.36704" lon="6.66891">
        <ele>115.98</ele>
        <time>2012-10-12T11:23:23Z</time>
      </trkpt>
      <trkpt lat="43.36706" lon="6.66896">
        <ele>116.94</ele>
        <time>2012-10-12T11:23:25Z</time>
      </trkpt>
      <trkpt lat="43.36705" lon="6.66899">
        <ele>116.46</ele>
        <time>2012-10-12T11:23:26Z</time>
      </trkpt>
      <trkpt lat="43.36709" lon="6.6693">
        <ele>119.34</ele>
        <time>2012-10-12T11:23:36Z</time>
      </trkpt>
      <trkpt lat="43.3671" lon="6.66947">
        <ele>120.78</ele>
        <time>2012-10-12T11:23:42Z</time>
      </trkpt>
      <trkpt lat="43.36711" lon="6.6695">
        <ele>120.78</ele>
        <time>2012-10-12T11:23:43Z</time>
      </trkpt>
      <trkpt lat="43.36711" lon="6.66953">
        <ele>120.78</ele>
        <time>2012-10-12T11:23:44Z</time>
      </trkpt>
      <trkpt lat="43.36711" lon="6.66956">
        <ele>120.78</ele>
        <time>2012-10-12T11:23:45Z</time>
      </trkpt>
      <trkpt lat="43.36711" lon="6.66959">
        <ele>121.26</ele>
        <time>2012-10-12T11:23:46Z</time>
      </trkpt>
      <trkpt lat="43.36711" lon="6.66962">
        <ele>121.26</ele>
        <time>2012-10-12T11:23:47Z</time>
      </trkpt>
      <trkpt lat="43.36711" lon="6.66966">
        <ele>121.74</ele>
        <time>2012-10-12T11:23:48Z</time>
      </trkpt>
      <trkpt lat="43.3671" lon="6.6697">
        <ele>121.74</ele>
        <time>2012-10-12T11:23:49Z</time>
      </trkpt>
      <trkpt lat="43.36708" lon="6.67002">
        <ele>122.71</ele>
        <time>2012-10-12T11:23:58Z</time>
      </trkpt>
      <trkpt lat="43.36699" lon="6.67037">
        <ele>122.22</ele>
        <time>2012-10-12T11:24:07Z</time>
      </trkpt>
      <trkpt lat="43.3669" lon="6.67065">
        <ele>121.26</ele>
        <time>2012-10-12T11:24:12Z</time>
      </trkpt>
      <trkpt lat="43.36689" lon="6.67071">
        <ele>120.78</ele>
        <time>2012-10-12T11:24:13Z</time>
      </trkpt>
      <trkpt lat="43.36688" lon="6.67075">
        <ele>121.74</ele>
        <time>2012-10-12T11:24:14Z</time>
      </trkpt>
      <trkpt lat="43.36687" lon="6.67081">
        <ele>121.74</ele>
        <time>2012-10-12T11:24:16Z</time>
      </trkpt>
      <trkpt lat="43.36685" lon="6.67084">
        <ele>121.26</ele>
        <time>2012-10-12T11:24:17Z</time>
      </trkpt>
      <trkpt lat="43.36684" lon="6.67088">
        <ele>120.78</ele>
        <time>2012-10-12T11:24:18Z</time>
      </trkpt>
      <trkpt lat="43.36684" lon="6.67093">
        <ele>119.82</ele>
        <time>2012-10-12T11:24:19Z</time>
      </trkpt>
      <trkpt lat="43.36685" lon="6.67097">
        <ele>119.34</ele>
        <time>2012-10-12T11:24:20Z</time>
      </trkpt>
      <trkpt lat="43.36687" lon="6.67101">
        <ele>118.86</ele>
        <time>2012-10-12T11:24:21Z</time>
      </trkpt>
      <trkpt lat="43.36688" lon="6.67106">
        <ele>118.38</ele>
        <time>2012-10-12T11:24:22Z</time>
      </trkpt>
      <trkpt lat="43.36689" lon="6.67112">
        <ele>117.42</ele>
        <time>2012-10-12T11:24:23Z</time>
      </trkpt>
      <trkpt lat="43.3669" lon="6.67116">
        <ele>117.9</ele>
        <time>2012-10-12T11:24:24Z</time>
      </trkpt>
      <trkpt lat="43.36693" lon="6.67131">
        <ele>115.5</ele>
        <time>2012-10-12T11:24:27Z</time>
      </trkpt>
      <trkpt lat="43.36694" lon="6.67137">
        <ele>114.53</ele>
        <time>2012-10-12T11:24:28Z</time>
      </trkpt>
      <trkpt lat="43.36692" lon="6.67163">
        <ele>111.65</ele>
        <time>2012-10-12T11:24:31Z</time>
      </trkpt>
      <trkpt lat="43.36692" lon="6.67183">
        <ele>111.65</ele>
        <time>2012-10-12T11:24:33Z</time>
      </trkpt>
      <trkpt lat="43.36691" lon="6.67199">
        <ele>111.65</ele>
        <time>2012-10-12T11:24:35Z</time>
      </trkpt>
      <trkpt lat="43.3669" lon="6.67204">
        <ele>112.13</ele>
        <time>2012-10-12T11:24:36Z</time>
      </trkpt>
      <trkpt lat="43.36688" lon="6.67209">
        <ele>111.65</ele>
        <time>2012-10-12T11:24:37Z</time>
      </trkpt>
      <trkpt lat="43.36685" lon="6.67213">
        <ele>110.69</ele>
        <time>2012-10-12T11:24:38Z</time>
      </trkpt>
      <trkpt lat="43.36682" lon="6.67216">
        <ele>110.69</ele>
        <time>2012-10-12T11:24:39Z</time>
      </trkpt>
      <trkpt lat="43.36679" lon="6.67217">
        <ele>110.69</ele>
        <time>2012-10-12T11:24:40Z</time>
      </trkpt>
      <trkpt lat="43.36677" lon="6.67217">
        <ele>111.65</ele>
        <time>2012-10-12T11:24:41Z</time>
      </trkpt>
      <trkpt lat="43.36675" lon="6.67217">
        <ele>111.17</ele>
        <time>2012-10-12T11:24:42Z</time>
      </trkpt>
      <trkpt lat="43.36667" lon="6.67221">
        <ele>110.69</ele>
        <time>2012-10-12T11:24:45Z</time>
      </trkpt>
      <trkpt lat="43.36665" lon="6.67225">
        <ele>109.73</ele>
        <time>2012-10-12T11:24:46Z</time>
      </trkpt>
      <trkpt lat="43.36664" lon="6.67232">
        <ele>108.77</ele>
        <time>2012-10-12T11:24:47Z</time>
      </trkpt>
      <trkpt lat="43.36663" lon="6.67239">
        <ele>108.77</ele>
        <time>2012-10-12T11:24:48Z</time>
      </trkpt>
      <trkpt lat="43.3666" lon="6.67245">
        <ele>108.29</ele>
        <time>2012-10-12T11:24:49Z</time>
      </trkpt>
      <trkpt lat="43.36659" lon="6.67252">
        <ele>108.29</ele>
        <time>2012-10-12T11:24:50Z</time>
      </trkpt>
      <trkpt lat="43.36659" lon="6.67258">
        <ele>108.29</ele>
        <time>2012-10-12T11:24:51Z</time>
      </trkpt>
      <trkpt lat="43.3666" lon="6.67264">
        <ele>108.29</ele>
        <time>2012-10-12T11:24:52Z</time>
      </trkpt>
      <trkpt lat="43.36661" lon="6.67269">
        <ele>108.29</ele>
        <time>2012-10-12T11:24:53Z</time>
      </trkpt>
      <trkpt lat="43.3666" lon="6.67274">
        <ele>107.81</ele>
        <time>2012-10-12T11:24:54Z</time>
      </trkpt>
      <trkpt lat="43.36659" lon="6.67279">
        <ele>107.32</ele>
        <time>2012-10-12T11:24:55Z</time>
      </trkpt>
      <trkpt lat="43.36657" lon="6.67284">
        <ele>106.84</ele>
        <time>2012-10-12T11:24:56Z</time>
      </trkpt>
      <trkpt lat="43.36654" lon="6.67288">
        <ele>105.88</ele>
        <time>2012-10-12T11:24:57Z</time>
      </trkpt>
      <trkpt lat="43.36651" lon="6.67294">
        <ele>106.84</ele>
        <time>2012-10-12T11:24:59Z</time>
      </trkpt>
      <trkpt lat="43.36651" lon="6.67298">
        <ele>106.84</ele>
        <time>2012-10-12T11:25:00Z</time>
      </trkpt>
      <trkpt lat="43.36653" lon="6.67302">
        <ele>106.84</ele>
        <time>2012-10-12T11:25:01Z</time>
      </trkpt>
      <trkpt lat="43.36656" lon="6.67306">
        <ele>106.36</ele>
        <time>2012-10-12T11:25:02Z</time>
      </trkpt>
      <trkpt lat="43.36659" lon="6.67309">
        <ele>106.36</ele>
        <time>2012-10-12T11:25:03Z</time>
      </trkpt>
      <trkpt lat="43.36663" lon="6.67313">
        <ele>106.36</ele>
        <time>2012-10-12T11:25:04Z</time>
      </trkpt>
      <trkpt lat="43.36667" lon="6.67317">
        <ele>105.88</ele>
        <time>2012-10-12T11:25:05Z</time>
      </trkpt>
      <trkpt lat="43.36671" lon="6.67322">
        <ele>106.36</ele>
        <time>2012-10-12T11:25:06Z</time>
      </trkpt>
      <trkpt lat="43.36675" lon="6.67326">
        <ele>106.84</ele>
        <time>2012-10-12T11:25:07Z</time>
      </trkpt>
      <trkpt lat="43.3669" lon="6.67339">
        <ele>109.25</ele>
        <time>2012-10-12T11:25:12Z</time>
      </trkpt>
      <trkpt lat="43.36705" lon="6.67372">
        <ele>111.65</ele>
        <time>2012-10-12T11:25:22Z</time>
      </trkpt>
      <trkpt lat="43.36708" lon="6.67415">
        <ele>112.61</ele>
        <time>2012-10-12T11:25:31Z</time>
      </trkpt>
      <trkpt lat="43.36709" lon="6.6742">
        <ele>112.61</ele>
        <time>2012-10-12T11:25:32Z</time>
      </trkpt>
      <trkpt lat="43.36711" lon="6.67426">
        <ele>112.61</ele>
        <time>2012-10-12T11:25:33Z</time>
      </trkpt>
      <trkpt lat="43.36719" lon="6.67451">
        <ele>111.17</ele>
        <time>2012-10-12T11:25:37Z</time>
      </trkpt>
      <trkpt lat="43.36728" lon="6.67485">
        <ele>111.17</ele>
        <time>2012-10-12T11:25:42Z</time>
      </trkpt>
      <trkpt lat="43.36731" lon="6.67492">
        <ele>110.21</ele>
        <time>2012-10-12T11:25:43Z</time>
      </trkpt>
      <trkpt lat="43.36736" lon="6.67504">
        <ele>111.17</ele>
        <time>2012-10-12T11:25:45Z</time>
      </trkpt>
      <trkpt lat="43.36758" lon="6.67561">
        <ele>112.61</ele>
        <time>2012-10-12T11:25:55Z</time>
      </trkpt>
      <trkpt lat="43.36761" lon="6.67573">
        <ele>112.61</ele>
        <time>2012-10-12T11:25:57Z</time>
      </trkpt>
      <trkpt lat="43.36766" lon="6.67595">
        <ele>114.05</ele>
        <time>2012-10-12T11:26:02Z</time>
      </trkpt>
      <trkpt lat="43.36763" lon="6.67625">
        <ele>116.94</ele>
        <time>2012-10-12T11:26:13Z</time>
      </trkpt>
      <trkpt lat="43.36761" lon="6.67629">
        <ele>116.94</ele>
        <time>2012-10-12T11:26:15Z</time>
      </trkpt>
      <trkpt lat="43.3676" lon="6.67631">
        <ele>117.42</ele>
        <time>2012-10-12T11:26:16Z</time>
      </trkpt>
      <trkpt lat="43.36756" lon="6.67642">
        <ele>118.38</ele>
        <time>2012-10-12T11:26:22Z</time>
      </trkpt>
      <trkpt lat="43.36756" lon="6.67644">
        <ele>118.86</ele>
        <time>2012-10-12T11:26:23Z</time>
      </trkpt>
      <trkpt lat="43.36756" lon="6.67646">
        <ele>118.86</ele>
        <time>2012-10-12T11:26:24Z</time>
      </trkpt>
      <trkpt lat="43.36755" lon="6.67648">
        <ele>119.34</ele>
        <time>2012-10-12T11:26:25Z</time>
      </trkpt>
      <trkpt lat="43.36755" lon="6.6765">
        <ele>119.34</ele>
        <time>2012-10-12T11:26:26Z</time>
      </trkpt>
      <trkpt lat="43.36754" lon="6.67652">
        <ele>119.82</ele>
        <time>2012-10-12T11:26:27Z</time>
      </trkpt>
      <trkpt lat="43.36754" lon="6.67655">
        <ele>119.82</ele>
        <time>2012-10-12T11:26:28Z</time>
      </trkpt>
      <trkpt lat="43.36753" lon="6.67657">
        <ele>119.82</ele>
        <time>2012-10-12T11:26:29Z</time>
      </trkpt>
      <trkpt lat="43.36753" lon="6.67678">
        <ele>122.22</ele>
        <time>2012-10-12T11:26:38Z</time>
      </trkpt>
      <trkpt lat="43.36752" lon="6.6768">
        <ele>123.19</ele>
        <time>2012-10-12T11:26:39Z</time>
      </trkpt>
      <trkpt lat="43.36751" lon="6.67683">
        <ele>122.71</ele>
        <time>2012-10-12T11:26:40Z</time>
      </trkpt>
      <trkpt lat="43.36747" lon="6.67711">
        <ele>123.67</ele>
        <time>2012-10-12T11:26:50Z</time>
      </trkpt>
      <trkpt lat="43.3675" lon="6.67735">
        <ele>126.07</ele>
        <time>2012-10-12T11:26:59Z</time>
      </trkpt>
      <trkpt lat="43.36753" lon="6.6775">
        <ele>128.47</ele>
        <time>2012-10-12T11:27:05Z</time>
      </trkpt>
      <trkpt lat="43.36757" lon="6.67764">
        <ele>129.43</ele>
        <time>2012-10-12T11:27:11Z</time>
      </trkpt>
      <trkpt lat="43.36758" lon="6.67766">
        <ele>129.92</ele>
        <time>2012-10-12T11:27:12Z</time>
      </trkpt>
      <trkpt lat="43.36758" lon="6.67769">
        <ele>130.4</ele>
        <time>2012-10-12T11:27:13Z</time>
      </trkpt>
      <trkpt lat="43.36759" lon="6.67771">
        <ele>130.88</ele>
        <time>2012-10-12T11:27:14Z</time>
      </trkpt>
      <trkpt lat="43.36759" lon="6.67774">
        <ele>130.88</ele>
        <time>2012-10-12T11:27:15Z</time>
      </trkpt>
      <trkpt lat="43.36759" lon="6.67776">
        <ele>130.88</ele>
        <time>2012-10-12T11:27:16Z</time>
      </trkpt>
      <trkpt lat="43.36759" lon="6.67783">
        <ele>131.84</ele>
        <time>2012-10-12T11:27:19Z</time>
      </trkpt>
      <trkpt lat="43.36759" lon="6.67786">
        <ele>132.32</ele>
        <time>2012-10-12T11:27:20Z</time>
      </trkpt>
      <trkpt lat="43.3676" lon="6.67788">
        <ele>132.32</ele>
        <time>2012-10-12T11:27:21Z</time>
      </trkpt>
      <trkpt lat="43.3676" lon="6.67791">
        <ele>132.8</ele>
        <time>2012-10-12T11:27:22Z</time>
      </trkpt>
      <trkpt lat="43.36761" lon="6.67793">
        <ele>132.8</ele>
        <time>2012-10-12T11:27:23Z</time>
      </trkpt>
      <trkpt lat="43.36761" lon="6.67796">
        <ele>133.28</ele>
        <time>2012-10-12T11:27:24Z</time>
      </trkpt>
      <trkpt lat="43.36761" lon="6.67798">
        <ele>133.28</ele>
        <time>2012-10-12T11:27:25Z</time>
      </trkpt>
      <trkpt lat="43.36762" lon="6.67801">
        <ele>133.76</ele>
        <time>2012-10-12T11:27:26Z</time>
      </trkpt>
      <trkpt lat="43.36762" lon="6.67803">
        <ele>135.2</ele>
        <time>2012-10-12T11:27:27Z</time>
      </trkpt>
      <trkpt lat="43.36762" lon="6.67806">
        <ele>134.72</ele>
        <time>2012-10-12T11:27:28Z</time>
      </trkpt>
      <trkpt lat="43.36762" lon="6.67809">
        <ele>135.68</ele>
        <time>2012-10-12T11:27:29Z</time>
      </trkpt>
      <trkpt lat="43.36762" lon="6.67812">
        <ele>136.16</ele>
        <time>2012-10-12T11:27:30Z</time>
      </trkpt>
      <trkpt lat="43.36763" lon="6.67815">
        <ele>136.16</ele>
        <time>2012-10-12T11:27:31Z</time>
      </trkpt>
      <trkpt lat="43.36764" lon="6.67818">
        <ele>137.13</ele>
        <time>2012-10-12T11:27:32Z</time>
      </trkpt>
      <trkpt lat="43.36765" lon="6.6782">
        <ele>137.13</ele>
        <time>2012-10-12T11:27:33Z</time>
      </trkpt>
      <trkpt lat="43.36765" lon="6.67823">
        <ele>137.61</ele>
        <time>2012-10-12T11:27:34Z</time>
      </trkpt>
      <trkpt lat="43.36766" lon="6.67833">
        <ele>139.05</ele>
        <time>2012-10-12T11:27:38Z</time>
      </trkpt>
      <trkpt lat="43.36764" lon="6.67852">
        <ele>142.41</ele>
        <time>2012-10-12T11:27:47Z</time>
      </trkpt>
      <trkpt lat="43.36764" lon="6.67855">
        <ele>142.41</ele>
        <time>2012-10-12T11:27:48Z</time>
      </trkpt>
      <trkpt lat="43.36764" lon="6.67863">
        <ele>143.37</ele>
        <time>2012-10-12T11:27:50Z</time>
      </trkpt>
      <trkpt lat="43.36765" lon="6.67872">
        <ele>145.3</ele>
        <time>2012-10-12T11:27:53Z</time>
      </trkpt>
      <trkpt lat="43.36765" lon="6.67882">
        <ele>147.7</ele>
        <time>2012-10-12T11:28:00Z</time>
      </trkpt>
      <trkpt lat="43.36764" lon="6.67884">
        <ele>147.7</ele>
        <time>2012-10-12T11:28:01Z</time>
      </trkpt>
      <trkpt lat="43.36764" lon="6.67886">
        <ele>148.18</ele>
        <time>2012-10-12T11:28:02Z</time>
      </trkpt>
      <trkpt lat="43.36764" lon="6.67888">
        <ele>148.66</ele>
        <time>2012-10-12T11:28:03Z</time>
      </trkpt>
      <trkpt lat="43.36764" lon="6.6789">
        <ele>148.66</ele>
        <time>2012-10-12T11:28:04Z</time>
      </trkpt>
      <trkpt lat="43.36764" lon="6.67892">
        <ele>148.66</ele>
        <time>2012-10-12T11:28:05Z</time>
      </trkpt>
      <trkpt lat="43.36764" lon="6.67894">
        <ele>148.66</ele>
        <time>2012-10-12T11:28:06Z</time>
      </trkpt>
      <trkpt lat="43.36765" lon="6.67896">
        <ele>149.62</ele>
        <time>2012-10-12T11:28:07Z</time>
      </trkpt>
      <trkpt lat="43.36765" lon="6.67898">
        <ele>150.1</ele>
        <time>2012-10-12T11:28:08Z</time>
      </trkpt>
      <trkpt lat="43.36765" lon="6.679">
        <ele>150.1</ele>
        <time>2012-10-12T11:28:09Z</time>
      </trkpt>
      <trkpt lat="43.36765" lon="6.67902">
        <ele>150.1</ele>
        <time>2012-10-12T11:28:10Z</time>
      </trkpt>
      <trkpt lat="43.36765" lon="6.67905">
        <ele>151.06</ele>
        <time>2012-10-12T11:28:11Z</time>
      </trkpt>
      <trkpt lat="43.36765" lon="6.67907">
        <ele>151.06</ele>
        <time>2012-10-12T11:28:12Z</time>
      </trkpt>
      <trkpt lat="43.36766" lon="6.67909">
        <ele>151.54</ele>
        <time>2012-10-12T11:28:13Z</time>
      </trkpt>
      <trkpt lat="43.36767" lon="6.67916">
        <ele>152.51</ele>
        <time>2012-10-12T11:28:16Z</time>
      </trkpt>
      <trkpt lat="43.36767" lon="6.67917">
        <ele>152.51</ele>
        <time>2012-10-12T11:28:17Z</time>
      </trkpt>
      <trkpt lat="43.36767" lon="6.67919">
        <ele>152.99</ele>
        <time>2012-10-12T11:28:18Z</time>
      </trkpt>
      <trkpt lat="43.36766" lon="6.67945">
        <ele>155.39</ele>
        <time>2012-10-12T11:28:29Z</time>
      </trkpt>
      <trkpt lat="43.36755" lon="6.67977">
        <ele>155.39</ele>
        <time>2012-10-12T11:28:39Z</time>
      </trkpt>
      <trkpt lat="43.36735" lon="6.67999">
        <ele>155.39</ele>
        <time>2012-10-12T11:28:47Z</time>
      </trkpt>
      <trkpt lat="43.36703" lon="6.68012">
        <ele>155.87</ele>
        <time>2012-10-12T11:28:56Z</time>
      </trkpt>
      <trkpt lat="43.36701" lon="6.68017">
        <ele>155.87</ele>
        <time>2012-10-12T11:28:57Z</time>
      </trkpt>
      <trkpt lat="43.36699" lon="6.68022">
        <ele>155.39</ele>
        <time>2012-10-12T11:28:58Z</time>
      </trkpt>
      <trkpt lat="43.36701" lon="6.68063">
        <ele>156.35</ele>
        <time>2012-10-12T11:29:06Z</time>
      </trkpt>
      <trkpt lat="43.36712" lon="6.68089">
        <ele>156.35</ele>
        <time>2012-10-12T11:29:12Z</time>
      </trkpt>
      <trkpt lat="43.36714" lon="6.68094">
        <ele>156.83</ele>
        <time>2012-10-12T11:29:13Z</time>
      </trkpt>
      <trkpt lat="43.36717" lon="6.68103">
        <ele>156.83</ele>
        <time>2012-10-12T11:29:15Z</time>
      </trkpt>
      <trkpt lat="43.36721" lon="6.68115">
        <ele>157.31</ele>
        <time>2012-10-12T11:29:17Z</time>
      </trkpt>
      <trkpt lat="43.36722" lon="6.68121">
        <ele>157.31</ele>
        <time>2012-10-12T11:29:18Z</time>
      </trkpt>
      <trkpt lat="43.36722" lon="6.68127">
        <ele>157.31</ele>
        <time>2012-10-12T11:29:19Z</time>
      </trkpt>
      <trkpt lat="43.36722" lon="6.68133">
        <ele>157.79</ele>
        <time>2012-10-12T11:29:20Z</time>
      </trkpt>
      <trkpt lat="43.36721" lon="6.68139">
        <ele>158.27</ele>
        <time>2012-10-12T11:29:21Z</time>
      </trkpt>
      <trkpt lat="43.3672" lon="6.68145">
        <ele>157.31</ele>
        <time>2012-10-12T11:29:22Z</time>
      </trkpt>
      <trkpt lat="43.36718" lon="6.68151">
        <ele>157.79</ele>
        <time>2012-10-12T11:29:23Z</time>
      </trkpt>
      <trkpt lat="43.36705" lon="6.68181">
        <ele>156.83</ele>
        <time>2012-10-12T11:29:28Z</time>
      </trkpt>
      <trkpt lat="43.36702" lon="6.68187">
        <ele>156.83</ele>
        <time>2012-10-12T11:29:29Z</time>
      </trkpt>
      <trkpt lat="43.36657" lon="6.68236">
        <ele>156.35</ele>
        <time>2012-10-12T11:29:39Z</time>
      </trkpt>
      <trkpt lat="43.36652" lon="6.68239">
        <ele>156.35</ele>
        <time>2012-10-12T11:29:40Z</time>
      </trkpt>
      <trkpt lat="43.36647" lon="6.68241">
        <ele>156.35</ele>
        <time>2012-10-12T11:29:41Z</time>
      </trkpt>
      <trkpt lat="43.36641" lon="6.68242">
        <ele>156.35</ele>
        <time>2012-10-12T11:29:42Z</time>
      </trkpt>
      <trkpt lat="43.36635" lon="6.68241">
        <ele>155.39</ele>
        <time>2012-10-12T11:29:43Z</time>
      </trkpt>
      <trkpt lat="43.3663" lon="6.68239">
        <ele>155.39</ele>
        <time>2012-10-12T11:29:44Z</time>
      </trkpt>
      <trkpt lat="43.36624" lon="6.68235">
        <ele>155.87</ele>
        <time>2012-10-12T11:29:45Z</time>
      </trkpt>
      <trkpt lat="43.36619" lon="6.68231">
        <ele>154.91</ele>
        <time>2012-10-12T11:29:46Z</time>
      </trkpt>
      <trkpt lat="43.36576" lon="6.68206">
        <ele>155.39</ele>
        <time>2012-10-12T11:29:53Z</time>
      </trkpt>
      <trkpt lat="43.3657" lon="6.68201">
        <ele>155.39</ele>
        <time>2012-10-12T11:29:54Z</time>
      </trkpt>
      <trkpt lat="43.36564" lon="6.68195">
        <ele>155.39</ele>
        <time>2012-10-12T11:29:55Z</time>
      </trkpt>
      <trkpt lat="43.36558" lon="6.68188">
        <ele>155.87</ele>
        <time>2012-10-12T11:29:56Z</time>
      </trkpt>
      <trkpt lat="43.36552" lon="6.68181">
        <ele>155.87</ele>
        <time>2012-10-12T11:29:57Z</time>
      </trkpt>
      <trkpt lat="43.36547" lon="6.68173">
        <ele>156.35</ele>
        <time>2012-10-12T11:29:58Z</time>
      </trkpt>
      <trkpt lat="43.36543" lon="6.68165">
        <ele>157.31</ele>
        <time>2012-10-12T11:29:59Z</time>
      </trkpt>
      <trkpt lat="43.36539" lon="6.68157">
        <ele>157.31</ele>
        <time>2012-10-12T11:30:00Z</time>
      </trkpt>
      <trkpt lat="43.36535" lon="6.68149">
        <ele>156.83</ele>
        <time>2012-10-12T11:30:01Z</time>
      </trkpt>
      <trkpt lat="43.3653" lon="6.68143">
        <ele>156.35</ele>
        <time>2012-10-12T11:30:02Z</time>
      </trkpt>
      <trkpt lat="43.36524" lon="6.68138">
        <ele>156.83</ele>
        <time>2012-10-12T11:30:03Z</time>
      </trkpt>
      <trkpt lat="43.36517" lon="6.68136">
        <ele>156.83</ele>
        <time>2012-10-12T11:30:04Z</time>
      </trkpt>
      <trkpt lat="43.3651" lon="6.68134">
        <ele>156.83</ele>
        <time>2012-10-12T11:30:05Z</time>
      </trkpt>
      <trkpt lat="43.36469" lon="6.6812">
        <ele>154.91</ele>
        <time>2012-10-12T11:30:11Z</time>
      </trkpt>
      <trkpt lat="43.36463" lon="6.68118">
        <ele>154.91</ele>
        <time>2012-10-12T11:30:12Z</time>
      </trkpt>
      <trkpt lat="43.36456" lon="6.68117">
        <ele>154.91</ele>
        <time>2012-10-12T11:30:13Z</time>
      </trkpt>
      <trkpt lat="43.36449" lon="6.68119">
        <ele>155.39</ele>
        <time>2012-10-12T11:30:14Z</time>
      </trkpt>
      <trkpt lat="43.36444" lon="6.68125">
        <ele>155.87</ele>
        <time>2012-10-12T11:30:15Z</time>
      </trkpt>
      <trkpt lat="43.36441" lon="6.68133">
        <ele>156.35</ele>
        <time>2012-10-12T11:30:16Z</time>
      </trkpt>
      <trkpt lat="43.3644" lon="6.68142">
        <ele>156.35</ele>
        <time>2012-10-12T11:30:17Z</time>
      </trkpt>
      <trkpt lat="43.3644" lon="6.6815">
        <ele>155.87</ele>
        <time>2012-10-12T11:30:18Z</time>
      </trkpt>
      <trkpt lat="43.3644" lon="6.6816">
        <ele>155.87</ele>
        <time>2012-10-12T11:30:19Z</time>
      </trkpt>
      <trkpt lat="43.3644" lon="6.6817">
        <ele>156.35</ele>
        <time>2012-10-12T11:30:20Z</time>
      </trkpt>
      <trkpt lat="43.36441" lon="6.68197">
        <ele>156.35</ele>
        <time>2012-10-12T11:30:23Z</time>
      </trkpt>
      <trkpt lat="43.36449" lon="6.68263">
        <ele>155.87</ele>
        <time>2012-10-12T11:30:30Z</time>
      </trkpt>
      <trkpt lat="43.36449" lon="6.68274">
        <ele>155.87</ele>
        <time>2012-10-12T11:30:31Z</time>
      </trkpt>
      <trkpt lat="43.36447" lon="6.68284">
        <ele>155.87</ele>
        <time>2012-10-12T11:30:32Z</time>
      </trkpt>
      <trkpt lat="43.36444" lon="6.68295">
        <ele>155.87</ele>
        <time>2012-10-12T11:30:33Z</time>
      </trkpt>
      <trkpt lat="43.3644" lon="6.68304">
        <ele>154.91</ele>
        <time>2012-10-12T11:30:34Z</time>
      </trkpt>
      <trkpt lat="43.36436" lon="6.68313">
        <ele>154.91</ele>
        <time>2012-10-12T11:30:35Z</time>
      </trkpt>
      <trkpt lat="43.3643" lon="6.68321">
        <ele>154.91</ele>
        <time>2012-10-12T11:30:36Z</time>
      </trkpt>
      <trkpt lat="43.36424" lon="6.68328">
        <ele>154.43</ele>
        <time>2012-10-12T11:30:37Z</time>
      </trkpt>
      <trkpt lat="43.36418" lon="6.68334">
        <ele>153.95</ele>
        <time>2012-10-12T11:30:38Z</time>
      </trkpt>
      <trkpt lat="43.36411" lon="6.68339">
        <ele>154.43</ele>
        <time>2012-10-12T11:30:39Z</time>
      </trkpt>
      <trkpt lat="43.36404" lon="6.68343">
        <ele>154.43</ele>
        <time>2012-10-12T11:30:40Z</time>
      </trkpt>
      <trkpt lat="43.36397" lon="6.68346">
        <ele>153.95</ele>
        <time>2012-10-12T11:30:41Z</time>
      </trkpt>
      <trkpt lat="43.3639" lon="6.68349">
        <ele>153.47</ele>
        <time>2012-10-12T11:30:42Z</time>
      </trkpt>
      <trkpt lat="43.36384" lon="6.68351">
        <ele>153.47</ele>
        <time>2012-10-12T11:30:43Z</time>
      </trkpt>
      <trkpt lat="43.36371" lon="6.68356">
        <ele>154.43</ele>
        <time>2012-10-12T11:30:45Z</time>
      </trkpt>
      <trkpt lat="43.36365" lon="6.68361">
        <ele>154.43</ele>
        <time>2012-10-12T11:30:46Z</time>
      </trkpt>
      <trkpt lat="43.3636" lon="6.68366">
        <ele>153.95</ele>
        <time>2012-10-12T11:30:47Z</time>
      </trkpt>
      <trkpt lat="43.36356" lon="6.68372">
        <ele>153.47</ele>
        <time>2012-10-12T11:30:48Z</time>
      </trkpt>
      <trkpt lat="43.36353" lon="6.68379">
        <ele>153.95</ele>
        <time>2012-10-12T11:30:49Z</time>
      </trkpt>
      <trkpt lat="43.36351" lon="6.68386">
        <ele>153.95</ele>
        <time>2012-10-12T11:30:50Z</time>
      </trkpt>
      <trkpt lat="43.36344" lon="6.68405">
        <ele>153.47</ele>
        <time>2012-10-12T11:30:53Z</time>
      </trkpt>
      <trkpt lat="43.36336" lon="6.68432">
        <ele>152.03</ele>
        <time>2012-10-12T11:31:00Z</time>
      </trkpt>
      <trkpt lat="43.36336" lon="6.68434">
        <ele>152.03</ele>
        <time>2012-10-12T11:31:01Z</time>
      </trkpt>
      <trkpt lat="43.36337" lon="6.68436">
        <ele>152.03</ele>
        <time>2012-10-12T11:31:02Z</time>
      </trkpt>
      <trkpt lat="43.36339" lon="6.68443">
        <ele>153.95</ele>
        <time>2012-10-12T11:31:05Z</time>
      </trkpt>
      <trkpt lat="43.36359" lon="6.68468">
        <ele>155.87</ele>
        <time>2012-10-12T11:31:15Z</time>
      </trkpt>
      <trkpt lat="43.36382" lon="6.68496">
        <ele>156.35</ele>
        <time>2012-10-12T11:31:24Z</time>
      </trkpt>
      <trkpt lat="43.36407" lon="6.68533">
        <ele>158.75</ele>
        <time>2012-10-12T11:31:34Z</time>
      </trkpt>
      <trkpt lat="43.3642" lon="6.6854">
        <ele>159.72</ele>
        <time>2012-10-12T11:31:38Z</time>
      </trkpt>
      <trkpt lat="43.36442" lon="6.68557">
        <ele>162.12</ele>
        <time>2012-10-12T11:31:47Z</time>
      </trkpt>
      <trkpt lat="43.3645" lon="6.68566">
        <ele>162.6</ele>
        <time>2012-10-12T11:31:51Z</time>
      </trkpt>
      <trkpt lat="43.36452" lon="6.68569">
        <ele>163.08</ele>
        <time>2012-10-12T11:31:52Z</time>
      </trkpt>
      <trkpt lat="43.36454" lon="6.68572">
        <ele>162.6</ele>
        <time>2012-10-12T11:31:53Z</time>
      </trkpt>
      <trkpt lat="43.36456" lon="6.68576">
        <ele>162.6</ele>
        <time>2012-10-12T11:31:54Z</time>
      </trkpt>
      <trkpt lat="43.36458" lon="6.68579">
        <ele>163.08</ele>
        <time>2012-10-12T11:31:55Z</time>
      </trkpt>
      <trkpt lat="43.36475" lon="6.68611">
        <ele>162.12</ele>
        <time>2012-10-12T11:32:04Z</time>
      </trkpt>
      <trkpt lat="43.36481" lon="6.68624">
        <ele>160.68</ele>
        <time>2012-10-12T11:32:07Z</time>
      </trkpt>
      <trkpt lat="43.36486" lon="6.68634">
        <ele>160.2</ele>
        <time>2012-10-12T11:32:09Z</time>
      </trkpt>
      <trkpt lat="43.36496" lon="6.68655">
        <ele>159.72</ele>
        <time>2012-10-12T11:32:13Z</time>
      </trkpt>
      <trkpt lat="43.36502" lon="6.68667">
        <ele>159.24</ele>
        <time>2012-10-12T11:32:15Z</time>
      </trkpt>
      <trkpt lat="43.3651" lon="6.68683">
        <ele>158.27</ele>
        <time>2012-10-12T11:32:18Z</time>
      </trkpt>
      <trkpt lat="43.36518" lon="6.68705">
        <ele>157.31</ele>
        <time>2012-10-12T11:32:22Z</time>
      </trkpt>
      <trkpt lat="43.36521" lon="6.68727">
        <ele>156.35</ele>
        <time>2012-10-12T11:32:26Z</time>
      </trkpt>
      <trkpt lat="43.3652" lon="6.68739">
        <ele>156.35</ele>
        <time>2012-10-12T11:32:28Z</time>
      </trkpt>
      <trkpt lat="43.36516" lon="6.68768">
        <ele>155.87</ele>
        <time>2012-10-12T11:32:33Z</time>
      </trkpt>
      <trkpt lat="43.36501" lon="6.68799">
        <ele>155.87</ele>
        <time>2012-10-12T11:32:41Z</time>
      </trkpt>
      <trkpt lat="43.36486" lon="6.68803">
        <ele>156.83</ele>
        <time>2012-10-12T11:32:47Z</time>
      </trkpt>
      <trkpt lat="43.36484" lon="6.68803">
        <ele>156.35</ele>
        <time>2012-10-12T11:32:48Z</time>
      </trkpt>
      <trkpt lat="43.36472" lon="6.68808">
        <ele>153.47</ele>
        <time>2012-10-12T11:32:56Z</time>
      </trkpt>
      <trkpt lat="43.36456" lon="6.68828">
        <ele>149.14</ele>
        <time>2012-10-12T11:33:01Z</time>
      </trkpt>
      <trkpt lat="43.36429" lon="6.68834">
        <ele>148.66</ele>
        <time>2012-10-12T11:33:08Z</time>
      </trkpt>
      <trkpt lat="43.36423" lon="6.68835">
        <ele>148.18</ele>
        <time>2012-10-12T11:33:10Z</time>
      </trkpt>
      <trkpt lat="43.36416" lon="6.68834">
        <ele>147.7</ele>
        <time>2012-10-12T11:33:13Z</time>
      </trkpt>
      <trkpt lat="43.36403" lon="6.68833">
        <ele>147.22</ele>
        <time>2012-10-12T11:33:20Z</time>
      </trkpt>
      <trkpt lat="43.36391" lon="6.68837">
        <ele>149.14</ele>
        <time>2012-10-12T11:33:27Z</time>
      </trkpt>
      <trkpt lat="43.36376" lon="6.68848">
        <ele>151.54</ele>
        <time>2012-10-12T11:33:37Z</time>
      </trkpt>
      <trkpt lat="43.36363" lon="6.68878">
        <ele>151.54</ele>
        <time>2012-10-12T11:33:47Z</time>
      </trkpt>
      <trkpt lat="43.3635" lon="6.68911">
        <ele>152.51</ele>
        <time>2012-10-12T11:33:56Z</time>
      </trkpt>
      <trkpt lat="43.36334" lon="6.68934">
        <ele>152.99</ele>
        <time>2012-10-12T11:34:04Z</time>
      </trkpt>
      <trkpt lat="43.36333" lon="6.68935">
        <ele>152.99</ele>
        <time>2012-10-12T11:34:05Z</time>
      </trkpt>
      <trkpt lat="43.36315" lon="6.68948">
        <ele>150.58</ele>
        <time>2012-10-12T11:34:16Z</time>
      </trkpt>
      <trkpt lat="43.36301" lon="6.68958">
        <ele>147.7</ele>
        <time>2012-10-12T11:34:20Z</time>
      </trkpt>
      <trkpt lat="43.36299" lon="6.68961">
        <ele>148.18</ele>
        <time>2012-10-12T11:34:21Z</time>
      </trkpt>
      <trkpt lat="43.36298" lon="6.68964">
        <ele>148.66</ele>
        <time>2012-10-12T11:34:22Z</time>
      </trkpt>
      <trkpt lat="43.36297" lon="6.68966">
        <ele>148.66</ele>
        <time>2012-10-12T11:34:23Z</time>
      </trkpt>
      <trkpt lat="43.36296" lon="6.68968">
        <ele>149.14</ele>
        <time>2012-10-12T11:34:24Z</time>
      </trkpt>
      <trkpt lat="43.36296" lon="6.6897">
        <ele>149.14</ele>
        <time>2012-10-12T11:34:25Z</time>
      </trkpt>
      <trkpt lat="43.36295" lon="6.68972">
        <ele>149.62</ele>
        <time>2012-10-12T11:34:26Z</time>
      </trkpt>
      <trkpt lat="43.36295" lon="6.68974">
        <ele>149.62</ele>
        <time>2012-10-12T11:34:27Z</time>
      </trkpt>
      <trkpt lat="43.36289" lon="6.6899">
        <ele>152.99</ele>
        <time>2012-10-12T11:34:36Z</time>
      </trkpt>
      <trkpt lat="43.36287" lon="6.68994">
        <ele>153.47</ele>
        <time>2012-10-12T11:34:38Z</time>
      </trkpt>
      <trkpt lat="43.36287" lon="6.68996">
        <ele>153.95</ele>
        <time>2012-10-12T11:34:39Z</time>
      </trkpt>
      <trkpt lat="43.36286" lon="6.68998">
        <ele>154.43</ele>
        <time>2012-10-12T11:34:40Z</time>
      </trkpt>
      <trkpt lat="43.36286" lon="6.68999">
        <ele>154.91</ele>
        <time>2012-10-12T11:34:41Z</time>
      </trkpt>
      <trkpt lat="43.36285" lon="6.69006">
        <ele>155.87</ele>
        <time>2012-10-12T11:34:44Z</time>
      </trkpt>
      <trkpt lat="43.36284" lon="6.69008">
        <ele>156.35</ele>
        <time>2012-10-12T11:34:45Z</time>
      </trkpt>
      <trkpt lat="43.36284" lon="6.6901">
        <ele>157.31</ele>
        <time>2012-10-12T11:34:46Z</time>
      </trkpt>
      <trkpt lat="43.36282" lon="6.69011">
        <ele>157.31</ele>
        <time>2012-10-12T11:34:47Z</time>
      </trkpt>
      <trkpt lat="43.36282" lon="6.69014">
        <ele>157.79</ele>
        <time>2012-10-12T11:34:48Z</time>
      </trkpt>
      <trkpt lat="43.36281" lon="6.69016">
        <ele>158.27</ele>
        <time>2012-10-12T11:34:49Z</time>
      </trkpt>
      <trkpt lat="43.36278" lon="6.69032">
        <ele>161.16</ele>
        <time>2012-10-12T11:34:58Z</time>
      </trkpt>
      <trkpt lat="43.36277" lon="6.69041">
        <ele>162.6</ele>
        <time>2012-10-12T11:35:02Z</time>
      </trkpt>
      <trkpt lat="43.36276" lon="6.69042">
        <ele>163.08</ele>
        <time>2012-10-12T11:35:03Z</time>
      </trkpt>
      <trkpt lat="43.36276" lon="6.69044">
        <ele>163.56</ele>
        <time>2012-10-12T11:35:04Z</time>
      </trkpt>
      <trkpt lat="43.36274" lon="6.69044">
        <ele>164.04</ele>
        <time>2012-10-12T11:35:06Z</time>
      </trkpt>
      <trkpt lat="43.36274" lon="6.69041">
        <ele>164.04</ele>
        <time>2012-10-12T11:35:14Z</time>
      </trkpt>
      <trkpt lat="43.36273" lon="6.6904">
        <ele>165.48</ele>
        <time>2012-10-12T11:35:20Z</time>
      </trkpt>
      <trkpt lat="43.36271" lon="6.69035">
        <ele>165</ele>
        <time>2012-10-12T11:35:29Z</time>
      </trkpt>
      <trkpt lat="43.3627" lon="6.69034">
        <ele>165.96</ele>
        <time>2012-10-12T11:35:37Z</time>
      </trkpt>
      <trkpt lat="43.36266" lon="6.69029">
        <ele>168.37</ele>
        <time>2012-10-12T11:35:46Z</time>
      </trkpt>
      <trkpt lat="43.36265" lon="6.6903">
        <ele>168.37</ele>
        <time>2012-10-12T11:35:48Z</time>
      </trkpt>
      <trkpt lat="43.36264" lon="6.69031">
        <ele>168.85</ele>
        <time>2012-10-12T11:35:49Z</time>
      </trkpt>
      <trkpt lat="43.36263" lon="6.69037">
        <ele>169.81</ele>
        <time>2012-10-12T11:35:55Z</time>
      </trkpt>
      <trkpt lat="43.36262" lon="6.69042">
        <ele>170.77</ele>
        <time>2012-10-12T11:36:00Z</time>
      </trkpt>
      <trkpt lat="43.36262" lon="6.69044">
        <ele>170.29</ele>
        <time>2012-10-12T11:36:01Z</time>
      </trkpt>
      <trkpt lat="43.36262" lon="6.69046">
        <ele>170.29</ele>
        <time>2012-10-12T11:36:02Z</time>
      </trkpt>
      <trkpt lat="43.36262" lon="6.69047">
        <ele>170.77</ele>
        <time>2012-10-12T11:36:03Z</time>
      </trkpt>
      <trkpt lat="43.36261" lon="6.69049">
        <ele>170.77</ele>
        <time>2012-10-12T11:36:04Z</time>
      </trkpt>
      <trkpt lat="43.36259" lon="6.69061">
        <ele>172.21</ele>
        <time>2012-10-12T11:36:14Z</time>
      </trkpt>
      <trkpt lat="43.36256" lon="6.69067">
        <ele>172.21</ele>
        <time>2012-10-12T11:36:19Z</time>
      </trkpt>
      <trkpt lat="43.36253" lon="6.69074">
        <ele>173.66</ele>
        <time>2012-10-12T11:36:28Z</time>
      </trkpt>
      <trkpt lat="43.36248" lon="6.6908">
        <ele>176.54</ele>
        <time>2012-10-12T11:36:37Z</time>
      </trkpt>
      <trkpt lat="43.36248" lon="6.69083">
        <ele>177.02</ele>
        <time>2012-10-12T11:36:43Z</time>
      </trkpt>
      <trkpt lat="43.36248" lon="6.69085">
        <ele>177.02</ele>
        <time>2012-10-12T11:36:44Z</time>
      </trkpt>
      <trkpt lat="43.36247" lon="6.69087">
        <ele>177.02</ele>
        <time>2012-10-12T11:36:45Z</time>
      </trkpt>
      <trkpt lat="43.36247" lon="6.69089">
        <ele>177.02</ele>
        <time>2012-10-12T11:36:46Z</time>
      </trkpt>
      <trkpt lat="43.36246" lon="6.69091">
        <ele>176.54</ele>
        <time>2012-10-12T11:36:47Z</time>
      </trkpt>
      <trkpt lat="43.36245" lon="6.69094">
        <ele>176.54</ele>
        <time>2012-10-12T11:36:48Z</time>
      </trkpt>
      <trkpt lat="43.36245" lon="6.69096">
        <ele>177.02</ele>
        <time>2012-10-12T11:36:49Z</time>
      </trkpt>
      <trkpt lat="43.36244" lon="6.69098">
        <ele>177.02</ele>
        <time>2012-10-12T11:36:50Z</time>
      </trkpt>
      <trkpt lat="43.36243" lon="6.691">
        <ele>177.02</ele>
        <time>2012-10-12T11:36:51Z</time>
      </trkpt>
      <trkpt lat="43.36243" lon="6.69102">
        <ele>177.02</ele>
        <time>2012-10-12T11:36:52Z</time>
      </trkpt>
      <trkpt lat="43.36242" lon="6.69104">
        <ele>177.02</ele>
        <time>2012-10-12T11:36:53Z</time>
      </trkpt>
      <trkpt lat="43.36242" lon="6.69106">
        <ele>177.02</ele>
        <time>2012-10-12T11:36:54Z</time>
      </trkpt>
      <trkpt lat="43.36241" lon="6.69108">
        <ele>177.5</ele>
        <time>2012-10-12T11:36:55Z</time>
      </trkpt>
      <trkpt lat="43.3624" lon="6.69111">
        <ele>177.5</ele>
        <time>2012-10-12T11:36:56Z</time>
      </trkpt>
      <trkpt lat="43.36237" lon="6.69125">
        <ele>177.98</ele>
        <time>2012-10-12T11:37:02Z</time>
      </trkpt>
      <trkpt lat="43.36238" lon="6.69128">
        <ele>177.98</ele>
        <time>2012-10-12T11:37:03Z</time>
      </trkpt>
      <trkpt lat="43.36237" lon="6.69141">
        <ele>178.94</ele>
        <time>2012-10-12T11:37:09Z</time>
      </trkpt>
      <trkpt lat="43.36243" lon="6.69169">
        <ele>180.87</ele>
        <time>2012-10-12T11:37:21Z</time>
      </trkpt>
      <trkpt lat="43.36248" lon="6.69199">
        <ele>181.35</ele>
        <time>2012-10-12T11:37:30Z</time>
      </trkpt>
      <trkpt lat="43.36248" lon="6.69227">
        <ele>182.79</ele>
        <time>2012-10-12T11:37:38Z</time>
      </trkpt>
      <trkpt lat="43.36246" lon="6.69253">
        <ele>184.71</ele>
        <time>2012-10-12T11:37:48Z</time>
      </trkpt>
      <trkpt lat="43.36247" lon="6.69258">
        <ele>185.67</ele>
        <time>2012-10-12T11:37:50Z</time>
      </trkpt>
      <trkpt lat="43.36258" lon="6.69276">
        <ele>186.63</ele>
        <time>2012-10-12T11:37:59Z</time>
      </trkpt>
      <trkpt lat="43.3628" lon="6.69299">
        <ele>187.59</ele>
        <time>2012-10-12T11:38:10Z</time>
      </trkpt>
      <trkpt lat="43.36301" lon="6.69332">
        <ele>190</ele>
        <time>2012-10-12T11:38:20Z</time>
      </trkpt>
      <trkpt lat="43.36314" lon="6.69362">
        <ele>192.4</ele>
        <time>2012-10-12T11:38:30Z</time>
      </trkpt>
      <trkpt lat="43.36322" lon="6.69379">
        <ele>195.77</ele>
        <time>2012-10-12T11:38:39Z</time>
      </trkpt>
      <trkpt lat="43.36322" lon="6.69381">
        <ele>195.77</ele>
        <time>2012-10-12T11:38:40Z</time>
      </trkpt>
      <trkpt lat="43.36329" lon="6.69398">
        <ele>197.21</ele>
        <time>2012-10-12T11:38:48Z</time>
      </trkpt>
      <trkpt lat="43.3633" lon="6.69403">
        <ele>196.73</ele>
        <time>2012-10-12T11:38:50Z</time>
      </trkpt>
      <trkpt lat="43.36332" lon="6.69419">
        <ele>198.65</ele>
        <time>2012-10-12T11:38:56Z</time>
      </trkpt>
      <trkpt lat="43.3633" lon="6.69437">
        <ele>200.09</ele>
        <time>2012-10-12T11:39:02Z</time>
      </trkpt>
      <trkpt lat="43.36328" lon="6.69455">
        <ele>202.49</ele>
        <time>2012-10-12T11:39:09Z</time>
      </trkpt>
      <trkpt lat="43.36323" lon="6.69471">
        <ele>202.98</ele>
        <time>2012-10-12T11:39:16Z</time>
      </trkpt>
      <trkpt lat="43.36313" lon="6.69471">
        <ele>205.86</ele>
        <time>2012-10-12T11:39:23Z</time>
      </trkpt>
      <trkpt lat="43.36308" lon="6.69463">
        <ele>205.86</ele>
        <time>2012-10-12T11:39:28Z</time>
      </trkpt>
      <trkpt lat="43.36294" lon="6.69442">
        <ele>207.78</ele>
        <time>2012-10-12T11:39:39Z</time>
      </trkpt>
      <trkpt lat="43.3629" lon="6.69435">
        <ele>209.22</ele>
        <time>2012-10-12T11:39:43Z</time>
      </trkpt>
      <trkpt lat="43.36277" lon="6.69423">
        <ele>210.67</ele>
        <time>2012-10-12T11:39:53Z</time>
      </trkpt>
      <trkpt lat="43.36262" lon="6.69399">
        <ele>214.03</ele>
        <time>2012-10-12T11:40:05Z</time>
      </trkpt>
      <trkpt lat="43.36262" lon="6.69396">
        <ele>213.55</ele>
        <time>2012-10-12T11:40:06Z</time>
      </trkpt>
      <trkpt lat="43.36244" lon="6.69381">
        <ele>215.95</ele>
        <time>2012-10-12T11:40:16Z</time>
      </trkpt>
      <trkpt lat="43.36238" lon="6.69377">
        <ele>216.43</ele>
        <time>2012-10-12T11:40:19Z</time>
      </trkpt>
      <trkpt lat="43.36219" lon="6.69365">
        <ele>218.84</ele>
        <time>2012-10-12T11:40:31Z</time>
      </trkpt>
      <trkpt lat="43.36203" lon="6.69347">
        <ele>220.28</ele>
        <time>2012-10-12T11:40:41Z</time>
      </trkpt>
      <trkpt lat="43.36189" lon="6.69327">
        <ele>222.68</ele>
        <time>2012-10-12T11:40:50Z</time>
      </trkpt>
      <trkpt lat="43.36181" lon="6.69316">
        <ele>223.64</ele>
        <time>2012-10-12T11:40:59Z</time>
      </trkpt>
      <trkpt lat="43.3618" lon="6.69316">
        <ele>223.64</ele>
        <time>2012-10-12T11:41:00Z</time>
      </trkpt>
      <trkpt lat="43.36162" lon="6.69306">
        <ele>225.09</ele>
        <time>2012-10-12T11:41:13Z</time>
      </trkpt>
      <trkpt lat="43.36149" lon="6.69297">
        <ele>228.93</ele>
        <time>2012-10-12T11:41:23Z</time>
      </trkpt>
      <trkpt lat="43.36148" lon="6.69297">
        <ele>228.93</ele>
        <time>2012-10-12T11:41:24Z</time>
      </trkpt>
      <trkpt lat="43.36146" lon="6.69294">
        <ele>228.93</ele>
        <time>2012-10-12T11:41:27Z</time>
      </trkpt>
      <trkpt lat="43.36139" lon="6.6928">
        <ele>231.33</ele>
        <time>2012-10-12T11:41:35Z</time>
      </trkpt>
      <trkpt lat="43.36136" lon="6.69276">
        <ele>232.3</ele>
        <time>2012-10-12T11:41:38Z</time>
      </trkpt>
      <trkpt lat="43.36128" lon="6.69266">
        <ele>235.66</ele>
        <time>2012-10-12T11:41:46Z</time>
      </trkpt>
      <trkpt lat="43.36127" lon="6.69265">
        <ele>236.14</ele>
        <time>2012-10-12T11:41:48Z</time>
      </trkpt>
      <trkpt lat="43.36121" lon="6.69261">
        <ele>237.58</ele>
        <time>2012-10-12T11:41:53Z</time>
      </trkpt>
      <trkpt lat="43.36112" lon="6.69256">
        <ele>239.99</ele>
        <time>2012-10-12T11:42:00Z</time>
      </trkpt>
      <trkpt lat="43.361" lon="6.69247">
        <ele>242.87</ele>
        <time>2012-10-12T11:42:11Z</time>
      </trkpt>
      <trkpt lat="43.36098" lon="6.69244">
        <ele>241.43</ele>
        <time>2012-10-12T11:42:13Z</time>
      </trkpt>
      <trkpt lat="43.36082" lon="6.6925">
        <ele>240.95</ele>
        <time>2012-10-12T11:42:22Z</time>
      </trkpt>
      <trkpt lat="43.36079" lon="6.6925">
        <ele>240.95</ele>
        <time>2012-10-12T11:42:23Z</time>
      </trkpt>
      <trkpt lat="43.36074" lon="6.6925">
        <ele>239.99</ele>
        <time>2012-10-12T11:42:24Z</time>
      </trkpt>
      <trkpt lat="43.3607" lon="6.69251">
        <ele>239.51</ele>
        <time>2012-10-12T11:42:25Z</time>
      </trkpt>
      <trkpt lat="43.36065" lon="6.69253">
        <ele>239.51</ele>
        <time>2012-10-12T11:42:26Z</time>
      </trkpt>
      <trkpt lat="43.36061" lon="6.69257">
        <ele>239.51</ele>
        <time>2012-10-12T11:42:27Z</time>
      </trkpt>
      <trkpt lat="43.36058" lon="6.69262">
        <ele>239.51</ele>
        <time>2012-10-12T11:42:28Z</time>
      </trkpt>
      <trkpt lat="43.36053" lon="6.69272">
        <ele>239.02</ele>
        <time>2012-10-12T11:42:30Z</time>
      </trkpt>
      <trkpt lat="43.36048" lon="6.69275">
        <ele>238.54</ele>
        <time>2012-10-12T11:42:31Z</time>
      </trkpt>
      <trkpt lat="43.36044" lon="6.69277">
        <ele>237.58</ele>
        <time>2012-10-12T11:42:32Z</time>
      </trkpt>
      <trkpt lat="43.36039" lon="6.6928">
        <ele>237.58</ele>
        <time>2012-10-12T11:42:33Z</time>
      </trkpt>
      <trkpt lat="43.36034" lon="6.69283">
        <ele>237.1</ele>
        <time>2012-10-12T11:42:34Z</time>
      </trkpt>
      <trkpt lat="43.36029" lon="6.69287">
        <ele>236.62</ele>
        <time>2012-10-12T11:42:35Z</time>
      </trkpt>
      <trkpt lat="43.36024" lon="6.6929">
        <ele>236.14</ele>
        <time>2012-10-12T11:42:36Z</time>
      </trkpt>
      <trkpt lat="43.36017" lon="6.69291">
        <ele>236.14</ele>
        <time>2012-10-12T11:42:37Z</time>
      </trkpt>
      <trkpt lat="43.36011" lon="6.6929">
        <ele>235.18</ele>
        <time>2012-10-12T11:42:38Z</time>
      </trkpt>
      <trkpt lat="43.36004" lon="6.6929">
        <ele>234.7</ele>
        <time>2012-10-12T11:42:39Z</time>
      </trkpt>
      <trkpt lat="43.35997" lon="6.69291">
        <ele>233.26</ele>
        <time>2012-10-12T11:42:40Z</time>
      </trkpt>
      <trkpt lat="43.3599" lon="6.69293">
        <ele>231.81</ele>
        <time>2012-10-12T11:42:41Z</time>
      </trkpt>
      <trkpt lat="43.35983" lon="6.69295">
        <ele>231.81</ele>
        <time>2012-10-12T11:42:42Z</time>
      </trkpt>
      <trkpt lat="43.35977" lon="6.69296">
        <ele>231.81</ele>
        <time>2012-10-12T11:42:43Z</time>
      </trkpt>
      <trkpt lat="43.35971" lon="6.69296">
        <ele>229.89</ele>
        <time>2012-10-12T11:42:44Z</time>
      </trkpt>
      <trkpt lat="43.35966" lon="6.69296">
        <ele>229.89</ele>
        <time>2012-10-12T11:42:45Z</time>
      </trkpt>
      <trkpt lat="43.35961" lon="6.69297">
        <ele>229.41</ele>
        <time>2012-10-12T11:42:46Z</time>
      </trkpt>
      <trkpt lat="43.35956" lon="6.69299">
        <ele>227.97</ele>
        <time>2012-10-12T11:42:47Z</time>
      </trkpt>
      <trkpt lat="43.35949" lon="6.69302">
        <ele>226.05</ele>
        <time>2012-10-12T11:42:48Z</time>
      </trkpt>
      <trkpt lat="43.35933" lon="6.69308">
        <ele>222.68</ele>
        <time>2012-10-12T11:42:50Z</time>
      </trkpt>
      <trkpt lat="43.35925" lon="6.69312">
        <ele>223.16</ele>
        <time>2012-10-12T11:42:51Z</time>
      </trkpt>
      <trkpt lat="43.35918" lon="6.69314">
        <ele>223.16</ele>
        <time>2012-10-12T11:42:52Z</time>
      </trkpt>
      <trkpt lat="43.35905" lon="6.69316">
        <ele>219.8</ele>
        <time>2012-10-12T11:42:54Z</time>
      </trkpt>
      <trkpt lat="43.35897" lon="6.6932">
        <ele>219.32</ele>
        <time>2012-10-12T11:42:55Z</time>
      </trkpt>
      <trkpt lat="43.35891" lon="6.69325">
        <ele>218.84</ele>
        <time>2012-10-12T11:42:56Z</time>
      </trkpt>
      <trkpt lat="43.35877" lon="6.69336">
        <ele>218.36</ele>
        <time>2012-10-12T11:42:58Z</time>
      </trkpt>
      <trkpt lat="43.35856" lon="6.69353">
        <ele>216.43</ele>
        <time>2012-10-12T11:43:01Z</time>
      </trkpt>
      <trkpt lat="43.35843" lon="6.69369">
        <ele>215.47</ele>
        <time>2012-10-12T11:43:03Z</time>
      </trkpt>
      <trkpt lat="43.35833" lon="6.69387">
        <ele>213.55</ele>
        <time>2012-10-12T11:43:05Z</time>
      </trkpt>
      <trkpt lat="43.35829" lon="6.69396">
        <ele>213.55</ele>
        <time>2012-10-12T11:43:06Z</time>
      </trkpt>
      <trkpt lat="43.35827" lon="6.69406">
        <ele>212.11</ele>
        <time>2012-10-12T11:43:07Z</time>
      </trkpt>
      <trkpt lat="43.35824" lon="6.69417">
        <ele>210.67</ele>
        <time>2012-10-12T11:43:08Z</time>
      </trkpt>
      <trkpt lat="43.3582" lon="6.69429">
        <ele>209.7</ele>
        <time>2012-10-12T11:43:09Z</time>
      </trkpt>
      <trkpt lat="43.35812" lon="6.69448">
        <ele>208.26</ele>
        <time>2012-10-12T11:43:11Z</time>
      </trkpt>
      <trkpt lat="43.35806" lon="6.69459">
        <ele>207.3</ele>
        <time>2012-10-12T11:43:13Z</time>
      </trkpt>
      <trkpt lat="43.35804" lon="6.69465">
        <ele>206.82</ele>
        <time>2012-10-12T11:43:14Z</time>
      </trkpt>
      <trkpt lat="43.35802" lon="6.6947">
        <ele>206.82</ele>
        <time>2012-10-12T11:43:15Z</time>
      </trkpt>
      <trkpt lat="43.35802" lon="6.69477">
        <ele>206.34</ele>
        <time>2012-10-12T11:43:16Z</time>
      </trkpt>
      <trkpt lat="43.358" lon="6.69484">
        <ele>204.9</ele>
        <time>2012-10-12T11:43:17Z</time>
      </trkpt>
      <trkpt lat="43.35798" lon="6.6949">
        <ele>204.42</ele>
        <time>2012-10-12T11:43:18Z</time>
      </trkpt>
      <trkpt lat="43.35796" lon="6.69494">
        <ele>203.46</ele>
        <time>2012-10-12T11:43:19Z</time>
      </trkpt>
      <trkpt lat="43.35795" lon="6.69501">
        <ele>202.98</ele>
        <time>2012-10-12T11:43:21Z</time>
      </trkpt>
      <trkpt lat="43.35795" lon="6.69504">
        <ele>202.49</ele>
        <time>2012-10-12T11:43:22Z</time>
      </trkpt>
      <trkpt lat="43.35796" lon="6.69508">
        <ele>201.53</ele>
        <time>2012-10-12T11:43:23Z</time>
      </trkpt>
      <trkpt lat="43.35796" lon="6.69512">
        <ele>200.57</ele>
        <time>2012-10-12T11:43:24Z</time>
      </trkpt>
      <trkpt lat="43.35796" lon="6.69517">
        <ele>200.09</ele>
        <time>2012-10-12T11:43:25Z</time>
      </trkpt>
      <trkpt lat="43.35796" lon="6.69522">
        <ele>199.13</ele>
        <time>2012-10-12T11:43:26Z</time>
      </trkpt>
      <trkpt lat="43.35797" lon="6.69537">
        <ele>195.77</ele>
        <time>2012-10-12T11:43:30Z</time>
      </trkpt>
      <trkpt lat="43.35798" lon="6.69542">
        <ele>193.84</ele>
        <time>2012-10-12T11:43:31Z</time>
      </trkpt>
      <trkpt lat="43.35798" lon="6.69549">
        <ele>193.36</ele>
        <time>2012-10-12T11:43:32Z</time>
      </trkpt>
      <trkpt lat="43.35796" lon="6.69555">
        <ele>192.88</ele>
        <time>2012-10-12T11:43:33Z</time>
      </trkpt>
      <trkpt lat="43.35787" lon="6.6958">
        <ele>193.36</ele>
        <time>2012-10-12T11:43:37Z</time>
      </trkpt>
      <trkpt lat="43.35786" lon="6.69587">
        <ele>192.4</ele>
        <time>2012-10-12T11:43:38Z</time>
      </trkpt>
      <trkpt lat="43.35785" lon="6.69595">
        <ele>191.92</ele>
        <time>2012-10-12T11:43:39Z</time>
      </trkpt>
      <trkpt lat="43.35783" lon="6.69604">
        <ele>190.96</ele>
        <time>2012-10-12T11:43:40Z</time>
      </trkpt>
      <trkpt lat="43.35779" lon="6.69611">
        <ele>189.52</ele>
        <time>2012-10-12T11:43:41Z</time>
      </trkpt>
      <trkpt lat="43.35774" lon="6.69619">
        <ele>189.04</ele>
        <time>2012-10-12T11:43:42Z</time>
      </trkpt>
      <trkpt lat="43.35769" lon="6.69627">
        <ele>189.04</ele>
        <time>2012-10-12T11:43:43Z</time>
      </trkpt>
      <trkpt lat="43.35766" lon="6.69635">
        <ele>189.52</ele>
        <time>2012-10-12T11:43:44Z</time>
      </trkpt>
      <trkpt lat="43.35764" lon="6.69643">
        <ele>190</ele>
        <time>2012-10-12T11:43:45Z</time>
      </trkpt>
      <trkpt lat="43.35763" lon="6.69651">
        <ele>189.52</ele>
        <time>2012-10-12T11:43:46Z</time>
      </trkpt>
      <trkpt lat="43.3576" lon="6.69667">
        <ele>190</ele>
        <time>2012-10-12T11:43:48Z</time>
      </trkpt>
      <trkpt lat="43.35759" lon="6.69709">
        <ele>190.48</ele>
        <time>2012-10-12T11:43:55Z</time>
      </trkpt>
      <trkpt lat="43.35761" lon="6.6971">
        <ele>190</ele>
        <time>2012-10-12T11:44:08Z</time>
      </trkpt>
      <trkpt lat="43.3576" lon="6.6971">
        <ele>190.48</ele>
        <time>2012-10-12T11:44:31Z</time>
      </trkpt>
      <trkpt lat="43.35761" lon="6.6971">
        <ele>190</ele>
        <time>2012-10-12T11:44:54Z</time>
      </trkpt>
      <trkpt lat="43.35761" lon="6.69709">
        <ele>189.04</ele>
        <time>2012-10-12T11:44:59Z</time>
      </trkpt>
      <trkpt lat="43.35755" lon="6.69721">
        <ele>189.04</ele>
        <time>2012-10-12T11:45:04Z</time>
      </trkpt>
      <trkpt lat="43.35738" lon="6.69724">
        <ele>187.59</ele>
        <time>2012-10-12T11:45:08Z</time>
      </trkpt>
      <trkpt lat="43.35728" lon="6.69719">
        <ele>187.11</ele>
        <time>2012-10-12T11:45:10Z</time>
      </trkpt>
      <trkpt lat="43.35713" lon="6.69721">
        <ele>188.08</ele>
        <time>2012-10-12T11:45:13Z</time>
      </trkpt>
      <trkpt lat="43.35709" lon="6.69724">
        <ele>187.59</ele>
        <time>2012-10-12T11:45:14Z</time>
      </trkpt>
      <trkpt lat="43.35705" lon="6.69727">
        <ele>188.08</ele>
        <time>2012-10-12T11:45:15Z</time>
      </trkpt>
      <trkpt lat="43.35702" lon="6.69731">
        <ele>188.08</ele>
        <time>2012-10-12T11:45:16Z</time>
      </trkpt>
      <trkpt lat="43.35674" lon="6.69765">
        <ele>189.52</ele>
        <time>2012-10-12T11:45:26Z</time>
      </trkpt>
      <trkpt lat="43.35663" lon="6.69791">
        <ele>189.04</ele>
        <time>2012-10-12T11:45:32Z</time>
      </trkpt>
      <trkpt lat="43.35661" lon="6.69796">
        <ele>188.56</ele>
        <time>2012-10-12T11:45:33Z</time>
      </trkpt>
      <trkpt lat="43.35656" lon="6.69807">
        <ele>187.59</ele>
        <time>2012-10-12T11:45:35Z</time>
      </trkpt>
      <trkpt lat="43.35637" lon="6.69857">
        <ele>184.71</ele>
        <time>2012-10-12T11:45:42Z</time>
      </trkpt>
      <trkpt lat="43.35619" lon="6.69891">
        <ele>182.31</ele>
        <time>2012-10-12T11:45:46Z</time>
      </trkpt>
      <trkpt lat="43.35592" lon="6.69967">
        <ele>179.42</ele>
        <time>2012-10-12T11:45:54Z</time>
      </trkpt>
      <trkpt lat="43.35588" lon="6.6999">
        <ele>178.46</ele>
        <time>2012-10-12T11:45:56Z</time>
      </trkpt>
      <trkpt lat="43.35571" lon="6.70051">
        <ele>178.46</ele>
        <time>2012-10-12T11:46:02Z</time>
      </trkpt>
      <trkpt lat="43.35571" lon="6.70059">
        <ele>179.42</ele>
        <time>2012-10-12T11:46:03Z</time>
      </trkpt>
      <trkpt lat="43.35572" lon="6.70068">
        <ele>179.42</ele>
        <time>2012-10-12T11:46:04Z</time>
      </trkpt>
      <trkpt lat="43.35574" lon="6.70075">
        <ele>179.42</ele>
        <time>2012-10-12T11:46:05Z</time>
      </trkpt>
      <trkpt lat="43.35577" lon="6.70083">
        <ele>178.46</ele>
        <time>2012-10-12T11:46:06Z</time>
      </trkpt>
      <trkpt lat="43.3558" lon="6.70091">
        <ele>179.42</ele>
        <time>2012-10-12T11:46:07Z</time>
      </trkpt>
      <trkpt lat="43.35583" lon="6.70098">
        <ele>179.9</ele>
        <time>2012-10-12T11:46:08Z</time>
      </trkpt>
      <trkpt lat="43.35586" lon="6.70105">
        <ele>179.42</ele>
        <time>2012-10-12T11:46:09Z</time>
      </trkpt>
      <trkpt lat="43.35593" lon="6.70119">
        <ele>178.94</ele>
        <time>2012-10-12T11:46:11Z</time>
      </trkpt>
      <trkpt lat="43.35595" lon="6.70125">
        <ele>179.42</ele>
        <time>2012-10-12T11:46:12Z</time>
      </trkpt>
      <trkpt lat="43.35598" lon="6.70131">
        <ele>179.42</ele>
        <time>2012-10-12T11:46:13Z</time>
      </trkpt>
      <trkpt lat="43.35602" lon="6.70137">
        <ele>178.94</ele>
        <time>2012-10-12T11:46:14Z</time>
      </trkpt>
      <trkpt lat="43.35605" lon="6.70144">
        <ele>178.46</ele>
        <time>2012-10-12T11:46:15Z</time>
      </trkpt>
      <trkpt lat="43.35629" lon="6.70217">
        <ele>175.1</ele>
        <time>2012-10-12T11:46:24Z</time>
      </trkpt>
      <trkpt lat="43.35636" lon="6.70236">
        <ele>172.69</ele>
        <time>2012-10-12T11:46:26Z</time>
      </trkpt>
      <trkpt lat="43.35641" lon="6.70245">
        <ele>172.21</ele>
        <time>2012-10-12T11:46:27Z</time>
      </trkpt>
      <trkpt lat="43.35645" lon="6.70255">
        <ele>172.21</ele>
        <time>2012-10-12T11:46:28Z</time>
      </trkpt>
      <trkpt lat="43.35648" lon="6.70266">
        <ele>171.25</ele>
        <time>2012-10-12T11:46:29Z</time>
      </trkpt>
      <trkpt lat="43.35651" lon="6.70277">
        <ele>171.25</ele>
        <time>2012-10-12T11:46:30Z</time>
      </trkpt>
      <trkpt lat="43.35654" lon="6.70286">
        <ele>171.25</ele>
        <time>2012-10-12T11:46:31Z</time>
      </trkpt>
      <trkpt lat="43.35659" lon="6.70295">
        <ele>170.29</ele>
        <time>2012-10-12T11:46:32Z</time>
      </trkpt>
      <trkpt lat="43.35664" lon="6.70304">
        <ele>169.81</ele>
        <time>2012-10-12T11:46:33Z</time>
      </trkpt>
      <trkpt lat="43.35686" lon="6.70337">
        <ele>168.37</ele>
        <time>2012-10-12T11:46:37Z</time>
      </trkpt>
      <trkpt lat="43.35691" lon="6.70346">
        <ele>167.89</ele>
        <time>2012-10-12T11:46:38Z</time>
      </trkpt>
      <trkpt lat="43.35698" lon="6.70368">
        <ele>166.45</ele>
        <time>2012-10-12T11:46:40Z</time>
      </trkpt>
      <trkpt lat="43.35699" lon="6.70379">
        <ele>165.96</ele>
        <time>2012-10-12T11:46:41Z</time>
      </trkpt>
      <trkpt lat="43.35699" lon="6.70389">
        <ele>165.48</ele>
        <time>2012-10-12T11:46:42Z</time>
      </trkpt>
      <trkpt lat="43.35698" lon="6.704">
        <ele>165.96</ele>
        <time>2012-10-12T11:46:43Z</time>
      </trkpt>
      <trkpt lat="43.35698" lon="6.7041">
        <ele>165</ele>
        <time>2012-10-12T11:46:44Z</time>
      </trkpt>
      <trkpt lat="43.35698" lon="6.70419">
        <ele>164.52</ele>
        <time>2012-10-12T11:46:45Z</time>
      </trkpt>
      <trkpt lat="43.357" lon="6.70429">
        <ele>164.04</ele>
        <time>2012-10-12T11:46:46Z</time>
      </trkpt>
      <trkpt lat="43.35704" lon="6.70437">
        <ele>164.52</ele>
        <time>2012-10-12T11:46:47Z</time>
      </trkpt>
      <trkpt lat="43.35709" lon="6.70445">
        <ele>163.56</ele>
        <time>2012-10-12T11:46:48Z</time>
      </trkpt>
      <trkpt lat="43.35715" lon="6.70451">
        <ele>163.08</ele>
        <time>2012-10-12T11:46:49Z</time>
      </trkpt>
      <trkpt lat="43.3572" lon="6.70457">
        <ele>162.6</ele>
        <time>2012-10-12T11:46:50Z</time>
      </trkpt>
      <trkpt lat="43.35723" lon="6.70463">
        <ele>161.64</ele>
        <time>2012-10-12T11:46:51Z</time>
      </trkpt>
      <trkpt lat="43.35727" lon="6.70468">
        <ele>161.16</ele>
        <time>2012-10-12T11:46:52Z</time>
      </trkpt>
      <trkpt lat="43.35732" lon="6.70473">
        <ele>160.2</ele>
        <time>2012-10-12T11:46:53Z</time>
      </trkpt>
      <trkpt lat="43.35737" lon="6.70478">
        <ele>159.24</ele>
        <time>2012-10-12T11:46:54Z</time>
      </trkpt>
      <trkpt lat="43.35742" lon="6.70482">
        <ele>157.31</ele>
        <time>2012-10-12T11:46:55Z</time>
      </trkpt>
      <trkpt lat="43.35749" lon="6.70484">
        <ele>156.83</ele>
        <time>2012-10-12T11:46:56Z</time>
      </trkpt>
      <trkpt lat="43.35762" lon="6.70484">
        <ele>152.99</ele>
        <time>2012-10-12T11:46:58Z</time>
      </trkpt>
      <trkpt lat="43.35769" lon="6.70484">
        <ele>151.54</ele>
        <time>2012-10-12T11:46:59Z</time>
      </trkpt>
      <trkpt lat="43.35776" lon="6.70485">
        <ele>150.1</ele>
        <time>2012-10-12T11:47:00Z</time>
      </trkpt>
      <trkpt lat="43.35783" lon="6.70487">
        <ele>149.14</ele>
        <time>2012-10-12T11:47:01Z</time>
      </trkpt>
      <trkpt lat="43.35789" lon="6.70491">
        <ele>148.66</ele>
        <time>2012-10-12T11:47:02Z</time>
      </trkpt>
      <trkpt lat="43.35795" lon="6.70497">
        <ele>147.7</ele>
        <time>2012-10-12T11:47:03Z</time>
      </trkpt>
      <trkpt lat="43.35802" lon="6.70502">
        <ele>147.7</ele>
        <time>2012-10-12T11:47:04Z</time>
      </trkpt>
      <trkpt lat="43.35806" lon="6.70507">
        <ele>147.7</ele>
        <time>2012-10-12T11:47:05Z</time>
      </trkpt>
      <trkpt lat="43.35811" lon="6.70512">
        <ele>147.7</ele>
        <time>2012-10-12T11:47:06Z</time>
      </trkpt>
      <trkpt lat="43.35823" lon="6.70526">
        <ele>145.3</ele>
        <time>2012-10-12T11:47:09Z</time>
      </trkpt>
      <trkpt lat="43.35827" lon="6.70529">
        <ele>143.85</ele>
        <time>2012-10-12T11:47:10Z</time>
      </trkpt>
      <trkpt lat="43.3584" lon="6.70543">
        <ele>140.97</ele>
        <time>2012-10-12T11:47:14Z</time>
      </trkpt>
      <trkpt lat="43.35849" lon="6.70554">
        <ele>139.05</ele>
        <time>2012-10-12T11:47:17Z</time>
      </trkpt>
      <trkpt lat="43.35862" lon="6.70567">
        <ele>136.16</ele>
        <time>2012-10-12T11:47:21Z</time>
      </trkpt>
      <trkpt lat="43.35866" lon="6.70568">
        <ele>135.68</ele>
        <time>2012-10-12T11:47:22Z</time>
      </trkpt>
      <trkpt lat="43.35871" lon="6.70568">
        <ele>134.24</ele>
        <time>2012-10-12T11:47:23Z</time>
      </trkpt>
      <trkpt lat="43.35877" lon="6.70567">
        <ele>133.76</ele>
        <time>2012-10-12T11:47:24Z</time>
      </trkpt>
      <trkpt lat="43.35883" lon="6.70566">
        <ele>132.32</ele>
        <time>2012-10-12T11:47:25Z</time>
      </trkpt>
      <trkpt lat="43.35889" lon="6.70566">
        <ele>132.32</ele>
        <time>2012-10-12T11:47:26Z</time>
      </trkpt>
      <trkpt lat="43.35894" lon="6.70569">
        <ele>131.84</ele>
        <time>2012-10-12T11:47:27Z</time>
      </trkpt>
      <trkpt lat="43.35897" lon="6.70573">
        <ele>131.84</ele>
        <time>2012-10-12T11:47:28Z</time>
      </trkpt>
      <trkpt lat="43.35901" lon="6.70579">
        <ele>130.4</ele>
        <time>2012-10-12T11:47:29Z</time>
      </trkpt>
      <trkpt lat="43.35905" lon="6.70584">
        <ele>129.92</ele>
        <time>2012-10-12T11:47:30Z</time>
      </trkpt>
      <trkpt lat="43.3591" lon="6.70589">
        <ele>128.95</ele>
        <time>2012-10-12T11:47:31Z</time>
      </trkpt>
      <trkpt lat="43.35919" lon="6.70596">
        <ele>128.47</ele>
        <time>2012-10-12T11:47:33Z</time>
      </trkpt>
      <trkpt lat="43.35924" lon="6.70597">
        <ele>127.99</ele>
        <time>2012-10-12T11:47:34Z</time>
      </trkpt>
      <trkpt lat="43.35929" lon="6.70593">
        <ele>127.03</ele>
        <time>2012-10-12T11:47:35Z</time>
      </trkpt>
      <trkpt lat="43.35933" lon="6.70589">
        <ele>125.59</ele>
        <time>2012-10-12T11:47:36Z</time>
      </trkpt>
      <trkpt lat="43.35938" lon="6.70585">
        <ele>125.59</ele>
        <time>2012-10-12T11:47:37Z</time>
      </trkpt>
      <trkpt lat="43.35942" lon="6.70581">
        <ele>125.11</ele>
        <time>2012-10-12T11:47:38Z</time>
      </trkpt>
      <trkpt lat="43.35946" lon="6.7058">
        <ele>124.15</ele>
        <time>2012-10-12T11:47:39Z</time>
      </trkpt>
      <trkpt lat="43.3595" lon="6.70579">
        <ele>124.15</ele>
        <time>2012-10-12T11:47:40Z</time>
      </trkpt>
      <trkpt lat="43.35953" lon="6.7058">
        <ele>123.19</ele>
        <time>2012-10-12T11:47:41Z</time>
      </trkpt>
      <trkpt lat="43.35956" lon="6.70583">
        <ele>122.71</ele>
        <time>2012-10-12T11:47:42Z</time>
      </trkpt>
      <trkpt lat="43.35959" lon="6.70586">
        <ele>122.71</ele>
        <time>2012-10-12T11:47:43Z</time>
      </trkpt>
      <trkpt lat="43.35962" lon="6.7059">
        <ele>121.26</ele>
        <time>2012-10-12T11:47:44Z</time>
      </trkpt>
      <trkpt lat="43.35965" lon="6.70595">
        <ele>120.78</ele>
        <time>2012-10-12T11:47:45Z</time>
      </trkpt>
      <trkpt lat="43.35967" lon="6.706">
        <ele>120.78</ele>
        <time>2012-10-12T11:47:46Z</time>
      </trkpt>
      <trkpt lat="43.35968" lon="6.70605">
        <ele>120.3</ele>
        <time>2012-10-12T11:47:47Z</time>
      </trkpt>
      <trkpt lat="43.35969" lon="6.70611">
        <ele>119.82</ele>
        <time>2012-10-12T11:47:48Z</time>
      </trkpt>
      <trkpt lat="43.35971" lon="6.70615">
        <ele>119.82</ele>
        <time>2012-10-12T11:47:49Z</time>
      </trkpt>
      <trkpt lat="43.35975" lon="6.70617">
        <ele>119.34</ele>
        <time>2012-10-12T11:47:50Z</time>
      </trkpt>
      <trkpt lat="43.35978" lon="6.70618">
        <ele>118.38</ele>
        <time>2012-10-12T11:47:51Z</time>
      </trkpt>
      <trkpt lat="43.35982" lon="6.7062">
        <ele>117.9</ele>
        <time>2012-10-12T11:47:52Z</time>
      </trkpt>
      <trkpt lat="43.35994" lon="6.70624">
        <ele>115.98</ele>
        <time>2012-10-12T11:47:55Z</time>
      </trkpt>
      <trkpt lat="43.36015" lon="6.70632">
        <ele>113.57</ele>
        <time>2012-10-12T11:48:00Z</time>
      </trkpt>
      <trkpt lat="43.36019" lon="6.70633">
        <ele>113.09</ele>
        <time>2012-10-12T11:48:01Z</time>
      </trkpt>
      <trkpt lat="43.36023" lon="6.70633">
        <ele>113.09</ele>
        <time>2012-10-12T11:48:02Z</time>
      </trkpt>
      <trkpt lat="43.36027" lon="6.70632">
        <ele>112.61</ele>
        <time>2012-10-12T11:48:03Z</time>
      </trkpt>
      <trkpt lat="43.36031" lon="6.7063">
        <ele>111.65</ele>
        <time>2012-10-12T11:48:04Z</time>
      </trkpt>
      <trkpt lat="43.36035" lon="6.70628">
        <ele>111.65</ele>
        <time>2012-10-12T11:48:05Z</time>
      </trkpt>
      <trkpt lat="43.3604" lon="6.70628">
        <ele>110.69</ele>
        <time>2012-10-12T11:48:06Z</time>
      </trkpt>
      <trkpt lat="43.36045" lon="6.7063">
        <ele>111.17</ele>
        <time>2012-10-12T11:48:07Z</time>
      </trkpt>
      <trkpt lat="43.36058" lon="6.70636">
        <ele>109.25</ele>
        <time>2012-10-12T11:48:10Z</time>
      </trkpt>
      <trkpt lat="43.36066" lon="6.70642">
        <ele>107.81</ele>
        <time>2012-10-12T11:48:12Z</time>
      </trkpt>
      <trkpt lat="43.3607" lon="6.70644">
        <ele>107.81</ele>
        <time>2012-10-12T11:48:13Z</time>
      </trkpt>
      <trkpt lat="43.36074" lon="6.70646">
        <ele>106.36</ele>
        <time>2012-10-12T11:48:14Z</time>
      </trkpt>
      <trkpt lat="43.36077" lon="6.70648">
        <ele>106.84</ele>
        <time>2012-10-12T11:48:15Z</time>
      </trkpt>
      <trkpt lat="43.36081" lon="6.7065">
        <ele>105.88</ele>
        <time>2012-10-12T11:48:16Z</time>
      </trkpt>
      <trkpt lat="43.36085" lon="6.70652">
        <ele>105.4</ele>
        <time>2012-10-12T11:48:17Z</time>
      </trkpt>
      <trkpt lat="43.36098" lon="6.70658">
        <ele>103.48</ele>
        <time>2012-10-12T11:48:21Z</time>
      </trkpt>
      <trkpt lat="43.36102" lon="6.7066">
        <ele>102.04</ele>
        <time>2012-10-12T11:48:22Z</time>
      </trkpt>
      <trkpt lat="43.36106" lon="6.70663">
        <ele>101.08</ele>
        <time>2012-10-12T11:48:23Z</time>
      </trkpt>
      <trkpt lat="43.3611" lon="6.70665">
        <ele>100.6</ele>
        <time>2012-10-12T11:48:24Z</time>
      </trkpt>
      <trkpt lat="43.36126" lon="6.70677">
        <ele>96.75</ele>
        <time>2012-10-12T11:48:29Z</time>
      </trkpt>
      <trkpt lat="43.36128" lon="6.70679">
        <ele>96.75</ele>
        <time>2012-10-12T11:48:30Z</time>
      </trkpt>
      <trkpt lat="43.36142" lon="6.70687">
        <ele>92.9</ele>
        <time>2012-10-12T11:48:34Z</time>
      </trkpt>
      <trkpt lat="43.36145" lon="6.7069">
        <ele>92.9</ele>
        <time>2012-10-12T11:48:35Z</time>
      </trkpt>
      <trkpt lat="43.36155" lon="6.70701">
        <ele>90.98</ele>
        <time>2012-10-12T11:48:39Z</time>
      </trkpt>
      <trkpt lat="43.36158" lon="6.70704">
        <ele>89.54</ele>
        <time>2012-10-12T11:48:40Z</time>
      </trkpt>
      <trkpt lat="43.36161" lon="6.70708">
        <ele>89.54</ele>
        <time>2012-10-12T11:48:41Z</time>
      </trkpt>
      <trkpt lat="43.36165" lon="6.70713">
        <ele>88.58</ele>
        <time>2012-10-12T11:48:42Z</time>
      </trkpt>
      <trkpt lat="43.36178" lon="6.70738">
        <ele>85.69</ele>
        <time>2012-10-12T11:48:47Z</time>
      </trkpt>
      <trkpt lat="43.3618" lon="6.70742">
        <ele>85.69</ele>
        <time>2012-10-12T11:48:48Z</time>
      </trkpt>
      <trkpt lat="43.36186" lon="6.70755">
        <ele>84.25</ele>
        <time>2012-10-12T11:48:51Z</time>
      </trkpt>
      <trkpt lat="43.36189" lon="6.70761">
        <ele>83.29</ele>
        <time>2012-10-12T11:48:52Z</time>
      </trkpt>
      <trkpt lat="43.362" lon="6.70783">
        <ele>81.37</ele>
        <time>2012-10-12T11:48:56Z</time>
      </trkpt>
      <trkpt lat="43.36204" lon="6.70787">
        <ele>80.89</ele>
        <time>2012-10-12T11:48:57Z</time>
      </trkpt>
      <trkpt lat="43.36207" lon="6.70791">
        <ele>79.93</ele>
        <time>2012-10-12T11:48:58Z</time>
      </trkpt>
      <trkpt lat="43.3621" lon="6.70797">
        <ele>78.97</ele>
        <time>2012-10-12T11:48:59Z</time>
      </trkpt>
      <trkpt lat="43.36213" lon="6.70803">
        <ele>78.48</ele>
        <time>2012-10-12T11:49:00Z</time>
      </trkpt>
      <trkpt lat="43.36216" lon="6.70808">
        <ele>78</ele>
        <time>2012-10-12T11:49:01Z</time>
      </trkpt>
      <trkpt lat="43.36219" lon="6.70812">
        <ele>77.52</ele>
        <time>2012-10-12T11:49:02Z</time>
      </trkpt>
      <trkpt lat="43.36221" lon="6.70814">
        <ele>77.52</ele>
        <time>2012-10-12T11:49:03Z</time>
      </trkpt>
      <trkpt lat="43.36224" lon="6.70816">
        <ele>77.04</ele>
        <time>2012-10-12T11:49:04Z</time>
      </trkpt>
      <trkpt lat="43.36226" lon="6.70818">
        <ele>76.56</ele>
        <time>2012-10-12T11:49:05Z</time>
      </trkpt>
      <trkpt lat="43.3624" lon="6.70831">
        <ele>76.08</ele>
        <time>2012-10-12T11:49:15Z</time>
      </trkpt>
      <trkpt lat="43.3624" lon="6.70831">
        <ele>76.08</ele>
        <time>2012-10-12T11:49:18Z</time>
      </trkpt>
      <trkpt lat="43.36242" lon="6.70833">
        <ele>75.6</ele>
        <time>2012-10-12T11:49:19Z</time>
      </trkpt>
      <trkpt lat="43.36243" lon="6.70834">
        <ele>75.6</ele>
        <time>2012-10-12T11:49:24Z</time>
      </trkpt>
      <trkpt lat="43.36245" lon="6.70837">
        <ele>75.12</ele>
        <time>2012-10-12T11:49:25Z</time>
      </trkpt>
      <trkpt lat="43.36247" lon="6.70839">
        <ele>75.12</ele>
        <time>2012-10-12T11:49:26Z</time>
      </trkpt>
      <trkpt lat="43.36249" lon="6.70842">
        <ele>74.64</ele>
        <time>2012-10-12T11:49:27Z</time>
      </trkpt>
      <trkpt lat="43.3625" lon="6.70845">
        <ele>74.64</ele>
        <time>2012-10-12T11:49:28Z</time>
      </trkpt>
      <trkpt lat="43.36253" lon="6.70848">
        <ele>74.64</ele>
        <time>2012-10-12T11:49:29Z</time>
      </trkpt>
      <trkpt lat="43.36258" lon="6.70855">
        <ele>73.68</ele>
        <time>2012-10-12T11:49:37Z</time>
      </trkpt>
      <trkpt lat="43.36262" lon="6.7086">
        <ele>74.16</ele>
        <time>2012-10-12T11:49:51Z</time>
      </trkpt>
      <trkpt lat="43.36263" lon="6.70864">
        <ele>73.68</ele>
        <time>2012-10-12T11:50:02Z</time>
      </trkpt>
      <trkpt lat="43.36269" lon="6.70872">
        <ele>73.2</ele>
        <time>2012-10-12T11:50:09Z</time>
      </trkpt>
      <trkpt lat="43.36272" lon="6.70874">
        <ele>72.72</ele>
        <time>2012-10-12T11:50:17Z</time>
      </trkpt>
      <trkpt lat="43.36283" lon="6.70892">
        <ele>71.27</ele>
        <time>2012-10-12T11:50:25Z</time>
      </trkpt>
      <trkpt lat="43.36299" lon="6.70917">
        <ele>70.31</ele>
        <time>2012-10-12T11:50:34Z</time>
      </trkpt>
      <trkpt lat="43.36304" lon="6.7092">
        <ele>67.91</ele>
        <time>2012-10-12T11:50:36Z</time>
      </trkpt>
      <trkpt lat="43.36307" lon="6.70919">
        <ele>67.91</ele>
        <time>2012-10-12T11:50:37Z</time>
      </trkpt>
      <trkpt lat="43.36309" lon="6.70915">
        <ele>67.43</ele>
        <time>2012-10-12T11:50:38Z</time>
      </trkpt>
      <trkpt lat="43.36311" lon="6.70911">
        <ele>66.95</ele>
        <time>2012-10-12T11:50:39Z</time>
      </trkpt>
      <trkpt lat="43.36313" lon="6.70909">
        <ele>66.47</ele>
        <time>2012-10-12T11:50:40Z</time>
      </trkpt>
      <trkpt lat="43.36314" lon="6.70907">
        <ele>66.47</ele>
        <time>2012-10-12T11:50:41Z</time>
      </trkpt>
      <trkpt lat="43.36317" lon="6.70905">
        <ele>66.95</ele>
        <time>2012-10-12T11:50:42Z</time>
      </trkpt>
      <trkpt lat="43.3632" lon="6.70903">
        <ele>65.99</ele>
        <time>2012-10-12T11:50:43Z</time>
      </trkpt>
      <trkpt lat="43.36321" lon="6.70901">
        <ele>65.99</ele>
        <time>2012-10-12T11:50:44Z</time>
      </trkpt>
      <trkpt lat="43.36324" lon="6.70897">
        <ele>64.55</ele>
        <time>2012-10-12T11:50:48Z</time>
      </trkpt>
      <trkpt lat="43.36325" lon="6.70895">
        <ele>64.55</ele>
        <time>2012-10-12T11:50:49Z</time>
      </trkpt>
      <trkpt lat="43.36326" lon="6.70894">
        <ele>64.55</ele>
        <time>2012-10-12T11:50:50Z</time>
      </trkpt>
      <trkpt lat="43.36327" lon="6.70892">
        <ele>64.07</ele>
        <time>2012-10-12T11:50:51Z</time>
      </trkpt>
      <trkpt lat="43.36329" lon="6.7089">
        <ele>62.62</ele>
        <time>2012-10-12T11:50:52Z</time>
      </trkpt>
      <trkpt lat="43.36331" lon="6.70886">
        <ele>62.14</ele>
        <time>2012-10-12T11:50:53Z</time>
      </trkpt>
      <trkpt lat="43.36334" lon="6.70881">
        <ele>61.66</ele>
        <time>2012-10-12T11:50:54Z</time>
      </trkpt>
      <trkpt lat="43.36336" lon="6.70875">
        <ele>61.18</ele>
        <time>2012-10-12T11:50:55Z</time>
      </trkpt>
      <trkpt lat="43.36336" lon="6.7087">
        <ele>61.66</ele>
        <time>2012-10-12T11:50:56Z</time>
      </trkpt>
      <trkpt lat="43.36336" lon="6.70865">
        <ele>60.22</ele>
        <time>2012-10-12T11:50:57Z</time>
      </trkpt>
      <trkpt lat="43.36337" lon="6.70861">
        <ele>60.7</ele>
        <time>2012-10-12T11:50:58Z</time>
      </trkpt>
      <trkpt lat="43.36338" lon="6.70858">
        <ele>60.7</ele>
        <time>2012-10-12T11:50:59Z</time>
      </trkpt>
      <trkpt lat="43.36338" lon="6.70856">
        <ele>60.7</ele>
        <time>2012-10-12T11:51:00Z</time>
      </trkpt>
      <trkpt lat="43.36338" lon="6.70853">
        <ele>60.22</ele>
        <time>2012-10-12T11:51:01Z</time>
      </trkpt>
      <trkpt lat="43.36337" lon="6.7085">
        <ele>59.26</ele>
        <time>2012-10-12T11:51:02Z</time>
      </trkpt>
      <trkpt lat="43.36337" lon="6.70847">
        <ele>58.78</ele>
        <time>2012-10-12T11:51:03Z</time>
      </trkpt>
      <trkpt lat="43.36335" lon="6.70832">
        <ele>58.3</ele>
        <time>2012-10-12T11:51:06Z</time>
      </trkpt>
      <trkpt lat="43.36334" lon="6.70827">
        <ele>57.82</ele>
        <time>2012-10-12T11:51:07Z</time>
      </trkpt>
      <trkpt lat="43.36334" lon="6.70825">
        <ele>57.82</ele>
        <time>2012-10-12T11:51:08Z</time>
      </trkpt>
      <trkpt lat="43.36336" lon="6.70822">
        <ele>56.37</ele>
        <time>2012-10-12T11:51:09Z</time>
      </trkpt>
      <trkpt lat="43.36339" lon="6.7082">
        <ele>56.86</ele>
        <time>2012-10-12T11:51:10Z</time>
      </trkpt>
      <trkpt lat="43.36344" lon="6.70815">
        <ele>53.49</ele>
        <time>2012-10-12T11:51:12Z</time>
      </trkpt>
      <trkpt lat="43.36347" lon="6.70816">
        <ele>53.49</ele>
        <time>2012-10-12T11:51:13Z</time>
      </trkpt>
      <trkpt lat="43.3635" lon="6.7082">
        <ele>53.49</ele>
        <time>2012-10-12T11:51:14Z</time>
      </trkpt>
      <trkpt lat="43.36356" lon="6.70829">
        <ele>52.05</ele>
        <time>2012-10-12T11:51:16Z</time>
      </trkpt>
      <trkpt lat="43.3636" lon="6.70834">
        <ele>50.61</ele>
        <time>2012-10-12T11:51:17Z</time>
      </trkpt>
      <trkpt lat="43.36365" lon="6.7084">
        <ele>50.61</ele>
        <time>2012-10-12T11:51:18Z</time>
      </trkpt>
      <trkpt lat="43.36374" lon="6.7085">
        <ele>49.65</ele>
        <time>2012-10-12T11:51:20Z</time>
      </trkpt>
      <trkpt lat="43.36378" lon="6.70854">
        <ele>49.16</ele>
        <time>2012-10-12T11:51:21Z</time>
      </trkpt>
      <trkpt lat="43.36383" lon="6.70858">
        <ele>48.68</ele>
        <time>2012-10-12T11:51:22Z</time>
      </trkpt>
      <trkpt lat="43.36386" lon="6.70861">
        <ele>48.68</ele>
        <time>2012-10-12T11:51:23Z</time>
      </trkpt>
      <trkpt lat="43.3639" lon="6.70864">
        <ele>48.2</ele>
        <time>2012-10-12T11:51:24Z</time>
      </trkpt>
      <trkpt lat="43.364" lon="6.70869">
        <ele>46.76</ele>
        <time>2012-10-12T11:51:27Z</time>
      </trkpt>
      <trkpt lat="43.36401" lon="6.70867">
        <ele>46.28</ele>
        <time>2012-10-12T11:51:35Z</time>
      </trkpt>
      <trkpt lat="43.36402" lon="6.70867">
        <ele>46.76</ele>
        <time>2012-10-12T11:51:52Z</time>
      </trkpt>
      <trkpt lat="43.36402" lon="6.70867">
        <ele>46.76</ele>
        <time>2012-10-12T11:52:12Z</time>
      </trkpt>
      <trkpt lat="43.36402" lon="6.70867">
        <ele>47.72</ele>
        <time>2012-10-12T11:52:25Z</time>
      </trkpt>
      <trkpt lat="43.36404" lon="6.70867">
        <ele>47.72</ele>
        <time>2012-10-12T11:52:26Z</time>
      </trkpt>
      <trkpt lat="43.36406" lon="6.70868">
        <ele>46.76</ele>
        <time>2012-10-12T11:52:27Z</time>
      </trkpt>
      <trkpt lat="43.36417" lon="6.7087">
        <ele>45.32</ele>
        <time>2012-10-12T11:52:30Z</time>
      </trkpt>
      <trkpt lat="43.36433" lon="6.70871">
        <ele>43.4</ele>
        <time>2012-10-12T11:52:34Z</time>
      </trkpt>
      <trkpt lat="43.36437" lon="6.70871">
        <ele>42.44</ele>
        <time>2012-10-12T11:52:35Z</time>
      </trkpt>
      <trkpt lat="43.3644" lon="6.70869">
        <ele>40.99</ele>
        <time>2012-10-12T11:52:36Z</time>
      </trkpt>
      <trkpt lat="43.36443" lon="6.70866">
        <ele>39.55</ele>
        <time>2012-10-12T11:52:37Z</time>
      </trkpt>
      <trkpt lat="43.36444" lon="6.7086">
        <ele>39.07</ele>
        <time>2012-10-12T11:52:38Z</time>
      </trkpt>
      <trkpt lat="43.36443" lon="6.70853">
        <ele>38.11</ele>
        <time>2012-10-12T11:52:39Z</time>
      </trkpt>
      <trkpt lat="43.36442" lon="6.70846">
        <ele>37.15</ele>
        <time>2012-10-12T11:52:40Z</time>
      </trkpt>
      <trkpt lat="43.36442" lon="6.70838">
        <ele>36.67</ele>
        <time>2012-10-12T11:52:41Z</time>
      </trkpt>
      <trkpt lat="43.36441" lon="6.70814">
        <ele>35.71</ele>
        <time>2012-10-12T11:52:44Z</time>
      </trkpt>
      <trkpt lat="43.36443" lon="6.70797">
        <ele>35.23</ele>
        <time>2012-10-12T11:52:46Z</time>
      </trkpt>
      <trkpt lat="43.36445" lon="6.70774">
        <ele>33.78</ele>
        <time>2012-10-12T11:52:49Z</time>
      </trkpt>
      <trkpt lat="43.36446" lon="6.70767">
        <ele>33.3</ele>
        <time>2012-10-12T11:52:50Z</time>
      </trkpt>
      <trkpt lat="43.36448" lon="6.7076">
        <ele>32.34</ele>
        <time>2012-10-12T11:52:51Z</time>
      </trkpt>
      <trkpt lat="43.3645" lon="6.70753">
        <ele>31.86</ele>
        <time>2012-10-12T11:52:52Z</time>
      </trkpt>
      <trkpt lat="43.36453" lon="6.70746">
        <ele>31.38</ele>
        <time>2012-10-12T11:52:53Z</time>
      </trkpt>
      <trkpt lat="43.36457" lon="6.70741">
        <ele>30.9</ele>
        <time>2012-10-12T11:52:54Z</time>
      </trkpt>
      <trkpt lat="43.36462" lon="6.70737">
        <ele>29.94</ele>
        <time>2012-10-12T11:52:55Z</time>
      </trkpt>
      <trkpt lat="43.36467" lon="6.70735">
        <ele>29.46</ele>
        <time>2012-10-12T11:52:56Z</time>
      </trkpt>
      <trkpt lat="43.36474" lon="6.70735">
        <ele>29.46</ele>
        <time>2012-10-12T11:52:57Z</time>
      </trkpt>
      <trkpt lat="43.36479" lon="6.70735">
        <ele>29.46</ele>
        <time>2012-10-12T11:52:58Z</time>
      </trkpt>
      <trkpt lat="43.36484" lon="6.70737">
        <ele>28.5</ele>
        <time>2012-10-12T11:52:59Z</time>
      </trkpt>
      <trkpt lat="43.36489" lon="6.70741">
        <ele>28.02</ele>
        <time>2012-10-12T11:53:00Z</time>
      </trkpt>
      <trkpt lat="43.36492" lon="6.70747">
        <ele>28.02</ele>
        <time>2012-10-12T11:53:01Z</time>
      </trkpt>
      <trkpt lat="43.36495" lon="6.70753">
        <ele>28.02</ele>
        <time>2012-10-12T11:53:02Z</time>
      </trkpt>
      <trkpt lat="43.36498" lon="6.7076">
        <ele>27.53</ele>
        <time>2012-10-12T11:53:03Z</time>
      </trkpt>
      <trkpt lat="43.365" lon="6.70768">
        <ele>27.05</ele>
        <time>2012-10-12T11:53:04Z</time>
      </trkpt>
      <trkpt lat="43.36501" lon="6.70775">
        <ele>26.57</ele>
        <time>2012-10-12T11:53:05Z</time>
      </trkpt>
      <trkpt lat="43.36502" lon="6.70782">
        <ele>26.09</ele>
        <time>2012-10-12T11:53:06Z</time>
      </trkpt>
      <trkpt lat="43.36504" lon="6.70788">
        <ele>25.61</ele>
        <time>2012-10-12T11:53:07Z</time>
      </trkpt>
      <trkpt lat="43.36507" lon="6.70792">
        <ele>24.65</ele>
        <time>2012-10-12T11:53:08Z</time>
      </trkpt>
      <trkpt lat="43.36515" lon="6.70796">
        <ele>21.77</ele>
        <time>2012-10-12T11:53:10Z</time>
      </trkpt>
      <trkpt lat="43.3652" lon="6.70794">
        <ele>21.29</ele>
        <time>2012-10-12T11:53:11Z</time>
      </trkpt>
      <trkpt lat="43.36525" lon="6.70788">
        <ele>18.88</ele>
        <time>2012-10-12T11:53:12Z</time>
      </trkpt>
      <trkpt lat="43.3653" lon="6.70782">
        <ele>17.44</ele>
        <time>2012-10-12T11:53:13Z</time>
      </trkpt>
      <trkpt lat="43.36537" lon="6.70777">
        <ele>16</ele>
        <time>2012-10-12T11:53:14Z</time>
      </trkpt>
      <trkpt lat="43.36544" lon="6.70776">
        <ele>14.56</ele>
        <time>2012-10-12T11:53:15Z</time>
      </trkpt>
      <trkpt lat="43.36551" lon="6.70776">
        <ele>13.6</ele>
        <time>2012-10-12T11:53:16Z</time>
      </trkpt>
      <trkpt lat="43.36555" lon="6.70776">
        <ele>13.6</ele>
        <time>2012-10-12T11:53:17Z</time>
      </trkpt>
      <trkpt lat="43.36563" lon="6.7076">
        <ele>12.63</ele>
        <time>2012-10-12T11:53:21Z</time>
      </trkpt>
      <trkpt lat="43.36572" lon="6.70738">
        <ele>14.08</ele>
        <time>2012-10-12T11:53:26Z</time>
      </trkpt>
      <trkpt lat="43.36576" lon="6.70736">
        <ele>14.08</ele>
        <time>2012-10-12T11:53:27Z</time>
      </trkpt>
      <trkpt lat="43.36579" lon="6.70734">
        <ele>14.08</ele>
        <time>2012-10-12T11:53:28Z</time>
      </trkpt>
      <trkpt lat="43.36583" lon="6.70734">
        <ele>14.56</ele>
        <time>2012-10-12T11:53:29Z</time>
      </trkpt>
      <trkpt lat="43.36587" lon="6.70735">
        <ele>14.56</ele>
        <time>2012-10-12T11:53:30Z</time>
      </trkpt>
      <trkpt lat="43.3659" lon="6.70737">
        <ele>15.04</ele>
        <time>2012-10-12T11:53:31Z</time>
      </trkpt>
      <trkpt lat="43.36594" lon="6.70739">
        <ele>15.04</ele>
        <time>2012-10-12T11:53:32Z</time>
      </trkpt>
      <trkpt lat="43.36597" lon="6.70743">
        <ele>14.56</ele>
        <time>2012-10-12T11:53:33Z</time>
      </trkpt>
      <trkpt lat="43.36599" lon="6.70747">
        <ele>14.56</ele>
        <time>2012-10-12T11:53:34Z</time>
      </trkpt>
      <trkpt lat="43.36602" lon="6.70751">
        <ele>15.04</ele>
        <time>2012-10-12T11:53:35Z</time>
      </trkpt>
      <trkpt lat="43.36604" lon="6.70756">
        <ele>15.04</ele>
        <time>2012-10-12T11:53:36Z</time>
      </trkpt>
      <trkpt lat="43.36614" lon="6.70775">
        <ele>15.52</ele>
        <time>2012-10-12T11:53:40Z</time>
      </trkpt>
      <trkpt lat="43.36627" lon="6.7079">
        <ele>15.52</ele>
        <time>2012-10-12T11:53:44Z</time>
      </trkpt>
      <trkpt lat="43.36642" lon="6.708">
        <ele>16</ele>
        <time>2012-10-12T11:53:48Z</time>
      </trkpt>
      <trkpt lat="43.36647" lon="6.708">
        <ele>16</ele>
        <time>2012-10-12T11:53:49Z</time>
      </trkpt>
      <trkpt lat="43.3668" lon="6.70795">
        <ele>18.88</ele>
        <time>2012-10-12T11:53:59Z</time>
      </trkpt>
      <trkpt lat="43.36709" lon="6.70768">
        <ele>18.4</ele>
        <time>2012-10-12T11:54:09Z</time>
      </trkpt>
      <trkpt lat="43.36712" lon="6.70763">
        <ele>18.88</ele>
        <time>2012-10-12T11:54:10Z</time>
      </trkpt>
      <trkpt lat="43.36723" lon="6.70718">
        <ele>19.36</ele>
        <time>2012-10-12T11:54:19Z</time>
      </trkpt>
      <trkpt lat="43.36729" lon="6.70663">
        <ele>18.88</ele>
        <time>2012-10-12T11:54:30Z</time>
      </trkpt>
      <trkpt lat="43.36731" lon="6.70644">
        <ele>18.4</ele>
        <time>2012-10-12T11:54:33Z</time>
      </trkpt>
      <trkpt lat="43.36734" lon="6.70638">
        <ele>17.44</ele>
        <time>2012-10-12T11:54:34Z</time>
      </trkpt>
      <trkpt lat="43.36737" lon="6.70633">
        <ele>16.48</ele>
        <time>2012-10-12T11:54:35Z</time>
      </trkpt>
      <trkpt lat="43.36741" lon="6.70629">
        <ele>16</ele>
        <time>2012-10-12T11:54:36Z</time>
      </trkpt>
      <trkpt lat="43.36746" lon="6.70627">
        <ele>15.52</ele>
        <time>2012-10-12T11:54:37Z</time>
      </trkpt>
      <trkpt lat="43.36752" lon="6.70628">
        <ele>14.56</ele>
        <time>2012-10-12T11:54:38Z</time>
      </trkpt>
      <trkpt lat="43.36757" lon="6.70631">
        <ele>14.08</ele>
        <time>2012-10-12T11:54:39Z</time>
      </trkpt>
      <trkpt lat="43.36762" lon="6.70637">
        <ele>14.08</ele>
        <time>2012-10-12T11:54:40Z</time>
      </trkpt>
      <trkpt lat="43.36766" lon="6.70644">
        <ele>14.08</ele>
        <time>2012-10-12T11:54:41Z</time>
      </trkpt>
      <trkpt lat="43.36769" lon="6.7065">
        <ele>14.08</ele>
        <time>2012-10-12T11:54:42Z</time>
      </trkpt>
      <trkpt lat="43.36773" lon="6.70653">
        <ele>14.08</ele>
        <time>2012-10-12T11:54:43Z</time>
      </trkpt>
      <trkpt lat="43.36777" lon="6.70653">
        <ele>14.08</ele>
        <time>2012-10-12T11:54:44Z</time>
      </trkpt>
      <trkpt lat="43.3678" lon="6.70649">
        <ele>13.12</ele>
        <time>2012-10-12T11:54:45Z</time>
      </trkpt>
      <trkpt lat="43.36783" lon="6.70645">
        <ele>12.63</ele>
        <time>2012-10-12T11:54:46Z</time>
      </trkpt>
      <trkpt lat="43.36786" lon="6.70639">
        <ele>12.15</ele>
        <time>2012-10-12T11:54:47Z</time>
      </trkpt>
      <trkpt lat="43.36788" lon="6.70634">
        <ele>11.67</ele>
        <time>2012-10-12T11:54:48Z</time>
      </trkpt>
      <trkpt lat="43.36796" lon="6.70607">
        <ele>12.15</ele>
        <time>2012-10-12T11:54:52Z</time>
      </trkpt>
      <trkpt lat="43.36796" lon="6.70601">
        <ele>12.15</ele>
        <time>2012-10-12T11:54:53Z</time>
      </trkpt>
      <trkpt lat="43.36795" lon="6.70594">
        <ele>12.63</ele>
        <time>2012-10-12T11:54:54Z</time>
      </trkpt>
      <trkpt lat="43.36791" lon="6.70567">
        <ele>13.6</ele>
        <time>2012-10-12T11:54:59Z</time>
      </trkpt>
      <trkpt lat="43.36793" lon="6.70562">
        <ele>12.63</ele>
        <time>2012-10-12T11:55:00Z</time>
      </trkpt>
      <trkpt lat="43.36796" lon="6.70551">
        <ele>12.15</ele>
        <time>2012-10-12T11:55:02Z</time>
      </trkpt>
      <trkpt lat="43.36797" lon="6.70546">
        <ele>12.15</ele>
        <time>2012-10-12T11:55:03Z</time>
      </trkpt>
      <trkpt lat="43.36796" lon="6.7054">
        <ele>12.15</ele>
        <time>2012-10-12T11:55:04Z</time>
      </trkpt>
      <trkpt lat="43.36793" lon="6.70526">
        <ele>11.19</ele>
        <time>2012-10-12T11:55:06Z</time>
      </trkpt>
      <trkpt lat="43.36792" lon="6.70513">
        <ele>11.19</ele>
        <time>2012-10-12T11:55:08Z</time>
      </trkpt>
      <trkpt lat="43.36792" lon="6.70507">
        <ele>11.67</ele>
        <time>2012-10-12T11:55:09Z</time>
      </trkpt>
      <trkpt lat="43.36792" lon="6.705">
        <ele>12.15</ele>
        <time>2012-10-12T11:55:10Z</time>
      </trkpt>
      <trkpt lat="43.36793" lon="6.70493">
        <ele>12.15</ele>
        <time>2012-10-12T11:55:11Z</time>
      </trkpt>
      <trkpt lat="43.36794" lon="6.70486">
        <ele>11.67</ele>
        <time>2012-10-12T11:55:12Z</time>
      </trkpt>
      <trkpt lat="43.36798" lon="6.70455">
        <ele>12.15</ele>
        <time>2012-10-12T11:55:17Z</time>
      </trkpt>
      <trkpt lat="43.36799" lon="6.70449">
        <ele>12.15</ele>
        <time>2012-10-12T11:55:18Z</time>
      </trkpt>
      <trkpt lat="43.368" lon="6.70444">
        <ele>12.63</ele>
        <time>2012-10-12T11:55:19Z</time>
      </trkpt>
      <trkpt lat="43.36801" lon="6.70439">
        <ele>12.63</ele>
        <time>2012-10-12T11:55:20Z</time>
      </trkpt>
      <trkpt lat="43.36803" lon="6.70434">
        <ele>13.12</ele>
        <time>2012-10-12T11:55:21Z</time>
      </trkpt>
      <trkpt lat="43.36805" lon="6.7043">
        <ele>12.63</ele>
        <time>2012-10-12T11:55:22Z</time>
      </trkpt>
      <trkpt lat="43.36809" lon="6.70429">
        <ele>12.63</ele>
        <time>2012-10-12T11:55:23Z</time>
      </trkpt>
      <trkpt lat="43.36812" lon="6.70429">
        <ele>13.12</ele>
        <time>2012-10-12T11:55:24Z</time>
      </trkpt>
      <trkpt lat="43.36816" lon="6.70431">
        <ele>13.12</ele>
        <time>2012-10-12T11:55:25Z</time>
      </trkpt>
      <trkpt lat="43.36836" lon="6.7044">
        <ele>16.48</ele>
        <time>2012-10-12T11:55:34Z</time>
      </trkpt>
      <trkpt lat="43.36854" lon="6.70457">
        <ele>17.92</ele>
        <time>2012-10-12T11:55:44Z</time>
      </trkpt>
      <trkpt lat="43.36871" lon="6.70486">
        <ele>19.84</ele>
        <time>2012-10-12T11:55:56Z</time>
      </trkpt>
      <trkpt lat="43.3688" lon="6.70511">
        <ele>20.81</ele>
        <time>2012-10-12T11:56:06Z</time>
      </trkpt>
      <trkpt lat="43.3688" lon="6.70516">
        <ele>21.77</ele>
        <time>2012-10-12T11:56:08Z</time>
      </trkpt>
      <trkpt lat="43.36882" lon="6.70533">
        <ele>24.17</ele>
        <time>2012-10-12T11:56:17Z</time>
      </trkpt>
      <trkpt lat="43.36883" lon="6.70535">
        <ele>24.17</ele>
        <time>2012-10-12T11:56:18Z</time>
      </trkpt>
      <trkpt lat="43.36884" lon="6.70537">
        <ele>25.13</ele>
        <time>2012-10-12T11:56:19Z</time>
      </trkpt>
      <trkpt lat="43.36884" lon="6.70543">
        <ele>25.13</ele>
        <time>2012-10-12T11:56:22Z</time>
      </trkpt>
      <trkpt lat="43.36884" lon="6.70544">
        <ele>26.09</ele>
        <time>2012-10-12T11:56:23Z</time>
      </trkpt>
      <trkpt lat="43.36886" lon="6.70552">
        <ele>27.05</ele>
        <time>2012-10-12T11:56:27Z</time>
      </trkpt>
      <trkpt lat="43.36887" lon="6.70553">
        <ele>27.05</ele>
        <time>2012-10-12T11:56:28Z</time>
      </trkpt>
      <trkpt lat="43.36889" lon="6.70553">
        <ele>27.53</ele>
        <time>2012-10-12T11:56:29Z</time>
      </trkpt>
      <trkpt lat="43.3689" lon="6.70553">
        <ele>27.53</ele>
        <time>2012-10-12T11:56:30Z</time>
      </trkpt>
      <trkpt lat="43.36892" lon="6.70552">
        <ele>27.53</ele>
        <time>2012-10-12T11:56:31Z</time>
      </trkpt>
      <trkpt lat="43.36893" lon="6.70552">
        <ele>27.53</ele>
        <time>2012-10-12T11:56:32Z</time>
      </trkpt>
      <trkpt lat="43.36894" lon="6.70552">
        <ele>28.02</ele>
        <time>2012-10-12T11:56:33Z</time>
      </trkpt>
      <trkpt lat="43.36895" lon="6.70552">
        <ele>28.02</ele>
        <time>2012-10-12T11:56:34Z</time>
      </trkpt>
      <trkpt lat="43.36902" lon="6.70548">
        <ele>30.42</ele>
        <time>2012-10-12T11:56:40Z</time>
      </trkpt>
      <trkpt lat="43.36904" lon="6.70548">
        <ele>30.42</ele>
        <time>2012-10-12T11:56:41Z</time>
      </trkpt>
      <trkpt lat="43.36905" lon="6.70548">
        <ele>30.9</ele>
        <time>2012-10-12T11:56:42Z</time>
      </trkpt>
      <trkpt lat="43.36906" lon="6.70547">
        <ele>30.9</ele>
        <time>2012-10-12T11:56:43Z</time>
      </trkpt>
      <trkpt lat="43.36907" lon="6.70546">
        <ele>32.34</ele>
        <time>2012-10-12T11:56:44Z</time>
      </trkpt>
      <trkpt lat="43.36909" lon="6.70545">
        <ele>32.34</ele>
        <time>2012-10-12T11:56:45Z</time>
      </trkpt>
      <trkpt lat="43.3691" lon="6.70544">
        <ele>32.34</ele>
        <time>2012-10-12T11:56:46Z</time>
      </trkpt>
      <trkpt lat="43.36911" lon="6.70544">
        <ele>33.3</ele>
        <time>2012-10-12T11:56:47Z</time>
      </trkpt>
      <trkpt lat="43.36913" lon="6.70544">
        <ele>33.78</ele>
        <time>2012-10-12T11:56:48Z</time>
      </trkpt>
      <trkpt lat="43.36914" lon="6.70543">
        <ele>33.78</ele>
        <time>2012-10-12T11:56:49Z</time>
      </trkpt>
      <trkpt lat="43.36929" lon="6.70535">
        <ele>36.67</ele>
        <time>2012-10-12T11:57:01Z</time>
      </trkpt>
      <trkpt lat="43.3694" lon="6.70528">
        <ele>39.55</ele>
        <time>2012-10-12T11:57:12Z</time>
      </trkpt>
      <trkpt lat="43.36956" lon="6.70519">
        <ele>42.44</ele>
        <time>2012-10-12T11:57:24Z</time>
      </trkpt>
      <trkpt lat="43.36975" lon="6.70511">
        <ele>45.32</ele>
        <time>2012-10-12T11:57:37Z</time>
      </trkpt>
      <trkpt lat="43.36995" lon="6.70495">
        <ele>47.24</ele>
        <time>2012-10-12T11:57:49Z</time>
      </trkpt>
      <trkpt lat="43.37015" lon="6.70468">
        <ele>50.13</ele>
        <time>2012-10-12T11:58:01Z</time>
      </trkpt>
      <trkpt lat="43.37033" lon="6.70442">
        <ele>52.05</ele>
        <time>2012-10-12T11:58:12Z</time>
      </trkpt>
      <trkpt lat="43.37052" lon="6.70413">
        <ele>53.01</ele>
        <time>2012-10-12T11:58:23Z</time>
      </trkpt>
      <trkpt lat="43.37071" lon="6.70381">
        <ele>55.89</ele>
        <time>2012-10-12T11:58:33Z</time>
      </trkpt>
      <trkpt lat="43.37091" lon="6.70354">
        <ele>55.89</ele>
        <time>2012-10-12T11:58:42Z</time>
      </trkpt>
      <trkpt lat="43.371" lon="6.70326">
        <ele>55.41</ele>
        <time>2012-10-12T11:58:48Z</time>
      </trkpt>
      <trkpt lat="43.37119" lon="6.70263">
        <ele>56.37</ele>
        <time>2012-10-12T11:59:00Z</time>
      </trkpt>
      <trkpt lat="43.37127" lon="6.70235">
        <ele>58.3</ele>
        <time>2012-10-12T11:59:07Z</time>
      </trkpt>
      <trkpt lat="43.37139" lon="6.70203">
        <ele>61.66</ele>
        <time>2012-10-12T11:59:14Z</time>
      </trkpt>
      <trkpt lat="43.37142" lon="6.70199">
        <ele>61.66</ele>
        <time>2012-10-12T11:59:15Z</time>
      </trkpt>
      <trkpt lat="43.37157" lon="6.70188">
        <ele>62.62</ele>
        <time>2012-10-12T11:59:23Z</time>
      </trkpt>
      <trkpt lat="43.37169" lon="6.70184">
        <ele>63.58</ele>
        <time>2012-10-12T11:59:30Z</time>
      </trkpt>
      <trkpt lat="43.37171" lon="6.70184">
        <ele>63.1</ele>
        <time>2012-10-12T11:59:31Z</time>
      </trkpt>
      <trkpt lat="43.37198" lon="6.70175">
        <ele>65.51</ele>
        <time>2012-10-12T11:59:45Z</time>
      </trkpt>
      <trkpt lat="43.37216" lon="6.70168">
        <ele>66.47</ele>
        <time>2012-10-12T11:59:56Z</time>
      </trkpt>
      <trkpt lat="43.37229" lon="6.70165">
        <ele>68.87</ele>
        <time>2012-10-12T12:00:04Z</time>
      </trkpt>
      <trkpt lat="43.3723" lon="6.70164">
        <ele>68.87</ele>
        <time>2012-10-12T12:00:05Z</time>
      </trkpt>
      <trkpt lat="43.37231" lon="6.70163">
        <ele>68.87</ele>
        <time>2012-10-12T12:00:06Z</time>
      </trkpt>
      <trkpt lat="43.37233" lon="6.70163">
        <ele>68.87</ele>
        <time>2012-10-12T12:00:07Z</time>
      </trkpt>
      <trkpt lat="43.37235" lon="6.70163">
        <ele>69.35</ele>
        <time>2012-10-12T12:00:08Z</time>
      </trkpt>
      <trkpt lat="43.37237" lon="6.70163">
        <ele>69.83</ele>
        <time>2012-10-12T12:00:09Z</time>
      </trkpt>
      <trkpt lat="43.37239" lon="6.70163">
        <ele>70.31</ele>
        <time>2012-10-12T12:00:10Z</time>
      </trkpt>
      <trkpt lat="43.3724" lon="6.70163">
        <ele>70.31</ele>
        <time>2012-10-12T12:00:11Z</time>
      </trkpt>
      <trkpt lat="43.37242" lon="6.70162">
        <ele>70.79</ele>
        <time>2012-10-12T12:00:12Z</time>
      </trkpt>
      <trkpt lat="43.37244" lon="6.70163">
        <ele>70.31</ele>
        <time>2012-10-12T12:00:13Z</time>
      </trkpt>
      <trkpt lat="43.37246" lon="6.70163">
        <ele>70.31</ele>
        <time>2012-10-12T12:00:14Z</time>
      </trkpt>
      <trkpt lat="43.37248" lon="6.70162">
        <ele>70.31</ele>
        <time>2012-10-12T12:00:15Z</time>
      </trkpt>
      <trkpt lat="43.37249" lon="6.70162">
        <ele>71.27</ele>
        <time>2012-10-12T12:00:16Z</time>
      </trkpt>
      <trkpt lat="43.37251" lon="6.70161">
        <ele>71.76</ele>
        <time>2012-10-12T12:00:17Z</time>
      </trkpt>
      <trkpt lat="43.37267" lon="6.70158">
        <ele>73.68</ele>
        <time>2012-10-12T12:00:26Z</time>
      </trkpt>
      <trkpt lat="43.37287" lon="6.70153">
        <ele>75.6</ele>
        <time>2012-10-12T12:00:37Z</time>
      </trkpt>
      <trkpt lat="43.37303" lon="6.70141">
        <ele>77.52</ele>
        <time>2012-10-12T12:00:49Z</time>
      </trkpt>
      <trkpt lat="43.37308" lon="6.70129">
        <ele>78.97</ele>
        <time>2012-10-12T12:00:57Z</time>
      </trkpt>
      <trkpt lat="43.37309" lon="6.70127">
        <ele>78.97</ele>
        <time>2012-10-12T12:00:58Z</time>
      </trkpt>
      <trkpt lat="43.37309" lon="6.70125">
        <ele>78.97</ele>
        <time>2012-10-12T12:00:59Z</time>
      </trkpt>
      <trkpt lat="43.3731" lon="6.70124">
        <ele>79.45</ele>
        <time>2012-10-12T12:01:00Z</time>
      </trkpt>
      <trkpt lat="43.37311" lon="6.70122">
        <ele>79.45</ele>
        <time>2012-10-12T12:01:01Z</time>
      </trkpt>
      <trkpt lat="43.37312" lon="6.70121">
        <ele>80.89</ele>
        <time>2012-10-12T12:01:02Z</time>
      </trkpt>
      <trkpt lat="43.37313" lon="6.7012">
        <ele>80.89</ele>
        <time>2012-10-12T12:01:03Z</time>
      </trkpt>
      <trkpt lat="43.37313" lon="6.70118">
        <ele>81.37</ele>
        <time>2012-10-12T12:01:04Z</time>
      </trkpt>
      <trkpt lat="43.37314" lon="6.70116">
        <ele>82.33</ele>
        <time>2012-10-12T12:01:05Z</time>
      </trkpt>
      <trkpt lat="43.37315" lon="6.70115">
        <ele>81.85</ele>
        <time>2012-10-12T12:01:06Z</time>
      </trkpt>
      <trkpt lat="43.37315" lon="6.70114">
        <ele>81.85</ele>
        <time>2012-10-12T12:01:07Z</time>
      </trkpt>
      <trkpt lat="43.37316" lon="6.70113">
        <ele>82.33</ele>
        <time>2012-10-12T12:01:08Z</time>
      </trkpt>
      <trkpt lat="43.37317" lon="6.70112">
        <ele>82.33</ele>
        <time>2012-10-12T12:01:09Z</time>
      </trkpt>
      <trkpt lat="43.37317" lon="6.7011">
        <ele>83.29</ele>
        <time>2012-10-12T12:01:10Z</time>
      </trkpt>
      <trkpt lat="43.37318" lon="6.70109">
        <ele>82.81</ele>
        <time>2012-10-12T12:01:11Z</time>
      </trkpt>
      <trkpt lat="43.37319" lon="6.70108">
        <ele>82.81</ele>
        <time>2012-10-12T12:01:12Z</time>
      </trkpt>
      <trkpt lat="43.3732" lon="6.70106">
        <ele>83.77</ele>
        <time>2012-10-12T12:01:13Z</time>
      </trkpt>
      <trkpt lat="43.37321" lon="6.70105">
        <ele>83.77</ele>
        <time>2012-10-12T12:01:14Z</time>
      </trkpt>
      <trkpt lat="43.37322" lon="6.70104">
        <ele>84.73</ele>
        <time>2012-10-12T12:01:15Z</time>
      </trkpt>
      <trkpt lat="43.37322" lon="6.70103">
        <ele>83.77</ele>
        <time>2012-10-12T12:01:16Z</time>
      </trkpt>
      <trkpt lat="43.3733" lon="6.70087">
        <ele>86.66</ele>
        <time>2012-10-12T12:01:28Z</time>
      </trkpt>
      <trkpt lat="43.37339" lon="6.70077">
        <ele>88.58</ele>
        <time>2012-10-12T12:01:38Z</time>
      </trkpt>
      <trkpt lat="43.3734" lon="6.70074">
        <ele>89.54</ele>
        <time>2012-10-12T12:01:41Z</time>
      </trkpt>
      <trkpt lat="43.3734" lon="6.70073">
        <ele>89.54</ele>
        <time>2012-10-12T12:01:42Z</time>
      </trkpt>
      <trkpt lat="43.3734" lon="6.70071">
        <ele>89.54</ele>
        <time>2012-10-12T12:01:43Z</time>
      </trkpt>
      <trkpt lat="43.3734" lon="6.70069">
        <ele>90.02</ele>
        <time>2012-10-12T12:01:44Z</time>
      </trkpt>
      <trkpt lat="43.3734" lon="6.70067">
        <ele>89.54</ele>
        <time>2012-10-12T12:01:45Z</time>
      </trkpt>
      <trkpt lat="43.37341" lon="6.70066">
        <ele>90.02</ele>
        <time>2012-10-12T12:01:46Z</time>
      </trkpt>
      <trkpt lat="43.37342" lon="6.70065">
        <ele>90.5</ele>
        <time>2012-10-12T12:01:47Z</time>
      </trkpt>
      <trkpt lat="43.37345" lon="6.70059">
        <ele>91.94</ele>
        <time>2012-10-12T12:01:52Z</time>
      </trkpt>
      <trkpt lat="43.37345" lon="6.70057">
        <ele>92.42</ele>
        <time>2012-10-12T12:01:53Z</time>
      </trkpt>
      <trkpt lat="43.37346" lon="6.70056">
        <ele>92.42</ele>
        <time>2012-10-12T12:01:54Z</time>
      </trkpt>
      <trkpt lat="43.37347" lon="6.70055">
        <ele>92.42</ele>
        <time>2012-10-12T12:01:55Z</time>
      </trkpt>
      <trkpt lat="43.37348" lon="6.70054">
        <ele>92.42</ele>
        <time>2012-10-12T12:01:56Z</time>
      </trkpt>
      <trkpt lat="43.37354" lon="6.70042">
        <ele>95.31</ele>
        <time>2012-10-12T12:02:08Z</time>
      </trkpt>
      <trkpt lat="43.37355" lon="6.70041">
        <ele>95.31</ele>
        <time>2012-10-12T12:02:09Z</time>
      </trkpt>
      <trkpt lat="43.37362" lon="6.70026">
        <ele>96.75</ele>
        <time>2012-10-12T12:02:21Z</time>
      </trkpt>
      <trkpt lat="43.37366" lon="6.70013">
        <ele>99.63</ele>
        <time>2012-10-12T12:02:31Z</time>
      </trkpt>
      <trkpt lat="43.37368" lon="6.70008">
        <ele>100.6</ele>
        <time>2012-10-12T12:02:35Z</time>
      </trkpt>
      <trkpt lat="43.37369" lon="6.70007">
        <ele>100.6</ele>
        <time>2012-10-12T12:02:36Z</time>
      </trkpt>
      <trkpt lat="43.37371" lon="6.70007">
        <ele>101.08</ele>
        <time>2012-10-12T12:02:37Z</time>
      </trkpt>
      <trkpt lat="43.37372" lon="6.70007">
        <ele>101.56</ele>
        <time>2012-10-12T12:02:38Z</time>
      </trkpt>
      <trkpt lat="43.37374" lon="6.70006">
        <ele>102.04</ele>
        <time>2012-10-12T12:02:39Z</time>
      </trkpt>
      <trkpt lat="43.37378" lon="6.70006">
        <ele>102.52</ele>
        <time>2012-10-12T12:02:42Z</time>
      </trkpt>
      <trkpt lat="43.37379" lon="6.70007">
        <ele>103</ele>
        <time>2012-10-12T12:02:43Z</time>
      </trkpt>
      <trkpt lat="43.3738" lon="6.70008">
        <ele>103.96</ele>
        <time>2012-10-12T12:02:44Z</time>
      </trkpt>
      <trkpt lat="43.37384" lon="6.70011">
        <ele>104.44</ele>
        <time>2012-10-12T12:02:48Z</time>
      </trkpt>
      <trkpt lat="43.37387" lon="6.70016">
        <ele>105.4</ele>
        <time>2012-10-12T12:02:54Z</time>
      </trkpt>
      <trkpt lat="43.37387" lon="6.70017">
        <ele>105.88</ele>
        <time>2012-10-12T12:02:55Z</time>
      </trkpt>
      <trkpt lat="43.37389" lon="6.70018">
        <ele>106.36</ele>
        <time>2012-10-12T12:02:56Z</time>
      </trkpt>
      <trkpt lat="43.3739" lon="6.70019">
        <ele>106.84</ele>
        <time>2012-10-12T12:02:57Z</time>
      </trkpt>
      <trkpt lat="43.37391" lon="6.7002">
        <ele>107.32</ele>
        <time>2012-10-12T12:02:58Z</time>
      </trkpt>
      <trkpt lat="43.37391" lon="6.70022">
        <ele>107.32</ele>
        <time>2012-10-12T12:02:59Z</time>
      </trkpt>
      <trkpt lat="43.37391" lon="6.70023">
        <ele>107.32</ele>
        <time>2012-10-12T12:03:00Z</time>
      </trkpt>
      <trkpt lat="43.37392" lon="6.70025">
        <ele>107.81</ele>
        <time>2012-10-12T12:03:01Z</time>
      </trkpt>
      <trkpt lat="43.37392" lon="6.70026">
        <ele>107.81</ele>
        <time>2012-10-12T12:03:02Z</time>
      </trkpt>
      <trkpt lat="43.37393" lon="6.70027">
        <ele>108.29</ele>
        <time>2012-10-12T12:03:03Z</time>
      </trkpt>
      <trkpt lat="43.37397" lon="6.70032">
        <ele>109.25</ele>
        <time>2012-10-12T12:03:08Z</time>
      </trkpt>
      <trkpt lat="43.37398" lon="6.70033">
        <ele>109.73</ele>
        <time>2012-10-12T12:03:09Z</time>
      </trkpt>
      <trkpt lat="43.37401" lon="6.70036">
        <ele>110.21</ele>
        <time>2012-10-12T12:03:12Z</time>
      </trkpt>
      <trkpt lat="43.37402" lon="6.70036">
        <ele>111.17</ele>
        <time>2012-10-12T12:03:13Z</time>
      </trkpt>
      <trkpt lat="43.37403" lon="6.70037">
        <ele>111.65</ele>
        <time>2012-10-12T12:03:14Z</time>
      </trkpt>
      <trkpt lat="43.37416" lon="6.70036">
        <ele>112.61</ele>
        <time>2012-10-12T12:03:23Z</time>
      </trkpt>
      <trkpt lat="43.37419" lon="6.70034">
        <ele>112.61</ele>
        <time>2012-10-12T12:03:25Z</time>
      </trkpt>
      <trkpt lat="43.3742" lon="6.70033">
        <ele>113.09</ele>
        <time>2012-10-12T12:03:26Z</time>
      </trkpt>
      <trkpt lat="43.37437" lon="6.70015">
        <ele>113.57</ele>
        <time>2012-10-12T12:03:37Z</time>
      </trkpt>
      <trkpt lat="43.37456" lon="6.6999">
        <ele>114.53</ele>
        <time>2012-10-12T12:03:48Z</time>
      </trkpt>
      <trkpt lat="43.37474" lon="6.69965">
        <ele>115.98</ele>
        <time>2012-10-12T12:03:59Z</time>
      </trkpt>
      <trkpt lat="43.37492" lon="6.69947">
        <ele>117.42</ele>
        <time>2012-10-12T12:04:09Z</time>
      </trkpt>
      <trkpt lat="43.37511" lon="6.69945">
        <ele>120.3</ele>
        <time>2012-10-12T12:04:18Z</time>
      </trkpt>
      <trkpt lat="43.37513" lon="6.69946">
        <ele>119.82</ele>
        <time>2012-10-12T12:04:19Z</time>
      </trkpt>
      <trkpt lat="43.37515" lon="6.69949">
        <ele>119.82</ele>
        <time>2012-10-12T12:04:20Z</time>
      </trkpt>
      <trkpt lat="43.37516" lon="6.69951">
        <ele>120.3</ele>
        <time>2012-10-12T12:04:21Z</time>
      </trkpt>
      <trkpt lat="43.37518" lon="6.69953">
        <ele>120.3</ele>
        <time>2012-10-12T12:04:22Z</time>
      </trkpt>
      <trkpt lat="43.3753" lon="6.69983">
        <ele>121.26</ele>
        <time>2012-10-12T12:04:32Z</time>
      </trkpt>
      <trkpt lat="43.37549" lon="6.70002">
        <ele>124.15</ele>
        <time>2012-10-12T12:04:43Z</time>
      </trkpt>
      <trkpt lat="43.37572" lon="6.70003">
        <ele>127.03</ele>
        <time>2012-10-12T12:04:54Z</time>
      </trkpt>
      <trkpt lat="43.37578" lon="6.70001">
        <ele>128.47</ele>
        <time>2012-10-12T12:04:57Z</time>
      </trkpt>
      <trkpt lat="43.37599" lon="6.7">
        <ele>128.47</ele>
        <time>2012-10-12T12:05:05Z</time>
      </trkpt>
      <trkpt lat="43.37623" lon="6.69985">
        <ele>126.07</ele>
        <time>2012-10-12T12:05:13Z</time>
      </trkpt>
      <trkpt lat="43.37654" lon="6.69977">
        <ele>123.67</ele>
        <time>2012-10-12T12:05:19Z</time>
      </trkpt>
      <trkpt lat="43.37677" lon="6.69964">
        <ele>120.78</ele>
        <time>2012-10-12T12:05:23Z</time>
      </trkpt>
      <trkpt lat="43.37688" lon="6.69956">
        <ele>119.34</ele>
        <time>2012-10-12T12:05:25Z</time>
      </trkpt>
      <trkpt lat="43.37693" lon="6.69951">
        <ele>118.38</ele>
        <time>2012-10-12T12:05:26Z</time>
      </trkpt>
      <trkpt lat="43.37704" lon="6.69939">
        <ele>116.94</ele>
        <time>2012-10-12T12:05:28Z</time>
      </trkpt>
      <trkpt lat="43.37722" lon="6.69942">
        <ele>118.38</ele>
        <time>2012-10-12T12:05:33Z</time>
      </trkpt>
      <trkpt lat="43.37725" lon="6.69948">
        <ele>119.34</ele>
        <time>2012-10-12T12:05:35Z</time>
      </trkpt>
      <trkpt lat="43.37731" lon="6.69962">
        <ele>120.78</ele>
        <time>2012-10-12T12:05:42Z</time>
      </trkpt>
      <trkpt lat="43.37735" lon="6.69967">
        <ele>120.3</ele>
        <time>2012-10-12T12:05:47Z</time>
      </trkpt>
      <trkpt lat="43.37744" lon="6.69977">
        <ele>121.26</ele>
        <time>2012-10-12T12:05:55Z</time>
      </trkpt>
      <trkpt lat="43.37751" lon="6.69986">
        <ele>121.74</ele>
        <time>2012-10-12T12:06:01Z</time>
      </trkpt>
      <trkpt lat="43.37754" lon="6.69989">
        <ele>122.71</ele>
        <time>2012-10-12T12:06:07Z</time>
      </trkpt>
      <trkpt lat="43.37757" lon="6.69993">
        <ele>123.67</ele>
        <time>2012-10-12T12:06:11Z</time>
      </trkpt>
      <trkpt lat="43.37766" lon="6.69999">
        <ele>124.15</ele>
        <time>2012-10-12T12:06:21Z</time>
      </trkpt>
      <trkpt lat="43.37772" lon="6.70003">
        <ele>124.63</ele>
        <time>2012-10-12T12:06:26Z</time>
      </trkpt>
      <trkpt lat="43.37776" lon="6.70008">
        <ele>125.59</ele>
        <time>2012-10-12T12:06:31Z</time>
      </trkpt>
      <trkpt lat="43.3778" lon="6.70011">
        <ele>126.55</ele>
        <time>2012-10-12T12:06:34Z</time>
      </trkpt>
      <trkpt lat="43.37786" lon="6.70014">
        <ele>127.51</ele>
        <time>2012-10-12T12:06:39Z</time>
      </trkpt>
      <trkpt lat="43.3779" lon="6.70017">
        <ele>128.47</ele>
        <time>2012-10-12T12:06:42Z</time>
      </trkpt>
      <trkpt lat="43.37796" lon="6.70022">
        <ele>128.47</ele>
        <time>2012-10-12T12:06:47Z</time>
      </trkpt>
      <trkpt lat="43.378" lon="6.70025">
        <ele>129.92</ele>
        <time>2012-10-12T12:06:51Z</time>
      </trkpt>
      <trkpt lat="43.37802" lon="6.70026">
        <ele>129.92</ele>
        <time>2012-10-12T12:06:53Z</time>
      </trkpt>
      <trkpt lat="43.37809" lon="6.70028">
        <ele>130.88</ele>
        <time>2012-10-12T12:07:03Z</time>
      </trkpt>
      <trkpt lat="43.37822" lon="6.70031">
        <ele>131.84</ele>
        <time>2012-10-12T12:07:11Z</time>
      </trkpt>
      <trkpt lat="43.37824" lon="6.70031">
        <ele>131.84</ele>
        <time>2012-10-12T12:07:12Z</time>
      </trkpt>
      <trkpt lat="43.37843" lon="6.70034">
        <ele>133.28</ele>
        <time>2012-10-12T12:07:22Z</time>
      </trkpt>
      <trkpt lat="43.37845" lon="6.70035">
        <ele>133.76</ele>
        <time>2012-10-12T12:07:24Z</time>
      </trkpt>
      <trkpt lat="43.37866" lon="6.70049">
        <ele>134.24</ele>
        <time>2012-10-12T12:07:35Z</time>
      </trkpt>
      <trkpt lat="43.3789" lon="6.70073">
        <ele>134.72</ele>
        <time>2012-10-12T12:07:46Z</time>
      </trkpt>
      <trkpt lat="43.37892" lon="6.70077">
        <ele>134.24</ele>
        <time>2012-10-12T12:07:47Z</time>
      </trkpt>
      <trkpt lat="43.37894" lon="6.70082">
        <ele>133.76</ele>
        <time>2012-10-12T12:07:48Z</time>
      </trkpt>
      <trkpt lat="43.37895" lon="6.70087">
        <ele>133.76</ele>
        <time>2012-10-12T12:07:49Z</time>
      </trkpt>
      <trkpt lat="43.37896" lon="6.70093">
        <ele>133.76</ele>
        <time>2012-10-12T12:07:50Z</time>
      </trkpt>
      <trkpt lat="43.37898" lon="6.70098">
        <ele>134.24</ele>
        <time>2012-10-12T12:07:51Z</time>
      </trkpt>
      <trkpt lat="43.37907" lon="6.70124">
        <ele>131.36</ele>
        <time>2012-10-12T12:07:55Z</time>
      </trkpt>
      <trkpt lat="43.3791" lon="6.70131">
        <ele>131.36</ele>
        <time>2012-10-12T12:07:56Z</time>
      </trkpt>
      <trkpt lat="43.37914" lon="6.70136">
        <ele>130.88</ele>
        <time>2012-10-12T12:07:57Z</time>
      </trkpt>
      <trkpt lat="43.37929" lon="6.70154">
        <ele>127.51</ele>
        <time>2012-10-12T12:08:00Z</time>
      </trkpt>
      <trkpt lat="43.37934" lon="6.70159">
        <ele>127.03</ele>
        <time>2012-10-12T12:08:01Z</time>
      </trkpt>
      <trkpt lat="43.3794" lon="6.70161">
        <ele>126.07</ele>
        <time>2012-10-12T12:08:02Z</time>
      </trkpt>
      <trkpt lat="43.37946" lon="6.70162">
        <ele>125.11</ele>
        <time>2012-10-12T12:08:03Z</time>
      </trkpt>
      <trkpt lat="43.37953" lon="6.7016">
        <ele>124.15</ele>
        <time>2012-10-12T12:08:04Z</time>
      </trkpt>
      <trkpt lat="43.3796" lon="6.70156">
        <ele>122.71</ele>
        <time>2012-10-12T12:08:05Z</time>
      </trkpt>
      <trkpt lat="43.37966" lon="6.70151">
        <ele>122.22</ele>
        <time>2012-10-12T12:08:06Z</time>
      </trkpt>
      <trkpt lat="43.37972" lon="6.70146">
        <ele>122.22</ele>
        <time>2012-10-12T12:08:07Z</time>
      </trkpt>
      <trkpt lat="43.38011" lon="6.70114">
        <ele>118.38</ele>
        <time>2012-10-12T12:08:14Z</time>
      </trkpt>
      <trkpt lat="43.38016" lon="6.70109">
        <ele>117.9</ele>
        <time>2012-10-12T12:08:15Z</time>
      </trkpt>
      <trkpt lat="43.38021" lon="6.70104">
        <ele>115.5</ele>
        <time>2012-10-12T12:08:16Z</time>
      </trkpt>
      <trkpt lat="43.38027" lon="6.70099">
        <ele>115.98</ele>
        <time>2012-10-12T12:08:17Z</time>
      </trkpt>
      <trkpt lat="43.38033" lon="6.70097">
        <ele>115.98</ele>
        <time>2012-10-12T12:08:18Z</time>
      </trkpt>
      <trkpt lat="43.38039" lon="6.70094">
        <ele>115.98</ele>
        <time>2012-10-12T12:08:19Z</time>
      </trkpt>
      <trkpt lat="43.38045" lon="6.7009">
        <ele>116.46</ele>
        <time>2012-10-12T12:08:20Z</time>
      </trkpt>
      <trkpt lat="43.3805" lon="6.70087">
        <ele>115.5</ele>
        <time>2012-10-12T12:08:21Z</time>
      </trkpt>
      <trkpt lat="43.38055" lon="6.70083">
        <ele>115.01</ele>
        <time>2012-10-12T12:08:22Z</time>
      </trkpt>
      <trkpt lat="43.3806" lon="6.70081">
        <ele>114.05</ele>
        <time>2012-10-12T12:08:23Z</time>
      </trkpt>
      <trkpt lat="43.38064" lon="6.70078">
        <ele>114.53</ele>
        <time>2012-10-12T12:08:24Z</time>
      </trkpt>
      <trkpt lat="43.38068" lon="6.70077">
        <ele>113.57</ele>
        <time>2012-10-12T12:08:25Z</time>
      </trkpt>
      <trkpt lat="43.38078" lon="6.70075">
        <ele>110.69</ele>
        <time>2012-10-12T12:08:28Z</time>
      </trkpt>
      <trkpt lat="43.38081" lon="6.70073">
        <ele>109.25</ele>
        <time>2012-10-12T12:08:29Z</time>
      </trkpt>
      <trkpt lat="43.38085" lon="6.70072">
        <ele>108.29</ele>
        <time>2012-10-12T12:08:30Z</time>
      </trkpt>
      <trkpt lat="43.38089" lon="6.70071">
        <ele>108.29</ele>
        <time>2012-10-12T12:08:31Z</time>
      </trkpt>
      <trkpt lat="43.38092" lon="6.70071">
        <ele>107.32</ele>
        <time>2012-10-12T12:08:32Z</time>
      </trkpt>
      <trkpt lat="43.38096" lon="6.70072">
        <ele>107.32</ele>
        <time>2012-10-12T12:08:33Z</time>
      </trkpt>
      <trkpt lat="43.381" lon="6.70072">
        <ele>105.88</ele>
        <time>2012-10-12T12:08:34Z</time>
      </trkpt>
      <trkpt lat="43.38116" lon="6.70073">
        <ele>104.44</ele>
        <time>2012-10-12T12:08:38Z</time>
      </trkpt>
      <trkpt lat="43.38141" lon="6.70073">
        <ele>100.6</ele>
        <time>2012-10-12T12:08:44Z</time>
      </trkpt>
      <trkpt lat="43.38154" lon="6.70076">
        <ele>98.19</ele>
        <time>2012-10-12T12:08:47Z</time>
      </trkpt>
      <trkpt lat="43.38159" lon="6.70076">
        <ele>98.19</ele>
        <time>2012-10-12T12:08:48Z</time>
      </trkpt>
      <trkpt lat="43.38177" lon="6.70077">
        <ele>94.83</ele>
        <time>2012-10-12T12:08:52Z</time>
      </trkpt>
      <trkpt lat="43.38182" lon="6.70077">
        <ele>94.35</ele>
        <time>2012-10-12T12:08:53Z</time>
      </trkpt>
      <trkpt lat="43.38195" lon="6.70075">
        <ele>93.87</ele>
        <time>2012-10-12T12:08:58Z</time>
      </trkpt>
      <trkpt lat="43.38196" lon="6.70077">
        <ele>93.39</ele>
        <time>2012-10-12T12:08:59Z</time>
      </trkpt>
      <trkpt lat="43.38197" lon="6.7008">
        <ele>93.39</ele>
        <time>2012-10-12T12:09:00Z</time>
      </trkpt>
      <trkpt lat="43.38201" lon="6.70102">
        <ele>91.46</ele>
        <time>2012-10-12T12:09:05Z</time>
      </trkpt>
      <trkpt lat="43.38204" lon="6.70105">
        <ele>91.46</ele>
        <time>2012-10-12T12:09:06Z</time>
      </trkpt>
      <trkpt lat="43.38207" lon="6.70107">
        <ele>92.42</ele>
        <time>2012-10-12T12:09:07Z</time>
      </trkpt>
      <trkpt lat="43.3821" lon="6.70108">
        <ele>92.9</ele>
        <time>2012-10-12T12:09:08Z</time>
      </trkpt>
      <trkpt lat="43.38221" lon="6.70115">
        <ele>94.83</ele>
        <time>2012-10-12T12:09:13Z</time>
      </trkpt>
      <trkpt lat="43.38239" lon="6.70134">
        <ele>96.75</ele>
        <time>2012-10-12T12:09:21Z</time>
      </trkpt>
      <trkpt lat="43.38271" lon="6.70164">
        <ele>96.75</ele>
        <time>2012-10-12T12:09:32Z</time>
      </trkpt>
      <trkpt lat="43.38287" lon="6.7018">
        <ele>96.27</ele>
        <time>2012-10-12T12:09:37Z</time>
      </trkpt>
      <trkpt lat="43.383" lon="6.7021">
        <ele>95.31</ele>
        <time>2012-10-12T12:09:43Z</time>
      </trkpt>
      <trkpt lat="43.38305" lon="6.70231">
        <ele>95.31</ele>
        <time>2012-10-12T12:09:46Z</time>
      </trkpt>
      <trkpt lat="43.38312" lon="6.70277">
        <ele>96.27</ele>
        <time>2012-10-12T12:09:55Z</time>
      </trkpt>
      <trkpt lat="43.38324" lon="6.70306">
        <ele>98.67</ele>
        <time>2012-10-12T12:10:03Z</time>
      </trkpt>
      <trkpt lat="43.38332" lon="6.7031">
        <ele>99.63</ele>
        <time>2012-10-12T12:10:06Z</time>
      </trkpt>
      <trkpt lat="43.38352" lon="6.7033">
        <ele>101.08</ele>
        <time>2012-10-12T12:10:15Z</time>
      </trkpt>
      <trkpt lat="43.38352" lon="6.70332">
        <ele>101.56</ele>
        <time>2012-10-12T12:10:16Z</time>
      </trkpt>
      <trkpt lat="43.38352" lon="6.7034">
        <ele>102.04</ele>
        <time>2012-10-12T12:10:20Z</time>
      </trkpt>
      <trkpt lat="43.3836" lon="6.70348">
        <ele>103</ele>
        <time>2012-10-12T12:10:28Z</time>
      </trkpt>
      <trkpt lat="43.38361" lon="6.70349">
        <ele>102.52</ele>
        <time>2012-10-12T12:10:29Z</time>
      </trkpt>
      <trkpt lat="43.38371" lon="6.70358">
        <ele>103</ele>
        <time>2012-10-12T12:10:39Z</time>
      </trkpt>
      <trkpt lat="43.38378" lon="6.70363">
        <ele>103</ele>
        <time>2012-10-12T12:10:49Z</time>
      </trkpt>
      <trkpt lat="43.38385" lon="6.70364">
        <ele>104.92</ele>
        <time>2012-10-12T12:10:59Z</time>
      </trkpt>
      <trkpt lat="43.38389" lon="6.70362">
        <ele>104.92</ele>
        <time>2012-10-12T12:11:05Z</time>
      </trkpt>
      <trkpt lat="43.384" lon="6.70357">
        <ele>105.88</ele>
        <time>2012-10-12T12:11:17Z</time>
      </trkpt>
      <trkpt lat="43.38411" lon="6.70364">
        <ele>108.77</ele>
        <time>2012-10-12T12:11:29Z</time>
      </trkpt>
      <trkpt lat="43.38419" lon="6.70368">
        <ele>110.21</ele>
        <time>2012-10-12T12:11:39Z</time>
      </trkpt>
      <trkpt lat="43.38423" lon="6.70376">
        <ele>113.09</ele>
        <time>2012-10-12T12:11:48Z</time>
      </trkpt>
      <trkpt lat="43.38424" lon="6.70382">
        <ele>114.05</ele>
        <time>2012-10-12T12:11:53Z</time>
      </trkpt>
      <trkpt lat="43.38434" lon="6.70393">
        <ele>114.53</ele>
        <time>2012-10-12T12:12:04Z</time>
      </trkpt>
      <trkpt lat="43.38434" lon="6.70394">
        <ele>115.01</ele>
        <time>2012-10-12T12:12:06Z</time>
      </trkpt>
      <trkpt lat="43.38436" lon="6.70407">
        <ele>115.5</ele>
        <time>2012-10-12T12:12:14Z</time>
      </trkpt>
      <trkpt lat="43.38434" lon="6.70407">
        <ele>115.98</ele>
        <time>2012-10-12T12:12:15Z</time>
      </trkpt>
      <trkpt lat="43.38431" lon="6.70409">
        <ele>116.94</ele>
        <time>2012-10-12T12:12:17Z</time>
      </trkpt>
      <trkpt lat="43.38426" lon="6.70415">
        <ele>117.9</ele>
        <time>2012-10-12T12:12:22Z</time>
      </trkpt>
      <trkpt lat="43.38425" lon="6.70421">
        <ele>118.38</ele>
        <time>2012-10-12T12:12:25Z</time>
      </trkpt>
      <trkpt lat="43.38421" lon="6.7043">
        <ele>119.34</ele>
        <time>2012-10-12T12:12:30Z</time>
      </trkpt>
      <trkpt lat="43.38415" lon="6.7044">
        <ele>120.3</ele>
        <time>2012-10-12T12:12:36Z</time>
      </trkpt>
      <trkpt lat="43.3841" lon="6.7045">
        <ele>117.42</ele>
        <time>2012-10-12T12:12:42Z</time>
      </trkpt>
      <trkpt lat="43.38409" lon="6.70451">
        <ele>121.74</ele>
        <time>2012-10-12T12:12:43Z</time>
      </trkpt>
      <trkpt lat="43.38406" lon="6.70459">
        <ele>121.26</ele>
        <time>2012-10-12T12:12:47Z</time>
      </trkpt>
      <trkpt lat="43.38393" lon="6.70474">
        <ele>124.15</ele>
        <time>2012-10-12T12:12:59Z</time>
      </trkpt>
      <trkpt lat="43.38382" lon="6.70487">
        <ele>126.55</ele>
        <time>2012-10-12T12:13:10Z</time>
      </trkpt>
      <trkpt lat="43.38375" lon="6.70493">
        <ele>128.95</ele>
        <time>2012-10-12T12:13:15Z</time>
      </trkpt>
      <trkpt lat="43.38362" lon="6.7051">
        <ele>130.88</ele>
        <time>2012-10-12T12:13:26Z</time>
      </trkpt>
      <trkpt lat="43.38359" lon="6.7053">
        <ele>130.88</ele>
        <time>2012-10-12T12:13:37Z</time>
      </trkpt>
      <trkpt lat="43.38359" lon="6.70537">
        <ele>129.92</ele>
        <time>2012-10-12T12:13:46Z</time>
      </trkpt>
      <trkpt lat="43.38359" lon="6.70537">
        <ele>130.88</ele>
        <time>2012-10-12T12:13:47Z</time>
      </trkpt>
      <trkpt lat="43.38356" lon="6.70536">
        <ele>131.36</ele>
        <time>2012-10-12T12:13:54Z</time>
      </trkpt>
      <trkpt lat="43.38356" lon="6.70535">
        <ele>130.88</ele>
        <time>2012-10-12T12:14:06Z</time>
      </trkpt>
      <trkpt lat="43.38356" lon="6.70535">
        <ele>132.32</ele>
        <time>2012-10-12T12:14:17Z</time>
      </trkpt>
      <trkpt lat="43.38354" lon="6.70536">
        <ele>130.4</ele>
        <time>2012-10-12T12:14:46Z</time>
      </trkpt>
      <trkpt lat="43.38354" lon="6.70536">
        <ele>130.4</ele>
        <time>2012-10-12T12:15:08Z</time>
      </trkpt>
      <trkpt lat="43.38355" lon="6.70536">
        <ele>130.4</ele>
        <time>2012-10-12T12:15:28Z</time>
      </trkpt>
      <trkpt lat="43.38355" lon="6.70535">
        <ele>130.88</ele>
        <time>2012-10-12T12:15:46Z</time>
      </trkpt>
      <trkpt lat="43.38354" lon="6.70534">
        <ele>130.4</ele>
        <time>2012-10-12T12:16:07Z</time>
      </trkpt>
      <trkpt lat="43.38354" lon="6.70533">
        <ele>130.88</ele>
        <time>2012-10-12T12:16:27Z</time>
      </trkpt>
      <trkpt lat="43.38355" lon="6.70533">
        <ele>131.36</ele>
        <time>2012-10-12T12:16:48Z</time>
      </trkpt>
      <trkpt lat="43.38355" lon="6.70534">
        <ele>130.4</ele>
        <time>2012-10-12T12:17:08Z</time>
      </trkpt>
      <trkpt lat="43.38355" lon="6.70534">
        <ele>131.84</ele>
        <time>2012-10-12T12:17:26Z</time>
      </trkpt>
      <trkpt lat="43.38354" lon="6.70534">
        <ele>130.88</ele>
        <time>2012-10-12T12:17:45Z</time>
      </trkpt>
      <trkpt lat="43.38355" lon="6.70534">
        <ele>130.88</ele>
        <time>2012-10-12T12:18:08Z</time>
      </trkpt>
      <trkpt lat="43.38355" lon="6.70533">
        <ele>130.88</ele>
        <time>2012-10-12T12:18:21Z</time>
      </trkpt>
      <trkpt lat="43.38356" lon="6.70533">
        <ele>131.84</ele>
        <time>2012-10-12T12:18:33Z</time>
      </trkpt>
      <trkpt lat="43.38359" lon="6.70528">
        <ele>132.32</ele>
        <time>2012-10-12T12:18:39Z</time>
      </trkpt>
      <trkpt lat="43.38362" lon="6.70517">
        <ele>131.84</ele>
        <time>2012-10-12T12:18:47Z</time>
      </trkpt>
      <trkpt lat="43.38379" lon="6.70513">
        <ele>128.95</ele>
        <time>2012-10-12T12:18:52Z</time>
      </trkpt>
      <trkpt lat="43.38392" lon="6.70514">
        <ele>125.59</ele>
        <time>2012-10-12T12:18:56Z</time>
      </trkpt>
      <trkpt lat="43.384" lon="6.70518">
        <ele>124.15</ele>
        <time>2012-10-12T12:18:59Z</time>
      </trkpt>
      <trkpt lat="43.38406" lon="6.7052">
        <ele>121.74</ele>
        <time>2012-10-12T12:19:01Z</time>
      </trkpt>
      <trkpt lat="43.38419" lon="6.70541">
        <ele>117.42</ele>
        <time>2012-10-12T12:19:07Z</time>
      </trkpt>
      <trkpt lat="43.38421" lon="6.70546">
        <ele>116.46</ele>
        <time>2012-10-12T12:19:08Z</time>
      </trkpt>
      <trkpt lat="43.38424" lon="6.70552">
        <ele>115.5</ele>
        <time>2012-10-12T12:19:09Z</time>
      </trkpt>
      <trkpt lat="43.38426" lon="6.70557">
        <ele>114.53</ele>
        <time>2012-10-12T12:19:10Z</time>
      </trkpt>
      <trkpt lat="43.38429" lon="6.7056">
        <ele>114.05</ele>
        <time>2012-10-12T12:19:11Z</time>
      </trkpt>
      <trkpt lat="43.38431" lon="6.70563">
        <ele>113.09</ele>
        <time>2012-10-12T12:19:12Z</time>
      </trkpt>
      <trkpt lat="43.38433" lon="6.70568">
        <ele>113.09</ele>
        <time>2012-10-12T12:19:13Z</time>
      </trkpt>
      <trkpt lat="43.38436" lon="6.70571">
        <ele>112.13</ele>
        <time>2012-10-12T12:19:14Z</time>
      </trkpt>
      <trkpt lat="43.38444" lon="6.70576">
        <ele>111.17</ele>
        <time>2012-10-12T12:19:16Z</time>
      </trkpt>
      <trkpt lat="43.38448" lon="6.70578">
        <ele>109.73</ele>
        <time>2012-10-12T12:19:17Z</time>
      </trkpt>
      <trkpt lat="43.38454" lon="6.7058">
        <ele>108.29</ele>
        <time>2012-10-12T12:19:18Z</time>
      </trkpt>
      <trkpt lat="43.3846" lon="6.7058">
        <ele>107.81</ele>
        <time>2012-10-12T12:19:19Z</time>
      </trkpt>
      <trkpt lat="43.38466" lon="6.7058">
        <ele>106.84</ele>
        <time>2012-10-12T12:19:20Z</time>
      </trkpt>
      <trkpt lat="43.38478" lon="6.7058">
        <ele>105.4</ele>
        <time>2012-10-12T12:19:22Z</time>
      </trkpt>
      <trkpt lat="43.38484" lon="6.70581">
        <ele>105.4</ele>
        <time>2012-10-12T12:19:23Z</time>
      </trkpt>
      <trkpt lat="43.38488" lon="6.70584">
        <ele>105.4</ele>
        <time>2012-10-12T12:19:24Z</time>
      </trkpt>
      <trkpt lat="43.38491" lon="6.70589">
        <ele>105.88</ele>
        <time>2012-10-12T12:19:25Z</time>
      </trkpt>
      <trkpt lat="43.38493" lon="6.70593">
        <ele>105.4</ele>
        <time>2012-10-12T12:19:26Z</time>
      </trkpt>
      <trkpt lat="43.38496" lon="6.70598">
        <ele>105.88</ele>
        <time>2012-10-12T12:19:27Z</time>
      </trkpt>
      <trkpt lat="43.38498" lon="6.70602">
        <ele>105.4</ele>
        <time>2012-10-12T12:19:28Z</time>
      </trkpt>
      <trkpt lat="43.38502" lon="6.70606">
        <ele>104.92</ele>
        <time>2012-10-12T12:19:29Z</time>
      </trkpt>
      <trkpt lat="43.38505" lon="6.7061">
        <ele>104.44</ele>
        <time>2012-10-12T12:19:30Z</time>
      </trkpt>
      <trkpt lat="43.38513" lon="6.70622">
        <ele>103</ele>
        <time>2012-10-12T12:19:32Z</time>
      </trkpt>
      <trkpt lat="43.38517" lon="6.70629">
        <ele>103</ele>
        <time>2012-10-12T12:19:33Z</time>
      </trkpt>
      <trkpt lat="43.38528" lon="6.70649">
        <ele>102.52</ele>
        <time>2012-10-12T12:19:36Z</time>
      </trkpt>
      <trkpt lat="43.38541" lon="6.70669">
        <ele>100.6</ele>
        <time>2012-10-12T12:19:39Z</time>
      </trkpt>
      <trkpt lat="43.38545" lon="6.70676">
        <ele>100.11</ele>
        <time>2012-10-12T12:19:40Z</time>
      </trkpt>
      <trkpt lat="43.38553" lon="6.70686">
        <ele>102.52</ele>
        <time>2012-10-12T12:19:43Z</time>
      </trkpt>
      <trkpt lat="43.38557" lon="6.70695">
        <ele>104.44</ele>
        <time>2012-10-12T12:19:48Z</time>
      </trkpt>
      <trkpt lat="43.38562" lon="6.70702">
        <ele>105.88</ele>
        <time>2012-10-12T12:19:54Z</time>
      </trkpt>
      <trkpt lat="43.38566" lon="6.7071">
        <ele>107.81</ele>
        <time>2012-10-12T12:19:59Z</time>
      </trkpt>
      <trkpt lat="43.38575" lon="6.70719">
        <ele>110.21</ele>
        <time>2012-10-12T12:20:08Z</time>
      </trkpt>
      <trkpt lat="43.38588" lon="6.70727">
        <ele>112.61</ele>
        <time>2012-10-12T12:20:19Z</time>
      </trkpt>
      <trkpt lat="43.38591" lon="6.70727">
        <ele>113.57</ele>
        <time>2012-10-12T12:20:21Z</time>
      </trkpt>
      <trkpt lat="43.38599" lon="6.70729">
        <ele>114.53</ele>
        <time>2012-10-12T12:20:27Z</time>
      </trkpt>
      <trkpt lat="43.38616" lon="6.70734">
        <ele>114.53</ele>
        <time>2012-10-12T12:20:38Z</time>
      </trkpt>
      <trkpt lat="43.38638" lon="6.70739">
        <ele>110.69</ele>
        <time>2012-10-12T12:20:46Z</time>
      </trkpt>
      <trkpt lat="43.38651" lon="6.70734">
        <ele>106.84</ele>
        <time>2012-10-12T12:20:52Z</time>
      </trkpt>
      <trkpt lat="43.38653" lon="6.70731">
        <ele>106.84</ele>
        <time>2012-10-12T12:20:53Z</time>
      </trkpt>
      <trkpt lat="43.38656" lon="6.70726">
        <ele>104.92</ele>
        <time>2012-10-12T12:20:55Z</time>
      </trkpt>
      <trkpt lat="43.38659" lon="6.70724">
        <ele>103</ele>
        <time>2012-10-12T12:20:56Z</time>
      </trkpt>
      <trkpt lat="43.38668" lon="6.70727">
        <ele>101.56</ele>
        <time>2012-10-12T12:20:59Z</time>
      </trkpt>
      <trkpt lat="43.38688" lon="6.70728">
        <ele>101.56</ele>
        <time>2012-10-12T12:21:05Z</time>
      </trkpt>
      <trkpt lat="43.38689" lon="6.70727">
        <ele>101.56</ele>
        <time>2012-10-12T12:21:06Z</time>
      </trkpt>
      <trkpt lat="43.38691" lon="6.70723">
        <ele>102.52</ele>
        <time>2012-10-12T12:21:12Z</time>
      </trkpt>
      <trkpt lat="43.38698" lon="6.70721">
        <ele>105.4</ele>
        <time>2012-10-12T12:21:23Z</time>
      </trkpt>
      <trkpt lat="43.38704" lon="6.70722">
        <ele>106.84</ele>
        <time>2012-10-12T12:21:33Z</time>
      </trkpt>
      <trkpt lat="43.38714" lon="6.70721">
        <ele>109.25</ele>
        <time>2012-10-12T12:21:43Z</time>
      </trkpt>
      <trkpt lat="43.38723" lon="6.70724">
        <ele>111.65</ele>
        <time>2012-10-12T12:21:52Z</time>
      </trkpt>
      <trkpt lat="43.38734" lon="6.70721">
        <ele>111.65</ele>
        <time>2012-10-12T12:22:00Z</time>
      </trkpt>
      <trkpt lat="43.38754" lon="6.7071">
        <ele>109.25</ele>
        <time>2012-10-12T12:22:08Z</time>
      </trkpt>
      <trkpt lat="43.38758" lon="6.70707">
        <ele>109.25</ele>
        <time>2012-10-12T12:22:09Z</time>
      </trkpt>
      <trkpt lat="43.38788" lon="6.70689">
        <ele>106.36</ele>
        <time>2012-10-12T12:22:16Z</time>
      </trkpt>
      <trkpt lat="43.38806" lon="6.70678">
        <ele>104.92</ele>
        <time>2012-10-12T12:22:20Z</time>
      </trkpt>
      <trkpt lat="43.38812" lon="6.70674">
        <ele>102.04</ele>
        <time>2012-10-12T12:22:21Z</time>
      </trkpt>
      <trkpt lat="43.38841" lon="6.70663">
        <ele>97.71</ele>
        <time>2012-10-12T12:22:27Z</time>
      </trkpt>
      <trkpt lat="43.3887" lon="6.70642">
        <ele>92.9</ele>
        <time>2012-10-12T12:22:33Z</time>
      </trkpt>
      <trkpt lat="43.38874" lon="6.70635">
        <ele>93.39</ele>
        <time>2012-10-12T12:22:34Z</time>
      </trkpt>
      <trkpt lat="43.38882" lon="6.70624">
        <ele>96.75</ele>
        <time>2012-10-12T12:22:38Z</time>
      </trkpt>
      <trkpt lat="43.38888" lon="6.70614">
        <ele>98.67</ele>
        <time>2012-10-12T12:22:47Z</time>
      </trkpt>
      <trkpt lat="43.3889" lon="6.70609">
        <ele>100.11</ele>
        <time>2012-10-12T12:22:54Z</time>
      </trkpt>
      <trkpt lat="43.38904" lon="6.70602">
        <ele>103.48</ele>
        <time>2012-10-12T12:23:08Z</time>
      </trkpt>
      <trkpt lat="43.38906" lon="6.70601">
        <ele>103.96</ele>
        <time>2012-10-12T12:23:09Z</time>
      </trkpt>
      <trkpt lat="43.38909" lon="6.706">
        <ele>104.44</ele>
        <time>2012-10-12T12:23:17Z</time>
      </trkpt>
      <trkpt lat="43.3891" lon="6.706">
        <ele>104.92</ele>
        <time>2012-10-12T12:23:19Z</time>
      </trkpt>
      <trkpt lat="43.38922" lon="6.70588">
        <ele>102.52</ele>
        <time>2012-10-12T12:23:26Z</time>
      </trkpt>
      <trkpt lat="43.38943" lon="6.70569">
        <ele>99.15</ele>
        <time>2012-10-12T12:23:33Z</time>
      </trkpt>
      <trkpt lat="43.3895" lon="6.70567">
        <ele>98.19</ele>
        <time>2012-10-12T12:23:36Z</time>
      </trkpt>
      <trkpt lat="43.38964" lon="6.70578">
        <ele>95.31</ele>
        <time>2012-10-12T12:23:41Z</time>
      </trkpt>
      <trkpt lat="43.38969" lon="6.70585">
        <ele>93.87</ele>
        <time>2012-10-12T12:23:44Z</time>
      </trkpt>
      <trkpt lat="43.38978" lon="6.70579">
        <ele>90.02</ele>
        <time>2012-10-12T12:23:48Z</time>
      </trkpt>
      <trkpt lat="43.3898" lon="6.7057">
        <ele>89.06</ele>
        <time>2012-10-12T12:23:50Z</time>
      </trkpt>
      <trkpt lat="43.38983" lon="6.70556">
        <ele>89.06</ele>
        <time>2012-10-12T12:23:53Z</time>
      </trkpt>
      <trkpt lat="43.38994" lon="6.70542">
        <ele>86.18</ele>
        <time>2012-10-12T12:23:58Z</time>
      </trkpt>
      <trkpt lat="43.38998" lon="6.70537">
        <ele>84.73</ele>
        <time>2012-10-12T12:24:00Z</time>
      </trkpt>
      <trkpt lat="43.39003" lon="6.7053">
        <ele>83.77</ele>
        <time>2012-10-12T12:24:03Z</time>
      </trkpt>
      <trkpt lat="43.39008" lon="6.7053">
        <ele>82.33</ele>
        <time>2012-10-12T12:24:05Z</time>
      </trkpt>
      <trkpt lat="43.39017" lon="6.70534">
        <ele>79.45</ele>
        <time>2012-10-12T12:24:09Z</time>
      </trkpt>
      <trkpt lat="43.39023" lon="6.70535">
        <ele>77.52</ele>
        <time>2012-10-12T12:24:12Z</time>
      </trkpt>
      <trkpt lat="43.39024" lon="6.70521">
        <ele>76.56</ele>
        <time>2012-10-12T12:24:18Z</time>
      </trkpt>
      <trkpt lat="43.39028" lon="6.70511">
        <ele>75.12</ele>
        <time>2012-10-12T12:24:24Z</time>
      </trkpt>
      <trkpt lat="43.39038" lon="6.7052">
        <ele>71.76</ele>
        <time>2012-10-12T12:24:30Z</time>
      </trkpt>
      <trkpt lat="43.39049" lon="6.70526">
        <ele>68.87</ele>
        <time>2012-10-12T12:24:34Z</time>
      </trkpt>
      <trkpt lat="43.39051" lon="6.7053">
        <ele>68.87</ele>
        <time>2012-10-12T12:24:35Z</time>
      </trkpt>
      <trkpt lat="43.39052" lon="6.70534">
        <ele>68.87</ele>
        <time>2012-10-12T12:24:36Z</time>
      </trkpt>
      <trkpt lat="43.39053" lon="6.70538">
        <ele>68.39</ele>
        <time>2012-10-12T12:24:37Z</time>
      </trkpt>
      <trkpt lat="43.39052" lon="6.70543">
        <ele>68.87</ele>
        <time>2012-10-12T12:24:38Z</time>
      </trkpt>
      <trkpt lat="43.39051" lon="6.70549">
        <ele>68.39</ele>
        <time>2012-10-12T12:24:39Z</time>
      </trkpt>
      <trkpt lat="43.39051" lon="6.70556">
        <ele>66.95</ele>
        <time>2012-10-12T12:24:40Z</time>
      </trkpt>
      <trkpt lat="43.39052" lon="6.70564">
        <ele>66.47</ele>
        <time>2012-10-12T12:24:41Z</time>
      </trkpt>
      <trkpt lat="43.39055" lon="6.70571">
        <ele>66.47</ele>
        <time>2012-10-12T12:24:42Z</time>
      </trkpt>
      <trkpt lat="43.39059" lon="6.70577">
        <ele>65.51</ele>
        <time>2012-10-12T12:24:43Z</time>
      </trkpt>
      <trkpt lat="43.39063" lon="6.70583">
        <ele>65.03</ele>
        <time>2012-10-12T12:24:44Z</time>
      </trkpt>
      <trkpt lat="43.39068" lon="6.70588">
        <ele>65.51</ele>
        <time>2012-10-12T12:24:45Z</time>
      </trkpt>
      <trkpt lat="43.39072" lon="6.70592">
        <ele>65.51</ele>
        <time>2012-10-12T12:24:46Z</time>
      </trkpt>
      <trkpt lat="43.39082" lon="6.70601">
        <ele>65.03</ele>
        <time>2012-10-12T12:24:48Z</time>
      </trkpt>
      <trkpt lat="43.39094" lon="6.70608">
        <ele>64.07</ele>
        <time>2012-10-12T12:24:52Z</time>
      </trkpt>
      <trkpt lat="43.39095" lon="6.70606">
        <ele>63.58</ele>
        <time>2012-10-12T12:24:54Z</time>
      </trkpt>
      <trkpt lat="43.39096" lon="6.70604">
        <ele>63.58</ele>
        <time>2012-10-12T12:24:55Z</time>
      </trkpt>
      <trkpt lat="43.39097" lon="6.70602">
        <ele>63.1</ele>
        <time>2012-10-12T12:24:56Z</time>
      </trkpt>
      <trkpt lat="43.391" lon="6.70602">
        <ele>63.1</ele>
        <time>2012-10-12T12:24:57Z</time>
      </trkpt>
      <trkpt lat="43.39106" lon="6.70606">
        <ele>61.66</ele>
        <time>2012-10-12T12:24:59Z</time>
      </trkpt>
      <trkpt lat="43.3911" lon="6.70609">
        <ele>61.18</ele>
        <time>2012-10-12T12:25:00Z</time>
      </trkpt>
      <trkpt lat="43.39113" lon="6.70613">
        <ele>60.7</ele>
        <time>2012-10-12T12:25:01Z</time>
      </trkpt>
      <trkpt lat="43.39121" lon="6.70624">
        <ele>60.22</ele>
        <time>2012-10-12T12:25:04Z</time>
      </trkpt>
      <trkpt lat="43.3913" lon="6.70649">
        <ele>60.22</ele>
        <time>2012-10-12T12:25:10Z</time>
      </trkpt>
      <trkpt lat="43.39137" lon="6.70656">
        <ele>59.26</ele>
        <time>2012-10-12T12:25:12Z</time>
      </trkpt>
      <trkpt lat="43.39146" lon="6.70662">
        <ele>58.3</ele>
        <time>2012-10-12T12:25:14Z</time>
      </trkpt>
      <trkpt lat="43.39151" lon="6.70665">
        <ele>58.3</ele>
        <time>2012-10-12T12:25:15Z</time>
      </trkpt>
      <trkpt lat="43.39156" lon="6.70668">
        <ele>57.34</ele>
        <time>2012-10-12T12:25:16Z</time>
      </trkpt>
      <trkpt lat="43.39164" lon="6.70675">
        <ele>58.3</ele>
        <time>2012-10-12T12:25:18Z</time>
      </trkpt>
      <trkpt lat="43.39168" lon="6.70677">
        <ele>57.82</ele>
        <time>2012-10-12T12:25:19Z</time>
      </trkpt>
      <trkpt lat="43.39172" lon="6.70676">
        <ele>57.82</ele>
        <time>2012-10-12T12:25:20Z</time>
      </trkpt>
      <trkpt lat="43.39176" lon="6.70675">
        <ele>57.82</ele>
        <time>2012-10-12T12:25:21Z</time>
      </trkpt>
      <trkpt lat="43.39179" lon="6.70675">
        <ele>57.34</ele>
        <time>2012-10-12T12:25:22Z</time>
      </trkpt>
      <trkpt lat="43.39183" lon="6.70675">
        <ele>57.34</ele>
        <time>2012-10-12T12:25:23Z</time>
      </trkpt>
      <trkpt lat="43.39187" lon="6.70678">
        <ele>57.34</ele>
        <time>2012-10-12T12:25:24Z</time>
      </trkpt>
      <trkpt lat="43.39192" lon="6.7068">
        <ele>56.37</ele>
        <time>2012-10-12T12:25:25Z</time>
      </trkpt>
      <trkpt lat="43.39197" lon="6.70682">
        <ele>56.37</ele>
        <time>2012-10-12T12:25:26Z</time>
      </trkpt>
      <trkpt lat="43.39224" lon="6.70691">
        <ele>55.41</ele>
        <time>2012-10-12T12:25:33Z</time>
      </trkpt>
      <trkpt lat="43.39237" lon="6.70699">
        <ele>53.49</ele>
        <time>2012-10-12T12:25:40Z</time>
      </trkpt>
      <trkpt lat="43.39239" lon="6.70701">
        <ele>53.01</ele>
        <time>2012-10-12T12:25:41Z</time>
      </trkpt>
      <trkpt lat="43.39242" lon="6.70701">
        <ele>52.53</ele>
        <time>2012-10-12T12:25:42Z</time>
      </trkpt>
      <trkpt lat="43.39243" lon="6.70701">
        <ele>52.05</ele>
        <time>2012-10-12T12:25:43Z</time>
      </trkpt>
      <trkpt lat="43.39245" lon="6.707">
        <ele>51.09</ele>
        <time>2012-10-12T12:25:44Z</time>
      </trkpt>
      <trkpt lat="43.39247" lon="6.707">
        <ele>50.61</ele>
        <time>2012-10-12T12:25:45Z</time>
      </trkpt>
      <trkpt lat="43.39254" lon="6.70701">
        <ele>49.65</ele>
        <time>2012-10-12T12:25:49Z</time>
      </trkpt>
      <trkpt lat="43.39259" lon="6.70701">
        <ele>49.16</ele>
        <time>2012-10-12T12:25:59Z</time>
      </trkpt>
      <trkpt lat="43.39261" lon="6.70701">
        <ele>48.2</ele>
        <time>2012-10-12T12:26:01Z</time>
      </trkpt>
      <trkpt lat="43.39268" lon="6.70697">
        <ele>44.84</ele>
        <time>2012-10-12T12:26:06Z</time>
      </trkpt>
      <trkpt lat="43.39267" lon="6.70694">
        <ele>44.84</ele>
        <time>2012-10-12T12:26:07Z</time>
      </trkpt>
      <trkpt lat="43.39257" lon="6.70675">
        <ele>42.92</ele>
        <time>2012-10-12T12:26:13Z</time>
      </trkpt>
      <trkpt lat="43.39263" lon="6.7066">
        <ele>43.88</ele>
        <time>2012-10-12T12:26:18Z</time>
      </trkpt>
      <trkpt lat="43.39267" lon="6.7066">
        <ele>42.92</ele>
        <time>2012-10-12T12:26:20Z</time>
      </trkpt>
      <trkpt lat="43.39279" lon="6.70662">
        <ele>43.88</ele>
        <time>2012-10-12T12:26:27Z</time>
      </trkpt>
      <trkpt lat="43.39286" lon="6.70658">
        <ele>45.32</ele>
        <time>2012-10-12T12:26:36Z</time>
      </trkpt>
      <trkpt lat="43.39288" lon="6.70658">
        <ele>45.8</ele>
        <time>2012-10-12T12:26:42Z</time>
      </trkpt>
      <trkpt lat="43.39292" lon="6.70657">
        <ele>45.8</ele>
        <time>2012-10-12T12:26:51Z</time>
      </trkpt>
      <trkpt lat="43.393" lon="6.70655">
        <ele>46.76</ele>
        <time>2012-10-12T12:27:01Z</time>
      </trkpt>
      <trkpt lat="43.39302" lon="6.70655">
        <ele>48.2</ele>
        <time>2012-10-12T12:27:04Z</time>
      </trkpt>
      <trkpt lat="43.39309" lon="6.70655">
        <ele>48.68</ele>
        <time>2012-10-12T12:27:13Z</time>
      </trkpt>
      <trkpt lat="43.39317" lon="6.70656">
        <ele>50.13</ele>
        <time>2012-10-12T12:27:25Z</time>
      </trkpt>
      <trkpt lat="43.39323" lon="6.70656">
        <ele>52.53</ele>
        <time>2012-10-12T12:27:34Z</time>
      </trkpt>
      <trkpt lat="43.39325" lon="6.70657">
        <ele>52.05</ele>
        <time>2012-10-12T12:27:36Z</time>
      </trkpt>
      <trkpt lat="43.39335" lon="6.70657">
        <ele>53.49</ele>
        <time>2012-10-12T12:27:46Z</time>
      </trkpt>
      <trkpt lat="43.39337" lon="6.70656">
        <ele>53.97</ele>
        <time>2012-10-12T12:27:50Z</time>
      </trkpt>
      <trkpt lat="43.39342" lon="6.70656">
        <ele>53.01</ele>
        <time>2012-10-12T12:27:54Z</time>
      </trkpt>
      <trkpt lat="43.39352" lon="6.70655">
        <ele>53.97</ele>
        <time>2012-10-12T12:28:03Z</time>
      </trkpt>
      <trkpt lat="43.3936" lon="6.70657">
        <ele>53.97</ele>
        <time>2012-10-12T12:28:06Z</time>
      </trkpt>
      <trkpt lat="43.39384" lon="6.70672">
        <ele>53.49</ele>
        <time>2012-10-12T12:28:15Z</time>
      </trkpt>
      <trkpt lat="43.39397" lon="6.70676">
        <ele>54.93</ele>
        <time>2012-10-12T12:28:22Z</time>
      </trkpt>
      <trkpt lat="43.39417" lon="6.70681">
        <ele>57.82</ele>
        <time>2012-10-12T12:28:32Z</time>
      </trkpt>
      <trkpt lat="43.39434" lon="6.7068">
        <ele>59.26</ele>
        <time>2012-10-12T12:28:40Z</time>
      </trkpt>
      <trkpt lat="43.39454" lon="6.70688">
        <ele>59.74</ele>
        <time>2012-10-12T12:28:51Z</time>
      </trkpt>
      <trkpt lat="43.3946" lon="6.70678">
        <ele>60.22</ele>
        <time>2012-10-12T12:28:58Z</time>
      </trkpt>
      <trkpt lat="43.39459" lon="6.70677">
        <ele>60.7</ele>
        <time>2012-10-12T12:28:59Z</time>
      </trkpt>
      <trkpt lat="43.39476" lon="6.70669">
        <ele>62.14</ele>
        <time>2012-10-12T12:29:07Z</time>
      </trkpt>
      <trkpt lat="43.39491" lon="6.70666">
        <ele>63.1</ele>
        <time>2012-10-12T12:29:12Z</time>
      </trkpt>
      <trkpt lat="43.39494" lon="6.70645">
        <ele>64.55</ele>
        <time>2012-10-12T12:29:19Z</time>
      </trkpt>
      <trkpt lat="43.39498" lon="6.70633">
        <ele>65.03</ele>
        <time>2012-10-12T12:29:23Z</time>
      </trkpt>
      <trkpt lat="43.39513" lon="6.70606">
        <ele>65.51</ele>
        <time>2012-10-12T12:29:31Z</time>
      </trkpt>
      <trkpt lat="43.39522" lon="6.70602">
        <ele>65.51</ele>
        <time>2012-10-12T12:29:34Z</time>
      </trkpt>
      <trkpt lat="43.39538" lon="6.70603">
        <ele>64.55</ele>
        <time>2012-10-12T12:29:39Z</time>
      </trkpt>
      <trkpt lat="43.39542" lon="6.70614">
        <ele>62.62</ele>
        <time>2012-10-12T12:29:42Z</time>
      </trkpt>
      <trkpt lat="43.39543" lon="6.70622">
        <ele>61.66</ele>
        <time>2012-10-12T12:29:44Z</time>
      </trkpt>
      <trkpt lat="43.39547" lon="6.70632">
        <ele>59.74</ele>
        <time>2012-10-12T12:29:47Z</time>
      </trkpt>
      <trkpt lat="43.39549" lon="6.70633">
        <ele>59.26</ele>
        <time>2012-10-12T12:29:48Z</time>
      </trkpt>
      <trkpt lat="43.39564" lon="6.70627">
        <ele>55.89</ele>
        <time>2012-10-12T12:29:54Z</time>
      </trkpt>
      <trkpt lat="43.39573" lon="6.70605">
        <ele>55.89</ele>
        <time>2012-10-12T12:29:59Z</time>
      </trkpt>
      <trkpt lat="43.39575" lon="6.70603">
        <ele>55.89</ele>
        <time>2012-10-12T12:30:01Z</time>
      </trkpt>
      <trkpt lat="43.3958" lon="6.70599">
        <ele>56.37</ele>
        <time>2012-10-12T12:30:07Z</time>
      </trkpt>
      <trkpt lat="43.39589" lon="6.70603">
        <ele>57.34</ele>
        <time>2012-10-12T12:30:13Z</time>
      </trkpt>
      <trkpt lat="43.39593" lon="6.70612">
        <ele>58.78</ele>
        <time>2012-10-12T12:30:20Z</time>
      </trkpt>
      <trkpt lat="43.39598" lon="6.70622">
        <ele>57.34</ele>
        <time>2012-10-12T12:30:25Z</time>
      </trkpt>
      <trkpt lat="43.39601" lon="6.70636">
        <ele>58.3</ele>
        <time>2012-10-12T12:30:29Z</time>
      </trkpt>
      <trkpt lat="43.39604" lon="6.70652">
        <ele>59.74</ele>
        <time>2012-10-12T12:30:35Z</time>
      </trkpt>
      <trkpt lat="43.39603" lon="6.70667">
        <ele>61.66</ele>
        <time>2012-10-12T12:30:41Z</time>
      </trkpt>
      <trkpt lat="43.39607" lon="6.70682">
        <ele>62.62</ele>
        <time>2012-10-12T12:30:48Z</time>
      </trkpt>
      <trkpt lat="43.39623" lon="6.70683">
        <ele>64.07</ele>
        <time>2012-10-12T12:30:56Z</time>
      </trkpt>
      <trkpt lat="43.3964" lon="6.70677">
        <ele>65.51</ele>
        <time>2012-10-12T12:31:06Z</time>
      </trkpt>
      <trkpt lat="43.39654" lon="6.70673">
        <ele>66.95</ele>
        <time>2012-10-12T12:31:14Z</time>
      </trkpt>
      <trkpt lat="43.39669" lon="6.70659">
        <ele>68.87</ele>
        <time>2012-10-12T12:31:23Z</time>
      </trkpt>
      <trkpt lat="43.39688" lon="6.70649">
        <ele>67.91</ele>
        <time>2012-10-12T12:31:30Z</time>
      </trkpt>
      <trkpt lat="43.39714" lon="6.70647">
        <ele>66.95</ele>
        <time>2012-10-12T12:31:37Z</time>
      </trkpt>
      <trkpt lat="43.39719" lon="6.70649">
        <ele>66.95</ele>
        <time>2012-10-12T12:31:38Z</time>
      </trkpt>
      <trkpt lat="43.39723" lon="6.70652">
        <ele>66.95</ele>
        <time>2012-10-12T12:31:39Z</time>
      </trkpt>
      <trkpt lat="43.3973" lon="6.70659">
        <ele>66.95</ele>
        <time>2012-10-12T12:31:41Z</time>
      </trkpt>
      <trkpt lat="43.39734" lon="6.70659">
        <ele>66.95</ele>
        <time>2012-10-12T12:31:42Z</time>
      </trkpt>
      <trkpt lat="43.39738" lon="6.70656">
        <ele>66.95</ele>
        <time>2012-10-12T12:31:43Z</time>
      </trkpt>
      <trkpt lat="43.3974" lon="6.70651">
        <ele>66.95</ele>
        <time>2012-10-12T12:31:44Z</time>
      </trkpt>
      <trkpt lat="43.39743" lon="6.70646">
        <ele>66.95</ele>
        <time>2012-10-12T12:31:45Z</time>
      </trkpt>
      <trkpt lat="43.39745" lon="6.7064">
        <ele>66.95</ele>
        <time>2012-10-12T12:31:46Z</time>
      </trkpt>
      <trkpt lat="43.3975" lon="6.70629">
        <ele>66.47</ele>
        <time>2012-10-12T12:31:48Z</time>
      </trkpt>
      <trkpt lat="43.39753" lon="6.70623">
        <ele>67.43</ele>
        <time>2012-10-12T12:31:49Z</time>
      </trkpt>
      <trkpt lat="43.39762" lon="6.70605">
        <ele>67.91</ele>
        <time>2012-10-12T12:31:53Z</time>
      </trkpt>
      <trkpt lat="43.3977" lon="6.70588">
        <ele>66.47</ele>
        <time>2012-10-12T12:31:57Z</time>
      </trkpt>
      <trkpt lat="43.39773" lon="6.70576">
        <ele>65.99</ele>
        <time>2012-10-12T12:31:59Z</time>
      </trkpt>
      <trkpt lat="43.39776" lon="6.70572">
        <ele>65.99</ele>
        <time>2012-10-12T12:32:00Z</time>
      </trkpt>
      <trkpt lat="43.3978" lon="6.70569">
        <ele>66.47</ele>
        <time>2012-10-12T12:32:01Z</time>
      </trkpt>
      <trkpt lat="43.39795" lon="6.70553">
        <ele>67.43</ele>
        <time>2012-10-12T12:32:07Z</time>
      </trkpt>
      <trkpt lat="43.39797" lon="6.70549">
        <ele>67.91</ele>
        <time>2012-10-12T12:32:08Z</time>
      </trkpt>
      <trkpt lat="43.39799" lon="6.70545">
        <ele>67.91</ele>
        <time>2012-10-12T12:32:09Z</time>
      </trkpt>
      <trkpt lat="43.39804" lon="6.70538">
        <ele>66.95</ele>
        <time>2012-10-12T12:32:11Z</time>
      </trkpt>
      <trkpt lat="43.39805" lon="6.70533">
        <ele>66.47</ele>
        <time>2012-10-12T12:32:12Z</time>
      </trkpt>
      <trkpt lat="43.39806" lon="6.70526">
        <ele>65.99</ele>
        <time>2012-10-12T12:32:13Z</time>
      </trkpt>
      <trkpt lat="43.39807" lon="6.70521">
        <ele>65.99</ele>
        <time>2012-10-12T12:32:14Z</time>
      </trkpt>
      <trkpt lat="43.39811" lon="6.70517">
        <ele>65.99</ele>
        <time>2012-10-12T12:32:15Z</time>
      </trkpt>
      <trkpt lat="43.39814" lon="6.70516">
        <ele>66.47</ele>
        <time>2012-10-12T12:32:16Z</time>
      </trkpt>
      <trkpt lat="43.39817" lon="6.70513">
        <ele>65.99</ele>
        <time>2012-10-12T12:32:17Z</time>
      </trkpt>
      <trkpt lat="43.39818" lon="6.70509">
        <ele>65.99</ele>
        <time>2012-10-12T12:32:18Z</time>
      </trkpt>
      <trkpt lat="43.39821" lon="6.70505">
        <ele>66.95</ele>
        <time>2012-10-12T12:32:19Z</time>
      </trkpt>
      <trkpt lat="43.39822" lon="6.70501">
        <ele>66.47</ele>
        <time>2012-10-12T12:32:20Z</time>
      </trkpt>
      <trkpt lat="43.39824" lon="6.70496">
        <ele>67.91</ele>
        <time>2012-10-12T12:32:21Z</time>
      </trkpt>
      <trkpt lat="43.3983" lon="6.70482">
        <ele>67.43</ele>
        <time>2012-10-12T12:32:25Z</time>
      </trkpt>
      <trkpt lat="43.39833" lon="6.70482">
        <ele>66.95</ele>
        <time>2012-10-12T12:32:26Z</time>
      </trkpt>
      <trkpt lat="43.39835" lon="6.70484">
        <ele>66.95</ele>
        <time>2012-10-12T12:32:27Z</time>
      </trkpt>
      <trkpt lat="43.39836" lon="6.70488">
        <ele>67.43</ele>
        <time>2012-10-12T12:32:29Z</time>
      </trkpt>
      <trkpt lat="43.39836" lon="6.70489">
        <ele>67.91</ele>
        <time>2012-10-12T12:32:30Z</time>
      </trkpt>
      <trkpt lat="43.39837" lon="6.7049">
        <ele>68.39</ele>
        <time>2012-10-12T12:32:31Z</time>
      </trkpt>
      <trkpt lat="43.39837" lon="6.70492">
        <ele>68.39</ele>
        <time>2012-10-12T12:32:32Z</time>
      </trkpt>
      <trkpt lat="43.39838" lon="6.70493">
        <ele>69.35</ele>
        <time>2012-10-12T12:32:33Z</time>
      </trkpt>
      <trkpt lat="43.39843" lon="6.70501">
        <ele>69.83</ele>
        <time>2012-10-12T12:32:38Z</time>
      </trkpt>
      <trkpt lat="43.39844" lon="6.70502">
        <ele>69.83</ele>
        <time>2012-10-12T12:32:39Z</time>
      </trkpt>
      <trkpt lat="43.39849" lon="6.70506">
        <ele>71.76</ele>
        <time>2012-10-12T12:32:43Z</time>
      </trkpt>
      <trkpt lat="43.39855" lon="6.70514">
        <ele>72.24</ele>
        <time>2012-10-12T12:32:48Z</time>
      </trkpt>
      <trkpt lat="43.39866" lon="6.70548">
        <ele>70.79</ele>
        <time>2012-10-12T12:32:57Z</time>
      </trkpt>
      <trkpt lat="43.39873" lon="6.70562">
        <ele>69.83</ele>
        <time>2012-10-12T12:33:00Z</time>
      </trkpt>
      <trkpt lat="43.39881" lon="6.7057">
        <ele>69.83</ele>
        <time>2012-10-12T12:33:02Z</time>
      </trkpt>
      <trkpt lat="43.39891" lon="6.70583">
        <ele>70.79</ele>
        <time>2012-10-12T12:33:05Z</time>
      </trkpt>
      <trkpt lat="43.39895" lon="6.70586">
        <ele>70.79</ele>
        <time>2012-10-12T12:33:06Z</time>
      </trkpt>
      <trkpt lat="43.399" lon="6.70588">
        <ele>70.31</ele>
        <time>2012-10-12T12:33:07Z</time>
      </trkpt>
      <trkpt lat="43.39904" lon="6.70589">
        <ele>69.35</ele>
        <time>2012-10-12T12:33:08Z</time>
      </trkpt>
      <trkpt lat="43.39909" lon="6.7059">
        <ele>68.87</ele>
        <time>2012-10-12T12:33:09Z</time>
      </trkpt>
      <trkpt lat="43.39913" lon="6.70591">
        <ele>69.35</ele>
        <time>2012-10-12T12:33:10Z</time>
      </trkpt>
      <trkpt lat="43.39917" lon="6.70591">
        <ele>69.83</ele>
        <time>2012-10-12T12:33:11Z</time>
      </trkpt>
      <trkpt lat="43.3992" lon="6.70589">
        <ele>70.31</ele>
        <time>2012-10-12T12:33:12Z</time>
      </trkpt>
      <trkpt lat="43.39922" lon="6.70587">
        <ele>71.27</ele>
        <time>2012-10-12T12:33:13Z</time>
      </trkpt>
      <trkpt lat="43.39925" lon="6.70586">
        <ele>71.27</ele>
        <time>2012-10-12T12:33:14Z</time>
      </trkpt>
      <trkpt lat="43.39945" lon="6.70566">
        <ele>73.68</ele>
        <time>2012-10-12T12:33:22Z</time>
      </trkpt>
      <trkpt lat="43.39953" lon="6.7056">
        <ele>73.68</ele>
        <time>2012-10-12T12:33:25Z</time>
      </trkpt>
      <trkpt lat="43.39976" lon="6.7055">
        <ele>74.64</ele>
        <time>2012-10-12T12:33:34Z</time>
      </trkpt>
      <trkpt lat="43.39986" lon="6.70535">
        <ele>75.12</ele>
        <time>2012-10-12T12:33:39Z</time>
      </trkpt>
      <trkpt lat="43.39986" lon="6.7053">
        <ele>75.12</ele>
        <time>2012-10-12T12:33:40Z</time>
      </trkpt>
      <trkpt lat="43.39986" lon="6.70526">
        <ele>74.64</ele>
        <time>2012-10-12T12:33:41Z</time>
      </trkpt>
      <trkpt lat="43.39987" lon="6.70493">
        <ele>75.12</ele>
        <time>2012-10-12T12:33:48Z</time>
      </trkpt>
      <trkpt lat="43.39988" lon="6.70489">
        <ele>75.12</ele>
        <time>2012-10-12T12:33:49Z</time>
      </trkpt>
      <trkpt lat="43.39997" lon="6.70462">
        <ele>75.6</ele>
        <time>2012-10-12T12:33:56Z</time>
      </trkpt>
      <trkpt lat="43.39999" lon="6.70457">
        <ele>74.64</ele>
        <time>2012-10-12T12:33:57Z</time>
      </trkpt>
      <trkpt lat="43.40001" lon="6.70451">
        <ele>74.16</ele>
        <time>2012-10-12T12:33:58Z</time>
      </trkpt>
      <trkpt lat="43.40003" lon="6.70445">
        <ele>73.68</ele>
        <time>2012-10-12T12:33:59Z</time>
      </trkpt>
      <trkpt lat="43.40003" lon="6.70438">
        <ele>73.68</ele>
        <time>2012-10-12T12:34:00Z</time>
      </trkpt>
      <trkpt lat="43.40002" lon="6.70432">
        <ele>73.2</ele>
        <time>2012-10-12T12:34:01Z</time>
      </trkpt>
      <trkpt lat="43.40003" lon="6.70427">
        <ele>73.2</ele>
        <time>2012-10-12T12:34:02Z</time>
      </trkpt>
      <trkpt lat="43.40006" lon="6.70424">
        <ele>72.24</ele>
        <time>2012-10-12T12:34:03Z</time>
      </trkpt>
      <trkpt lat="43.40009" lon="6.70423">
        <ele>72.72</ele>
        <time>2012-10-12T12:34:04Z</time>
      </trkpt>
      <trkpt lat="43.40012" lon="6.70423">
        <ele>72.24</ele>
        <time>2012-10-12T12:34:05Z</time>
      </trkpt>
      <trkpt lat="43.40033" lon="6.70429">
        <ele>73.2</ele>
        <time>2012-10-12T12:34:11Z</time>
      </trkpt>
      <trkpt lat="43.40048" lon="6.70422">
        <ele>73.2</ele>
        <time>2012-10-12T12:34:18Z</time>
      </trkpt>
      <trkpt lat="43.40049" lon="6.7042">
        <ele>72.24</ele>
        <time>2012-10-12T12:34:27Z</time>
      </trkpt>
      <trkpt lat="43.40052" lon="6.7042">
        <ele>72.24</ele>
        <time>2012-10-12T12:34:35Z</time>
      </trkpt>
      <trkpt lat="43.40055" lon="6.7042">
        <ele>72.72</ele>
        <time>2012-10-12T12:34:36Z</time>
      </trkpt>
      <trkpt lat="43.40057" lon="6.70419">
        <ele>72.24</ele>
        <time>2012-10-12T12:34:37Z</time>
      </trkpt>
      <trkpt lat="43.40061" lon="6.70419">
        <ele>71.27</ele>
        <time>2012-10-12T12:34:38Z</time>
      </trkpt>
      <trkpt lat="43.40065" lon="6.70419">
        <ele>70.79</ele>
        <time>2012-10-12T12:34:39Z</time>
      </trkpt>
      <trkpt lat="43.40069" lon="6.7042">
        <ele>70.31</ele>
        <time>2012-10-12T12:34:40Z</time>
      </trkpt>
      <trkpt lat="43.40071" lon="6.70425">
        <ele>69.83</ele>
        <time>2012-10-12T12:34:41Z</time>
      </trkpt>
      <trkpt lat="43.40073" lon="6.70431">
        <ele>68.87</ele>
        <time>2012-10-12T12:34:42Z</time>
      </trkpt>
      <trkpt lat="43.40074" lon="6.70436">
        <ele>68.39</ele>
        <time>2012-10-12T12:34:43Z</time>
      </trkpt>
      <trkpt lat="43.40077" lon="6.7044">
        <ele>68.39</ele>
        <time>2012-10-12T12:34:44Z</time>
      </trkpt>
      <trkpt lat="43.40079" lon="6.70444">
        <ele>67.43</ele>
        <time>2012-10-12T12:34:45Z</time>
      </trkpt>
      <trkpt lat="43.40082" lon="6.70447">
        <ele>68.39</ele>
        <time>2012-10-12T12:34:46Z</time>
      </trkpt>
      <trkpt lat="43.40084" lon="6.70451">
        <ele>68.39</ele>
        <time>2012-10-12T12:34:47Z</time>
      </trkpt>
      <trkpt lat="43.40084" lon="6.70456">
        <ele>67.91</ele>
        <time>2012-10-12T12:34:48Z</time>
      </trkpt>
      <trkpt lat="43.40084" lon="6.70461">
        <ele>68.39</ele>
        <time>2012-10-12T12:34:49Z</time>
      </trkpt>
      <trkpt lat="43.40083" lon="6.70466">
        <ele>67.43</ele>
        <time>2012-10-12T12:34:50Z</time>
      </trkpt>
      <trkpt lat="43.40085" lon="6.7047">
        <ele>67.43</ele>
        <time>2012-10-12T12:34:51Z</time>
      </trkpt>
      <trkpt lat="43.40087" lon="6.7047">
        <ele>68.87</ele>
        <time>2012-10-12T12:34:52Z</time>
      </trkpt>
      <trkpt lat="43.40089" lon="6.7047">
        <ele>68.87</ele>
        <time>2012-10-12T12:34:53Z</time>
      </trkpt>
      <trkpt lat="43.40091" lon="6.70468">
        <ele>69.83</ele>
        <time>2012-10-12T12:34:54Z</time>
      </trkpt>
      <trkpt lat="43.40093" lon="6.70468">
        <ele>70.31</ele>
        <time>2012-10-12T12:34:55Z</time>
      </trkpt>
      <trkpt lat="43.40095" lon="6.70468">
        <ele>70.79</ele>
        <time>2012-10-12T12:34:56Z</time>
      </trkpt>
      <trkpt lat="43.40096" lon="6.70469">
        <ele>70.31</ele>
        <time>2012-10-12T12:34:57Z</time>
      </trkpt>
      <trkpt lat="43.40098" lon="6.7047">
        <ele>70.79</ele>
        <time>2012-10-12T12:34:58Z</time>
      </trkpt>
      <trkpt lat="43.40099" lon="6.70473">
        <ele>70.79</ele>
        <time>2012-10-12T12:34:59Z</time>
      </trkpt>
      <trkpt lat="43.401" lon="6.70475">
        <ele>71.27</ele>
        <time>2012-10-12T12:35:00Z</time>
      </trkpt>
      <trkpt lat="43.40101" lon="6.70478">
        <ele>71.27</ele>
        <time>2012-10-12T12:35:01Z</time>
      </trkpt>
      <trkpt lat="43.40102" lon="6.70481">
        <ele>70.79</ele>
        <time>2012-10-12T12:35:02Z</time>
      </trkpt>
      <trkpt lat="43.40102" lon="6.70484">
        <ele>70.79</ele>
        <time>2012-10-12T12:35:03Z</time>
      </trkpt>
      <trkpt lat="43.40103" lon="6.70488">
        <ele>71.27</ele>
        <time>2012-10-12T12:35:04Z</time>
      </trkpt>
      <trkpt lat="43.40103" lon="6.70491">
        <ele>71.27</ele>
        <time>2012-10-12T12:35:05Z</time>
      </trkpt>
      <trkpt lat="43.40103" lon="6.70494">
        <ele>71.27</ele>
        <time>2012-10-12T12:35:06Z</time>
      </trkpt>
      <trkpt lat="43.40104" lon="6.70498">
        <ele>71.27</ele>
        <time>2012-10-12T12:35:07Z</time>
      </trkpt>
      <trkpt lat="43.40105" lon="6.70501">
        <ele>71.27</ele>
        <time>2012-10-12T12:35:08Z</time>
      </trkpt>
      <trkpt lat="43.40107" lon="6.70503">
        <ele>71.76</ele>
        <time>2012-10-12T12:35:09Z</time>
      </trkpt>
      <trkpt lat="43.40107" lon="6.70506">
        <ele>71.76</ele>
        <time>2012-10-12T12:35:10Z</time>
      </trkpt>
      <trkpt lat="43.40108" lon="6.7051">
        <ele>71.27</ele>
        <time>2012-10-12T12:35:11Z</time>
      </trkpt>
      <trkpt lat="43.4011" lon="6.70512">
        <ele>72.24</ele>
        <time>2012-10-12T12:35:12Z</time>
      </trkpt>
      <trkpt lat="43.40112" lon="6.70515">
        <ele>72.24</ele>
        <time>2012-10-12T12:35:13Z</time>
      </trkpt>
      <trkpt lat="43.40113" lon="6.70518">
        <ele>72.24</ele>
        <time>2012-10-12T12:35:14Z</time>
      </trkpt>
      <trkpt lat="43.40113" lon="6.70522">
        <ele>71.76</ele>
        <time>2012-10-12T12:35:15Z</time>
      </trkpt>
      <trkpt lat="43.40113" lon="6.70527">
        <ele>71.27</ele>
        <time>2012-10-12T12:35:16Z</time>
      </trkpt>
      <trkpt lat="43.40115" lon="6.70542">
        <ele>70.79</ele>
        <time>2012-10-12T12:35:19Z</time>
      </trkpt>
      <trkpt lat="43.40118" lon="6.70544">
        <ele>71.27</ele>
        <time>2012-10-12T12:35:20Z</time>
      </trkpt>
      <trkpt lat="43.4012" lon="6.70544">
        <ele>71.76</ele>
        <time>2012-10-12T12:35:21Z</time>
      </trkpt>
      <trkpt lat="43.40133" lon="6.70552">
        <ele>72.72</ele>
        <time>2012-10-12T12:35:29Z</time>
      </trkpt>
      <trkpt lat="43.40133" lon="6.70554">
        <ele>72.72</ele>
        <time>2012-10-12T12:35:30Z</time>
      </trkpt>
      <trkpt lat="43.40133" lon="6.70558">
        <ele>72.24</ele>
        <time>2012-10-12T12:35:31Z</time>
      </trkpt>
      <trkpt lat="43.40134" lon="6.70561">
        <ele>71.76</ele>
        <time>2012-10-12T12:35:32Z</time>
      </trkpt>
      <trkpt lat="43.40136" lon="6.70564">
        <ele>71.76</ele>
        <time>2012-10-12T12:35:33Z</time>
      </trkpt>
      <trkpt lat="43.40137" lon="6.70566">
        <ele>71.76</ele>
        <time>2012-10-12T12:35:34Z</time>
      </trkpt>
      <trkpt lat="43.40138" lon="6.70568">
        <ele>71.27</ele>
        <time>2012-10-12T12:35:35Z</time>
      </trkpt>
      <trkpt lat="43.40139" lon="6.7057">
        <ele>70.79</ele>
        <time>2012-10-12T12:35:36Z</time>
      </trkpt>
      <trkpt lat="43.40141" lon="6.70573">
        <ele>70.31</ele>
        <time>2012-10-12T12:35:37Z</time>
      </trkpt>
      <trkpt lat="43.40143" lon="6.70575">
        <ele>69.35</ele>
        <time>2012-10-12T12:35:38Z</time>
      </trkpt>
      <trkpt lat="43.40145" lon="6.70577">
        <ele>68.39</ele>
        <time>2012-10-12T12:35:39Z</time>
      </trkpt>
      <trkpt lat="43.40147" lon="6.70578">
        <ele>68.87</ele>
        <time>2012-10-12T12:35:40Z</time>
      </trkpt>
      <trkpt lat="43.40149" lon="6.7058">
        <ele>68.39</ele>
        <time>2012-10-12T12:35:41Z</time>
      </trkpt>
      <trkpt lat="43.40151" lon="6.70583">
        <ele>68.39</ele>
        <time>2012-10-12T12:35:42Z</time>
      </trkpt>
      <trkpt lat="43.40155" lon="6.70592">
        <ele>65.99</ele>
        <time>2012-10-12T12:35:44Z</time>
      </trkpt>
      <trkpt lat="43.40157" lon="6.70598">
        <ele>65.03</ele>
        <time>2012-10-12T12:35:45Z</time>
      </trkpt>
      <trkpt lat="43.4016" lon="6.70604">
        <ele>64.07</ele>
        <time>2012-10-12T12:35:46Z</time>
      </trkpt>
      <trkpt lat="43.40162" lon="6.70613">
        <ele>62.62</ele>
        <time>2012-10-12T12:35:47Z</time>
      </trkpt>
      <trkpt lat="43.40165" lon="6.70621">
        <ele>62.14</ele>
        <time>2012-10-12T12:35:48Z</time>
      </trkpt>
      <trkpt lat="43.40168" lon="6.70629">
        <ele>62.14</ele>
        <time>2012-10-12T12:35:49Z</time>
      </trkpt>
      <trkpt lat="43.40171" lon="6.70635">
        <ele>62.14</ele>
        <time>2012-10-12T12:35:50Z</time>
      </trkpt>
      <trkpt lat="43.40179" lon="6.7064">
        <ele>61.66</ele>
        <time>2012-10-12T12:35:52Z</time>
      </trkpt>
      <trkpt lat="43.40182" lon="6.70644">
        <ele>61.18</ele>
        <time>2012-10-12T12:35:53Z</time>
      </trkpt>
      <trkpt lat="43.40182" lon="6.7065">
        <ele>60.7</ele>
        <time>2012-10-12T12:35:54Z</time>
      </trkpt>
      <trkpt lat="43.40182" lon="6.70655">
        <ele>60.7</ele>
        <time>2012-10-12T12:35:55Z</time>
      </trkpt>
      <trkpt lat="43.40182" lon="6.70659">
        <ele>62.14</ele>
        <time>2012-10-12T12:35:56Z</time>
      </trkpt>
      <trkpt lat="43.40183" lon="6.70662">
        <ele>61.66</ele>
        <time>2012-10-12T12:35:57Z</time>
      </trkpt>
      <trkpt lat="43.40185" lon="6.70666">
        <ele>61.66</ele>
        <time>2012-10-12T12:35:58Z</time>
      </trkpt>
      <trkpt lat="43.40187" lon="6.70671">
        <ele>61.18</ele>
        <time>2012-10-12T12:35:59Z</time>
      </trkpt>
      <trkpt lat="43.40188" lon="6.70675">
        <ele>61.18</ele>
        <time>2012-10-12T12:36:00Z</time>
      </trkpt>
      <trkpt lat="43.40191" lon="6.70679">
        <ele>60.7</ele>
        <time>2012-10-12T12:36:01Z</time>
      </trkpt>
      <trkpt lat="43.40194" lon="6.70683">
        <ele>60.7</ele>
        <time>2012-10-12T12:36:02Z</time>
      </trkpt>
      <trkpt lat="43.40195" lon="6.70689">
        <ele>59.74</ele>
        <time>2012-10-12T12:36:03Z</time>
      </trkpt>
      <trkpt lat="43.40197" lon="6.70694">
        <ele>59.74</ele>
        <time>2012-10-12T12:36:04Z</time>
      </trkpt>
      <trkpt lat="43.40198" lon="6.70699">
        <ele>59.74</ele>
        <time>2012-10-12T12:36:05Z</time>
      </trkpt>
      <trkpt lat="43.402" lon="6.70702">
        <ele>59.26</ele>
        <time>2012-10-12T12:36:06Z</time>
      </trkpt>
      <trkpt lat="43.40203" lon="6.70703">
        <ele>59.26</ele>
        <time>2012-10-12T12:36:07Z</time>
      </trkpt>
      <trkpt lat="43.40205" lon="6.70705">
        <ele>59.26</ele>
        <time>2012-10-12T12:36:08Z</time>
      </trkpt>
      <trkpt lat="43.40208" lon="6.70709">
        <ele>58.78</ele>
        <time>2012-10-12T12:36:09Z</time>
      </trkpt>
      <trkpt lat="43.40209" lon="6.70714">
        <ele>58.78</ele>
        <time>2012-10-12T12:36:10Z</time>
      </trkpt>
      <trkpt lat="43.4021" lon="6.70718">
        <ele>58.3</ele>
        <time>2012-10-12T12:36:11Z</time>
      </trkpt>
      <trkpt lat="43.4021" lon="6.70723">
        <ele>57.82</ele>
        <time>2012-10-12T12:36:12Z</time>
      </trkpt>
      <trkpt lat="43.40206" lon="6.70742">
        <ele>56.37</ele>
        <time>2012-10-12T12:36:15Z</time>
      </trkpt>
      <trkpt lat="43.40206" lon="6.70751">
        <ele>55.41</ele>
        <time>2012-10-12T12:36:16Z</time>
      </trkpt>
      <trkpt lat="43.40206" lon="6.70759">
        <ele>54.45</ele>
        <time>2012-10-12T12:36:17Z</time>
      </trkpt>
      <trkpt lat="43.40205" lon="6.70768">
        <ele>53.49</ele>
        <time>2012-10-12T12:36:18Z</time>
      </trkpt>
      <trkpt lat="43.40203" lon="6.70777">
        <ele>53.97</ele>
        <time>2012-10-12T12:36:19Z</time>
      </trkpt>
      <trkpt lat="43.40201" lon="6.70785">
        <ele>53.01</ele>
        <time>2012-10-12T12:36:20Z</time>
      </trkpt>
      <trkpt lat="43.40192" lon="6.70811">
        <ele>52.05</ele>
        <time>2012-10-12T12:36:23Z</time>
      </trkpt>
      <trkpt lat="43.40184" lon="6.70826">
        <ele>51.09</ele>
        <time>2012-10-12T12:36:25Z</time>
      </trkpt>
      <trkpt lat="43.40171" lon="6.70843">
        <ele>50.61</ele>
        <time>2012-10-12T12:36:28Z</time>
      </trkpt>
      <trkpt lat="43.40161" lon="6.70859">
        <ele>50.13</ele>
        <time>2012-10-12T12:36:31Z</time>
      </trkpt>
      <trkpt lat="43.40151" lon="6.70883">
        <ele>47.24</ele>
        <time>2012-10-12T12:36:35Z</time>
      </trkpt>
      <trkpt lat="43.40146" lon="6.70913">
        <ele>43.88</ele>
        <time>2012-10-12T12:36:42Z</time>
      </trkpt>
      <trkpt lat="43.40141" lon="6.70929">
        <ele>41.95</ele>
        <time>2012-10-12T12:36:46Z</time>
      </trkpt>
      <trkpt lat="43.40137" lon="6.70943">
        <ele>39.55</ele>
        <time>2012-10-12T12:36:50Z</time>
      </trkpt>
      <trkpt lat="43.40135" lon="6.70956">
        <ele>37.15</ele>
        <time>2012-10-12T12:36:54Z</time>
      </trkpt>
      <trkpt lat="43.40132" lon="6.70965">
        <ele>35.71</ele>
        <time>2012-10-12T12:36:56Z</time>
      </trkpt>
      <trkpt lat="43.40133" lon="6.70986">
        <ele>33.3</ele>
        <time>2012-10-12T12:37:00Z</time>
      </trkpt>
      <trkpt lat="43.40132" lon="6.70994">
        <ele>32.34</ele>
        <time>2012-10-12T12:37:03Z</time>
      </trkpt>
      <trkpt lat="43.40133" lon="6.71017">
        <ele>28.5</ele>
        <time>2012-10-12T12:37:10Z</time>
      </trkpt>
      <trkpt lat="43.40135" lon="6.71035">
        <ele>25.61</ele>
        <time>2012-10-12T12:37:14Z</time>
      </trkpt>
      <trkpt lat="43.40136" lon="6.71039">
        <ele>25.61</ele>
        <time>2012-10-12T12:37:15Z</time>
      </trkpt>
      <trkpt lat="43.40138" lon="6.71055">
        <ele>23.21</ele>
        <time>2012-10-12T12:37:20Z</time>
      </trkpt>
      <trkpt lat="43.40141" lon="6.71073">
        <ele>18.88</ele>
        <time>2012-10-12T12:37:24Z</time>
      </trkpt>
      <trkpt lat="43.4014" lon="6.71084">
        <ele>16.48</ele>
        <time>2012-10-12T12:37:26Z</time>
      </trkpt>
      <trkpt lat="43.40138" lon="6.71114">
        <ele>14.08</ele>
        <time>2012-10-12T12:37:30Z</time>
      </trkpt>
      <trkpt lat="43.40136" lon="6.71129">
        <ele>13.6</ele>
        <time>2012-10-12T12:37:32Z</time>
      </trkpt>
      <trkpt lat="43.40136" lon="6.71149">
        <ele>11.67</ele>
        <time>2012-10-12T12:37:35Z</time>
      </trkpt>
      <trkpt lat="43.40143" lon="6.71224">
        <ele>8.79</ele>
        <time>2012-10-12T12:37:43Z</time>
      </trkpt>
      <trkpt lat="43.40139" lon="6.71259">
        <ele>8.79</ele>
        <time>2012-10-12T12:37:49Z</time>
      </trkpt>
      <trkpt lat="43.40116" lon="6.71283">
        <ele>8.31</ele>
        <time>2012-10-12T12:37:57Z</time>
      </trkpt>
      <trkpt lat="43.40081" lon="6.71311">
        <ele>8.79</ele>
        <time>2012-10-12T12:38:08Z</time>
      </trkpt>
      <trkpt lat="43.40046" lon="6.71348">
        <ele>8.31</ele>
        <time>2012-10-12T12:38:20Z</time>
      </trkpt>
      <trkpt lat="43.40021" lon="6.71398">
        <ele>9.27</ele>
        <time>2012-10-12T12:38:32Z</time>
      </trkpt>
      <trkpt lat="43.39995" lon="6.71448">
        <ele>8.79</ele>
        <time>2012-10-12T12:38:44Z</time>
      </trkpt>
      <trkpt lat="43.39977" lon="6.71491">
        <ele>8.31</ele>
        <time>2012-10-12T12:38:54Z</time>
      </trkpt>
      <trkpt lat="43.39985" lon="6.7155">
        <ele>8.79</ele>
        <time>2012-10-12T12:39:05Z</time>
      </trkpt>
      <trkpt lat="43.39989" lon="6.71578">
        <ele>8.79</ele>
        <time>2012-10-12T12:39:10Z</time>
      </trkpt>
      <trkpt lat="43.39991" lon="6.7159">
        <ele>8.31</ele>
        <time>2012-10-12T12:39:12Z</time>
      </trkpt>
      <trkpt lat="43.3999" lon="6.71596">
        <ele>8.79</ele>
        <time>2012-10-12T12:39:13Z</time>
      </trkpt>
      <trkpt lat="43.39989" lon="6.71601">
        <ele>8.79</ele>
        <time>2012-10-12T12:39:14Z</time>
      </trkpt>
      <trkpt lat="43.39975" lon="6.71629">
        <ele>8.79</ele>
        <time>2012-10-12T12:39:21Z</time>
      </trkpt>
      <trkpt lat="43.39975" lon="6.71632">
        <ele>8.79</ele>
        <time>2012-10-12T12:39:22Z</time>
      </trkpt>
      <trkpt lat="43.39975" lon="6.71635">
        <ele>9.27</ele>
        <time>2012-10-12T12:39:23Z</time>
      </trkpt>
      <trkpt lat="43.39976" lon="6.71639">
        <ele>9.27</ele>
        <time>2012-10-12T12:39:24Z</time>
      </trkpt>
      <trkpt lat="43.39976" lon="6.71642">
        <ele>8.79</ele>
        <time>2012-10-12T12:39:25Z</time>
      </trkpt>
      <trkpt lat="43.39978" lon="6.71651">
        <ele>8.79</ele>
        <time>2012-10-12T12:39:31Z</time>
      </trkpt>
      <trkpt lat="43.39978" lon="6.71653">
        <ele>8.79</ele>
        <time>2012-10-12T12:39:32Z</time>
      </trkpt>
      <trkpt lat="43.39978" lon="6.71655">
        <ele>8.79</ele>
        <time>2012-10-12T12:39:33Z</time>
      </trkpt>
      <trkpt lat="43.39978" lon="6.71657">
        <ele>8.79</ele>
        <time>2012-10-12T12:39:34Z</time>
      </trkpt>
      <trkpt lat="43.39984" lon="6.71672">
        <ele>8.79</ele>
        <time>2012-10-12T12:39:48Z</time>
      </trkpt>
      <trkpt lat="43.39996" lon="6.71665">
        <ele>8.79</ele>
        <time>2012-10-12T12:40:01Z</time>
      </trkpt>
      <trkpt lat="43.39998" lon="6.71663">
        <ele>8.31</ele>
        <time>2012-10-12T12:40:10Z</time>
      </trkpt>
      <trkpt lat="43.39998" lon="6.71662">
        <ele>8.79</ele>
        <time>2012-10-12T12:40:30Z</time>
      </trkpt>
      <trkpt lat="43.39999" lon="6.71663">
        <ele>8.79</ele>
        <time>2012-10-12T12:40:55Z</time>
      </trkpt>
      <trkpt lat="43.39999" lon="6.71663">
        <ele>9.27</ele>
        <time>2012-10-12T12:41:19Z</time>
      </trkpt>
      <trkpt lat="43.39999" lon="6.71663">
        <ele>8.79</ele>
        <time>2012-10-12T12:41:39Z</time>
      </trkpt>
      <trkpt lat="43.39997" lon="6.71665">
        <ele>9.27</ele>
        <time>2012-10-12T12:42:04Z</time>
      </trkpt>
      <trkpt lat="43.39995" lon="6.71669">
        <ele>8.79</ele>
        <time>2012-10-12T12:42:12Z</time>
      </trkpt>
      <trkpt lat="43.39995" lon="6.71671">
        <ele>8.31</ele>
        <time>2012-10-12T12:42:14Z</time>
      </trkpt>
      <trkpt lat="43.39995" lon="6.71673">
        <ele>8.79</ele>
        <time>2012-10-12T12:42:15Z</time>
      </trkpt>
      <trkpt lat="43.39994" lon="6.71675">
        <ele>8.79</ele>
        <time>2012-10-12T12:42:16Z</time>
      </trkpt>
      <trkpt lat="43.39993" lon="6.71677">
        <ele>8.31</ele>
        <time>2012-10-12T12:42:17Z</time>
      </trkpt>
      <trkpt lat="43.39992" lon="6.7168">
        <ele>8.79</ele>
        <time>2012-10-12T12:42:18Z</time>
      </trkpt>
      <trkpt lat="43.39978" lon="6.71716">
        <ele>7.35</ele>
        <time>2012-10-12T12:42:26Z</time>
      </trkpt>
      <trkpt lat="43.39975" lon="6.71721">
        <ele>7.35</ele>
        <time>2012-10-12T12:42:27Z</time>
      </trkpt>
      <trkpt lat="43.39972" lon="6.71727">
        <ele>7.35</ele>
        <time>2012-10-12T12:42:28Z</time>
      </trkpt>
      <trkpt lat="43.3997" lon="6.71733">
        <ele>7.83</ele>
        <time>2012-10-12T12:42:29Z</time>
      </trkpt>
      <trkpt lat="43.39968" lon="6.71738">
        <ele>8.31</ele>
        <time>2012-10-12T12:42:30Z</time>
      </trkpt>
      <trkpt lat="43.39966" lon="6.71743">
        <ele>8.79</ele>
        <time>2012-10-12T12:42:31Z</time>
      </trkpt>
      <trkpt lat="43.39963" lon="6.71748">
        <ele>8.79</ele>
        <time>2012-10-12T12:42:32Z</time>
      </trkpt>
      <trkpt lat="43.3996" lon="6.71752">
        <ele>9.27</ele>
        <time>2012-10-12T12:42:33Z</time>
      </trkpt>
      <trkpt lat="43.39958" lon="6.71755">
        <ele>9.75</ele>
        <time>2012-10-12T12:42:34Z</time>
      </trkpt>
      <trkpt lat="43.39955" lon="6.71757">
        <ele>9.75</ele>
        <time>2012-10-12T12:42:35Z</time>
      </trkpt>
      <trkpt lat="43.39953" lon="6.71761">
        <ele>11.19</ele>
        <time>2012-10-12T12:42:36Z</time>
      </trkpt>
      <trkpt lat="43.39951" lon="6.71764">
        <ele>11.19</ele>
        <time>2012-10-12T12:42:37Z</time>
      </trkpt>
      <trkpt lat="43.39929" lon="6.71799">
        <ele>11.67</ele>
        <time>2012-10-12T12:42:46Z</time>
      </trkpt>
      <trkpt lat="43.39914" lon="6.71819">
        <ele>12.63</ele>
        <time>2012-10-12T12:42:51Z</time>
      </trkpt>
      <trkpt lat="43.39911" lon="6.71822">
        <ele>12.63</ele>
        <time>2012-10-12T12:42:52Z</time>
      </trkpt>
      <trkpt lat="43.39907" lon="6.71825">
        <ele>12.15</ele>
        <time>2012-10-12T12:42:53Z</time>
      </trkpt>
      <trkpt lat="43.39859" lon="6.71854">
        <ele>11.67</ele>
        <time>2012-10-12T12:43:04Z</time>
      </trkpt>
      <trkpt lat="43.39796" lon="6.71871">
        <ele>12.15</ele>
        <time>2012-10-12T12:43:16Z</time>
      </trkpt>
      <trkpt lat="43.3979" lon="6.71873">
        <ele>12.15</ele>
        <time>2012-10-12T12:43:17Z</time>
      </trkpt>
      <trkpt lat="43.39751" lon="6.71885">
        <ele>12.63</ele>
        <time>2012-10-12T12:43:24Z</time>
      </trkpt>
      <trkpt lat="43.39708" lon="6.71894">
        <ele>12.15</ele>
        <time>2012-10-12T12:43:32Z</time>
      </trkpt>
      <trkpt lat="43.39704" lon="6.71897">
        <ele>12.15</ele>
        <time>2012-10-12T12:43:33Z</time>
      </trkpt>
      <trkpt lat="43.39702" lon="6.71902">
        <ele>12.15</ele>
        <time>2012-10-12T12:43:34Z</time>
      </trkpt>
      <trkpt lat="43.397" lon="6.71909">
        <ele>11.19</ele>
        <time>2012-10-12T12:43:35Z</time>
      </trkpt>
      <trkpt lat="43.39699" lon="6.71917">
        <ele>10.23</ele>
        <time>2012-10-12T12:43:36Z</time>
      </trkpt>
      <trkpt lat="43.39698" lon="6.71926">
        <ele>9.27</ele>
        <time>2012-10-12T12:43:37Z</time>
      </trkpt>
      <trkpt lat="43.39697" lon="6.71936">
        <ele>8.79</ele>
        <time>2012-10-12T12:43:38Z</time>
      </trkpt>
      <trkpt lat="43.3969" lon="6.71989">
        <ele>8.31</ele>
        <time>2012-10-12T12:43:44Z</time>
      </trkpt>
      <trkpt lat="43.3968" lon="6.72039">
        <ele>8.31</ele>
        <time>2012-10-12T12:43:50Z</time>
      </trkpt>
      <trkpt lat="43.39666" lon="6.72129">
        <ele>8.79</ele>
        <time>2012-10-12T12:44:00Z</time>
      </trkpt>
      <trkpt lat="43.39654" lon="6.722">
        <ele>9.27</ele>
        <time>2012-10-12T12:44:08Z</time>
      </trkpt>
      <trkpt lat="43.39652" lon="6.72208">
        <ele>8.79</ele>
        <time>2012-10-12T12:44:09Z</time>
      </trkpt>
      <trkpt lat="43.3965" lon="6.72216">
        <ele>8.31</ele>
        <time>2012-10-12T12:44:10Z</time>
      </trkpt>
      <trkpt lat="43.39645" lon="6.72257">
        <ele>8.79</ele>
        <time>2012-10-12T12:44:15Z</time>
      </trkpt>
      <trkpt lat="43.39629" lon="6.72347">
        <ele>7.83</ele>
        <time>2012-10-12T12:44:25Z</time>
      </trkpt>
      <trkpt lat="43.39612" lon="6.72449">
        <ele>8.31</ele>
        <time>2012-10-12T12:44:37Z</time>
      </trkpt>
      <trkpt lat="43.3961" lon="6.72465">
        <ele>8.79</ele>
        <time>2012-10-12T12:44:39Z</time>
      </trkpt>
      <trkpt lat="43.3961" lon="6.72481">
        <ele>9.27</ele>
        <time>2012-10-12T12:44:41Z</time>
      </trkpt>
      <trkpt lat="43.39609" lon="6.72489">
        <ele>8.31</ele>
        <time>2012-10-12T12:44:42Z</time>
      </trkpt>
      <trkpt lat="43.39602" lon="6.72519">
        <ele>9.27</ele>
        <time>2012-10-12T12:44:46Z</time>
      </trkpt>
      <trkpt lat="43.39597" lon="6.72551">
        <ele>9.27</ele>
        <time>2012-10-12T12:44:50Z</time>
      </trkpt>
      <trkpt lat="43.39594" lon="6.72558">
        <ele>8.31</ele>
        <time>2012-10-12T12:44:51Z</time>
      </trkpt>
      <trkpt lat="43.39589" lon="6.72571">
        <ele>8.79</ele>
        <time>2012-10-12T12:44:53Z</time>
      </trkpt>
      <trkpt lat="43.39583" lon="6.72604">
        <ele>7.35</ele>
        <time>2012-10-12T12:44:57Z</time>
      </trkpt>
      <trkpt lat="43.3958" lon="6.72611">
        <ele>7.35</ele>
        <time>2012-10-12T12:44:58Z</time>
      </trkpt>
      <trkpt lat="43.39576" lon="6.72616">
        <ele>7.83</ele>
        <time>2012-10-12T12:44:59Z</time>
      </trkpt>
      <trkpt lat="43.39571" lon="6.72619">
        <ele>7.83</ele>
        <time>2012-10-12T12:45:00Z</time>
      </trkpt>
      <trkpt lat="43.39566" lon="6.72619">
        <ele>6.87</ele>
        <time>2012-10-12T12:45:01Z</time>
      </trkpt>
      <trkpt lat="43.3956" lon="6.72617">
        <ele>6.87</ele>
        <time>2012-10-12T12:45:02Z</time>
      </trkpt>
      <trkpt lat="43.39555" lon="6.72614">
        <ele>6.87</ele>
        <time>2012-10-12T12:45:03Z</time>
      </trkpt>
      <trkpt lat="43.39503" lon="6.72595">
        <ele>6.87</ele>
        <time>2012-10-12T12:45:12Z</time>
      </trkpt>
      <trkpt lat="43.39497" lon="6.72594">
        <ele>6.39</ele>
        <time>2012-10-12T12:45:13Z</time>
      </trkpt>
      <trkpt lat="43.39491" lon="6.72595">
        <ele>7.35</ele>
        <time>2012-10-12T12:45:14Z</time>
      </trkpt>
      <trkpt lat="43.39485" lon="6.72597">
        <ele>7.83</ele>
        <time>2012-10-12T12:45:15Z</time>
      </trkpt>
      <trkpt lat="43.3948" lon="6.72599">
        <ele>6.87</ele>
        <time>2012-10-12T12:45:16Z</time>
      </trkpt>
      <trkpt lat="43.39413" lon="6.72621">
        <ele>7.35</ele>
        <time>2012-10-12T12:45:27Z</time>
      </trkpt>
      <trkpt lat="43.39352" lon="6.72643">
        <ele>7.83</ele>
        <time>2012-10-12T12:45:37Z</time>
      </trkpt>
      <trkpt lat="43.39346" lon="6.72646">
        <ele>7.35</ele>
        <time>2012-10-12T12:45:38Z</time>
      </trkpt>
      <trkpt lat="43.39339" lon="6.72649">
        <ele>6.39</ele>
        <time>2012-10-12T12:45:39Z</time>
      </trkpt>
      <trkpt lat="43.39309" lon="6.72665">
        <ele>7.35</ele>
        <time>2012-10-12T12:45:44Z</time>
      </trkpt>
      <trkpt lat="43.39303" lon="6.72667">
        <ele>6.87</ele>
        <time>2012-10-12T12:45:45Z</time>
      </trkpt>
      <trkpt lat="43.39297" lon="6.72669">
        <ele>6.87</ele>
        <time>2012-10-12T12:45:46Z</time>
      </trkpt>
      <trkpt lat="43.39291" lon="6.7267">
        <ele>6.87</ele>
        <time>2012-10-12T12:45:47Z</time>
      </trkpt>
      <trkpt lat="43.39285" lon="6.7267">
        <ele>6.87</ele>
        <time>2012-10-12T12:45:48Z</time>
      </trkpt>
      <trkpt lat="43.39279" lon="6.72669">
        <ele>6.87</ele>
        <time>2012-10-12T12:45:49Z</time>
      </trkpt>
      <trkpt lat="43.39267" lon="6.72669">
        <ele>6.87</ele>
        <time>2012-10-12T12:45:51Z</time>
      </trkpt>
      <trkpt lat="43.39262" lon="6.72671">
        <ele>7.83</ele>
        <time>2012-10-12T12:45:52Z</time>
      </trkpt>
      <trkpt lat="43.39256" lon="6.72674">
        <ele>8.31</ele>
        <time>2012-10-12T12:45:53Z</time>
      </trkpt>
      <trkpt lat="43.39246" lon="6.72677">
        <ele>7.83</ele>
        <time>2012-10-12T12:45:55Z</time>
      </trkpt>
      <trkpt lat="43.39243" lon="6.72682">
        <ele>8.31</ele>
        <time>2012-10-12T12:45:56Z</time>
      </trkpt>
      <trkpt lat="43.39242" lon="6.72687">
        <ele>8.31</ele>
        <time>2012-10-12T12:45:57Z</time>
      </trkpt>
      <trkpt lat="43.39244" lon="6.72691">
        <ele>8.79</ele>
        <time>2012-10-12T12:45:58Z</time>
      </trkpt>
      <trkpt lat="43.39246" lon="6.72696">
        <ele>8.79</ele>
        <time>2012-10-12T12:45:59Z</time>
      </trkpt>
      <trkpt lat="43.39249" lon="6.727">
        <ele>8.79</ele>
        <time>2012-10-12T12:46:00Z</time>
      </trkpt>
      <trkpt lat="43.39252" lon="6.72704">
        <ele>8.79</ele>
        <time>2012-10-12T12:46:01Z</time>
      </trkpt>
      <trkpt lat="43.39256" lon="6.72708">
        <ele>8.79</ele>
        <time>2012-10-12T12:46:02Z</time>
      </trkpt>
      <trkpt lat="43.39268" lon="6.7272">
        <ele>8.31</ele>
        <time>2012-10-12T12:46:05Z</time>
      </trkpt>
      <trkpt lat="43.39271" lon="6.72724">
        <ele>8.31</ele>
        <time>2012-10-12T12:46:06Z</time>
      </trkpt>
      <trkpt lat="43.39274" lon="6.72728">
        <ele>8.31</ele>
        <time>2012-10-12T12:46:07Z</time>
      </trkpt>
      <trkpt lat="43.39283" lon="6.72754">
        <ele>8.79</ele>
        <time>2012-10-12T12:46:13Z</time>
      </trkpt>
      <trkpt lat="43.39282" lon="6.72761">
        <ele>8.31</ele>
        <time>2012-10-12T12:46:14Z</time>
      </trkpt>
      <trkpt lat="43.3928" lon="6.72767">
        <ele>8.31</ele>
        <time>2012-10-12T12:46:15Z</time>
      </trkpt>
      <trkpt lat="43.39278" lon="6.72773">
        <ele>8.31</ele>
        <time>2012-10-12T12:46:16Z</time>
      </trkpt>
      <trkpt lat="43.39276" lon="6.72779">
        <ele>8.31</ele>
        <time>2012-10-12T12:46:17Z</time>
      </trkpt>
      <trkpt lat="43.39272" lon="6.72796">
        <ele>7.83</ele>
        <time>2012-10-12T12:46:20Z</time>
      </trkpt>
      <trkpt lat="43.39262" lon="6.72841">
        <ele>8.31</ele>
        <time>2012-10-12T12:46:30Z</time>
      </trkpt>
      <trkpt lat="43.39257" lon="6.72848">
        <ele>8.79</ele>
        <time>2012-10-12T12:46:36Z</time>
      </trkpt>
      <trkpt lat="43.39255" lon="6.72848">
        <ele>8.31</ele>
        <time>2012-10-12T12:46:37Z</time>
      </trkpt>
      <trkpt lat="43.39253" lon="6.72849">
        <ele>8.79</ele>
        <time>2012-10-12T12:46:38Z</time>
      </trkpt>
      <trkpt lat="43.39252" lon="6.7285">
        <ele>8.79</ele>
        <time>2012-10-12T12:46:39Z</time>
      </trkpt>
      <trkpt lat="43.3925" lon="6.7285">
        <ele>8.79</ele>
        <time>2012-10-12T12:46:40Z</time>
      </trkpt>
      <trkpt lat="43.39248" lon="6.72851">
        <ele>8.79</ele>
        <time>2012-10-12T12:46:41Z</time>
      </trkpt>
      <trkpt lat="43.39244" lon="6.72851">
        <ele>9.27</ele>
        <time>2012-10-12T12:46:43Z</time>
      </trkpt>
      <trkpt lat="43.39232" lon="6.72851">
        <ele>9.27</ele>
        <time>2012-10-12T12:46:49Z</time>
      </trkpt>
      <trkpt lat="43.39231" lon="6.7285">
        <ele>9.75</ele>
        <time>2012-10-12T12:46:50Z</time>
      </trkpt>
      <trkpt lat="43.39226" lon="6.7284">
        <ele>9.75</ele>
        <time>2012-10-12T12:46:56Z</time>
      </trkpt>
      <trkpt lat="43.39223" lon="6.72833">
        <ele>10.23</ele>
        <time>2012-10-12T12:47:00Z</time>
      </trkpt>
      <trkpt lat="43.39222" lon="6.72828">
        <ele>11.67</ele>
        <time>2012-10-12T12:47:09Z</time>
      </trkpt>
      <trkpt lat="43.39221" lon="6.72826">
        <ele>12.15</ele>
        <time>2012-10-12T12:47:10Z</time>
      </trkpt>
      <trkpt lat="43.3922" lon="6.72823">
        <ele>12.63</ele>
        <time>2012-10-12T12:47:13Z</time>
      </trkpt>
      <trkpt lat="43.39217" lon="6.72821">
        <ele>12.63</ele>
        <time>2012-10-12T12:47:16Z</time>
      </trkpt>
      <trkpt lat="43.39216" lon="6.72821">
        <ele>13.12</ele>
        <time>2012-10-12T12:47:17Z</time>
      </trkpt>
      <trkpt lat="43.39214" lon="6.7282">
        <ele>13.12</ele>
        <time>2012-10-12T12:47:18Z</time>
      </trkpt>
      <trkpt lat="43.39213" lon="6.72819">
        <ele>13.12</ele>
        <time>2012-10-12T12:47:19Z</time>
      </trkpt>
      <trkpt lat="43.39211" lon="6.72818">
        <ele>12.63</ele>
        <time>2012-10-12T12:47:20Z</time>
      </trkpt>
      <trkpt lat="43.39209" lon="6.72818">
        <ele>13.12</ele>
        <time>2012-10-12T12:47:21Z</time>
      </trkpt>
      <trkpt lat="43.39183" lon="6.7281">
        <ele>13.12</ele>
        <time>2012-10-12T12:47:31Z</time>
      </trkpt>
      <trkpt lat="43.39154" lon="6.72813">
        <ele>14.08</ele>
        <time>2012-10-12T12:47:39Z</time>
      </trkpt>
      <trkpt lat="43.3915" lon="6.72813">
        <ele>14.08</ele>
        <time>2012-10-12T12:47:40Z</time>
      </trkpt>
      <trkpt lat="43.39146" lon="6.72814">
        <ele>14.56</ele>
        <time>2012-10-12T12:47:41Z</time>
      </trkpt>
      <trkpt lat="43.39142" lon="6.72818">
        <ele>14.56</ele>
        <time>2012-10-12T12:47:42Z</time>
      </trkpt>
      <trkpt lat="43.39138" lon="6.72821">
        <ele>15.04</ele>
        <time>2012-10-12T12:47:43Z</time>
      </trkpt>
      <trkpt lat="43.39099" lon="6.7286">
        <ele>16</ele>
        <time>2012-10-12T12:47:54Z</time>
      </trkpt>
      <trkpt lat="43.39077" lon="6.72882">
        <ele>16.48</ele>
        <time>2012-10-12T12:48:00Z</time>
      </trkpt>
      <trkpt lat="43.39073" lon="6.72885">
        <ele>16.48</ele>
        <time>2012-10-12T12:48:01Z</time>
      </trkpt>
      <trkpt lat="43.39068" lon="6.72886">
        <ele>16.48</ele>
        <time>2012-10-12T12:48:02Z</time>
      </trkpt>
      <trkpt lat="43.39064" lon="6.72887">
        <ele>16.48</ele>
        <time>2012-10-12T12:48:03Z</time>
      </trkpt>
      <trkpt lat="43.39059" lon="6.72886">
        <ele>16.48</ele>
        <time>2012-10-12T12:48:04Z</time>
      </trkpt>
      <trkpt lat="43.39054" lon="6.72884">
        <ele>16</ele>
        <time>2012-10-12T12:48:05Z</time>
      </trkpt>
      <trkpt lat="43.3905" lon="6.7288">
        <ele>16.96</ele>
        <time>2012-10-12T12:48:06Z</time>
      </trkpt>
      <trkpt lat="43.39046" lon="6.72877">
        <ele>16.96</ele>
        <time>2012-10-12T12:48:07Z</time>
      </trkpt>
      <trkpt lat="43.3899" lon="6.72837">
        <ele>19.84</ele>
        <time>2012-10-12T12:48:20Z</time>
      </trkpt>
      <trkpt lat="43.38986" lon="6.72834">
        <ele>19.84</ele>
        <time>2012-10-12T12:48:21Z</time>
      </trkpt>
      <trkpt lat="43.38976" lon="6.72828">
        <ele>19.84</ele>
        <time>2012-10-12T12:48:23Z</time>
      </trkpt>
      <trkpt lat="43.38959" lon="6.72817">
        <ele>20.81</ele>
        <time>2012-10-12T12:48:27Z</time>
      </trkpt>
      <trkpt lat="43.38918" lon="6.72788">
        <ele>22.25</ele>
        <time>2012-10-12T12:48:37Z</time>
      </trkpt>
      <trkpt lat="43.38914" lon="6.72785">
        <ele>22.73</ele>
        <time>2012-10-12T12:48:38Z</time>
      </trkpt>
      <trkpt lat="43.3891" lon="6.72782">
        <ele>22.25</ele>
        <time>2012-10-12T12:48:39Z</time>
      </trkpt>
      <trkpt lat="43.38905" lon="6.72779">
        <ele>22.73</ele>
        <time>2012-10-12T12:48:40Z</time>
      </trkpt>
      <trkpt lat="43.38901" lon="6.72777">
        <ele>22.73</ele>
        <time>2012-10-12T12:48:41Z</time>
      </trkpt>
      <trkpt lat="43.38897" lon="6.72775">
        <ele>22.73</ele>
        <time>2012-10-12T12:48:42Z</time>
      </trkpt>
      <trkpt lat="43.38893" lon="6.72776">
        <ele>22.73</ele>
        <time>2012-10-12T12:48:43Z</time>
      </trkpt>
      <trkpt lat="43.38889" lon="6.72779">
        <ele>22.73</ele>
        <time>2012-10-12T12:48:44Z</time>
      </trkpt>
      <trkpt lat="43.38886" lon="6.72784">
        <ele>23.69</ele>
        <time>2012-10-12T12:48:45Z</time>
      </trkpt>
      <trkpt lat="43.38883" lon="6.7279">
        <ele>23.21</ele>
        <time>2012-10-12T12:48:46Z</time>
      </trkpt>
      <trkpt lat="43.38881" lon="6.72797">
        <ele>23.21</ele>
        <time>2012-10-12T12:48:47Z</time>
      </trkpt>
      <trkpt lat="43.38856" lon="6.72868">
        <ele>18.88</ele>
        <time>2012-10-12T12:48:57Z</time>
      </trkpt>
      <trkpt lat="43.38844" lon="6.729">
        <ele>15.52</ele>
        <time>2012-10-12T12:49:00Z</time>
      </trkpt>
      <trkpt lat="43.38824" lon="6.72955">
        <ele>15.04</ele>
        <time>2012-10-12T12:49:05Z</time>
      </trkpt>
      <trkpt lat="43.38818" lon="6.72975">
        <ele>14.08</ele>
        <time>2012-10-12T12:49:07Z</time>
      </trkpt>
      <trkpt lat="43.38814" lon="6.72985">
        <ele>13.6</ele>
        <time>2012-10-12T12:49:08Z</time>
      </trkpt>
      <trkpt lat="43.38807" lon="6.73">
        <ele>12.63</ele>
        <time>2012-10-12T12:49:10Z</time>
      </trkpt>
      <trkpt lat="43.38804" lon="6.73004">
        <ele>13.12</ele>
        <time>2012-10-12T12:49:11Z</time>
      </trkpt>
      <trkpt lat="43.38799" lon="6.73011">
        <ele>12.63</ele>
        <time>2012-10-12T12:49:14Z</time>
      </trkpt>
      <trkpt lat="43.38799" lon="6.73013">
        <ele>13.12</ele>
        <time>2012-10-12T12:49:15Z</time>
      </trkpt>
      <trkpt lat="43.38798" lon="6.73014">
        <ele>13.12</ele>
        <time>2012-10-12T12:49:16Z</time>
      </trkpt>
      <trkpt lat="43.38798" lon="6.73016">
        <ele>14.08</ele>
        <time>2012-10-12T12:49:24Z</time>
      </trkpt>
      <trkpt lat="43.38794" lon="6.73016">
        <ele>12.15</ele>
        <time>2012-10-12T12:49:35Z</time>
      </trkpt>
      <trkpt lat="43.38795" lon="6.73018">
        <ele>11.67</ele>
        <time>2012-10-12T12:49:46Z</time>
      </trkpt>
      <trkpt lat="43.38797" lon="6.73021">
        <ele>11.19</ele>
        <time>2012-10-12T12:49:51Z</time>
      </trkpt>
      <trkpt lat="43.38798" lon="6.73022">
        <ele>11.19</ele>
        <time>2012-10-12T12:49:52Z</time>
      </trkpt>
      <trkpt lat="43.38808" lon="6.73042">
        <ele>10.71</ele>
        <time>2012-10-12T12:50:00Z</time>
      </trkpt>
      <trkpt lat="43.38809" lon="6.73045">
        <ele>10.71</ele>
        <time>2012-10-12T12:50:01Z</time>
      </trkpt>
      <trkpt lat="43.3881" lon="6.73047">
        <ele>10.71</ele>
        <time>2012-10-12T12:50:02Z</time>
      </trkpt>
      <trkpt lat="43.38812" lon="6.73049">
        <ele>10.71</ele>
        <time>2012-10-12T12:50:03Z</time>
      </trkpt>
      <trkpt lat="43.38814" lon="6.73052">
        <ele>10.23</ele>
        <time>2012-10-12T12:50:04Z</time>
      </trkpt>
      <trkpt lat="43.38816" lon="6.73054">
        <ele>10.23</ele>
        <time>2012-10-12T12:50:05Z</time>
      </trkpt>
      <trkpt lat="43.38821" lon="6.73059">
        <ele>10.23</ele>
        <time>2012-10-12T12:50:07Z</time>
      </trkpt>
      <trkpt lat="43.38823" lon="6.73059">
        <ele>9.75</ele>
        <time>2012-10-12T12:50:08Z</time>
      </trkpt>
      <trkpt lat="43.38825" lon="6.73058">
        <ele>9.75</ele>
        <time>2012-10-12T12:50:09Z</time>
      </trkpt>
      <trkpt lat="43.38827" lon="6.73056">
        <ele>9.75</ele>
        <time>2012-10-12T12:50:10Z</time>
      </trkpt>
      <trkpt lat="43.38829" lon="6.73055">
        <ele>9.75</ele>
        <time>2012-10-12T12:50:11Z</time>
      </trkpt>
      <trkpt lat="43.3883" lon="6.73052">
        <ele>9.75</ele>
        <time>2012-10-12T12:50:12Z</time>
      </trkpt>
      <trkpt lat="43.38831" lon="6.73049">
        <ele>9.75</ele>
        <time>2012-10-12T12:50:13Z</time>
      </trkpt>
      <trkpt lat="43.38832" lon="6.73046">
        <ele>10.23</ele>
        <time>2012-10-12T12:50:14Z</time>
      </trkpt>
      <trkpt lat="43.38833" lon="6.73043">
        <ele>9.75</ele>
        <time>2012-10-12T12:50:15Z</time>
      </trkpt>
      <trkpt lat="43.38833" lon="6.7304">
        <ele>10.71</ele>
        <time>2012-10-12T12:50:16Z</time>
      </trkpt>
      <trkpt lat="43.38834" lon="6.73037">
        <ele>11.19</ele>
        <time>2012-10-12T12:50:17Z</time>
      </trkpt>
      <trkpt lat="43.38837" lon="6.73022">
        <ele>11.67</ele>
        <time>2012-10-12T12:50:22Z</time>
      </trkpt>
      <trkpt lat="43.38839" lon="6.73021">
        <ele>11.67</ele>
        <time>2012-10-12T12:50:23Z</time>
      </trkpt>
      <trkpt lat="43.38841" lon="6.73022">
        <ele>12.15</ele>
        <time>2012-10-12T12:50:24Z</time>
      </trkpt>
      <trkpt lat="43.38845" lon="6.73024">
        <ele>11.67</ele>
        <time>2012-10-12T12:50:31Z</time>
      </trkpt>
      <trkpt lat="43.38846" lon="6.73026">
        <ele>11.19</ele>
        <time>2012-10-12T12:50:32Z</time>
      </trkpt>
      <trkpt lat="43.38847" lon="6.73027">
        <ele>11.19</ele>
        <time>2012-10-12T12:50:33Z</time>
      </trkpt>
      <trkpt lat="43.38848" lon="6.73028">
        <ele>11.67</ele>
        <time>2012-10-12T12:50:34Z</time>
      </trkpt>
      <trkpt lat="43.38851" lon="6.73032">
        <ele>9.75</ele>
        <time>2012-10-12T12:50:39Z</time>
      </trkpt>
      <trkpt lat="43.38854" lon="6.73036">
        <ele>10.71</ele>
        <time>2012-10-12T12:50:43Z</time>
      </trkpt>
      <trkpt lat="43.38855" lon="6.73036">
        <ele>10.71</ele>
        <time>2012-10-12T12:50:46Z</time>
      </trkpt>
      <trkpt lat="43.38855" lon="6.73038">
        <ele>10.71</ele>
        <time>2012-10-12T12:50:47Z</time>
      </trkpt>
      <trkpt lat="43.38856" lon="6.73039">
        <ele>11.19</ele>
        <time>2012-10-12T12:50:48Z</time>
      </trkpt>
      <trkpt lat="43.38857" lon="6.7304">
        <ele>11.19</ele>
        <time>2012-10-12T12:50:49Z</time>
      </trkpt>
      <trkpt lat="43.38859" lon="6.73042">
        <ele>10.71</ele>
        <time>2012-10-12T12:50:50Z</time>
      </trkpt>
      <trkpt lat="43.3886" lon="6.73044">
        <ele>11.19</ele>
        <time>2012-10-12T12:50:51Z</time>
      </trkpt>
      <trkpt lat="43.38867" lon="6.73049">
        <ele>11.19</ele>
        <time>2012-10-12T12:50:54Z</time>
      </trkpt>
      <trkpt lat="43.38869" lon="6.73049">
        <ele>11.19</ele>
        <time>2012-10-12T12:50:55Z</time>
      </trkpt>
      <trkpt lat="43.38872" lon="6.7305">
        <ele>11.67</ele>
        <time>2012-10-12T12:50:56Z</time>
      </trkpt>
      <trkpt lat="43.38902" lon="6.73066">
        <ele>11.19</ele>
        <time>2012-10-12T12:51:05Z</time>
      </trkpt>
      <trkpt lat="43.38916" lon="6.73065">
        <ele>10.71</ele>
        <time>2012-10-12T12:51:10Z</time>
      </trkpt>
      <trkpt lat="43.38919" lon="6.73062">
        <ele>10.71</ele>
        <time>2012-10-12T12:51:11Z</time>
      </trkpt>
      <trkpt lat="43.38922" lon="6.73059">
        <ele>10.23</ele>
        <time>2012-10-12T12:51:12Z</time>
      </trkpt>
      <trkpt lat="43.38925" lon="6.73058">
        <ele>10.71</ele>
        <time>2012-10-12T12:51:13Z</time>
      </trkpt>
      <trkpt lat="43.38928" lon="6.73059">
        <ele>10.71</ele>
        <time>2012-10-12T12:51:14Z</time>
      </trkpt>
      <trkpt lat="43.3893" lon="6.7306">
        <ele>10.71</ele>
        <time>2012-10-12T12:51:15Z</time>
      </trkpt>
      <trkpt lat="43.38931" lon="6.73062">
        <ele>10.71</ele>
        <time>2012-10-12T12:51:16Z</time>
      </trkpt>
      <trkpt lat="43.38931" lon="6.73064">
        <ele>10.71</ele>
        <time>2012-10-12T12:51:17Z</time>
      </trkpt>
      <trkpt lat="43.38932" lon="6.73069">
        <ele>11.19</ele>
        <time>2012-10-12T12:51:22Z</time>
      </trkpt>
      <trkpt lat="43.38932" lon="6.7307">
        <ele>10.71</ele>
        <time>2012-10-12T12:51:23Z</time>
      </trkpt>
      <trkpt lat="43.38932" lon="6.73073">
        <ele>10.71</ele>
        <time>2012-10-12T12:51:24Z</time>
      </trkpt>
      <trkpt lat="43.38933" lon="6.73079">
        <ele>10.71</ele>
        <time>2012-10-12T12:51:30Z</time>
      </trkpt>
      <trkpt lat="43.38933" lon="6.73084">
        <ele>12.15</ele>
        <time>2012-10-12T12:51:34Z</time>
      </trkpt>
      <trkpt lat="43.38931" lon="6.73087">
        <ele>11.67</ele>
        <time>2012-10-12T12:51:37Z</time>
      </trkpt>
      <trkpt lat="43.3893" lon="6.73088">
        <ele>11.19</ele>
        <time>2012-10-12T12:51:38Z</time>
      </trkpt>
      <trkpt lat="43.38929" lon="6.73091">
        <ele>11.19</ele>
        <time>2012-10-12T12:51:42Z</time>
      </trkpt>
      <trkpt lat="43.38929" lon="6.73099">
        <ele>11.19</ele>
        <time>2012-10-12T12:51:46Z</time>
      </trkpt>
      <trkpt lat="43.3893" lon="6.73101">
        <ele>11.67</ele>
        <time>2012-10-12T12:51:47Z</time>
      </trkpt>
      <trkpt lat="43.38933" lon="6.73108">
        <ele>12.15</ele>
        <time>2012-10-12T12:51:51Z</time>
      </trkpt>
      <trkpt lat="43.38934" lon="6.7311">
        <ele>12.15</ele>
        <time>2012-10-12T12:51:52Z</time>
      </trkpt>
      <trkpt lat="43.38934" lon="6.73112">
        <ele>12.15</ele>
        <time>2012-10-12T12:51:53Z</time>
      </trkpt>
      <trkpt lat="43.38935" lon="6.73113">
        <ele>11.67</ele>
        <time>2012-10-12T12:51:54Z</time>
      </trkpt>
      <trkpt lat="43.38937" lon="6.73114">
        <ele>12.15</ele>
        <time>2012-10-12T12:51:56Z</time>
      </trkpt>
      <trkpt lat="43.38938" lon="6.73115">
        <ele>12.15</ele>
        <time>2012-10-12T12:51:57Z</time>
      </trkpt>
      <trkpt lat="43.38945" lon="6.7312">
        <ele>11.19</ele>
        <time>2012-10-12T12:52:05Z</time>
      </trkpt>
      <trkpt lat="43.38946" lon="6.73121">
        <ele>11.67</ele>
        <time>2012-10-12T12:52:06Z</time>
      </trkpt>
      <trkpt lat="43.38954" lon="6.73137">
        <ele>11.19</ele>
        <time>2012-10-12T12:52:15Z</time>
      </trkpt>
      <trkpt lat="43.38961" lon="6.73149">
        <ele>10.23</ele>
        <time>2012-10-12T12:52:22Z</time>
      </trkpt>
      <trkpt lat="43.38967" lon="6.73161">
        <ele>10.71</ele>
        <time>2012-10-12T12:52:28Z</time>
      </trkpt>
      <trkpt lat="43.38968" lon="6.73162">
        <ele>10.71</ele>
        <time>2012-10-12T12:52:29Z</time>
      </trkpt>
      <trkpt lat="43.38969" lon="6.73163">
        <ele>10.71</ele>
        <time>2012-10-12T12:52:30Z</time>
      </trkpt>
      <trkpt lat="43.3897" lon="6.73164">
        <ele>10.71</ele>
        <time>2012-10-12T12:52:31Z</time>
      </trkpt>
      <trkpt lat="43.3897" lon="6.73165">
        <ele>10.23</ele>
        <time>2012-10-12T12:52:32Z</time>
      </trkpt>
      <trkpt lat="43.38969" lon="6.73167">
        <ele>10.23</ele>
        <time>2012-10-12T12:52:33Z</time>
      </trkpt>
      <trkpt lat="43.38969" lon="6.73168">
        <ele>10.71</ele>
        <time>2012-10-12T12:52:34Z</time>
      </trkpt>
      <trkpt lat="43.38968" lon="6.73172">
        <ele>11.19</ele>
        <time>2012-10-12T12:52:36Z</time>
      </trkpt>
      <trkpt lat="43.38969" lon="6.73174">
        <ele>11.19</ele>
        <time>2012-10-12T12:52:37Z</time>
      </trkpt>
      <trkpt lat="43.38969" lon="6.73175">
        <ele>11.67</ele>
        <time>2012-10-12T12:52:39Z</time>
      </trkpt>
      <trkpt lat="43.38971" lon="6.73177">
        <ele>11.67</ele>
        <time>2012-10-12T12:52:41Z</time>
      </trkpt>
      <trkpt lat="43.38976" lon="6.73175">
        <ele>11.19</ele>
        <time>2012-10-12T12:52:48Z</time>
      </trkpt>
      <trkpt lat="43.38982" lon="6.73169">
        <ele>11.67</ele>
        <time>2012-10-12T12:52:56Z</time>
      </trkpt>
      <trkpt lat="43.38982" lon="6.73169">
        <ele>11.19</ele>
        <time>2012-10-12T12:52:58Z</time>
      </trkpt>
      <trkpt lat="43.38995" lon="6.73187">
        <ele>10.71</ele>
        <time>2012-10-12T12:53:07Z</time>
      </trkpt>
      <trkpt lat="43.39014" lon="6.73207">
        <ele>11.19</ele>
        <time>2012-10-12T12:53:15Z</time>
      </trkpt>
      <trkpt lat="43.39026" lon="6.73207">
        <ele>10.71</ele>
        <time>2012-10-12T12:53:20Z</time>
      </trkpt>
      <trkpt lat="43.39035" lon="6.73197">
        <ele>11.19</ele>
        <time>2012-10-12T12:53:25Z</time>
      </trkpt>
      <trkpt lat="43.39039" lon="6.73191">
        <ele>12.15</ele>
        <time>2012-10-12T12:53:27Z</time>
      </trkpt>
      <trkpt lat="43.39048" lon="6.73185">
        <ele>12.15</ele>
        <time>2012-10-12T12:53:32Z</time>
      </trkpt>
      <trkpt lat="43.39057" lon="6.73185">
        <ele>12.15</ele>
        <time>2012-10-12T12:53:35Z</time>
      </trkpt>
      <trkpt lat="43.39084" lon="6.73195">
        <ele>11.19</ele>
        <time>2012-10-12T12:53:45Z</time>
      </trkpt>
      <trkpt lat="43.39093" lon="6.73192">
        <ele>9.75</ele>
        <time>2012-10-12T12:53:48Z</time>
      </trkpt>
      <trkpt lat="43.39097" lon="6.73188">
        <ele>9.27</ele>
        <time>2012-10-12T12:53:49Z</time>
      </trkpt>
      <trkpt lat="43.39107" lon="6.73175">
        <ele>8.79</ele>
        <time>2012-10-12T12:53:52Z</time>
      </trkpt>
      <trkpt lat="43.39117" lon="6.73153">
        <ele>9.27</ele>
        <time>2012-10-12T12:53:57Z</time>
      </trkpt>
      <trkpt lat="43.39117" lon="6.73114">
        <ele>9.75</ele>
        <time>2012-10-12T12:54:06Z</time>
      </trkpt>
      <trkpt lat="43.39124" lon="6.73077">
        <ele>9.75</ele>
        <time>2012-10-12T12:54:13Z</time>
      </trkpt>
      <trkpt lat="43.39128" lon="6.73056">
        <ele>10.23</ele>
        <time>2012-10-12T12:54:17Z</time>
      </trkpt>
      <trkpt lat="43.3913" lon="6.73051">
        <ele>8.79</ele>
        <time>2012-10-12T12:54:18Z</time>
      </trkpt>
      <trkpt lat="43.3915" lon="6.73004">
        <ele>5.42</ele>
        <time>2012-10-12T12:54:24Z</time>
      </trkpt>
      <trkpt lat="43.3916" lon="6.72982">
        <ele>5.42</ele>
        <time>2012-10-12T12:54:27Z</time>
      </trkpt>
      <trkpt lat="43.39164" lon="6.72976">
        <ele>5.42</ele>
        <time>2012-10-12T12:54:28Z</time>
      </trkpt>
      <trkpt lat="43.39168" lon="6.72971">
        <ele>0.14</ele>
        <time>2012-10-12T12:54:29Z</time>
      </trkpt>
      <trkpt lat="43.39173" lon="6.72965">
        <ele>5.42</ele>
        <time>2012-10-12T12:54:30Z</time>
      </trkpt>
      <trkpt lat="43.39181" lon="6.72954">
        <ele>11.67</ele>
        <time>2012-10-12T12:54:32Z</time>
      </trkpt>
      <trkpt lat="43.39185" lon="6.72949">
        <ele>5.91</ele>
        <time>2012-10-12T12:54:33Z</time>
      </trkpt>
      <trkpt lat="43.39202" lon="6.72924">
        <ele>5.91</ele>
        <time>2012-10-12T12:54:38Z</time>
      </trkpt>
      <trkpt lat="43.39205" lon="6.72922">
        <ele>7.35</ele>
        <time>2012-10-12T12:54:39Z</time>
      </trkpt>
      <trkpt lat="43.39208" lon="6.72924">
        <ele>7.35</ele>
        <time>2012-10-12T12:54:40Z</time>
      </trkpt>
      <trkpt lat="43.39211" lon="6.72924">
        <ele>7.83</ele>
        <time>2012-10-12T12:54:41Z</time>
      </trkpt>
      <trkpt lat="43.39214" lon="6.72924">
        <ele>7.83</ele>
        <time>2012-10-12T12:54:42Z</time>
      </trkpt>
      <trkpt lat="43.39217" lon="6.72921">
        <ele>8.31</ele>
        <time>2012-10-12T12:54:43Z</time>
      </trkpt>
      <trkpt lat="43.39217" lon="6.72918">
        <ele>8.31</ele>
        <time>2012-10-12T12:54:44Z</time>
      </trkpt>
      <trkpt lat="43.39217" lon="6.72915">
        <ele>8.31</ele>
        <time>2012-10-12T12:54:45Z</time>
      </trkpt>
      <trkpt lat="43.3922" lon="6.72913">
        <ele>8.31</ele>
        <time>2012-10-12T12:54:50Z</time>
      </trkpt>
      <trkpt lat="43.39222" lon="6.72912">
        <ele>7.83</ele>
        <time>2012-10-12T12:54:51Z</time>
      </trkpt>
      <trkpt lat="43.39223" lon="6.72911">
        <ele>7.35</ele>
        <time>2012-10-12T12:54:52Z</time>
      </trkpt>
      <trkpt lat="43.39224" lon="6.72908">
        <ele>7.83</ele>
        <time>2012-10-12T12:54:54Z</time>
      </trkpt>
      <trkpt lat="43.39228" lon="6.72899">
        <ele>7.35</ele>
        <time>2012-10-12T12:55:02Z</time>
      </trkpt>
      <trkpt lat="43.39229" lon="6.72897">
        <ele>6.87</ele>
        <time>2012-10-12T12:55:03Z</time>
      </trkpt>
      <trkpt lat="43.39242" lon="6.72872">
        <ele>6.87</ele>
        <time>2012-10-12T12:55:14Z</time>
      </trkpt>
      <trkpt lat="43.39257" lon="6.72853">
        <ele>6.39</ele>
        <time>2012-10-12T12:55:24Z</time>
      </trkpt>
      <trkpt lat="43.39267" lon="6.72831">
        <ele>6.39</ele>
        <time>2012-10-12T12:55:34Z</time>
      </trkpt>
      <trkpt lat="43.3927" lon="6.72818">
        <ele>7.35</ele>
        <time>2012-10-12T12:55:40Z</time>
      </trkpt>
      <trkpt lat="43.3927" lon="6.72815">
        <ele>6.39</ele>
        <time>2012-10-12T12:55:41Z</time>
      </trkpt>
      <trkpt lat="43.39271" lon="6.72811">
        <ele>5.91</ele>
        <time>2012-10-12T12:55:42Z</time>
      </trkpt>
      <trkpt lat="43.39271" lon="6.72809">
        <ele>5.91</ele>
        <time>2012-10-12T12:55:43Z</time>
      </trkpt>
      <trkpt lat="43.39272" lon="6.72807">
        <ele>5.91</ele>
        <time>2012-10-12T12:55:44Z</time>
      </trkpt>
      <trkpt lat="43.39275" lon="6.72803">
        <ele>6.39</ele>
        <time>2012-10-12T12:55:51Z</time>
      </trkpt>
      <trkpt lat="43.39277" lon="6.72802">
        <ele>6.39</ele>
        <time>2012-10-12T12:55:52Z</time>
      </trkpt>
      <trkpt lat="43.39278" lon="6.72801">
        <ele>6.39</ele>
        <time>2012-10-12T12:55:53Z</time>
      </trkpt>
      <trkpt lat="43.39294" lon="6.72774">
        <ele>5.91</ele>
        <time>2012-10-12T12:56:02Z</time>
      </trkpt>
      <trkpt lat="43.39318" lon="6.72769">
        <ele>5.91</ele>
        <time>2012-10-12T12:56:10Z</time>
      </trkpt>
      <trkpt lat="43.39358" lon="6.72786">
        <ele>6.87</ele>
        <time>2012-10-12T12:56:21Z</time>
      </trkpt>
      <trkpt lat="43.39365" lon="6.72787">
        <ele>5.91</ele>
        <time>2012-10-12T12:56:23Z</time>
      </trkpt>
      <trkpt lat="43.39369" lon="6.72787">
        <ele>7.35</ele>
        <time>2012-10-12T12:56:24Z</time>
      </trkpt>
      <trkpt lat="43.39372" lon="6.72786">
        <ele>7.83</ele>
        <time>2012-10-12T12:56:25Z</time>
      </trkpt>
      <trkpt lat="43.39381" lon="6.72784">
        <ele>9.27</ele>
        <time>2012-10-12T12:56:27Z</time>
      </trkpt>
      <trkpt lat="43.39389" lon="6.72783">
        <ele>9.75</ele>
        <time>2012-10-12T12:56:29Z</time>
      </trkpt>
      <trkpt lat="43.39393" lon="6.72783">
        <ele>9.27</ele>
        <time>2012-10-12T12:56:30Z</time>
      </trkpt>
      <trkpt lat="43.39397" lon="6.72785">
        <ele>10.23</ele>
        <time>2012-10-12T12:56:31Z</time>
      </trkpt>
      <trkpt lat="43.3945" lon="6.72805">
        <ele>8.79</ele>
        <time>2012-10-12T12:56:42Z</time>
      </trkpt>
      <trkpt lat="43.39511" lon="6.72828">
        <ele>9.27</ele>
        <time>2012-10-12T12:56:53Z</time>
      </trkpt>
      <trkpt lat="43.39592" lon="6.72857">
        <ele>7.35</ele>
        <time>2012-10-12T12:57:06Z</time>
      </trkpt>
      <trkpt lat="43.39666" lon="6.72883">
        <ele>7.35</ele>
        <time>2012-10-12T12:57:17Z</time>
      </trkpt>
      <trkpt lat="43.39706" lon="6.72898">
        <ele>7.83</ele>
        <time>2012-10-12T12:57:23Z</time>
      </trkpt>
      <trkpt lat="43.39778" lon="6.72925">
        <ele>7.35</ele>
        <time>2012-10-12T12:57:34Z</time>
      </trkpt>
      <trkpt lat="43.39848" lon="6.72948">
        <ele>8.79</ele>
        <time>2012-10-12T12:57:45Z</time>
      </trkpt>
      <trkpt lat="43.39886" lon="6.72962">
        <ele>4.94</ele>
        <time>2012-10-12T12:57:51Z</time>
      </trkpt>
      <trkpt lat="43.39904" lon="6.72969">
        <ele>8.31</ele>
        <time>2012-10-12T12:57:54Z</time>
      </trkpt>
      <trkpt lat="43.39984" lon="6.72981">
        <ele>6.39</ele>
        <time>2012-10-12T12:58:06Z</time>
      </trkpt>
      <trkpt lat="43.40058" lon="6.72986">
        <ele>7.35</ele>
        <time>2012-10-12T12:58:17Z</time>
      </trkpt>
      <trkpt lat="43.40139" lon="6.7299">
        <ele>6.39</ele>
        <time>2012-10-12T12:58:29Z</time>
      </trkpt>
      <trkpt lat="43.4019" lon="6.72994">
        <ele>6.39</ele>
        <time>2012-10-12T12:58:37Z</time>
      </trkpt>
      <trkpt lat="43.40255" lon="6.72987">
        <ele>8.31</ele>
        <time>2012-10-12T12:58:47Z</time>
      </trkpt>
      <trkpt lat="43.4026" lon="6.72985">
        <ele>7.35</ele>
        <time>2012-10-12T12:58:48Z</time>
      </trkpt>
      <trkpt lat="43.40267" lon="6.72982">
        <ele>6.39</ele>
        <time>2012-10-12T12:58:49Z</time>
      </trkpt>
      <trkpt lat="43.40304" lon="6.72971">
        <ele>7.35</ele>
        <time>2012-10-12T12:58:55Z</time>
      </trkpt>
      <trkpt lat="43.40316" lon="6.72967">
        <ele>7.35</ele>
        <time>2012-10-12T12:58:57Z</time>
      </trkpt>
      <trkpt lat="43.40321" lon="6.72965">
        <ele>6.39</ele>
        <time>2012-10-12T12:58:58Z</time>
      </trkpt>
      <trkpt lat="43.40385" lon="6.72928">
        <ele>6.39</ele>
        <time>2012-10-12T12:59:09Z</time>
      </trkpt>
      <trkpt lat="43.40425" lon="6.729">
        <ele>7.35</ele>
        <time>2012-10-12T12:59:16Z</time>
      </trkpt>
      <trkpt lat="43.40446" lon="6.72879">
        <ele>5.91</ele>
        <time>2012-10-12T12:59:20Z</time>
      </trkpt>
      <trkpt lat="43.40451" lon="6.72874">
        <ele>5.91</ele>
        <time>2012-10-12T12:59:21Z</time>
      </trkpt>
      <trkpt lat="43.40456" lon="6.7287">
        <ele>6.39</ele>
        <time>2012-10-12T12:59:22Z</time>
      </trkpt>
      <trkpt lat="43.40461" lon="6.72865">
        <ele>5.91</ele>
        <time>2012-10-12T12:59:23Z</time>
      </trkpt>
      <trkpt lat="43.40476" lon="6.72849">
        <ele>5.91</ele>
        <time>2012-10-12T12:59:26Z</time>
      </trkpt>
      <trkpt lat="43.40513" lon="6.72813">
        <ele>6.39</ele>
        <time>2012-10-12T12:59:33Z</time>
      </trkpt>
      <trkpt lat="43.40518" lon="6.72809">
        <ele>6.39</ele>
        <time>2012-10-12T12:59:34Z</time>
      </trkpt>
      <trkpt lat="43.40524" lon="6.72805">
        <ele>6.39</ele>
        <time>2012-10-12T12:59:35Z</time>
      </trkpt>
      <trkpt lat="43.40529" lon="6.728">
        <ele>6.87</ele>
        <time>2012-10-12T12:59:36Z</time>
      </trkpt>
      <trkpt lat="43.40535" lon="6.72795">
        <ele>6.87</ele>
        <time>2012-10-12T12:59:37Z</time>
      </trkpt>
      <trkpt lat="43.4054" lon="6.72789">
        <ele>6.87</ele>
        <time>2012-10-12T12:59:38Z</time>
      </trkpt>
      <trkpt lat="43.40579" lon="6.72746">
        <ele>6.39</ele>
        <time>2012-10-12T12:59:46Z</time>
      </trkpt>
      <trkpt lat="43.40584" lon="6.72741">
        <ele>5.91</ele>
        <time>2012-10-12T12:59:47Z</time>
      </trkpt>
      <trkpt lat="43.40589" lon="6.72736">
        <ele>6.87</ele>
        <time>2012-10-12T12:59:48Z</time>
      </trkpt>
      <trkpt lat="43.40636" lon="6.72688">
        <ele>6.39</ele>
        <time>2012-10-12T12:59:58Z</time>
      </trkpt>
      <trkpt lat="43.40645" lon="6.7268">
        <ele>6.39</ele>
        <time>2012-10-12T13:00:00Z</time>
      </trkpt>
      <trkpt lat="43.40676" lon="6.72648">
        <ele>4.94</ele>
        <time>2012-10-12T13:00:07Z</time>
      </trkpt>
      <trkpt lat="43.40722" lon="6.72603">
        <ele>5.91</ele>
        <time>2012-10-12T13:00:18Z</time>
      </trkpt>
      <trkpt lat="43.40755" lon="6.72571">
        <ele>6.39</ele>
        <time>2012-10-12T13:00:27Z</time>
      </trkpt>
      <trkpt lat="43.40775" lon="6.7255">
        <ele>6.87</ele>
        <time>2012-10-12T13:00:34Z</time>
      </trkpt>
      <trkpt lat="43.40783" lon="6.72544">
        <ele>6.39</ele>
        <time>2012-10-12T13:00:36Z</time>
      </trkpt>
      <trkpt lat="43.40814" lon="6.72512">
        <ele>6.39</ele>
        <time>2012-10-12T13:00:46Z</time>
      </trkpt>
      <trkpt lat="43.40822" lon="6.72505">
        <ele>6.39</ele>
        <time>2012-10-12T13:00:48Z</time>
      </trkpt>
      <trkpt lat="43.40843" lon="6.72484">
        <ele>6.87</ele>
        <time>2012-10-12T13:00:54Z</time>
      </trkpt>
      <trkpt lat="43.40848" lon="6.7248">
        <ele>7.35</ele>
        <time>2012-10-12T13:00:55Z</time>
      </trkpt>
      <trkpt lat="43.40856" lon="6.72471">
        <ele>7.35</ele>
        <time>2012-10-12T13:00:57Z</time>
      </trkpt>
      <trkpt lat="43.40861" lon="6.72467">
        <ele>7.83</ele>
        <time>2012-10-12T13:00:58Z</time>
      </trkpt>
      <trkpt lat="43.40883" lon="6.72446">
        <ele>6.39</ele>
        <time>2012-10-12T13:01:03Z</time>
      </trkpt>
      <trkpt lat="43.40887" lon="6.72441">
        <ele>5.42</ele>
        <time>2012-10-12T13:01:04Z</time>
      </trkpt>
      <trkpt lat="43.40897" lon="6.72432">
        <ele>6.87</ele>
        <time>2012-10-12T13:01:06Z</time>
      </trkpt>
      <trkpt lat="43.40902" lon="6.72429">
        <ele>6.87</ele>
        <time>2012-10-12T13:01:07Z</time>
      </trkpt>
      <trkpt lat="43.40908" lon="6.72428">
        <ele>6.39</ele>
        <time>2012-10-12T13:01:08Z</time>
      </trkpt>
      <trkpt lat="43.40913" lon="6.72428">
        <ele>6.39</ele>
        <time>2012-10-12T13:01:09Z</time>
      </trkpt>
      <trkpt lat="43.40918" lon="6.72429">
        <ele>6.39</ele>
        <time>2012-10-12T13:01:10Z</time>
      </trkpt>
      <trkpt lat="43.40923" lon="6.7243">
        <ele>6.87</ele>
        <time>2012-10-12T13:01:11Z</time>
      </trkpt>
      <trkpt lat="43.40928" lon="6.72429">
        <ele>7.35</ele>
        <time>2012-10-12T13:01:12Z</time>
      </trkpt>
      <trkpt lat="43.40932" lon="6.72428">
        <ele>7.35</ele>
        <time>2012-10-12T13:01:13Z</time>
      </trkpt>
      <trkpt lat="43.40937" lon="6.72427">
        <ele>5.91</ele>
        <time>2012-10-12T13:01:14Z</time>
      </trkpt>
      <trkpt lat="43.40942" lon="6.72425">
        <ele>6.87</ele>
        <time>2012-10-12T13:01:15Z</time>
      </trkpt>
      <trkpt lat="43.40947" lon="6.72424">
        <ele>8.31</ele>
        <time>2012-10-12T13:01:16Z</time>
      </trkpt>
      <trkpt lat="43.40952" lon="6.72423">
        <ele>8.79</ele>
        <time>2012-10-12T13:01:17Z</time>
      </trkpt>
      <trkpt lat="43.41017" lon="6.72426">
        <ele>7.83</ele>
        <time>2012-10-12T13:01:29Z</time>
      </trkpt>
      <trkpt lat="43.41075" lon="6.72454">
        <ele>7.83</ele>
        <time>2012-10-12T13:01:40Z</time>
      </trkpt>
      <trkpt lat="43.41128" lon="6.7249">
        <ele>8.79</ele>
        <time>2012-10-12T13:01:52Z</time>
      </trkpt>
      <trkpt lat="43.41165" lon="6.72512">
        <ele>7.35</ele>
        <time>2012-10-12T13:02:00Z</time>
      </trkpt>
      <trkpt lat="43.4117" lon="6.72512">
        <ele>7.35</ele>
        <time>2012-10-12T13:02:01Z</time>
      </trkpt>
      <trkpt lat="43.41175" lon="6.7251">
        <ele>7.35</ele>
        <time>2012-10-12T13:02:02Z</time>
      </trkpt>
      <trkpt lat="43.4118" lon="6.72506">
        <ele>6.39</ele>
        <time>2012-10-12T13:02:03Z</time>
      </trkpt>
      <trkpt lat="43.41184" lon="6.72501">
        <ele>6.39</ele>
        <time>2012-10-12T13:02:04Z</time>
      </trkpt>
      <trkpt lat="43.41188" lon="6.72497">
        <ele>5.91</ele>
        <time>2012-10-12T13:02:05Z</time>
      </trkpt>
      <trkpt lat="43.41192" lon="6.72494">
        <ele>6.87</ele>
        <time>2012-10-12T13:02:06Z</time>
      </trkpt>
      <trkpt lat="43.41201" lon="6.7248">
        <ele>4.94</ele>
        <time>2012-10-12T13:02:09Z</time>
      </trkpt>
      <trkpt lat="43.41205" lon="6.72478">
        <ele>4.94</ele>
        <time>2012-10-12T13:02:10Z</time>
      </trkpt>
      <trkpt lat="43.41211" lon="6.72479">
        <ele>4.94</ele>
        <time>2012-10-12T13:02:11Z</time>
      </trkpt>
      <trkpt lat="43.41216" lon="6.7248">
        <ele>4.94</ele>
        <time>2012-10-12T13:02:12Z</time>
      </trkpt>
      <trkpt lat="43.41226" lon="6.72481">
        <ele>4.94</ele>
        <time>2012-10-12T13:02:14Z</time>
      </trkpt>
      <trkpt lat="43.4123" lon="6.72481">
        <ele>3.98</ele>
        <time>2012-10-12T13:02:15Z</time>
      </trkpt>
      <trkpt lat="43.41235" lon="6.72481">
        <ele>4.46</ele>
        <time>2012-10-12T13:02:16Z</time>
      </trkpt>
      <trkpt lat="43.4124" lon="6.7248">
        <ele>4.94</ele>
        <time>2012-10-12T13:02:17Z</time>
      </trkpt>
      <trkpt lat="43.41244" lon="6.72479">
        <ele>4.94</ele>
        <time>2012-10-12T13:02:18Z</time>
      </trkpt>
      <trkpt lat="43.41254" lon="6.72479">
        <ele>3.98</ele>
        <time>2012-10-12T13:02:20Z</time>
      </trkpt>
      <trkpt lat="43.41259" lon="6.72478">
        <ele>3.02</ele>
        <time>2012-10-12T13:02:21Z</time>
      </trkpt>
      <trkpt lat="43.41274" lon="6.72477">
        <ele>3.98</ele>
        <time>2012-10-12T13:02:24Z</time>
      </trkpt>
      <trkpt lat="43.4128" lon="6.72475">
        <ele>4.94</ele>
        <time>2012-10-12T13:02:25Z</time>
      </trkpt>
      <trkpt lat="43.41285" lon="6.72472">
        <ele>3.5</ele>
        <time>2012-10-12T13:02:26Z</time>
      </trkpt>
      <trkpt lat="43.41294" lon="6.72465">
        <ele>3.5</ele>
        <time>2012-10-12T13:02:28Z</time>
      </trkpt>
      <trkpt lat="43.41327" lon="6.72455">
        <ele>3.98</ele>
        <time>2012-10-12T13:02:34Z</time>
      </trkpt>
      <trkpt lat="43.41348" lon="6.72461">
        <ele>5.42</ele>
        <time>2012-10-12T13:02:38Z</time>
      </trkpt>
      <trkpt lat="43.41368" lon="6.72477">
        <ele>5.42</ele>
        <time>2012-10-12T13:02:42Z</time>
      </trkpt>
      <trkpt lat="43.41389" lon="6.72505">
        <ele>5.42</ele>
        <time>2012-10-12T13:02:47Z</time>
      </trkpt>
      <trkpt lat="43.41397" lon="6.72517">
        <ele>5.42</ele>
        <time>2012-10-12T13:02:49Z</time>
      </trkpt>
      <trkpt lat="43.41403" lon="6.7253">
        <ele>4.94</ele>
        <time>2012-10-12T13:02:51Z</time>
      </trkpt>
      <trkpt lat="43.41405" lon="6.72537">
        <ele>4.94</ele>
        <time>2012-10-12T13:02:52Z</time>
      </trkpt>
      <trkpt lat="43.41407" lon="6.72545">
        <ele>5.42</ele>
        <time>2012-10-12T13:02:53Z</time>
      </trkpt>
      <trkpt lat="43.41409" lon="6.72552">
        <ele>4.46</ele>
        <time>2012-10-12T13:02:54Z</time>
      </trkpt>
      <trkpt lat="43.41413" lon="6.72558">
        <ele>4.46</ele>
        <time>2012-10-12T13:02:55Z</time>
      </trkpt>
      <trkpt lat="43.41416" lon="6.72565">
        <ele>4.94</ele>
        <time>2012-10-12T13:02:56Z</time>
      </trkpt>
      <trkpt lat="43.4142" lon="6.72572">
        <ele>4.94</ele>
        <time>2012-10-12T13:02:57Z</time>
      </trkpt>
      <trkpt lat="43.41424" lon="6.72578">
        <ele>4.46</ele>
        <time>2012-10-12T13:02:58Z</time>
      </trkpt>
      <trkpt lat="43.41433" lon="6.72598">
        <ele>5.42</ele>
        <time>2012-10-12T13:03:01Z</time>
      </trkpt>
      <trkpt lat="43.41436" lon="6.72605">
        <ele>5.91</ele>
        <time>2012-10-12T13:03:02Z</time>
      </trkpt>
      <trkpt lat="43.41438" lon="6.72611">
        <ele>5.91</ele>
        <time>2012-10-12T13:03:03Z</time>
      </trkpt>
      <trkpt lat="43.41442" lon="6.72617">
        <ele>5.42</ele>
        <time>2012-10-12T13:03:04Z</time>
      </trkpt>
      <trkpt lat="43.41446" lon="6.72621">
        <ele>5.42</ele>
        <time>2012-10-12T13:03:05Z</time>
      </trkpt>
      <trkpt lat="43.41451" lon="6.72624">
        <ele>4.94</ele>
        <time>2012-10-12T13:03:06Z</time>
      </trkpt>
      <trkpt lat="43.41456" lon="6.72627">
        <ele>4.94</ele>
        <time>2012-10-12T13:03:07Z</time>
      </trkpt>
      <trkpt lat="43.41461" lon="6.72629">
        <ele>4.94</ele>
        <time>2012-10-12T13:03:08Z</time>
      </trkpt>
      <trkpt lat="43.41505" lon="6.72653">
        <ele>5.42</ele>
        <time>2012-10-12T13:03:17Z</time>
      </trkpt>
      <trkpt lat="43.4151" lon="6.72654">
        <ele>5.91</ele>
        <time>2012-10-12T13:03:18Z</time>
      </trkpt>
      <trkpt lat="43.41515" lon="6.72655">
        <ele>5.91</ele>
        <time>2012-10-12T13:03:19Z</time>
      </trkpt>
      <trkpt lat="43.4152" lon="6.72656">
        <ele>5.42</ele>
        <time>2012-10-12T13:03:20Z</time>
      </trkpt>
      <trkpt lat="43.41525" lon="6.72658">
        <ele>5.91</ele>
        <time>2012-10-12T13:03:21Z</time>
      </trkpt>
      <trkpt lat="43.4153" lon="6.72661">
        <ele>6.87</ele>
        <time>2012-10-12T13:03:22Z</time>
      </trkpt>
      <trkpt lat="43.41532" lon="6.72664">
        <ele>8.31</ele>
        <time>2012-10-12T13:03:23Z</time>
      </trkpt>
      <trkpt lat="43.41533" lon="6.72667">
        <ele>9.27</ele>
        <time>2012-10-12T13:03:24Z</time>
      </trkpt>
      <trkpt lat="43.41522" lon="6.72679">
        <ele>9.75</ele>
        <time>2012-10-12T13:03:30Z</time>
      </trkpt>
      <trkpt lat="43.41519" lon="6.72682">
        <ele>10.23</ele>
        <time>2012-10-12T13:03:32Z</time>
      </trkpt>
      <trkpt lat="43.41529" lon="6.72696">
        <ele>10.71</ele>
        <time>2012-10-12T13:03:38Z</time>
      </trkpt>
      <trkpt lat="43.4156" lon="6.72713">
        <ele>11.19</ele>
        <time>2012-10-12T13:03:47Z</time>
      </trkpt>
      <trkpt lat="43.41569" lon="6.72707">
        <ele>8.79</ele>
        <time>2012-10-12T13:03:50Z</time>
      </trkpt>
      <trkpt lat="43.41572" lon="6.72704">
        <ele>8.31</ele>
        <time>2012-10-12T13:03:51Z</time>
      </trkpt>
      <trkpt lat="43.41575" lon="6.727">
        <ele>8.31</ele>
        <time>2012-10-12T13:03:52Z</time>
      </trkpt>
      <trkpt lat="43.41577" lon="6.72696">
        <ele>7.83</ele>
        <time>2012-10-12T13:03:53Z</time>
      </trkpt>
      <trkpt lat="43.41579" lon="6.72693">
        <ele>8.31</ele>
        <time>2012-10-12T13:03:54Z</time>
      </trkpt>
      <trkpt lat="43.41581" lon="6.72692">
        <ele>8.31</ele>
        <time>2012-10-12T13:03:55Z</time>
      </trkpt>
      <trkpt lat="43.41583" lon="6.72694">
        <ele>8.31</ele>
        <time>2012-10-12T13:03:56Z</time>
      </trkpt>
      <trkpt lat="43.41583" lon="6.72697">
        <ele>7.83</ele>
        <time>2012-10-12T13:03:57Z</time>
      </trkpt>
      <trkpt lat="43.41581" lon="6.727">
        <ele>6.87</ele>
        <time>2012-10-12T13:03:58Z</time>
      </trkpt>
      <trkpt lat="43.41579" lon="6.72704">
        <ele>6.87</ele>
        <time>2012-10-12T13:03:59Z</time>
      </trkpt>
      <trkpt lat="43.41568" lon="6.72727">
        <ele>5.91</ele>
        <time>2012-10-12T13:04:05Z</time>
      </trkpt>
      <trkpt lat="43.41567" lon="6.7273">
        <ele>5.91</ele>
        <time>2012-10-12T13:04:06Z</time>
      </trkpt>
      <trkpt lat="43.41562" lon="6.72743">
        <ele>6.39</ele>
        <time>2012-10-12T13:04:09Z</time>
      </trkpt>
      <trkpt lat="43.41558" lon="6.72747">
        <ele>5.91</ele>
        <time>2012-10-12T13:04:10Z</time>
      </trkpt>
      <trkpt lat="43.41554" lon="6.72752">
        <ele>5.91</ele>
        <time>2012-10-12T13:04:11Z</time>
      </trkpt>
      <trkpt lat="43.41551" lon="6.72757">
        <ele>6.39</ele>
        <time>2012-10-12T13:04:12Z</time>
      </trkpt>
      <trkpt lat="43.41541" lon="6.72773">
        <ele>5.91</ele>
        <time>2012-10-12T13:04:15Z</time>
      </trkpt>
      <trkpt lat="43.41534" lon="6.72782">
        <ele>4.94</ele>
        <time>2012-10-12T13:04:17Z</time>
      </trkpt>
      <trkpt lat="43.41523" lon="6.72794">
        <ele>5.91</ele>
        <time>2012-10-12T13:04:20Z</time>
      </trkpt>
      <trkpt lat="43.41527" lon="6.72802">
        <ele>6.39</ele>
        <time>2012-10-12T13:04:26Z</time>
      </trkpt>
      <trkpt lat="43.41529" lon="6.72801">
        <ele>6.87</ele>
        <time>2012-10-12T13:04:27Z</time>
      </trkpt>
      <trkpt lat="43.41541" lon="6.72797">
        <ele>6.39</ele>
        <time>2012-10-12T13:04:31Z</time>
      </trkpt>
      <trkpt lat="43.41557" lon="6.72807">
        <ele>7.35</ele>
        <time>2012-10-12T13:04:37Z</time>
      </trkpt>
      <trkpt lat="43.4156" lon="6.72822">
        <ele>5.91</ele>
        <time>2012-10-12T13:04:41Z</time>
      </trkpt>
      <trkpt lat="43.41576" lon="6.72822">
        <ele>6.39</ele>
        <time>2012-10-12T13:04:46Z</time>
      </trkpt>
      <trkpt lat="43.41583" lon="6.72817">
        <ele>5.91</ele>
        <time>2012-10-12T13:04:48Z</time>
      </trkpt>
      <trkpt lat="43.41601" lon="6.72811">
        <ele>6.39</ele>
        <time>2012-10-12T13:04:52Z</time>
      </trkpt>
      <trkpt lat="43.41606" lon="6.7281">
        <ele>6.39</ele>
        <time>2012-10-12T13:04:53Z</time>
      </trkpt>
      <trkpt lat="43.4161" lon="6.7281">
        <ele>5.91</ele>
        <time>2012-10-12T13:04:54Z</time>
      </trkpt>
      <trkpt lat="43.41648" lon="6.72817">
        <ele>6.39</ele>
        <time>2012-10-12T13:05:02Z</time>
      </trkpt>
      <trkpt lat="43.41668" lon="6.72823">
        <ele>6.39</ele>
        <time>2012-10-12T13:05:06Z</time>
      </trkpt>
      <trkpt lat="43.41676" lon="6.72829">
        <ele>6.39</ele>
        <time>2012-10-12T13:05:08Z</time>
      </trkpt>
      <trkpt lat="43.4168" lon="6.72832">
        <ele>6.39</ele>
        <time>2012-10-12T13:05:09Z</time>
      </trkpt>
      <trkpt lat="43.41682" lon="6.72836">
        <ele>6.87</ele>
        <time>2012-10-12T13:05:10Z</time>
      </trkpt>
      <trkpt lat="43.41676" lon="6.72847">
        <ele>6.39</ele>
        <time>2012-10-12T13:05:13Z</time>
      </trkpt>
      <trkpt lat="43.41673" lon="6.72849">
        <ele>6.39</ele>
        <time>2012-10-12T13:05:14Z</time>
      </trkpt>
      <trkpt lat="43.41668" lon="6.7285">
        <ele>6.39</ele>
        <time>2012-10-12T13:05:15Z</time>
      </trkpt>
      <trkpt lat="43.41658" lon="6.72856">
        <ele>9.27</ele>
        <time>2012-10-12T13:05:18Z</time>
      </trkpt>
      <trkpt lat="43.41651" lon="6.72859">
        <ele>7.83</ele>
        <time>2012-10-12T13:05:20Z</time>
      </trkpt>
      <trkpt lat="43.41612" lon="6.72877">
        <ele>5.91</ele>
        <time>2012-10-12T13:05:27Z</time>
      </trkpt>
      <trkpt lat="43.41594" lon="6.72891">
        <ele>6.87</ele>
        <time>2012-10-12T13:05:31Z</time>
      </trkpt>
      <trkpt lat="43.41573" lon="6.7292">
        <ele>5.91</ele>
        <time>2012-10-12T13:05:38Z</time>
      </trkpt>
      <trkpt lat="43.41573" lon="6.72937">
        <ele>5.91</ele>
        <time>2012-10-12T13:05:41Z</time>
      </trkpt>
      <trkpt lat="43.4155" lon="6.72959">
        <ele>5.42</ele>
        <time>2012-10-12T13:05:48Z</time>
      </trkpt>
      <trkpt lat="43.41526" lon="6.72975">
        <ele>4.94</ele>
        <time>2012-10-12T13:05:54Z</time>
      </trkpt>
      <trkpt lat="43.41501" lon="6.72972">
        <ele>5.91</ele>
        <time>2012-10-12T13:05:59Z</time>
      </trkpt>
      <trkpt lat="43.41495" lon="6.72995">
        <ele>6.39</ele>
        <time>2012-10-12T13:06:03Z</time>
      </trkpt>
      <trkpt lat="43.41495" lon="6.73002">
        <ele>5.42</ele>
        <time>2012-10-12T13:06:04Z</time>
      </trkpt>
      <trkpt lat="43.41473" lon="6.73039">
        <ele>4.94</ele>
        <time>2012-10-12T13:06:11Z</time>
      </trkpt>
      <trkpt lat="43.41468" lon="6.73038">
        <ele>4.94</ele>
        <time>2012-10-12T13:06:12Z</time>
      </trkpt>
      <trkpt lat="43.41454" lon="6.73034">
        <ele>6.39</ele>
        <time>2012-10-12T13:06:15Z</time>
      </trkpt>
      <trkpt lat="43.41435" lon="6.73049">
        <ele>6.87</ele>
        <time>2012-10-12T13:06:20Z</time>
      </trkpt>
      <trkpt lat="43.41433" lon="6.73056">
        <ele>6.87</ele>
        <time>2012-10-12T13:06:21Z</time>
      </trkpt>
      <trkpt lat="43.41429" lon="6.73078">
        <ele>5.91</ele>
        <time>2012-10-12T13:06:24Z</time>
      </trkpt>
      <trkpt lat="43.41428" lon="6.73095">
        <ele>6.39</ele>
        <time>2012-10-12T13:06:26Z</time>
      </trkpt>
      <trkpt lat="43.41438" lon="6.73127">
        <ele>5.91</ele>
        <time>2012-10-12T13:06:31Z</time>
      </trkpt>
      <trkpt lat="43.41443" lon="6.73129">
        <ele>4.94</ele>
        <time>2012-10-12T13:06:32Z</time>
      </trkpt>
      <trkpt lat="43.41451" lon="6.73128">
        <ele>4.94</ele>
        <time>2012-10-12T13:06:34Z</time>
      </trkpt>
      <trkpt lat="43.41454" lon="6.73151">
        <ele>4.94</ele>
        <time>2012-10-12T13:06:39Z</time>
      </trkpt>
      <trkpt lat="43.41439" lon="6.73162">
        <ele>4.94</ele>
        <time>2012-10-12T13:06:44Z</time>
      </trkpt>
      <trkpt lat="43.41442" lon="6.73175">
        <ele>5.91</ele>
        <time>2012-10-12T13:06:46Z</time>
      </trkpt>
      <trkpt lat="43.4144" lon="6.73215">
        <ele>5.42</ele>
        <time>2012-10-12T13:06:53Z</time>
      </trkpt>
      <trkpt lat="43.41435" lon="6.73218">
        <ele>5.91</ele>
        <time>2012-10-12T13:06:54Z</time>
      </trkpt>
      <trkpt lat="43.41416" lon="6.73228">
        <ele>5.42</ele>
        <time>2012-10-12T13:06:58Z</time>
      </trkpt>
      <trkpt lat="43.41397" lon="6.73237">
        <ele>5.91</ele>
        <time>2012-10-12T13:07:03Z</time>
      </trkpt>
      <trkpt lat="43.41396" lon="6.73242">
        <ele>5.91</ele>
        <time>2012-10-12T13:07:04Z</time>
      </trkpt>
      <trkpt lat="43.41392" lon="6.73283">
        <ele>5.42</ele>
        <time>2012-10-12T13:07:10Z</time>
      </trkpt>
      <trkpt lat="43.41391" lon="6.73306">
        <ele>4.94</ele>
        <time>2012-10-12T13:07:13Z</time>
      </trkpt>
      <trkpt lat="43.41396" lon="6.73374">
        <ele>4.46</ele>
        <time>2012-10-12T13:07:21Z</time>
      </trkpt>
      <trkpt lat="43.41415" lon="6.73425">
        <ele>3.5</ele>
        <time>2012-10-12T13:07:27Z</time>
      </trkpt>
      <trkpt lat="43.41424" lon="6.73451">
        <ele>3.5</ele>
        <time>2012-10-12T13:07:30Z</time>
      </trkpt>
      <trkpt lat="43.41454" lon="6.73469">
        <ele>4.46</ele>
        <time>2012-10-12T13:07:35Z</time>
      </trkpt>
      <trkpt lat="43.41529" lon="6.73487">
        <ele>4.46</ele>
        <time>2012-10-12T13:07:47Z</time>
      </trkpt>
      <trkpt lat="43.41587" lon="6.735">
        <ele>4.94</ele>
        <time>2012-10-12T13:07:57Z</time>
      </trkpt>
      <trkpt lat="43.41597" lon="6.73528">
        <ele>5.91</ele>
        <time>2012-10-12T13:08:02Z</time>
      </trkpt>
      <trkpt lat="43.41594" lon="6.73542">
        <ele>5.91</ele>
        <time>2012-10-12T13:08:04Z</time>
      </trkpt>
      <trkpt lat="43.416" lon="6.73587">
        <ele>4.94</ele>
        <time>2012-10-12T13:08:10Z</time>
      </trkpt>
      <trkpt lat="43.4162" lon="6.73628">
        <ele>5.42</ele>
        <time>2012-10-12T13:08:16Z</time>
      </trkpt>
      <trkpt lat="43.41639" lon="6.73656">
        <ele>4.94</ele>
        <time>2012-10-12T13:08:21Z</time>
      </trkpt>
      <trkpt lat="43.41636" lon="6.73686">
        <ele>4.94</ele>
        <time>2012-10-12T13:08:26Z</time>
      </trkpt>
      <trkpt lat="43.41613" lon="6.73714">
        <ele>5.42</ele>
        <time>2012-10-12T13:08:31Z</time>
      </trkpt>
      <trkpt lat="43.41568" lon="6.73783">
        <ele>5.42</ele>
        <time>2012-10-12T13:08:42Z</time>
      </trkpt>
      <trkpt lat="43.4156" lon="6.73797">
        <ele>4.94</ele>
        <time>2012-10-12T13:08:44Z</time>
      </trkpt>
      <trkpt lat="43.41552" lon="6.7381">
        <ele>5.42</ele>
        <time>2012-10-12T13:08:46Z</time>
      </trkpt>
      <trkpt lat="43.41551" lon="6.73817">
        <ele>5.91</ele>
        <time>2012-10-12T13:08:47Z</time>
      </trkpt>
      <trkpt lat="43.41552" lon="6.73824">
        <ele>5.42</ele>
        <time>2012-10-12T13:08:48Z</time>
      </trkpt>
      <trkpt lat="43.41556" lon="6.7383">
        <ele>4.94</ele>
        <time>2012-10-12T13:08:49Z</time>
      </trkpt>
      <trkpt lat="43.4156" lon="6.73834">
        <ele>5.91</ele>
        <time>2012-10-12T13:08:50Z</time>
      </trkpt>
      <trkpt lat="43.41566" lon="6.73838">
        <ele>4.94</ele>
        <time>2012-10-12T13:08:51Z</time>
      </trkpt>
      <trkpt lat="43.41572" lon="6.73841">
        <ele>4.94</ele>
        <time>2012-10-12T13:08:52Z</time>
      </trkpt>
      <trkpt lat="43.41579" lon="6.73844">
        <ele>4.94</ele>
        <time>2012-10-12T13:08:53Z</time>
      </trkpt>
      <trkpt lat="43.41584" lon="6.73848">
        <ele>4.46</ele>
        <time>2012-10-12T13:08:54Z</time>
      </trkpt>
      <trkpt lat="43.4159" lon="6.73852">
        <ele>4.94</ele>
        <time>2012-10-12T13:08:55Z</time>
      </trkpt>
      <trkpt lat="43.41594" lon="6.73855">
        <ele>5.42</ele>
        <time>2012-10-12T13:08:56Z</time>
      </trkpt>
      <trkpt lat="43.41596" lon="6.73857">
        <ele>5.91</ele>
        <time>2012-10-12T13:08:57Z</time>
      </trkpt>
      <trkpt lat="43.41598" lon="6.73858">
        <ele>6.39</ele>
        <time>2012-10-12T13:09:03Z</time>
      </trkpt>
      <trkpt lat="43.41596" lon="6.73857">
        <ele>5.91</ele>
        <time>2012-10-12T13:09:16Z</time>
      </trkpt>
      <trkpt lat="43.41598" lon="6.73857">
        <ele>6.39</ele>
        <time>2012-10-12T13:09:26Z</time>
      </trkpt>
      <trkpt lat="43.41601" lon="6.73857">
        <ele>6.39</ele>
        <time>2012-10-12T13:09:37Z</time>
      </trkpt>
      <trkpt lat="43.41602" lon="6.73857">
        <ele>5.42</ele>
        <time>2012-10-12T13:09:53Z</time>
      </trkpt>
      <trkpt lat="43.41606" lon="6.73861">
        <ele>5.91</ele>
        <time>2012-10-12T13:10:03Z</time>
      </trkpt>
      <trkpt lat="43.41617" lon="6.73865">
        <ele>5.42</ele>
        <time>2012-10-12T13:10:14Z</time>
      </trkpt>
    </trkseg>
  </trk>
</gpx>